<?xml version="1.0" encoding="UTF-8" standalone="no" ?>
<gpx xmlns="http://www.topografix.com/GPX/1/1" xmlns:xsi="http://www.w3.org/2001/XMLSchema-instance" xsi:schemaLocation="http://www.topografix.com/GPX/1/1 http://www.topografix.com/GPX/1/1/gpx.xsd" version="1.1" creator="VisuGPX - https://www.visugpx.com">
  <metadata>
    <name>epic enduro 2014</name>
    <desc><![CDATA[shimano epic enduro day 2
deux spéciales sur Montahut et Bardou]]></desc>
  </metadata>
  <trk>
    <name><![CDATA[Boucle2-Epic-2014]]></name>
    <trkseg>
      <trkpt lat="43.56742" lon="2.96249">
        <ele>192</ele>
        <time>2014-01-18T07:12:12Z</time>
      </trkpt>
      <trkpt lat="43.56741" lon="2.96244">
        <ele>192</ele>
        <time>2014-01-18T07:12:13Z</time>
      </trkpt>
      <trkpt lat="43.56731" lon="2.96213">
        <ele>192</ele>
        <time>2014-01-18T07:12:19Z</time>
      </trkpt>
      <trkpt lat="43.56719" lon="2.96172">
        <ele>192</ele>
        <time>2014-01-18T07:12:26Z</time>
      </trkpt>
      <trkpt lat="43.56705" lon="2.96126">
        <ele>192</ele>
        <time>2014-01-18T07:12:34Z</time>
      </trkpt>
      <trkpt lat="43.56693" lon="2.96084">
        <ele>192</ele>
        <time>2014-01-18T07:12:41Z</time>
      </trkpt>
      <trkpt lat="43.56685" lon="2.96046">
        <ele>192</ele>
        <time>2014-01-18T07:12:47Z</time>
      </trkpt>
      <trkpt lat="43.56684" lon="2.9604">
        <ele>192</ele>
        <time>2014-01-18T07:12:48Z</time>
      </trkpt>
      <trkpt lat="43.56676" lon="2.95991">
        <ele>192</ele>
        <time>2014-01-18T07:12:56Z</time>
      </trkpt>
      <trkpt lat="43.56673" lon="2.95966">
        <ele>192</ele>
        <time>2014-01-18T07:13:01Z</time>
      </trkpt>
      <trkpt lat="43.56673" lon="2.95963">
        <ele>192</ele>
        <time>2014-01-18T07:13:02Z</time>
      </trkpt>
      <trkpt lat="43.56669" lon="2.95945">
        <ele>192</ele>
        <time>2014-01-18T07:13:06Z</time>
      </trkpt>
      <trkpt lat="43.56666" lon="2.95923">
        <ele>192</ele>
        <time>2014-01-18T07:13:10Z</time>
      </trkpt>
      <trkpt lat="43.56664" lon="2.95874">
        <ele>192</ele>
        <time>2014-01-18T07:13:18Z</time>
      </trkpt>
      <trkpt lat="43.56663" lon="2.9583">
        <ele>192</ele>
        <time>2014-01-18T07:13:25Z</time>
      </trkpt>
      <trkpt lat="43.56664" lon="2.95784">
        <ele>192</ele>
        <time>2014-01-18T07:13:32Z</time>
      </trkpt>
      <trkpt lat="43.56666" lon="2.95731">
        <ele>192</ele>
        <time>2014-01-18T07:13:40Z</time>
      </trkpt>
      <trkpt lat="43.56666" lon="2.95717">
        <ele>192</ele>
        <time>2014-01-18T07:13:42Z</time>
      </trkpt>
      <trkpt lat="43.56667" lon="2.95682">
        <ele>192</ele>
        <time>2014-01-18T07:13:47Z</time>
      </trkpt>
      <trkpt lat="43.56669" lon="2.95626">
        <ele>192</ele>
        <time>2014-01-18T07:13:55Z</time>
      </trkpt>
      <trkpt lat="43.56671" lon="2.95578">
        <ele>192</ele>
        <time>2014-01-18T07:14:02Z</time>
      </trkpt>
      <trkpt lat="43.56671" lon="2.9552">
        <ele>192</ele>
        <time>2014-01-18T07:14:10Z</time>
      </trkpt>
      <trkpt lat="43.5667" lon="2.95483">
        <ele>192</ele>
        <time>2014-01-18T07:14:15Z</time>
      </trkpt>
      <trkpt lat="43.5667" lon="2.95476">
        <ele>192</ele>
        <time>2014-01-18T07:14:16Z</time>
      </trkpt>
      <trkpt lat="43.5667" lon="2.95432">
        <ele>191.6</ele>
        <time>2014-01-18T07:14:22Z</time>
      </trkpt>
      <trkpt lat="43.5667" lon="2.95425">
        <ele>191.2</ele>
        <time>2014-01-18T07:14:23Z</time>
      </trkpt>
      <trkpt lat="43.5667" lon="2.95419">
        <ele>190.8</ele>
        <time>2014-01-18T07:14:24Z</time>
      </trkpt>
      <trkpt lat="43.56669" lon="2.95412">
        <ele>190.4</ele>
        <time>2014-01-18T07:14:25Z</time>
      </trkpt>
      <trkpt lat="43.56669" lon="2.95405">
        <ele>190</ele>
        <time>2014-01-18T07:14:26Z</time>
      </trkpt>
      <trkpt lat="43.56668" lon="2.95398">
        <ele>190</ele>
        <time>2014-01-18T07:14:27Z</time>
      </trkpt>
      <trkpt lat="43.56668" lon="2.95385">
        <ele>190</ele>
        <time>2014-01-18T07:14:29Z</time>
      </trkpt>
      <trkpt lat="43.56667" lon="2.95364">
        <ele>190</ele>
        <time>2014-01-18T07:14:32Z</time>
      </trkpt>
      <trkpt lat="43.56667" lon="2.95331">
        <ele>190</ele>
        <time>2014-01-18T07:14:37Z</time>
      </trkpt>
      <trkpt lat="43.56667" lon="2.95323">
        <ele>190</ele>
        <time>2014-01-18T07:14:38Z</time>
      </trkpt>
      <trkpt lat="43.56664" lon="2.95261">
        <ele>190</ele>
        <time>2014-01-18T07:14:46Z</time>
      </trkpt>
      <trkpt lat="43.56661" lon="2.95207">
        <ele>190</ele>
        <time>2014-01-18T07:14:53Z</time>
      </trkpt>
      <trkpt lat="43.5666" lon="2.95174">
        <ele>189.6</ele>
        <time>2014-01-18T07:14:57Z</time>
      </trkpt>
      <trkpt lat="43.5666" lon="2.95166">
        <ele>189.2</ele>
        <time>2014-01-18T07:14:58Z</time>
      </trkpt>
      <trkpt lat="43.5666" lon="2.95158">
        <ele>188.6</ele>
        <time>2014-01-18T07:14:59Z</time>
      </trkpt>
      <trkpt lat="43.5666" lon="2.9515">
        <ele>188.2</ele>
        <time>2014-01-18T07:15:00Z</time>
      </trkpt>
      <trkpt lat="43.5666" lon="2.95141">
        <ele>187.8</ele>
        <time>2014-01-18T07:15:01Z</time>
      </trkpt>
      <trkpt lat="43.56661" lon="2.95125">
        <ele>187.8</ele>
        <time>2014-01-18T07:15:03Z</time>
      </trkpt>
      <trkpt lat="43.5667" lon="2.95073">
        <ele>187.8</ele>
        <time>2014-01-18T07:15:10Z</time>
      </trkpt>
      <trkpt lat="43.56681" lon="2.95016">
        <ele>187.8</ele>
        <time>2014-01-18T07:15:18Z</time>
      </trkpt>
      <trkpt lat="43.56686" lon="2.94994">
        <ele>187.4</ele>
        <time>2014-01-18T07:15:21Z</time>
      </trkpt>
      <trkpt lat="43.56687" lon="2.94987">
        <ele>187</ele>
        <time>2014-01-18T07:15:22Z</time>
      </trkpt>
      <trkpt lat="43.56689" lon="2.94979">
        <ele>186.4</ele>
        <time>2014-01-18T07:15:23Z</time>
      </trkpt>
      <trkpt lat="43.5669" lon="2.94971">
        <ele>186</ele>
        <time>2014-01-18T07:15:24Z</time>
      </trkpt>
      <trkpt lat="43.56692" lon="2.94964">
        <ele>185.4</ele>
        <time>2014-01-18T07:15:25Z</time>
      </trkpt>
      <trkpt lat="43.56695" lon="2.9495">
        <ele>185.4</ele>
        <time>2014-01-18T07:15:27Z</time>
      </trkpt>
      <trkpt lat="43.567" lon="2.94922">
        <ele>185.4</ele>
        <time>2014-01-18T07:15:31Z</time>
      </trkpt>
      <trkpt lat="43.56702" lon="2.94909">
        <ele>185.4</ele>
        <time>2014-01-18T07:15:33Z</time>
      </trkpt>
      <trkpt lat="43.56705" lon="2.94895">
        <ele>185.4</ele>
        <time>2014-01-18T07:15:35Z</time>
      </trkpt>
      <trkpt lat="43.56708" lon="2.94883">
        <ele>185.4</ele>
        <time>2014-01-18T07:15:37Z</time>
      </trkpt>
      <trkpt lat="43.5671" lon="2.94862">
        <ele>185.4</ele>
        <time>2014-01-18T07:15:40Z</time>
      </trkpt>
      <trkpt lat="43.5671" lon="2.94848">
        <ele>185.4</ele>
        <time>2014-01-18T07:15:42Z</time>
      </trkpt>
      <trkpt lat="43.56707" lon="2.94805">
        <ele>185.4</ele>
        <time>2014-01-18T07:15:48Z</time>
      </trkpt>
      <trkpt lat="43.56702" lon="2.94765">
        <ele>185.4</ele>
        <time>2014-01-18T07:15:54Z</time>
      </trkpt>
      <trkpt lat="43.56696" lon="2.9473">
        <ele>185.4</ele>
        <time>2014-01-18T07:15:59Z</time>
      </trkpt>
      <trkpt lat="43.56685" lon="2.94686">
        <ele>185.4</ele>
        <time>2014-01-18T07:16:05Z</time>
      </trkpt>
      <trkpt lat="43.56668" lon="2.94642">
        <ele>185.4</ele>
        <time>2014-01-18T07:16:12Z</time>
      </trkpt>
      <trkpt lat="43.56651" lon="2.94601">
        <ele>185.4</ele>
        <time>2014-01-18T07:16:18Z</time>
      </trkpt>
      <trkpt lat="43.56631" lon="2.94551">
        <ele>185.4</ele>
        <time>2014-01-18T07:16:25Z</time>
      </trkpt>
      <trkpt lat="43.56612" lon="2.94504">
        <ele>185.4</ele>
        <time>2014-01-18T07:16:32Z</time>
      </trkpt>
      <trkpt lat="43.56604" lon="2.94484">
        <ele>185</ele>
        <time>2014-01-18T07:16:35Z</time>
      </trkpt>
      <trkpt lat="43.56602" lon="2.94477">
        <ele>184.6</ele>
        <time>2014-01-18T07:16:36Z</time>
      </trkpt>
      <trkpt lat="43.566" lon="2.94471">
        <ele>184.2</ele>
        <time>2014-01-18T07:16:37Z</time>
      </trkpt>
      <trkpt lat="43.56597" lon="2.94464">
        <ele>183.8</ele>
        <time>2014-01-18T07:16:38Z</time>
      </trkpt>
      <trkpt lat="43.56595" lon="2.94457">
        <ele>183.4</ele>
        <time>2014-01-18T07:16:39Z</time>
      </trkpt>
      <trkpt lat="43.56588" lon="2.94436">
        <ele>183.4</ele>
        <time>2014-01-18T07:16:42Z</time>
      </trkpt>
      <trkpt lat="43.56581" lon="2.94409">
        <ele>183.4</ele>
        <time>2014-01-18T07:16:46Z</time>
      </trkpt>
      <trkpt lat="43.56573" lon="2.9437">
        <ele>183.4</ele>
        <time>2014-01-18T07:16:52Z</time>
      </trkpt>
      <trkpt lat="43.56571" lon="2.94351">
        <ele>183.4</ele>
        <time>2014-01-18T07:16:55Z</time>
      </trkpt>
      <trkpt lat="43.5657" lon="2.94332">
        <ele>183.4</ele>
        <time>2014-01-18T07:16:58Z</time>
      </trkpt>
      <trkpt lat="43.56569" lon="2.9431">
        <ele>183</ele>
        <time>2014-01-18T07:17:01Z</time>
      </trkpt>
      <trkpt lat="43.56568" lon="2.94302">
        <ele>182.4</ele>
        <time>2014-01-18T07:17:02Z</time>
      </trkpt>
      <trkpt lat="43.56568" lon="2.94295">
        <ele>182</ele>
        <time>2014-01-18T07:17:03Z</time>
      </trkpt>
      <trkpt lat="43.56568" lon="2.94289">
        <ele>181.6</ele>
        <time>2014-01-18T07:17:04Z</time>
      </trkpt>
      <trkpt lat="43.56568" lon="2.94282">
        <ele>181.2</ele>
        <time>2014-01-18T07:17:05Z</time>
      </trkpt>
      <trkpt lat="43.56568" lon="2.94275">
        <ele>180.6</ele>
        <time>2014-01-18T07:17:06Z</time>
      </trkpt>
      <trkpt lat="43.56567" lon="2.94268">
        <ele>180</ele>
        <time>2014-01-18T07:17:07Z</time>
      </trkpt>
      <trkpt lat="43.56567" lon="2.94261">
        <ele>179.4</ele>
        <time>2014-01-18T07:17:08Z</time>
      </trkpt>
      <trkpt lat="43.56567" lon="2.94254">
        <ele>178.8</ele>
        <time>2014-01-18T07:17:09Z</time>
      </trkpt>
      <trkpt lat="43.56566" lon="2.94247">
        <ele>178.2</ele>
        <time>2014-01-18T07:17:10Z</time>
      </trkpt>
      <trkpt lat="43.56564" lon="2.94224">
        <ele>178.2</ele>
        <time>2014-01-18T07:17:13Z</time>
      </trkpt>
      <trkpt lat="43.56562" lon="2.9421">
        <ele>178.2</ele>
        <time>2014-01-18T07:17:15Z</time>
      </trkpt>
      <trkpt lat="43.56559" lon="2.94197">
        <ele>178.2</ele>
        <time>2014-01-18T07:17:17Z</time>
      </trkpt>
      <trkpt lat="43.56558" lon="2.94179">
        <ele>178.2</ele>
        <time>2014-01-18T07:17:20Z</time>
      </trkpt>
      <trkpt lat="43.56555" lon="2.9415">
        <ele>178.2</ele>
        <time>2014-01-18T07:17:24Z</time>
      </trkpt>
      <trkpt lat="43.56554" lon="2.94142">
        <ele>178.2</ele>
        <time>2014-01-18T07:17:25Z</time>
      </trkpt>
      <trkpt lat="43.56545" lon="2.9409">
        <ele>178.2</ele>
        <time>2014-01-18T07:17:32Z</time>
      </trkpt>
      <trkpt lat="43.56543" lon="2.94083">
        <ele>178.2</ele>
        <time>2014-01-18T07:17:33Z</time>
      </trkpt>
      <trkpt lat="43.56542" lon="2.94076">
        <ele>178.2</ele>
        <time>2014-01-18T07:17:34Z</time>
      </trkpt>
      <trkpt lat="43.56536" lon="2.9405">
        <ele>178.2</ele>
        <time>2014-01-18T07:17:38Z</time>
      </trkpt>
      <trkpt lat="43.56531" lon="2.94029">
        <ele>178.2</ele>
        <time>2014-01-18T07:17:41Z</time>
      </trkpt>
      <trkpt lat="43.56527" lon="2.94016">
        <ele>178.2</ele>
        <time>2014-01-18T07:17:43Z</time>
      </trkpt>
      <trkpt lat="43.56518" lon="2.93982">
        <ele>178.2</ele>
        <time>2014-01-18T07:17:48Z</time>
      </trkpt>
      <trkpt lat="43.56504" lon="2.93932">
        <ele>178.2</ele>
        <time>2014-01-18T07:17:55Z</time>
      </trkpt>
      <trkpt lat="43.56493" lon="2.93874">
        <ele>178.2</ele>
        <time>2014-01-18T07:18:03Z</time>
      </trkpt>
      <trkpt lat="43.56486" lon="2.93827">
        <ele>178.2</ele>
        <time>2014-01-18T07:18:10Z</time>
      </trkpt>
      <trkpt lat="43.56482" lon="2.93802">
        <ele>178.2</ele>
        <time>2014-01-18T07:18:15Z</time>
      </trkpt>
      <trkpt lat="43.56481" lon="2.93798">
        <ele>178.2</ele>
        <time>2014-01-18T07:18:19Z</time>
      </trkpt>
      <trkpt lat="43.56481" lon="2.93797">
        <ele>178.2</ele>
        <time>2014-01-18T07:18:21Z</time>
      </trkpt>
      <trkpt lat="43.56479" lon="2.93792">
        <ele>178.2</ele>
        <time>2014-01-18T07:18:25Z</time>
      </trkpt>
      <trkpt lat="43.56479" lon="2.9379">
        <ele>178.2</ele>
        <time>2014-01-18T07:18:27Z</time>
      </trkpt>
      <trkpt lat="43.56479" lon="2.9379">
        <ele>178.2</ele>
        <time>2014-01-18T07:18:30Z</time>
      </trkpt>
      <trkpt lat="43.56478" lon="2.93787">
        <ele>178.2</ele>
        <time>2014-01-18T07:18:32Z</time>
      </trkpt>
      <trkpt lat="43.56477" lon="2.93785">
        <ele>178.2</ele>
        <time>2014-01-18T07:18:33Z</time>
      </trkpt>
      <trkpt lat="43.56475" lon="2.93771">
        <ele>178.2</ele>
        <time>2014-01-18T07:18:37Z</time>
      </trkpt>
      <trkpt lat="43.5647" lon="2.93748">
        <ele>178.2</ele>
        <time>2014-01-18T07:18:42Z</time>
      </trkpt>
      <trkpt lat="43.56468" lon="2.93742">
        <ele>178.2</ele>
        <time>2014-01-18T07:18:43Z</time>
      </trkpt>
      <trkpt lat="43.56461" lon="2.93716">
        <ele>178.2</ele>
        <time>2014-01-18T07:18:48Z</time>
      </trkpt>
      <trkpt lat="43.56456" lon="2.93699">
        <ele>178.2</ele>
        <time>2014-01-18T07:18:51Z</time>
      </trkpt>
      <trkpt lat="43.56449" lon="2.93682">
        <ele>178.2</ele>
        <time>2014-01-18T07:18:54Z</time>
      </trkpt>
      <trkpt lat="43.56434" lon="2.93648">
        <ele>178.2</ele>
        <time>2014-01-18T07:19:01Z</time>
      </trkpt>
      <trkpt lat="43.56432" lon="2.93642">
        <ele>178.2</ele>
        <time>2014-01-18T07:19:04Z</time>
      </trkpt>
      <trkpt lat="43.56431" lon="2.93642">
        <ele>178.2</ele>
        <time>2014-01-18T07:19:05Z</time>
      </trkpt>
      <trkpt lat="43.56426" lon="2.93634">
        <ele>178.2</ele>
        <time>2014-01-18T07:19:08Z</time>
      </trkpt>
      <trkpt lat="43.56422" lon="2.93611">
        <ele>178.2</ele>
        <time>2014-01-18T07:19:12Z</time>
      </trkpt>
      <trkpt lat="43.56413" lon="2.93597">
        <ele>178.2</ele>
        <time>2014-01-18T07:19:15Z</time>
      </trkpt>
      <trkpt lat="43.56408" lon="2.9359">
        <ele>178.2</ele>
        <time>2014-01-18T07:19:17Z</time>
      </trkpt>
      <trkpt lat="43.56397" lon="2.93573">
        <ele>178.2</ele>
        <time>2014-01-18T07:19:22Z</time>
      </trkpt>
      <trkpt lat="43.56393" lon="2.93568">
        <ele>178.2</ele>
        <time>2014-01-18T07:19:26Z</time>
      </trkpt>
      <trkpt lat="43.56389" lon="2.93561">
        <ele>178.2</ele>
        <time>2014-01-18T07:19:32Z</time>
      </trkpt>
      <trkpt lat="43.56387" lon="2.9355">
        <ele>178.2</ele>
        <time>2014-01-18T07:19:37Z</time>
      </trkpt>
      <trkpt lat="43.56386" lon="2.9355">
        <ele>178.2</ele>
        <time>2014-01-18T07:19:39Z</time>
      </trkpt>
      <trkpt lat="43.56385" lon="2.9355">
        <ele>178.2</ele>
        <time>2014-01-18T07:19:40Z</time>
      </trkpt>
      <trkpt lat="43.56384" lon="2.9355">
        <ele>178.2</ele>
        <time>2014-01-18T07:21:55Z</time>
      </trkpt>
      <trkpt lat="43.56383" lon="2.9355">
        <ele>178.2</ele>
        <time>2014-01-18T07:21:57Z</time>
      </trkpt>
      <trkpt lat="43.56382" lon="2.93549">
        <ele>178.2</ele>
        <time>2014-01-18T07:22:00Z</time>
      </trkpt>
      <trkpt lat="43.56381" lon="2.93548">
        <ele>178.2</ele>
        <time>2014-01-18T07:22:01Z</time>
      </trkpt>
      <trkpt lat="43.5638" lon="2.93545">
        <ele>178.6</ele>
        <time>2014-01-18T07:22:03Z</time>
      </trkpt>
      <trkpt lat="43.56379" lon="2.93544">
        <ele>179</ele>
        <time>2014-01-18T07:22:04Z</time>
      </trkpt>
      <trkpt lat="43.56378" lon="2.93542">
        <ele>179.4</ele>
        <time>2014-01-18T07:22:05Z</time>
      </trkpt>
      <trkpt lat="43.56377" lon="2.9354">
        <ele>179.8</ele>
        <time>2014-01-18T07:22:06Z</time>
      </trkpt>
      <trkpt lat="43.56376" lon="2.93538">
        <ele>180.2</ele>
        <time>2014-01-18T07:22:07Z</time>
      </trkpt>
      <trkpt lat="43.5637" lon="2.93531">
        <ele>180.2</ele>
        <time>2014-01-18T07:22:11Z</time>
      </trkpt>
      <trkpt lat="43.56366" lon="2.93525">
        <ele>180.2</ele>
        <time>2014-01-18T07:22:14Z</time>
      </trkpt>
      <trkpt lat="43.56365" lon="2.93524">
        <ele>180.6</ele>
        <time>2014-01-18T07:22:15Z</time>
      </trkpt>
      <trkpt lat="43.56364" lon="2.93523">
        <ele>181</ele>
        <time>2014-01-18T07:22:16Z</time>
      </trkpt>
      <trkpt lat="43.56362" lon="2.93521">
        <ele>181.4</ele>
        <time>2014-01-18T07:22:17Z</time>
      </trkpt>
      <trkpt lat="43.56361" lon="2.93521">
        <ele>181.8</ele>
        <time>2014-01-18T07:22:18Z</time>
      </trkpt>
      <trkpt lat="43.5636" lon="2.9352">
        <ele>182.2</ele>
        <time>2014-01-18T07:22:19Z</time>
      </trkpt>
      <trkpt lat="43.56358" lon="2.93517">
        <ele>182.2</ele>
        <time>2014-01-18T07:22:21Z</time>
      </trkpt>
      <trkpt lat="43.56349" lon="2.93507">
        <ele>182.2</ele>
        <time>2014-01-18T07:22:25Z</time>
      </trkpt>
      <trkpt lat="43.56348" lon="2.93506">
        <ele>182.6</ele>
        <time>2014-01-18T07:22:26Z</time>
      </trkpt>
      <trkpt lat="43.56346" lon="2.93504">
        <ele>183.2</ele>
        <time>2014-01-18T07:22:27Z</time>
      </trkpt>
      <trkpt lat="43.56344" lon="2.93502">
        <ele>183.6</ele>
        <time>2014-01-18T07:22:28Z</time>
      </trkpt>
      <trkpt lat="43.56342" lon="2.93501">
        <ele>184</ele>
        <time>2014-01-18T07:22:29Z</time>
      </trkpt>
      <trkpt lat="43.56341" lon="2.93499">
        <ele>184.4</ele>
        <time>2014-01-18T07:22:30Z</time>
      </trkpt>
      <trkpt lat="43.56339" lon="2.93498">
        <ele>184.8</ele>
        <time>2014-01-18T07:22:31Z</time>
      </trkpt>
      <trkpt lat="43.56337" lon="2.93496">
        <ele>185.6</ele>
        <time>2014-01-18T07:22:32Z</time>
      </trkpt>
      <trkpt lat="43.56335" lon="2.93495">
        <ele>186</ele>
        <time>2014-01-18T07:22:33Z</time>
      </trkpt>
      <trkpt lat="43.56333" lon="2.93494">
        <ele>186.4</ele>
        <time>2014-01-18T07:22:34Z</time>
      </trkpt>
      <trkpt lat="43.56329" lon="2.9349">
        <ele>186.8</ele>
        <time>2014-01-18T07:22:36Z</time>
      </trkpt>
      <trkpt lat="43.56327" lon="2.93489">
        <ele>187.4</ele>
        <time>2014-01-18T07:22:37Z</time>
      </trkpt>
      <trkpt lat="43.56326" lon="2.93487">
        <ele>187.8</ele>
        <time>2014-01-18T07:22:38Z</time>
      </trkpt>
      <trkpt lat="43.56324" lon="2.93485">
        <ele>188.2</ele>
        <time>2014-01-18T07:22:39Z</time>
      </trkpt>
      <trkpt lat="43.56323" lon="2.93483">
        <ele>188.8</ele>
        <time>2014-01-18T07:22:40Z</time>
      </trkpt>
      <trkpt lat="43.56323" lon="2.93479">
        <ele>188.8</ele>
        <time>2014-01-18T07:22:42Z</time>
      </trkpt>
      <trkpt lat="43.56324" lon="2.93478">
        <ele>189.2</ele>
        <time>2014-01-18T07:22:43Z</time>
      </trkpt>
      <trkpt lat="43.56326" lon="2.93477">
        <ele>189.6</ele>
        <time>2014-01-18T07:22:44Z</time>
      </trkpt>
      <trkpt lat="43.56328" lon="2.93476">
        <ele>190</ele>
        <time>2014-01-18T07:22:45Z</time>
      </trkpt>
      <trkpt lat="43.56329" lon="2.93476">
        <ele>190.4</ele>
        <time>2014-01-18T07:22:46Z</time>
      </trkpt>
      <trkpt lat="43.56331" lon="2.93476">
        <ele>190.8</ele>
        <time>2014-01-18T07:22:47Z</time>
      </trkpt>
      <trkpt lat="43.56333" lon="2.93475">
        <ele>190.8</ele>
        <time>2014-01-18T07:22:48Z</time>
      </trkpt>
      <trkpt lat="43.56334" lon="2.93474">
        <ele>190.8</ele>
        <time>2014-01-18T07:22:49Z</time>
      </trkpt>
      <trkpt lat="43.56337" lon="2.93472">
        <ele>191.4</ele>
        <time>2014-01-18T07:22:52Z</time>
      </trkpt>
      <trkpt lat="43.56338" lon="2.93472">
        <ele>191.8</ele>
        <time>2014-01-18T07:22:53Z</time>
      </trkpt>
      <trkpt lat="43.5634" lon="2.93472">
        <ele>192.2</ele>
        <time>2014-01-18T07:22:54Z</time>
      </trkpt>
      <trkpt lat="43.56342" lon="2.93472">
        <ele>192.6</ele>
        <time>2014-01-18T07:22:55Z</time>
      </trkpt>
      <trkpt lat="43.56344" lon="2.93472">
        <ele>193</ele>
        <time>2014-01-18T07:22:56Z</time>
      </trkpt>
      <trkpt lat="43.56347" lon="2.93471">
        <ele>193.4</ele>
        <time>2014-01-18T07:22:58Z</time>
      </trkpt>
      <trkpt lat="43.56348" lon="2.93471">
        <ele>193.8</ele>
        <time>2014-01-18T07:22:59Z</time>
      </trkpt>
      <trkpt lat="43.5635" lon="2.9347">
        <ele>194.2</ele>
        <time>2014-01-18T07:23:00Z</time>
      </trkpt>
      <trkpt lat="43.56352" lon="2.93469">
        <ele>194.6</ele>
        <time>2014-01-18T07:23:01Z</time>
      </trkpt>
      <trkpt lat="43.56353" lon="2.93468">
        <ele>195</ele>
        <time>2014-01-18T07:23:02Z</time>
      </trkpt>
      <trkpt lat="43.56355" lon="2.93466">
        <ele>195</ele>
        <time>2014-01-18T07:23:04Z</time>
      </trkpt>
      <trkpt lat="43.5636" lon="2.93463">
        <ele>195.4</ele>
        <time>2014-01-18T07:23:07Z</time>
      </trkpt>
      <trkpt lat="43.56361" lon="2.93462">
        <ele>196</ele>
        <time>2014-01-18T07:23:08Z</time>
      </trkpt>
      <trkpt lat="43.56362" lon="2.93461">
        <ele>196.4</ele>
        <time>2014-01-18T07:23:09Z</time>
      </trkpt>
      <trkpt lat="43.56364" lon="2.93459">
        <ele>196.8</ele>
        <time>2014-01-18T07:23:10Z</time>
      </trkpt>
      <trkpt lat="43.56365" lon="2.93458">
        <ele>197.2</ele>
        <time>2014-01-18T07:23:11Z</time>
      </trkpt>
      <trkpt lat="43.5637" lon="2.93452">
        <ele>197.6</ele>
        <time>2014-01-18T07:23:16Z</time>
      </trkpt>
      <trkpt lat="43.56371" lon="2.9345">
        <ele>198</ele>
        <time>2014-01-18T07:23:17Z</time>
      </trkpt>
      <trkpt lat="43.56373" lon="2.93448">
        <ele>198.4</ele>
        <time>2014-01-18T07:23:18Z</time>
      </trkpt>
      <trkpt lat="43.56373" lon="2.93447">
        <ele>198.8</ele>
        <time>2014-01-18T07:23:19Z</time>
      </trkpt>
      <trkpt lat="43.56374" lon="2.93445">
        <ele>199.4</ele>
        <time>2014-01-18T07:23:20Z</time>
      </trkpt>
      <trkpt lat="43.56377" lon="2.9344">
        <ele>199.8</ele>
        <time>2014-01-18T07:23:23Z</time>
      </trkpt>
      <trkpt lat="43.56377" lon="2.93439">
        <ele>200.2</ele>
        <time>2014-01-18T07:23:24Z</time>
      </trkpt>
      <trkpt lat="43.56377" lon="2.93437">
        <ele>200.6</ele>
        <time>2014-01-18T07:23:25Z</time>
      </trkpt>
      <trkpt lat="43.56377" lon="2.93436">
        <ele>201</ele>
        <time>2014-01-18T07:23:26Z</time>
      </trkpt>
      <trkpt lat="43.56376" lon="2.93434">
        <ele>201.4</ele>
        <time>2014-01-18T07:23:27Z</time>
      </trkpt>
      <trkpt lat="43.56376" lon="2.93432">
        <ele>201.4</ele>
        <time>2014-01-18T07:23:28Z</time>
      </trkpt>
      <trkpt lat="43.56373" lon="2.93426">
        <ele>201.8</ele>
        <time>2014-01-18T07:23:31Z</time>
      </trkpt>
      <trkpt lat="43.56372" lon="2.93424">
        <ele>202.2</ele>
        <time>2014-01-18T07:23:32Z</time>
      </trkpt>
      <trkpt lat="43.56372" lon="2.93423">
        <ele>202.6</ele>
        <time>2014-01-18T07:23:33Z</time>
      </trkpt>
      <trkpt lat="43.56371" lon="2.93421">
        <ele>203.2</ele>
        <time>2014-01-18T07:23:34Z</time>
      </trkpt>
      <trkpt lat="43.5637" lon="2.93419">
        <ele>203.6</ele>
        <time>2014-01-18T07:23:35Z</time>
      </trkpt>
      <trkpt lat="43.5637" lon="2.93415">
        <ele>204</ele>
        <time>2014-01-18T07:23:37Z</time>
      </trkpt>
      <trkpt lat="43.56371" lon="2.93412">
        <ele>204.4</ele>
        <time>2014-01-18T07:23:38Z</time>
      </trkpt>
      <trkpt lat="43.56371" lon="2.9341">
        <ele>205</ele>
        <time>2014-01-18T07:23:39Z</time>
      </trkpt>
      <trkpt lat="43.56372" lon="2.93407">
        <ele>205.4</ele>
        <time>2014-01-18T07:23:40Z</time>
      </trkpt>
      <trkpt lat="43.56373" lon="2.93405">
        <ele>205.8</ele>
        <time>2014-01-18T07:23:41Z</time>
      </trkpt>
      <trkpt lat="43.56375" lon="2.93399">
        <ele>205.8</ele>
        <time>2014-01-18T07:23:43Z</time>
      </trkpt>
      <trkpt lat="43.56377" lon="2.93394">
        <ele>206.2</ele>
        <time>2014-01-18T07:23:45Z</time>
      </trkpt>
      <trkpt lat="43.56378" lon="2.93391">
        <ele>206.8</ele>
        <time>2014-01-18T07:23:46Z</time>
      </trkpt>
      <trkpt lat="43.56379" lon="2.93388">
        <ele>207.2</ele>
        <time>2014-01-18T07:23:47Z</time>
      </trkpt>
      <trkpt lat="43.56379" lon="2.93385">
        <ele>207.6</ele>
        <time>2014-01-18T07:23:48Z</time>
      </trkpt>
      <trkpt lat="43.56379" lon="2.93382">
        <ele>208</ele>
        <time>2014-01-18T07:23:49Z</time>
      </trkpt>
      <trkpt lat="43.56383" lon="2.93358">
        <ele>208</ele>
        <time>2014-01-18T07:23:57Z</time>
      </trkpt>
      <trkpt lat="43.56384" lon="2.93354">
        <ele>208.4</ele>
        <time>2014-01-18T07:23:58Z</time>
      </trkpt>
      <trkpt lat="43.56385" lon="2.93351">
        <ele>208.8</ele>
        <time>2014-01-18T07:23:59Z</time>
      </trkpt>
      <trkpt lat="43.56386" lon="2.93348">
        <ele>209.2</ele>
        <time>2014-01-18T07:24:00Z</time>
      </trkpt>
      <trkpt lat="43.56387" lon="2.93345">
        <ele>209.6</ele>
        <time>2014-01-18T07:24:01Z</time>
      </trkpt>
      <trkpt lat="43.56388" lon="2.93342">
        <ele>210</ele>
        <time>2014-01-18T07:24:02Z</time>
      </trkpt>
      <trkpt lat="43.56393" lon="2.93334">
        <ele>210</ele>
        <time>2014-01-18T07:24:05Z</time>
      </trkpt>
      <trkpt lat="43.56405" lon="2.93311">
        <ele>210</ele>
        <time>2014-01-18T07:24:14Z</time>
      </trkpt>
      <trkpt lat="43.56421" lon="2.93294">
        <ele>210.6</ele>
        <time>2014-01-18T07:24:23Z</time>
      </trkpt>
      <trkpt lat="43.56423" lon="2.93292">
        <ele>211</ele>
        <time>2014-01-18T07:24:24Z</time>
      </trkpt>
      <trkpt lat="43.56426" lon="2.93291">
        <ele>211.4</ele>
        <time>2014-01-18T07:24:25Z</time>
      </trkpt>
      <trkpt lat="43.56428" lon="2.93289">
        <ele>212</ele>
        <time>2014-01-18T07:24:26Z</time>
      </trkpt>
      <trkpt lat="43.56429" lon="2.93287">
        <ele>212.4</ele>
        <time>2014-01-18T07:24:27Z</time>
      </trkpt>
      <trkpt lat="43.56437" lon="2.93283">
        <ele>212.4</ele>
        <time>2014-01-18T07:24:31Z</time>
      </trkpt>
      <trkpt lat="43.5645" lon="2.93278">
        <ele>212.4</ele>
        <time>2014-01-18T07:24:37Z</time>
      </trkpt>
      <trkpt lat="43.56453" lon="2.93277">
        <ele>212.4</ele>
        <time>2014-01-18T07:24:39Z</time>
      </trkpt>
      <trkpt lat="43.56455" lon="2.93277">
        <ele>212.8</ele>
        <time>2014-01-18T07:24:40Z</time>
      </trkpt>
      <trkpt lat="43.56457" lon="2.93277">
        <ele>213.2</ele>
        <time>2014-01-18T07:24:41Z</time>
      </trkpt>
      <trkpt lat="43.56459" lon="2.93278">
        <ele>213.6</ele>
        <time>2014-01-18T07:24:42Z</time>
      </trkpt>
      <trkpt lat="43.56461" lon="2.93279">
        <ele>214</ele>
        <time>2014-01-18T07:24:43Z</time>
      </trkpt>
      <trkpt lat="43.56463" lon="2.9328">
        <ele>214.4</ele>
        <time>2014-01-18T07:24:44Z</time>
      </trkpt>
      <trkpt lat="43.56469" lon="2.93282">
        <ele>214.4</ele>
        <time>2014-01-18T07:24:47Z</time>
      </trkpt>
      <trkpt lat="43.56483" lon="2.93286">
        <ele>214.4</ele>
        <time>2014-01-18T07:24:54Z</time>
      </trkpt>
      <trkpt lat="43.56494" lon="2.9329">
        <ele>215.4</ele>
        <time>2014-01-18T07:24:59Z</time>
      </trkpt>
      <trkpt lat="43.56496" lon="2.93291">
        <ele>216</ele>
        <time>2014-01-18T07:25:00Z</time>
      </trkpt>
      <trkpt lat="43.56498" lon="2.93291">
        <ele>216.4</ele>
        <time>2014-01-18T07:25:01Z</time>
      </trkpt>
      <trkpt lat="43.565" lon="2.93291">
        <ele>217</ele>
        <time>2014-01-18T07:25:02Z</time>
      </trkpt>
      <trkpt lat="43.56511" lon="2.93294">
        <ele>217.4</ele>
        <time>2014-01-18T07:25:07Z</time>
      </trkpt>
      <trkpt lat="43.56513" lon="2.93294">
        <ele>217.8</ele>
        <time>2014-01-18T07:25:08Z</time>
      </trkpt>
      <trkpt lat="43.56515" lon="2.93295">
        <ele>218.2</ele>
        <time>2014-01-18T07:25:09Z</time>
      </trkpt>
      <trkpt lat="43.56517" lon="2.93295">
        <ele>218.6</ele>
        <time>2014-01-18T07:25:10Z</time>
      </trkpt>
      <trkpt lat="43.5652" lon="2.93294">
        <ele>219</ele>
        <time>2014-01-18T07:25:11Z</time>
      </trkpt>
      <trkpt lat="43.56533" lon="2.93292">
        <ele>219</ele>
        <time>2014-01-18T07:25:17Z</time>
      </trkpt>
      <trkpt lat="43.56553" lon="2.93283">
        <ele>219.4</ele>
        <time>2014-01-18T07:25:26Z</time>
      </trkpt>
      <trkpt lat="43.56555" lon="2.93281">
        <ele>219.8</ele>
        <time>2014-01-18T07:25:27Z</time>
      </trkpt>
      <trkpt lat="43.56557" lon="2.9328">
        <ele>220.2</ele>
        <time>2014-01-18T07:25:28Z</time>
      </trkpt>
      <trkpt lat="43.56559" lon="2.93278">
        <ele>220.6</ele>
        <time>2014-01-18T07:25:29Z</time>
      </trkpt>
      <trkpt lat="43.56561" lon="2.93277">
        <ele>221</ele>
        <time>2014-01-18T07:25:30Z</time>
      </trkpt>
      <trkpt lat="43.56569" lon="2.93272">
        <ele>221</ele>
        <time>2014-01-18T07:25:34Z</time>
      </trkpt>
      <trkpt lat="43.56577" lon="2.93266">
        <ele>221.4</ele>
        <time>2014-01-18T07:25:38Z</time>
      </trkpt>
      <trkpt lat="43.56578" lon="2.93265">
        <ele>221.8</ele>
        <time>2014-01-18T07:25:39Z</time>
      </trkpt>
      <trkpt lat="43.5658" lon="2.93263">
        <ele>222.2</ele>
        <time>2014-01-18T07:25:40Z</time>
      </trkpt>
      <trkpt lat="43.56582" lon="2.93261">
        <ele>222.6</ele>
        <time>2014-01-18T07:25:41Z</time>
      </trkpt>
      <trkpt lat="43.56584" lon="2.93259">
        <ele>223</ele>
        <time>2014-01-18T07:25:42Z</time>
      </trkpt>
      <trkpt lat="43.56593" lon="2.93245">
        <ele>223.4</ele>
        <time>2014-01-18T07:25:48Z</time>
      </trkpt>
      <trkpt lat="43.56594" lon="2.93242">
        <ele>223.8</ele>
        <time>2014-01-18T07:25:49Z</time>
      </trkpt>
      <trkpt lat="43.56594" lon="2.93238">
        <ele>224.2</ele>
        <time>2014-01-18T07:25:50Z</time>
      </trkpt>
      <trkpt lat="43.56595" lon="2.93235">
        <ele>224.6</ele>
        <time>2014-01-18T07:25:51Z</time>
      </trkpt>
      <trkpt lat="43.56595" lon="2.93232">
        <ele>225</ele>
        <time>2014-01-18T07:25:52Z</time>
      </trkpt>
      <trkpt lat="43.56599" lon="2.93217">
        <ele>225</ele>
        <time>2014-01-18T07:25:57Z</time>
      </trkpt>
      <trkpt lat="43.56601" lon="2.93208">
        <ele>225.4</ele>
        <time>2014-01-18T07:26:00Z</time>
      </trkpt>
      <trkpt lat="43.56601" lon="2.93205">
        <ele>225.8</ele>
        <time>2014-01-18T07:26:01Z</time>
      </trkpt>
      <trkpt lat="43.56602" lon="2.93202">
        <ele>226.2</ele>
        <time>2014-01-18T07:26:02Z</time>
      </trkpt>
      <trkpt lat="43.56602" lon="2.93199">
        <ele>226.6</ele>
        <time>2014-01-18T07:26:03Z</time>
      </trkpt>
      <trkpt lat="43.56603" lon="2.93196">
        <ele>227</ele>
        <time>2014-01-18T07:26:04Z</time>
      </trkpt>
      <trkpt lat="43.56607" lon="2.93179">
        <ele>227</ele>
        <time>2014-01-18T07:26:10Z</time>
      </trkpt>
      <trkpt lat="43.56608" lon="2.93173">
        <ele>227.4</ele>
        <time>2014-01-18T07:26:12Z</time>
      </trkpt>
      <trkpt lat="43.56609" lon="2.9317">
        <ele>228.2</ele>
        <time>2014-01-18T07:26:13Z</time>
      </trkpt>
      <trkpt lat="43.56609" lon="2.93167">
        <ele>228.6</ele>
        <time>2014-01-18T07:26:14Z</time>
      </trkpt>
      <trkpt lat="43.5661" lon="2.93165">
        <ele>229.2</ele>
        <time>2014-01-18T07:26:15Z</time>
      </trkpt>
      <trkpt lat="43.56612" lon="2.93159">
        <ele>229.2</ele>
        <time>2014-01-18T07:26:17Z</time>
      </trkpt>
      <trkpt lat="43.56615" lon="2.93142">
        <ele>229.6</ele>
        <time>2014-01-18T07:26:23Z</time>
      </trkpt>
      <trkpt lat="43.56616" lon="2.93139">
        <ele>230</ele>
        <time>2014-01-18T07:26:24Z</time>
      </trkpt>
      <trkpt lat="43.56616" lon="2.93137">
        <ele>230.4</ele>
        <time>2014-01-18T07:26:25Z</time>
      </trkpt>
      <trkpt lat="43.56618" lon="2.93134">
        <ele>230.8</ele>
        <time>2014-01-18T07:26:26Z</time>
      </trkpt>
      <trkpt lat="43.56618" lon="2.93131">
        <ele>231.2</ele>
        <time>2014-01-18T07:26:27Z</time>
      </trkpt>
      <trkpt lat="43.56623" lon="2.93119">
        <ele>231.2</ele>
        <time>2014-01-18T07:26:32Z</time>
      </trkpt>
      <trkpt lat="43.56624" lon="2.93116">
        <ele>231.8</ele>
        <time>2014-01-18T07:26:33Z</time>
      </trkpt>
      <trkpt lat="43.56625" lon="2.93114">
        <ele>232.2</ele>
        <time>2014-01-18T07:26:34Z</time>
      </trkpt>
      <trkpt lat="43.56625" lon="2.93111">
        <ele>232.6</ele>
        <time>2014-01-18T07:26:35Z</time>
      </trkpt>
      <trkpt lat="43.56626" lon="2.93108">
        <ele>233</ele>
        <time>2014-01-18T07:26:36Z</time>
      </trkpt>
      <trkpt lat="43.56628" lon="2.93105">
        <ele>233.4</ele>
        <time>2014-01-18T07:26:37Z</time>
      </trkpt>
      <trkpt lat="43.56628" lon="2.93103">
        <ele>233.4</ele>
        <time>2014-01-18T07:26:38Z</time>
      </trkpt>
      <trkpt lat="43.56635" lon="2.93087">
        <ele>233.4</ele>
        <time>2014-01-18T07:26:44Z</time>
      </trkpt>
      <trkpt lat="43.56636" lon="2.93084">
        <ele>233.8</ele>
        <time>2014-01-18T07:26:45Z</time>
      </trkpt>
      <trkpt lat="43.56637" lon="2.9308">
        <ele>234.2</ele>
        <time>2014-01-18T07:26:46Z</time>
      </trkpt>
      <trkpt lat="43.56637" lon="2.93077">
        <ele>234.8</ele>
        <time>2014-01-18T07:26:47Z</time>
      </trkpt>
      <trkpt lat="43.56638" lon="2.93074">
        <ele>235.2</ele>
        <time>2014-01-18T07:26:48Z</time>
      </trkpt>
      <trkpt lat="43.56638" lon="2.93071">
        <ele>235.6</ele>
        <time>2014-01-18T07:26:49Z</time>
      </trkpt>
      <trkpt lat="43.56641" lon="2.93066">
        <ele>235.6</ele>
        <time>2014-01-18T07:26:51Z</time>
      </trkpt>
      <trkpt lat="43.56645" lon="2.93052">
        <ele>236</ele>
        <time>2014-01-18T07:26:57Z</time>
      </trkpt>
      <trkpt lat="43.56646" lon="2.93051">
        <ele>236.6</ele>
        <time>2014-01-18T07:26:58Z</time>
      </trkpt>
      <trkpt lat="43.56646" lon="2.9305">
        <ele>237</ele>
        <time>2014-01-18T07:26:59Z</time>
      </trkpt>
      <trkpt lat="43.56646" lon="2.93049">
        <ele>237.4</ele>
        <time>2014-01-18T07:27:00Z</time>
      </trkpt>
      <trkpt lat="43.56646" lon="2.93049">
        <ele>237.8</ele>
        <time>2014-01-18T07:27:01Z</time>
      </trkpt>
      <trkpt lat="43.56646" lon="2.93046">
        <ele>237.8</ele>
        <time>2014-01-18T07:27:03Z</time>
      </trkpt>
      <trkpt lat="43.56646" lon="2.93045">
        <ele>237.8</ele>
        <time>2014-01-18T07:27:04Z</time>
      </trkpt>
      <trkpt lat="43.56642" lon="2.93043">
        <ele>237.8</ele>
        <time>2014-01-18T07:27:07Z</time>
      </trkpt>
      <trkpt lat="43.56638" lon="2.93041">
        <ele>237.8</ele>
        <time>2014-01-18T07:27:08Z</time>
      </trkpt>
      <trkpt lat="43.56631" lon="2.93047">
        <ele>237.8</ele>
        <time>2014-01-18T07:27:14Z</time>
      </trkpt>
      <trkpt lat="43.5663" lon="2.93047">
        <ele>237.8</ele>
        <time>2014-01-18T07:27:16Z</time>
      </trkpt>
      <trkpt lat="43.56631" lon="2.93047">
        <ele>237.8</ele>
        <time>2014-01-18T07:27:18Z</time>
      </trkpt>
      <trkpt lat="43.5663" lon="2.93046">
        <ele>237.8</ele>
        <time>2014-01-18T07:27:20Z</time>
      </trkpt>
      <trkpt lat="43.56632" lon="2.93037">
        <ele>237.8</ele>
        <time>2014-01-18T07:27:23Z</time>
      </trkpt>
      <trkpt lat="43.56633" lon="2.93034">
        <ele>237.8</ele>
        <time>2014-01-18T07:27:24Z</time>
      </trkpt>
      <trkpt lat="43.56634" lon="2.93018">
        <ele>237.8</ele>
        <time>2014-01-18T07:27:29Z</time>
      </trkpt>
      <trkpt lat="43.56638" lon="2.93008">
        <ele>238.2</ele>
        <time>2014-01-18T07:27:33Z</time>
      </trkpt>
      <trkpt lat="43.56639" lon="2.93005">
        <ele>238.6</ele>
        <time>2014-01-18T07:27:34Z</time>
      </trkpt>
      <trkpt lat="43.56641" lon="2.93003">
        <ele>239</ele>
        <time>2014-01-18T07:27:35Z</time>
      </trkpt>
      <trkpt lat="43.56642" lon="2.92999">
        <ele>239.4</ele>
        <time>2014-01-18T07:27:36Z</time>
      </trkpt>
      <trkpt lat="43.56643" lon="2.92996">
        <ele>239.8</ele>
        <time>2014-01-18T07:27:37Z</time>
      </trkpt>
      <trkpt lat="43.56657" lon="2.92975">
        <ele>239.8</ele>
        <time>2014-01-18T07:27:45Z</time>
      </trkpt>
      <trkpt lat="43.56669" lon="2.92959">
        <ele>240.2</ele>
        <time>2014-01-18T07:27:52Z</time>
      </trkpt>
      <trkpt lat="43.56671" lon="2.92957">
        <ele>240.6</ele>
        <time>2014-01-18T07:27:53Z</time>
      </trkpt>
      <trkpt lat="43.56673" lon="2.92955">
        <ele>241</ele>
        <time>2014-01-18T07:27:54Z</time>
      </trkpt>
      <trkpt lat="43.56675" lon="2.92953">
        <ele>241.4</ele>
        <time>2014-01-18T07:27:55Z</time>
      </trkpt>
      <trkpt lat="43.56677" lon="2.92951">
        <ele>241.8</ele>
        <time>2014-01-18T07:27:56Z</time>
      </trkpt>
      <trkpt lat="43.56683" lon="2.92943">
        <ele>241.8</ele>
        <time>2014-01-18T07:28:00Z</time>
      </trkpt>
      <trkpt lat="43.56686" lon="2.92938">
        <ele>242.2</ele>
        <time>2014-01-18T07:28:02Z</time>
      </trkpt>
      <trkpt lat="43.56687" lon="2.92936">
        <ele>242.8</ele>
        <time>2014-01-18T07:28:03Z</time>
      </trkpt>
      <trkpt lat="43.56688" lon="2.92933">
        <ele>243.2</ele>
        <time>2014-01-18T07:28:04Z</time>
      </trkpt>
      <trkpt lat="43.56689" lon="2.92931">
        <ele>243.6</ele>
        <time>2014-01-18T07:28:05Z</time>
      </trkpt>
      <trkpt lat="43.5669" lon="2.92928">
        <ele>244</ele>
        <time>2014-01-18T07:28:06Z</time>
      </trkpt>
      <trkpt lat="43.56691" lon="2.92925">
        <ele>244</ele>
        <time>2014-01-18T07:28:07Z</time>
      </trkpt>
      <trkpt lat="43.56697" lon="2.92909">
        <ele>244.4</ele>
        <time>2014-01-18T07:28:13Z</time>
      </trkpt>
      <trkpt lat="43.56699" lon="2.92906">
        <ele>244.8</ele>
        <time>2014-01-18T07:28:14Z</time>
      </trkpt>
      <trkpt lat="43.567" lon="2.92903">
        <ele>245.2</ele>
        <time>2014-01-18T07:28:15Z</time>
      </trkpt>
      <trkpt lat="43.56702" lon="2.92901">
        <ele>246.2</ele>
        <time>2014-01-18T07:28:16Z</time>
      </trkpt>
      <trkpt lat="43.56714" lon="2.92883">
        <ele>246.6</ele>
        <time>2014-01-18T07:28:24Z</time>
      </trkpt>
      <trkpt lat="43.56716" lon="2.9288">
        <ele>247</ele>
        <time>2014-01-18T07:28:25Z</time>
      </trkpt>
      <trkpt lat="43.56717" lon="2.92878">
        <ele>247.4</ele>
        <time>2014-01-18T07:28:26Z</time>
      </trkpt>
      <trkpt lat="43.56718" lon="2.92875">
        <ele>247.8</ele>
        <time>2014-01-18T07:28:27Z</time>
      </trkpt>
      <trkpt lat="43.5672" lon="2.92873">
        <ele>248.2</ele>
        <time>2014-01-18T07:28:28Z</time>
      </trkpt>
      <trkpt lat="43.56728" lon="2.92859">
        <ele>248.2</ele>
        <time>2014-01-18T07:28:34Z</time>
      </trkpt>
      <trkpt lat="43.56736" lon="2.92839">
        <ele>249</ele>
        <time>2014-01-18T07:28:41Z</time>
      </trkpt>
      <trkpt lat="43.56737" lon="2.92836">
        <ele>249.4</ele>
        <time>2014-01-18T07:28:42Z</time>
      </trkpt>
      <trkpt lat="43.56738" lon="2.92832">
        <ele>249.8</ele>
        <time>2014-01-18T07:28:43Z</time>
      </trkpt>
      <trkpt lat="43.5674" lon="2.92829">
        <ele>250.2</ele>
        <time>2014-01-18T07:28:44Z</time>
      </trkpt>
      <trkpt lat="43.56747" lon="2.92813">
        <ele>250.2</ele>
        <time>2014-01-18T07:28:48Z</time>
      </trkpt>
      <trkpt lat="43.56752" lon="2.9279">
        <ele>250.2</ele>
        <time>2014-01-18T07:28:53Z</time>
      </trkpt>
      <trkpt lat="43.56746" lon="2.92767">
        <ele>250.2</ele>
        <time>2014-01-18T07:28:58Z</time>
      </trkpt>
      <trkpt lat="43.56742" lon="2.92741">
        <ele>250.2</ele>
        <time>2014-01-18T07:29:05Z</time>
      </trkpt>
      <trkpt lat="43.56747" lon="2.9272">
        <ele>250.2</ele>
        <time>2014-01-18T07:29:11Z</time>
      </trkpt>
      <trkpt lat="43.5675" lon="2.92709">
        <ele>250.6</ele>
        <time>2014-01-18T07:29:15Z</time>
      </trkpt>
      <trkpt lat="43.56751" lon="2.92707">
        <ele>251</ele>
        <time>2014-01-18T07:29:16Z</time>
      </trkpt>
      <trkpt lat="43.56752" lon="2.92704">
        <ele>251.4</ele>
        <time>2014-01-18T07:29:17Z</time>
      </trkpt>
      <trkpt lat="43.56753" lon="2.92701">
        <ele>251.8</ele>
        <time>2014-01-18T07:29:18Z</time>
      </trkpt>
      <trkpt lat="43.56755" lon="2.92699">
        <ele>252.2</ele>
        <time>2014-01-18T07:29:19Z</time>
      </trkpt>
      <trkpt lat="43.56762" lon="2.92685">
        <ele>252.8</ele>
        <time>2014-01-18T07:29:25Z</time>
      </trkpt>
      <trkpt lat="43.56763" lon="2.92683">
        <ele>253.2</ele>
        <time>2014-01-18T07:29:26Z</time>
      </trkpt>
      <trkpt lat="43.56765" lon="2.9268">
        <ele>253.6</ele>
        <time>2014-01-18T07:29:27Z</time>
      </trkpt>
      <trkpt lat="43.56766" lon="2.92678">
        <ele>254.2</ele>
        <time>2014-01-18T07:29:28Z</time>
      </trkpt>
      <trkpt lat="43.56767" lon="2.92676">
        <ele>254.6</ele>
        <time>2014-01-18T07:29:29Z</time>
      </trkpt>
      <trkpt lat="43.56774" lon="2.92669">
        <ele>254.6</ele>
        <time>2014-01-18T07:29:33Z</time>
      </trkpt>
      <trkpt lat="43.56781" lon="2.92663">
        <ele>255</ele>
        <time>2014-01-18T07:29:37Z</time>
      </trkpt>
      <trkpt lat="43.56783" lon="2.92661">
        <ele>255.4</ele>
        <time>2014-01-18T07:29:38Z</time>
      </trkpt>
      <trkpt lat="43.56785" lon="2.9266">
        <ele>255.8</ele>
        <time>2014-01-18T07:29:39Z</time>
      </trkpt>
      <trkpt lat="43.56787" lon="2.92658">
        <ele>256.2</ele>
        <time>2014-01-18T07:29:40Z</time>
      </trkpt>
      <trkpt lat="43.56789" lon="2.92657">
        <ele>256.6</ele>
        <time>2014-01-18T07:29:41Z</time>
      </trkpt>
      <trkpt lat="43.5679" lon="2.92655">
        <ele>256.6</ele>
        <time>2014-01-18T07:29:42Z</time>
      </trkpt>
      <trkpt lat="43.56799" lon="2.92646">
        <ele>257</ele>
        <time>2014-01-18T07:29:47Z</time>
      </trkpt>
      <trkpt lat="43.56801" lon="2.92644">
        <ele>257.6</ele>
        <time>2014-01-18T07:29:48Z</time>
      </trkpt>
      <trkpt lat="43.56803" lon="2.92642">
        <ele>258</ele>
        <time>2014-01-18T07:29:49Z</time>
      </trkpt>
      <trkpt lat="43.56805" lon="2.9264">
        <ele>258.4</ele>
        <time>2014-01-18T07:29:50Z</time>
      </trkpt>
      <trkpt lat="43.56807" lon="2.92639">
        <ele>258.8</ele>
        <time>2014-01-18T07:29:51Z</time>
      </trkpt>
      <trkpt lat="43.56816" lon="2.9263">
        <ele>259.2</ele>
        <time>2014-01-18T07:29:56Z</time>
      </trkpt>
      <trkpt lat="43.56818" lon="2.92628">
        <ele>259.6</ele>
        <time>2014-01-18T07:29:57Z</time>
      </trkpt>
      <trkpt lat="43.56819" lon="2.92627">
        <ele>260</ele>
        <time>2014-01-18T07:29:58Z</time>
      </trkpt>
      <trkpt lat="43.56821" lon="2.92625">
        <ele>260.4</ele>
        <time>2014-01-18T07:29:59Z</time>
      </trkpt>
      <trkpt lat="43.56823" lon="2.92623">
        <ele>260.8</ele>
        <time>2014-01-18T07:30:00Z</time>
      </trkpt>
      <trkpt lat="43.5683" lon="2.92617">
        <ele>261.2</ele>
        <time>2014-01-18T07:30:04Z</time>
      </trkpt>
      <trkpt lat="43.56832" lon="2.92615">
        <ele>261.8</ele>
        <time>2014-01-18T07:30:05Z</time>
      </trkpt>
      <trkpt lat="43.56833" lon="2.92614">
        <ele>262.2</ele>
        <time>2014-01-18T07:30:06Z</time>
      </trkpt>
      <trkpt lat="43.56835" lon="2.92612">
        <ele>262.6</ele>
        <time>2014-01-18T07:30:07Z</time>
      </trkpt>
      <trkpt lat="43.56836" lon="2.92611">
        <ele>263</ele>
        <time>2014-01-18T07:30:08Z</time>
      </trkpt>
      <trkpt lat="43.56841" lon="2.92605">
        <ele>263.4</ele>
        <time>2014-01-18T07:30:11Z</time>
      </trkpt>
      <trkpt lat="43.56843" lon="2.92603">
        <ele>263.8</ele>
        <time>2014-01-18T07:30:12Z</time>
      </trkpt>
      <trkpt lat="43.56845" lon="2.92602">
        <ele>264.2</ele>
        <time>2014-01-18T07:30:13Z</time>
      </trkpt>
      <trkpt lat="43.56846" lon="2.926">
        <ele>264.6</ele>
        <time>2014-01-18T07:30:14Z</time>
      </trkpt>
      <trkpt lat="43.56848" lon="2.92598">
        <ele>265</ele>
        <time>2014-01-18T07:30:15Z</time>
      </trkpt>
      <trkpt lat="43.56855" lon="2.92591">
        <ele>265</ele>
        <time>2014-01-18T07:30:19Z</time>
      </trkpt>
      <trkpt lat="43.56858" lon="2.92588">
        <ele>265.6</ele>
        <time>2014-01-18T07:30:21Z</time>
      </trkpt>
      <trkpt lat="43.5686" lon="2.92586">
        <ele>266</ele>
        <time>2014-01-18T07:30:22Z</time>
      </trkpt>
      <trkpt lat="43.56861" lon="2.92584">
        <ele>266.4</ele>
        <time>2014-01-18T07:30:23Z</time>
      </trkpt>
      <trkpt lat="43.56862" lon="2.92583">
        <ele>266.8</ele>
        <time>2014-01-18T07:30:24Z</time>
      </trkpt>
      <trkpt lat="43.56863" lon="2.92581">
        <ele>267.4</ele>
        <time>2014-01-18T07:30:25Z</time>
      </trkpt>
      <trkpt lat="43.56877" lon="2.92567">
        <ele>267.4</ele>
        <time>2014-01-18T07:30:30Z</time>
      </trkpt>
      <trkpt lat="43.5688" lon="2.92562">
        <ele>267.4</ele>
        <time>2014-01-18T07:30:31Z</time>
      </trkpt>
      <trkpt lat="43.56887" lon="2.9255">
        <ele>267.4</ele>
        <time>2014-01-18T07:30:33Z</time>
      </trkpt>
      <trkpt lat="43.56889" lon="2.92543">
        <ele>267.4</ele>
        <time>2014-01-18T07:30:34Z</time>
      </trkpt>
      <trkpt lat="43.5689" lon="2.92534">
        <ele>266.8</ele>
        <time>2014-01-18T07:30:35Z</time>
      </trkpt>
      <trkpt lat="43.56891" lon="2.92525">
        <ele>266.4</ele>
        <time>2014-01-18T07:30:36Z</time>
      </trkpt>
      <trkpt lat="43.56891" lon="2.92516">
        <ele>266</ele>
        <time>2014-01-18T07:30:37Z</time>
      </trkpt>
      <trkpt lat="43.56891" lon="2.92506">
        <ele>265.4</ele>
        <time>2014-01-18T07:30:38Z</time>
      </trkpt>
      <trkpt lat="43.56891" lon="2.92496">
        <ele>264.8</ele>
        <time>2014-01-18T07:30:39Z</time>
      </trkpt>
      <trkpt lat="43.5689" lon="2.92487">
        <ele>264.2</ele>
        <time>2014-01-18T07:30:40Z</time>
      </trkpt>
      <trkpt lat="43.56887" lon="2.92478">
        <ele>263.6</ele>
        <time>2014-01-18T07:30:41Z</time>
      </trkpt>
      <trkpt lat="43.56884" lon="2.92471">
        <ele>263</ele>
        <time>2014-01-18T07:30:42Z</time>
      </trkpt>
      <trkpt lat="43.56871" lon="2.92456">
        <ele>263</ele>
        <time>2014-01-18T07:30:45Z</time>
      </trkpt>
      <trkpt lat="43.56855" lon="2.92459">
        <ele>263</ele>
        <time>2014-01-18T07:30:48Z</time>
      </trkpt>
      <trkpt lat="43.56846" lon="2.92475">
        <ele>263</ele>
        <time>2014-01-18T07:30:52Z</time>
      </trkpt>
      <trkpt lat="43.56843" lon="2.92485">
        <ele>263.4</ele>
        <time>2014-01-18T07:30:55Z</time>
      </trkpt>
      <trkpt lat="43.56842" lon="2.92488">
        <ele>263.8</ele>
        <time>2014-01-18T07:30:56Z</time>
      </trkpt>
      <trkpt lat="43.56841" lon="2.92492">
        <ele>264.2</ele>
        <time>2014-01-18T07:30:57Z</time>
      </trkpt>
      <trkpt lat="43.56841" lon="2.92495">
        <ele>264.8</ele>
        <time>2014-01-18T07:30:58Z</time>
      </trkpt>
      <trkpt lat="43.5684" lon="2.92498">
        <ele>265.2</ele>
        <time>2014-01-18T07:30:59Z</time>
      </trkpt>
      <trkpt lat="43.56838" lon="2.92509">
        <ele>265.2</ele>
        <time>2014-01-18T07:31:03Z</time>
      </trkpt>
      <trkpt lat="43.56836" lon="2.92517">
        <ele>265.6</ele>
        <time>2014-01-18T07:31:06Z</time>
      </trkpt>
      <trkpt lat="43.56835" lon="2.9252">
        <ele>266</ele>
        <time>2014-01-18T07:31:07Z</time>
      </trkpt>
      <trkpt lat="43.56835" lon="2.92523">
        <ele>266.4</ele>
        <time>2014-01-18T07:31:08Z</time>
      </trkpt>
      <trkpt lat="43.56834" lon="2.92525">
        <ele>266.8</ele>
        <time>2014-01-18T07:31:09Z</time>
      </trkpt>
      <trkpt lat="43.56832" lon="2.92528">
        <ele>267.4</ele>
        <time>2014-01-18T07:31:10Z</time>
      </trkpt>
      <trkpt lat="43.56824" lon="2.92538">
        <ele>267.8</ele>
        <time>2014-01-18T07:31:15Z</time>
      </trkpt>
      <trkpt lat="43.56822" lon="2.92539">
        <ele>268.2</ele>
        <time>2014-01-18T07:31:16Z</time>
      </trkpt>
      <trkpt lat="43.5682" lon="2.92541">
        <ele>268.6</ele>
        <time>2014-01-18T07:31:17Z</time>
      </trkpt>
      <trkpt lat="43.56818" lon="2.92541">
        <ele>269</ele>
        <time>2014-01-18T07:31:18Z</time>
      </trkpt>
      <trkpt lat="43.56816" lon="2.92541">
        <ele>269.4</ele>
        <time>2014-01-18T07:31:19Z</time>
      </trkpt>
      <trkpt lat="43.56814" lon="2.92541">
        <ele>269.4</ele>
        <time>2014-01-18T07:31:20Z</time>
      </trkpt>
      <trkpt lat="43.56805" lon="2.92539">
        <ele>269.8</ele>
        <time>2014-01-18T07:31:24Z</time>
      </trkpt>
      <trkpt lat="43.56803" lon="2.92538">
        <ele>270.2</ele>
        <time>2014-01-18T07:31:25Z</time>
      </trkpt>
      <trkpt lat="43.56801" lon="2.92536">
        <ele>270.6</ele>
        <time>2014-01-18T07:31:26Z</time>
      </trkpt>
      <trkpt lat="43.56799" lon="2.92533">
        <ele>271</ele>
        <time>2014-01-18T07:31:27Z</time>
      </trkpt>
      <trkpt lat="43.56798" lon="2.9253">
        <ele>271.4</ele>
        <time>2014-01-18T07:31:28Z</time>
      </trkpt>
      <trkpt lat="43.56795" lon="2.92517">
        <ele>271.4</ele>
        <time>2014-01-18T07:31:32Z</time>
      </trkpt>
      <trkpt lat="43.56794" lon="2.92508">
        <ele>272.2</ele>
        <time>2014-01-18T07:31:35Z</time>
      </trkpt>
      <trkpt lat="43.56794" lon="2.92504">
        <ele>272.6</ele>
        <time>2014-01-18T07:31:36Z</time>
      </trkpt>
      <trkpt lat="43.56794" lon="2.92501">
        <ele>273</ele>
        <time>2014-01-18T07:31:37Z</time>
      </trkpt>
      <trkpt lat="43.56795" lon="2.92497">
        <ele>273.4</ele>
        <time>2014-01-18T07:31:38Z</time>
      </trkpt>
      <trkpt lat="43.568" lon="2.9248">
        <ele>274</ele>
        <time>2014-01-18T07:31:44Z</time>
      </trkpt>
      <trkpt lat="43.56802" lon="2.92477">
        <ele>274.4</ele>
        <time>2014-01-18T07:31:45Z</time>
      </trkpt>
      <trkpt lat="43.56803" lon="2.92474">
        <ele>274.8</ele>
        <time>2014-01-18T07:31:46Z</time>
      </trkpt>
      <trkpt lat="43.56804" lon="2.92471">
        <ele>275.2</ele>
        <time>2014-01-18T07:31:47Z</time>
      </trkpt>
      <trkpt lat="43.56805" lon="2.92469">
        <ele>275.6</ele>
        <time>2014-01-18T07:31:48Z</time>
      </trkpt>
      <trkpt lat="43.5681" lon="2.92461">
        <ele>275.6</ele>
        <time>2014-01-18T07:31:51Z</time>
      </trkpt>
      <trkpt lat="43.56816" lon="2.92446">
        <ele>275.6</ele>
        <time>2014-01-18T07:31:56Z</time>
      </trkpt>
      <trkpt lat="43.56817" lon="2.92443">
        <ele>276</ele>
        <time>2014-01-18T07:31:57Z</time>
      </trkpt>
      <trkpt lat="43.56819" lon="2.9244">
        <ele>276.4</ele>
        <time>2014-01-18T07:31:58Z</time>
      </trkpt>
      <trkpt lat="43.5682" lon="2.92437">
        <ele>276.8</ele>
        <time>2014-01-18T07:31:59Z</time>
      </trkpt>
      <trkpt lat="43.56821" lon="2.92435">
        <ele>277.6</ele>
        <time>2014-01-18T07:32:00Z</time>
      </trkpt>
      <trkpt lat="43.56827" lon="2.92422">
        <ele>277.6</ele>
        <time>2014-01-18T07:32:04Z</time>
      </trkpt>
      <trkpt lat="43.56835" lon="2.92394">
        <ele>277.6</ele>
        <time>2014-01-18T07:32:12Z</time>
      </trkpt>
      <trkpt lat="43.56835" lon="2.9239">
        <ele>278</ele>
        <time>2014-01-18T07:32:13Z</time>
      </trkpt>
      <trkpt lat="43.56836" lon="2.92386">
        <ele>278.4</ele>
        <time>2014-01-18T07:32:14Z</time>
      </trkpt>
      <trkpt lat="43.56837" lon="2.92382">
        <ele>279</ele>
        <time>2014-01-18T07:32:15Z</time>
      </trkpt>
      <trkpt lat="43.56838" lon="2.92378">
        <ele>279.4</ele>
        <time>2014-01-18T07:32:16Z</time>
      </trkpt>
      <trkpt lat="43.56838" lon="2.92374">
        <ele>279.8</ele>
        <time>2014-01-18T07:32:17Z</time>
      </trkpt>
      <trkpt lat="43.56839" lon="2.92367">
        <ele>279.8</ele>
        <time>2014-01-18T07:32:19Z</time>
      </trkpt>
      <trkpt lat="43.56842" lon="2.92336">
        <ele>279.8</ele>
        <time>2014-01-18T07:32:27Z</time>
      </trkpt>
      <trkpt lat="43.56842" lon="2.92316">
        <ele>280.2</ele>
        <time>2014-01-18T07:32:32Z</time>
      </trkpt>
      <trkpt lat="43.56842" lon="2.92312">
        <ele>280.6</ele>
        <time>2014-01-18T07:32:33Z</time>
      </trkpt>
      <trkpt lat="43.56842" lon="2.92308">
        <ele>281</ele>
        <time>2014-01-18T07:32:34Z</time>
      </trkpt>
      <trkpt lat="43.56842" lon="2.92304">
        <ele>281.4</ele>
        <time>2014-01-18T07:32:35Z</time>
      </trkpt>
      <trkpt lat="43.56842" lon="2.923">
        <ele>281.8</ele>
        <time>2014-01-18T07:32:36Z</time>
      </trkpt>
      <trkpt lat="43.56842" lon="2.92276">
        <ele>281.8</ele>
        <time>2014-01-18T07:32:42Z</time>
      </trkpt>
      <trkpt lat="43.56843" lon="2.92244">
        <ele>281.8</ele>
        <time>2014-01-18T07:32:49Z</time>
      </trkpt>
      <trkpt lat="43.56844" lon="2.92215">
        <ele>281.8</ele>
        <time>2014-01-18T07:32:54Z</time>
      </trkpt>
      <trkpt lat="43.56845" lon="2.92209">
        <ele>281.8</ele>
        <time>2014-01-18T07:32:55Z</time>
      </trkpt>
      <trkpt lat="43.56845" lon="2.92203">
        <ele>281.8</ele>
        <time>2014-01-18T07:32:56Z</time>
      </trkpt>
      <trkpt lat="43.56847" lon="2.92178">
        <ele>281.8</ele>
        <time>2014-01-18T07:33:00Z</time>
      </trkpt>
      <trkpt lat="43.5685" lon="2.92159">
        <ele>281.8</ele>
        <time>2014-01-18T07:33:03Z</time>
      </trkpt>
      <trkpt lat="43.56855" lon="2.92142">
        <ele>281.8</ele>
        <time>2014-01-18T07:33:06Z</time>
      </trkpt>
      <trkpt lat="43.56862" lon="2.9213">
        <ele>281.8</ele>
        <time>2014-01-18T07:33:09Z</time>
      </trkpt>
      <trkpt lat="43.56874" lon="2.92119">
        <ele>281.8</ele>
        <time>2014-01-18T07:33:13Z</time>
      </trkpt>
      <trkpt lat="43.56878" lon="2.92116">
        <ele>281.8</ele>
        <time>2014-01-18T07:33:14Z</time>
      </trkpt>
      <trkpt lat="43.56895" lon="2.92107">
        <ele>281.8</ele>
        <time>2014-01-18T07:33:19Z</time>
      </trkpt>
      <trkpt lat="43.56915" lon="2.92098">
        <ele>281.8</ele>
        <time>2014-01-18T07:33:25Z</time>
      </trkpt>
      <trkpt lat="43.56933" lon="2.92088">
        <ele>281.8</ele>
        <time>2014-01-18T07:33:31Z</time>
      </trkpt>
      <trkpt lat="43.56942" lon="2.92073">
        <ele>281.8</ele>
        <time>2014-01-18T07:33:36Z</time>
      </trkpt>
      <trkpt lat="43.56942" lon="2.92055">
        <ele>281.8</ele>
        <time>2014-01-18T07:33:40Z</time>
      </trkpt>
      <trkpt lat="43.56936" lon="2.92035">
        <ele>281.8</ele>
        <time>2014-01-18T07:33:45Z</time>
      </trkpt>
      <trkpt lat="43.56925" lon="2.92024">
        <ele>281.8</ele>
        <time>2014-01-18T07:33:49Z</time>
      </trkpt>
      <trkpt lat="43.56909" lon="2.92022">
        <ele>281.8</ele>
        <time>2014-01-18T07:33:54Z</time>
      </trkpt>
      <trkpt lat="43.56903" lon="2.92024">
        <ele>282.4</ele>
        <time>2014-01-18T07:33:56Z</time>
      </trkpt>
      <trkpt lat="43.56899" lon="2.92025">
        <ele>282.8</ele>
        <time>2014-01-18T07:33:57Z</time>
      </trkpt>
      <trkpt lat="43.56896" lon="2.92026">
        <ele>283.2</ele>
        <time>2014-01-18T07:33:58Z</time>
      </trkpt>
      <trkpt lat="43.56893" lon="2.92027">
        <ele>283.6</ele>
        <time>2014-01-18T07:33:59Z</time>
      </trkpt>
      <trkpt lat="43.56891" lon="2.92027">
        <ele>284</ele>
        <time>2014-01-18T07:34:00Z</time>
      </trkpt>
      <trkpt lat="43.5687" lon="2.92032">
        <ele>284</ele>
        <time>2014-01-18T07:34:07Z</time>
      </trkpt>
      <trkpt lat="43.56854" lon="2.92019">
        <ele>284</ele>
        <time>2014-01-18T07:34:13Z</time>
      </trkpt>
      <trkpt lat="43.5684" lon="2.92002">
        <ele>284</ele>
        <time>2014-01-18T07:34:20Z</time>
      </trkpt>
      <trkpt lat="43.5683" lon="2.91994">
        <ele>284.4</ele>
        <time>2014-01-18T07:34:24Z</time>
      </trkpt>
      <trkpt lat="43.56827" lon="2.91994">
        <ele>285</ele>
        <time>2014-01-18T07:34:25Z</time>
      </trkpt>
      <trkpt lat="43.56825" lon="2.91993">
        <ele>285.4</ele>
        <time>2014-01-18T07:34:26Z</time>
      </trkpt>
      <trkpt lat="43.56822" lon="2.91993">
        <ele>285.8</ele>
        <time>2014-01-18T07:34:27Z</time>
      </trkpt>
      <trkpt lat="43.56819" lon="2.91993">
        <ele>286.4</ele>
        <time>2014-01-18T07:34:28Z</time>
      </trkpt>
      <trkpt lat="43.56807" lon="2.91997">
        <ele>286.4</ele>
        <time>2014-01-18T07:34:32Z</time>
      </trkpt>
      <trkpt lat="43.56783" lon="2.92005">
        <ele>286.8</ele>
        <time>2014-01-18T07:34:40Z</time>
      </trkpt>
      <trkpt lat="43.5678" lon="2.92006">
        <ele>287.2</ele>
        <time>2014-01-18T07:34:41Z</time>
      </trkpt>
      <trkpt lat="43.56777" lon="2.92008">
        <ele>287.6</ele>
        <time>2014-01-18T07:34:42Z</time>
      </trkpt>
      <trkpt lat="43.56774" lon="2.92009">
        <ele>288</ele>
        <time>2014-01-18T07:34:43Z</time>
      </trkpt>
      <trkpt lat="43.56771" lon="2.92009">
        <ele>288.4</ele>
        <time>2014-01-18T07:34:44Z</time>
      </trkpt>
      <trkpt lat="43.56762" lon="2.92009">
        <ele>288.4</ele>
        <time>2014-01-18T07:34:47Z</time>
      </trkpt>
      <trkpt lat="43.56751" lon="2.92006">
        <ele>288.4</ele>
        <time>2014-01-18T07:34:52Z</time>
      </trkpt>
      <trkpt lat="43.5675" lon="2.92002">
        <ele>288.8</ele>
        <time>2014-01-18T07:34:53Z</time>
      </trkpt>
      <trkpt lat="43.5675" lon="2.92">
        <ele>289.2</ele>
        <time>2014-01-18T07:34:54Z</time>
      </trkpt>
      <trkpt lat="43.56751" lon="2.91996">
        <ele>289.6</ele>
        <time>2014-01-18T07:34:55Z</time>
      </trkpt>
      <trkpt lat="43.56752" lon="2.91994">
        <ele>290</ele>
        <time>2014-01-18T07:34:56Z</time>
      </trkpt>
      <trkpt lat="43.56754" lon="2.91992">
        <ele>290.4</ele>
        <time>2014-01-18T07:34:57Z</time>
      </trkpt>
      <trkpt lat="43.56755" lon="2.91991">
        <ele>290.4</ele>
        <time>2014-01-18T07:34:58Z</time>
      </trkpt>
      <trkpt lat="43.56759" lon="2.91987">
        <ele>290.4</ele>
        <time>2014-01-18T07:35:00Z</time>
      </trkpt>
      <trkpt lat="43.5676" lon="2.91986">
        <ele>290.4</ele>
        <time>2014-01-18T07:35:01Z</time>
      </trkpt>
      <trkpt lat="43.56764" lon="2.91984">
        <ele>290.8</ele>
        <time>2014-01-18T07:35:03Z</time>
      </trkpt>
      <trkpt lat="43.56766" lon="2.91984">
        <ele>291.4</ele>
        <time>2014-01-18T07:35:04Z</time>
      </trkpt>
      <trkpt lat="43.56767" lon="2.91982">
        <ele>291.8</ele>
        <time>2014-01-18T07:35:05Z</time>
      </trkpt>
      <trkpt lat="43.5677" lon="2.91981">
        <ele>292.2</ele>
        <time>2014-01-18T07:35:06Z</time>
      </trkpt>
      <trkpt lat="43.56771" lon="2.9198">
        <ele>292.6</ele>
        <time>2014-01-18T07:35:07Z</time>
      </trkpt>
      <trkpt lat="43.56778" lon="2.91976">
        <ele>292.6</ele>
        <time>2014-01-18T07:35:10Z</time>
      </trkpt>
      <trkpt lat="43.56782" lon="2.91973">
        <ele>293</ele>
        <time>2014-01-18T07:35:12Z</time>
      </trkpt>
      <trkpt lat="43.56784" lon="2.91972">
        <ele>293.4</ele>
        <time>2014-01-18T07:35:13Z</time>
      </trkpt>
      <trkpt lat="43.56786" lon="2.91971">
        <ele>294</ele>
        <time>2014-01-18T07:35:14Z</time>
      </trkpt>
      <trkpt lat="43.56788" lon="2.9197">
        <ele>294.4</ele>
        <time>2014-01-18T07:35:15Z</time>
      </trkpt>
      <trkpt lat="43.5679" lon="2.91969">
        <ele>294.8</ele>
        <time>2014-01-18T07:35:16Z</time>
      </trkpt>
      <trkpt lat="43.568" lon="2.91961">
        <ele>295.2</ele>
        <time>2014-01-18T07:35:21Z</time>
      </trkpt>
      <trkpt lat="43.56802" lon="2.91958">
        <ele>295.6</ele>
        <time>2014-01-18T07:35:22Z</time>
      </trkpt>
      <trkpt lat="43.56803" lon="2.91956">
        <ele>296</ele>
        <time>2014-01-18T07:35:23Z</time>
      </trkpt>
      <trkpt lat="43.56805" lon="2.91953">
        <ele>296.4</ele>
        <time>2014-01-18T07:35:24Z</time>
      </trkpt>
      <trkpt lat="43.56807" lon="2.91951">
        <ele>296.8</ele>
        <time>2014-01-18T07:35:25Z</time>
      </trkpt>
      <trkpt lat="43.56815" lon="2.91935">
        <ele>296.8</ele>
        <time>2014-01-18T07:35:30Z</time>
      </trkpt>
      <trkpt lat="43.56831" lon="2.91903">
        <ele>296.8</ele>
        <time>2014-01-18T07:35:39Z</time>
      </trkpt>
      <trkpt lat="43.56843" lon="2.91883">
        <ele>296.8</ele>
        <time>2014-01-18T07:35:45Z</time>
      </trkpt>
      <trkpt lat="43.56846" lon="2.9188">
        <ele>297.2</ele>
        <time>2014-01-18T07:35:46Z</time>
      </trkpt>
      <trkpt lat="43.56848" lon="2.91877">
        <ele>297.6</ele>
        <time>2014-01-18T07:35:47Z</time>
      </trkpt>
      <trkpt lat="43.5685" lon="2.91873">
        <ele>298</ele>
        <time>2014-01-18T07:35:48Z</time>
      </trkpt>
      <trkpt lat="43.56852" lon="2.9187">
        <ele>298.4</ele>
        <time>2014-01-18T07:35:49Z</time>
      </trkpt>
      <trkpt lat="43.56854" lon="2.91866">
        <ele>298.8</ele>
        <time>2014-01-18T07:35:50Z</time>
      </trkpt>
      <trkpt lat="43.5686" lon="2.91852">
        <ele>298.8</ele>
        <time>2014-01-18T07:35:54Z</time>
      </trkpt>
      <trkpt lat="43.56862" lon="2.91833">
        <ele>299.2</ele>
        <time>2014-01-18T07:35:59Z</time>
      </trkpt>
      <trkpt lat="43.56862" lon="2.91829">
        <ele>299.8</ele>
        <time>2014-01-18T07:36:00Z</time>
      </trkpt>
      <trkpt lat="43.56862" lon="2.91825">
        <ele>300.2</ele>
        <time>2014-01-18T07:36:01Z</time>
      </trkpt>
      <trkpt lat="43.56862" lon="2.91822">
        <ele>300.6</ele>
        <time>2014-01-18T07:36:02Z</time>
      </trkpt>
      <trkpt lat="43.56863" lon="2.91818">
        <ele>301</ele>
        <time>2014-01-18T07:36:03Z</time>
      </trkpt>
      <trkpt lat="43.56866" lon="2.91805">
        <ele>301</ele>
        <time>2014-01-18T07:36:07Z</time>
      </trkpt>
      <trkpt lat="43.56868" lon="2.91799">
        <ele>301.6</ele>
        <time>2014-01-18T07:36:09Z</time>
      </trkpt>
      <trkpt lat="43.56869" lon="2.91796">
        <ele>302</ele>
        <time>2014-01-18T07:36:10Z</time>
      </trkpt>
      <trkpt lat="43.56871" lon="2.91793">
        <ele>302.4</ele>
        <time>2014-01-18T07:36:11Z</time>
      </trkpt>
      <trkpt lat="43.56872" lon="2.91789">
        <ele>302.8</ele>
        <time>2014-01-18T07:36:12Z</time>
      </trkpt>
      <trkpt lat="43.56872" lon="2.91786">
        <ele>303.2</ele>
        <time>2014-01-18T07:36:13Z</time>
      </trkpt>
      <trkpt lat="43.56873" lon="2.91779">
        <ele>303.2</ele>
        <time>2014-01-18T07:36:15Z</time>
      </trkpt>
      <trkpt lat="43.56877" lon="2.91758">
        <ele>303.8</ele>
        <time>2014-01-18T07:36:22Z</time>
      </trkpt>
      <trkpt lat="43.56878" lon="2.91756">
        <ele>304.2</ele>
        <time>2014-01-18T07:36:23Z</time>
      </trkpt>
      <trkpt lat="43.56879" lon="2.91753">
        <ele>304.6</ele>
        <time>2014-01-18T07:36:24Z</time>
      </trkpt>
      <trkpt lat="43.56881" lon="2.9175">
        <ele>305</ele>
        <time>2014-01-18T07:36:25Z</time>
      </trkpt>
      <trkpt lat="43.56882" lon="2.91747">
        <ele>305.6</ele>
        <time>2014-01-18T07:36:26Z</time>
      </trkpt>
      <trkpt lat="43.56883" lon="2.91745">
        <ele>305.6</ele>
        <time>2014-01-18T07:36:27Z</time>
      </trkpt>
      <trkpt lat="43.56884" lon="2.91742">
        <ele>306</ele>
        <time>2014-01-18T07:36:28Z</time>
      </trkpt>
      <trkpt lat="43.56885" lon="2.9174">
        <ele>306.4</ele>
        <time>2014-01-18T07:36:29Z</time>
      </trkpt>
      <trkpt lat="43.56885" lon="2.91737">
        <ele>306.8</ele>
        <time>2014-01-18T07:36:30Z</time>
      </trkpt>
      <trkpt lat="43.56886" lon="2.91734">
        <ele>307.6</ele>
        <time>2014-01-18T07:36:31Z</time>
      </trkpt>
      <trkpt lat="43.5689" lon="2.91728">
        <ele>307.6</ele>
        <time>2014-01-18T07:36:34Z</time>
      </trkpt>
      <trkpt lat="43.56896" lon="2.91714">
        <ele>308</ele>
        <time>2014-01-18T07:36:39Z</time>
      </trkpt>
      <trkpt lat="43.56897" lon="2.91711">
        <ele>308.4</ele>
        <time>2014-01-18T07:36:40Z</time>
      </trkpt>
      <trkpt lat="43.56899" lon="2.91708">
        <ele>308.8</ele>
        <time>2014-01-18T07:36:41Z</time>
      </trkpt>
      <trkpt lat="43.569" lon="2.91706">
        <ele>309.2</ele>
        <time>2014-01-18T07:36:42Z</time>
      </trkpt>
      <trkpt lat="43.56901" lon="2.91703">
        <ele>309.6</ele>
        <time>2014-01-18T07:36:43Z</time>
      </trkpt>
      <trkpt lat="43.56911" lon="2.91689">
        <ele>310.2</ele>
        <time>2014-01-18T07:36:49Z</time>
      </trkpt>
      <trkpt lat="43.56912" lon="2.91687">
        <ele>310.6</ele>
        <time>2014-01-18T07:36:50Z</time>
      </trkpt>
      <trkpt lat="43.56914" lon="2.91685">
        <ele>311</ele>
        <time>2014-01-18T07:36:51Z</time>
      </trkpt>
      <trkpt lat="43.56915" lon="2.91682">
        <ele>311.4</ele>
        <time>2014-01-18T07:36:52Z</time>
      </trkpt>
      <trkpt lat="43.56916" lon="2.91681">
        <ele>311.8</ele>
        <time>2014-01-18T07:36:53Z</time>
      </trkpt>
      <trkpt lat="43.56926" lon="2.91668">
        <ele>311.8</ele>
        <time>2014-01-18T07:36:59Z</time>
      </trkpt>
      <trkpt lat="43.56928" lon="2.91663">
        <ele>312.2</ele>
        <time>2014-01-18T07:37:01Z</time>
      </trkpt>
      <trkpt lat="43.56929" lon="2.91661">
        <ele>312.6</ele>
        <time>2014-01-18T07:37:02Z</time>
      </trkpt>
      <trkpt lat="43.56931" lon="2.91659">
        <ele>313</ele>
        <time>2014-01-18T07:37:03Z</time>
      </trkpt>
      <trkpt lat="43.56932" lon="2.91656">
        <ele>313.4</ele>
        <time>2014-01-18T07:37:04Z</time>
      </trkpt>
      <trkpt lat="43.56933" lon="2.91653">
        <ele>313.8</ele>
        <time>2014-01-18T07:37:05Z</time>
      </trkpt>
      <trkpt lat="43.56943" lon="2.91637">
        <ele>313.8</ele>
        <time>2014-01-18T07:37:12Z</time>
      </trkpt>
      <trkpt lat="43.56947" lon="2.91629">
        <ele>314.4</ele>
        <time>2014-01-18T07:37:15Z</time>
      </trkpt>
      <trkpt lat="43.56949" lon="2.91626">
        <ele>314.8</ele>
        <time>2014-01-18T07:37:16Z</time>
      </trkpt>
      <trkpt lat="43.5695" lon="2.91624">
        <ele>315.2</ele>
        <time>2014-01-18T07:37:17Z</time>
      </trkpt>
      <trkpt lat="43.56952" lon="2.91622">
        <ele>315.6</ele>
        <time>2014-01-18T07:37:18Z</time>
      </trkpt>
      <trkpt lat="43.56954" lon="2.9162">
        <ele>316</ele>
        <time>2014-01-18T07:37:19Z</time>
      </trkpt>
      <trkpt lat="43.56962" lon="2.91609">
        <ele>316.6</ele>
        <time>2014-01-18T07:37:25Z</time>
      </trkpt>
      <trkpt lat="43.56964" lon="2.91606">
        <ele>317</ele>
        <time>2014-01-18T07:37:26Z</time>
      </trkpt>
      <trkpt lat="43.56965" lon="2.91604">
        <ele>317.4</ele>
        <time>2014-01-18T07:37:27Z</time>
      </trkpt>
      <trkpt lat="43.56966" lon="2.91601">
        <ele>317.8</ele>
        <time>2014-01-18T07:37:28Z</time>
      </trkpt>
      <trkpt lat="43.56967" lon="2.91599">
        <ele>318.2</ele>
        <time>2014-01-18T07:37:29Z</time>
      </trkpt>
      <trkpt lat="43.5697" lon="2.91592">
        <ele>318.2</ele>
        <time>2014-01-18T07:37:32Z</time>
      </trkpt>
      <trkpt lat="43.56975" lon="2.91577">
        <ele>318.6</ele>
        <time>2014-01-18T07:37:37Z</time>
      </trkpt>
      <trkpt lat="43.56976" lon="2.91574">
        <ele>319</ele>
        <time>2014-01-18T07:37:38Z</time>
      </trkpt>
      <trkpt lat="43.56977" lon="2.91571">
        <ele>319.4</ele>
        <time>2014-01-18T07:37:39Z</time>
      </trkpt>
      <trkpt lat="43.56978" lon="2.91568">
        <ele>319.8</ele>
        <time>2014-01-18T07:37:40Z</time>
      </trkpt>
      <trkpt lat="43.56979" lon="2.91566">
        <ele>320.2</ele>
        <time>2014-01-18T07:37:41Z</time>
      </trkpt>
      <trkpt lat="43.56987" lon="2.91559">
        <ele>320.2</ele>
        <time>2014-01-18T07:37:45Z</time>
      </trkpt>
      <trkpt lat="43.56989" lon="2.91559">
        <ele>320.2</ele>
        <time>2014-01-18T07:37:46Z</time>
      </trkpt>
      <trkpt lat="43.56992" lon="2.91566">
        <ele>320.8</ele>
        <time>2014-01-18T07:37:49Z</time>
      </trkpt>
      <trkpt lat="43.56991" lon="2.91569">
        <ele>321.2</ele>
        <time>2014-01-18T07:37:50Z</time>
      </trkpt>
      <trkpt lat="43.56991" lon="2.91572">
        <ele>321.6</ele>
        <time>2014-01-18T07:37:51Z</time>
      </trkpt>
      <trkpt lat="43.5699" lon="2.91575">
        <ele>322</ele>
        <time>2014-01-18T07:37:52Z</time>
      </trkpt>
      <trkpt lat="43.56988" lon="2.91577">
        <ele>322.6</ele>
        <time>2014-01-18T07:37:53Z</time>
      </trkpt>
      <trkpt lat="43.56987" lon="2.9158">
        <ele>322.6</ele>
        <time>2014-01-18T07:37:54Z</time>
      </trkpt>
      <trkpt lat="43.56986" lon="2.91583">
        <ele>322.6</ele>
        <time>2014-01-18T07:37:55Z</time>
      </trkpt>
      <trkpt lat="43.56979" lon="2.916">
        <ele>322.6</ele>
        <time>2014-01-18T07:38:01Z</time>
      </trkpt>
      <trkpt lat="43.56978" lon="2.91604">
        <ele>323</ele>
        <time>2014-01-18T07:38:02Z</time>
      </trkpt>
      <trkpt lat="43.56978" lon="2.91607">
        <ele>323.4</ele>
        <time>2014-01-18T07:38:03Z</time>
      </trkpt>
      <trkpt lat="43.56977" lon="2.91609">
        <ele>323.8</ele>
        <time>2014-01-18T07:38:04Z</time>
      </trkpt>
      <trkpt lat="43.56975" lon="2.91612">
        <ele>324.2</ele>
        <time>2014-01-18T07:38:05Z</time>
      </trkpt>
      <trkpt lat="43.56974" lon="2.91615">
        <ele>324.6</ele>
        <time>2014-01-18T07:38:06Z</time>
      </trkpt>
      <trkpt lat="43.56973" lon="2.91618">
        <ele>324.6</ele>
        <time>2014-01-18T07:38:07Z</time>
      </trkpt>
      <trkpt lat="43.56965" lon="2.91641">
        <ele>324.6</ele>
        <time>2014-01-18T07:38:15Z</time>
      </trkpt>
      <trkpt lat="43.56962" lon="2.91649">
        <ele>325</ele>
        <time>2014-01-18T07:38:18Z</time>
      </trkpt>
      <trkpt lat="43.56961" lon="2.91653">
        <ele>325.6</ele>
        <time>2014-01-18T07:38:19Z</time>
      </trkpt>
      <trkpt lat="43.5696" lon="2.91656">
        <ele>326</ele>
        <time>2014-01-18T07:38:20Z</time>
      </trkpt>
      <trkpt lat="43.56959" lon="2.91659">
        <ele>326.4</ele>
        <time>2014-01-18T07:38:21Z</time>
      </trkpt>
      <trkpt lat="43.56958" lon="2.91662">
        <ele>326.8</ele>
        <time>2014-01-18T07:38:22Z</time>
      </trkpt>
      <trkpt lat="43.56958" lon="2.91665">
        <ele>326.8</ele>
        <time>2014-01-18T07:38:23Z</time>
      </trkpt>
      <trkpt lat="43.56955" lon="2.91677">
        <ele>327.2</ele>
        <time>2014-01-18T07:38:27Z</time>
      </trkpt>
      <trkpt lat="43.56955" lon="2.9168">
        <ele>327.6</ele>
        <time>2014-01-18T07:38:28Z</time>
      </trkpt>
      <trkpt lat="43.56954" lon="2.91683">
        <ele>328</ele>
        <time>2014-01-18T07:38:29Z</time>
      </trkpt>
      <trkpt lat="43.56953" lon="2.91685">
        <ele>328.4</ele>
        <time>2014-01-18T07:38:30Z</time>
      </trkpt>
      <trkpt lat="43.56952" lon="2.91688">
        <ele>328.8</ele>
        <time>2014-01-18T07:38:31Z</time>
      </trkpt>
      <trkpt lat="43.56947" lon="2.9171">
        <ele>328.8</ele>
        <time>2014-01-18T07:38:38Z</time>
      </trkpt>
      <trkpt lat="43.56947" lon="2.91713">
        <ele>329.2</ele>
        <time>2014-01-18T07:38:39Z</time>
      </trkpt>
      <trkpt lat="43.56946" lon="2.91716">
        <ele>329.6</ele>
        <time>2014-01-18T07:38:40Z</time>
      </trkpt>
      <trkpt lat="43.56945" lon="2.91718">
        <ele>330</ele>
        <time>2014-01-18T07:38:41Z</time>
      </trkpt>
      <trkpt lat="43.56944" lon="2.91721">
        <ele>330.4</ele>
        <time>2014-01-18T07:38:42Z</time>
      </trkpt>
      <trkpt lat="43.56943" lon="2.91723">
        <ele>330.8</ele>
        <time>2014-01-18T07:38:43Z</time>
      </trkpt>
      <trkpt lat="43.56941" lon="2.91729">
        <ele>330.8</ele>
        <time>2014-01-18T07:38:45Z</time>
      </trkpt>
      <trkpt lat="43.56936" lon="2.9175">
        <ele>331.8</ele>
        <time>2014-01-18T07:38:52Z</time>
      </trkpt>
      <trkpt lat="43.56935" lon="2.91753">
        <ele>332.2</ele>
        <time>2014-01-18T07:38:53Z</time>
      </trkpt>
      <trkpt lat="43.56935" lon="2.91756">
        <ele>332.6</ele>
        <time>2014-01-18T07:38:54Z</time>
      </trkpt>
      <trkpt lat="43.56934" lon="2.91759">
        <ele>333</ele>
        <time>2014-01-18T07:38:55Z</time>
      </trkpt>
      <trkpt lat="43.56935" lon="2.91768">
        <ele>333</ele>
        <time>2014-01-18T07:38:58Z</time>
      </trkpt>
      <trkpt lat="43.56938" lon="2.9179">
        <ele>333</ele>
        <time>2014-01-18T07:39:05Z</time>
      </trkpt>
      <trkpt lat="43.56941" lon="2.91794">
        <ele>333.4</ele>
        <time>2014-01-18T07:39:07Z</time>
      </trkpt>
      <trkpt lat="43.56943" lon="2.91795">
        <ele>333.8</ele>
        <time>2014-01-18T07:39:08Z</time>
      </trkpt>
      <trkpt lat="43.56945" lon="2.91794">
        <ele>334.2</ele>
        <time>2014-01-18T07:39:09Z</time>
      </trkpt>
      <trkpt lat="43.56948" lon="2.91793">
        <ele>334.6</ele>
        <time>2014-01-18T07:39:10Z</time>
      </trkpt>
      <trkpt lat="43.56949" lon="2.9179">
        <ele>335</ele>
        <time>2014-01-18T07:39:11Z</time>
      </trkpt>
      <trkpt lat="43.56951" lon="2.9178">
        <ele>335</ele>
        <time>2014-01-18T07:39:14Z</time>
      </trkpt>
      <trkpt lat="43.56952" lon="2.91776">
        <ele>335.4</ele>
        <time>2014-01-18T07:39:15Z</time>
      </trkpt>
      <trkpt lat="43.56952" lon="2.91773">
        <ele>335.8</ele>
        <time>2014-01-18T07:39:16Z</time>
      </trkpt>
      <trkpt lat="43.56952" lon="2.9177">
        <ele>336.8</ele>
        <time>2014-01-18T07:39:17Z</time>
      </trkpt>
      <trkpt lat="43.56952" lon="2.91767">
        <ele>337.2</ele>
        <time>2014-01-18T07:39:18Z</time>
      </trkpt>
      <trkpt lat="43.56953" lon="2.91758">
        <ele>337.2</ele>
        <time>2014-01-18T07:39:21Z</time>
      </trkpt>
      <trkpt lat="43.56956" lon="2.91738">
        <ele>337.6</ele>
        <time>2014-01-18T07:39:28Z</time>
      </trkpt>
      <trkpt lat="43.56957" lon="2.91735">
        <ele>338</ele>
        <time>2014-01-18T07:39:29Z</time>
      </trkpt>
      <trkpt lat="43.56958" lon="2.91732">
        <ele>338.6</ele>
        <time>2014-01-18T07:39:30Z</time>
      </trkpt>
      <trkpt lat="43.56959" lon="2.9173">
        <ele>339</ele>
        <time>2014-01-18T07:39:31Z</time>
      </trkpt>
      <trkpt lat="43.5696" lon="2.91728">
        <ele>339.4</ele>
        <time>2014-01-18T07:39:32Z</time>
      </trkpt>
      <trkpt lat="43.56968" lon="2.91713">
        <ele>339.8</ele>
        <time>2014-01-18T07:39:38Z</time>
      </trkpt>
      <trkpt lat="43.56969" lon="2.9171">
        <ele>340.4</ele>
        <time>2014-01-18T07:39:39Z</time>
      </trkpt>
      <trkpt lat="43.5697" lon="2.91707">
        <ele>340.8</ele>
        <time>2014-01-18T07:39:40Z</time>
      </trkpt>
      <trkpt lat="43.56971" lon="2.91705">
        <ele>341.2</ele>
        <time>2014-01-18T07:39:41Z</time>
      </trkpt>
      <trkpt lat="43.56973" lon="2.91703">
        <ele>341.8</ele>
        <time>2014-01-18T07:39:42Z</time>
      </trkpt>
      <trkpt lat="43.5698" lon="2.91692">
        <ele>342.2</ele>
        <time>2014-01-18T07:39:47Z</time>
      </trkpt>
      <trkpt lat="43.56982" lon="2.9169">
        <ele>342.6</ele>
        <time>2014-01-18T07:39:48Z</time>
      </trkpt>
      <trkpt lat="43.56983" lon="2.91688">
        <ele>343</ele>
        <time>2014-01-18T07:39:49Z</time>
      </trkpt>
      <trkpt lat="43.56985" lon="2.91685">
        <ele>343.4</ele>
        <time>2014-01-18T07:39:50Z</time>
      </trkpt>
      <trkpt lat="43.56986" lon="2.91683">
        <ele>343.8</ele>
        <time>2014-01-18T07:39:51Z</time>
      </trkpt>
      <trkpt lat="43.56993" lon="2.91673">
        <ele>343.8</ele>
        <time>2014-01-18T07:39:56Z</time>
      </trkpt>
      <trkpt lat="43.56996" lon="2.9167">
        <ele>343.8</ele>
        <time>2014-01-18T07:39:58Z</time>
      </trkpt>
      <trkpt lat="43.56999" lon="2.91667">
        <ele>344.2</ele>
        <time>2014-01-18T07:40:00Z</time>
      </trkpt>
      <trkpt lat="43.57001" lon="2.91665">
        <ele>344.6</ele>
        <time>2014-01-18T07:40:01Z</time>
      </trkpt>
      <trkpt lat="43.57002" lon="2.91663">
        <ele>345</ele>
        <time>2014-01-18T07:40:02Z</time>
      </trkpt>
      <trkpt lat="43.57004" lon="2.91661">
        <ele>345.4</ele>
        <time>2014-01-18T07:40:03Z</time>
      </trkpt>
      <trkpt lat="43.57005" lon="2.91659">
        <ele>345.8</ele>
        <time>2014-01-18T07:40:04Z</time>
      </trkpt>
      <trkpt lat="43.57014" lon="2.91647">
        <ele>345.8</ele>
        <time>2014-01-18T07:40:10Z</time>
      </trkpt>
      <trkpt lat="43.57016" lon="2.91646">
        <ele>346.2</ele>
        <time>2014-01-18T07:40:11Z</time>
      </trkpt>
      <trkpt lat="43.57017" lon="2.91644">
        <ele>346.6</ele>
        <time>2014-01-18T07:40:12Z</time>
      </trkpt>
      <trkpt lat="43.57018" lon="2.91641">
        <ele>347</ele>
        <time>2014-01-18T07:40:13Z</time>
      </trkpt>
      <trkpt lat="43.57019" lon="2.91639">
        <ele>347.4</ele>
        <time>2014-01-18T07:40:14Z</time>
      </trkpt>
      <trkpt lat="43.5702" lon="2.91636">
        <ele>347.8</ele>
        <time>2014-01-18T07:40:15Z</time>
      </trkpt>
      <trkpt lat="43.57023" lon="2.91632">
        <ele>347.8</ele>
        <time>2014-01-18T07:40:17Z</time>
      </trkpt>
      <trkpt lat="43.57024" lon="2.9163">
        <ele>348.2</ele>
        <time>2014-01-18T07:40:18Z</time>
      </trkpt>
      <trkpt lat="43.57025" lon="2.91627">
        <ele>348.6</ele>
        <time>2014-01-18T07:40:19Z</time>
      </trkpt>
      <trkpt lat="43.57026" lon="2.91625">
        <ele>349</ele>
        <time>2014-01-18T07:40:20Z</time>
      </trkpt>
      <trkpt lat="43.57028" lon="2.91622">
        <ele>349.4</ele>
        <time>2014-01-18T07:40:21Z</time>
      </trkpt>
      <trkpt lat="43.57028" lon="2.9162">
        <ele>349.8</ele>
        <time>2014-01-18T07:40:22Z</time>
      </trkpt>
      <trkpt lat="43.5703" lon="2.91614">
        <ele>349.8</ele>
        <time>2014-01-18T07:40:24Z</time>
      </trkpt>
      <trkpt lat="43.57039" lon="2.91599">
        <ele>351</ele>
        <time>2014-01-18T07:40:31Z</time>
      </trkpt>
      <trkpt lat="43.57041" lon="2.91599">
        <ele>351.4</ele>
        <time>2014-01-18T07:40:32Z</time>
      </trkpt>
      <trkpt lat="43.57043" lon="2.91599">
        <ele>352</ele>
        <time>2014-01-18T07:40:33Z</time>
      </trkpt>
      <trkpt lat="43.57045" lon="2.91601">
        <ele>352.6</ele>
        <time>2014-01-18T07:40:34Z</time>
      </trkpt>
      <trkpt lat="43.57045" lon="2.91603">
        <ele>352.6</ele>
        <time>2014-01-18T07:40:35Z</time>
      </trkpt>
      <trkpt lat="43.57044" lon="2.91607">
        <ele>352.6</ele>
        <time>2014-01-18T07:40:37Z</time>
      </trkpt>
      <trkpt lat="43.57039" lon="2.91617">
        <ele>352.6</ele>
        <time>2014-01-18T07:40:41Z</time>
      </trkpt>
      <trkpt lat="43.57036" lon="2.91622">
        <ele>352.6</ele>
        <time>2014-01-18T07:40:43Z</time>
      </trkpt>
      <trkpt lat="43.57028" lon="2.91648">
        <ele>352.6</ele>
        <time>2014-01-18T07:40:52Z</time>
      </trkpt>
      <trkpt lat="43.57027" lon="2.91654">
        <ele>353</ele>
        <time>2014-01-18T07:40:54Z</time>
      </trkpt>
      <trkpt lat="43.57026" lon="2.91657">
        <ele>353.8</ele>
        <time>2014-01-18T07:40:55Z</time>
      </trkpt>
      <trkpt lat="43.57026" lon="2.9166">
        <ele>354.2</ele>
        <time>2014-01-18T07:40:56Z</time>
      </trkpt>
      <trkpt lat="43.57025" lon="2.91663">
        <ele>354.8</ele>
        <time>2014-01-18T07:40:57Z</time>
      </trkpt>
      <trkpt lat="43.57025" lon="2.91672">
        <ele>354.8</ele>
        <time>2014-01-18T07:41:00Z</time>
      </trkpt>
      <trkpt lat="43.57028" lon="2.91696">
        <ele>355.2</ele>
        <time>2014-01-18T07:41:08Z</time>
      </trkpt>
      <trkpt lat="43.57029" lon="2.91698">
        <ele>355.6</ele>
        <time>2014-01-18T07:41:09Z</time>
      </trkpt>
      <trkpt lat="43.5703" lon="2.91701">
        <ele>356</ele>
        <time>2014-01-18T07:41:10Z</time>
      </trkpt>
      <trkpt lat="43.57031" lon="2.91703">
        <ele>356.4</ele>
        <time>2014-01-18T07:41:11Z</time>
      </trkpt>
      <trkpt lat="43.57033" lon="2.91705">
        <ele>356.8</ele>
        <time>2014-01-18T07:41:12Z</time>
      </trkpt>
      <trkpt lat="43.57038" lon="2.9171">
        <ele>356.8</ele>
        <time>2014-01-18T07:41:15Z</time>
      </trkpt>
      <trkpt lat="43.57047" lon="2.91715">
        <ele>357.2</ele>
        <time>2014-01-18T07:41:19Z</time>
      </trkpt>
      <trkpt lat="43.57049" lon="2.91716">
        <ele>357.6</ele>
        <time>2014-01-18T07:41:20Z</time>
      </trkpt>
      <trkpt lat="43.57051" lon="2.91717">
        <ele>358</ele>
        <time>2014-01-18T07:41:21Z</time>
      </trkpt>
      <trkpt lat="43.57052" lon="2.91719">
        <ele>358.4</ele>
        <time>2014-01-18T07:41:22Z</time>
      </trkpt>
      <trkpt lat="43.57054" lon="2.9172">
        <ele>358.8</ele>
        <time>2014-01-18T07:41:23Z</time>
      </trkpt>
      <trkpt lat="43.57063" lon="2.91723">
        <ele>359.2</ele>
        <time>2014-01-18T07:41:27Z</time>
      </trkpt>
      <trkpt lat="43.57065" lon="2.91724">
        <ele>359.6</ele>
        <time>2014-01-18T07:41:28Z</time>
      </trkpt>
      <trkpt lat="43.57067" lon="2.91725">
        <ele>360.2</ele>
        <time>2014-01-18T07:41:29Z</time>
      </trkpt>
      <trkpt lat="43.57069" lon="2.91725">
        <ele>360.6</ele>
        <time>2014-01-18T07:41:30Z</time>
      </trkpt>
      <trkpt lat="43.57071" lon="2.91726">
        <ele>361</ele>
        <time>2014-01-18T07:41:31Z</time>
      </trkpt>
      <trkpt lat="43.57081" lon="2.9173">
        <ele>361</ele>
        <time>2014-01-18T07:41:36Z</time>
      </trkpt>
      <trkpt lat="43.5709" lon="2.91746">
        <ele>361.8</ele>
        <time>2014-01-18T07:41:43Z</time>
      </trkpt>
      <trkpt lat="43.5709" lon="2.91749">
        <ele>362.2</ele>
        <time>2014-01-18T07:41:44Z</time>
      </trkpt>
      <trkpt lat="43.57091" lon="2.91752">
        <ele>362.6</ele>
        <time>2014-01-18T07:41:45Z</time>
      </trkpt>
      <trkpt lat="43.57091" lon="2.91755">
        <ele>363</ele>
        <time>2014-01-18T07:41:46Z</time>
      </trkpt>
      <trkpt lat="43.5709" lon="2.91767">
        <ele>363</ele>
        <time>2014-01-18T07:41:50Z</time>
      </trkpt>
      <trkpt lat="43.57089" lon="2.91773">
        <ele>363.4</ele>
        <time>2014-01-18T07:41:52Z</time>
      </trkpt>
      <trkpt lat="43.57089" lon="2.91776">
        <ele>364</ele>
        <time>2014-01-18T07:41:53Z</time>
      </trkpt>
      <trkpt lat="43.57089" lon="2.91778">
        <ele>364.4</ele>
        <time>2014-01-18T07:41:54Z</time>
      </trkpt>
      <trkpt lat="43.5709" lon="2.91782">
        <ele>364.8</ele>
        <time>2014-01-18T07:41:55Z</time>
      </trkpt>
      <trkpt lat="43.5709" lon="2.91784">
        <ele>365.2</ele>
        <time>2014-01-18T07:41:56Z</time>
      </trkpt>
      <trkpt lat="43.57091" lon="2.91794">
        <ele>365.2</ele>
        <time>2014-01-18T07:41:59Z</time>
      </trkpt>
      <trkpt lat="43.57095" lon="2.91804">
        <ele>365.6</ele>
        <time>2014-01-18T07:42:03Z</time>
      </trkpt>
      <trkpt lat="43.57095" lon="2.91807">
        <ele>366</ele>
        <time>2014-01-18T07:42:04Z</time>
      </trkpt>
      <trkpt lat="43.57096" lon="2.91811">
        <ele>366.6</ele>
        <time>2014-01-18T07:42:05Z</time>
      </trkpt>
      <trkpt lat="43.57096" lon="2.91814">
        <ele>367</ele>
        <time>2014-01-18T07:42:06Z</time>
      </trkpt>
      <trkpt lat="43.57097" lon="2.91817">
        <ele>367.4</ele>
        <time>2014-01-18T07:42:07Z</time>
      </trkpt>
      <trkpt lat="43.57102" lon="2.9184">
        <ele>367.4</ele>
        <time>2014-01-18T07:42:15Z</time>
      </trkpt>
      <trkpt lat="43.57102" lon="2.91843">
        <ele>367.8</ele>
        <time>2014-01-18T07:42:16Z</time>
      </trkpt>
      <trkpt lat="43.57103" lon="2.91846">
        <ele>368.2</ele>
        <time>2014-01-18T07:42:17Z</time>
      </trkpt>
      <trkpt lat="43.57104" lon="2.91848">
        <ele>368.6</ele>
        <time>2014-01-18T07:42:18Z</time>
      </trkpt>
      <trkpt lat="43.57105" lon="2.91851">
        <ele>369</ele>
        <time>2014-01-18T07:42:19Z</time>
      </trkpt>
      <trkpt lat="43.57105" lon="2.91854">
        <ele>369.4</ele>
        <time>2014-01-18T07:42:20Z</time>
      </trkpt>
      <trkpt lat="43.5711" lon="2.91867">
        <ele>369.4</ele>
        <time>2014-01-18T07:42:25Z</time>
      </trkpt>
      <trkpt lat="43.57115" lon="2.91881">
        <ele>369.8</ele>
        <time>2014-01-18T07:42:31Z</time>
      </trkpt>
      <trkpt lat="43.57116" lon="2.91884">
        <ele>370.2</ele>
        <time>2014-01-18T07:42:32Z</time>
      </trkpt>
      <trkpt lat="43.57117" lon="2.91886">
        <ele>371</ele>
        <time>2014-01-18T07:42:33Z</time>
      </trkpt>
      <trkpt lat="43.57117" lon="2.9189">
        <ele>371.4</ele>
        <time>2014-01-18T07:42:34Z</time>
      </trkpt>
      <trkpt lat="43.5712" lon="2.91905">
        <ele>371.4</ele>
        <time>2014-01-18T07:42:40Z</time>
      </trkpt>
      <trkpt lat="43.57121" lon="2.91908">
        <ele>371.8</ele>
        <time>2014-01-18T07:42:41Z</time>
      </trkpt>
      <trkpt lat="43.57121" lon="2.91912">
        <ele>372.2</ele>
        <time>2014-01-18T07:42:42Z</time>
      </trkpt>
      <trkpt lat="43.57122" lon="2.91914">
        <ele>372.8</ele>
        <time>2014-01-18T07:42:43Z</time>
      </trkpt>
      <trkpt lat="43.57123" lon="2.91917">
        <ele>373.2</ele>
        <time>2014-01-18T07:42:44Z</time>
      </trkpt>
      <trkpt lat="43.57124" lon="2.91919">
        <ele>373.6</ele>
        <time>2014-01-18T07:42:45Z</time>
      </trkpt>
      <trkpt lat="43.57125" lon="2.91925">
        <ele>373.6</ele>
        <time>2014-01-18T07:42:47Z</time>
      </trkpt>
      <trkpt lat="43.57127" lon="2.91938">
        <ele>374</ele>
        <time>2014-01-18T07:42:52Z</time>
      </trkpt>
      <trkpt lat="43.57128" lon="2.91941">
        <ele>374.4</ele>
        <time>2014-01-18T07:42:53Z</time>
      </trkpt>
      <trkpt lat="43.57129" lon="2.91944">
        <ele>374.8</ele>
        <time>2014-01-18T07:42:54Z</time>
      </trkpt>
      <trkpt lat="43.5713" lon="2.91947">
        <ele>375.2</ele>
        <time>2014-01-18T07:42:55Z</time>
      </trkpt>
      <trkpt lat="43.5713" lon="2.9195">
        <ele>375.6</ele>
        <time>2014-01-18T07:42:56Z</time>
      </trkpt>
      <trkpt lat="43.57133" lon="2.91963">
        <ele>375.6</ele>
        <time>2014-01-18T07:43:01Z</time>
      </trkpt>
      <trkpt lat="43.57141" lon="2.91974">
        <ele>375.6</ele>
        <time>2014-01-18T07:43:07Z</time>
      </trkpt>
      <trkpt lat="43.57152" lon="2.91977">
        <ele>376</ele>
        <time>2014-01-18T07:43:13Z</time>
      </trkpt>
      <trkpt lat="43.57154" lon="2.91976">
        <ele>376.4</ele>
        <time>2014-01-18T07:43:14Z</time>
      </trkpt>
      <trkpt lat="43.57156" lon="2.91976">
        <ele>377</ele>
        <time>2014-01-18T07:43:15Z</time>
      </trkpt>
      <trkpt lat="43.57158" lon="2.91975">
        <ele>377.4</ele>
        <time>2014-01-18T07:43:16Z</time>
      </trkpt>
      <trkpt lat="43.5716" lon="2.91975">
        <ele>377.8</ele>
        <time>2014-01-18T07:43:17Z</time>
      </trkpt>
      <trkpt lat="43.57167" lon="2.91974">
        <ele>377.8</ele>
        <time>2014-01-18T07:43:20Z</time>
      </trkpt>
      <trkpt lat="43.57175" lon="2.91973">
        <ele>378.2</ele>
        <time>2014-01-18T07:43:24Z</time>
      </trkpt>
      <trkpt lat="43.57177" lon="2.91973">
        <ele>378.6</ele>
        <time>2014-01-18T07:43:25Z</time>
      </trkpt>
      <trkpt lat="43.57179" lon="2.91973">
        <ele>379</ele>
        <time>2014-01-18T07:43:26Z</time>
      </trkpt>
      <trkpt lat="43.57181" lon="2.91974">
        <ele>379.6</ele>
        <time>2014-01-18T07:43:27Z</time>
      </trkpt>
      <trkpt lat="43.57183" lon="2.91975">
        <ele>380</ele>
        <time>2014-01-18T07:43:28Z</time>
      </trkpt>
      <trkpt lat="43.57191" lon="2.91977">
        <ele>380</ele>
        <time>2014-01-18T07:43:32Z</time>
      </trkpt>
      <trkpt lat="43.57193" lon="2.91977">
        <ele>380.4</ele>
        <time>2014-01-18T07:43:33Z</time>
      </trkpt>
      <trkpt lat="43.57196" lon="2.91978">
        <ele>380.8</ele>
        <time>2014-01-18T07:43:34Z</time>
      </trkpt>
      <trkpt lat="43.57198" lon="2.91978">
        <ele>381.2</ele>
        <time>2014-01-18T07:43:35Z</time>
      </trkpt>
      <trkpt lat="43.572" lon="2.91979">
        <ele>381.6</ele>
        <time>2014-01-18T07:43:36Z</time>
      </trkpt>
      <trkpt lat="43.57202" lon="2.9198">
        <ele>382</ele>
        <time>2014-01-18T07:43:37Z</time>
      </trkpt>
      <trkpt lat="43.57208" lon="2.91983">
        <ele>382</ele>
        <time>2014-01-18T07:43:40Z</time>
      </trkpt>
      <trkpt lat="43.57218" lon="2.91987">
        <ele>382.4</ele>
        <time>2014-01-18T07:43:45Z</time>
      </trkpt>
      <trkpt lat="43.5722" lon="2.91988">
        <ele>382.8</ele>
        <time>2014-01-18T07:43:46Z</time>
      </trkpt>
      <trkpt lat="43.57222" lon="2.91989">
        <ele>383.6</ele>
        <time>2014-01-18T07:43:47Z</time>
      </trkpt>
      <trkpt lat="43.57224" lon="2.9199">
        <ele>384</ele>
        <time>2014-01-18T07:43:48Z</time>
      </trkpt>
      <trkpt lat="43.57233" lon="2.91997">
        <ele>384</ele>
        <time>2014-01-18T07:43:53Z</time>
      </trkpt>
      <trkpt lat="43.57235" lon="2.91999">
        <ele>384.6</ele>
        <time>2014-01-18T07:43:54Z</time>
      </trkpt>
      <trkpt lat="43.57237" lon="2.92001">
        <ele>385</ele>
        <time>2014-01-18T07:43:55Z</time>
      </trkpt>
      <trkpt lat="43.57238" lon="2.92003">
        <ele>385.4</ele>
        <time>2014-01-18T07:43:56Z</time>
      </trkpt>
      <trkpt lat="43.57239" lon="2.92006">
        <ele>385.8</ele>
        <time>2014-01-18T07:43:57Z</time>
      </trkpt>
      <trkpt lat="43.5724" lon="2.92008">
        <ele>386.2</ele>
        <time>2014-01-18T07:43:58Z</time>
      </trkpt>
      <trkpt lat="43.57241" lon="2.92013">
        <ele>386.2</ele>
        <time>2014-01-18T07:44:00Z</time>
      </trkpt>
      <trkpt lat="43.57243" lon="2.92024">
        <ele>386.6</ele>
        <time>2014-01-18T07:44:04Z</time>
      </trkpt>
      <trkpt lat="43.57243" lon="2.92026">
        <ele>387</ele>
        <time>2014-01-18T07:44:05Z</time>
      </trkpt>
      <trkpt lat="43.57243" lon="2.92029">
        <ele>387.4</ele>
        <time>2014-01-18T07:44:06Z</time>
      </trkpt>
      <trkpt lat="43.57243" lon="2.92032">
        <ele>387.8</ele>
        <time>2014-01-18T07:44:07Z</time>
      </trkpt>
      <trkpt lat="43.57243" lon="2.92034">
        <ele>388.2</ele>
        <time>2014-01-18T07:44:08Z</time>
      </trkpt>
      <trkpt lat="43.57245" lon="2.92049">
        <ele>388.2</ele>
        <time>2014-01-18T07:44:14Z</time>
      </trkpt>
      <trkpt lat="43.57246" lon="2.92054">
        <ele>388.6</ele>
        <time>2014-01-18T07:44:16Z</time>
      </trkpt>
      <trkpt lat="43.57246" lon="2.92056">
        <ele>389</ele>
        <time>2014-01-18T07:44:17Z</time>
      </trkpt>
      <trkpt lat="43.57246" lon="2.92058">
        <ele>389.6</ele>
        <time>2014-01-18T07:44:18Z</time>
      </trkpt>
      <trkpt lat="43.57246" lon="2.92061">
        <ele>390</ele>
        <time>2014-01-18T07:44:19Z</time>
      </trkpt>
      <trkpt lat="43.57246" lon="2.92064">
        <ele>390.4</ele>
        <time>2014-01-18T07:44:20Z</time>
      </trkpt>
      <trkpt lat="43.57241" lon="2.92083">
        <ele>390.4</ele>
        <time>2014-01-18T07:44:27Z</time>
      </trkpt>
      <trkpt lat="43.5724" lon="2.92085">
        <ele>390.8</ele>
        <time>2014-01-18T07:44:28Z</time>
      </trkpt>
      <trkpt lat="43.57239" lon="2.92088">
        <ele>391.2</ele>
        <time>2014-01-18T07:44:29Z</time>
      </trkpt>
      <trkpt lat="43.57237" lon="2.92089">
        <ele>391.6</ele>
        <time>2014-01-18T07:44:30Z</time>
      </trkpt>
      <trkpt lat="43.57236" lon="2.92091">
        <ele>392</ele>
        <time>2014-01-18T07:44:31Z</time>
      </trkpt>
      <trkpt lat="43.57234" lon="2.92093">
        <ele>392.4</ele>
        <time>2014-01-18T07:44:32Z</time>
      </trkpt>
      <trkpt lat="43.57232" lon="2.92099">
        <ele>392.4</ele>
        <time>2014-01-18T07:44:34Z</time>
      </trkpt>
      <trkpt lat="43.57229" lon="2.92103">
        <ele>393</ele>
        <time>2014-01-18T07:44:36Z</time>
      </trkpt>
      <trkpt lat="43.57228" lon="2.92105">
        <ele>393.4</ele>
        <time>2014-01-18T07:44:37Z</time>
      </trkpt>
      <trkpt lat="43.57226" lon="2.92107">
        <ele>393.8</ele>
        <time>2014-01-18T07:44:38Z</time>
      </trkpt>
      <trkpt lat="43.57225" lon="2.92109">
        <ele>394.2</ele>
        <time>2014-01-18T07:44:39Z</time>
      </trkpt>
      <trkpt lat="43.57224" lon="2.92111">
        <ele>394.6</ele>
        <time>2014-01-18T07:44:40Z</time>
      </trkpt>
      <trkpt lat="43.57216" lon="2.92128">
        <ele>395</ele>
        <time>2014-01-18T07:44:47Z</time>
      </trkpt>
      <trkpt lat="43.57216" lon="2.9213">
        <ele>395.4</ele>
        <time>2014-01-18T07:44:48Z</time>
      </trkpt>
      <trkpt lat="43.57215" lon="2.92133">
        <ele>396</ele>
        <time>2014-01-18T07:44:49Z</time>
      </trkpt>
      <trkpt lat="43.57214" lon="2.92136">
        <ele>396.4</ele>
        <time>2014-01-18T07:44:50Z</time>
      </trkpt>
      <trkpt lat="43.57213" lon="2.92139">
        <ele>396.8</ele>
        <time>2014-01-18T07:44:51Z</time>
      </trkpt>
      <trkpt lat="43.57208" lon="2.92152">
        <ele>396.8</ele>
        <time>2014-01-18T07:44:56Z</time>
      </trkpt>
      <trkpt lat="43.57206" lon="2.92158">
        <ele>397.2</ele>
        <time>2014-01-18T07:44:58Z</time>
      </trkpt>
      <trkpt lat="43.57205" lon="2.9216">
        <ele>397.6</ele>
        <time>2014-01-18T07:44:59Z</time>
      </trkpt>
      <trkpt lat="43.57205" lon="2.92162">
        <ele>398</ele>
        <time>2014-01-18T07:45:00Z</time>
      </trkpt>
      <trkpt lat="43.57204" lon="2.92165">
        <ele>399</ele>
        <time>2014-01-18T07:45:01Z</time>
      </trkpt>
      <trkpt lat="43.57202" lon="2.9217">
        <ele>399</ele>
        <time>2014-01-18T07:45:03Z</time>
      </trkpt>
      <trkpt lat="43.57196" lon="2.92187">
        <ele>399</ele>
        <time>2014-01-18T07:45:10Z</time>
      </trkpt>
      <trkpt lat="43.57196" lon="2.92194">
        <ele>399.4</ele>
        <time>2014-01-18T07:45:13Z</time>
      </trkpt>
      <trkpt lat="43.57196" lon="2.92197">
        <ele>399.8</ele>
        <time>2014-01-18T07:45:14Z</time>
      </trkpt>
      <trkpt lat="43.57197" lon="2.92199">
        <ele>400.2</ele>
        <time>2014-01-18T07:45:15Z</time>
      </trkpt>
      <trkpt lat="43.57198" lon="2.92201">
        <ele>400.6</ele>
        <time>2014-01-18T07:45:16Z</time>
      </trkpt>
      <trkpt lat="43.57199" lon="2.92203">
        <ele>401</ele>
        <time>2014-01-18T07:45:17Z</time>
      </trkpt>
      <trkpt lat="43.57199" lon="2.92208">
        <ele>401</ele>
        <time>2014-01-18T07:45:19Z</time>
      </trkpt>
      <trkpt lat="43.57205" lon="2.92215">
        <ele>401</ele>
        <time>2014-01-18T07:45:23Z</time>
      </trkpt>
      <trkpt lat="43.57214" lon="2.92221">
        <ele>401.4</ele>
        <time>2014-01-18T07:45:28Z</time>
      </trkpt>
      <trkpt lat="43.57216" lon="2.92221">
        <ele>401.8</ele>
        <time>2014-01-18T07:45:29Z</time>
      </trkpt>
      <trkpt lat="43.57218" lon="2.92222">
        <ele>402.2</ele>
        <time>2014-01-18T07:45:30Z</time>
      </trkpt>
      <trkpt lat="43.57219" lon="2.92223">
        <ele>402.8</ele>
        <time>2014-01-18T07:45:31Z</time>
      </trkpt>
      <trkpt lat="43.57221" lon="2.92224">
        <ele>403.2</ele>
        <time>2014-01-18T07:45:32Z</time>
      </trkpt>
      <trkpt lat="43.57233" lon="2.92228">
        <ele>403.2</ele>
        <time>2014-01-18T07:45:38Z</time>
      </trkpt>
      <trkpt lat="43.57248" lon="2.92232">
        <ele>403.2</ele>
        <time>2014-01-18T07:45:46Z</time>
      </trkpt>
      <trkpt lat="43.57252" lon="2.92234">
        <ele>403.6</ele>
        <time>2014-01-18T07:45:48Z</time>
      </trkpt>
      <trkpt lat="43.57253" lon="2.92235">
        <ele>404.4</ele>
        <time>2014-01-18T07:45:49Z</time>
      </trkpt>
      <trkpt lat="43.57255" lon="2.92236">
        <ele>404.8</ele>
        <time>2014-01-18T07:45:50Z</time>
      </trkpt>
      <trkpt lat="43.57257" lon="2.92237">
        <ele>405.2</ele>
        <time>2014-01-18T07:45:51Z</time>
      </trkpt>
      <trkpt lat="43.57259" lon="2.92238">
        <ele>405.2</ele>
        <time>2014-01-18T07:45:52Z</time>
      </trkpt>
      <trkpt lat="43.57273" lon="2.92247">
        <ele>405.2</ele>
        <time>2014-01-18T07:45:59Z</time>
      </trkpt>
      <trkpt lat="43.57275" lon="2.92249">
        <ele>405.6</ele>
        <time>2014-01-18T07:46:00Z</time>
      </trkpt>
      <trkpt lat="43.57276" lon="2.9225">
        <ele>406</ele>
        <time>2014-01-18T07:46:01Z</time>
      </trkpt>
      <trkpt lat="43.57278" lon="2.92252">
        <ele>406.4</ele>
        <time>2014-01-18T07:46:02Z</time>
      </trkpt>
      <trkpt lat="43.5728" lon="2.92253">
        <ele>406.8</ele>
        <time>2014-01-18T07:46:03Z</time>
      </trkpt>
      <trkpt lat="43.57282" lon="2.92254">
        <ele>407.2</ele>
        <time>2014-01-18T07:46:04Z</time>
      </trkpt>
      <trkpt lat="43.5729" lon="2.92259">
        <ele>407.2</ele>
        <time>2014-01-18T07:46:08Z</time>
      </trkpt>
      <trkpt lat="43.573" lon="2.92265">
        <ele>407.6</ele>
        <time>2014-01-18T07:46:13Z</time>
      </trkpt>
      <trkpt lat="43.57302" lon="2.92266">
        <ele>408.4</ele>
        <time>2014-01-18T07:46:14Z</time>
      </trkpt>
      <trkpt lat="43.57304" lon="2.92267">
        <ele>408.8</ele>
        <time>2014-01-18T07:46:15Z</time>
      </trkpt>
      <trkpt lat="43.57306" lon="2.92268">
        <ele>409.4</ele>
        <time>2014-01-18T07:46:16Z</time>
      </trkpt>
      <trkpt lat="43.57312" lon="2.92271">
        <ele>409.8</ele>
        <time>2014-01-18T07:46:19Z</time>
      </trkpt>
      <trkpt lat="43.57314" lon="2.92272">
        <ele>410.2</ele>
        <time>2014-01-18T07:46:20Z</time>
      </trkpt>
      <trkpt lat="43.57317" lon="2.92273">
        <ele>410.6</ele>
        <time>2014-01-18T07:46:21Z</time>
      </trkpt>
      <trkpt lat="43.57318" lon="2.92273">
        <ele>411</ele>
        <time>2014-01-18T07:46:22Z</time>
      </trkpt>
      <trkpt lat="43.57321" lon="2.92274">
        <ele>411.4</ele>
        <time>2014-01-18T07:46:23Z</time>
      </trkpt>
      <trkpt lat="43.57329" lon="2.92275">
        <ele>411.4</ele>
        <time>2014-01-18T07:46:27Z</time>
      </trkpt>
      <trkpt lat="43.57339" lon="2.92274">
        <ele>411.4</ele>
        <time>2014-01-18T07:46:32Z</time>
      </trkpt>
      <trkpt lat="43.57343" lon="2.92273">
        <ele>412</ele>
        <time>2014-01-18T07:46:34Z</time>
      </trkpt>
      <trkpt lat="43.57344" lon="2.92273">
        <ele>412.4</ele>
        <time>2014-01-18T07:46:35Z</time>
      </trkpt>
      <trkpt lat="43.57346" lon="2.92273">
        <ele>412.8</ele>
        <time>2014-01-18T07:46:36Z</time>
      </trkpt>
      <trkpt lat="43.57348" lon="2.92273">
        <ele>413.2</ele>
        <time>2014-01-18T07:46:37Z</time>
      </trkpt>
      <trkpt lat="43.5735" lon="2.92273">
        <ele>413.8</ele>
        <time>2014-01-18T07:46:38Z</time>
      </trkpt>
      <trkpt lat="43.5736" lon="2.92274">
        <ele>413.8</ele>
        <time>2014-01-18T07:46:43Z</time>
      </trkpt>
      <trkpt lat="43.57362" lon="2.92275">
        <ele>413.8</ele>
        <time>2014-01-18T07:46:44Z</time>
      </trkpt>
      <trkpt lat="43.57369" lon="2.92277">
        <ele>413.8</ele>
        <time>2014-01-18T07:46:47Z</time>
      </trkpt>
      <trkpt lat="43.57371" lon="2.92278">
        <ele>414.2</ele>
        <time>2014-01-18T07:46:48Z</time>
      </trkpt>
      <trkpt lat="43.57373" lon="2.92279">
        <ele>414.6</ele>
        <time>2014-01-18T07:46:49Z</time>
      </trkpt>
      <trkpt lat="43.57376" lon="2.9228">
        <ele>415</ele>
        <time>2014-01-18T07:46:50Z</time>
      </trkpt>
      <trkpt lat="43.57378" lon="2.92281">
        <ele>415.6</ele>
        <time>2014-01-18T07:46:51Z</time>
      </trkpt>
      <trkpt lat="43.5738" lon="2.92283">
        <ele>416</ele>
        <time>2014-01-18T07:46:52Z</time>
      </trkpt>
      <trkpt lat="43.57393" lon="2.92288">
        <ele>416.4</ele>
        <time>2014-01-18T07:46:58Z</time>
      </trkpt>
      <trkpt lat="43.57395" lon="2.92289">
        <ele>416.8</ele>
        <time>2014-01-18T07:46:59Z</time>
      </trkpt>
      <trkpt lat="43.57397" lon="2.92291">
        <ele>417.2</ele>
        <time>2014-01-18T07:47:00Z</time>
      </trkpt>
      <trkpt lat="43.57399" lon="2.92292">
        <ele>417.6</ele>
        <time>2014-01-18T07:47:01Z</time>
      </trkpt>
      <trkpt lat="43.57401" lon="2.92293">
        <ele>418</ele>
        <time>2014-01-18T07:47:02Z</time>
      </trkpt>
      <trkpt lat="43.57411" lon="2.92298">
        <ele>418</ele>
        <time>2014-01-18T07:47:07Z</time>
      </trkpt>
      <trkpt lat="43.57414" lon="2.92301">
        <ele>418.4</ele>
        <time>2014-01-18T07:47:09Z</time>
      </trkpt>
      <trkpt lat="43.57415" lon="2.92302">
        <ele>418.8</ele>
        <time>2014-01-18T07:47:10Z</time>
      </trkpt>
      <trkpt lat="43.57417" lon="2.92304">
        <ele>419.2</ele>
        <time>2014-01-18T07:47:11Z</time>
      </trkpt>
      <trkpt lat="43.57418" lon="2.92306">
        <ele>419.6</ele>
        <time>2014-01-18T07:47:12Z</time>
      </trkpt>
      <trkpt lat="43.5742" lon="2.92308">
        <ele>420</ele>
        <time>2014-01-18T07:47:13Z</time>
      </trkpt>
      <trkpt lat="43.57424" lon="2.92313">
        <ele>420</ele>
        <time>2014-01-18T07:47:16Z</time>
      </trkpt>
      <trkpt lat="43.57432" lon="2.92326">
        <ele>420.4</ele>
        <time>2014-01-18T07:47:23Z</time>
      </trkpt>
      <trkpt lat="43.57433" lon="2.92328">
        <ele>420.8</ele>
        <time>2014-01-18T07:47:24Z</time>
      </trkpt>
      <trkpt lat="43.57434" lon="2.92329">
        <ele>421.2</ele>
        <time>2014-01-18T07:47:25Z</time>
      </trkpt>
      <trkpt lat="43.57436" lon="2.92331">
        <ele>421.6</ele>
        <time>2014-01-18T07:47:26Z</time>
      </trkpt>
      <trkpt lat="43.57437" lon="2.92333">
        <ele>422.2</ele>
        <time>2014-01-18T07:47:27Z</time>
      </trkpt>
      <trkpt lat="43.57438" lon="2.92334">
        <ele>422.2</ele>
        <time>2014-01-18T07:47:28Z</time>
      </trkpt>
      <trkpt lat="43.57447" lon="2.92347">
        <ele>422.6</ele>
        <time>2014-01-18T07:47:35Z</time>
      </trkpt>
      <trkpt lat="43.57448" lon="2.92349">
        <ele>423</ele>
        <time>2014-01-18T07:47:36Z</time>
      </trkpt>
      <trkpt lat="43.57449" lon="2.92351">
        <ele>423.4</ele>
        <time>2014-01-18T07:47:37Z</time>
      </trkpt>
      <trkpt lat="43.5745" lon="2.92353">
        <ele>423.8</ele>
        <time>2014-01-18T07:47:38Z</time>
      </trkpt>
      <trkpt lat="43.57452" lon="2.92355">
        <ele>424.2</ele>
        <time>2014-01-18T07:47:39Z</time>
      </trkpt>
      <trkpt lat="43.57459" lon="2.92364">
        <ele>424.2</ele>
        <time>2014-01-18T07:47:44Z</time>
      </trkpt>
      <trkpt lat="43.57467" lon="2.92373">
        <ele>424.6</ele>
        <time>2014-01-18T07:47:49Z</time>
      </trkpt>
      <trkpt lat="43.57468" lon="2.92374">
        <ele>425</ele>
        <time>2014-01-18T07:47:50Z</time>
      </trkpt>
      <trkpt lat="43.5747" lon="2.92376">
        <ele>426</ele>
        <time>2014-01-18T07:47:51Z</time>
      </trkpt>
      <trkpt lat="43.57472" lon="2.92376">
        <ele>426.4</ele>
        <time>2014-01-18T07:47:52Z</time>
      </trkpt>
      <trkpt lat="43.57484" lon="2.92375">
        <ele>426.4</ele>
        <time>2014-01-18T07:47:58Z</time>
      </trkpt>
      <trkpt lat="43.5749" lon="2.92373">
        <ele>426.8</ele>
        <time>2014-01-18T07:48:01Z</time>
      </trkpt>
      <trkpt lat="43.57492" lon="2.92371">
        <ele>427.2</ele>
        <time>2014-01-18T07:48:02Z</time>
      </trkpt>
      <trkpt lat="43.57494" lon="2.9237">
        <ele>427.6</ele>
        <time>2014-01-18T07:48:03Z</time>
      </trkpt>
      <trkpt lat="43.57495" lon="2.92368">
        <ele>428</ele>
        <time>2014-01-18T07:48:04Z</time>
      </trkpt>
      <trkpt lat="43.57497" lon="2.92366">
        <ele>428.4</ele>
        <time>2014-01-18T07:48:05Z</time>
      </trkpt>
      <trkpt lat="43.5751" lon="2.92356">
        <ele>428.4</ele>
        <time>2014-01-18T07:48:12Z</time>
      </trkpt>
      <trkpt lat="43.57516" lon="2.92349">
        <ele>429</ele>
        <time>2014-01-18T07:48:16Z</time>
      </trkpt>
      <trkpt lat="43.57518" lon="2.92348">
        <ele>429.4</ele>
        <time>2014-01-18T07:48:17Z</time>
      </trkpt>
      <trkpt lat="43.5752" lon="2.92346">
        <ele>429.8</ele>
        <time>2014-01-18T07:48:18Z</time>
      </trkpt>
      <trkpt lat="43.57521" lon="2.92345">
        <ele>430.2</ele>
        <time>2014-01-18T07:48:19Z</time>
      </trkpt>
      <trkpt lat="43.57523" lon="2.92343">
        <ele>430.6</ele>
        <time>2014-01-18T07:48:20Z</time>
      </trkpt>
      <trkpt lat="43.57534" lon="2.92335">
        <ele>430.6</ele>
        <time>2014-01-18T07:48:26Z</time>
      </trkpt>
      <trkpt lat="43.5755" lon="2.92325">
        <ele>430.6</ele>
        <time>2014-01-18T07:48:34Z</time>
      </trkpt>
      <trkpt lat="43.57557" lon="2.92323">
        <ele>431</ele>
        <time>2014-01-18T07:48:37Z</time>
      </trkpt>
      <trkpt lat="43.57558" lon="2.92323">
        <ele>431.4</ele>
        <time>2014-01-18T07:48:38Z</time>
      </trkpt>
      <trkpt lat="43.5756" lon="2.92323">
        <ele>431.8</ele>
        <time>2014-01-18T07:48:39Z</time>
      </trkpt>
      <trkpt lat="43.57561" lon="2.92323">
        <ele>432.2</ele>
        <time>2014-01-18T07:48:40Z</time>
      </trkpt>
      <trkpt lat="43.57563" lon="2.92323">
        <ele>432.6</ele>
        <time>2014-01-18T07:48:41Z</time>
      </trkpt>
      <trkpt lat="43.57571" lon="2.92323">
        <ele>432.6</ele>
        <time>2014-01-18T07:48:46Z</time>
      </trkpt>
      <trkpt lat="43.57573" lon="2.92323">
        <ele>433</ele>
        <time>2014-01-18T07:48:47Z</time>
      </trkpt>
      <trkpt lat="43.57575" lon="2.92324">
        <ele>433.4</ele>
        <time>2014-01-18T07:48:48Z</time>
      </trkpt>
      <trkpt lat="43.57576" lon="2.92325">
        <ele>434</ele>
        <time>2014-01-18T07:48:49Z</time>
      </trkpt>
      <trkpt lat="43.57579" lon="2.92326">
        <ele>434.4</ele>
        <time>2014-01-18T07:48:50Z</time>
      </trkpt>
      <trkpt lat="43.57581" lon="2.92326">
        <ele>434.8</ele>
        <time>2014-01-18T07:48:51Z</time>
      </trkpt>
      <trkpt lat="43.57595" lon="2.92323">
        <ele>434.8</ele>
        <time>2014-01-18T07:48:57Z</time>
      </trkpt>
      <trkpt lat="43.57602" lon="2.92319">
        <ele>435.2</ele>
        <time>2014-01-18T07:49:00Z</time>
      </trkpt>
      <trkpt lat="43.57605" lon="2.92317">
        <ele>435.6</ele>
        <time>2014-01-18T07:49:01Z</time>
      </trkpt>
      <trkpt lat="43.57607" lon="2.92316">
        <ele>436</ele>
        <time>2014-01-18T07:49:02Z</time>
      </trkpt>
      <trkpt lat="43.57609" lon="2.92314">
        <ele>436.4</ele>
        <time>2014-01-18T07:49:03Z</time>
      </trkpt>
      <trkpt lat="43.57611" lon="2.92312">
        <ele>436.8</ele>
        <time>2014-01-18T07:49:04Z</time>
      </trkpt>
      <trkpt lat="43.57613" lon="2.92311">
        <ele>436.8</ele>
        <time>2014-01-18T07:49:05Z</time>
      </trkpt>
      <trkpt lat="43.57623" lon="2.92302">
        <ele>436.8</ele>
        <time>2014-01-18T07:49:11Z</time>
      </trkpt>
      <trkpt lat="43.57628" lon="2.92297">
        <ele>437.2</ele>
        <time>2014-01-18T07:49:14Z</time>
      </trkpt>
      <trkpt lat="43.5763" lon="2.92295">
        <ele>437.8</ele>
        <time>2014-01-18T07:49:15Z</time>
      </trkpt>
      <trkpt lat="43.57632" lon="2.92293">
        <ele>438.2</ele>
        <time>2014-01-18T07:49:16Z</time>
      </trkpt>
      <trkpt lat="43.57633" lon="2.92292">
        <ele>438.6</ele>
        <time>2014-01-18T07:49:17Z</time>
      </trkpt>
      <trkpt lat="43.57635" lon="2.9229">
        <ele>439</ele>
        <time>2014-01-18T07:49:18Z</time>
      </trkpt>
      <trkpt lat="43.57639" lon="2.92287">
        <ele>439</ele>
        <time>2014-01-18T07:49:20Z</time>
      </trkpt>
      <trkpt lat="43.57643" lon="2.92283">
        <ele>439.4</ele>
        <time>2014-01-18T07:49:23Z</time>
      </trkpt>
      <trkpt lat="43.57645" lon="2.92282">
        <ele>439.8</ele>
        <time>2014-01-18T07:49:24Z</time>
      </trkpt>
      <trkpt lat="43.57646" lon="2.9228">
        <ele>440.2</ele>
        <time>2014-01-18T07:49:25Z</time>
      </trkpt>
      <trkpt lat="43.57648" lon="2.92279">
        <ele>440.6</ele>
        <time>2014-01-18T07:49:26Z</time>
      </trkpt>
      <trkpt lat="43.5765" lon="2.92277">
        <ele>441</ele>
        <time>2014-01-18T07:49:27Z</time>
      </trkpt>
      <trkpt lat="43.57651" lon="2.92276">
        <ele>441</ele>
        <time>2014-01-18T07:49:28Z</time>
      </trkpt>
      <trkpt lat="43.57656" lon="2.92271">
        <ele>441.4</ele>
        <time>2014-01-18T07:49:31Z</time>
      </trkpt>
      <trkpt lat="43.57658" lon="2.9227">
        <ele>441.8</ele>
        <time>2014-01-18T07:49:32Z</time>
      </trkpt>
      <trkpt lat="43.5766" lon="2.92269">
        <ele>442.2</ele>
        <time>2014-01-18T07:49:33Z</time>
      </trkpt>
      <trkpt lat="43.57662" lon="2.92267">
        <ele>442.6</ele>
        <time>2014-01-18T07:49:34Z</time>
      </trkpt>
      <trkpt lat="43.57663" lon="2.92266">
        <ele>443</ele>
        <time>2014-01-18T07:49:35Z</time>
      </trkpt>
      <trkpt lat="43.57672" lon="2.92258">
        <ele>443.4</ele>
        <time>2014-01-18T07:49:40Z</time>
      </trkpt>
      <trkpt lat="43.57674" lon="2.92256">
        <ele>443.8</ele>
        <time>2014-01-18T07:49:41Z</time>
      </trkpt>
      <trkpt lat="43.57675" lon="2.92255">
        <ele>444.4</ele>
        <time>2014-01-18T07:49:42Z</time>
      </trkpt>
      <trkpt lat="43.57677" lon="2.92253">
        <ele>444.8</ele>
        <time>2014-01-18T07:49:43Z</time>
      </trkpt>
      <trkpt lat="43.57678" lon="2.9225">
        <ele>445.2</ele>
        <time>2014-01-18T07:49:44Z</time>
      </trkpt>
      <trkpt lat="43.57681" lon="2.92242">
        <ele>445.2</ele>
        <time>2014-01-18T07:49:47Z</time>
      </trkpt>
      <trkpt lat="43.57678" lon="2.92235">
        <ele>445.2</ele>
        <time>2014-01-18T07:49:50Z</time>
      </trkpt>
      <trkpt lat="43.57676" lon="2.92235">
        <ele>445.6</ele>
        <time>2014-01-18T07:49:51Z</time>
      </trkpt>
      <trkpt lat="43.57674" lon="2.92235">
        <ele>446</ele>
        <time>2014-01-18T07:49:52Z</time>
      </trkpt>
      <trkpt lat="43.57672" lon="2.92236">
        <ele>446.4</ele>
        <time>2014-01-18T07:49:53Z</time>
      </trkpt>
      <trkpt lat="43.5767" lon="2.92238">
        <ele>446.8</ele>
        <time>2014-01-18T07:49:54Z</time>
      </trkpt>
      <trkpt lat="43.57668" lon="2.92239">
        <ele>447.2</ele>
        <time>2014-01-18T07:49:55Z</time>
      </trkpt>
      <trkpt lat="43.57667" lon="2.9224">
        <ele>447.2</ele>
        <time>2014-01-18T07:49:56Z</time>
      </trkpt>
      <trkpt lat="43.57662" lon="2.92243">
        <ele>447.6</ele>
        <time>2014-01-18T07:49:59Z</time>
      </trkpt>
      <trkpt lat="43.5766" lon="2.92244">
        <ele>448</ele>
        <time>2014-01-18T07:50:00Z</time>
      </trkpt>
      <trkpt lat="43.57659" lon="2.92245">
        <ele>448.6</ele>
        <time>2014-01-18T07:50:01Z</time>
      </trkpt>
      <trkpt lat="43.57657" lon="2.92246">
        <ele>449</ele>
        <time>2014-01-18T07:50:02Z</time>
      </trkpt>
      <trkpt lat="43.57655" lon="2.92247">
        <ele>449.4</ele>
        <time>2014-01-18T07:50:03Z</time>
      </trkpt>
      <trkpt lat="43.57649" lon="2.92251">
        <ele>449.8</ele>
        <time>2014-01-18T07:50:07Z</time>
      </trkpt>
      <trkpt lat="43.57647" lon="2.92252">
        <ele>450.2</ele>
        <time>2014-01-18T07:50:08Z</time>
      </trkpt>
      <trkpt lat="43.57645" lon="2.92252">
        <ele>450.6</ele>
        <time>2014-01-18T07:50:09Z</time>
      </trkpt>
      <trkpt lat="43.57643" lon="2.92253">
        <ele>451</ele>
        <time>2014-01-18T07:50:10Z</time>
      </trkpt>
      <trkpt lat="43.57642" lon="2.92253">
        <ele>451.4</ele>
        <time>2014-01-18T07:50:11Z</time>
      </trkpt>
      <trkpt lat="43.57633" lon="2.92254">
        <ele>452</ele>
        <time>2014-01-18T07:50:16Z</time>
      </trkpt>
      <trkpt lat="43.57632" lon="2.92254">
        <ele>452.4</ele>
        <time>2014-01-18T07:50:17Z</time>
      </trkpt>
      <trkpt lat="43.5763" lon="2.92254">
        <ele>452.8</ele>
        <time>2014-01-18T07:50:18Z</time>
      </trkpt>
      <trkpt lat="43.57628" lon="2.92254">
        <ele>453.8</ele>
        <time>2014-01-18T07:50:19Z</time>
      </trkpt>
      <trkpt lat="43.5762" lon="2.92253">
        <ele>453.8</ele>
        <time>2014-01-18T07:50:24Z</time>
      </trkpt>
      <trkpt lat="43.57618" lon="2.92252">
        <ele>454.2</ele>
        <time>2014-01-18T07:50:25Z</time>
      </trkpt>
      <trkpt lat="43.57617" lon="2.92252">
        <ele>454.6</ele>
        <time>2014-01-18T07:50:26Z</time>
      </trkpt>
      <trkpt lat="43.57615" lon="2.92252">
        <ele>455</ele>
        <time>2014-01-18T07:50:27Z</time>
      </trkpt>
      <trkpt lat="43.57613" lon="2.92252">
        <ele>455.4</ele>
        <time>2014-01-18T07:50:28Z</time>
      </trkpt>
      <trkpt lat="43.57612" lon="2.92251">
        <ele>455.8</ele>
        <time>2014-01-18T07:50:29Z</time>
      </trkpt>
      <trkpt lat="43.5761" lon="2.92252">
        <ele>455.8</ele>
        <time>2014-01-18T07:50:30Z</time>
      </trkpt>
      <trkpt lat="43.57604" lon="2.92255">
        <ele>456.2</ele>
        <time>2014-01-18T07:50:34Z</time>
      </trkpt>
      <trkpt lat="43.57603" lon="2.92257">
        <ele>456.6</ele>
        <time>2014-01-18T07:50:35Z</time>
      </trkpt>
      <trkpt lat="43.57601" lon="2.92258">
        <ele>457.2</ele>
        <time>2014-01-18T07:50:36Z</time>
      </trkpt>
      <trkpt lat="43.57599" lon="2.92259">
        <ele>457.6</ele>
        <time>2014-01-18T07:50:37Z</time>
      </trkpt>
      <trkpt lat="43.57597" lon="2.9226">
        <ele>458</ele>
        <time>2014-01-18T07:50:38Z</time>
      </trkpt>
      <trkpt lat="43.57591" lon="2.92262">
        <ele>458.4</ele>
        <time>2014-01-18T07:50:42Z</time>
      </trkpt>
      <trkpt lat="43.5759" lon="2.92262">
        <ele>458.8</ele>
        <time>2014-01-18T07:50:43Z</time>
      </trkpt>
      <trkpt lat="43.57588" lon="2.92262">
        <ele>459.6</ele>
        <time>2014-01-18T07:50:44Z</time>
      </trkpt>
      <trkpt lat="43.57586" lon="2.92261">
        <ele>460</ele>
        <time>2014-01-18T07:50:45Z</time>
      </trkpt>
      <trkpt lat="43.57577" lon="2.92257">
        <ele>460.4</ele>
        <time>2014-01-18T07:50:51Z</time>
      </trkpt>
      <trkpt lat="43.57576" lon="2.92256">
        <ele>460.8</ele>
        <time>2014-01-18T07:50:52Z</time>
      </trkpt>
      <trkpt lat="43.57574" lon="2.92255">
        <ele>461.4</ele>
        <time>2014-01-18T07:50:53Z</time>
      </trkpt>
      <trkpt lat="43.57573" lon="2.92255">
        <ele>461.8</ele>
        <time>2014-01-18T07:50:54Z</time>
      </trkpt>
      <trkpt lat="43.57571" lon="2.92254">
        <ele>462.2</ele>
        <time>2014-01-18T07:50:55Z</time>
      </trkpt>
      <trkpt lat="43.57566" lon="2.92252">
        <ele>462.2</ele>
        <time>2014-01-18T07:50:58Z</time>
      </trkpt>
      <trkpt lat="43.57561" lon="2.92251">
        <ele>462.6</ele>
        <time>2014-01-18T07:51:02Z</time>
      </trkpt>
      <trkpt lat="43.57559" lon="2.9225">
        <ele>463</ele>
        <time>2014-01-18T07:51:03Z</time>
      </trkpt>
      <trkpt lat="43.57558" lon="2.9225">
        <ele>463.4</ele>
        <time>2014-01-18T07:51:04Z</time>
      </trkpt>
      <trkpt lat="43.57556" lon="2.92249">
        <ele>463.8</ele>
        <time>2014-01-18T07:51:05Z</time>
      </trkpt>
      <trkpt lat="43.57555" lon="2.92248">
        <ele>464.4</ele>
        <time>2014-01-18T07:51:06Z</time>
      </trkpt>
      <trkpt lat="43.57551" lon="2.92245">
        <ele>464.4</ele>
        <time>2014-01-18T07:51:09Z</time>
      </trkpt>
      <trkpt lat="43.57552" lon="2.92243">
        <ele>464.8</ele>
        <time>2014-01-18T07:51:10Z</time>
      </trkpt>
      <trkpt lat="43.57552" lon="2.92241">
        <ele>465.2</ele>
        <time>2014-01-18T07:51:11Z</time>
      </trkpt>
      <trkpt lat="43.57552" lon="2.92239">
        <ele>465.6</ele>
        <time>2014-01-18T07:51:12Z</time>
      </trkpt>
      <trkpt lat="43.57553" lon="2.92237">
        <ele>466</ele>
        <time>2014-01-18T07:51:13Z</time>
      </trkpt>
      <trkpt lat="43.57554" lon="2.92236">
        <ele>466.4</ele>
        <time>2014-01-18T07:51:14Z</time>
      </trkpt>
      <trkpt lat="43.57557" lon="2.92233">
        <ele>466.4</ele>
        <time>2014-01-18T07:51:16Z</time>
      </trkpt>
      <trkpt lat="43.57561" lon="2.92231">
        <ele>466.8</ele>
        <time>2014-01-18T07:51:19Z</time>
      </trkpt>
      <trkpt lat="43.57562" lon="2.92231">
        <ele>467.2</ele>
        <time>2014-01-18T07:51:20Z</time>
      </trkpt>
      <trkpt lat="43.57563" lon="2.9223">
        <ele>467.6</ele>
        <time>2014-01-18T07:51:21Z</time>
      </trkpt>
      <trkpt lat="43.57565" lon="2.9223">
        <ele>468</ele>
        <time>2014-01-18T07:51:22Z</time>
      </trkpt>
      <trkpt lat="43.57566" lon="2.9223">
        <ele>468.4</ele>
        <time>2014-01-18T07:51:23Z</time>
      </trkpt>
      <trkpt lat="43.57567" lon="2.92229">
        <ele>468.4</ele>
        <time>2014-01-18T07:51:24Z</time>
      </trkpt>
      <trkpt lat="43.57569" lon="2.92228">
        <ele>468.4</ele>
        <time>2014-01-18T07:51:26Z</time>
      </trkpt>
      <trkpt lat="43.57572" lon="2.92226">
        <ele>468.4</ele>
        <time>2014-01-18T07:51:28Z</time>
      </trkpt>
      <trkpt lat="43.57575" lon="2.92225">
        <ele>469</ele>
        <time>2014-01-18T07:51:30Z</time>
      </trkpt>
      <trkpt lat="43.57577" lon="2.92225">
        <ele>469.4</ele>
        <time>2014-01-18T07:51:31Z</time>
      </trkpt>
      <trkpt lat="43.57579" lon="2.92224">
        <ele>469.8</ele>
        <time>2014-01-18T07:51:32Z</time>
      </trkpt>
      <trkpt lat="43.5758" lon="2.92224">
        <ele>470.6</ele>
        <time>2014-01-18T07:51:33Z</time>
      </trkpt>
      <trkpt lat="43.57583" lon="2.92223">
        <ele>470.6</ele>
        <time>2014-01-18T07:51:35Z</time>
      </trkpt>
      <trkpt lat="43.5759" lon="2.9222">
        <ele>471</ele>
        <time>2014-01-18T07:51:39Z</time>
      </trkpt>
      <trkpt lat="43.57592" lon="2.92219">
        <ele>471.4</ele>
        <time>2014-01-18T07:51:40Z</time>
      </trkpt>
      <trkpt lat="43.57594" lon="2.92218">
        <ele>471.8</ele>
        <time>2014-01-18T07:51:41Z</time>
      </trkpt>
      <trkpt lat="43.57596" lon="2.92217">
        <ele>472.4</ele>
        <time>2014-01-18T07:51:42Z</time>
      </trkpt>
      <trkpt lat="43.57597" lon="2.92216">
        <ele>472.8</ele>
        <time>2014-01-18T07:51:43Z</time>
      </trkpt>
      <trkpt lat="43.57607" lon="2.92211">
        <ele>472.8</ele>
        <time>2014-01-18T07:51:49Z</time>
      </trkpt>
      <trkpt lat="43.57612" lon="2.92208">
        <ele>473.2</ele>
        <time>2014-01-18T07:51:52Z</time>
      </trkpt>
      <trkpt lat="43.57613" lon="2.92207">
        <ele>473.6</ele>
        <time>2014-01-18T07:51:53Z</time>
      </trkpt>
      <trkpt lat="43.57614" lon="2.92207">
        <ele>474</ele>
        <time>2014-01-18T07:51:54Z</time>
      </trkpt>
      <trkpt lat="43.57616" lon="2.92206">
        <ele>474.4</ele>
        <time>2014-01-18T07:51:55Z</time>
      </trkpt>
      <trkpt lat="43.57617" lon="2.92205">
        <ele>474.8</ele>
        <time>2014-01-18T07:51:56Z</time>
      </trkpt>
      <trkpt lat="43.57619" lon="2.92201">
        <ele>474.8</ele>
        <time>2014-01-18T07:51:58Z</time>
      </trkpt>
      <trkpt lat="43.57618" lon="2.92197">
        <ele>474.8</ele>
        <time>2014-01-18T07:52:00Z</time>
      </trkpt>
      <trkpt lat="43.57616" lon="2.92197">
        <ele>475.2</ele>
        <time>2014-01-18T07:52:01Z</time>
      </trkpt>
      <trkpt lat="43.57614" lon="2.92196">
        <ele>475.6</ele>
        <time>2014-01-18T07:52:02Z</time>
      </trkpt>
      <trkpt lat="43.57613" lon="2.92196">
        <ele>476</ele>
        <time>2014-01-18T07:52:03Z</time>
      </trkpt>
      <trkpt lat="43.57611" lon="2.92196">
        <ele>476.4</ele>
        <time>2014-01-18T07:52:04Z</time>
      </trkpt>
      <trkpt lat="43.57609" lon="2.92196">
        <ele>476.8</ele>
        <time>2014-01-18T07:52:05Z</time>
      </trkpt>
      <trkpt lat="43.57599" lon="2.92198">
        <ele>476.8</ele>
        <time>2014-01-18T07:52:11Z</time>
      </trkpt>
      <trkpt lat="43.57596" lon="2.92197">
        <ele>477.2</ele>
        <time>2014-01-18T07:52:13Z</time>
      </trkpt>
      <trkpt lat="43.57595" lon="2.92196">
        <ele>477.8</ele>
        <time>2014-01-18T07:52:14Z</time>
      </trkpt>
      <trkpt lat="43.57593" lon="2.92196">
        <ele>478.2</ele>
        <time>2014-01-18T07:52:15Z</time>
      </trkpt>
      <trkpt lat="43.57592" lon="2.92195">
        <ele>478.6</ele>
        <time>2014-01-18T07:52:16Z</time>
      </trkpt>
      <trkpt lat="43.5759" lon="2.92194">
        <ele>479</ele>
        <time>2014-01-18T07:52:17Z</time>
      </trkpt>
      <trkpt lat="43.57589" lon="2.92194">
        <ele>479</ele>
        <time>2014-01-18T07:52:18Z</time>
      </trkpt>
      <trkpt lat="43.57577" lon="2.92191">
        <ele>479</ele>
        <time>2014-01-18T07:52:26Z</time>
      </trkpt>
      <trkpt lat="43.57571" lon="2.9219">
        <ele>479.4</ele>
        <time>2014-01-18T07:52:30Z</time>
      </trkpt>
      <trkpt lat="43.5757" lon="2.92189">
        <ele>479.8</ele>
        <time>2014-01-18T07:52:31Z</time>
      </trkpt>
      <trkpt lat="43.57568" lon="2.92189">
        <ele>480.2</ele>
        <time>2014-01-18T07:52:32Z</time>
      </trkpt>
      <trkpt lat="43.57567" lon="2.92189">
        <ele>480.6</ele>
        <time>2014-01-18T07:52:33Z</time>
      </trkpt>
      <trkpt lat="43.57565" lon="2.92188">
        <ele>481</ele>
        <time>2014-01-18T07:52:34Z</time>
      </trkpt>
      <trkpt lat="43.57558" lon="2.92188">
        <ele>481</ele>
        <time>2014-01-18T07:52:38Z</time>
      </trkpt>
      <trkpt lat="43.57548" lon="2.92187">
        <ele>481.4</ele>
        <time>2014-01-18T07:52:44Z</time>
      </trkpt>
      <trkpt lat="43.57547" lon="2.92188">
        <ele>482</ele>
        <time>2014-01-18T07:52:45Z</time>
      </trkpt>
      <trkpt lat="43.57545" lon="2.92188">
        <ele>482.4</ele>
        <time>2014-01-18T07:52:46Z</time>
      </trkpt>
      <trkpt lat="43.57544" lon="2.92188">
        <ele>482.8</ele>
        <time>2014-01-18T07:52:47Z</time>
      </trkpt>
      <trkpt lat="43.57542" lon="2.92187">
        <ele>483.2</ele>
        <time>2014-01-18T07:52:48Z</time>
      </trkpt>
      <trkpt lat="43.57537" lon="2.92184">
        <ele>483.8</ele>
        <time>2014-01-18T07:52:52Z</time>
      </trkpt>
      <trkpt lat="43.57536" lon="2.92183">
        <ele>484.2</ele>
        <time>2014-01-18T07:52:53Z</time>
      </trkpt>
      <trkpt lat="43.57535" lon="2.92182">
        <ele>484.6</ele>
        <time>2014-01-18T07:52:54Z</time>
      </trkpt>
      <trkpt lat="43.57533" lon="2.9218">
        <ele>485</ele>
        <time>2014-01-18T07:52:55Z</time>
      </trkpt>
      <trkpt lat="43.57532" lon="2.92179">
        <ele>485.4</ele>
        <time>2014-01-18T07:52:56Z</time>
      </trkpt>
      <trkpt lat="43.57529" lon="2.92175">
        <ele>485.4</ele>
        <time>2014-01-18T07:52:59Z</time>
      </trkpt>
      <trkpt lat="43.57527" lon="2.92173">
        <ele>485.4</ele>
        <time>2014-01-18T07:53:01Z</time>
      </trkpt>
      <trkpt lat="43.57527" lon="2.92171">
        <ele>485.4</ele>
        <time>2014-01-18T07:53:04Z</time>
      </trkpt>
      <trkpt lat="43.57527" lon="2.92171">
        <ele>487.4</ele>
        <time>2014-01-18T07:54:05Z</time>
      </trkpt>
      <trkpt lat="43.57527" lon="2.9217">
        <ele>487.4</ele>
        <time>2014-01-18T07:54:06Z</time>
      </trkpt>
      <trkpt lat="43.57527" lon="2.92169">
        <ele>487.4</ele>
        <time>2014-01-18T07:54:07Z</time>
      </trkpt>
      <trkpt lat="43.57526" lon="2.92168">
        <ele>488.6</ele>
        <time>2014-01-18T07:54:29Z</time>
      </trkpt>
      <trkpt lat="43.57526" lon="2.92168">
        <ele>489.2</ele>
        <time>2014-01-18T07:54:30Z</time>
      </trkpt>
      <trkpt lat="43.57526" lon="2.92167">
        <ele>489.8</ele>
        <time>2014-01-18T07:54:31Z</time>
      </trkpt>
      <trkpt lat="43.57526" lon="2.92165">
        <ele>490.4</ele>
        <time>2014-01-18T07:54:32Z</time>
      </trkpt>
      <trkpt lat="43.57526" lon="2.92163">
        <ele>490.4</ele>
        <time>2014-01-18T07:54:33Z</time>
      </trkpt>
      <trkpt lat="43.57526" lon="2.92148">
        <ele>490.4</ele>
        <time>2014-01-18T07:54:40Z</time>
      </trkpt>
      <trkpt lat="43.57527" lon="2.92146">
        <ele>490.4</ele>
        <time>2014-01-18T07:54:41Z</time>
      </trkpt>
      <trkpt lat="43.57528" lon="2.92138">
        <ele>490.4</ele>
        <time>2014-01-18T07:54:45Z</time>
      </trkpt>
      <trkpt lat="43.57529" lon="2.92131">
        <ele>491</ele>
        <time>2014-01-18T07:54:48Z</time>
      </trkpt>
      <trkpt lat="43.57529" lon="2.92129">
        <ele>491.4</ele>
        <time>2014-01-18T07:54:49Z</time>
      </trkpt>
      <trkpt lat="43.57528" lon="2.92127">
        <ele>491.8</ele>
        <time>2014-01-18T07:54:50Z</time>
      </trkpt>
      <trkpt lat="43.57528" lon="2.92126">
        <ele>492.6</ele>
        <time>2014-01-18T07:54:51Z</time>
      </trkpt>
      <trkpt lat="43.57527" lon="2.92126">
        <ele>492.6</ele>
        <time>2014-01-18T07:54:52Z</time>
      </trkpt>
      <trkpt lat="43.57527" lon="2.92126">
        <ele>492.6</ele>
        <time>2014-01-18T07:54:53Z</time>
      </trkpt>
      <trkpt lat="43.57526" lon="2.92125">
        <ele>489.4</ele>
        <time>2014-01-18T07:54:57Z</time>
      </trkpt>
      <trkpt lat="43.57526" lon="2.92124">
        <ele>486.2</ele>
        <time>2014-01-18T07:54:58Z</time>
      </trkpt>
      <trkpt lat="43.57525" lon="2.92122">
        <ele>483.6</ele>
        <time>2014-01-18T07:54:59Z</time>
      </trkpt>
      <trkpt lat="43.57525" lon="2.92122">
        <ele>486.6</ele>
        <time>2014-01-18T07:55:00Z</time>
      </trkpt>
      <trkpt lat="43.57525" lon="2.92122">
        <ele>493.6</ele>
        <time>2014-01-18T07:55:28Z</time>
      </trkpt>
      <trkpt lat="43.57525" lon="2.92122">
        <ele>493.6</ele>
        <time>2014-01-18T07:55:29Z</time>
      </trkpt>
      <trkpt lat="43.57525" lon="2.92122">
        <ele>493.6</ele>
        <time>2014-01-18T07:55:30Z</time>
      </trkpt>
      <trkpt lat="43.57526" lon="2.92123">
        <ele>493.6</ele>
        <time>2014-01-18T07:55:31Z</time>
      </trkpt>
      <trkpt lat="43.57532" lon="2.92121">
        <ele>493.6</ele>
        <time>2014-01-18T07:55:35Z</time>
      </trkpt>
      <trkpt lat="43.57537" lon="2.92119">
        <ele>493.6</ele>
        <time>2014-01-18T07:55:39Z</time>
      </trkpt>
      <trkpt lat="43.5754" lon="2.9212">
        <ele>493.6</ele>
        <time>2014-01-18T07:55:42Z</time>
      </trkpt>
      <trkpt lat="43.57541" lon="2.92119">
        <ele>494</ele>
        <time>2014-01-18T07:55:43Z</time>
      </trkpt>
      <trkpt lat="43.57543" lon="2.92119">
        <ele>494.4</ele>
        <time>2014-01-18T07:55:44Z</time>
      </trkpt>
      <trkpt lat="43.57544" lon="2.92119">
        <ele>495</ele>
        <time>2014-01-18T07:55:45Z</time>
      </trkpt>
      <trkpt lat="43.57546" lon="2.92119">
        <ele>495.4</ele>
        <time>2014-01-18T07:55:46Z</time>
      </trkpt>
      <trkpt lat="43.57548" lon="2.9212">
        <ele>495.8</ele>
        <time>2014-01-18T07:55:47Z</time>
      </trkpt>
      <trkpt lat="43.5755" lon="2.9212">
        <ele>495.8</ele>
        <time>2014-01-18T07:55:49Z</time>
      </trkpt>
      <trkpt lat="43.57559" lon="2.92121">
        <ele>495.8</ele>
        <time>2014-01-18T07:55:56Z</time>
      </trkpt>
      <trkpt lat="43.5756" lon="2.9212">
        <ele>495.8</ele>
        <time>2014-01-18T07:55:57Z</time>
      </trkpt>
      <trkpt lat="43.57565" lon="2.92118">
        <ele>496.2</ele>
        <time>2014-01-18T07:56:00Z</time>
      </trkpt>
      <trkpt lat="43.57566" lon="2.92118">
        <ele>496.6</ele>
        <time>2014-01-18T07:56:01Z</time>
      </trkpt>
      <trkpt lat="43.57567" lon="2.92118">
        <ele>497</ele>
        <time>2014-01-18T07:56:02Z</time>
      </trkpt>
      <trkpt lat="43.57568" lon="2.92118">
        <ele>497.6</ele>
        <time>2014-01-18T07:56:03Z</time>
      </trkpt>
      <trkpt lat="43.57569" lon="2.92117">
        <ele>498</ele>
        <time>2014-01-18T07:56:04Z</time>
      </trkpt>
      <trkpt lat="43.57575" lon="2.92115">
        <ele>498.4</ele>
        <time>2014-01-18T07:56:09Z</time>
      </trkpt>
      <trkpt lat="43.57576" lon="2.92115">
        <ele>498.8</ele>
        <time>2014-01-18T07:56:10Z</time>
      </trkpt>
      <trkpt lat="43.57577" lon="2.92114">
        <ele>499.2</ele>
        <time>2014-01-18T07:56:11Z</time>
      </trkpt>
      <trkpt lat="43.57577" lon="2.92114">
        <ele>499.6</ele>
        <time>2014-01-18T07:56:12Z</time>
      </trkpt>
      <trkpt lat="43.57578" lon="2.92114">
        <ele>500</ele>
        <time>2014-01-18T07:56:13Z</time>
      </trkpt>
      <trkpt lat="43.57579" lon="2.92113">
        <ele>500</ele>
        <time>2014-01-18T07:56:14Z</time>
      </trkpt>
      <trkpt lat="43.5758" lon="2.92113">
        <ele>500</ele>
        <time>2014-01-18T07:56:15Z</time>
      </trkpt>
      <trkpt lat="43.57585" lon="2.92113">
        <ele>500</ele>
        <time>2014-01-18T07:56:19Z</time>
      </trkpt>
      <trkpt lat="43.57586" lon="2.92113">
        <ele>500.4</ele>
        <time>2014-01-18T07:56:20Z</time>
      </trkpt>
      <trkpt lat="43.57587" lon="2.92112">
        <ele>500.8</ele>
        <time>2014-01-18T07:56:21Z</time>
      </trkpt>
      <trkpt lat="43.57587" lon="2.92112">
        <ele>501.4</ele>
        <time>2014-01-18T07:56:22Z</time>
      </trkpt>
      <trkpt lat="43.57589" lon="2.92111">
        <ele>501.8</ele>
        <time>2014-01-18T07:56:23Z</time>
      </trkpt>
      <trkpt lat="43.57589" lon="2.92111">
        <ele>502.2</ele>
        <time>2014-01-18T07:56:24Z</time>
      </trkpt>
      <trkpt lat="43.5759" lon="2.9211">
        <ele>502.2</ele>
        <time>2014-01-18T07:56:25Z</time>
      </trkpt>
      <trkpt lat="43.57594" lon="2.9211">
        <ele>502.6</ele>
        <time>2014-01-18T07:56:29Z</time>
      </trkpt>
      <trkpt lat="43.57594" lon="2.9211">
        <ele>503</ele>
        <time>2014-01-18T07:56:30Z</time>
      </trkpt>
      <trkpt lat="43.57595" lon="2.92109">
        <ele>503.4</ele>
        <time>2014-01-18T07:56:31Z</time>
      </trkpt>
      <trkpt lat="43.57596" lon="2.92109">
        <ele>503.8</ele>
        <time>2014-01-18T07:56:32Z</time>
      </trkpt>
      <trkpt lat="43.57597" lon="2.92108">
        <ele>504.2</ele>
        <time>2014-01-18T07:56:33Z</time>
      </trkpt>
      <trkpt lat="43.57602" lon="2.92109">
        <ele>504.2</ele>
        <time>2014-01-18T07:56:38Z</time>
      </trkpt>
      <trkpt lat="43.57603" lon="2.9211">
        <ele>504.8</ele>
        <time>2014-01-18T07:56:39Z</time>
      </trkpt>
      <trkpt lat="43.57604" lon="2.9211">
        <ele>505.2</ele>
        <time>2014-01-18T07:56:40Z</time>
      </trkpt>
      <trkpt lat="43.57605" lon="2.92111">
        <ele>505.6</ele>
        <time>2014-01-18T07:56:41Z</time>
      </trkpt>
      <trkpt lat="43.57606" lon="2.92111">
        <ele>506</ele>
        <time>2014-01-18T07:56:42Z</time>
      </trkpt>
      <trkpt lat="43.57606" lon="2.92112">
        <ele>506.4</ele>
        <time>2014-01-18T07:56:43Z</time>
      </trkpt>
      <trkpt lat="43.57607" lon="2.92113">
        <ele>506.4</ele>
        <time>2014-01-18T07:56:44Z</time>
      </trkpt>
      <trkpt lat="43.57614" lon="2.92118">
        <ele>506.4</ele>
        <time>2014-01-18T07:56:51Z</time>
      </trkpt>
      <trkpt lat="43.5762" lon="2.92118">
        <ele>506.8</ele>
        <time>2014-01-18T07:56:56Z</time>
      </trkpt>
      <trkpt lat="43.57621" lon="2.92118">
        <ele>507.2</ele>
        <time>2014-01-18T07:56:57Z</time>
      </trkpt>
      <trkpt lat="43.57621" lon="2.92118">
        <ele>507.6</ele>
        <time>2014-01-18T07:56:58Z</time>
      </trkpt>
      <trkpt lat="43.57623" lon="2.92118">
        <ele>508</ele>
        <time>2014-01-18T07:56:59Z</time>
      </trkpt>
      <trkpt lat="43.57623" lon="2.92119">
        <ele>508.4</ele>
        <time>2014-01-18T07:57:00Z</time>
      </trkpt>
      <trkpt lat="43.57626" lon="2.92118">
        <ele>508.4</ele>
        <time>2014-01-18T07:57:04Z</time>
      </trkpt>
      <trkpt lat="43.57627" lon="2.92118">
        <ele>508.4</ele>
        <time>2014-01-18T07:57:05Z</time>
      </trkpt>
      <trkpt lat="43.57629" lon="2.92118">
        <ele>508.4</ele>
        <time>2014-01-18T07:57:07Z</time>
      </trkpt>
      <trkpt lat="43.5763" lon="2.92118">
        <ele>509</ele>
        <time>2014-01-18T07:57:08Z</time>
      </trkpt>
      <trkpt lat="43.57631" lon="2.92117">
        <ele>509.4</ele>
        <time>2014-01-18T07:57:09Z</time>
      </trkpt>
      <trkpt lat="43.57632" lon="2.92117">
        <ele>509.8</ele>
        <time>2014-01-18T07:57:10Z</time>
      </trkpt>
      <trkpt lat="43.57632" lon="2.92117">
        <ele>510.2</ele>
        <time>2014-01-18T07:57:11Z</time>
      </trkpt>
      <trkpt lat="43.57633" lon="2.92116">
        <ele>510.6</ele>
        <time>2014-01-18T07:57:12Z</time>
      </trkpt>
      <trkpt lat="43.57637" lon="2.92115">
        <ele>510.6</ele>
        <time>2014-01-18T07:57:17Z</time>
      </trkpt>
      <trkpt lat="43.57639" lon="2.92115">
        <ele>511</ele>
        <time>2014-01-18T07:57:19Z</time>
      </trkpt>
      <trkpt lat="43.57639" lon="2.92115">
        <ele>511.4</ele>
        <time>2014-01-18T07:57:20Z</time>
      </trkpt>
      <trkpt lat="43.5764" lon="2.92114">
        <ele>511.8</ele>
        <time>2014-01-18T07:57:21Z</time>
      </trkpt>
      <trkpt lat="43.57641" lon="2.92114">
        <ele>512.4</ele>
        <time>2014-01-18T07:57:22Z</time>
      </trkpt>
      <trkpt lat="43.57641" lon="2.92114">
        <ele>512.8</ele>
        <time>2014-01-18T07:57:23Z</time>
      </trkpt>
      <trkpt lat="43.57642" lon="2.92113">
        <ele>512.8</ele>
        <time>2014-01-18T07:57:26Z</time>
      </trkpt>
      <trkpt lat="43.57643" lon="2.92113">
        <ele>512.8</ele>
        <time>2014-01-18T07:57:27Z</time>
      </trkpt>
      <trkpt lat="43.57643" lon="2.92113">
        <ele>512.8</ele>
        <time>2014-01-18T07:57:28Z</time>
      </trkpt>
      <trkpt lat="43.57644" lon="2.92113">
        <ele>512.8</ele>
        <time>2014-01-18T07:57:29Z</time>
      </trkpt>
      <trkpt lat="43.57648" lon="2.92111">
        <ele>512.8</ele>
        <time>2014-01-18T07:57:35Z</time>
      </trkpt>
      <trkpt lat="43.57648" lon="2.9211">
        <ele>513.2</ele>
        <time>2014-01-18T07:57:36Z</time>
      </trkpt>
      <trkpt lat="43.57649" lon="2.92109">
        <ele>513.6</ele>
        <time>2014-01-18T07:57:37Z</time>
      </trkpt>
      <trkpt lat="43.57649" lon="2.92109">
        <ele>514</ele>
        <time>2014-01-18T07:57:38Z</time>
      </trkpt>
      <trkpt lat="43.5765" lon="2.92109">
        <ele>514.6</ele>
        <time>2014-01-18T07:57:39Z</time>
      </trkpt>
      <trkpt lat="43.5765" lon="2.92109">
        <ele>515</ele>
        <time>2014-01-18T07:57:40Z</time>
      </trkpt>
      <trkpt lat="43.57651" lon="2.92109">
        <ele>515</ele>
        <time>2014-01-18T07:57:41Z</time>
      </trkpt>
      <trkpt lat="43.57654" lon="2.92108">
        <ele>515.4</ele>
        <time>2014-01-18T07:57:45Z</time>
      </trkpt>
      <trkpt lat="43.57654" lon="2.92107">
        <ele>515.8</ele>
        <time>2014-01-18T07:57:46Z</time>
      </trkpt>
      <trkpt lat="43.57654" lon="2.92107">
        <ele>516.2</ele>
        <time>2014-01-18T07:57:47Z</time>
      </trkpt>
      <trkpt lat="43.57655" lon="2.92106">
        <ele>516.6</ele>
        <time>2014-01-18T07:57:48Z</time>
      </trkpt>
      <trkpt lat="43.57655" lon="2.92106">
        <ele>517</ele>
        <time>2014-01-18T07:57:49Z</time>
      </trkpt>
      <trkpt lat="43.57655" lon="2.92105">
        <ele>517</ele>
        <time>2014-01-18T07:57:50Z</time>
      </trkpt>
      <trkpt lat="43.57656" lon="2.92104">
        <ele>517</ele>
        <time>2014-01-18T07:57:51Z</time>
      </trkpt>
      <trkpt lat="43.57656" lon="2.92104">
        <ele>517</ele>
        <time>2014-01-18T07:57:52Z</time>
      </trkpt>
      <trkpt lat="43.57658" lon="2.92102">
        <ele>518</ele>
        <time>2014-01-18T07:57:57Z</time>
      </trkpt>
      <trkpt lat="43.57659" lon="2.92101">
        <ele>518.4</ele>
        <time>2014-01-18T07:57:58Z</time>
      </trkpt>
      <trkpt lat="43.57659" lon="2.92101">
        <ele>518.8</ele>
        <time>2014-01-18T07:57:59Z</time>
      </trkpt>
      <trkpt lat="43.5766" lon="2.921">
        <ele>519.2</ele>
        <time>2014-01-18T07:58:00Z</time>
      </trkpt>
      <trkpt lat="43.5766" lon="2.921">
        <ele>519.2</ele>
        <time>2014-01-18T07:58:01Z</time>
      </trkpt>
      <trkpt lat="43.57661" lon="2.92099">
        <ele>519.2</ele>
        <time>2014-01-18T07:58:02Z</time>
      </trkpt>
      <trkpt lat="43.57662" lon="2.92098">
        <ele>519.2</ele>
        <time>2014-01-18T07:58:04Z</time>
      </trkpt>
      <trkpt lat="43.57663" lon="2.92097">
        <ele>519.6</ele>
        <time>2014-01-18T07:58:06Z</time>
      </trkpt>
      <trkpt lat="43.57663" lon="2.92097">
        <ele>520</ele>
        <time>2014-01-18T07:58:07Z</time>
      </trkpt>
      <trkpt lat="43.57664" lon="2.92096">
        <ele>520.8</ele>
        <time>2014-01-18T07:58:08Z</time>
      </trkpt>
      <trkpt lat="43.57665" lon="2.92096">
        <ele>521.4</ele>
        <time>2014-01-18T07:58:09Z</time>
      </trkpt>
      <trkpt lat="43.57666" lon="2.92094">
        <ele>521.4</ele>
        <time>2014-01-18T07:58:12Z</time>
      </trkpt>
      <trkpt lat="43.57666" lon="2.92093">
        <ele>521.4</ele>
        <time>2014-01-18T07:58:13Z</time>
      </trkpt>
      <trkpt lat="43.57667" lon="2.92092">
        <ele>521.8</ele>
        <time>2014-01-18T07:58:14Z</time>
      </trkpt>
      <trkpt lat="43.57667" lon="2.92091">
        <ele>522.2</ele>
        <time>2014-01-18T07:58:15Z</time>
      </trkpt>
      <trkpt lat="43.57668" lon="2.92091">
        <ele>522.6</ele>
        <time>2014-01-18T07:58:16Z</time>
      </trkpt>
      <trkpt lat="43.57669" lon="2.9209">
        <ele>523.2</ele>
        <time>2014-01-18T07:58:17Z</time>
      </trkpt>
      <trkpt lat="43.57669" lon="2.9209">
        <ele>523.6</ele>
        <time>2014-01-18T07:58:18Z</time>
      </trkpt>
      <trkpt lat="43.5767" lon="2.92089">
        <ele>523.6</ele>
        <time>2014-01-18T07:58:19Z</time>
      </trkpt>
      <trkpt lat="43.57672" lon="2.92084">
        <ele>523.6</ele>
        <time>2014-01-18T07:58:25Z</time>
      </trkpt>
      <trkpt lat="43.57675" lon="2.9208">
        <ele>524</ele>
        <time>2014-01-18T07:58:31Z</time>
      </trkpt>
      <trkpt lat="43.57675" lon="2.92079">
        <ele>524.4</ele>
        <time>2014-01-18T07:58:32Z</time>
      </trkpt>
      <trkpt lat="43.57675" lon="2.92078">
        <ele>525.2</ele>
        <time>2014-01-18T07:58:33Z</time>
      </trkpt>
      <trkpt lat="43.57676" lon="2.92077">
        <ele>525.6</ele>
        <time>2014-01-18T07:58:34Z</time>
      </trkpt>
      <trkpt lat="43.57679" lon="2.92073">
        <ele>526</ele>
        <time>2014-01-18T07:58:39Z</time>
      </trkpt>
      <trkpt lat="43.57679" lon="2.92073">
        <ele>526.4</ele>
        <time>2014-01-18T07:58:40Z</time>
      </trkpt>
      <trkpt lat="43.5768" lon="2.92072">
        <ele>526.8</ele>
        <time>2014-01-18T07:58:41Z</time>
      </trkpt>
      <trkpt lat="43.5768" lon="2.92072">
        <ele>527.2</ele>
        <time>2014-01-18T07:58:42Z</time>
      </trkpt>
      <trkpt lat="43.57681" lon="2.9207">
        <ele>527.6</ele>
        <time>2014-01-18T07:58:43Z</time>
      </trkpt>
      <trkpt lat="43.57685" lon="2.92064">
        <ele>527.6</ele>
        <time>2014-01-18T07:58:49Z</time>
      </trkpt>
      <trkpt lat="43.57686" lon="2.92062">
        <ele>527.6</ele>
        <time>2014-01-18T07:58:51Z</time>
      </trkpt>
      <trkpt lat="43.57688" lon="2.9206">
        <ele>528.2</ele>
        <time>2014-01-18T07:58:55Z</time>
      </trkpt>
      <trkpt lat="43.57688" lon="2.92059">
        <ele>528.6</ele>
        <time>2014-01-18T07:58:56Z</time>
      </trkpt>
      <trkpt lat="43.57688" lon="2.92058">
        <ele>529.4</ele>
        <time>2014-01-18T07:58:57Z</time>
      </trkpt>
      <trkpt lat="43.57689" lon="2.92057">
        <ele>530</ele>
        <time>2014-01-18T07:58:58Z</time>
      </trkpt>
      <trkpt lat="43.57689" lon="2.92056">
        <ele>530</ele>
        <time>2014-01-18T07:58:59Z</time>
      </trkpt>
      <trkpt lat="43.57692" lon="2.9205">
        <ele>530</ele>
        <time>2014-01-18T07:59:07Z</time>
      </trkpt>
      <trkpt lat="43.57693" lon="2.92049">
        <ele>530.4</ele>
        <time>2014-01-18T07:59:08Z</time>
      </trkpt>
      <trkpt lat="43.57693" lon="2.92048">
        <ele>530.8</ele>
        <time>2014-01-18T07:59:09Z</time>
      </trkpt>
      <trkpt lat="43.57693" lon="2.92047">
        <ele>531.2</ele>
        <time>2014-01-18T07:59:10Z</time>
      </trkpt>
      <trkpt lat="43.57694" lon="2.92046">
        <ele>531.6</ele>
        <time>2014-01-18T07:59:11Z</time>
      </trkpt>
      <trkpt lat="43.57694" lon="2.92046">
        <ele>532</ele>
        <time>2014-01-18T07:59:12Z</time>
      </trkpt>
      <trkpt lat="43.57695" lon="2.92044">
        <ele>532</ele>
        <time>2014-01-18T07:59:14Z</time>
      </trkpt>
      <trkpt lat="43.57696" lon="2.92042">
        <ele>532</ele>
        <time>2014-01-18T07:59:16Z</time>
      </trkpt>
      <trkpt lat="43.57696" lon="2.92041">
        <ele>532.4</ele>
        <time>2014-01-18T07:59:18Z</time>
      </trkpt>
      <trkpt lat="43.57697" lon="2.9204">
        <ele>532.8</ele>
        <time>2014-01-18T07:59:19Z</time>
      </trkpt>
      <trkpt lat="43.57697" lon="2.92039">
        <ele>533.2</ele>
        <time>2014-01-18T07:59:20Z</time>
      </trkpt>
      <trkpt lat="43.57698" lon="2.92038">
        <ele>533.8</ele>
        <time>2014-01-18T07:59:21Z</time>
      </trkpt>
      <trkpt lat="43.57698" lon="2.92037">
        <ele>534.2</ele>
        <time>2014-01-18T07:59:22Z</time>
      </trkpt>
      <trkpt lat="43.57698" lon="2.92034">
        <ele>534.6</ele>
        <time>2014-01-18T07:59:25Z</time>
      </trkpt>
      <trkpt lat="43.57699" lon="2.92033">
        <ele>535</ele>
        <time>2014-01-18T07:59:26Z</time>
      </trkpt>
      <trkpt lat="43.57699" lon="2.92032">
        <ele>535.4</ele>
        <time>2014-01-18T07:59:27Z</time>
      </trkpt>
      <trkpt lat="43.57699" lon="2.92032">
        <ele>535.8</ele>
        <time>2014-01-18T07:59:28Z</time>
      </trkpt>
      <trkpt lat="43.577" lon="2.92031">
        <ele>536.2</ele>
        <time>2014-01-18T07:59:29Z</time>
      </trkpt>
      <trkpt lat="43.577" lon="2.92031">
        <ele>536.2</ele>
        <time>2014-01-18T07:59:30Z</time>
      </trkpt>
      <trkpt lat="43.57701" lon="2.9203">
        <ele>536.2</ele>
        <time>2014-01-18T07:59:31Z</time>
      </trkpt>
      <trkpt lat="43.57702" lon="2.92027">
        <ele>536.2</ele>
        <time>2014-01-18T07:59:35Z</time>
      </trkpt>
      <trkpt lat="43.57703" lon="2.92025">
        <ele>536.6</ele>
        <time>2014-01-18T07:59:37Z</time>
      </trkpt>
      <trkpt lat="43.57704" lon="2.92025">
        <ele>537</ele>
        <time>2014-01-18T07:59:38Z</time>
      </trkpt>
      <trkpt lat="43.57705" lon="2.92024">
        <ele>537.4</ele>
        <time>2014-01-18T07:59:39Z</time>
      </trkpt>
      <trkpt lat="43.57705" lon="2.92023">
        <ele>537.8</ele>
        <time>2014-01-18T07:59:40Z</time>
      </trkpt>
      <trkpt lat="43.57706" lon="2.92022">
        <ele>538.2</ele>
        <time>2014-01-18T07:59:41Z</time>
      </trkpt>
      <trkpt lat="43.5771" lon="2.92017">
        <ele>539.2</ele>
        <time>2014-01-18T07:59:47Z</time>
      </trkpt>
      <trkpt lat="43.5771" lon="2.92015">
        <ele>539.6</ele>
        <time>2014-01-18T07:59:48Z</time>
      </trkpt>
      <trkpt lat="43.57711" lon="2.92014">
        <ele>540</ele>
        <time>2014-01-18T07:59:49Z</time>
      </trkpt>
      <trkpt lat="43.57712" lon="2.92013">
        <ele>540.4</ele>
        <time>2014-01-18T07:59:50Z</time>
      </trkpt>
      <trkpt lat="43.57713" lon="2.92013">
        <ele>540.4</ele>
        <time>2014-01-18T07:59:51Z</time>
      </trkpt>
      <trkpt lat="43.57714" lon="2.92009">
        <ele>540.4</ele>
        <time>2014-01-18T07:59:54Z</time>
      </trkpt>
      <trkpt lat="43.57715" lon="2.92008">
        <ele>540.4</ele>
        <time>2014-01-18T07:59:55Z</time>
      </trkpt>
      <trkpt lat="43.57718" lon="2.92001">
        <ele>540.4</ele>
        <time>2014-01-18T08:00:01Z</time>
      </trkpt>
      <trkpt lat="43.5772" lon="2.91995">
        <ele>540.8</ele>
        <time>2014-01-18T08:00:06Z</time>
      </trkpt>
      <trkpt lat="43.5772" lon="2.91994">
        <ele>541.2</ele>
        <time>2014-01-18T08:00:07Z</time>
      </trkpt>
      <trkpt lat="43.5772" lon="2.91993">
        <ele>541.6</ele>
        <time>2014-01-18T08:00:08Z</time>
      </trkpt>
      <trkpt lat="43.5772" lon="2.91992">
        <ele>542</ele>
        <time>2014-01-18T08:00:09Z</time>
      </trkpt>
      <trkpt lat="43.5772" lon="2.91991">
        <ele>542.4</ele>
        <time>2014-01-18T08:00:10Z</time>
      </trkpt>
      <trkpt lat="43.57721" lon="2.91983">
        <ele>542.4</ele>
        <time>2014-01-18T08:00:16Z</time>
      </trkpt>
      <trkpt lat="43.57722" lon="2.91979">
        <ele>542.8</ele>
        <time>2014-01-18T08:00:20Z</time>
      </trkpt>
      <trkpt lat="43.57722" lon="2.91978">
        <ele>543.4</ele>
        <time>2014-01-18T08:00:21Z</time>
      </trkpt>
      <trkpt lat="43.57722" lon="2.91976">
        <ele>543.8</ele>
        <time>2014-01-18T08:00:22Z</time>
      </trkpt>
      <trkpt lat="43.57723" lon="2.91975">
        <ele>544.2</ele>
        <time>2014-01-18T08:00:23Z</time>
      </trkpt>
      <trkpt lat="43.57723" lon="2.91974">
        <ele>544.6</ele>
        <time>2014-01-18T08:00:24Z</time>
      </trkpt>
      <trkpt lat="43.57724" lon="2.9197">
        <ele>544.6</ele>
        <time>2014-01-18T08:00:29Z</time>
      </trkpt>
      <trkpt lat="43.57725" lon="2.91966">
        <ele>545</ele>
        <time>2014-01-18T08:00:32Z</time>
      </trkpt>
      <trkpt lat="43.57725" lon="2.91965">
        <ele>545.4</ele>
        <time>2014-01-18T08:00:33Z</time>
      </trkpt>
      <trkpt lat="43.57726" lon="2.91964">
        <ele>546</ele>
        <time>2014-01-18T08:00:34Z</time>
      </trkpt>
      <trkpt lat="43.57726" lon="2.91963">
        <ele>546.4</ele>
        <time>2014-01-18T08:00:35Z</time>
      </trkpt>
      <trkpt lat="43.57727" lon="2.91962">
        <ele>546.8</ele>
        <time>2014-01-18T08:00:36Z</time>
      </trkpt>
      <trkpt lat="43.57728" lon="2.91958">
        <ele>546.8</ele>
        <time>2014-01-18T08:00:39Z</time>
      </trkpt>
      <trkpt lat="43.57729" lon="2.91955">
        <ele>547.2</ele>
        <time>2014-01-18T08:00:42Z</time>
      </trkpt>
      <trkpt lat="43.57729" lon="2.91954">
        <ele>547.6</ele>
        <time>2014-01-18T08:00:43Z</time>
      </trkpt>
      <trkpt lat="43.57729" lon="2.91953">
        <ele>548</ele>
        <time>2014-01-18T08:00:44Z</time>
      </trkpt>
      <trkpt lat="43.5773" lon="2.91952">
        <ele>548.6</ele>
        <time>2014-01-18T08:00:45Z</time>
      </trkpt>
      <trkpt lat="43.5773" lon="2.91951">
        <ele>549</ele>
        <time>2014-01-18T08:00:46Z</time>
      </trkpt>
      <trkpt lat="43.57731" lon="2.91948">
        <ele>549</ele>
        <time>2014-01-18T08:00:49Z</time>
      </trkpt>
      <trkpt lat="43.57734" lon="2.91941">
        <ele>549</ele>
        <time>2014-01-18T08:00:55Z</time>
      </trkpt>
      <trkpt lat="43.57736" lon="2.91937">
        <ele>549.4</ele>
        <time>2014-01-18T08:00:59Z</time>
      </trkpt>
      <trkpt lat="43.57737" lon="2.91936">
        <ele>549.8</ele>
        <time>2014-01-18T08:01:00Z</time>
      </trkpt>
      <trkpt lat="43.57738" lon="2.91935">
        <ele>550.6</ele>
        <time>2014-01-18T08:01:01Z</time>
      </trkpt>
      <trkpt lat="43.57738" lon="2.91934">
        <ele>551</ele>
        <time>2014-01-18T08:01:02Z</time>
      </trkpt>
      <trkpt lat="43.57739" lon="2.91933">
        <ele>551</ele>
        <time>2014-01-18T08:01:03Z</time>
      </trkpt>
      <trkpt lat="43.5774" lon="2.91931">
        <ele>551</ele>
        <time>2014-01-18T08:01:05Z</time>
      </trkpt>
      <trkpt lat="43.57742" lon="2.91927">
        <ele>551</ele>
        <time>2014-01-18T08:01:09Z</time>
      </trkpt>
      <trkpt lat="43.57744" lon="2.91923">
        <ele>551.4</ele>
        <time>2014-01-18T08:01:13Z</time>
      </trkpt>
      <trkpt lat="43.57745" lon="2.91922">
        <ele>551.8</ele>
        <time>2014-01-18T08:01:14Z</time>
      </trkpt>
      <trkpt lat="43.57745" lon="2.91921">
        <ele>552.2</ele>
        <time>2014-01-18T08:01:15Z</time>
      </trkpt>
      <trkpt lat="43.57745" lon="2.9192">
        <ele>552.8</ele>
        <time>2014-01-18T08:01:16Z</time>
      </trkpt>
      <trkpt lat="43.57746" lon="2.91919">
        <ele>553.2</ele>
        <time>2014-01-18T08:01:17Z</time>
      </trkpt>
      <trkpt lat="43.57747" lon="2.91917">
        <ele>553.2</ele>
        <time>2014-01-18T08:01:19Z</time>
      </trkpt>
      <trkpt lat="43.57748" lon="2.91915">
        <ele>553.2</ele>
        <time>2014-01-18T08:01:21Z</time>
      </trkpt>
      <trkpt lat="43.57754" lon="2.91904">
        <ele>553.2</ele>
        <time>2014-01-18T08:01:31Z</time>
      </trkpt>
      <trkpt lat="43.57755" lon="2.919">
        <ele>553.6</ele>
        <time>2014-01-18T08:01:34Z</time>
      </trkpt>
      <trkpt lat="43.57755" lon="2.91899">
        <ele>554</ele>
        <time>2014-01-18T08:01:35Z</time>
      </trkpt>
      <trkpt lat="43.57755" lon="2.91897">
        <ele>554.4</ele>
        <time>2014-01-18T08:01:36Z</time>
      </trkpt>
      <trkpt lat="43.57756" lon="2.91896">
        <ele>554.8</ele>
        <time>2014-01-18T08:01:37Z</time>
      </trkpt>
      <trkpt lat="43.57756" lon="2.91895">
        <ele>555.2</ele>
        <time>2014-01-18T08:01:38Z</time>
      </trkpt>
      <trkpt lat="43.57758" lon="2.91893">
        <ele>555.2</ele>
        <time>2014-01-18T08:01:41Z</time>
      </trkpt>
      <trkpt lat="43.57758" lon="2.91891">
        <ele>555.2</ele>
        <time>2014-01-18T08:01:43Z</time>
      </trkpt>
      <trkpt lat="43.57758" lon="2.91889">
        <ele>555.2</ele>
        <time>2014-01-18T08:01:45Z</time>
      </trkpt>
      <trkpt lat="43.57759" lon="2.91888">
        <ele>555.2</ele>
        <time>2014-01-18T08:01:46Z</time>
      </trkpt>
      <trkpt lat="43.5776" lon="2.91886">
        <ele>555.6</ele>
        <time>2014-01-18T08:01:48Z</time>
      </trkpt>
      <trkpt lat="43.5776" lon="2.91885">
        <ele>556</ele>
        <time>2014-01-18T08:01:49Z</time>
      </trkpt>
      <trkpt lat="43.5776" lon="2.91884">
        <ele>556.8</ele>
        <time>2014-01-18T08:01:50Z</time>
      </trkpt>
      <trkpt lat="43.57761" lon="2.91883">
        <ele>557.2</ele>
        <time>2014-01-18T08:01:51Z</time>
      </trkpt>
      <trkpt lat="43.57762" lon="2.91877">
        <ele>557.2</ele>
        <time>2014-01-18T08:01:56Z</time>
      </trkpt>
      <trkpt lat="43.57765" lon="2.91872">
        <ele>557.6</ele>
        <time>2014-01-18T08:02:02Z</time>
      </trkpt>
      <trkpt lat="43.57766" lon="2.9187">
        <ele>558</ele>
        <time>2014-01-18T08:02:03Z</time>
      </trkpt>
      <trkpt lat="43.57766" lon="2.91869">
        <ele>558.4</ele>
        <time>2014-01-18T08:02:04Z</time>
      </trkpt>
      <trkpt lat="43.57767" lon="2.91868">
        <ele>558.8</ele>
        <time>2014-01-18T08:02:05Z</time>
      </trkpt>
      <trkpt lat="43.57768" lon="2.91868">
        <ele>559.2</ele>
        <time>2014-01-18T08:02:06Z</time>
      </trkpt>
      <trkpt lat="43.57771" lon="2.91864">
        <ele>559.2</ele>
        <time>2014-01-18T08:02:10Z</time>
      </trkpt>
      <trkpt lat="43.57774" lon="2.91859">
        <ele>559.6</ele>
        <time>2014-01-18T08:02:16Z</time>
      </trkpt>
      <trkpt lat="43.57774" lon="2.91858">
        <ele>560</ele>
        <time>2014-01-18T08:02:17Z</time>
      </trkpt>
      <trkpt lat="43.57775" lon="2.91857">
        <ele>560.4</ele>
        <time>2014-01-18T08:02:18Z</time>
      </trkpt>
      <trkpt lat="43.57775" lon="2.91856">
        <ele>560.8</ele>
        <time>2014-01-18T08:02:19Z</time>
      </trkpt>
      <trkpt lat="43.57775" lon="2.91855">
        <ele>561.2</ele>
        <time>2014-01-18T08:02:20Z</time>
      </trkpt>
      <trkpt lat="43.57777" lon="2.9185">
        <ele>561.2</ele>
        <time>2014-01-18T08:02:24Z</time>
      </trkpt>
      <trkpt lat="43.57778" lon="2.91845">
        <ele>561.8</ele>
        <time>2014-01-18T08:02:30Z</time>
      </trkpt>
      <trkpt lat="43.57778" lon="2.91844">
        <ele>562.2</ele>
        <time>2014-01-18T08:02:31Z</time>
      </trkpt>
      <trkpt lat="43.57779" lon="2.91843">
        <ele>562.6</ele>
        <time>2014-01-18T08:02:32Z</time>
      </trkpt>
      <trkpt lat="43.57779" lon="2.91842">
        <ele>563</ele>
        <time>2014-01-18T08:02:33Z</time>
      </trkpt>
      <trkpt lat="43.5778" lon="2.91841">
        <ele>563.4</ele>
        <time>2014-01-18T08:02:34Z</time>
      </trkpt>
      <trkpt lat="43.5778" lon="2.91839">
        <ele>563.4</ele>
        <time>2014-01-18T08:02:36Z</time>
      </trkpt>
      <trkpt lat="43.57781" lon="2.91838">
        <ele>563.4</ele>
        <time>2014-01-18T08:02:37Z</time>
      </trkpt>
      <trkpt lat="43.57781" lon="2.91837">
        <ele>563.8</ele>
        <time>2014-01-18T08:02:39Z</time>
      </trkpt>
      <trkpt lat="43.57782" lon="2.91836">
        <ele>564.8</ele>
        <time>2014-01-18T08:02:40Z</time>
      </trkpt>
      <trkpt lat="43.57782" lon="2.91835">
        <ele>565.2</ele>
        <time>2014-01-18T08:02:41Z</time>
      </trkpt>
      <trkpt lat="43.57782" lon="2.91834">
        <ele>565.6</ele>
        <time>2014-01-18T08:02:42Z</time>
      </trkpt>
      <trkpt lat="43.57784" lon="2.91827">
        <ele>565.6</ele>
        <time>2014-01-18T08:02:48Z</time>
      </trkpt>
      <trkpt lat="43.57786" lon="2.91822">
        <ele>566</ele>
        <time>2014-01-18T08:02:53Z</time>
      </trkpt>
      <trkpt lat="43.57786" lon="2.91822">
        <ele>566.4</ele>
        <time>2014-01-18T08:02:54Z</time>
      </trkpt>
      <trkpt lat="43.57786" lon="2.91821">
        <ele>566.8</ele>
        <time>2014-01-18T08:02:55Z</time>
      </trkpt>
      <trkpt lat="43.57787" lon="2.9182">
        <ele>567.2</ele>
        <time>2014-01-18T08:02:56Z</time>
      </trkpt>
      <trkpt lat="43.57787" lon="2.91819">
        <ele>567.6</ele>
        <time>2014-01-18T08:02:57Z</time>
      </trkpt>
      <trkpt lat="43.5779" lon="2.91813">
        <ele>567.6</ele>
        <time>2014-01-18T08:03:04Z</time>
      </trkpt>
      <trkpt lat="43.5779" lon="2.91813">
        <ele>568.4</ele>
        <time>2014-01-18T08:03:05Z</time>
      </trkpt>
      <trkpt lat="43.5779" lon="2.91811">
        <ele>568.8</ele>
        <time>2014-01-18T08:03:06Z</time>
      </trkpt>
      <trkpt lat="43.57791" lon="2.91811">
        <ele>569.2</ele>
        <time>2014-01-18T08:03:07Z</time>
      </trkpt>
      <trkpt lat="43.57791" lon="2.9181">
        <ele>569.8</ele>
        <time>2014-01-18T08:03:08Z</time>
      </trkpt>
      <trkpt lat="43.57792" lon="2.91807">
        <ele>569.8</ele>
        <time>2014-01-18T08:03:11Z</time>
      </trkpt>
      <trkpt lat="43.57794" lon="2.91805">
        <ele>570.2</ele>
        <time>2014-01-18T08:03:14Z</time>
      </trkpt>
      <trkpt lat="43.57794" lon="2.91804">
        <ele>570.6</ele>
        <time>2014-01-18T08:03:15Z</time>
      </trkpt>
      <trkpt lat="43.57795" lon="2.91803">
        <ele>571</ele>
        <time>2014-01-18T08:03:16Z</time>
      </trkpt>
      <trkpt lat="43.57795" lon="2.91802">
        <ele>571.4</ele>
        <time>2014-01-18T08:03:17Z</time>
      </trkpt>
      <trkpt lat="43.57795" lon="2.91802">
        <ele>571.8</ele>
        <time>2014-01-18T08:03:18Z</time>
      </trkpt>
      <trkpt lat="43.57796" lon="2.91802">
        <ele>571.8</ele>
        <time>2014-01-18T08:03:19Z</time>
      </trkpt>
      <trkpt lat="43.57795" lon="2.91802">
        <ele>571.8</ele>
        <time>2014-01-18T08:03:21Z</time>
      </trkpt>
      <trkpt lat="43.57795" lon="2.91803">
        <ele>572.2</ele>
        <time>2014-01-18T08:03:22Z</time>
      </trkpt>
      <trkpt lat="43.57794" lon="2.91803">
        <ele>572.6</ele>
        <time>2014-01-18T08:03:23Z</time>
      </trkpt>
      <trkpt lat="43.57794" lon="2.91803">
        <ele>573</ele>
        <time>2014-01-18T08:03:24Z</time>
      </trkpt>
      <trkpt lat="43.57795" lon="2.91802">
        <ele>573.8</ele>
        <time>2014-01-18T08:03:26Z</time>
      </trkpt>
      <trkpt lat="43.57796" lon="2.918">
        <ele>573.8</ele>
        <time>2014-01-18T08:03:29Z</time>
      </trkpt>
      <trkpt lat="43.578" lon="2.91796">
        <ele>573.8</ele>
        <time>2014-01-18T08:03:36Z</time>
      </trkpt>
      <trkpt lat="43.57803" lon="2.9179">
        <ele>573.8</ele>
        <time>2014-01-18T08:03:42Z</time>
      </trkpt>
      <trkpt lat="43.57804" lon="2.91787">
        <ele>574.4</ele>
        <time>2014-01-18T08:03:46Z</time>
      </trkpt>
      <trkpt lat="43.57805" lon="2.91786">
        <ele>574.8</ele>
        <time>2014-01-18T08:03:47Z</time>
      </trkpt>
      <trkpt lat="43.57805" lon="2.91785">
        <ele>575.2</ele>
        <time>2014-01-18T08:03:48Z</time>
      </trkpt>
      <trkpt lat="43.57805" lon="2.91785">
        <ele>575.6</ele>
        <time>2014-01-18T08:03:49Z</time>
      </trkpt>
      <trkpt lat="43.57805" lon="2.91784">
        <ele>576</ele>
        <time>2014-01-18T08:03:50Z</time>
      </trkpt>
      <trkpt lat="43.57806" lon="2.91782">
        <ele>576</ele>
        <time>2014-01-18T08:03:53Z</time>
      </trkpt>
      <trkpt lat="43.57806" lon="2.91781">
        <ele>576</ele>
        <time>2014-01-18T08:03:54Z</time>
      </trkpt>
      <trkpt lat="43.57806" lon="2.9178">
        <ele>576.4</ele>
        <time>2014-01-18T08:03:55Z</time>
      </trkpt>
      <trkpt lat="43.57807" lon="2.91779">
        <ele>576.8</ele>
        <time>2014-01-18T08:03:56Z</time>
      </trkpt>
      <trkpt lat="43.57807" lon="2.91778">
        <ele>577.2</ele>
        <time>2014-01-18T08:03:57Z</time>
      </trkpt>
      <trkpt lat="43.57808" lon="2.91776">
        <ele>577.6</ele>
        <time>2014-01-18T08:03:58Z</time>
      </trkpt>
      <trkpt lat="43.57808" lon="2.91776">
        <ele>578</ele>
        <time>2014-01-18T08:03:59Z</time>
      </trkpt>
      <trkpt lat="43.57809" lon="2.91775">
        <ele>578</ele>
        <time>2014-01-18T08:04:00Z</time>
      </trkpt>
      <trkpt lat="43.57811" lon="2.91772">
        <ele>578.4</ele>
        <time>2014-01-18T08:04:04Z</time>
      </trkpt>
      <trkpt lat="43.57812" lon="2.91771">
        <ele>578.8</ele>
        <time>2014-01-18T08:04:05Z</time>
      </trkpt>
      <trkpt lat="43.57812" lon="2.91771">
        <ele>579.2</ele>
        <time>2014-01-18T08:04:06Z</time>
      </trkpt>
      <trkpt lat="43.57813" lon="2.9177">
        <ele>579.8</ele>
        <time>2014-01-18T08:04:07Z</time>
      </trkpt>
      <trkpt lat="43.57814" lon="2.9177">
        <ele>580.2</ele>
        <time>2014-01-18T08:04:08Z</time>
      </trkpt>
      <trkpt lat="43.57814" lon="2.91768">
        <ele>580.2</ele>
        <time>2014-01-18T08:04:09Z</time>
      </trkpt>
      <trkpt lat="43.57815" lon="2.91766">
        <ele>580.2</ele>
        <time>2014-01-18T08:04:11Z</time>
      </trkpt>
      <trkpt lat="43.57816" lon="2.91765">
        <ele>580.2</ele>
        <time>2014-01-18T08:04:12Z</time>
      </trkpt>
      <trkpt lat="43.57816" lon="2.91763">
        <ele>580.6</ele>
        <time>2014-01-18T08:04:15Z</time>
      </trkpt>
      <trkpt lat="43.57816" lon="2.91762">
        <ele>581</ele>
        <time>2014-01-18T08:04:16Z</time>
      </trkpt>
      <trkpt lat="43.57817" lon="2.91762">
        <ele>581.4</ele>
        <time>2014-01-18T08:04:17Z</time>
      </trkpt>
      <trkpt lat="43.57817" lon="2.91761">
        <ele>582.2</ele>
        <time>2014-01-18T08:04:19Z</time>
      </trkpt>
      <trkpt lat="43.57818" lon="2.9176">
        <ele>582.2</ele>
        <time>2014-01-18T08:04:21Z</time>
      </trkpt>
      <trkpt lat="43.57819" lon="2.9176">
        <ele>582.2</ele>
        <time>2014-01-18T08:04:22Z</time>
      </trkpt>
      <trkpt lat="43.57819" lon="2.91758">
        <ele>582.2</ele>
        <time>2014-01-18T08:04:23Z</time>
      </trkpt>
      <trkpt lat="43.57821" lon="2.91754">
        <ele>582.2</ele>
        <time>2014-01-18T08:04:28Z</time>
      </trkpt>
      <trkpt lat="43.57821" lon="2.91753">
        <ele>582.6</ele>
        <time>2014-01-18T08:04:29Z</time>
      </trkpt>
      <trkpt lat="43.57822" lon="2.91752">
        <ele>583</ele>
        <time>2014-01-18T08:04:30Z</time>
      </trkpt>
      <trkpt lat="43.57822" lon="2.91752">
        <ele>583.6</ele>
        <time>2014-01-18T08:04:31Z</time>
      </trkpt>
      <trkpt lat="43.57823" lon="2.91751">
        <ele>584</ele>
        <time>2014-01-18T08:04:32Z</time>
      </trkpt>
      <trkpt lat="43.57824" lon="2.9175">
        <ele>584.4</ele>
        <time>2014-01-18T08:04:33Z</time>
      </trkpt>
      <trkpt lat="43.57824" lon="2.91749">
        <ele>584.4</ele>
        <time>2014-01-18T08:04:34Z</time>
      </trkpt>
      <trkpt lat="43.57826" lon="2.91746">
        <ele>584.4</ele>
        <time>2014-01-18T08:04:38Z</time>
      </trkpt>
      <trkpt lat="43.57827" lon="2.91745">
        <ele>584.8</ele>
        <time>2014-01-18T08:04:39Z</time>
      </trkpt>
      <trkpt lat="43.57827" lon="2.91744">
        <ele>585.2</ele>
        <time>2014-01-18T08:04:40Z</time>
      </trkpt>
      <trkpt lat="43.57828" lon="2.91743">
        <ele>585.6</ele>
        <time>2014-01-18T08:04:41Z</time>
      </trkpt>
      <trkpt lat="43.57829" lon="2.91742">
        <ele>586</ele>
        <time>2014-01-18T08:04:42Z</time>
      </trkpt>
      <trkpt lat="43.57829" lon="2.91741">
        <ele>586.4</ele>
        <time>2014-01-18T08:04:43Z</time>
      </trkpt>
      <trkpt lat="43.57829" lon="2.91741">
        <ele>586.4</ele>
        <time>2014-01-18T08:04:44Z</time>
      </trkpt>
      <trkpt lat="43.57831" lon="2.9174">
        <ele>586.4</ele>
        <time>2014-01-18T08:04:45Z</time>
      </trkpt>
      <trkpt lat="43.57833" lon="2.91737">
        <ele>586.4</ele>
        <time>2014-01-18T08:04:49Z</time>
      </trkpt>
      <trkpt lat="43.57833" lon="2.91737">
        <ele>586.4</ele>
        <time>2014-01-18T08:04:50Z</time>
      </trkpt>
      <trkpt lat="43.57833" lon="2.91737">
        <ele>586.4</ele>
        <time>2014-01-18T08:04:51Z</time>
      </trkpt>
      <trkpt lat="43.57834" lon="2.91736">
        <ele>587</ele>
        <time>2014-01-18T08:04:52Z</time>
      </trkpt>
      <trkpt lat="43.57834" lon="2.91736">
        <ele>587.4</ele>
        <time>2014-01-18T08:04:53Z</time>
      </trkpt>
      <trkpt lat="43.57835" lon="2.91735">
        <ele>587.8</ele>
        <time>2014-01-18T08:04:54Z</time>
      </trkpt>
      <trkpt lat="43.57835" lon="2.91735">
        <ele>588.2</ele>
        <time>2014-01-18T08:04:55Z</time>
      </trkpt>
      <trkpt lat="43.57836" lon="2.91735">
        <ele>588.6</ele>
        <time>2014-01-18T08:04:56Z</time>
      </trkpt>
      <trkpt lat="43.57836" lon="2.91735">
        <ele>588.6</ele>
        <time>2014-01-18T08:04:57Z</time>
      </trkpt>
      <trkpt lat="43.57838" lon="2.91733">
        <ele>588.6</ele>
        <time>2014-01-18T08:05:00Z</time>
      </trkpt>
      <trkpt lat="43.5784" lon="2.91731">
        <ele>588.6</ele>
        <time>2014-01-18T08:05:04Z</time>
      </trkpt>
      <trkpt lat="43.5784" lon="2.9173">
        <ele>588.6</ele>
        <time>2014-01-18T08:05:05Z</time>
      </trkpt>
      <trkpt lat="43.57841" lon="2.9173">
        <ele>588.6</ele>
        <time>2014-01-18T08:05:06Z</time>
      </trkpt>
      <trkpt lat="43.57841" lon="2.9173">
        <ele>588.6</ele>
        <time>2014-01-18T08:05:07Z</time>
      </trkpt>
      <trkpt lat="43.57841" lon="2.91729">
        <ele>589</ele>
        <time>2014-01-18T08:05:08Z</time>
      </trkpt>
      <trkpt lat="43.57842" lon="2.91728">
        <ele>589.8</ele>
        <time>2014-01-18T08:05:09Z</time>
      </trkpt>
      <trkpt lat="43.57842" lon="2.91727">
        <ele>590.2</ele>
        <time>2014-01-18T08:05:10Z</time>
      </trkpt>
      <trkpt lat="43.57842" lon="2.91727">
        <ele>590.8</ele>
        <time>2014-01-18T08:05:11Z</time>
      </trkpt>
      <trkpt lat="43.57843" lon="2.91725">
        <ele>590.8</ele>
        <time>2014-01-18T08:05:12Z</time>
      </trkpt>
      <trkpt lat="43.57844" lon="2.91723">
        <ele>590.8</ele>
        <time>2014-01-18T08:05:15Z</time>
      </trkpt>
      <trkpt lat="43.57844" lon="2.91723">
        <ele>590.8</ele>
        <time>2014-01-18T08:05:17Z</time>
      </trkpt>
      <trkpt lat="43.57845" lon="2.91722">
        <ele>591.2</ele>
        <time>2014-01-18T08:05:19Z</time>
      </trkpt>
      <trkpt lat="43.57846" lon="2.9172">
        <ele>592</ele>
        <time>2014-01-18T08:05:21Z</time>
      </trkpt>
      <trkpt lat="43.57846" lon="2.9172">
        <ele>592.4</ele>
        <time>2014-01-18T08:05:22Z</time>
      </trkpt>
      <trkpt lat="43.57848" lon="2.91717">
        <ele>592.8</ele>
        <time>2014-01-18T08:05:26Z</time>
      </trkpt>
      <trkpt lat="43.5785" lon="2.91715">
        <ele>593.2</ele>
        <time>2014-01-18T08:05:30Z</time>
      </trkpt>
      <trkpt lat="43.5785" lon="2.91714">
        <ele>593.6</ele>
        <time>2014-01-18T08:05:31Z</time>
      </trkpt>
      <trkpt lat="43.57851" lon="2.91714">
        <ele>594.4</ele>
        <time>2014-01-18T08:05:32Z</time>
      </trkpt>
      <trkpt lat="43.57851" lon="2.91713">
        <ele>594.8</ele>
        <time>2014-01-18T08:05:33Z</time>
      </trkpt>
      <trkpt lat="43.57853" lon="2.91711">
        <ele>594.8</ele>
        <time>2014-01-18T08:05:37Z</time>
      </trkpt>
      <trkpt lat="43.57854" lon="2.91711">
        <ele>594.8</ele>
        <time>2014-01-18T08:05:38Z</time>
      </trkpt>
      <trkpt lat="43.57854" lon="2.91711">
        <ele>594.8</ele>
        <time>2014-01-18T08:05:40Z</time>
      </trkpt>
      <trkpt lat="43.57854" lon="2.91709">
        <ele>595.2</ele>
        <time>2014-01-18T08:05:42Z</time>
      </trkpt>
      <trkpt lat="43.57855" lon="2.91709">
        <ele>595.6</ele>
        <time>2014-01-18T08:05:43Z</time>
      </trkpt>
      <trkpt lat="43.57855" lon="2.91708">
        <ele>596</ele>
        <time>2014-01-18T08:05:44Z</time>
      </trkpt>
      <trkpt lat="43.57857" lon="2.91706">
        <ele>596.8</ele>
        <time>2014-01-18T08:05:48Z</time>
      </trkpt>
      <trkpt lat="43.57857" lon="2.91705">
        <ele>596.8</ele>
        <time>2014-01-18T08:05:50Z</time>
      </trkpt>
      <trkpt lat="43.57858" lon="2.91703">
        <ele>597.2</ele>
        <time>2014-01-18T08:05:53Z</time>
      </trkpt>
      <trkpt lat="43.57859" lon="2.91702">
        <ele>597.6</ele>
        <time>2014-01-18T08:05:54Z</time>
      </trkpt>
      <trkpt lat="43.57859" lon="2.91702">
        <ele>598</ele>
        <time>2014-01-18T08:05:55Z</time>
      </trkpt>
      <trkpt lat="43.5786" lon="2.91701">
        <ele>598.4</ele>
        <time>2014-01-18T08:05:56Z</time>
      </trkpt>
      <trkpt lat="43.5786" lon="2.917">
        <ele>599</ele>
        <time>2014-01-18T08:05:57Z</time>
      </trkpt>
      <trkpt lat="43.57862" lon="2.91699">
        <ele>599</ele>
        <time>2014-01-18T08:05:59Z</time>
      </trkpt>
      <trkpt lat="43.57866" lon="2.91695">
        <ele>599.4</ele>
        <time>2014-01-18T08:06:05Z</time>
      </trkpt>
      <trkpt lat="43.57867" lon="2.91695">
        <ele>599.8</ele>
        <time>2014-01-18T08:06:06Z</time>
      </trkpt>
      <trkpt lat="43.57867" lon="2.91694">
        <ele>600.2</ele>
        <time>2014-01-18T08:06:07Z</time>
      </trkpt>
      <trkpt lat="43.57867" lon="2.91693">
        <ele>600.6</ele>
        <time>2014-01-18T08:06:08Z</time>
      </trkpt>
      <trkpt lat="43.57868" lon="2.91692">
        <ele>601</ele>
        <time>2014-01-18T08:06:09Z</time>
      </trkpt>
      <trkpt lat="43.57868" lon="2.91692">
        <ele>601</ele>
        <time>2014-01-18T08:06:10Z</time>
      </trkpt>
      <trkpt lat="43.57868" lon="2.91692">
        <ele>601</ele>
        <time>2014-01-18T08:06:11Z</time>
      </trkpt>
      <trkpt lat="43.5787" lon="2.9169">
        <ele>601</ele>
        <time>2014-01-18T08:06:14Z</time>
      </trkpt>
      <trkpt lat="43.57871" lon="2.91689">
        <ele>601</ele>
        <time>2014-01-18T08:06:15Z</time>
      </trkpt>
      <trkpt lat="43.57871" lon="2.91688">
        <ele>601.4</ele>
        <time>2014-01-18T08:06:16Z</time>
      </trkpt>
      <trkpt lat="43.57872" lon="2.91687">
        <ele>601.8</ele>
        <time>2014-01-18T08:06:17Z</time>
      </trkpt>
      <trkpt lat="43.57872" lon="2.91687">
        <ele>602.2</ele>
        <time>2014-01-18T08:06:18Z</time>
      </trkpt>
      <trkpt lat="43.57873" lon="2.91686">
        <ele>602.6</ele>
        <time>2014-01-18T08:06:19Z</time>
      </trkpt>
      <trkpt lat="43.57873" lon="2.91685">
        <ele>603</ele>
        <time>2014-01-18T08:06:20Z</time>
      </trkpt>
      <trkpt lat="43.57874" lon="2.91684">
        <ele>603</ele>
        <time>2014-01-18T08:06:22Z</time>
      </trkpt>
      <trkpt lat="43.57876" lon="2.91683">
        <ele>604.4</ele>
        <time>2014-01-18T08:06:27Z</time>
      </trkpt>
      <trkpt lat="43.57877" lon="2.91682">
        <ele>604.8</ele>
        <time>2014-01-18T08:06:28Z</time>
      </trkpt>
      <trkpt lat="43.57878" lon="2.91681">
        <ele>605.2</ele>
        <time>2014-01-18T08:06:29Z</time>
      </trkpt>
      <trkpt lat="43.57879" lon="2.91679">
        <ele>605.2</ele>
        <time>2014-01-18T08:06:32Z</time>
      </trkpt>
      <trkpt lat="43.57879" lon="2.91678">
        <ele>605.2</ele>
        <time>2014-01-18T08:06:33Z</time>
      </trkpt>
      <trkpt lat="43.57879" lon="2.91678">
        <ele>605.2</ele>
        <time>2014-01-18T08:06:34Z</time>
      </trkpt>
      <trkpt lat="43.5788" lon="2.91677">
        <ele>605.2</ele>
        <time>2014-01-18T08:06:35Z</time>
      </trkpt>
      <trkpt lat="43.5788" lon="2.91677">
        <ele>605.2</ele>
        <time>2014-01-18T08:06:36Z</time>
      </trkpt>
      <trkpt lat="43.57881" lon="2.91677">
        <ele>605.2</ele>
        <time>2014-01-18T08:06:37Z</time>
      </trkpt>
      <trkpt lat="43.57881" lon="2.91677">
        <ele>605.6</ele>
        <time>2014-01-18T08:06:38Z</time>
      </trkpt>
      <trkpt lat="43.57881" lon="2.91677">
        <ele>606.2</ele>
        <time>2014-01-18T08:06:39Z</time>
      </trkpt>
      <trkpt lat="43.57882" lon="2.91676">
        <ele>606.6</ele>
        <time>2014-01-18T08:06:40Z</time>
      </trkpt>
      <trkpt lat="43.57883" lon="2.91675">
        <ele>607</ele>
        <time>2014-01-18T08:06:41Z</time>
      </trkpt>
      <trkpt lat="43.57883" lon="2.91675">
        <ele>607.4</ele>
        <time>2014-01-18T08:06:42Z</time>
      </trkpt>
      <trkpt lat="43.57883" lon="2.91675">
        <ele>607.4</ele>
        <time>2014-01-18T08:06:43Z</time>
      </trkpt>
      <trkpt lat="43.57884" lon="2.91674">
        <ele>607.4</ele>
        <time>2014-01-18T08:06:44Z</time>
      </trkpt>
      <trkpt lat="43.57886" lon="2.91674">
        <ele>607.8</ele>
        <time>2014-01-18T08:06:47Z</time>
      </trkpt>
      <trkpt lat="43.57886" lon="2.91673">
        <ele>608.4</ele>
        <time>2014-01-18T08:06:48Z</time>
      </trkpt>
      <trkpt lat="43.57887" lon="2.91673">
        <ele>608.8</ele>
        <time>2014-01-18T08:06:49Z</time>
      </trkpt>
      <trkpt lat="43.57888" lon="2.91673">
        <ele>609.2</ele>
        <time>2014-01-18T08:06:50Z</time>
      </trkpt>
      <trkpt lat="43.57889" lon="2.91673">
        <ele>609.6</ele>
        <time>2014-01-18T08:06:51Z</time>
      </trkpt>
      <trkpt lat="43.57889" lon="2.91672">
        <ele>609.6</ele>
        <time>2014-01-18T08:06:52Z</time>
      </trkpt>
      <trkpt lat="43.57891" lon="2.9167">
        <ele>609.6</ele>
        <time>2014-01-18T08:06:55Z</time>
      </trkpt>
      <trkpt lat="43.57891" lon="2.91669">
        <ele>609.6</ele>
        <time>2014-01-18T08:06:56Z</time>
      </trkpt>
      <trkpt lat="43.57892" lon="2.91668">
        <ele>609.6</ele>
        <time>2014-01-18T08:06:58Z</time>
      </trkpt>
      <trkpt lat="43.57893" lon="2.91668">
        <ele>610</ele>
        <time>2014-01-18T08:06:59Z</time>
      </trkpt>
      <trkpt lat="43.57894" lon="2.91668">
        <ele>610.4</ele>
        <time>2014-01-18T08:07:00Z</time>
      </trkpt>
      <trkpt lat="43.57895" lon="2.91668">
        <ele>610.8</ele>
        <time>2014-01-18T08:07:01Z</time>
      </trkpt>
      <trkpt lat="43.57895" lon="2.91667">
        <ele>611.4</ele>
        <time>2014-01-18T08:07:02Z</time>
      </trkpt>
      <trkpt lat="43.57896" lon="2.91666">
        <ele>611.8</ele>
        <time>2014-01-18T08:07:03Z</time>
      </trkpt>
      <trkpt lat="43.57898" lon="2.91664">
        <ele>611.8</ele>
        <time>2014-01-18T08:07:05Z</time>
      </trkpt>
      <trkpt lat="43.57898" lon="2.91665">
        <ele>611.8</ele>
        <time>2014-01-18T08:07:33Z</time>
      </trkpt>
      <trkpt lat="43.57903" lon="2.91662">
        <ele>611.8</ele>
        <time>2014-01-18T08:07:36Z</time>
      </trkpt>
      <trkpt lat="43.57907" lon="2.91659">
        <ele>611.8</ele>
        <time>2014-01-18T08:07:39Z</time>
      </trkpt>
      <trkpt lat="43.5791" lon="2.91658">
        <ele>611.8</ele>
        <time>2014-01-18T08:07:41Z</time>
      </trkpt>
      <trkpt lat="43.57913" lon="2.91658">
        <ele>611.8</ele>
        <time>2014-01-18T08:07:44Z</time>
      </trkpt>
      <trkpt lat="43.57914" lon="2.91659">
        <ele>612.2</ele>
        <time>2014-01-18T08:07:45Z</time>
      </trkpt>
      <trkpt lat="43.57915" lon="2.91659">
        <ele>612.6</ele>
        <time>2014-01-18T08:07:46Z</time>
      </trkpt>
      <trkpt lat="43.57916" lon="2.9166">
        <ele>613</ele>
        <time>2014-01-18T08:07:47Z</time>
      </trkpt>
      <trkpt lat="43.57917" lon="2.91661">
        <ele>613.4</ele>
        <time>2014-01-18T08:07:48Z</time>
      </trkpt>
      <trkpt lat="43.57917" lon="2.91662">
        <ele>613.8</ele>
        <time>2014-01-18T08:07:49Z</time>
      </trkpt>
      <trkpt lat="43.57919" lon="2.91662">
        <ele>613.8</ele>
        <time>2014-01-18T08:07:53Z</time>
      </trkpt>
      <trkpt lat="43.57919" lon="2.91663">
        <ele>613.8</ele>
        <time>2014-01-18T08:07:58Z</time>
      </trkpt>
      <trkpt lat="43.57923" lon="2.91671">
        <ele>613.8</ele>
        <time>2014-01-18T08:08:03Z</time>
      </trkpt>
      <trkpt lat="43.57924" lon="2.91672">
        <ele>613.8</ele>
        <time>2014-01-18T08:08:04Z</time>
      </trkpt>
      <trkpt lat="43.57926" lon="2.91675">
        <ele>614.2</ele>
        <time>2014-01-18T08:08:06Z</time>
      </trkpt>
      <trkpt lat="43.57927" lon="2.91676">
        <ele>614.6</ele>
        <time>2014-01-18T08:08:07Z</time>
      </trkpt>
      <trkpt lat="43.57928" lon="2.91677">
        <ele>615</ele>
        <time>2014-01-18T08:08:08Z</time>
      </trkpt>
      <trkpt lat="43.5793" lon="2.91679">
        <ele>615.4</ele>
        <time>2014-01-18T08:08:09Z</time>
      </trkpt>
      <trkpt lat="43.57931" lon="2.9168">
        <ele>615.8</ele>
        <time>2014-01-18T08:08:10Z</time>
      </trkpt>
      <trkpt lat="43.57935" lon="2.91685">
        <ele>616.2</ele>
        <time>2014-01-18T08:08:14Z</time>
      </trkpt>
      <trkpt lat="43.57936" lon="2.91687">
        <ele>616.6</ele>
        <time>2014-01-18T08:08:15Z</time>
      </trkpt>
      <trkpt lat="43.57937" lon="2.91689">
        <ele>617</ele>
        <time>2014-01-18T08:08:16Z</time>
      </trkpt>
      <trkpt lat="43.57938" lon="2.9169">
        <ele>617.4</ele>
        <time>2014-01-18T08:08:17Z</time>
      </trkpt>
      <trkpt lat="43.57939" lon="2.91692">
        <ele>617.8</ele>
        <time>2014-01-18T08:08:18Z</time>
      </trkpt>
      <trkpt lat="43.57942" lon="2.91697">
        <ele>617.8</ele>
        <time>2014-01-18T08:08:22Z</time>
      </trkpt>
      <trkpt lat="43.57943" lon="2.91698">
        <ele>617.8</ele>
        <time>2014-01-18T08:08:23Z</time>
      </trkpt>
      <trkpt lat="43.57944" lon="2.91701">
        <ele>618.2</ele>
        <time>2014-01-18T08:08:25Z</time>
      </trkpt>
      <trkpt lat="43.57945" lon="2.91703">
        <ele>619</ele>
        <time>2014-01-18T08:08:26Z</time>
      </trkpt>
      <trkpt lat="43.57945" lon="2.91703">
        <ele>619.4</ele>
        <time>2014-01-18T08:08:27Z</time>
      </trkpt>
      <trkpt lat="43.57946" lon="2.91705">
        <ele>619.8</ele>
        <time>2014-01-18T08:08:28Z</time>
      </trkpt>
      <trkpt lat="43.57947" lon="2.91706">
        <ele>619.8</ele>
        <time>2014-01-18T08:08:29Z</time>
      </trkpt>
      <trkpt lat="43.57948" lon="2.91708">
        <ele>619.8</ele>
        <time>2014-01-18T08:08:31Z</time>
      </trkpt>
      <trkpt lat="43.57952" lon="2.91712">
        <ele>619.8</ele>
        <time>2014-01-18T08:08:35Z</time>
      </trkpt>
      <trkpt lat="43.57953" lon="2.91714">
        <ele>619.8</ele>
        <time>2014-01-18T08:08:37Z</time>
      </trkpt>
      <trkpt lat="43.57954" lon="2.91719">
        <ele>620.2</ele>
        <time>2014-01-18T08:08:40Z</time>
      </trkpt>
      <trkpt lat="43.57955" lon="2.9172">
        <ele>620.6</ele>
        <time>2014-01-18T08:08:41Z</time>
      </trkpt>
      <trkpt lat="43.57955" lon="2.91721">
        <ele>621</ele>
        <time>2014-01-18T08:08:42Z</time>
      </trkpt>
      <trkpt lat="43.57956" lon="2.91722">
        <ele>621.4</ele>
        <time>2014-01-18T08:08:43Z</time>
      </trkpt>
      <trkpt lat="43.57956" lon="2.91723">
        <ele>621.8</ele>
        <time>2014-01-18T08:08:44Z</time>
      </trkpt>
      <trkpt lat="43.57958" lon="2.91725">
        <ele>621.8</ele>
        <time>2014-01-18T08:08:46Z</time>
      </trkpt>
      <trkpt lat="43.57963" lon="2.9173">
        <ele>622.2</ele>
        <time>2014-01-18T08:08:52Z</time>
      </trkpt>
      <trkpt lat="43.57963" lon="2.91731">
        <ele>624</ele>
        <time>2014-01-18T08:09:01Z</time>
      </trkpt>
      <trkpt lat="43.57963" lon="2.91731">
        <ele>624</ele>
        <time>2014-01-18T08:09:02Z</time>
      </trkpt>
      <trkpt lat="43.57966" lon="2.91734">
        <ele>624</ele>
        <time>2014-01-18T08:09:05Z</time>
      </trkpt>
      <trkpt lat="43.57971" lon="2.9174">
        <ele>624.4</ele>
        <time>2014-01-18T08:09:09Z</time>
      </trkpt>
      <trkpt lat="43.57972" lon="2.91741">
        <ele>624.8</ele>
        <time>2014-01-18T08:09:10Z</time>
      </trkpt>
      <trkpt lat="43.57973" lon="2.91742">
        <ele>625.4</ele>
        <time>2014-01-18T08:09:11Z</time>
      </trkpt>
      <trkpt lat="43.57974" lon="2.91743">
        <ele>625.8</ele>
        <time>2014-01-18T08:09:12Z</time>
      </trkpt>
      <trkpt lat="43.57975" lon="2.91745">
        <ele>626.4</ele>
        <time>2014-01-18T08:09:13Z</time>
      </trkpt>
      <trkpt lat="43.57977" lon="2.91749">
        <ele>626.4</ele>
        <time>2014-01-18T08:09:17Z</time>
      </trkpt>
      <trkpt lat="43.57979" lon="2.91754">
        <ele>626.8</ele>
        <time>2014-01-18T08:09:20Z</time>
      </trkpt>
      <trkpt lat="43.57979" lon="2.91756">
        <ele>627.2</ele>
        <time>2014-01-18T08:09:21Z</time>
      </trkpt>
      <trkpt lat="43.5798" lon="2.91757">
        <ele>627.6</ele>
        <time>2014-01-18T08:09:22Z</time>
      </trkpt>
      <trkpt lat="43.5798" lon="2.91758">
        <ele>628</ele>
        <time>2014-01-18T08:09:23Z</time>
      </trkpt>
      <trkpt lat="43.57981" lon="2.91759">
        <ele>628.4</ele>
        <time>2014-01-18T08:09:24Z</time>
      </trkpt>
      <trkpt lat="43.57982" lon="2.91763">
        <ele>628.4</ele>
        <time>2014-01-18T08:09:27Z</time>
      </trkpt>
      <trkpt lat="43.57983" lon="2.91764">
        <ele>628.4</ele>
        <time>2014-01-18T08:09:28Z</time>
      </trkpt>
      <trkpt lat="43.57983" lon="2.91766">
        <ele>628.8</ele>
        <time>2014-01-18T08:09:29Z</time>
      </trkpt>
      <trkpt lat="43.57984" lon="2.91767">
        <ele>629.2</ele>
        <time>2014-01-18T08:09:30Z</time>
      </trkpt>
      <trkpt lat="43.57985" lon="2.91768">
        <ele>629.6</ele>
        <time>2014-01-18T08:09:31Z</time>
      </trkpt>
      <trkpt lat="43.57985" lon="2.9177">
        <ele>630</ele>
        <time>2014-01-18T08:09:32Z</time>
      </trkpt>
      <trkpt lat="43.57986" lon="2.91771">
        <ele>630.4</ele>
        <time>2014-01-18T08:09:33Z</time>
      </trkpt>
      <trkpt lat="43.57989" lon="2.91777">
        <ele>630.4</ele>
        <time>2014-01-18T08:09:37Z</time>
      </trkpt>
      <trkpt lat="43.5799" lon="2.9178">
        <ele>630.4</ele>
        <time>2014-01-18T08:09:39Z</time>
      </trkpt>
      <trkpt lat="43.57991" lon="2.91781">
        <ele>631.4</ele>
        <time>2014-01-18T08:09:40Z</time>
      </trkpt>
      <trkpt lat="43.57992" lon="2.91783">
        <ele>631.8</ele>
        <time>2014-01-18T08:09:41Z</time>
      </trkpt>
      <trkpt lat="43.57993" lon="2.91784">
        <ele>632.2</ele>
        <time>2014-01-18T08:09:42Z</time>
      </trkpt>
      <trkpt lat="43.57993" lon="2.91786">
        <ele>632.6</ele>
        <time>2014-01-18T08:09:43Z</time>
      </trkpt>
      <trkpt lat="43.57997" lon="2.91789">
        <ele>632.6</ele>
        <time>2014-01-18T08:09:46Z</time>
      </trkpt>
      <trkpt lat="43.58002" lon="2.9179">
        <ele>632.6</ele>
        <time>2014-01-18T08:09:51Z</time>
      </trkpt>
      <trkpt lat="43.58002" lon="2.9179">
        <ele>633</ele>
        <time>2014-01-18T08:09:52Z</time>
      </trkpt>
      <trkpt lat="43.58003" lon="2.9179">
        <ele>633.4</ele>
        <time>2014-01-18T08:09:53Z</time>
      </trkpt>
      <trkpt lat="43.58004" lon="2.91789">
        <ele>634.6</ele>
        <time>2014-01-18T08:10:52Z</time>
      </trkpt>
      <trkpt lat="43.58004" lon="2.91788">
        <ele>634.6</ele>
        <time>2014-01-18T08:10:53Z</time>
      </trkpt>
      <trkpt lat="43.58004" lon="2.91787">
        <ele>634.6</ele>
        <time>2014-01-18T08:10:54Z</time>
      </trkpt>
      <trkpt lat="43.58005" lon="2.91783">
        <ele>634.6</ele>
        <time>2014-01-18T08:10:58Z</time>
      </trkpt>
      <trkpt lat="43.58005" lon="2.91783">
        <ele>634.6</ele>
        <time>2014-01-18T08:10:59Z</time>
      </trkpt>
      <trkpt lat="43.58005" lon="2.91782">
        <ele>634.6</ele>
        <time>2014-01-18T08:11:00Z</time>
      </trkpt>
      <trkpt lat="43.58005" lon="2.91782">
        <ele>634.6</ele>
        <time>2014-01-18T08:11:01Z</time>
      </trkpt>
      <trkpt lat="43.58005" lon="2.91781">
        <ele>634.6</ele>
        <time>2014-01-18T08:11:04Z</time>
      </trkpt>
      <trkpt lat="43.58005" lon="2.91779">
        <ele>634.6</ele>
        <time>2014-01-18T08:11:06Z</time>
      </trkpt>
      <trkpt lat="43.58005" lon="2.91779">
        <ele>634.6</ele>
        <time>2014-01-18T08:11:07Z</time>
      </trkpt>
      <trkpt lat="43.58005" lon="2.91777">
        <ele>635</ele>
        <time>2014-01-18T08:11:08Z</time>
      </trkpt>
      <trkpt lat="43.58005" lon="2.91776">
        <ele>635.4</ele>
        <time>2014-01-18T08:11:09Z</time>
      </trkpt>
      <trkpt lat="43.58004" lon="2.91776">
        <ele>635.8</ele>
        <time>2014-01-18T08:11:10Z</time>
      </trkpt>
      <trkpt lat="43.58004" lon="2.91774">
        <ele>636.4</ele>
        <time>2014-01-18T08:11:11Z</time>
      </trkpt>
      <trkpt lat="43.58004" lon="2.91774">
        <ele>636.8</ele>
        <time>2014-01-18T08:11:12Z</time>
      </trkpt>
      <trkpt lat="43.58003" lon="2.91773">
        <ele>636.8</ele>
        <time>2014-01-18T08:11:14Z</time>
      </trkpt>
      <trkpt lat="43.58003" lon="2.91772">
        <ele>636.8</ele>
        <time>2014-01-18T08:11:15Z</time>
      </trkpt>
      <trkpt lat="43.58003" lon="2.91772">
        <ele>636.8</ele>
        <time>2014-01-18T08:11:16Z</time>
      </trkpt>
      <trkpt lat="43.58003" lon="2.91772">
        <ele>636.8</ele>
        <time>2014-01-18T08:13:43Z</time>
      </trkpt>
      <trkpt lat="43.58003" lon="2.91772">
        <ele>636.8</ele>
        <time>2014-01-18T08:13:44Z</time>
      </trkpt>
      <trkpt lat="43.58001" lon="2.91762">
        <ele>636.8</ele>
        <time>2014-01-18T08:13:51Z</time>
      </trkpt>
      <trkpt lat="43.57999" lon="2.91754">
        <ele>636.8</ele>
        <time>2014-01-18T08:13:57Z</time>
      </trkpt>
      <trkpt lat="43.57999" lon="2.91751">
        <ele>637.2</ele>
        <time>2014-01-18T08:13:59Z</time>
      </trkpt>
      <trkpt lat="43.57999" lon="2.9175">
        <ele>637.6</ele>
        <time>2014-01-18T08:14:00Z</time>
      </trkpt>
      <trkpt lat="43.57999" lon="2.91749">
        <ele>638</ele>
        <time>2014-01-18T08:14:01Z</time>
      </trkpt>
      <trkpt lat="43.57999" lon="2.91748">
        <ele>638.4</ele>
        <time>2014-01-18T08:14:02Z</time>
      </trkpt>
      <trkpt lat="43.57998" lon="2.91746">
        <ele>638.8</ele>
        <time>2014-01-18T08:14:03Z</time>
      </trkpt>
      <trkpt lat="43.57998" lon="2.91745">
        <ele>638.8</ele>
        <time>2014-01-18T08:14:04Z</time>
      </trkpt>
      <trkpt lat="43.57998" lon="2.91743">
        <ele>638.8</ele>
        <time>2014-01-18T08:14:06Z</time>
      </trkpt>
      <trkpt lat="43.57999" lon="2.91739">
        <ele>639.2</ele>
        <time>2014-01-18T08:14:10Z</time>
      </trkpt>
      <trkpt lat="43.57998" lon="2.91738">
        <ele>639.6</ele>
        <time>2014-01-18T08:14:11Z</time>
      </trkpt>
      <trkpt lat="43.57998" lon="2.91737">
        <ele>640.4</ele>
        <time>2014-01-18T08:14:12Z</time>
      </trkpt>
      <trkpt lat="43.57998" lon="2.91737">
        <ele>641</ele>
        <time>2014-01-18T08:14:13Z</time>
      </trkpt>
      <trkpt lat="43.57998" lon="2.91733">
        <ele>641</ele>
        <time>2014-01-18T08:14:16Z</time>
      </trkpt>
      <trkpt lat="43.57998" lon="2.91731">
        <ele>641.4</ele>
        <time>2014-01-18T08:14:18Z</time>
      </trkpt>
      <trkpt lat="43.57998" lon="2.9173">
        <ele>641.8</ele>
        <time>2014-01-18T08:14:19Z</time>
      </trkpt>
      <trkpt lat="43.57999" lon="2.91728">
        <ele>642.2</ele>
        <time>2014-01-18T08:14:20Z</time>
      </trkpt>
      <trkpt lat="43.57999" lon="2.91727">
        <ele>642.6</ele>
        <time>2014-01-18T08:14:21Z</time>
      </trkpt>
      <trkpt lat="43.57999" lon="2.91726">
        <ele>643</ele>
        <time>2014-01-18T08:14:22Z</time>
      </trkpt>
      <trkpt lat="43.57998" lon="2.91721">
        <ele>643</ele>
        <time>2014-01-18T08:14:26Z</time>
      </trkpt>
      <trkpt lat="43.57999" lon="2.91719">
        <ele>643</ele>
        <time>2014-01-18T08:14:27Z</time>
      </trkpt>
      <trkpt lat="43.57999" lon="2.91716">
        <ele>643.4</ele>
        <time>2014-01-18T08:14:29Z</time>
      </trkpt>
      <trkpt lat="43.57999" lon="2.91715">
        <ele>643.8</ele>
        <time>2014-01-18T08:14:30Z</time>
      </trkpt>
      <trkpt lat="43.57998" lon="2.91714">
        <ele>644.2</ele>
        <time>2014-01-18T08:14:31Z</time>
      </trkpt>
      <trkpt lat="43.57999" lon="2.91712">
        <ele>644.6</ele>
        <time>2014-01-18T08:14:32Z</time>
      </trkpt>
      <trkpt lat="43.57998" lon="2.91711">
        <ele>645</ele>
        <time>2014-01-18T08:14:33Z</time>
      </trkpt>
      <trkpt lat="43.57997" lon="2.91701">
        <ele>645</ele>
        <time>2014-01-18T08:14:40Z</time>
      </trkpt>
      <trkpt lat="43.57997" lon="2.91701">
        <ele>645.4</ele>
        <time>2014-01-18T08:14:41Z</time>
      </trkpt>
      <trkpt lat="43.57997" lon="2.91699">
        <ele>645.8</ele>
        <time>2014-01-18T08:14:42Z</time>
      </trkpt>
      <trkpt lat="43.57997" lon="2.91697">
        <ele>646.2</ele>
        <time>2014-01-18T08:14:43Z</time>
      </trkpt>
      <trkpt lat="43.57996" lon="2.91696">
        <ele>646.6</ele>
        <time>2014-01-18T08:14:44Z</time>
      </trkpt>
      <trkpt lat="43.57996" lon="2.91695">
        <ele>647</ele>
        <time>2014-01-18T08:14:45Z</time>
      </trkpt>
      <trkpt lat="43.57994" lon="2.91687">
        <ele>647</ele>
        <time>2014-01-18T08:14:52Z</time>
      </trkpt>
      <trkpt lat="43.57993" lon="2.91678">
        <ele>647.6</ele>
        <time>2014-01-18T08:14:59Z</time>
      </trkpt>
      <trkpt lat="43.57993" lon="2.91677">
        <ele>648</ele>
        <time>2014-01-18T08:15:00Z</time>
      </trkpt>
      <trkpt lat="43.57993" lon="2.91676">
        <ele>648.4</ele>
        <time>2014-01-18T08:15:01Z</time>
      </trkpt>
      <trkpt lat="43.57993" lon="2.91675">
        <ele>649.4</ele>
        <time>2014-01-18T08:15:02Z</time>
      </trkpt>
      <trkpt lat="43.57993" lon="2.9167">
        <ele>649.4</ele>
        <time>2014-01-18T08:15:06Z</time>
      </trkpt>
      <trkpt lat="43.57993" lon="2.91668">
        <ele>649.8</ele>
        <time>2014-01-18T08:15:08Z</time>
      </trkpt>
      <trkpt lat="43.57993" lon="2.91667">
        <ele>650.2</ele>
        <time>2014-01-18T08:15:09Z</time>
      </trkpt>
      <trkpt lat="43.57994" lon="2.91666">
        <ele>650.6</ele>
        <time>2014-01-18T08:15:10Z</time>
      </trkpt>
      <trkpt lat="43.57994" lon="2.91665">
        <ele>651.2</ele>
        <time>2014-01-18T08:15:11Z</time>
      </trkpt>
      <trkpt lat="43.57994" lon="2.91665">
        <ele>651.6</ele>
        <time>2014-01-18T08:15:12Z</time>
      </trkpt>
      <trkpt lat="43.57994" lon="2.91664">
        <ele>651.6</ele>
        <time>2014-01-18T08:15:13Z</time>
      </trkpt>
      <trkpt lat="43.57994" lon="2.91659">
        <ele>652</ele>
        <time>2014-01-18T08:15:18Z</time>
      </trkpt>
      <trkpt lat="43.57994" lon="2.91658">
        <ele>652.4</ele>
        <time>2014-01-18T08:15:19Z</time>
      </trkpt>
      <trkpt lat="43.57994" lon="2.91657">
        <ele>652.8</ele>
        <time>2014-01-18T08:15:20Z</time>
      </trkpt>
      <trkpt lat="43.57994" lon="2.91656">
        <ele>653.2</ele>
        <time>2014-01-18T08:15:21Z</time>
      </trkpt>
      <trkpt lat="43.57994" lon="2.91655">
        <ele>653.6</ele>
        <time>2014-01-18T08:15:22Z</time>
      </trkpt>
      <trkpt lat="43.57994" lon="2.91654">
        <ele>653.6</ele>
        <time>2014-01-18T08:15:23Z</time>
      </trkpt>
      <trkpt lat="43.57994" lon="2.91651">
        <ele>653.6</ele>
        <time>2014-01-18T08:15:26Z</time>
      </trkpt>
      <trkpt lat="43.57994" lon="2.9165">
        <ele>654</ele>
        <time>2014-01-18T08:15:28Z</time>
      </trkpt>
      <trkpt lat="43.57995" lon="2.91649">
        <ele>654.4</ele>
        <time>2014-01-18T08:15:29Z</time>
      </trkpt>
      <trkpt lat="43.57995" lon="2.91648">
        <ele>654.8</ele>
        <time>2014-01-18T08:15:30Z</time>
      </trkpt>
      <trkpt lat="43.57995" lon="2.91647">
        <ele>655.2</ele>
        <time>2014-01-18T08:15:31Z</time>
      </trkpt>
      <trkpt lat="43.57995" lon="2.91645">
        <ele>655.8</ele>
        <time>2014-01-18T08:15:32Z</time>
      </trkpt>
      <trkpt lat="43.57996" lon="2.91638">
        <ele>655.8</ele>
        <time>2014-01-18T08:15:39Z</time>
      </trkpt>
      <trkpt lat="43.57996" lon="2.91637">
        <ele>656.2</ele>
        <time>2014-01-18T08:15:40Z</time>
      </trkpt>
      <trkpt lat="43.57995" lon="2.91636">
        <ele>656.6</ele>
        <time>2014-01-18T08:15:41Z</time>
      </trkpt>
      <trkpt lat="43.57996" lon="2.91635">
        <ele>657</ele>
        <time>2014-01-18T08:15:42Z</time>
      </trkpt>
      <trkpt lat="43.57996" lon="2.91634">
        <ele>657.4</ele>
        <time>2014-01-18T08:15:43Z</time>
      </trkpt>
      <trkpt lat="43.57996" lon="2.91633">
        <ele>658</ele>
        <time>2014-01-18T08:15:44Z</time>
      </trkpt>
      <trkpt lat="43.57996" lon="2.91629">
        <ele>658</ele>
        <time>2014-01-18T08:15:47Z</time>
      </trkpt>
      <trkpt lat="43.57995" lon="2.91625">
        <ele>658</ele>
        <time>2014-01-18T08:15:50Z</time>
      </trkpt>
      <trkpt lat="43.57995" lon="2.91623">
        <ele>658</ele>
        <time>2014-01-18T08:15:52Z</time>
      </trkpt>
      <trkpt lat="43.57995" lon="2.9162">
        <ele>658.4</ele>
        <time>2014-01-18T08:15:54Z</time>
      </trkpt>
      <trkpt lat="43.57994" lon="2.91619">
        <ele>658.8</ele>
        <time>2014-01-18T08:15:55Z</time>
      </trkpt>
      <trkpt lat="43.57994" lon="2.91618">
        <ele>659.2</ele>
        <time>2014-01-18T08:15:56Z</time>
      </trkpt>
      <trkpt lat="43.57994" lon="2.91616">
        <ele>659.6</ele>
        <time>2014-01-18T08:15:57Z</time>
      </trkpt>
      <trkpt lat="43.57994" lon="2.91615">
        <ele>660</ele>
        <time>2014-01-18T08:15:58Z</time>
      </trkpt>
      <trkpt lat="43.57993" lon="2.91611">
        <ele>660</ele>
        <time>2014-01-18T08:16:02Z</time>
      </trkpt>
      <trkpt lat="43.57993" lon="2.91602">
        <ele>660.4</ele>
        <time>2014-01-18T08:16:08Z</time>
      </trkpt>
      <trkpt lat="43.57992" lon="2.91601">
        <ele>660.8</ele>
        <time>2014-01-18T08:16:09Z</time>
      </trkpt>
      <trkpt lat="43.57991" lon="2.91599">
        <ele>661.2</ele>
        <time>2014-01-18T08:16:10Z</time>
      </trkpt>
      <trkpt lat="43.57991" lon="2.91597">
        <ele>661.8</ele>
        <time>2014-01-18T08:16:11Z</time>
      </trkpt>
      <trkpt lat="43.57991" lon="2.91596">
        <ele>662.2</ele>
        <time>2014-01-18T08:16:12Z</time>
      </trkpt>
      <trkpt lat="43.5799" lon="2.91594">
        <ele>662.2</ele>
        <time>2014-01-18T08:16:14Z</time>
      </trkpt>
      <trkpt lat="43.57986" lon="2.91585">
        <ele>662.2</ele>
        <time>2014-01-18T08:16:20Z</time>
      </trkpt>
      <trkpt lat="43.57985" lon="2.91582">
        <ele>662.2</ele>
        <time>2014-01-18T08:16:22Z</time>
      </trkpt>
      <trkpt lat="43.57982" lon="2.91573">
        <ele>662.6</ele>
        <time>2014-01-18T08:16:30Z</time>
      </trkpt>
      <trkpt lat="43.57981" lon="2.91572">
        <ele>663</ele>
        <time>2014-01-18T08:16:31Z</time>
      </trkpt>
      <trkpt lat="43.5798" lon="2.91571">
        <ele>663.4</ele>
        <time>2014-01-18T08:16:32Z</time>
      </trkpt>
      <trkpt lat="43.5798" lon="2.91569">
        <ele>663.8</ele>
        <time>2014-01-18T08:16:33Z</time>
      </trkpt>
      <trkpt lat="43.57979" lon="2.91568">
        <ele>664.2</ele>
        <time>2014-01-18T08:16:34Z</time>
      </trkpt>
      <trkpt lat="43.57977" lon="2.91565">
        <ele>664.2</ele>
        <time>2014-01-18T08:16:37Z</time>
      </trkpt>
      <trkpt lat="43.57974" lon="2.91562">
        <ele>664.2</ele>
        <time>2014-01-18T08:16:41Z</time>
      </trkpt>
      <trkpt lat="43.57972" lon="2.91559">
        <ele>664.2</ele>
        <time>2014-01-18T08:16:44Z</time>
      </trkpt>
      <trkpt lat="43.57968" lon="2.91552">
        <ele>664.2</ele>
        <time>2014-01-18T08:16:50Z</time>
      </trkpt>
      <trkpt lat="43.57968" lon="2.91551">
        <ele>664.2</ele>
        <time>2014-01-18T08:16:51Z</time>
      </trkpt>
      <trkpt lat="43.57968" lon="2.9155">
        <ele>664.6</ele>
        <time>2014-01-18T08:16:52Z</time>
      </trkpt>
      <trkpt lat="43.57967" lon="2.91549">
        <ele>665</ele>
        <time>2014-01-18T08:16:53Z</time>
      </trkpt>
      <trkpt lat="43.57967" lon="2.91548">
        <ele>665.4</ele>
        <time>2014-01-18T08:16:54Z</time>
      </trkpt>
      <trkpt lat="43.57966" lon="2.91548">
        <ele>666</ele>
        <time>2014-01-18T08:16:55Z</time>
      </trkpt>
      <trkpt lat="43.57966" lon="2.91546">
        <ele>666.4</ele>
        <time>2014-01-18T08:16:56Z</time>
      </trkpt>
      <trkpt lat="43.57966" lon="2.91545">
        <ele>666.4</ele>
        <time>2014-01-18T08:16:57Z</time>
      </trkpt>
      <trkpt lat="43.57965" lon="2.9154">
        <ele>666.4</ele>
        <time>2014-01-18T08:17:02Z</time>
      </trkpt>
      <trkpt lat="43.57965" lon="2.91539">
        <ele>666.4</ele>
        <time>2014-01-18T08:17:03Z</time>
      </trkpt>
      <trkpt lat="43.57964" lon="2.91536">
        <ele>666.8</ele>
        <time>2014-01-18T08:17:05Z</time>
      </trkpt>
      <trkpt lat="43.57964" lon="2.91536">
        <ele>667.2</ele>
        <time>2014-01-18T08:17:06Z</time>
      </trkpt>
      <trkpt lat="43.57964" lon="2.91535">
        <ele>667.6</ele>
        <time>2014-01-18T08:17:07Z</time>
      </trkpt>
      <trkpt lat="43.57963" lon="2.91534">
        <ele>668</ele>
        <time>2014-01-18T08:17:08Z</time>
      </trkpt>
      <trkpt lat="43.57963" lon="2.91533">
        <ele>668.4</ele>
        <time>2014-01-18T08:17:09Z</time>
      </trkpt>
      <trkpt lat="43.57963" lon="2.91533">
        <ele>668.4</ele>
        <time>2014-01-18T08:17:10Z</time>
      </trkpt>
      <trkpt lat="43.57961" lon="2.91527">
        <ele>669</ele>
        <time>2014-01-18T08:17:17Z</time>
      </trkpt>
      <trkpt lat="43.5796" lon="2.91526">
        <ele>669.4</ele>
        <time>2014-01-18T08:17:18Z</time>
      </trkpt>
      <trkpt lat="43.5796" lon="2.91525">
        <ele>669.8</ele>
        <time>2014-01-18T08:17:19Z</time>
      </trkpt>
      <trkpt lat="43.5796" lon="2.91524">
        <ele>670.2</ele>
        <time>2014-01-18T08:17:20Z</time>
      </trkpt>
      <trkpt lat="43.57959" lon="2.91523">
        <ele>670.6</ele>
        <time>2014-01-18T08:17:21Z</time>
      </trkpt>
      <trkpt lat="43.57959" lon="2.9152">
        <ele>670.6</ele>
        <time>2014-01-18T08:17:24Z</time>
      </trkpt>
      <trkpt lat="43.57959" lon="2.91519">
        <ele>671</ele>
        <time>2014-01-18T08:17:25Z</time>
      </trkpt>
      <trkpt lat="43.57959" lon="2.91519">
        <ele>671.4</ele>
        <time>2014-01-18T08:17:26Z</time>
      </trkpt>
      <trkpt lat="43.57959" lon="2.91518">
        <ele>671.8</ele>
        <time>2014-01-18T08:17:27Z</time>
      </trkpt>
      <trkpt lat="43.57958" lon="2.91517">
        <ele>672.2</ele>
        <time>2014-01-18T08:17:28Z</time>
      </trkpt>
      <trkpt lat="43.57958" lon="2.91516">
        <ele>672.6</ele>
        <time>2014-01-18T08:17:29Z</time>
      </trkpt>
      <trkpt lat="43.57957" lon="2.91513">
        <ele>672.6</ele>
        <time>2014-01-18T08:17:32Z</time>
      </trkpt>
      <trkpt lat="43.57957" lon="2.9151">
        <ele>673</ele>
        <time>2014-01-18T08:17:35Z</time>
      </trkpt>
      <trkpt lat="43.57956" lon="2.91508">
        <ele>673.6</ele>
        <time>2014-01-18T08:17:36Z</time>
      </trkpt>
      <trkpt lat="43.57956" lon="2.91507">
        <ele>674</ele>
        <time>2014-01-18T08:17:37Z</time>
      </trkpt>
      <trkpt lat="43.57956" lon="2.91506">
        <ele>674.4</ele>
        <time>2014-01-18T08:17:38Z</time>
      </trkpt>
      <trkpt lat="43.57955" lon="2.91505">
        <ele>674.8</ele>
        <time>2014-01-18T08:17:39Z</time>
      </trkpt>
      <trkpt lat="43.57951" lon="2.91499">
        <ele>674.8</ele>
        <time>2014-01-18T08:17:46Z</time>
      </trkpt>
      <trkpt lat="43.57951" lon="2.91498">
        <ele>675.4</ele>
        <time>2014-01-18T08:17:47Z</time>
      </trkpt>
      <trkpt lat="43.5795" lon="2.91496">
        <ele>675.8</ele>
        <time>2014-01-18T08:17:48Z</time>
      </trkpt>
      <trkpt lat="43.5795" lon="2.91495">
        <ele>676.2</ele>
        <time>2014-01-18T08:17:49Z</time>
      </trkpt>
      <trkpt lat="43.5795" lon="2.91494">
        <ele>676.6</ele>
        <time>2014-01-18T08:17:50Z</time>
      </trkpt>
      <trkpt lat="43.57949" lon="2.91493">
        <ele>677</ele>
        <time>2014-01-18T08:17:51Z</time>
      </trkpt>
      <trkpt lat="43.57948" lon="2.91491">
        <ele>677</ele>
        <time>2014-01-18T08:17:53Z</time>
      </trkpt>
      <trkpt lat="43.57945" lon="2.91486">
        <ele>677</ele>
        <time>2014-01-18T08:17:59Z</time>
      </trkpt>
      <trkpt lat="43.57942" lon="2.91484">
        <ele>677.4</ele>
        <time>2014-01-18T08:18:02Z</time>
      </trkpt>
      <trkpt lat="43.57942" lon="2.91483">
        <ele>677.8</ele>
        <time>2014-01-18T08:18:03Z</time>
      </trkpt>
      <trkpt lat="43.57941" lon="2.91482">
        <ele>678.4</ele>
        <time>2014-01-18T08:18:04Z</time>
      </trkpt>
      <trkpt lat="43.5794" lon="2.91481">
        <ele>678.8</ele>
        <time>2014-01-18T08:18:05Z</time>
      </trkpt>
      <trkpt lat="43.5794" lon="2.91481">
        <ele>679.2</ele>
        <time>2014-01-18T08:18:06Z</time>
      </trkpt>
      <trkpt lat="43.57937" lon="2.91476">
        <ele>679.2</ele>
        <time>2014-01-18T08:18:11Z</time>
      </trkpt>
      <trkpt lat="43.57935" lon="2.91472">
        <ele>679.6</ele>
        <time>2014-01-18T08:18:15Z</time>
      </trkpt>
      <trkpt lat="43.57934" lon="2.91471">
        <ele>680</ele>
        <time>2014-01-18T08:18:16Z</time>
      </trkpt>
      <trkpt lat="43.57933" lon="2.91472">
        <ele>680.4</ele>
        <time>2014-01-18T08:18:17Z</time>
      </trkpt>
      <trkpt lat="43.57932" lon="2.91472">
        <ele>680.8</ele>
        <time>2014-01-18T08:18:18Z</time>
      </trkpt>
      <trkpt lat="43.57931" lon="2.91472">
        <ele>681.2</ele>
        <time>2014-01-18T08:18:19Z</time>
      </trkpt>
      <trkpt lat="43.5793" lon="2.91471">
        <ele>681.2</ele>
        <time>2014-01-18T08:18:20Z</time>
      </trkpt>
      <trkpt lat="43.5793" lon="2.91471">
        <ele>681.2</ele>
        <time>2014-01-18T08:18:21Z</time>
      </trkpt>
      <trkpt lat="43.57928" lon="2.91471">
        <ele>681.2</ele>
        <time>2014-01-18T08:18:22Z</time>
      </trkpt>
      <trkpt lat="43.57928" lon="2.91471">
        <ele>681.2</ele>
        <time>2014-01-18T08:18:23Z</time>
      </trkpt>
      <trkpt lat="43.57928" lon="2.91471">
        <ele>681.2</ele>
        <time>2014-01-18T08:18:24Z</time>
      </trkpt>
      <trkpt lat="43.57928" lon="2.91471">
        <ele>681.2</ele>
        <time>2014-01-18T08:18:28Z</time>
      </trkpt>
      <trkpt lat="43.57926" lon="2.91471">
        <ele>681.2</ele>
        <time>2014-01-18T08:18:30Z</time>
      </trkpt>
      <trkpt lat="43.57924" lon="2.9147">
        <ele>681.2</ele>
        <time>2014-01-18T08:18:34Z</time>
      </trkpt>
      <trkpt lat="43.57922" lon="2.9147">
        <ele>681.6</ele>
        <time>2014-01-18T08:18:36Z</time>
      </trkpt>
      <trkpt lat="43.57921" lon="2.9147">
        <ele>682</ele>
        <time>2014-01-18T08:18:37Z</time>
      </trkpt>
      <trkpt lat="43.57921" lon="2.9147">
        <ele>682.6</ele>
        <time>2014-01-18T08:18:38Z</time>
      </trkpt>
      <trkpt lat="43.5792" lon="2.91469">
        <ele>683</ele>
        <time>2014-01-18T08:18:39Z</time>
      </trkpt>
      <trkpt lat="43.57919" lon="2.91469">
        <ele>683.4</ele>
        <time>2014-01-18T08:18:40Z</time>
      </trkpt>
      <trkpt lat="43.57918" lon="2.91469">
        <ele>683.4</ele>
        <time>2014-01-18T08:18:41Z</time>
      </trkpt>
      <trkpt lat="43.57912" lon="2.91471">
        <ele>683.4</ele>
        <time>2014-01-18T08:18:44Z</time>
      </trkpt>
      <trkpt lat="43.57907" lon="2.91471">
        <ele>683.4</ele>
        <time>2014-01-18T08:18:47Z</time>
      </trkpt>
      <trkpt lat="43.579" lon="2.91474">
        <ele>683.4</ele>
        <time>2014-01-18T08:18:51Z</time>
      </trkpt>
      <trkpt lat="43.57889" lon="2.91477">
        <ele>683.4</ele>
        <time>2014-01-18T08:18:57Z</time>
      </trkpt>
      <trkpt lat="43.57878" lon="2.91481">
        <ele>683.4</ele>
        <time>2014-01-18T08:19:03Z</time>
      </trkpt>
      <trkpt lat="43.57873" lon="2.91483">
        <ele>683.8</ele>
        <time>2014-01-18T08:19:05Z</time>
      </trkpt>
      <trkpt lat="43.57871" lon="2.91484">
        <ele>684.2</ele>
        <time>2014-01-18T08:19:06Z</time>
      </trkpt>
      <trkpt lat="43.57869" lon="2.91485">
        <ele>684.6</ele>
        <time>2014-01-18T08:19:07Z</time>
      </trkpt>
      <trkpt lat="43.57867" lon="2.91485">
        <ele>685.4</ele>
        <time>2014-01-18T08:19:08Z</time>
      </trkpt>
      <trkpt lat="43.57864" lon="2.91487">
        <ele>685.4</ele>
        <time>2014-01-18T08:19:10Z</time>
      </trkpt>
      <trkpt lat="43.57856" lon="2.91492">
        <ele>685.4</ele>
        <time>2014-01-18T08:19:14Z</time>
      </trkpt>
      <trkpt lat="43.57853" lon="2.91495">
        <ele>685.4</ele>
        <time>2014-01-18T08:19:16Z</time>
      </trkpt>
      <trkpt lat="43.57838" lon="2.91506">
        <ele>685.4</ele>
        <time>2014-01-18T08:19:22Z</time>
      </trkpt>
      <trkpt lat="43.57825" lon="2.91508">
        <ele>685.4</ele>
        <time>2014-01-18T08:19:27Z</time>
      </trkpt>
      <trkpt lat="43.57817" lon="2.91507">
        <ele>685.4</ele>
        <time>2014-01-18T08:19:32Z</time>
      </trkpt>
      <trkpt lat="43.57816" lon="2.91507">
        <ele>685.8</ele>
        <time>2014-01-18T08:19:33Z</time>
      </trkpt>
      <trkpt lat="43.57814" lon="2.91507">
        <ele>686.2</ele>
        <time>2014-01-18T08:19:34Z</time>
      </trkpt>
      <trkpt lat="43.57813" lon="2.91508">
        <ele>686.6</ele>
        <time>2014-01-18T08:19:35Z</time>
      </trkpt>
      <trkpt lat="43.57812" lon="2.91508">
        <ele>687</ele>
        <time>2014-01-18T08:19:36Z</time>
      </trkpt>
      <trkpt lat="43.57811" lon="2.91507">
        <ele>687.4</ele>
        <time>2014-01-18T08:19:37Z</time>
      </trkpt>
      <trkpt lat="43.57807" lon="2.91505">
        <ele>687.8</ele>
        <time>2014-01-18T08:19:41Z</time>
      </trkpt>
      <trkpt lat="43.57805" lon="2.91505">
        <ele>688.2</ele>
        <time>2014-01-18T08:19:42Z</time>
      </trkpt>
      <trkpt lat="43.57803" lon="2.91504">
        <ele>688.6</ele>
        <time>2014-01-18T08:19:43Z</time>
      </trkpt>
      <trkpt lat="43.57802" lon="2.91503">
        <ele>689.2</ele>
        <time>2014-01-18T08:19:44Z</time>
      </trkpt>
      <trkpt lat="43.57801" lon="2.915">
        <ele>689.6</ele>
        <time>2014-01-18T08:19:45Z</time>
      </trkpt>
      <trkpt lat="43.57802" lon="2.91496">
        <ele>689.6</ele>
        <time>2014-01-18T08:19:47Z</time>
      </trkpt>
      <trkpt lat="43.57803" lon="2.91494">
        <ele>689.6</ele>
        <time>2014-01-18T08:19:48Z</time>
      </trkpt>
      <trkpt lat="43.57804" lon="2.9149">
        <ele>690</ele>
        <time>2014-01-18T08:19:50Z</time>
      </trkpt>
      <trkpt lat="43.57805" lon="2.91488">
        <ele>690.4</ele>
        <time>2014-01-18T08:19:51Z</time>
      </trkpt>
      <trkpt lat="43.57806" lon="2.91487">
        <ele>690.8</ele>
        <time>2014-01-18T08:19:52Z</time>
      </trkpt>
      <trkpt lat="43.57806" lon="2.91485">
        <ele>691.2</ele>
        <time>2014-01-18T08:19:53Z</time>
      </trkpt>
      <trkpt lat="43.57807" lon="2.91485">
        <ele>691.6</ele>
        <time>2014-01-18T08:19:54Z</time>
      </trkpt>
      <trkpt lat="43.57809" lon="2.91483">
        <ele>691.6</ele>
        <time>2014-01-18T08:19:56Z</time>
      </trkpt>
      <trkpt lat="43.57811" lon="2.9148">
        <ele>692</ele>
        <time>2014-01-18T08:19:58Z</time>
      </trkpt>
      <trkpt lat="43.57812" lon="2.91479">
        <ele>692.4</ele>
        <time>2014-01-18T08:19:59Z</time>
      </trkpt>
      <trkpt lat="43.57813" lon="2.91478">
        <ele>692.8</ele>
        <time>2014-01-18T08:20:00Z</time>
      </trkpt>
      <trkpt lat="43.57814" lon="2.91477">
        <ele>693.2</ele>
        <time>2014-01-18T08:20:01Z</time>
      </trkpt>
      <trkpt lat="43.57814" lon="2.91476">
        <ele>693.6</ele>
        <time>2014-01-18T08:20:02Z</time>
      </trkpt>
      <trkpt lat="43.57816" lon="2.91475">
        <ele>693.6</ele>
        <time>2014-01-18T08:20:04Z</time>
      </trkpt>
      <trkpt lat="43.57818" lon="2.91474">
        <ele>694</ele>
        <time>2014-01-18T08:20:06Z</time>
      </trkpt>
      <trkpt lat="43.57819" lon="2.91473">
        <ele>694.4</ele>
        <time>2014-01-18T08:20:07Z</time>
      </trkpt>
      <trkpt lat="43.57819" lon="2.91472">
        <ele>694.8</ele>
        <time>2014-01-18T08:20:08Z</time>
      </trkpt>
      <trkpt lat="43.5782" lon="2.91472">
        <ele>695.2</ele>
        <time>2014-01-18T08:20:09Z</time>
      </trkpt>
      <trkpt lat="43.57821" lon="2.91471">
        <ele>695.6</ele>
        <time>2014-01-18T08:20:10Z</time>
      </trkpt>
      <trkpt lat="43.57829" lon="2.91466">
        <ele>695.6</ele>
        <time>2014-01-18T08:20:17Z</time>
      </trkpt>
      <trkpt lat="43.5783" lon="2.91465">
        <ele>695.6</ele>
        <time>2014-01-18T08:20:18Z</time>
      </trkpt>
      <trkpt lat="43.57831" lon="2.91464">
        <ele>696</ele>
        <time>2014-01-18T08:20:20Z</time>
      </trkpt>
      <trkpt lat="43.57832" lon="2.91463">
        <ele>696.4</ele>
        <time>2014-01-18T08:20:21Z</time>
      </trkpt>
      <trkpt lat="43.57834" lon="2.91464">
        <ele>697.4</ele>
        <time>2014-01-18T08:20:22Z</time>
      </trkpt>
      <trkpt lat="43.57835" lon="2.91463">
        <ele>697.8</ele>
        <time>2014-01-18T08:20:23Z</time>
      </trkpt>
      <trkpt lat="43.57838" lon="2.9146">
        <ele>697.8</ele>
        <time>2014-01-18T08:20:29Z</time>
      </trkpt>
      <trkpt lat="43.57839" lon="2.9146">
        <ele>697.8</ele>
        <time>2014-01-18T08:20:39Z</time>
      </trkpt>
      <trkpt lat="43.5784" lon="2.91459">
        <ele>697.8</ele>
        <time>2014-01-18T08:20:40Z</time>
      </trkpt>
      <trkpt lat="43.57842" lon="2.91457">
        <ele>697.8</ele>
        <time>2014-01-18T08:20:43Z</time>
      </trkpt>
      <trkpt lat="43.57844" lon="2.91455">
        <ele>698.2</ele>
        <time>2014-01-18T08:20:46Z</time>
      </trkpt>
      <trkpt lat="43.57846" lon="2.91454">
        <ele>699</ele>
        <time>2014-01-18T08:20:47Z</time>
      </trkpt>
      <trkpt lat="43.57846" lon="2.91454">
        <ele>699.4</ele>
        <time>2014-01-18T08:20:48Z</time>
      </trkpt>
      <trkpt lat="43.57847" lon="2.91453">
        <ele>699.8</ele>
        <time>2014-01-18T08:20:49Z</time>
      </trkpt>
      <trkpt lat="43.57848" lon="2.91452">
        <ele>699.8</ele>
        <time>2014-01-18T08:20:50Z</time>
      </trkpt>
      <trkpt lat="43.57855" lon="2.91446">
        <ele>700.2</ele>
        <time>2014-01-18T08:20:58Z</time>
      </trkpt>
      <trkpt lat="43.57856" lon="2.91446">
        <ele>700.6</ele>
        <time>2014-01-18T08:20:59Z</time>
      </trkpt>
      <trkpt lat="43.57857" lon="2.91445">
        <ele>701.2</ele>
        <time>2014-01-18T08:21:00Z</time>
      </trkpt>
      <trkpt lat="43.57857" lon="2.91444">
        <ele>701.6</ele>
        <time>2014-01-18T08:21:01Z</time>
      </trkpt>
      <trkpt lat="43.57858" lon="2.91443">
        <ele>702.2</ele>
        <time>2014-01-18T08:21:02Z</time>
      </trkpt>
      <trkpt lat="43.57861" lon="2.91441">
        <ele>702.2</ele>
        <time>2014-01-18T08:21:05Z</time>
      </trkpt>
      <trkpt lat="43.57868" lon="2.91435">
        <ele>702.2</ele>
        <time>2014-01-18T08:21:12Z</time>
      </trkpt>
      <trkpt lat="43.57872" lon="2.91432">
        <ele>702.2</ele>
        <time>2014-01-18T08:21:16Z</time>
      </trkpt>
      <trkpt lat="43.57875" lon="2.9143">
        <ele>702.2</ele>
        <time>2014-01-18T08:21:19Z</time>
      </trkpt>
      <trkpt lat="43.5788" lon="2.91427">
        <ele>702.2</ele>
        <time>2014-01-18T08:21:24Z</time>
      </trkpt>
      <trkpt lat="43.57881" lon="2.91426">
        <ele>702.2</ele>
        <time>2014-01-18T08:21:25Z</time>
      </trkpt>
      <trkpt lat="43.57884" lon="2.91423">
        <ele>702.2</ele>
        <time>2014-01-18T08:21:29Z</time>
      </trkpt>
      <trkpt lat="43.57887" lon="2.91422">
        <ele>702.2</ele>
        <time>2014-01-18T08:21:32Z</time>
      </trkpt>
      <trkpt lat="43.57887" lon="2.91422">
        <ele>702.2</ele>
        <time>2014-01-18T08:21:33Z</time>
      </trkpt>
      <trkpt lat="43.57887" lon="2.91421">
        <ele>702.2</ele>
        <time>2014-01-18T08:21:34Z</time>
      </trkpt>
      <trkpt lat="43.5789" lon="2.91418">
        <ele>702.2</ele>
        <time>2014-01-18T08:21:38Z</time>
      </trkpt>
      <trkpt lat="43.57891" lon="2.91419">
        <ele>702.2</ele>
        <time>2014-01-18T08:21:39Z</time>
      </trkpt>
      <trkpt lat="43.57892" lon="2.91418">
        <ele>702.2</ele>
        <time>2014-01-18T08:21:40Z</time>
      </trkpt>
      <trkpt lat="43.57893" lon="2.91418">
        <ele>702.6</ele>
        <time>2014-01-18T08:21:41Z</time>
      </trkpt>
      <trkpt lat="43.57893" lon="2.91417">
        <ele>703</ele>
        <time>2014-01-18T08:21:42Z</time>
      </trkpt>
      <trkpt lat="43.57894" lon="2.91416">
        <ele>703.4</ele>
        <time>2014-01-18T08:21:43Z</time>
      </trkpt>
      <trkpt lat="43.57895" lon="2.91415">
        <ele>703.8</ele>
        <time>2014-01-18T08:21:44Z</time>
      </trkpt>
      <trkpt lat="43.57896" lon="2.91414">
        <ele>704.2</ele>
        <time>2014-01-18T08:21:45Z</time>
      </trkpt>
      <trkpt lat="43.57897" lon="2.91414">
        <ele>704.2</ele>
        <time>2014-01-18T08:21:46Z</time>
      </trkpt>
      <trkpt lat="43.57901" lon="2.9141">
        <ele>704.2</ele>
        <time>2014-01-18T08:21:52Z</time>
      </trkpt>
      <trkpt lat="43.57902" lon="2.91409">
        <ele>704.8</ele>
        <time>2014-01-18T08:21:53Z</time>
      </trkpt>
      <trkpt lat="43.57902" lon="2.91408">
        <ele>705.2</ele>
        <time>2014-01-18T08:21:54Z</time>
      </trkpt>
      <trkpt lat="43.57903" lon="2.91407">
        <ele>705.6</ele>
        <time>2014-01-18T08:21:55Z</time>
      </trkpt>
      <trkpt lat="43.57904" lon="2.91406">
        <ele>706</ele>
        <time>2014-01-18T08:21:56Z</time>
      </trkpt>
      <trkpt lat="43.57904" lon="2.91405">
        <ele>706.4</ele>
        <time>2014-01-18T08:21:57Z</time>
      </trkpt>
      <trkpt lat="43.57905" lon="2.91404">
        <ele>706.4</ele>
        <time>2014-01-18T08:21:59Z</time>
      </trkpt>
      <trkpt lat="43.57911" lon="2.91401">
        <ele>706.8</ele>
        <time>2014-01-18T08:22:06Z</time>
      </trkpt>
      <trkpt lat="43.57911" lon="2.914">
        <ele>707.2</ele>
        <time>2014-01-18T08:22:07Z</time>
      </trkpt>
      <trkpt lat="43.57912" lon="2.91399">
        <ele>707.6</ele>
        <time>2014-01-18T08:22:08Z</time>
      </trkpt>
      <trkpt lat="43.57913" lon="2.91399">
        <ele>708</ele>
        <time>2014-01-18T08:22:09Z</time>
      </trkpt>
      <trkpt lat="43.57914" lon="2.91398">
        <ele>708.4</ele>
        <time>2014-01-18T08:22:10Z</time>
      </trkpt>
      <trkpt lat="43.57915" lon="2.91396">
        <ele>708.4</ele>
        <time>2014-01-18T08:22:14Z</time>
      </trkpt>
      <trkpt lat="43.57916" lon="2.91394">
        <ele>708.4</ele>
        <time>2014-01-18T08:22:18Z</time>
      </trkpt>
      <trkpt lat="43.57917" lon="2.91393">
        <ele>708.8</ele>
        <time>2014-01-18T08:22:19Z</time>
      </trkpt>
      <trkpt lat="43.57918" lon="2.91392">
        <ele>709.2</ele>
        <time>2014-01-18T08:22:20Z</time>
      </trkpt>
      <trkpt lat="43.57919" lon="2.91392">
        <ele>709.6</ele>
        <time>2014-01-18T08:22:21Z</time>
      </trkpt>
      <trkpt lat="43.57919" lon="2.91392">
        <ele>710</ele>
        <time>2014-01-18T08:22:22Z</time>
      </trkpt>
      <trkpt lat="43.5792" lon="2.91391">
        <ele>710.4</ele>
        <time>2014-01-18T08:22:23Z</time>
      </trkpt>
      <trkpt lat="43.57923" lon="2.9139">
        <ele>710.4</ele>
        <time>2014-01-18T08:22:27Z</time>
      </trkpt>
      <trkpt lat="43.57924" lon="2.9139">
        <ele>710.8</ele>
        <time>2014-01-18T08:22:28Z</time>
      </trkpt>
      <trkpt lat="43.57923" lon="2.91389">
        <ele>711.2</ele>
        <time>2014-01-18T08:22:29Z</time>
      </trkpt>
      <trkpt lat="43.57924" lon="2.91389">
        <ele>711.6</ele>
        <time>2014-01-18T08:22:30Z</time>
      </trkpt>
      <trkpt lat="43.57925" lon="2.91388">
        <ele>712</ele>
        <time>2014-01-18T08:22:31Z</time>
      </trkpt>
      <trkpt lat="43.57925" lon="2.91388">
        <ele>712.4</ele>
        <time>2014-01-18T08:22:32Z</time>
      </trkpt>
      <trkpt lat="43.57928" lon="2.91385">
        <ele>713</ele>
        <time>2014-01-18T08:22:36Z</time>
      </trkpt>
      <trkpt lat="43.57929" lon="2.91385">
        <ele>713.4</ele>
        <time>2014-01-18T08:22:37Z</time>
      </trkpt>
      <trkpt lat="43.5793" lon="2.91385">
        <ele>713.8</ele>
        <time>2014-01-18T08:22:38Z</time>
      </trkpt>
      <trkpt lat="43.57931" lon="2.91384">
        <ele>714.2</ele>
        <time>2014-01-18T08:22:39Z</time>
      </trkpt>
      <trkpt lat="43.57931" lon="2.91384">
        <ele>714.8</ele>
        <time>2014-01-18T08:22:40Z</time>
      </trkpt>
      <trkpt lat="43.57932" lon="2.91382">
        <ele>714.8</ele>
        <time>2014-01-18T08:22:43Z</time>
      </trkpt>
      <trkpt lat="43.57936" lon="2.91377">
        <ele>714.8</ele>
        <time>2014-01-18T08:22:50Z</time>
      </trkpt>
      <trkpt lat="43.57937" lon="2.91376">
        <ele>715.2</ele>
        <time>2014-01-18T08:22:52Z</time>
      </trkpt>
      <trkpt lat="43.57938" lon="2.91376">
        <ele>715.6</ele>
        <time>2014-01-18T08:22:53Z</time>
      </trkpt>
      <trkpt lat="43.57937" lon="2.91376">
        <ele>716</ele>
        <time>2014-01-18T08:22:54Z</time>
      </trkpt>
      <trkpt lat="43.57938" lon="2.91376">
        <ele>716.4</ele>
        <time>2014-01-18T08:22:55Z</time>
      </trkpt>
      <trkpt lat="43.57938" lon="2.91376">
        <ele>716.8</ele>
        <time>2014-01-18T08:22:56Z</time>
      </trkpt>
      <trkpt lat="43.57939" lon="2.91375">
        <ele>716.8</ele>
        <time>2014-01-18T08:22:57Z</time>
      </trkpt>
      <trkpt lat="43.57942" lon="2.91372">
        <ele>716.8</ele>
        <time>2014-01-18T08:23:01Z</time>
      </trkpt>
      <trkpt lat="43.57943" lon="2.91372">
        <ele>717.2</ele>
        <time>2014-01-18T08:23:03Z</time>
      </trkpt>
      <trkpt lat="43.57943" lon="2.91372">
        <ele>717.6</ele>
        <time>2014-01-18T08:23:04Z</time>
      </trkpt>
      <trkpt lat="43.57944" lon="2.91371">
        <ele>718.2</ele>
        <time>2014-01-18T08:23:05Z</time>
      </trkpt>
      <trkpt lat="43.57945" lon="2.91371">
        <ele>718.6</ele>
        <time>2014-01-18T08:23:06Z</time>
      </trkpt>
      <trkpt lat="43.57945" lon="2.9137">
        <ele>719</ele>
        <time>2014-01-18T08:23:07Z</time>
      </trkpt>
      <trkpt lat="43.57947" lon="2.91369">
        <ele>719</ele>
        <time>2014-01-18T08:23:10Z</time>
      </trkpt>
      <trkpt lat="43.57947" lon="2.91368">
        <ele>719.4</ele>
        <time>2014-01-18T08:23:11Z</time>
      </trkpt>
      <trkpt lat="43.57948" lon="2.91369">
        <ele>719.8</ele>
        <time>2014-01-18T08:23:12Z</time>
      </trkpt>
      <trkpt lat="43.57948" lon="2.91368">
        <ele>720.2</ele>
        <time>2014-01-18T08:23:13Z</time>
      </trkpt>
      <trkpt lat="43.57949" lon="2.91368">
        <ele>721.2</ele>
        <time>2014-01-18T08:23:17Z</time>
      </trkpt>
      <trkpt lat="43.57949" lon="2.91368">
        <ele>721.2</ele>
        <time>2014-01-18T08:23:18Z</time>
      </trkpt>
      <trkpt lat="43.5795" lon="2.91367">
        <ele>721.2</ele>
        <time>2014-01-18T08:23:19Z</time>
      </trkpt>
      <trkpt lat="43.57953" lon="2.91365">
        <ele>721.6</ele>
        <time>2014-01-18T08:23:23Z</time>
      </trkpt>
      <trkpt lat="43.57953" lon="2.91365">
        <ele>722</ele>
        <time>2014-01-18T08:23:24Z</time>
      </trkpt>
      <trkpt lat="43.57954" lon="2.91365">
        <ele>722.4</ele>
        <time>2014-01-18T08:23:25Z</time>
      </trkpt>
      <trkpt lat="43.57955" lon="2.91364">
        <ele>722.8</ele>
        <time>2014-01-18T08:23:26Z</time>
      </trkpt>
      <trkpt lat="43.57955" lon="2.91365">
        <ele>723.2</ele>
        <time>2014-01-18T08:23:27Z</time>
      </trkpt>
      <trkpt lat="43.57957" lon="2.91361">
        <ele>723.2</ele>
        <time>2014-01-18T08:23:30Z</time>
      </trkpt>
      <trkpt lat="43.57957" lon="2.9136">
        <ele>723.2</ele>
        <time>2014-01-18T08:23:31Z</time>
      </trkpt>
      <trkpt lat="43.57957" lon="2.9136">
        <ele>723.2</ele>
        <time>2014-01-18T08:23:32Z</time>
      </trkpt>
      <trkpt lat="43.57958" lon="2.91359">
        <ele>723.6</ele>
        <time>2014-01-18T08:23:34Z</time>
      </trkpt>
      <trkpt lat="43.57958" lon="2.91359">
        <ele>724</ele>
        <time>2014-01-18T08:23:35Z</time>
      </trkpt>
      <trkpt lat="43.57959" lon="2.91358">
        <ele>724.4</ele>
        <time>2014-01-18T08:23:36Z</time>
      </trkpt>
      <trkpt lat="43.5796" lon="2.91358">
        <ele>724.8</ele>
        <time>2014-01-18T08:23:37Z</time>
      </trkpt>
      <trkpt lat="43.5796" lon="2.91358">
        <ele>725.2</ele>
        <time>2014-01-18T08:23:38Z</time>
      </trkpt>
      <trkpt lat="43.57963" lon="2.91354">
        <ele>725.2</ele>
        <time>2014-01-18T08:23:43Z</time>
      </trkpt>
      <trkpt lat="43.57963" lon="2.91354">
        <ele>725.2</ele>
        <time>2014-01-18T08:23:44Z</time>
      </trkpt>
      <trkpt lat="43.57963" lon="2.91354">
        <ele>725.2</ele>
        <time>2014-01-18T08:23:45Z</time>
      </trkpt>
      <trkpt lat="43.57964" lon="2.91354">
        <ele>725.2</ele>
        <time>2014-01-18T08:24:16Z</time>
      </trkpt>
      <trkpt lat="43.57965" lon="2.91354">
        <ele>725.2</ele>
        <time>2014-01-18T08:24:17Z</time>
      </trkpt>
      <trkpt lat="43.57967" lon="2.91354">
        <ele>725.2</ele>
        <time>2014-01-18T08:24:19Z</time>
      </trkpt>
      <trkpt lat="43.57973" lon="2.91355">
        <ele>725.2</ele>
        <time>2014-01-18T08:24:24Z</time>
      </trkpt>
      <trkpt lat="43.57974" lon="2.91356">
        <ele>725.6</ele>
        <time>2014-01-18T08:24:25Z</time>
      </trkpt>
      <trkpt lat="43.57975" lon="2.91356">
        <ele>726</ele>
        <time>2014-01-18T08:24:26Z</time>
      </trkpt>
      <trkpt lat="43.57976" lon="2.91357">
        <ele>726.4</ele>
        <time>2014-01-18T08:24:27Z</time>
      </trkpt>
      <trkpt lat="43.57977" lon="2.91357">
        <ele>726.8</ele>
        <time>2014-01-18T08:24:28Z</time>
      </trkpt>
      <trkpt lat="43.57978" lon="2.91357">
        <ele>727.2</ele>
        <time>2014-01-18T08:24:29Z</time>
      </trkpt>
      <trkpt lat="43.57981" lon="2.91358">
        <ele>727.2</ele>
        <time>2014-01-18T08:24:33Z</time>
      </trkpt>
      <trkpt lat="43.57983" lon="2.9136">
        <ele>727.6</ele>
        <time>2014-01-18T08:24:36Z</time>
      </trkpt>
      <trkpt lat="43.57984" lon="2.9136">
        <ele>728.2</ele>
        <time>2014-01-18T08:24:37Z</time>
      </trkpt>
      <trkpt lat="43.57985" lon="2.9136">
        <ele>728.6</ele>
        <time>2014-01-18T08:24:38Z</time>
      </trkpt>
      <trkpt lat="43.57986" lon="2.91361">
        <ele>729</ele>
        <time>2014-01-18T08:24:39Z</time>
      </trkpt>
      <trkpt lat="43.57986" lon="2.91361">
        <ele>729.4</ele>
        <time>2014-01-18T08:24:40Z</time>
      </trkpt>
      <trkpt lat="43.57988" lon="2.91362">
        <ele>729.4</ele>
        <time>2014-01-18T08:24:42Z</time>
      </trkpt>
      <trkpt lat="43.57992" lon="2.91364">
        <ele>729.4</ele>
        <time>2014-01-18T08:24:46Z</time>
      </trkpt>
      <trkpt lat="43.57996" lon="2.91366">
        <ele>729.8</ele>
        <time>2014-01-18T08:24:51Z</time>
      </trkpt>
      <trkpt lat="43.57997" lon="2.91367">
        <ele>730.2</ele>
        <time>2014-01-18T08:24:52Z</time>
      </trkpt>
      <trkpt lat="43.57997" lon="2.91367">
        <ele>730.8</ele>
        <time>2014-01-18T08:24:53Z</time>
      </trkpt>
      <trkpt lat="43.57998" lon="2.91368">
        <ele>731.2</ele>
        <time>2014-01-18T08:24:54Z</time>
      </trkpt>
      <trkpt lat="43.57999" lon="2.91368">
        <ele>731.6</ele>
        <time>2014-01-18T08:24:55Z</time>
      </trkpt>
      <trkpt lat="43.58001" lon="2.91368">
        <ele>731.6</ele>
        <time>2014-01-18T08:24:57Z</time>
      </trkpt>
      <trkpt lat="43.58002" lon="2.91368">
        <ele>731.6</ele>
        <time>2014-01-18T08:24:59Z</time>
      </trkpt>
      <trkpt lat="43.58006" lon="2.91369">
        <ele>732</ele>
        <time>2014-01-18T08:25:04Z</time>
      </trkpt>
      <trkpt lat="43.58007" lon="2.91369">
        <ele>732.4</ele>
        <time>2014-01-18T08:25:05Z</time>
      </trkpt>
      <trkpt lat="43.58008" lon="2.91369">
        <ele>732.8</ele>
        <time>2014-01-18T08:25:06Z</time>
      </trkpt>
      <trkpt lat="43.58008" lon="2.91368">
        <ele>733.2</ele>
        <time>2014-01-18T08:25:07Z</time>
      </trkpt>
      <trkpt lat="43.58009" lon="2.91368">
        <ele>733.6</ele>
        <time>2014-01-18T08:25:08Z</time>
      </trkpt>
      <trkpt lat="43.5801" lon="2.91363">
        <ele>733.6</ele>
        <time>2014-01-18T08:25:12Z</time>
      </trkpt>
      <trkpt lat="43.58012" lon="2.91358">
        <ele>734.2</ele>
        <time>2014-01-18T08:25:16Z</time>
      </trkpt>
      <trkpt lat="43.58012" lon="2.91358">
        <ele>734.6</ele>
        <time>2014-01-18T08:25:17Z</time>
      </trkpt>
      <trkpt lat="43.58011" lon="2.91357">
        <ele>735</ele>
        <time>2014-01-18T08:25:18Z</time>
      </trkpt>
      <trkpt lat="43.5801" lon="2.91356">
        <ele>735.4</ele>
        <time>2014-01-18T08:25:19Z</time>
      </trkpt>
      <trkpt lat="43.5801" lon="2.91354">
        <ele>735.8</ele>
        <time>2014-01-18T08:25:20Z</time>
      </trkpt>
      <trkpt lat="43.5801" lon="2.91354">
        <ele>735.8</ele>
        <time>2014-01-18T08:25:21Z</time>
      </trkpt>
      <trkpt lat="43.5801" lon="2.91353">
        <ele>735.8</ele>
        <time>2014-01-18T08:25:22Z</time>
      </trkpt>
      <trkpt lat="43.5801" lon="2.91351">
        <ele>735.8</ele>
        <time>2014-01-18T08:25:23Z</time>
      </trkpt>
      <trkpt lat="43.58008" lon="2.91349">
        <ele>736.2</ele>
        <time>2014-01-18T08:25:26Z</time>
      </trkpt>
      <trkpt lat="43.58008" lon="2.91348">
        <ele>736.6</ele>
        <time>2014-01-18T08:25:27Z</time>
      </trkpt>
      <trkpt lat="43.58007" lon="2.91347">
        <ele>737</ele>
        <time>2014-01-18T08:25:28Z</time>
      </trkpt>
      <trkpt lat="43.58006" lon="2.91345">
        <ele>737.4</ele>
        <time>2014-01-18T08:25:29Z</time>
      </trkpt>
      <trkpt lat="43.58005" lon="2.91345">
        <ele>737.8</ele>
        <time>2014-01-18T08:25:30Z</time>
      </trkpt>
      <trkpt lat="43.58005" lon="2.91342">
        <ele>737.8</ele>
        <time>2014-01-18T08:25:32Z</time>
      </trkpt>
      <trkpt lat="43.58004" lon="2.9134">
        <ele>737.8</ele>
        <time>2014-01-18T08:25:34Z</time>
      </trkpt>
      <trkpt lat="43.58001" lon="2.91336">
        <ele>738.2</ele>
        <time>2014-01-18T08:25:39Z</time>
      </trkpt>
      <trkpt lat="43.58001" lon="2.91335">
        <ele>738.8</ele>
        <time>2014-01-18T08:25:40Z</time>
      </trkpt>
      <trkpt lat="43.58" lon="2.91334">
        <ele>739.2</ele>
        <time>2014-01-18T08:25:41Z</time>
      </trkpt>
      <trkpt lat="43.57999" lon="2.91333">
        <ele>739.6</ele>
        <time>2014-01-18T08:25:42Z</time>
      </trkpt>
      <trkpt lat="43.57998" lon="2.91332">
        <ele>740</ele>
        <time>2014-01-18T08:25:43Z</time>
      </trkpt>
      <trkpt lat="43.57995" lon="2.91328">
        <ele>740</ele>
        <time>2014-01-18T08:25:47Z</time>
      </trkpt>
      <trkpt lat="43.57991" lon="2.91323">
        <ele>740</ele>
        <time>2014-01-18T08:25:53Z</time>
      </trkpt>
      <trkpt lat="43.57986" lon="2.91316">
        <ele>740</ele>
        <time>2014-01-18T08:26:00Z</time>
      </trkpt>
      <trkpt lat="43.57985" lon="2.91315">
        <ele>740</ele>
        <time>2014-01-18T08:26:01Z</time>
      </trkpt>
      <trkpt lat="43.57984" lon="2.91313">
        <ele>740</ele>
        <time>2014-01-18T08:26:03Z</time>
      </trkpt>
      <trkpt lat="43.57983" lon="2.9131">
        <ele>740</ele>
        <time>2014-01-18T08:26:06Z</time>
      </trkpt>
      <trkpt lat="43.57982" lon="2.91308">
        <ele>740</ele>
        <time>2014-01-18T08:26:08Z</time>
      </trkpt>
      <trkpt lat="43.57981" lon="2.91307">
        <ele>740.8</ele>
        <time>2014-01-18T08:26:09Z</time>
      </trkpt>
      <trkpt lat="43.5798" lon="2.91306">
        <ele>741.4</ele>
        <time>2014-01-18T08:26:10Z</time>
      </trkpt>
      <trkpt lat="43.5798" lon="2.91305">
        <ele>741.8</ele>
        <time>2014-01-18T08:26:11Z</time>
      </trkpt>
      <trkpt lat="43.5798" lon="2.91304">
        <ele>742.2</ele>
        <time>2014-01-18T08:26:12Z</time>
      </trkpt>
      <trkpt lat="43.57979" lon="2.91302">
        <ele>742.2</ele>
        <time>2014-01-18T08:26:14Z</time>
      </trkpt>
      <trkpt lat="43.57976" lon="2.91298">
        <ele>742.6</ele>
        <time>2014-01-18T08:26:19Z</time>
      </trkpt>
      <trkpt lat="43.57976" lon="2.91296">
        <ele>743</ele>
        <time>2014-01-18T08:26:20Z</time>
      </trkpt>
      <trkpt lat="43.57976" lon="2.91295">
        <ele>743.4</ele>
        <time>2014-01-18T08:26:21Z</time>
      </trkpt>
      <trkpt lat="43.57975" lon="2.91294">
        <ele>743.8</ele>
        <time>2014-01-18T08:26:22Z</time>
      </trkpt>
      <trkpt lat="43.57975" lon="2.91293">
        <ele>744.2</ele>
        <time>2014-01-18T08:26:23Z</time>
      </trkpt>
      <trkpt lat="43.57974" lon="2.91288">
        <ele>744.6</ele>
        <time>2014-01-18T08:26:28Z</time>
      </trkpt>
      <trkpt lat="43.57973" lon="2.91288">
        <ele>745</ele>
        <time>2014-01-18T08:26:29Z</time>
      </trkpt>
      <trkpt lat="43.57973" lon="2.91286">
        <ele>745.4</ele>
        <time>2014-01-18T08:26:30Z</time>
      </trkpt>
      <trkpt lat="43.57973" lon="2.91285">
        <ele>745.8</ele>
        <time>2014-01-18T08:26:31Z</time>
      </trkpt>
      <trkpt lat="43.57973" lon="2.91283">
        <ele>746.2</ele>
        <time>2014-01-18T08:26:32Z</time>
      </trkpt>
      <trkpt lat="43.57973" lon="2.91279">
        <ele>746.2</ele>
        <time>2014-01-18T08:26:36Z</time>
      </trkpt>
      <trkpt lat="43.57973" lon="2.91277">
        <ele>746.6</ele>
        <time>2014-01-18T08:26:38Z</time>
      </trkpt>
      <trkpt lat="43.57973" lon="2.91275">
        <ele>747</ele>
        <time>2014-01-18T08:26:39Z</time>
      </trkpt>
      <trkpt lat="43.57973" lon="2.91275">
        <ele>747.4</ele>
        <time>2014-01-18T08:26:40Z</time>
      </trkpt>
      <trkpt lat="43.57974" lon="2.91274">
        <ele>747.8</ele>
        <time>2014-01-18T08:26:41Z</time>
      </trkpt>
      <trkpt lat="43.57975" lon="2.91273">
        <ele>748.2</ele>
        <time>2014-01-18T08:26:42Z</time>
      </trkpt>
      <trkpt lat="43.5798" lon="2.91269">
        <ele>748.2</ele>
        <time>2014-01-18T08:26:50Z</time>
      </trkpt>
      <trkpt lat="43.5798" lon="2.91268">
        <ele>748.6</ele>
        <time>2014-01-18T08:26:51Z</time>
      </trkpt>
      <trkpt lat="43.57981" lon="2.91268">
        <ele>749</ele>
        <time>2014-01-18T08:26:52Z</time>
      </trkpt>
      <trkpt lat="43.57982" lon="2.91267">
        <ele>749.6</ele>
        <time>2014-01-18T08:26:53Z</time>
      </trkpt>
      <trkpt lat="43.57983" lon="2.91267">
        <ele>750</ele>
        <time>2014-01-18T08:26:54Z</time>
      </trkpt>
      <trkpt lat="43.57982" lon="2.91267">
        <ele>750.4</ele>
        <time>2014-01-18T08:26:55Z</time>
      </trkpt>
      <trkpt lat="43.57983" lon="2.91266">
        <ele>750.4</ele>
        <time>2014-01-18T08:26:57Z</time>
      </trkpt>
      <trkpt lat="43.57988" lon="2.91263">
        <ele>750.4</ele>
        <time>2014-01-18T08:27:05Z</time>
      </trkpt>
      <trkpt lat="43.57988" lon="2.91263">
        <ele>750.4</ele>
        <time>2014-01-18T08:27:06Z</time>
      </trkpt>
      <trkpt lat="43.57989" lon="2.91262">
        <ele>750.4</ele>
        <time>2014-01-18T08:27:07Z</time>
      </trkpt>
      <trkpt lat="43.5799" lon="2.91261">
        <ele>750.8</ele>
        <time>2014-01-18T08:27:09Z</time>
      </trkpt>
      <trkpt lat="43.57991" lon="2.91261">
        <ele>751.2</ele>
        <time>2014-01-18T08:27:10Z</time>
      </trkpt>
      <trkpt lat="43.57991" lon="2.91261">
        <ele>751.6</ele>
        <time>2014-01-18T08:27:11Z</time>
      </trkpt>
      <trkpt lat="43.57992" lon="2.91261">
        <ele>752</ele>
        <time>2014-01-18T08:27:12Z</time>
      </trkpt>
      <trkpt lat="43.57993" lon="2.9126">
        <ele>752.4</ele>
        <time>2014-01-18T08:27:14Z</time>
      </trkpt>
      <trkpt lat="43.57996" lon="2.91258">
        <ele>752.4</ele>
        <time>2014-01-18T08:27:18Z</time>
      </trkpt>
      <trkpt lat="43.57999" lon="2.91256">
        <ele>753.2</ele>
        <time>2014-01-18T08:27:23Z</time>
      </trkpt>
      <trkpt lat="43.58" lon="2.91256">
        <ele>753.6</ele>
        <time>2014-01-18T08:27:24Z</time>
      </trkpt>
      <trkpt lat="43.58001" lon="2.91256">
        <ele>754</ele>
        <time>2014-01-18T08:27:25Z</time>
      </trkpt>
      <trkpt lat="43.58002" lon="2.91256">
        <ele>754.4</ele>
        <time>2014-01-18T08:27:26Z</time>
      </trkpt>
      <trkpt lat="43.58002" lon="2.91255">
        <ele>754.4</ele>
        <time>2014-01-18T08:27:27Z</time>
      </trkpt>
      <trkpt lat="43.58002" lon="2.91256">
        <ele>754.4</ele>
        <time>2014-01-18T08:27:28Z</time>
      </trkpt>
      <trkpt lat="43.58004" lon="2.91255">
        <ele>754.4</ele>
        <time>2014-01-18T08:27:29Z</time>
      </trkpt>
      <trkpt lat="43.58006" lon="2.91254">
        <ele>754.4</ele>
        <time>2014-01-18T08:27:32Z</time>
      </trkpt>
      <trkpt lat="43.58007" lon="2.91254">
        <ele>754.8</ele>
        <time>2014-01-18T08:27:33Z</time>
      </trkpt>
      <trkpt lat="43.58008" lon="2.91254">
        <ele>755.2</ele>
        <time>2014-01-18T08:27:34Z</time>
      </trkpt>
      <trkpt lat="43.58009" lon="2.91254">
        <ele>755.6</ele>
        <time>2014-01-18T08:27:35Z</time>
      </trkpt>
      <trkpt lat="43.5801" lon="2.91254">
        <ele>756</ele>
        <time>2014-01-18T08:27:36Z</time>
      </trkpt>
      <trkpt lat="43.58011" lon="2.91254">
        <ele>756.4</ele>
        <time>2014-01-18T08:27:37Z</time>
      </trkpt>
      <trkpt lat="43.58013" lon="2.91253">
        <ele>756.4</ele>
        <time>2014-01-18T08:27:40Z</time>
      </trkpt>
      <trkpt lat="43.58015" lon="2.91252">
        <ele>756.4</ele>
        <time>2014-01-18T08:27:45Z</time>
      </trkpt>
      <trkpt lat="43.58015" lon="2.91252">
        <ele>758.6</ele>
        <time>2014-01-18T08:29:33Z</time>
      </trkpt>
      <trkpt lat="43.58015" lon="2.91252">
        <ele>758.6</ele>
        <time>2014-01-18T08:29:34Z</time>
      </trkpt>
      <trkpt lat="43.58015" lon="2.91252">
        <ele>758.6</ele>
        <time>2014-01-18T08:30:50Z</time>
      </trkpt>
      <trkpt lat="43.58016" lon="2.91252">
        <ele>758.6</ele>
        <time>2014-01-18T08:30:53Z</time>
      </trkpt>
      <trkpt lat="43.58017" lon="2.91251">
        <ele>758.6</ele>
        <time>2014-01-18T08:30:54Z</time>
      </trkpt>
      <trkpt lat="43.58021" lon="2.91249">
        <ele>758.6</ele>
        <time>2014-01-18T08:30:58Z</time>
      </trkpt>
      <trkpt lat="43.58025" lon="2.91248">
        <ele>758.6</ele>
        <time>2014-01-18T08:31:02Z</time>
      </trkpt>
      <trkpt lat="43.58026" lon="2.91247">
        <ele>758.6</ele>
        <time>2014-01-18T08:31:03Z</time>
      </trkpt>
      <trkpt lat="43.58028" lon="2.91246">
        <ele>758.6</ele>
        <time>2014-01-18T08:31:05Z</time>
      </trkpt>
      <trkpt lat="43.5803" lon="2.91246">
        <ele>758.6</ele>
        <time>2014-01-18T08:31:07Z</time>
      </trkpt>
      <trkpt lat="43.58031" lon="2.91246">
        <ele>759</ele>
        <time>2014-01-18T08:31:08Z</time>
      </trkpt>
      <trkpt lat="43.58032" lon="2.91246">
        <ele>759.6</ele>
        <time>2014-01-18T08:31:09Z</time>
      </trkpt>
      <trkpt lat="43.58032" lon="2.91246">
        <ele>760</ele>
        <time>2014-01-18T08:31:10Z</time>
      </trkpt>
      <trkpt lat="43.58033" lon="2.91246">
        <ele>760.6</ele>
        <time>2014-01-18T08:31:11Z</time>
      </trkpt>
      <trkpt lat="43.58034" lon="2.91246">
        <ele>761</ele>
        <time>2014-01-18T08:31:12Z</time>
      </trkpt>
      <trkpt lat="43.58039" lon="2.91246">
        <ele>761.4</ele>
        <time>2014-01-18T08:31:17Z</time>
      </trkpt>
      <trkpt lat="43.5804" lon="2.91246">
        <ele>761.8</ele>
        <time>2014-01-18T08:31:18Z</time>
      </trkpt>
      <trkpt lat="43.58041" lon="2.91246">
        <ele>762.2</ele>
        <time>2014-01-18T08:31:19Z</time>
      </trkpt>
      <trkpt lat="43.58042" lon="2.91246">
        <ele>762.6</ele>
        <time>2014-01-18T08:31:20Z</time>
      </trkpt>
      <trkpt lat="43.58043" lon="2.91246">
        <ele>763</ele>
        <time>2014-01-18T08:31:21Z</time>
      </trkpt>
      <trkpt lat="43.58046" lon="2.91247">
        <ele>763</ele>
        <time>2014-01-18T08:31:25Z</time>
      </trkpt>
      <trkpt lat="43.58048" lon="2.91247">
        <ele>763.4</ele>
        <time>2014-01-18T08:31:27Z</time>
      </trkpt>
      <trkpt lat="43.58049" lon="2.91246">
        <ele>764</ele>
        <time>2014-01-18T08:31:28Z</time>
      </trkpt>
      <trkpt lat="43.5805" lon="2.91246">
        <ele>764.4</ele>
        <time>2014-01-18T08:31:29Z</time>
      </trkpt>
      <trkpt lat="43.5805" lon="2.91246">
        <ele>765.2</ele>
        <time>2014-01-18T08:31:30Z</time>
      </trkpt>
      <trkpt lat="43.58051" lon="2.91246">
        <ele>765.2</ele>
        <time>2014-01-18T08:31:31Z</time>
      </trkpt>
      <trkpt lat="43.58055" lon="2.91246">
        <ele>765.2</ele>
        <time>2014-01-18T08:31:37Z</time>
      </trkpt>
      <trkpt lat="43.58056" lon="2.91247">
        <ele>765.6</ele>
        <time>2014-01-18T08:31:38Z</time>
      </trkpt>
      <trkpt lat="43.58057" lon="2.91247">
        <ele>766</ele>
        <time>2014-01-18T08:31:39Z</time>
      </trkpt>
      <trkpt lat="43.58057" lon="2.91247">
        <ele>766.4</ele>
        <time>2014-01-18T08:31:40Z</time>
      </trkpt>
      <trkpt lat="43.58058" lon="2.91247">
        <ele>766.8</ele>
        <time>2014-01-18T08:31:41Z</time>
      </trkpt>
      <trkpt lat="43.58059" lon="2.91248">
        <ele>767.2</ele>
        <time>2014-01-18T08:31:42Z</time>
      </trkpt>
      <trkpt lat="43.58063" lon="2.91248">
        <ele>767.2</ele>
        <time>2014-01-18T08:31:48Z</time>
      </trkpt>
      <trkpt lat="43.58064" lon="2.91249">
        <ele>767.6</ele>
        <time>2014-01-18T08:31:49Z</time>
      </trkpt>
      <trkpt lat="43.58065" lon="2.91249">
        <ele>768</ele>
        <time>2014-01-18T08:31:50Z</time>
      </trkpt>
      <trkpt lat="43.58066" lon="2.91249">
        <ele>768.4</ele>
        <time>2014-01-18T08:31:51Z</time>
      </trkpt>
      <trkpt lat="43.58067" lon="2.91249">
        <ele>768.8</ele>
        <time>2014-01-18T08:31:52Z</time>
      </trkpt>
      <trkpt lat="43.58068" lon="2.91249">
        <ele>769.2</ele>
        <time>2014-01-18T08:31:53Z</time>
      </trkpt>
      <trkpt lat="43.58071" lon="2.91249">
        <ele>769.2</ele>
        <time>2014-01-18T08:31:56Z</time>
      </trkpt>
      <trkpt lat="43.58075" lon="2.91249">
        <ele>769.2</ele>
        <time>2014-01-18T08:32:01Z</time>
      </trkpt>
      <trkpt lat="43.58076" lon="2.91249">
        <ele>769.6</ele>
        <time>2014-01-18T08:32:02Z</time>
      </trkpt>
      <trkpt lat="43.58076" lon="2.91249">
        <ele>770.2</ele>
        <time>2014-01-18T08:32:03Z</time>
      </trkpt>
      <trkpt lat="43.58077" lon="2.91249">
        <ele>770.6</ele>
        <time>2014-01-18T08:32:04Z</time>
      </trkpt>
      <trkpt lat="43.58078" lon="2.91249">
        <ele>771</ele>
        <time>2014-01-18T08:32:05Z</time>
      </trkpt>
      <trkpt lat="43.58078" lon="2.91249">
        <ele>771.4</ele>
        <time>2014-01-18T08:32:06Z</time>
      </trkpt>
      <trkpt lat="43.58079" lon="2.91249">
        <ele>771.4</ele>
        <time>2014-01-18T08:32:07Z</time>
      </trkpt>
      <trkpt lat="43.58082" lon="2.91249">
        <ele>771.4</ele>
        <time>2014-01-18T08:32:10Z</time>
      </trkpt>
      <trkpt lat="43.58086" lon="2.91248">
        <ele>771.8</ele>
        <time>2014-01-18T08:32:15Z</time>
      </trkpt>
      <trkpt lat="43.58086" lon="2.91248">
        <ele>772.2</ele>
        <time>2014-01-18T08:32:16Z</time>
      </trkpt>
      <trkpt lat="43.58087" lon="2.91248">
        <ele>772.6</ele>
        <time>2014-01-18T08:32:17Z</time>
      </trkpt>
      <trkpt lat="43.58088" lon="2.91248">
        <ele>773.2</ele>
        <time>2014-01-18T08:32:18Z</time>
      </trkpt>
      <trkpt lat="43.58089" lon="2.91248">
        <ele>773.6</ele>
        <time>2014-01-18T08:32:19Z</time>
      </trkpt>
      <trkpt lat="43.58094" lon="2.91247">
        <ele>773.6</ele>
        <time>2014-01-18T08:32:25Z</time>
      </trkpt>
      <trkpt lat="43.58094" lon="2.91246">
        <ele>773.6</ele>
        <time>2014-01-18T08:32:26Z</time>
      </trkpt>
      <trkpt lat="43.58097" lon="2.91245">
        <ele>774</ele>
        <time>2014-01-18T08:32:29Z</time>
      </trkpt>
      <trkpt lat="43.58098" lon="2.91245">
        <ele>774.4</ele>
        <time>2014-01-18T08:32:30Z</time>
      </trkpt>
      <trkpt lat="43.58099" lon="2.91245">
        <ele>774.8</ele>
        <time>2014-01-18T08:32:31Z</time>
      </trkpt>
      <trkpt lat="43.581" lon="2.91244">
        <ele>775.4</ele>
        <time>2014-01-18T08:32:32Z</time>
      </trkpt>
      <trkpt lat="43.58101" lon="2.91244">
        <ele>775.8</ele>
        <time>2014-01-18T08:32:33Z</time>
      </trkpt>
      <trkpt lat="43.58101" lon="2.91244">
        <ele>775.8</ele>
        <time>2014-01-18T08:32:34Z</time>
      </trkpt>
      <trkpt lat="43.58103" lon="2.91243">
        <ele>775.8</ele>
        <time>2014-01-18T08:32:36Z</time>
      </trkpt>
      <trkpt lat="43.58106" lon="2.91242">
        <ele>775.8</ele>
        <time>2014-01-18T08:32:39Z</time>
      </trkpt>
      <trkpt lat="43.5811" lon="2.91241">
        <ele>775.8</ele>
        <time>2014-01-18T08:32:45Z</time>
      </trkpt>
      <trkpt lat="43.58111" lon="2.91241">
        <ele>776.2</ele>
        <time>2014-01-18T08:32:46Z</time>
      </trkpt>
      <trkpt lat="43.58112" lon="2.9124">
        <ele>776.6</ele>
        <time>2014-01-18T08:32:47Z</time>
      </trkpt>
      <trkpt lat="43.58113" lon="2.91241">
        <ele>777</ele>
        <time>2014-01-18T08:32:48Z</time>
      </trkpt>
      <trkpt lat="43.58114" lon="2.91241">
        <ele>777.4</ele>
        <time>2014-01-18T08:32:49Z</time>
      </trkpt>
      <trkpt lat="43.58115" lon="2.91241">
        <ele>777.8</ele>
        <time>2014-01-18T08:32:50Z</time>
      </trkpt>
      <trkpt lat="43.58116" lon="2.91241">
        <ele>777.8</ele>
        <time>2014-01-18T08:32:52Z</time>
      </trkpt>
      <trkpt lat="43.5812" lon="2.91242">
        <ele>778.2</ele>
        <time>2014-01-18T08:32:57Z</time>
      </trkpt>
      <trkpt lat="43.58121" lon="2.91242">
        <ele>778.6</ele>
        <time>2014-01-18T08:32:58Z</time>
      </trkpt>
      <trkpt lat="43.58122" lon="2.91243">
        <ele>779</ele>
        <time>2014-01-18T08:32:59Z</time>
      </trkpt>
      <trkpt lat="43.58123" lon="2.91244">
        <ele>779.4</ele>
        <time>2014-01-18T08:33:00Z</time>
      </trkpt>
      <trkpt lat="43.58124" lon="2.91244">
        <ele>779.8</ele>
        <time>2014-01-18T08:33:01Z</time>
      </trkpt>
      <trkpt lat="43.58128" lon="2.91246">
        <ele>779.8</ele>
        <time>2014-01-18T08:33:07Z</time>
      </trkpt>
      <trkpt lat="43.5813" lon="2.91247">
        <ele>780.6</ele>
        <time>2014-01-18T08:33:09Z</time>
      </trkpt>
      <trkpt lat="43.58131" lon="2.91247">
        <ele>781</ele>
        <time>2014-01-18T08:33:10Z</time>
      </trkpt>
      <trkpt lat="43.58131" lon="2.91247">
        <ele>781.6</ele>
        <time>2014-01-18T08:33:11Z</time>
      </trkpt>
      <trkpt lat="43.58132" lon="2.91248">
        <ele>782</ele>
        <time>2014-01-18T08:33:12Z</time>
      </trkpt>
      <trkpt lat="43.58134" lon="2.91249">
        <ele>782</ele>
        <time>2014-01-18T08:33:14Z</time>
      </trkpt>
      <trkpt lat="43.58138" lon="2.91251">
        <ele>782.4</ele>
        <time>2014-01-18T08:33:19Z</time>
      </trkpt>
      <trkpt lat="43.58138" lon="2.91252">
        <ele>782.8</ele>
        <time>2014-01-18T08:33:20Z</time>
      </trkpt>
      <trkpt lat="43.58139" lon="2.91252">
        <ele>783.2</ele>
        <time>2014-01-18T08:33:21Z</time>
      </trkpt>
      <trkpt lat="43.5814" lon="2.91253">
        <ele>783.6</ele>
        <time>2014-01-18T08:33:22Z</time>
      </trkpt>
      <trkpt lat="43.58141" lon="2.91253">
        <ele>784.2</ele>
        <time>2014-01-18T08:33:23Z</time>
      </trkpt>
      <trkpt lat="43.58142" lon="2.91253">
        <ele>784.2</ele>
        <time>2014-01-18T08:33:24Z</time>
      </trkpt>
      <trkpt lat="43.58146" lon="2.91256">
        <ele>784.2</ele>
        <time>2014-01-18T08:33:29Z</time>
      </trkpt>
      <trkpt lat="43.58147" lon="2.91258">
        <ele>784.2</ele>
        <time>2014-01-18T08:33:32Z</time>
      </trkpt>
      <trkpt lat="43.58148" lon="2.91258">
        <ele>784.2</ele>
        <time>2014-01-18T08:33:33Z</time>
      </trkpt>
      <trkpt lat="43.5815" lon="2.91259">
        <ele>784.2</ele>
        <time>2014-01-18T08:33:35Z</time>
      </trkpt>
      <trkpt lat="43.58152" lon="2.9126">
        <ele>784.6</ele>
        <time>2014-01-18T08:33:37Z</time>
      </trkpt>
      <trkpt lat="43.58152" lon="2.9126">
        <ele>785</ele>
        <time>2014-01-18T08:33:38Z</time>
      </trkpt>
      <trkpt lat="43.58153" lon="2.91261">
        <ele>785.4</ele>
        <time>2014-01-18T08:33:39Z</time>
      </trkpt>
      <trkpt lat="43.58154" lon="2.91261">
        <ele>785.8</ele>
        <time>2014-01-18T08:33:40Z</time>
      </trkpt>
      <trkpt lat="43.58154" lon="2.91262">
        <ele>786.4</ele>
        <time>2014-01-18T08:33:41Z</time>
      </trkpt>
      <trkpt lat="43.58155" lon="2.91264">
        <ele>786.4</ele>
        <time>2014-01-18T08:33:44Z</time>
      </trkpt>
      <trkpt lat="43.58155" lon="2.91264">
        <ele>786.4</ele>
        <time>2014-01-18T08:33:45Z</time>
      </trkpt>
      <trkpt lat="43.58156" lon="2.91265">
        <ele>786.4</ele>
        <time>2014-01-18T08:33:46Z</time>
      </trkpt>
      <trkpt lat="43.58156" lon="2.91265">
        <ele>786.4</ele>
        <time>2014-01-18T08:33:47Z</time>
      </trkpt>
      <trkpt lat="43.58155" lon="2.91265">
        <ele>786.8</ele>
        <time>2014-01-18T08:33:48Z</time>
      </trkpt>
      <trkpt lat="43.58155" lon="2.91265">
        <ele>787.2</ele>
        <time>2014-01-18T08:33:49Z</time>
      </trkpt>
      <trkpt lat="43.58155" lon="2.91265">
        <ele>787.6</ele>
        <time>2014-01-18T08:33:50Z</time>
      </trkpt>
      <trkpt lat="43.58155" lon="2.91265">
        <ele>788.4</ele>
        <time>2014-01-18T08:35:53Z</time>
      </trkpt>
      <trkpt lat="43.58155" lon="2.91265">
        <ele>788.4</ele>
        <time>2014-01-18T08:35:54Z</time>
      </trkpt>
      <trkpt lat="43.58155" lon="2.91265">
        <ele>788.4</ele>
        <time>2014-01-18T08:35:56Z</time>
      </trkpt>
      <trkpt lat="43.58156" lon="2.91264">
        <ele>788.4</ele>
        <time>2014-01-18T08:35:57Z</time>
      </trkpt>
      <trkpt lat="43.58162" lon="2.91266">
        <ele>788.4</ele>
        <time>2014-01-18T08:36:04Z</time>
      </trkpt>
      <trkpt lat="43.58168" lon="2.91266">
        <ele>788.8</ele>
        <time>2014-01-18T08:36:10Z</time>
      </trkpt>
      <trkpt lat="43.58169" lon="2.91265">
        <ele>789.2</ele>
        <time>2014-01-18T08:36:11Z</time>
      </trkpt>
      <trkpt lat="43.5817" lon="2.91265">
        <ele>789.6</ele>
        <time>2014-01-18T08:36:12Z</time>
      </trkpt>
      <trkpt lat="43.58171" lon="2.91264">
        <ele>790</ele>
        <time>2014-01-18T08:36:13Z</time>
      </trkpt>
      <trkpt lat="43.58172" lon="2.91264">
        <ele>790.4</ele>
        <time>2014-01-18T08:36:14Z</time>
      </trkpt>
      <trkpt lat="43.58174" lon="2.91263">
        <ele>790.4</ele>
        <time>2014-01-18T08:36:17Z</time>
      </trkpt>
      <trkpt lat="43.58178" lon="2.91261">
        <ele>790.4</ele>
        <time>2014-01-18T08:36:22Z</time>
      </trkpt>
      <trkpt lat="43.58179" lon="2.9126">
        <ele>790.8</ele>
        <time>2014-01-18T08:36:24Z</time>
      </trkpt>
      <trkpt lat="43.5818" lon="2.9126">
        <ele>791.2</ele>
        <time>2014-01-18T08:36:25Z</time>
      </trkpt>
      <trkpt lat="43.58181" lon="2.9126">
        <ele>791.6</ele>
        <time>2014-01-18T08:36:26Z</time>
      </trkpt>
      <trkpt lat="43.58182" lon="2.9126">
        <ele>792.6</ele>
        <time>2014-01-18T08:36:27Z</time>
      </trkpt>
      <trkpt lat="43.58181" lon="2.9126">
        <ele>792.6</ele>
        <time>2014-01-18T08:36:28Z</time>
      </trkpt>
      <trkpt lat="43.58182" lon="2.9126">
        <ele>792.6</ele>
        <time>2014-01-18T08:36:29Z</time>
      </trkpt>
      <trkpt lat="43.58184" lon="2.91258">
        <ele>792.6</ele>
        <time>2014-01-18T08:36:31Z</time>
      </trkpt>
      <trkpt lat="43.58187" lon="2.91258">
        <ele>792.6</ele>
        <time>2014-01-18T08:36:35Z</time>
      </trkpt>
      <trkpt lat="43.58188" lon="2.91258">
        <ele>793</ele>
        <time>2014-01-18T08:36:36Z</time>
      </trkpt>
      <trkpt lat="43.58189" lon="2.91258">
        <ele>793.4</ele>
        <time>2014-01-18T08:36:37Z</time>
      </trkpt>
      <trkpt lat="43.5819" lon="2.91259">
        <ele>793.8</ele>
        <time>2014-01-18T08:36:38Z</time>
      </trkpt>
      <trkpt lat="43.58191" lon="2.91259">
        <ele>794.4</ele>
        <time>2014-01-18T08:36:39Z</time>
      </trkpt>
      <trkpt lat="43.58192" lon="2.91258">
        <ele>794.8</ele>
        <time>2014-01-18T08:36:40Z</time>
      </trkpt>
      <trkpt lat="43.58195" lon="2.91257">
        <ele>794.8</ele>
        <time>2014-01-18T08:36:43Z</time>
      </trkpt>
      <trkpt lat="43.58198" lon="2.91256">
        <ele>794.8</ele>
        <time>2014-01-18T08:36:47Z</time>
      </trkpt>
      <trkpt lat="43.58199" lon="2.91256">
        <ele>795.2</ele>
        <time>2014-01-18T08:36:48Z</time>
      </trkpt>
      <trkpt lat="43.582" lon="2.91256">
        <ele>795.6</ele>
        <time>2014-01-18T08:36:49Z</time>
      </trkpt>
      <trkpt lat="43.58201" lon="2.91256">
        <ele>796</ele>
        <time>2014-01-18T08:36:50Z</time>
      </trkpt>
      <trkpt lat="43.58203" lon="2.91255">
        <ele>796.8</ele>
        <time>2014-01-18T08:36:51Z</time>
      </trkpt>
      <trkpt lat="43.58211" lon="2.91255">
        <ele>796.8</ele>
        <time>2014-01-18T08:37:00Z</time>
      </trkpt>
      <trkpt lat="43.58211" lon="2.91255">
        <ele>797.2</ele>
        <time>2014-01-18T08:37:01Z</time>
      </trkpt>
      <trkpt lat="43.58212" lon="2.91255">
        <ele>797.8</ele>
        <time>2014-01-18T08:37:02Z</time>
      </trkpt>
      <trkpt lat="43.58213" lon="2.91255">
        <ele>798.2</ele>
        <time>2014-01-18T08:37:03Z</time>
      </trkpt>
      <trkpt lat="43.58214" lon="2.91254">
        <ele>798.6</ele>
        <time>2014-01-18T08:37:04Z</time>
      </trkpt>
      <trkpt lat="43.58215" lon="2.91254">
        <ele>799</ele>
        <time>2014-01-18T08:37:05Z</time>
      </trkpt>
      <trkpt lat="43.58217" lon="2.91254">
        <ele>799</ele>
        <time>2014-01-18T08:37:07Z</time>
      </trkpt>
      <trkpt lat="43.58223" lon="2.9125">
        <ele>799.4</ele>
        <time>2014-01-18T08:37:14Z</time>
      </trkpt>
      <trkpt lat="43.58224" lon="2.91249">
        <ele>799.8</ele>
        <time>2014-01-18T08:37:15Z</time>
      </trkpt>
      <trkpt lat="43.58226" lon="2.91249">
        <ele>800.8</ele>
        <time>2014-01-18T08:37:16Z</time>
      </trkpt>
      <trkpt lat="43.58226" lon="2.91249">
        <ele>801.2</ele>
        <time>2014-01-18T08:37:17Z</time>
      </trkpt>
      <trkpt lat="43.58229" lon="2.91248">
        <ele>801.2</ele>
        <time>2014-01-18T08:37:21Z</time>
      </trkpt>
      <trkpt lat="43.58231" lon="2.91248">
        <ele>801.6</ele>
        <time>2014-01-18T08:37:22Z</time>
      </trkpt>
      <trkpt lat="43.58232" lon="2.91249">
        <ele>802.4</ele>
        <time>2014-01-18T08:37:24Z</time>
      </trkpt>
      <trkpt lat="43.58233" lon="2.91249">
        <ele>802.8</ele>
        <time>2014-01-18T08:37:25Z</time>
      </trkpt>
      <trkpt lat="43.58234" lon="2.91249">
        <ele>803.4</ele>
        <time>2014-01-18T08:37:26Z</time>
      </trkpt>
      <trkpt lat="43.58237" lon="2.91251">
        <ele>803.4</ele>
        <time>2014-01-18T08:37:29Z</time>
      </trkpt>
      <trkpt lat="43.58239" lon="2.91253">
        <ele>803.8</ele>
        <time>2014-01-18T08:37:32Z</time>
      </trkpt>
      <trkpt lat="43.58239" lon="2.91254">
        <ele>804.2</ele>
        <time>2014-01-18T08:37:33Z</time>
      </trkpt>
      <trkpt lat="43.5824" lon="2.91255">
        <ele>804.6</ele>
        <time>2014-01-18T08:37:34Z</time>
      </trkpt>
      <trkpt lat="43.5824" lon="2.91256">
        <ele>805</ele>
        <time>2014-01-18T08:37:35Z</time>
      </trkpt>
      <trkpt lat="43.58241" lon="2.91257">
        <ele>805.6</ele>
        <time>2014-01-18T08:37:36Z</time>
      </trkpt>
      <trkpt lat="43.58246" lon="2.91269">
        <ele>805.6</ele>
        <time>2014-01-18T08:37:44Z</time>
      </trkpt>
      <trkpt lat="43.58254" lon="2.91278">
        <ele>805.6</ele>
        <time>2014-01-18T08:37:52Z</time>
      </trkpt>
      <trkpt lat="43.58261" lon="2.91281">
        <ele>805.6</ele>
        <time>2014-01-18T08:37:59Z</time>
      </trkpt>
      <trkpt lat="43.58267" lon="2.91283">
        <ele>805.6</ele>
        <time>2014-01-18T08:38:06Z</time>
      </trkpt>
      <trkpt lat="43.58269" lon="2.91284">
        <ele>806</ele>
        <time>2014-01-18T08:38:09Z</time>
      </trkpt>
      <trkpt lat="43.5827" lon="2.91284">
        <ele>806.4</ele>
        <time>2014-01-18T08:38:10Z</time>
      </trkpt>
      <trkpt lat="43.58271" lon="2.91284">
        <ele>806.8</ele>
        <time>2014-01-18T08:38:11Z</time>
      </trkpt>
      <trkpt lat="43.58272" lon="2.91284">
        <ele>807.6</ele>
        <time>2014-01-18T08:38:12Z</time>
      </trkpt>
      <trkpt lat="43.58275" lon="2.91286">
        <ele>807.6</ele>
        <time>2014-01-18T08:38:15Z</time>
      </trkpt>
      <trkpt lat="43.58282" lon="2.91288">
        <ele>807.6</ele>
        <time>2014-01-18T08:38:22Z</time>
      </trkpt>
      <trkpt lat="43.58286" lon="2.91291">
        <ele>807.6</ele>
        <time>2014-01-18T08:38:28Z</time>
      </trkpt>
      <trkpt lat="43.58287" lon="2.91292">
        <ele>808</ele>
        <time>2014-01-18T08:38:30Z</time>
      </trkpt>
      <trkpt lat="43.58288" lon="2.91292">
        <ele>808.4</ele>
        <time>2014-01-18T08:38:31Z</time>
      </trkpt>
      <trkpt lat="43.58289" lon="2.91293">
        <ele>808.8</ele>
        <time>2014-01-18T08:38:32Z</time>
      </trkpt>
      <trkpt lat="43.5829" lon="2.91293">
        <ele>809.2</ele>
        <time>2014-01-18T08:38:33Z</time>
      </trkpt>
      <trkpt lat="43.5829" lon="2.91293">
        <ele>809.6</ele>
        <time>2014-01-18T08:38:34Z</time>
      </trkpt>
      <trkpt lat="43.58292" lon="2.91294">
        <ele>809.6</ele>
        <time>2014-01-18T08:38:37Z</time>
      </trkpt>
      <trkpt lat="43.58294" lon="2.91295">
        <ele>810</ele>
        <time>2014-01-18T08:38:39Z</time>
      </trkpt>
      <trkpt lat="43.58294" lon="2.91295">
        <ele>810.4</ele>
        <time>2014-01-18T08:38:40Z</time>
      </trkpt>
      <trkpt lat="43.58295" lon="2.91296">
        <ele>811</ele>
        <time>2014-01-18T08:38:41Z</time>
      </trkpt>
      <trkpt lat="43.58296" lon="2.91296">
        <ele>811.4</ele>
        <time>2014-01-18T08:38:42Z</time>
      </trkpt>
      <trkpt lat="43.58297" lon="2.91297">
        <ele>812</ele>
        <time>2014-01-18T08:38:43Z</time>
      </trkpt>
      <trkpt lat="43.58297" lon="2.91297">
        <ele>812.6</ele>
        <time>2014-01-18T08:38:44Z</time>
      </trkpt>
      <trkpt lat="43.58298" lon="2.91297">
        <ele>813.2</ele>
        <time>2014-01-18T08:38:45Z</time>
      </trkpt>
      <trkpt lat="43.58298" lon="2.91297">
        <ele>813.8</ele>
        <time>2014-01-18T08:38:46Z</time>
      </trkpt>
      <trkpt lat="43.58299" lon="2.91297">
        <ele>814.4</ele>
        <time>2014-01-18T08:38:47Z</time>
      </trkpt>
      <trkpt lat="43.58302" lon="2.91297">
        <ele>814.4</ele>
        <time>2014-01-18T08:38:52Z</time>
      </trkpt>
      <trkpt lat="43.58306" lon="2.91298">
        <ele>814.4</ele>
        <time>2014-01-18T08:38:59Z</time>
      </trkpt>
      <trkpt lat="43.58308" lon="2.91297">
        <ele>814.8</ele>
        <time>2014-01-18T08:39:02Z</time>
      </trkpt>
      <trkpt lat="43.58308" lon="2.91296">
        <ele>815.2</ele>
        <time>2014-01-18T08:39:03Z</time>
      </trkpt>
      <trkpt lat="43.58308" lon="2.91296">
        <ele>815.8</ele>
        <time>2014-01-18T08:39:04Z</time>
      </trkpt>
      <trkpt lat="43.58309" lon="2.91296">
        <ele>816.2</ele>
        <time>2014-01-18T08:39:05Z</time>
      </trkpt>
      <trkpt lat="43.58309" lon="2.91296">
        <ele>816.6</ele>
        <time>2014-01-18T08:39:06Z</time>
      </trkpt>
      <trkpt lat="43.58309" lon="2.91295">
        <ele>816.6</ele>
        <time>2014-01-18T08:39:07Z</time>
      </trkpt>
      <trkpt lat="43.5831" lon="2.91295">
        <ele>816.6</ele>
        <time>2014-01-18T08:39:08Z</time>
      </trkpt>
      <trkpt lat="43.5831" lon="2.91296">
        <ele>816.6</ele>
        <time>2014-01-18T08:39:10Z</time>
      </trkpt>
      <trkpt lat="43.58311" lon="2.91296">
        <ele>816.6</ele>
        <time>2014-01-18T08:39:11Z</time>
      </trkpt>
      <trkpt lat="43.58314" lon="2.91295">
        <ele>817</ele>
        <time>2014-01-18T08:39:16Z</time>
      </trkpt>
      <trkpt lat="43.58315" lon="2.91295">
        <ele>817.4</ele>
        <time>2014-01-18T08:39:17Z</time>
      </trkpt>
      <trkpt lat="43.58316" lon="2.91295">
        <ele>817.8</ele>
        <time>2014-01-18T08:39:18Z</time>
      </trkpt>
      <trkpt lat="43.58316" lon="2.91295">
        <ele>818.2</ele>
        <time>2014-01-18T08:39:19Z</time>
      </trkpt>
      <trkpt lat="43.58317" lon="2.91295">
        <ele>818.8</ele>
        <time>2014-01-18T08:39:20Z</time>
      </trkpt>
      <trkpt lat="43.5832" lon="2.91294">
        <ele>818.8</ele>
        <time>2014-01-18T08:39:24Z</time>
      </trkpt>
      <trkpt lat="43.5832" lon="2.91293">
        <ele>819.6</ele>
        <time>2014-01-18T08:39:26Z</time>
      </trkpt>
      <trkpt lat="43.58321" lon="2.91292">
        <ele>820</ele>
        <time>2014-01-18T08:39:27Z</time>
      </trkpt>
      <trkpt lat="43.58321" lon="2.91291">
        <ele>820.4</ele>
        <time>2014-01-18T08:39:28Z</time>
      </trkpt>
      <trkpt lat="43.58322" lon="2.91291">
        <ele>821</ele>
        <time>2014-01-18T08:39:29Z</time>
      </trkpt>
      <trkpt lat="43.58322" lon="2.91291">
        <ele>821</ele>
        <time>2014-01-18T08:39:30Z</time>
      </trkpt>
      <trkpt lat="43.58322" lon="2.91291">
        <ele>821</ele>
        <time>2014-01-18T08:39:31Z</time>
      </trkpt>
      <trkpt lat="43.58328" lon="2.91289">
        <ele>821</ele>
        <time>2014-01-18T08:39:39Z</time>
      </trkpt>
      <trkpt lat="43.58329" lon="2.91289">
        <ele>821.4</ele>
        <time>2014-01-18T08:39:40Z</time>
      </trkpt>
      <trkpt lat="43.5833" lon="2.91289">
        <ele>821.8</ele>
        <time>2014-01-18T08:39:41Z</time>
      </trkpt>
      <trkpt lat="43.5833" lon="2.91288">
        <ele>822.2</ele>
        <time>2014-01-18T08:39:42Z</time>
      </trkpt>
      <trkpt lat="43.58331" lon="2.91288">
        <ele>822.6</ele>
        <time>2014-01-18T08:39:43Z</time>
      </trkpt>
      <trkpt lat="43.58332" lon="2.91287">
        <ele>823</ele>
        <time>2014-01-18T08:39:44Z</time>
      </trkpt>
      <trkpt lat="43.58334" lon="2.91286">
        <ele>823.4</ele>
        <time>2014-01-18T08:39:47Z</time>
      </trkpt>
      <trkpt lat="43.58335" lon="2.91285">
        <ele>823.8</ele>
        <time>2014-01-18T08:39:48Z</time>
      </trkpt>
      <trkpt lat="43.58335" lon="2.91285">
        <ele>824.2</ele>
        <time>2014-01-18T08:39:49Z</time>
      </trkpt>
      <trkpt lat="43.58336" lon="2.91285">
        <ele>824.6</ele>
        <time>2014-01-18T08:39:50Z</time>
      </trkpt>
      <trkpt lat="43.58337" lon="2.91284">
        <ele>825</ele>
        <time>2014-01-18T08:39:51Z</time>
      </trkpt>
      <trkpt lat="43.58341" lon="2.91285">
        <ele>825</ele>
        <time>2014-01-18T08:39:55Z</time>
      </trkpt>
      <trkpt lat="43.58342" lon="2.91284">
        <ele>825</ele>
        <time>2014-01-18T08:39:57Z</time>
      </trkpt>
      <trkpt lat="43.58344" lon="2.91284">
        <ele>825</ele>
        <time>2014-01-18T08:40:00Z</time>
      </trkpt>
      <trkpt lat="43.58347" lon="2.91283">
        <ele>825.4</ele>
        <time>2014-01-18T08:40:04Z</time>
      </trkpt>
      <trkpt lat="43.58348" lon="2.91283">
        <ele>826</ele>
        <time>2014-01-18T08:40:05Z</time>
      </trkpt>
      <trkpt lat="43.58349" lon="2.91282">
        <ele>826.4</ele>
        <time>2014-01-18T08:40:06Z</time>
      </trkpt>
      <trkpt lat="43.5835" lon="2.91282">
        <ele>826.8</ele>
        <time>2014-01-18T08:40:07Z</time>
      </trkpt>
      <trkpt lat="43.58351" lon="2.91281">
        <ele>827.2</ele>
        <time>2014-01-18T08:40:08Z</time>
      </trkpt>
      <trkpt lat="43.58354" lon="2.91281">
        <ele>827.2</ele>
        <time>2014-01-18T08:40:12Z</time>
      </trkpt>
      <trkpt lat="43.58358" lon="2.91279">
        <ele>827.2</ele>
        <time>2014-01-18T08:40:16Z</time>
      </trkpt>
      <trkpt lat="43.58363" lon="2.91277">
        <ele>827.2</ele>
        <time>2014-01-18T08:40:22Z</time>
      </trkpt>
      <trkpt lat="43.58365" lon="2.91275">
        <ele>827.6</ele>
        <time>2014-01-18T08:40:25Z</time>
      </trkpt>
      <trkpt lat="43.58366" lon="2.91274">
        <ele>828.2</ele>
        <time>2014-01-18T08:40:26Z</time>
      </trkpt>
      <trkpt lat="43.58367" lon="2.91274">
        <ele>828.6</ele>
        <time>2014-01-18T08:40:27Z</time>
      </trkpt>
      <trkpt lat="43.58368" lon="2.91274">
        <ele>829</ele>
        <time>2014-01-18T08:40:28Z</time>
      </trkpt>
      <trkpt lat="43.58369" lon="2.91273">
        <ele>829.4</ele>
        <time>2014-01-18T08:40:29Z</time>
      </trkpt>
      <trkpt lat="43.5837" lon="2.91273">
        <ele>829.4</ele>
        <time>2014-01-18T08:40:30Z</time>
      </trkpt>
      <trkpt lat="43.58375" lon="2.91273">
        <ele>829.8</ele>
        <time>2014-01-18T08:40:36Z</time>
      </trkpt>
      <trkpt lat="43.58376" lon="2.91273">
        <ele>830.4</ele>
        <time>2014-01-18T08:40:37Z</time>
      </trkpt>
      <trkpt lat="43.58377" lon="2.91272">
        <ele>830.8</ele>
        <time>2014-01-18T08:40:38Z</time>
      </trkpt>
      <trkpt lat="43.58378" lon="2.91272">
        <ele>831.2</ele>
        <time>2014-01-18T08:40:39Z</time>
      </trkpt>
      <trkpt lat="43.58379" lon="2.91271">
        <ele>831.6</ele>
        <time>2014-01-18T08:40:40Z</time>
      </trkpt>
      <trkpt lat="43.58382" lon="2.91269">
        <ele>831.6</ele>
        <time>2014-01-18T08:40:43Z</time>
      </trkpt>
      <trkpt lat="43.58383" lon="2.91269">
        <ele>831.6</ele>
        <time>2014-01-18T08:40:46Z</time>
      </trkpt>
      <trkpt lat="43.58383" lon="2.91269">
        <ele>831.6</ele>
        <time>2014-01-18T08:40:47Z</time>
      </trkpt>
      <trkpt lat="43.58384" lon="2.9127">
        <ele>831.6</ele>
        <time>2014-01-18T08:40:48Z</time>
      </trkpt>
      <trkpt lat="43.58389" lon="2.9127">
        <ele>831.6</ele>
        <time>2014-01-18T08:40:52Z</time>
      </trkpt>
      <trkpt lat="43.58391" lon="2.91269">
        <ele>831.6</ele>
        <time>2014-01-18T08:40:53Z</time>
      </trkpt>
      <trkpt lat="43.58403" lon="2.91266">
        <ele>831.6</ele>
        <time>2014-01-18T08:41:00Z</time>
      </trkpt>
      <trkpt lat="43.58416" lon="2.91263">
        <ele>831.6</ele>
        <time>2014-01-18T08:41:05Z</time>
      </trkpt>
      <trkpt lat="43.58429" lon="2.91255">
        <ele>831.6</ele>
        <time>2014-01-18T08:41:13Z</time>
      </trkpt>
      <trkpt lat="43.5844" lon="2.91245">
        <ele>831.6</ele>
        <time>2014-01-18T08:41:20Z</time>
      </trkpt>
      <trkpt lat="43.58449" lon="2.91235">
        <ele>831.6</ele>
        <time>2014-01-18T08:41:27Z</time>
      </trkpt>
      <trkpt lat="43.58451" lon="2.91232">
        <ele>832</ele>
        <time>2014-01-18T08:41:29Z</time>
      </trkpt>
      <trkpt lat="43.58452" lon="2.91231">
        <ele>832.8</ele>
        <time>2014-01-18T08:41:30Z</time>
      </trkpt>
      <trkpt lat="43.58454" lon="2.91229">
        <ele>833.2</ele>
        <time>2014-01-18T08:41:31Z</time>
      </trkpt>
      <trkpt lat="43.58455" lon="2.91228">
        <ele>833.8</ele>
        <time>2014-01-18T08:41:32Z</time>
      </trkpt>
      <trkpt lat="43.58459" lon="2.91225">
        <ele>833.8</ele>
        <time>2014-01-18T08:41:35Z</time>
      </trkpt>
      <trkpt lat="43.58469" lon="2.91221">
        <ele>833.8</ele>
        <time>2014-01-18T08:41:41Z</time>
      </trkpt>
      <trkpt lat="43.5848" lon="2.91218">
        <ele>834.2</ele>
        <time>2014-01-18T08:41:47Z</time>
      </trkpt>
      <trkpt lat="43.58481" lon="2.91217">
        <ele>834.6</ele>
        <time>2014-01-18T08:41:48Z</time>
      </trkpt>
      <trkpt lat="43.58482" lon="2.91216">
        <ele>835</ele>
        <time>2014-01-18T08:41:49Z</time>
      </trkpt>
      <trkpt lat="43.58484" lon="2.91215">
        <ele>835.4</ele>
        <time>2014-01-18T08:41:50Z</time>
      </trkpt>
      <trkpt lat="43.58485" lon="2.91214">
        <ele>835.8</ele>
        <time>2014-01-18T08:41:51Z</time>
      </trkpt>
      <trkpt lat="43.58492" lon="2.91212">
        <ele>836.6</ele>
        <time>2014-01-18T08:41:55Z</time>
      </trkpt>
      <trkpt lat="43.58493" lon="2.91212">
        <ele>837</ele>
        <time>2014-01-18T08:41:56Z</time>
      </trkpt>
      <trkpt lat="43.58494" lon="2.91211">
        <ele>837.4</ele>
        <time>2014-01-18T08:41:57Z</time>
      </trkpt>
      <trkpt lat="43.58495" lon="2.91211">
        <ele>837.8</ele>
        <time>2014-01-18T08:41:58Z</time>
      </trkpt>
      <trkpt lat="43.58497" lon="2.9121">
        <ele>837.8</ele>
        <time>2014-01-18T08:42:00Z</time>
      </trkpt>
      <trkpt lat="43.585" lon="2.91208">
        <ele>838.4</ele>
        <time>2014-01-18T08:42:03Z</time>
      </trkpt>
      <trkpt lat="43.58501" lon="2.91208">
        <ele>838.8</ele>
        <time>2014-01-18T08:42:04Z</time>
      </trkpt>
      <trkpt lat="43.58503" lon="2.91207">
        <ele>839.2</ele>
        <time>2014-01-18T08:42:05Z</time>
      </trkpt>
      <trkpt lat="43.58504" lon="2.91207">
        <ele>839.6</ele>
        <time>2014-01-18T08:42:06Z</time>
      </trkpt>
      <trkpt lat="43.58505" lon="2.91207">
        <ele>840</ele>
        <time>2014-01-18T08:42:07Z</time>
      </trkpt>
      <trkpt lat="43.58507" lon="2.91206">
        <ele>840</ele>
        <time>2014-01-18T08:42:09Z</time>
      </trkpt>
      <trkpt lat="43.58511" lon="2.91205">
        <ele>840</ele>
        <time>2014-01-18T08:42:12Z</time>
      </trkpt>
      <trkpt lat="43.58517" lon="2.91202">
        <ele>840.6</ele>
        <time>2014-01-18T08:42:18Z</time>
      </trkpt>
      <trkpt lat="43.58518" lon="2.91202">
        <ele>841</ele>
        <time>2014-01-18T08:42:19Z</time>
      </trkpt>
      <trkpt lat="43.58519" lon="2.91201">
        <ele>841.8</ele>
        <time>2014-01-18T08:42:20Z</time>
      </trkpt>
      <trkpt lat="43.5852" lon="2.912">
        <ele>842.2</ele>
        <time>2014-01-18T08:42:21Z</time>
      </trkpt>
      <trkpt lat="43.58522" lon="2.912">
        <ele>842.2</ele>
        <time>2014-01-18T08:42:23Z</time>
      </trkpt>
      <trkpt lat="43.58523" lon="2.91199">
        <ele>842.2</ele>
        <time>2014-01-18T08:42:24Z</time>
      </trkpt>
      <trkpt lat="43.58525" lon="2.91199">
        <ele>842.6</ele>
        <time>2014-01-18T08:42:26Z</time>
      </trkpt>
      <trkpt lat="43.58526" lon="2.91198">
        <ele>843</ele>
        <time>2014-01-18T08:42:27Z</time>
      </trkpt>
      <trkpt lat="43.58527" lon="2.91197">
        <ele>843.4</ele>
        <time>2014-01-18T08:42:28Z</time>
      </trkpt>
      <trkpt lat="43.58528" lon="2.91197">
        <ele>843.8</ele>
        <time>2014-01-18T08:42:29Z</time>
      </trkpt>
      <trkpt lat="43.5853" lon="2.91196">
        <ele>844.2</ele>
        <time>2014-01-18T08:42:30Z</time>
      </trkpt>
      <trkpt lat="43.58531" lon="2.91196">
        <ele>844.2</ele>
        <time>2014-01-18T08:42:31Z</time>
      </trkpt>
      <trkpt lat="43.58536" lon="2.91192">
        <ele>844.2</ele>
        <time>2014-01-18T08:42:37Z</time>
      </trkpt>
      <trkpt lat="43.58542" lon="2.91189">
        <ele>844.2</ele>
        <time>2014-01-18T08:42:42Z</time>
      </trkpt>
      <trkpt lat="43.58543" lon="2.91189">
        <ele>844.6</ele>
        <time>2014-01-18T08:42:43Z</time>
      </trkpt>
      <trkpt lat="43.58544" lon="2.91189">
        <ele>845</ele>
        <time>2014-01-18T08:42:44Z</time>
      </trkpt>
      <trkpt lat="43.58545" lon="2.91188">
        <ele>846</ele>
        <time>2014-01-18T08:42:45Z</time>
      </trkpt>
      <trkpt lat="43.58546" lon="2.91188">
        <ele>846.4</ele>
        <time>2014-01-18T08:42:46Z</time>
      </trkpt>
      <trkpt lat="43.58548" lon="2.91187">
        <ele>846.4</ele>
        <time>2014-01-18T08:42:48Z</time>
      </trkpt>
      <trkpt lat="43.58551" lon="2.91185">
        <ele>846.4</ele>
        <time>2014-01-18T08:42:51Z</time>
      </trkpt>
      <trkpt lat="43.58558" lon="2.91184">
        <ele>846.4</ele>
        <time>2014-01-18T08:42:57Z</time>
      </trkpt>
      <trkpt lat="43.58559" lon="2.91183">
        <ele>846.8</ele>
        <time>2014-01-18T08:42:59Z</time>
      </trkpt>
      <trkpt lat="43.5856" lon="2.91183">
        <ele>847.2</ele>
        <time>2014-01-18T08:43:00Z</time>
      </trkpt>
      <trkpt lat="43.58561" lon="2.91183">
        <ele>847.6</ele>
        <time>2014-01-18T08:43:01Z</time>
      </trkpt>
      <trkpt lat="43.58562" lon="2.91183">
        <ele>848</ele>
        <time>2014-01-18T08:43:02Z</time>
      </trkpt>
      <trkpt lat="43.58562" lon="2.91183">
        <ele>848.4</ele>
        <time>2014-01-18T08:43:03Z</time>
      </trkpt>
      <trkpt lat="43.58564" lon="2.91181">
        <ele>848.4</ele>
        <time>2014-01-18T08:43:05Z</time>
      </trkpt>
      <trkpt lat="43.58568" lon="2.91177">
        <ele>848.4</ele>
        <time>2014-01-18T08:43:09Z</time>
      </trkpt>
      <trkpt lat="43.5857" lon="2.91176">
        <ele>848.8</ele>
        <time>2014-01-18T08:43:11Z</time>
      </trkpt>
      <trkpt lat="43.58571" lon="2.91175">
        <ele>849.2</ele>
        <time>2014-01-18T08:43:12Z</time>
      </trkpt>
      <trkpt lat="43.58572" lon="2.91174">
        <ele>849.6</ele>
        <time>2014-01-18T08:43:13Z</time>
      </trkpt>
      <trkpt lat="43.58573" lon="2.91174">
        <ele>850.2</ele>
        <time>2014-01-18T08:43:14Z</time>
      </trkpt>
      <trkpt lat="43.58574" lon="2.91174">
        <ele>850.6</ele>
        <time>2014-01-18T08:43:15Z</time>
      </trkpt>
      <trkpt lat="43.58578" lon="2.91174">
        <ele>851</ele>
        <time>2014-01-18T08:43:19Z</time>
      </trkpt>
      <trkpt lat="43.58579" lon="2.91175">
        <ele>851.4</ele>
        <time>2014-01-18T08:43:20Z</time>
      </trkpt>
      <trkpt lat="43.5858" lon="2.91175">
        <ele>852</ele>
        <time>2014-01-18T08:43:21Z</time>
      </trkpt>
      <trkpt lat="43.58581" lon="2.91175">
        <ele>852.4</ele>
        <time>2014-01-18T08:43:22Z</time>
      </trkpt>
      <trkpt lat="43.58582" lon="2.91175">
        <ele>853</ele>
        <time>2014-01-18T08:43:23Z</time>
      </trkpt>
      <trkpt lat="43.58584" lon="2.91176">
        <ele>853.4</ele>
        <time>2014-01-18T08:43:25Z</time>
      </trkpt>
      <trkpt lat="43.58585" lon="2.91175">
        <ele>853.8</ele>
        <time>2014-01-18T08:43:26Z</time>
      </trkpt>
      <trkpt lat="43.58586" lon="2.91175">
        <ele>854.2</ele>
        <time>2014-01-18T08:43:27Z</time>
      </trkpt>
      <trkpt lat="43.58587" lon="2.91175">
        <ele>854.6</ele>
        <time>2014-01-18T08:43:28Z</time>
      </trkpt>
      <trkpt lat="43.58588" lon="2.91175">
        <ele>855.2</ele>
        <time>2014-01-18T08:43:29Z</time>
      </trkpt>
      <trkpt lat="43.58594" lon="2.91172">
        <ele>855.2</ele>
        <time>2014-01-18T08:43:34Z</time>
      </trkpt>
      <trkpt lat="43.58602" lon="2.91171">
        <ele>855.2</ele>
        <time>2014-01-18T08:43:42Z</time>
      </trkpt>
      <trkpt lat="43.58604" lon="2.91171">
        <ele>855.2</ele>
        <time>2014-01-18T08:43:45Z</time>
      </trkpt>
      <trkpt lat="43.58603" lon="2.91169">
        <ele>855.2</ele>
        <time>2014-01-18T08:43:47Z</time>
      </trkpt>
      <trkpt lat="43.58603" lon="2.9117">
        <ele>855.6</ele>
        <time>2014-01-18T08:43:49Z</time>
      </trkpt>
      <trkpt lat="43.58604" lon="2.9117">
        <ele>856</ele>
        <time>2014-01-18T08:43:50Z</time>
      </trkpt>
      <trkpt lat="43.58605" lon="2.9117">
        <ele>856.6</ele>
        <time>2014-01-18T08:43:51Z</time>
      </trkpt>
      <trkpt lat="43.58606" lon="2.9117">
        <ele>857</ele>
        <time>2014-01-18T08:43:52Z</time>
      </trkpt>
      <trkpt lat="43.58607" lon="2.91171">
        <ele>857.4</ele>
        <time>2014-01-18T08:43:53Z</time>
      </trkpt>
      <trkpt lat="43.58611" lon="2.91172">
        <ele>857.4</ele>
        <time>2014-01-18T08:43:57Z</time>
      </trkpt>
      <trkpt lat="43.58612" lon="2.91172">
        <ele>857.4</ele>
        <time>2014-01-18T08:43:58Z</time>
      </trkpt>
      <trkpt lat="43.58618" lon="2.91168">
        <ele>857.4</ele>
        <time>2014-01-18T08:44:05Z</time>
      </trkpt>
      <trkpt lat="43.58619" lon="2.91168">
        <ele>857.8</ele>
        <time>2014-01-18T08:44:06Z</time>
      </trkpt>
      <trkpt lat="43.5862" lon="2.91168">
        <ele>858.2</ele>
        <time>2014-01-18T08:44:07Z</time>
      </trkpt>
      <trkpt lat="43.58621" lon="2.91168">
        <ele>858.6</ele>
        <time>2014-01-18T08:44:08Z</time>
      </trkpt>
      <trkpt lat="43.58622" lon="2.91168">
        <ele>859.2</ele>
        <time>2014-01-18T08:44:09Z</time>
      </trkpt>
      <trkpt lat="43.58623" lon="2.91168">
        <ele>859.6</ele>
        <time>2014-01-18T08:44:10Z</time>
      </trkpt>
      <trkpt lat="43.58625" lon="2.91168">
        <ele>859.6</ele>
        <time>2014-01-18T08:44:12Z</time>
      </trkpt>
      <trkpt lat="43.5863" lon="2.91167">
        <ele>859.6</ele>
        <time>2014-01-18T08:44:17Z</time>
      </trkpt>
      <trkpt lat="43.58633" lon="2.91167">
        <ele>860</ele>
        <time>2014-01-18T08:44:20Z</time>
      </trkpt>
      <trkpt lat="43.58635" lon="2.91167">
        <ele>860.4</ele>
        <time>2014-01-18T08:44:21Z</time>
      </trkpt>
      <trkpt lat="43.58636" lon="2.91167">
        <ele>860.8</ele>
        <time>2014-01-18T08:44:22Z</time>
      </trkpt>
      <trkpt lat="43.58637" lon="2.91168">
        <ele>861.2</ele>
        <time>2014-01-18T08:44:23Z</time>
      </trkpt>
      <trkpt lat="43.58638" lon="2.91168">
        <ele>861.8</ele>
        <time>2014-01-18T08:44:24Z</time>
      </trkpt>
      <trkpt lat="43.58641" lon="2.91169">
        <ele>861.8</ele>
        <time>2014-01-18T08:44:27Z</time>
      </trkpt>
      <trkpt lat="43.58649" lon="2.91168">
        <ele>861.8</ele>
        <time>2014-01-18T08:44:34Z</time>
      </trkpt>
      <trkpt lat="43.58655" lon="2.91169">
        <ele>862.2</ele>
        <time>2014-01-18T08:44:40Z</time>
      </trkpt>
      <trkpt lat="43.58657" lon="2.9117">
        <ele>862.6</ele>
        <time>2014-01-18T08:44:41Z</time>
      </trkpt>
      <trkpt lat="43.58658" lon="2.9117">
        <ele>863</ele>
        <time>2014-01-18T08:44:42Z</time>
      </trkpt>
      <trkpt lat="43.58659" lon="2.91171">
        <ele>863.4</ele>
        <time>2014-01-18T08:44:43Z</time>
      </trkpt>
      <trkpt lat="43.5866" lon="2.91171">
        <ele>863.8</ele>
        <time>2014-01-18T08:44:44Z</time>
      </trkpt>
      <trkpt lat="43.58661" lon="2.91171">
        <ele>863.8</ele>
        <time>2014-01-18T08:44:45Z</time>
      </trkpt>
      <trkpt lat="43.58667" lon="2.91174">
        <ele>863.8</ele>
        <time>2014-01-18T08:44:51Z</time>
      </trkpt>
      <trkpt lat="43.58671" lon="2.91177">
        <ele>864.2</ele>
        <time>2014-01-18T08:44:55Z</time>
      </trkpt>
      <trkpt lat="43.58672" lon="2.91177">
        <ele>864.6</ele>
        <time>2014-01-18T08:44:56Z</time>
      </trkpt>
      <trkpt lat="43.58673" lon="2.91178">
        <ele>865</ele>
        <time>2014-01-18T08:44:57Z</time>
      </trkpt>
      <trkpt lat="43.58674" lon="2.91178">
        <ele>865.4</ele>
        <time>2014-01-18T08:44:58Z</time>
      </trkpt>
      <trkpt lat="43.58675" lon="2.91178">
        <ele>865.8</ele>
        <time>2014-01-18T08:44:59Z</time>
      </trkpt>
      <trkpt lat="43.58676" lon="2.91179">
        <ele>865.8</ele>
        <time>2014-01-18T08:45:00Z</time>
      </trkpt>
      <trkpt lat="43.5868" lon="2.91183">
        <ele>866.4</ele>
        <time>2014-01-18T08:45:06Z</time>
      </trkpt>
      <trkpt lat="43.58681" lon="2.91184">
        <ele>866.8</ele>
        <time>2014-01-18T08:45:07Z</time>
      </trkpt>
      <trkpt lat="43.58682" lon="2.91185">
        <ele>867.2</ele>
        <time>2014-01-18T08:45:08Z</time>
      </trkpt>
      <trkpt lat="43.58682" lon="2.91185">
        <ele>868</ele>
        <time>2014-01-18T08:45:11Z</time>
      </trkpt>
      <trkpt lat="43.58683" lon="2.91188">
        <ele>868</ele>
        <time>2014-01-18T08:45:13Z</time>
      </trkpt>
      <trkpt lat="43.58689" lon="2.91202">
        <ele>868</ele>
        <time>2014-01-18T08:45:19Z</time>
      </trkpt>
      <trkpt lat="43.58694" lon="2.91215">
        <ele>868</ele>
        <time>2014-01-18T08:45:25Z</time>
      </trkpt>
      <trkpt lat="43.58695" lon="2.91216">
        <ele>868</ele>
        <time>2014-01-18T08:45:26Z</time>
      </trkpt>
      <trkpt lat="43.58696" lon="2.91218">
        <ele>868</ele>
        <time>2014-01-18T08:45:27Z</time>
      </trkpt>
      <trkpt lat="43.58699" lon="2.91227">
        <ele>868</ele>
        <time>2014-01-18T08:45:31Z</time>
      </trkpt>
      <trkpt lat="43.58704" lon="2.91243">
        <ele>868</ele>
        <time>2014-01-18T08:45:37Z</time>
      </trkpt>
      <trkpt lat="43.58705" lon="2.91247">
        <ele>868</ele>
        <time>2014-01-18T08:45:39Z</time>
      </trkpt>
      <trkpt lat="43.58706" lon="2.91249">
        <ele>868.4</ele>
        <time>2014-01-18T08:45:40Z</time>
      </trkpt>
      <trkpt lat="43.58706" lon="2.91251">
        <ele>868.8</ele>
        <time>2014-01-18T08:45:41Z</time>
      </trkpt>
      <trkpt lat="43.58707" lon="2.91254">
        <ele>869.2</ele>
        <time>2014-01-18T08:45:42Z</time>
      </trkpt>
      <trkpt lat="43.58708" lon="2.91256">
        <ele>869.6</ele>
        <time>2014-01-18T08:45:43Z</time>
      </trkpt>
      <trkpt lat="43.58709" lon="2.91258">
        <ele>870</ele>
        <time>2014-01-18T08:45:44Z</time>
      </trkpt>
      <trkpt lat="43.58711" lon="2.91262">
        <ele>870.6</ele>
        <time>2014-01-18T08:45:46Z</time>
      </trkpt>
      <trkpt lat="43.58712" lon="2.91264">
        <ele>871</ele>
        <time>2014-01-18T08:45:47Z</time>
      </trkpt>
      <trkpt lat="43.58713" lon="2.91266">
        <ele>871.6</ele>
        <time>2014-01-18T08:45:48Z</time>
      </trkpt>
      <trkpt lat="43.58714" lon="2.91268">
        <ele>872</ele>
        <time>2014-01-18T08:45:49Z</time>
      </trkpt>
      <trkpt lat="43.58715" lon="2.9127">
        <ele>872.6</ele>
        <time>2014-01-18T08:45:50Z</time>
      </trkpt>
      <trkpt lat="43.58717" lon="2.91273">
        <ele>873</ele>
        <time>2014-01-18T08:45:52Z</time>
      </trkpt>
      <trkpt lat="43.58718" lon="2.91275">
        <ele>873.4</ele>
        <time>2014-01-18T08:45:53Z</time>
      </trkpt>
      <trkpt lat="43.58719" lon="2.91277">
        <ele>874</ele>
        <time>2014-01-18T08:45:54Z</time>
      </trkpt>
      <trkpt lat="43.5872" lon="2.91279">
        <ele>874.4</ele>
        <time>2014-01-18T08:45:55Z</time>
      </trkpt>
      <trkpt lat="43.58721" lon="2.91281">
        <ele>874.8</ele>
        <time>2014-01-18T08:45:56Z</time>
      </trkpt>
      <trkpt lat="43.58722" lon="2.91282">
        <ele>874.8</ele>
        <time>2014-01-18T08:45:57Z</time>
      </trkpt>
      <trkpt lat="43.58726" lon="2.91286">
        <ele>875.2</ele>
        <time>2014-01-18T08:46:00Z</time>
      </trkpt>
      <trkpt lat="43.58727" lon="2.91287">
        <ele>875.8</ele>
        <time>2014-01-18T08:46:01Z</time>
      </trkpt>
      <trkpt lat="43.58729" lon="2.91288">
        <ele>876.2</ele>
        <time>2014-01-18T08:46:02Z</time>
      </trkpt>
      <trkpt lat="43.5873" lon="2.9129">
        <ele>877</ele>
        <time>2014-01-18T08:46:03Z</time>
      </trkpt>
      <trkpt lat="43.58732" lon="2.91292">
        <ele>877</ele>
        <time>2014-01-18T08:46:05Z</time>
      </trkpt>
      <trkpt lat="43.58733" lon="2.91293">
        <ele>877</ele>
        <time>2014-01-18T08:46:06Z</time>
      </trkpt>
      <trkpt lat="43.58742" lon="2.91301">
        <ele>877</ele>
        <time>2014-01-18T08:46:12Z</time>
      </trkpt>
      <trkpt lat="43.58752" lon="2.91307">
        <ele>877</ele>
        <time>2014-01-18T08:46:19Z</time>
      </trkpt>
      <trkpt lat="43.58755" lon="2.91307">
        <ele>877</ele>
        <time>2014-01-18T08:46:21Z</time>
      </trkpt>
      <trkpt lat="43.58764" lon="2.91308">
        <ele>877</ele>
        <time>2014-01-18T08:46:26Z</time>
      </trkpt>
      <trkpt lat="43.58773" lon="2.91308">
        <ele>877</ele>
        <time>2014-01-18T08:46:33Z</time>
      </trkpt>
      <trkpt lat="43.58775" lon="2.91308">
        <ele>877.4</ele>
        <time>2014-01-18T08:46:34Z</time>
      </trkpt>
      <trkpt lat="43.58776" lon="2.91308">
        <ele>877.8</ele>
        <time>2014-01-18T08:46:35Z</time>
      </trkpt>
      <trkpt lat="43.58778" lon="2.91308">
        <ele>878.2</ele>
        <time>2014-01-18T08:46:36Z</time>
      </trkpt>
      <trkpt lat="43.58779" lon="2.91308">
        <ele>878.8</ele>
        <time>2014-01-18T08:46:37Z</time>
      </trkpt>
      <trkpt lat="43.58781" lon="2.91308">
        <ele>879.2</ele>
        <time>2014-01-18T08:46:38Z</time>
      </trkpt>
      <trkpt lat="43.58783" lon="2.91308">
        <ele>879.2</ele>
        <time>2014-01-18T08:46:40Z</time>
      </trkpt>
      <trkpt lat="43.58791" lon="2.91305">
        <ele>879.2</ele>
        <time>2014-01-18T08:46:46Z</time>
      </trkpt>
      <trkpt lat="43.58797" lon="2.91302">
        <ele>879.6</ele>
        <time>2014-01-18T08:46:51Z</time>
      </trkpt>
      <trkpt lat="43.58798" lon="2.91302">
        <ele>880.4</ele>
        <time>2014-01-18T08:46:52Z</time>
      </trkpt>
      <trkpt lat="43.58799" lon="2.91303">
        <ele>880.8</ele>
        <time>2014-01-18T08:46:53Z</time>
      </trkpt>
      <trkpt lat="43.588" lon="2.91303">
        <ele>881.2</ele>
        <time>2014-01-18T08:46:54Z</time>
      </trkpt>
      <trkpt lat="43.58806" lon="2.91301">
        <ele>881.2</ele>
        <time>2014-01-18T08:46:59Z</time>
      </trkpt>
      <trkpt lat="43.58811" lon="2.91299">
        <ele>881.6</ele>
        <time>2014-01-18T08:47:03Z</time>
      </trkpt>
      <trkpt lat="43.58812" lon="2.91299">
        <ele>882</ele>
        <time>2014-01-18T08:47:04Z</time>
      </trkpt>
      <trkpt lat="43.58813" lon="2.91298">
        <ele>882.4</ele>
        <time>2014-01-18T08:47:05Z</time>
      </trkpt>
      <trkpt lat="43.58814" lon="2.91298">
        <ele>882.8</ele>
        <time>2014-01-18T08:47:06Z</time>
      </trkpt>
      <trkpt lat="43.58815" lon="2.91297">
        <ele>883.2</ele>
        <time>2014-01-18T08:47:07Z</time>
      </trkpt>
      <trkpt lat="43.58819" lon="2.91296">
        <ele>883.8</ele>
        <time>2014-01-18T08:47:11Z</time>
      </trkpt>
      <trkpt lat="43.5882" lon="2.91295">
        <ele>884.2</ele>
        <time>2014-01-18T08:47:12Z</time>
      </trkpt>
      <trkpt lat="43.58821" lon="2.91295">
        <ele>884.8</ele>
        <time>2014-01-18T08:47:13Z</time>
      </trkpt>
      <trkpt lat="43.58822" lon="2.91294">
        <ele>885.4</ele>
        <time>2014-01-18T08:47:14Z</time>
      </trkpt>
      <trkpt lat="43.58823" lon="2.91294">
        <ele>885.8</ele>
        <time>2014-01-18T08:47:15Z</time>
      </trkpt>
      <trkpt lat="43.58824" lon="2.91294">
        <ele>885.8</ele>
        <time>2014-01-18T08:47:17Z</time>
      </trkpt>
      <trkpt lat="43.58827" lon="2.91292">
        <ele>885.8</ele>
        <time>2014-01-18T08:47:20Z</time>
      </trkpt>
      <trkpt lat="43.58828" lon="2.91292">
        <ele>885.8</ele>
        <time>2014-01-18T08:47:21Z</time>
      </trkpt>
      <trkpt lat="43.58832" lon="2.9129">
        <ele>885.8</ele>
        <time>2014-01-18T08:47:25Z</time>
      </trkpt>
      <trkpt lat="43.58834" lon="2.91289">
        <ele>885.8</ele>
        <time>2014-01-18T08:47:27Z</time>
      </trkpt>
      <trkpt lat="43.58835" lon="2.91288">
        <ele>886.4</ele>
        <time>2014-01-18T08:47:28Z</time>
      </trkpt>
      <trkpt lat="43.58836" lon="2.91288">
        <ele>886.8</ele>
        <time>2014-01-18T08:47:29Z</time>
      </trkpt>
      <trkpt lat="43.58837" lon="2.91287">
        <ele>887.2</ele>
        <time>2014-01-18T08:47:30Z</time>
      </trkpt>
      <trkpt lat="43.58838" lon="2.91287">
        <ele>887.6</ele>
        <time>2014-01-18T08:47:31Z</time>
      </trkpt>
      <trkpt lat="43.58839" lon="2.91286">
        <ele>888</ele>
        <time>2014-01-18T08:47:32Z</time>
      </trkpt>
      <trkpt lat="43.5884" lon="2.91285">
        <ele>888</ele>
        <time>2014-01-18T08:47:33Z</time>
      </trkpt>
      <trkpt lat="43.58842" lon="2.91284">
        <ele>888</ele>
        <time>2014-01-18T08:47:35Z</time>
      </trkpt>
      <trkpt lat="43.58845" lon="2.91282">
        <ele>888.4</ele>
        <time>2014-01-18T08:47:38Z</time>
      </trkpt>
      <trkpt lat="43.58846" lon="2.91282">
        <ele>888.8</ele>
        <time>2014-01-18T08:47:39Z</time>
      </trkpt>
      <trkpt lat="43.58847" lon="2.91283">
        <ele>889.2</ele>
        <time>2014-01-18T08:47:40Z</time>
      </trkpt>
      <trkpt lat="43.58847" lon="2.91283">
        <ele>889.6</ele>
        <time>2014-01-18T08:47:41Z</time>
      </trkpt>
      <trkpt lat="43.58849" lon="2.91282">
        <ele>890</ele>
        <time>2014-01-18T08:47:42Z</time>
      </trkpt>
      <trkpt lat="43.5885" lon="2.91282">
        <ele>890</ele>
        <time>2014-01-18T08:47:44Z</time>
      </trkpt>
      <trkpt lat="43.58851" lon="2.91282">
        <ele>890</ele>
        <time>2014-01-18T08:47:45Z</time>
      </trkpt>
      <trkpt lat="43.58854" lon="2.91282">
        <ele>890</ele>
        <time>2014-01-18T08:47:48Z</time>
      </trkpt>
      <trkpt lat="43.58855" lon="2.91281">
        <ele>890.4</ele>
        <time>2014-01-18T08:47:49Z</time>
      </trkpt>
      <trkpt lat="43.58856" lon="2.9128">
        <ele>890.8</ele>
        <time>2014-01-18T08:47:50Z</time>
      </trkpt>
      <trkpt lat="43.58857" lon="2.91279">
        <ele>891.2</ele>
        <time>2014-01-18T08:47:51Z</time>
      </trkpt>
      <trkpt lat="43.58858" lon="2.91279">
        <ele>891.6</ele>
        <time>2014-01-18T08:47:52Z</time>
      </trkpt>
      <trkpt lat="43.58859" lon="2.91279">
        <ele>892</ele>
        <time>2014-01-18T08:47:53Z</time>
      </trkpt>
      <trkpt lat="43.5886" lon="2.91279">
        <ele>892</ele>
        <time>2014-01-18T08:47:54Z</time>
      </trkpt>
      <trkpt lat="43.58862" lon="2.91279">
        <ele>892</ele>
        <time>2014-01-18T08:47:56Z</time>
      </trkpt>
      <trkpt lat="43.58864" lon="2.91279">
        <ele>892</ele>
        <time>2014-01-18T08:47:58Z</time>
      </trkpt>
      <trkpt lat="43.58867" lon="2.91278">
        <ele>892.4</ele>
        <time>2014-01-18T08:48:01Z</time>
      </trkpt>
      <trkpt lat="43.58868" lon="2.91278">
        <ele>893</ele>
        <time>2014-01-18T08:48:02Z</time>
      </trkpt>
      <trkpt lat="43.58868" lon="2.91278">
        <ele>893.4</ele>
        <time>2014-01-18T08:48:03Z</time>
      </trkpt>
      <trkpt lat="43.58869" lon="2.91277">
        <ele>893.8</ele>
        <time>2014-01-18T08:48:04Z</time>
      </trkpt>
      <trkpt lat="43.5887" lon="2.91277">
        <ele>894.2</ele>
        <time>2014-01-18T08:48:05Z</time>
      </trkpt>
      <trkpt lat="43.58873" lon="2.91276">
        <ele>894.2</ele>
        <time>2014-01-18T08:48:07Z</time>
      </trkpt>
      <trkpt lat="43.58877" lon="2.91278">
        <ele>894.2</ele>
        <time>2014-01-18T08:48:11Z</time>
      </trkpt>
      <trkpt lat="43.5888" lon="2.91276">
        <ele>894.6</ele>
        <time>2014-01-18T08:48:15Z</time>
      </trkpt>
      <trkpt lat="43.58881" lon="2.91276">
        <ele>895</ele>
        <time>2014-01-18T08:48:16Z</time>
      </trkpt>
      <trkpt lat="43.58882" lon="2.91276">
        <ele>895.4</ele>
        <time>2014-01-18T08:48:17Z</time>
      </trkpt>
      <trkpt lat="43.58883" lon="2.91275">
        <ele>895.8</ele>
        <time>2014-01-18T08:48:18Z</time>
      </trkpt>
      <trkpt lat="43.58884" lon="2.91275">
        <ele>896.2</ele>
        <time>2014-01-18T08:48:19Z</time>
      </trkpt>
      <trkpt lat="43.58888" lon="2.91274">
        <ele>896.2</ele>
        <time>2014-01-18T08:48:22Z</time>
      </trkpt>
      <trkpt lat="43.58893" lon="2.91273">
        <ele>896.6</ele>
        <time>2014-01-18T08:48:27Z</time>
      </trkpt>
      <trkpt lat="43.58893" lon="2.91273">
        <ele>897.2</ele>
        <time>2014-01-18T08:48:28Z</time>
      </trkpt>
      <trkpt lat="43.58894" lon="2.91273">
        <ele>897.6</ele>
        <time>2014-01-18T08:48:29Z</time>
      </trkpt>
      <trkpt lat="43.58895" lon="2.91272">
        <ele>898</ele>
        <time>2014-01-18T08:48:30Z</time>
      </trkpt>
      <trkpt lat="43.58896" lon="2.91272">
        <ele>898.4</ele>
        <time>2014-01-18T08:48:31Z</time>
      </trkpt>
      <trkpt lat="43.58899" lon="2.9127">
        <ele>898.4</ele>
        <time>2014-01-18T08:48:34Z</time>
      </trkpt>
      <trkpt lat="43.58904" lon="2.91271">
        <ele>898.8</ele>
        <time>2014-01-18T08:48:39Z</time>
      </trkpt>
      <trkpt lat="43.58905" lon="2.91271">
        <ele>899.4</ele>
        <time>2014-01-18T08:48:40Z</time>
      </trkpt>
      <trkpt lat="43.58906" lon="2.9127">
        <ele>899.8</ele>
        <time>2014-01-18T08:48:41Z</time>
      </trkpt>
      <trkpt lat="43.58907" lon="2.9127">
        <ele>900.2</ele>
        <time>2014-01-18T08:48:42Z</time>
      </trkpt>
      <trkpt lat="43.58909" lon="2.91269">
        <ele>900.6</ele>
        <time>2014-01-18T08:48:43Z</time>
      </trkpt>
      <trkpt lat="43.5891" lon="2.91269">
        <ele>900.6</ele>
        <time>2014-01-18T08:48:44Z</time>
      </trkpt>
      <trkpt lat="43.58917" lon="2.91266">
        <ele>901</ele>
        <time>2014-01-18T08:48:50Z</time>
      </trkpt>
      <trkpt lat="43.58918" lon="2.91265">
        <ele>901.6</ele>
        <time>2014-01-18T08:48:51Z</time>
      </trkpt>
      <trkpt lat="43.58918" lon="2.91265">
        <ele>902</ele>
        <time>2014-01-18T08:48:52Z</time>
      </trkpt>
      <trkpt lat="43.58918" lon="2.91264">
        <ele>904.6</ele>
        <time>2014-01-18T08:48:56Z</time>
      </trkpt>
      <trkpt lat="43.58919" lon="2.91263">
        <ele>905</ele>
        <time>2014-01-18T08:48:57Z</time>
      </trkpt>
      <trkpt lat="43.5892" lon="2.91263">
        <ele>905</ele>
        <time>2014-01-18T08:48:58Z</time>
      </trkpt>
      <trkpt lat="43.58922" lon="2.91263">
        <ele>905</ele>
        <time>2014-01-18T08:49:00Z</time>
      </trkpt>
      <trkpt lat="43.58924" lon="2.91262">
        <ele>905</ele>
        <time>2014-01-18T08:49:03Z</time>
      </trkpt>
      <trkpt lat="43.58924" lon="2.91262">
        <ele>905</ele>
        <time>2014-01-18T08:49:05Z</time>
      </trkpt>
      <trkpt lat="43.58927" lon="2.9126">
        <ele>905</ele>
        <time>2014-01-18T08:49:09Z</time>
      </trkpt>
      <trkpt lat="43.58929" lon="2.91259">
        <ele>905.4</ele>
        <time>2014-01-18T08:49:13Z</time>
      </trkpt>
      <trkpt lat="43.5893" lon="2.91259">
        <ele>905.8</ele>
        <time>2014-01-18T08:49:14Z</time>
      </trkpt>
      <trkpt lat="43.5893" lon="2.91259">
        <ele>906.4</ele>
        <time>2014-01-18T08:49:15Z</time>
      </trkpt>
      <trkpt lat="43.58931" lon="2.91259">
        <ele>906.8</ele>
        <time>2014-01-18T08:49:16Z</time>
      </trkpt>
      <trkpt lat="43.58932" lon="2.91258">
        <ele>907.2</ele>
        <time>2014-01-18T08:49:17Z</time>
      </trkpt>
      <trkpt lat="43.58934" lon="2.91257">
        <ele>907.6</ele>
        <time>2014-01-18T08:49:20Z</time>
      </trkpt>
      <trkpt lat="43.58934" lon="2.91257">
        <ele>908.4</ele>
        <time>2014-01-18T08:49:21Z</time>
      </trkpt>
      <trkpt lat="43.58934" lon="2.91257">
        <ele>909</ele>
        <time>2014-01-18T08:49:22Z</time>
      </trkpt>
      <trkpt lat="43.58935" lon="2.91257">
        <ele>909.4</ele>
        <time>2014-01-18T08:49:23Z</time>
      </trkpt>
      <trkpt lat="43.58938" lon="2.91256">
        <ele>909.4</ele>
        <time>2014-01-18T08:49:27Z</time>
      </trkpt>
      <trkpt lat="43.5894" lon="2.91257">
        <ele>909.8</ele>
        <time>2014-01-18T08:49:29Z</time>
      </trkpt>
      <trkpt lat="43.58941" lon="2.91256">
        <ele>910.2</ele>
        <time>2014-01-18T08:49:30Z</time>
      </trkpt>
      <trkpt lat="43.58942" lon="2.91256">
        <ele>910.6</ele>
        <time>2014-01-18T08:49:31Z</time>
      </trkpt>
      <trkpt lat="43.58943" lon="2.91256">
        <ele>911</ele>
        <time>2014-01-18T08:49:32Z</time>
      </trkpt>
      <trkpt lat="43.58943" lon="2.91256">
        <ele>911.6</ele>
        <time>2014-01-18T08:49:33Z</time>
      </trkpt>
      <trkpt lat="43.58944" lon="2.91256">
        <ele>911.6</ele>
        <time>2014-01-18T08:49:34Z</time>
      </trkpt>
      <trkpt lat="43.5895" lon="2.91253">
        <ele>911.6</ele>
        <time>2014-01-18T08:49:42Z</time>
      </trkpt>
      <trkpt lat="43.58956" lon="2.9125">
        <ele>911.6</ele>
        <time>2014-01-18T08:49:49Z</time>
      </trkpt>
      <trkpt lat="43.58958" lon="2.9125">
        <ele>912</ele>
        <time>2014-01-18T08:49:52Z</time>
      </trkpt>
      <trkpt lat="43.58959" lon="2.9125">
        <ele>912.4</ele>
        <time>2014-01-18T08:49:53Z</time>
      </trkpt>
      <trkpt lat="43.58961" lon="2.9125">
        <ele>912.8</ele>
        <time>2014-01-18T08:49:54Z</time>
      </trkpt>
      <trkpt lat="43.58962" lon="2.9125">
        <ele>913.4</ele>
        <time>2014-01-18T08:49:55Z</time>
      </trkpt>
      <trkpt lat="43.58963" lon="2.9125">
        <ele>913.8</ele>
        <time>2014-01-18T08:49:56Z</time>
      </trkpt>
      <trkpt lat="43.58971" lon="2.91252">
        <ele>913.8</ele>
        <time>2014-01-18T08:50:05Z</time>
      </trkpt>
      <trkpt lat="43.58973" lon="2.91252">
        <ele>913.8</ele>
        <time>2014-01-18T08:50:07Z</time>
      </trkpt>
      <trkpt lat="43.58976" lon="2.91252">
        <ele>913.8</ele>
        <time>2014-01-18T08:50:11Z</time>
      </trkpt>
      <trkpt lat="43.58977" lon="2.91252">
        <ele>914.2</ele>
        <time>2014-01-18T08:50:12Z</time>
      </trkpt>
      <trkpt lat="43.58978" lon="2.91252">
        <ele>914.6</ele>
        <time>2014-01-18T08:50:13Z</time>
      </trkpt>
      <trkpt lat="43.58978" lon="2.91252">
        <ele>915</ele>
        <time>2014-01-18T08:50:14Z</time>
      </trkpt>
      <trkpt lat="43.58979" lon="2.91252">
        <ele>915.4</ele>
        <time>2014-01-18T08:50:15Z</time>
      </trkpt>
      <trkpt lat="43.5898" lon="2.91252">
        <ele>915.8</ele>
        <time>2014-01-18T08:50:16Z</time>
      </trkpt>
      <trkpt lat="43.58981" lon="2.91252">
        <ele>915.8</ele>
        <time>2014-01-18T08:50:18Z</time>
      </trkpt>
      <trkpt lat="43.58986" lon="2.91252">
        <ele>916.2</ele>
        <time>2014-01-18T08:50:23Z</time>
      </trkpt>
      <trkpt lat="43.58987" lon="2.91252">
        <ele>916.8</ele>
        <time>2014-01-18T08:50:24Z</time>
      </trkpt>
      <trkpt lat="43.58987" lon="2.91252">
        <ele>917.2</ele>
        <time>2014-01-18T08:50:25Z</time>
      </trkpt>
      <trkpt lat="43.58988" lon="2.91252">
        <ele>917.6</ele>
        <time>2014-01-18T08:50:26Z</time>
      </trkpt>
      <trkpt lat="43.58989" lon="2.91252">
        <ele>918</ele>
        <time>2014-01-18T08:50:27Z</time>
      </trkpt>
      <trkpt lat="43.5899" lon="2.91252">
        <ele>918</ele>
        <time>2014-01-18T08:50:28Z</time>
      </trkpt>
      <trkpt lat="43.58991" lon="2.91252">
        <ele>918.4</ele>
        <time>2014-01-18T08:50:29Z</time>
      </trkpt>
      <trkpt lat="43.58992" lon="2.91252">
        <ele>918.8</ele>
        <time>2014-01-18T08:50:30Z</time>
      </trkpt>
      <trkpt lat="43.58993" lon="2.91252">
        <ele>919.2</ele>
        <time>2014-01-18T08:50:31Z</time>
      </trkpt>
      <trkpt lat="43.58993" lon="2.91252">
        <ele>919.6</ele>
        <time>2014-01-18T08:50:32Z</time>
      </trkpt>
      <trkpt lat="43.58994" lon="2.91252">
        <ele>920</ele>
        <time>2014-01-18T08:50:33Z</time>
      </trkpt>
      <trkpt lat="43.58999" lon="2.91254">
        <ele>920</ele>
        <time>2014-01-18T08:50:38Z</time>
      </trkpt>
      <trkpt lat="43.59007" lon="2.91256">
        <ele>920</ele>
        <time>2014-01-18T08:50:46Z</time>
      </trkpt>
      <trkpt lat="43.59015" lon="2.9126">
        <ele>920</ele>
        <time>2014-01-18T08:50:54Z</time>
      </trkpt>
      <trkpt lat="43.59016" lon="2.91261">
        <ele>920.4</ele>
        <time>2014-01-18T08:50:55Z</time>
      </trkpt>
      <trkpt lat="43.59017" lon="2.91261">
        <ele>920.8</ele>
        <time>2014-01-18T08:50:56Z</time>
      </trkpt>
      <trkpt lat="43.59018" lon="2.91262">
        <ele>921.2</ele>
        <time>2014-01-18T08:50:57Z</time>
      </trkpt>
      <trkpt lat="43.59019" lon="2.91262">
        <ele>922</ele>
        <time>2014-01-18T08:50:58Z</time>
      </trkpt>
      <trkpt lat="43.59022" lon="2.91263">
        <ele>922</ele>
        <time>2014-01-18T08:51:01Z</time>
      </trkpt>
      <trkpt lat="43.59022" lon="2.91264">
        <ele>922</ele>
        <time>2014-01-18T08:51:02Z</time>
      </trkpt>
      <trkpt lat="43.59027" lon="2.91266">
        <ele>922</ele>
        <time>2014-01-18T08:51:06Z</time>
      </trkpt>
      <trkpt lat="43.59036" lon="2.91272">
        <ele>922</ele>
        <time>2014-01-18T08:51:11Z</time>
      </trkpt>
      <trkpt lat="43.59039" lon="2.91274">
        <ele>922</ele>
        <time>2014-01-18T08:51:13Z</time>
      </trkpt>
      <trkpt lat="43.59042" lon="2.91276">
        <ele>922.4</ele>
        <time>2014-01-18T08:51:15Z</time>
      </trkpt>
      <trkpt lat="43.59044" lon="2.91277">
        <ele>922.8</ele>
        <time>2014-01-18T08:51:16Z</time>
      </trkpt>
      <trkpt lat="43.59045" lon="2.91277">
        <ele>923.2</ele>
        <time>2014-01-18T08:51:17Z</time>
      </trkpt>
      <trkpt lat="43.59047" lon="2.91278">
        <ele>923.6</ele>
        <time>2014-01-18T08:51:18Z</time>
      </trkpt>
      <trkpt lat="43.59048" lon="2.91279">
        <ele>924</ele>
        <time>2014-01-18T08:51:19Z</time>
      </trkpt>
      <trkpt lat="43.5905" lon="2.9128">
        <ele>924</ele>
        <time>2014-01-18T08:51:20Z</time>
      </trkpt>
      <trkpt lat="43.59055" lon="2.91283">
        <ele>924.6</ele>
        <time>2014-01-18T08:51:24Z</time>
      </trkpt>
      <trkpt lat="43.59057" lon="2.91285">
        <ele>925</ele>
        <time>2014-01-18T08:51:25Z</time>
      </trkpt>
      <trkpt lat="43.59057" lon="2.91286">
        <ele>925.4</ele>
        <time>2014-01-18T08:51:26Z</time>
      </trkpt>
      <trkpt lat="43.59058" lon="2.91288">
        <ele>926</ele>
        <time>2014-01-18T08:51:27Z</time>
      </trkpt>
      <trkpt lat="43.59059" lon="2.91288">
        <ele>926.4</ele>
        <time>2014-01-18T08:51:28Z</time>
      </trkpt>
      <trkpt lat="43.59061" lon="2.91288">
        <ele>926.4</ele>
        <time>2014-01-18T08:51:31Z</time>
      </trkpt>
      <trkpt lat="43.59061" lon="2.91288">
        <ele>926.4</ele>
        <time>2014-01-18T08:51:32Z</time>
      </trkpt>
      <trkpt lat="43.59063" lon="2.91287">
        <ele>926.4</ele>
        <time>2014-01-18T08:51:35Z</time>
      </trkpt>
      <trkpt lat="43.59064" lon="2.91286">
        <ele>926.4</ele>
        <time>2014-01-18T08:51:36Z</time>
      </trkpt>
      <trkpt lat="43.59071" lon="2.91283">
        <ele>926.8</ele>
        <time>2014-01-18T08:51:43Z</time>
      </trkpt>
      <trkpt lat="43.59072" lon="2.91283">
        <ele>927.4</ele>
        <time>2014-01-18T08:51:44Z</time>
      </trkpt>
      <trkpt lat="43.59073" lon="2.91283">
        <ele>927.8</ele>
        <time>2014-01-18T08:51:45Z</time>
      </trkpt>
      <trkpt lat="43.59074" lon="2.91283">
        <ele>928.2</ele>
        <time>2014-01-18T08:51:46Z</time>
      </trkpt>
      <trkpt lat="43.59075" lon="2.91282">
        <ele>928.8</ele>
        <time>2014-01-18T08:51:47Z</time>
      </trkpt>
      <trkpt lat="43.59078" lon="2.91281">
        <ele>928.8</ele>
        <time>2014-01-18T08:51:51Z</time>
      </trkpt>
      <trkpt lat="43.59079" lon="2.9128">
        <ele>928.8</ele>
        <time>2014-01-18T08:51:53Z</time>
      </trkpt>
      <trkpt lat="43.59079" lon="2.9128">
        <ele>930.6</ele>
        <time>2014-01-18T08:52:00Z</time>
      </trkpt>
      <trkpt lat="43.59079" lon="2.9128">
        <ele>931</ele>
        <time>2014-01-18T08:52:01Z</time>
      </trkpt>
      <trkpt lat="43.59079" lon="2.91281">
        <ele>931</ele>
        <time>2014-01-18T08:52:02Z</time>
      </trkpt>
      <trkpt lat="43.59079" lon="2.91281">
        <ele>931</ele>
        <time>2014-01-18T08:52:03Z</time>
      </trkpt>
      <trkpt lat="43.59079" lon="2.91281">
        <ele>931</ele>
        <time>2014-01-18T08:52:04Z</time>
      </trkpt>
      <trkpt lat="43.59079" lon="2.9128">
        <ele>930.6</ele>
        <time>2014-01-18T08:52:05Z</time>
      </trkpt>
      <trkpt lat="43.5908" lon="2.9128">
        <ele>930.2</ele>
        <time>2014-01-18T08:52:06Z</time>
      </trkpt>
      <trkpt lat="43.5908" lon="2.9128">
        <ele>929.2</ele>
        <time>2014-01-18T08:52:08Z</time>
      </trkpt>
      <trkpt lat="43.5908" lon="2.91279">
        <ele>928.8</ele>
        <time>2014-01-18T08:52:09Z</time>
      </trkpt>
      <trkpt lat="43.5908" lon="2.91277">
        <ele>928.8</ele>
        <time>2014-01-18T08:52:12Z</time>
      </trkpt>
      <trkpt lat="43.59079" lon="2.91275">
        <ele>928.8</ele>
        <time>2014-01-18T08:52:16Z</time>
      </trkpt>
      <trkpt lat="43.59079" lon="2.91275">
        <ele>928.8</ele>
        <time>2014-01-18T08:52:19Z</time>
      </trkpt>
      <trkpt lat="43.59079" lon="2.91274">
        <ele>928.8</ele>
        <time>2014-01-18T08:52:20Z</time>
      </trkpt>
      <trkpt lat="43.59081" lon="2.91271">
        <ele>929.2</ele>
        <time>2014-01-18T08:52:24Z</time>
      </trkpt>
      <trkpt lat="43.59081" lon="2.9127">
        <ele>929.8</ele>
        <time>2014-01-18T08:52:25Z</time>
      </trkpt>
      <trkpt lat="43.59081" lon="2.9127">
        <ele>930.2</ele>
        <time>2014-01-18T08:52:26Z</time>
      </trkpt>
      <trkpt lat="43.59081" lon="2.91269">
        <ele>930.6</ele>
        <time>2014-01-18T08:52:27Z</time>
      </trkpt>
      <trkpt lat="43.59081" lon="2.91269">
        <ele>931</ele>
        <time>2014-01-18T08:52:28Z</time>
      </trkpt>
      <trkpt lat="43.59081" lon="2.91268">
        <ele>931</ele>
        <time>2014-01-18T08:52:30Z</time>
      </trkpt>
      <trkpt lat="43.59081" lon="2.91268">
        <ele>931</ele>
        <time>2014-01-18T08:52:31Z</time>
      </trkpt>
      <trkpt lat="43.59082" lon="2.91267">
        <ele>931.6</ele>
        <time>2014-01-18T08:52:32Z</time>
      </trkpt>
      <trkpt lat="43.59082" lon="2.91266">
        <ele>932</ele>
        <time>2014-01-18T08:52:33Z</time>
      </trkpt>
      <trkpt lat="43.59082" lon="2.91264">
        <ele>932.4</ele>
        <time>2014-01-18T08:52:34Z</time>
      </trkpt>
      <trkpt lat="43.59083" lon="2.91264">
        <ele>933</ele>
        <time>2014-01-18T08:52:35Z</time>
      </trkpt>
      <trkpt lat="43.59083" lon="2.91263">
        <ele>933.4</ele>
        <time>2014-01-18T08:52:36Z</time>
      </trkpt>
      <trkpt lat="43.59083" lon="2.9126">
        <ele>933.4</ele>
        <time>2014-01-18T08:52:38Z</time>
      </trkpt>
      <trkpt lat="43.59084" lon="2.91258">
        <ele>933.8</ele>
        <time>2014-01-18T08:52:41Z</time>
      </trkpt>
      <trkpt lat="43.59084" lon="2.91257">
        <ele>934.2</ele>
        <time>2014-01-18T08:52:42Z</time>
      </trkpt>
      <trkpt lat="43.59085" lon="2.91257">
        <ele>934.8</ele>
        <time>2014-01-18T08:52:43Z</time>
      </trkpt>
      <trkpt lat="43.59085" lon="2.91256">
        <ele>935.6</ele>
        <time>2014-01-18T08:52:45Z</time>
      </trkpt>
      <trkpt lat="43.59085" lon="2.91252">
        <ele>936</ele>
        <time>2014-01-18T08:52:48Z</time>
      </trkpt>
      <trkpt lat="43.59085" lon="2.91251">
        <ele>936.4</ele>
        <time>2014-01-18T08:52:49Z</time>
      </trkpt>
      <trkpt lat="43.59085" lon="2.91251">
        <ele>937</ele>
        <time>2014-01-18T08:52:50Z</time>
      </trkpt>
      <trkpt lat="43.59085" lon="2.9125">
        <ele>937.4</ele>
        <time>2014-01-18T08:52:51Z</time>
      </trkpt>
      <trkpt lat="43.59086" lon="2.91249">
        <ele>937.8</ele>
        <time>2014-01-18T08:52:52Z</time>
      </trkpt>
      <trkpt lat="43.59085" lon="2.91249">
        <ele>937.8</ele>
        <time>2014-01-18T08:52:53Z</time>
      </trkpt>
      <trkpt lat="43.59086" lon="2.91245">
        <ele>937.8</ele>
        <time>2014-01-18T08:52:57Z</time>
      </trkpt>
      <trkpt lat="43.59086" lon="2.91245">
        <ele>937.8</ele>
        <time>2014-01-18T08:52:58Z</time>
      </trkpt>
      <trkpt lat="43.59087" lon="2.91241">
        <ele>937.8</ele>
        <time>2014-01-18T08:53:02Z</time>
      </trkpt>
      <trkpt lat="43.59087" lon="2.9124">
        <ele>938.2</ele>
        <time>2014-01-18T08:53:05Z</time>
      </trkpt>
      <trkpt lat="43.59087" lon="2.91239">
        <ele>938.6</ele>
        <time>2014-01-18T08:53:06Z</time>
      </trkpt>
      <trkpt lat="43.59088" lon="2.91238">
        <ele>939</ele>
        <time>2014-01-18T08:53:07Z</time>
      </trkpt>
      <trkpt lat="43.59088" lon="2.91238">
        <ele>939.6</ele>
        <time>2014-01-18T08:53:08Z</time>
      </trkpt>
      <trkpt lat="43.59088" lon="2.91236">
        <ele>940</ele>
        <time>2014-01-18T08:53:11Z</time>
      </trkpt>
      <trkpt lat="43.59088" lon="2.91234">
        <ele>940</ele>
        <time>2014-01-18T08:53:13Z</time>
      </trkpt>
      <trkpt lat="43.59089" lon="2.91234">
        <ele>940.4</ele>
        <time>2014-01-18T08:53:14Z</time>
      </trkpt>
      <trkpt lat="43.59089" lon="2.91233">
        <ele>941</ele>
        <time>2014-01-18T08:53:15Z</time>
      </trkpt>
      <trkpt lat="43.59089" lon="2.91233">
        <ele>942</ele>
        <time>2014-01-18T08:53:17Z</time>
      </trkpt>
      <trkpt lat="43.59089" lon="2.91232">
        <ele>942.4</ele>
        <time>2014-01-18T08:53:18Z</time>
      </trkpt>
      <trkpt lat="43.5909" lon="2.91231">
        <ele>942.4</ele>
        <time>2014-01-18T08:53:21Z</time>
      </trkpt>
      <trkpt lat="43.5909" lon="2.9123">
        <ele>942.8</ele>
        <time>2014-01-18T08:53:22Z</time>
      </trkpt>
      <trkpt lat="43.5909" lon="2.91228">
        <ele>943.4</ele>
        <time>2014-01-18T08:53:23Z</time>
      </trkpt>
      <trkpt lat="43.5909" lon="2.91227">
        <ele>943.8</ele>
        <time>2014-01-18T08:53:24Z</time>
      </trkpt>
      <trkpt lat="43.59091" lon="2.91226">
        <ele>944.2</ele>
        <time>2014-01-18T08:53:25Z</time>
      </trkpt>
      <trkpt lat="43.59091" lon="2.91225">
        <ele>944.8</ele>
        <time>2014-01-18T08:53:26Z</time>
      </trkpt>
      <trkpt lat="43.59091" lon="2.91225">
        <ele>944.8</ele>
        <time>2014-01-18T08:53:27Z</time>
      </trkpt>
      <trkpt lat="43.59091" lon="2.91224">
        <ele>944.8</ele>
        <time>2014-01-18T08:53:29Z</time>
      </trkpt>
      <trkpt lat="43.59091" lon="2.91224">
        <ele>944.8</ele>
        <time>2014-01-18T08:53:30Z</time>
      </trkpt>
      <trkpt lat="43.59091" lon="2.91223">
        <ele>944.8</ele>
        <time>2014-01-18T08:53:31Z</time>
      </trkpt>
      <trkpt lat="43.59091" lon="2.91219">
        <ele>945.2</ele>
        <time>2014-01-18T08:53:34Z</time>
      </trkpt>
      <trkpt lat="43.59092" lon="2.91218">
        <ele>945.6</ele>
        <time>2014-01-18T08:53:35Z</time>
      </trkpt>
      <trkpt lat="43.59092" lon="2.91218">
        <ele>946.2</ele>
        <time>2014-01-18T08:53:36Z</time>
      </trkpt>
      <trkpt lat="43.59092" lon="2.91218">
        <ele>946.6</ele>
        <time>2014-01-18T08:53:37Z</time>
      </trkpt>
      <trkpt lat="43.59092" lon="2.91217">
        <ele>947</ele>
        <time>2014-01-18T08:53:38Z</time>
      </trkpt>
      <trkpt lat="43.59092" lon="2.91217">
        <ele>947</ele>
        <time>2014-01-18T08:53:39Z</time>
      </trkpt>
      <trkpt lat="43.59092" lon="2.91214">
        <ele>947.6</ele>
        <time>2014-01-18T08:53:42Z</time>
      </trkpt>
      <trkpt lat="43.59093" lon="2.91213">
        <ele>948</ele>
        <time>2014-01-18T08:53:43Z</time>
      </trkpt>
      <trkpt lat="43.59093" lon="2.91213">
        <ele>948.4</ele>
        <time>2014-01-18T08:53:44Z</time>
      </trkpt>
      <trkpt lat="43.59093" lon="2.91212">
        <ele>949.2</ele>
        <time>2014-01-18T08:53:46Z</time>
      </trkpt>
      <trkpt lat="43.59094" lon="2.91209">
        <ele>949.2</ele>
        <time>2014-01-18T08:53:49Z</time>
      </trkpt>
      <trkpt lat="43.59094" lon="2.91208">
        <ele>949.2</ele>
        <time>2014-01-18T08:53:50Z</time>
      </trkpt>
      <trkpt lat="43.59094" lon="2.91207">
        <ele>949.6</ele>
        <time>2014-01-18T08:53:51Z</time>
      </trkpt>
      <trkpt lat="43.59095" lon="2.91206">
        <ele>950</ele>
        <time>2014-01-18T08:53:52Z</time>
      </trkpt>
      <trkpt lat="43.59095" lon="2.91205">
        <ele>950.4</ele>
        <time>2014-01-18T08:53:53Z</time>
      </trkpt>
      <trkpt lat="43.59096" lon="2.91204">
        <ele>951</ele>
        <time>2014-01-18T08:53:54Z</time>
      </trkpt>
      <trkpt lat="43.59097" lon="2.91204">
        <ele>951.4</ele>
        <time>2014-01-18T08:53:55Z</time>
      </trkpt>
      <trkpt lat="43.59097" lon="2.91205">
        <ele>951.4</ele>
        <time>2014-01-18T08:53:56Z</time>
      </trkpt>
      <trkpt lat="43.59098" lon="2.91205">
        <ele>951.4</ele>
        <time>2014-01-18T08:53:57Z</time>
      </trkpt>
      <trkpt lat="43.59098" lon="2.91203">
        <ele>951.4</ele>
        <time>2014-01-18T08:54:33Z</time>
      </trkpt>
      <trkpt lat="43.59098" lon="2.91202">
        <ele>951.8</ele>
        <time>2014-01-18T08:54:34Z</time>
      </trkpt>
      <trkpt lat="43.59098" lon="2.91202">
        <ele>952.2</ele>
        <time>2014-01-18T08:54:35Z</time>
      </trkpt>
      <trkpt lat="43.59099" lon="2.912">
        <ele>952.6</ele>
        <time>2014-01-18T08:54:36Z</time>
      </trkpt>
      <trkpt lat="43.59099" lon="2.91199">
        <ele>953</ele>
        <time>2014-01-18T08:54:37Z</time>
      </trkpt>
      <trkpt lat="43.591" lon="2.91198">
        <ele>953.4</ele>
        <time>2014-01-18T08:54:38Z</time>
      </trkpt>
      <trkpt lat="43.591" lon="2.91196">
        <ele>953.4</ele>
        <time>2014-01-18T08:54:40Z</time>
      </trkpt>
      <trkpt lat="43.591" lon="2.91195">
        <ele>953.4</ele>
        <time>2014-01-18T08:54:41Z</time>
      </trkpt>
      <trkpt lat="43.591" lon="2.91194">
        <ele>953.4</ele>
        <time>2014-01-18T08:54:43Z</time>
      </trkpt>
      <trkpt lat="43.591" lon="2.91194">
        <ele>953.4</ele>
        <time>2014-01-18T08:54:44Z</time>
      </trkpt>
      <trkpt lat="43.591" lon="2.91192">
        <ele>954</ele>
        <time>2014-01-18T08:54:46Z</time>
      </trkpt>
      <trkpt lat="43.59101" lon="2.91191">
        <ele>954.4</ele>
        <time>2014-01-18T08:54:47Z</time>
      </trkpt>
      <trkpt lat="43.59101" lon="2.9119">
        <ele>955</ele>
        <time>2014-01-18T08:54:48Z</time>
      </trkpt>
      <trkpt lat="43.591" lon="2.91189">
        <ele>955.6</ele>
        <time>2014-01-18T08:54:49Z</time>
      </trkpt>
      <trkpt lat="43.591" lon="2.91188">
        <ele>956</ele>
        <time>2014-01-18T08:54:50Z</time>
      </trkpt>
      <trkpt lat="43.591" lon="2.91188">
        <ele>956</ele>
        <time>2014-01-18T08:54:51Z</time>
      </trkpt>
      <trkpt lat="43.59099" lon="2.91188">
        <ele>956</ele>
        <time>2014-01-18T08:54:52Z</time>
      </trkpt>
      <trkpt lat="43.59099" lon="2.91187">
        <ele>956</ele>
        <time>2014-01-18T08:54:54Z</time>
      </trkpt>
      <trkpt lat="43.59099" lon="2.91186">
        <ele>956</ele>
        <time>2014-01-18T08:54:57Z</time>
      </trkpt>
      <trkpt lat="43.591" lon="2.91184">
        <ele>956</ele>
        <time>2014-01-18T08:55:00Z</time>
      </trkpt>
      <trkpt lat="43.591" lon="2.91183">
        <ele>956</ele>
        <time>2014-01-18T08:55:02Z</time>
      </trkpt>
      <trkpt lat="43.59101" lon="2.91181">
        <ele>956.4</ele>
        <time>2014-01-18T08:55:05Z</time>
      </trkpt>
      <trkpt lat="43.59101" lon="2.9118">
        <ele>956.8</ele>
        <time>2014-01-18T08:55:06Z</time>
      </trkpt>
      <trkpt lat="43.59101" lon="2.91179">
        <ele>957.2</ele>
        <time>2014-01-18T08:55:07Z</time>
      </trkpt>
      <trkpt lat="43.59101" lon="2.91179">
        <ele>957.6</ele>
        <time>2014-01-18T08:55:08Z</time>
      </trkpt>
      <trkpt lat="43.59101" lon="2.91178">
        <ele>958</ele>
        <time>2014-01-18T08:55:09Z</time>
      </trkpt>
      <trkpt lat="43.59102" lon="2.91177">
        <ele>958.6</ele>
        <time>2014-01-18T08:55:10Z</time>
      </trkpt>
      <trkpt lat="43.59102" lon="2.91177">
        <ele>959</ele>
        <time>2014-01-18T08:55:11Z</time>
      </trkpt>
      <trkpt lat="43.59102" lon="2.91176">
        <ele>959.6</ele>
        <time>2014-01-18T08:55:12Z</time>
      </trkpt>
      <trkpt lat="43.59102" lon="2.91175">
        <ele>960</ele>
        <time>2014-01-18T08:55:13Z</time>
      </trkpt>
      <trkpt lat="43.59103" lon="2.91174">
        <ele>960.4</ele>
        <time>2014-01-18T08:55:14Z</time>
      </trkpt>
      <trkpt lat="43.59103" lon="2.91172">
        <ele>960.4</ele>
        <time>2014-01-18T08:55:16Z</time>
      </trkpt>
      <trkpt lat="43.59104" lon="2.91169">
        <ele>960.4</ele>
        <time>2014-01-18T08:55:21Z</time>
      </trkpt>
      <trkpt lat="43.59104" lon="2.91168">
        <ele>960.4</ele>
        <time>2014-01-18T08:55:23Z</time>
      </trkpt>
      <trkpt lat="43.59104" lon="2.91167">
        <ele>961</ele>
        <time>2014-01-18T08:55:24Z</time>
      </trkpt>
      <trkpt lat="43.59103" lon="2.91167">
        <ele>961.4</ele>
        <time>2014-01-18T08:55:25Z</time>
      </trkpt>
      <trkpt lat="43.59103" lon="2.91166">
        <ele>962.2</ele>
        <time>2014-01-18T08:55:27Z</time>
      </trkpt>
      <trkpt lat="43.59104" lon="2.91165">
        <ele>962.6</ele>
        <time>2014-01-18T08:55:28Z</time>
      </trkpt>
      <trkpt lat="43.59104" lon="2.91163">
        <ele>962.6</ele>
        <time>2014-01-18T08:55:31Z</time>
      </trkpt>
      <trkpt lat="43.59104" lon="2.91163">
        <ele>962.6</ele>
        <time>2014-01-18T08:55:32Z</time>
      </trkpt>
      <trkpt lat="43.59104" lon="2.9116">
        <ele>962.6</ele>
        <time>2014-01-18T08:55:35Z</time>
      </trkpt>
      <trkpt lat="43.59104" lon="2.9116">
        <ele>962.6</ele>
        <time>2014-01-18T08:55:36Z</time>
      </trkpt>
      <trkpt lat="43.59104" lon="2.9116">
        <ele>962.6</ele>
        <time>2014-01-18T08:55:37Z</time>
      </trkpt>
      <trkpt lat="43.59105" lon="2.91158">
        <ele>962.6</ele>
        <time>2014-01-18T08:55:39Z</time>
      </trkpt>
      <trkpt lat="43.59105" lon="2.91157">
        <ele>963</ele>
        <time>2014-01-18T08:55:40Z</time>
      </trkpt>
      <trkpt lat="43.59105" lon="2.91157">
        <ele>963.4</ele>
        <time>2014-01-18T08:55:41Z</time>
      </trkpt>
      <trkpt lat="43.59106" lon="2.91156">
        <ele>963.8</ele>
        <time>2014-01-18T08:55:42Z</time>
      </trkpt>
      <trkpt lat="43.59106" lon="2.91155">
        <ele>964.2</ele>
        <time>2014-01-18T08:55:43Z</time>
      </trkpt>
      <trkpt lat="43.59106" lon="2.91154">
        <ele>964.8</ele>
        <time>2014-01-18T08:55:44Z</time>
      </trkpt>
      <trkpt lat="43.59106" lon="2.9115">
        <ele>964.8</ele>
        <time>2014-01-18T08:55:48Z</time>
      </trkpt>
      <trkpt lat="43.59107" lon="2.9115">
        <ele>964.8</ele>
        <time>2014-01-18T08:55:49Z</time>
      </trkpt>
      <trkpt lat="43.59107" lon="2.91149">
        <ele>964.8</ele>
        <time>2014-01-18T08:55:50Z</time>
      </trkpt>
      <trkpt lat="43.59107" lon="2.91149">
        <ele>964.8</ele>
        <time>2014-01-18T08:55:51Z</time>
      </trkpt>
      <trkpt lat="43.59108" lon="2.91146">
        <ele>964.8</ele>
        <time>2014-01-18T08:55:55Z</time>
      </trkpt>
      <trkpt lat="43.59108" lon="2.91144">
        <ele>966.2</ele>
        <time>2014-01-18T08:55:58Z</time>
      </trkpt>
      <trkpt lat="43.59108" lon="2.91143">
        <ele>966.6</ele>
        <time>2014-01-18T08:55:59Z</time>
      </trkpt>
      <trkpt lat="43.59109" lon="2.91143">
        <ele>967</ele>
        <time>2014-01-18T08:56:00Z</time>
      </trkpt>
      <trkpt lat="43.59109" lon="2.91141">
        <ele>967</ele>
        <time>2014-01-18T08:56:01Z</time>
      </trkpt>
      <trkpt lat="43.59109" lon="2.91141">
        <ele>967</ele>
        <time>2014-01-18T08:56:02Z</time>
      </trkpt>
      <trkpt lat="43.59109" lon="2.91141">
        <ele>967</ele>
        <time>2014-01-18T08:56:04Z</time>
      </trkpt>
      <trkpt lat="43.59109" lon="2.9114">
        <ele>967.4</ele>
        <time>2014-01-18T08:56:05Z</time>
      </trkpt>
      <trkpt lat="43.59109" lon="2.91139">
        <ele>967.8</ele>
        <time>2014-01-18T08:56:06Z</time>
      </trkpt>
      <trkpt lat="43.5911" lon="2.91139">
        <ele>968.2</ele>
        <time>2014-01-18T08:56:07Z</time>
      </trkpt>
      <trkpt lat="43.59111" lon="2.91137">
        <ele>969</ele>
        <time>2014-01-18T08:56:10Z</time>
      </trkpt>
      <trkpt lat="43.59111" lon="2.91135">
        <ele>969.6</ele>
        <time>2014-01-18T08:56:13Z</time>
      </trkpt>
      <trkpt lat="43.59111" lon="2.91134">
        <ele>970</ele>
        <time>2014-01-18T08:56:14Z</time>
      </trkpt>
      <trkpt lat="43.59111" lon="2.91133">
        <ele>970.4</ele>
        <time>2014-01-18T08:56:15Z</time>
      </trkpt>
      <trkpt lat="43.59111" lon="2.91133">
        <ele>970.8</ele>
        <time>2014-01-18T08:56:16Z</time>
      </trkpt>
      <trkpt lat="43.5911" lon="2.91132">
        <ele>971.2</ele>
        <time>2014-01-18T08:56:17Z</time>
      </trkpt>
      <trkpt lat="43.5911" lon="2.91129">
        <ele>971.2</ele>
        <time>2014-01-18T08:56:19Z</time>
      </trkpt>
      <trkpt lat="43.59107" lon="2.91127">
        <ele>971.2</ele>
        <time>2014-01-18T08:56:24Z</time>
      </trkpt>
      <trkpt lat="43.59107" lon="2.91127">
        <ele>972</ele>
        <time>2014-01-18T08:56:27Z</time>
      </trkpt>
      <trkpt lat="43.59106" lon="2.91126">
        <ele>972.4</ele>
        <time>2014-01-18T08:56:28Z</time>
      </trkpt>
      <trkpt lat="43.59106" lon="2.91126">
        <ele>972.8</ele>
        <time>2014-01-18T08:56:29Z</time>
      </trkpt>
      <trkpt lat="43.59105" lon="2.91126">
        <ele>973.2</ele>
        <time>2014-01-18T08:56:30Z</time>
      </trkpt>
      <trkpt lat="43.59103" lon="2.91125">
        <ele>973.2</ele>
        <time>2014-01-18T08:56:33Z</time>
      </trkpt>
      <trkpt lat="43.59096" lon="2.91123">
        <ele>973.2</ele>
        <time>2014-01-18T08:56:40Z</time>
      </trkpt>
      <trkpt lat="43.59095" lon="2.91122">
        <ele>973.6</ele>
        <time>2014-01-18T08:56:41Z</time>
      </trkpt>
      <trkpt lat="43.59094" lon="2.91122">
        <ele>974</ele>
        <time>2014-01-18T08:56:42Z</time>
      </trkpt>
      <trkpt lat="43.59094" lon="2.91122">
        <ele>974.8</ele>
        <time>2014-01-18T08:56:43Z</time>
      </trkpt>
      <trkpt lat="43.59093" lon="2.91121">
        <ele>975.4</ele>
        <time>2014-01-18T08:56:44Z</time>
      </trkpt>
      <trkpt lat="43.59091" lon="2.91121">
        <ele>975.4</ele>
        <time>2014-01-18T08:56:46Z</time>
      </trkpt>
      <trkpt lat="43.59091" lon="2.9112">
        <ele>975.8</ele>
        <time>2014-01-18T08:56:47Z</time>
      </trkpt>
      <trkpt lat="43.5909" lon="2.9112">
        <ele>976.2</ele>
        <time>2014-01-18T08:56:48Z</time>
      </trkpt>
      <trkpt lat="43.59089" lon="2.9112">
        <ele>976.6</ele>
        <time>2014-01-18T08:56:49Z</time>
      </trkpt>
      <trkpt lat="43.59088" lon="2.9112">
        <ele>977</ele>
        <time>2014-01-18T08:56:50Z</time>
      </trkpt>
      <trkpt lat="43.59087" lon="2.9112">
        <ele>977.6</ele>
        <time>2014-01-18T08:56:51Z</time>
      </trkpt>
      <trkpt lat="43.59085" lon="2.91118">
        <ele>977.6</ele>
        <time>2014-01-18T08:56:54Z</time>
      </trkpt>
      <trkpt lat="43.59079" lon="2.91116">
        <ele>977.6</ele>
        <time>2014-01-18T08:57:01Z</time>
      </trkpt>
      <trkpt lat="43.59077" lon="2.91116">
        <ele>978</ele>
        <time>2014-01-18T08:57:04Z</time>
      </trkpt>
      <trkpt lat="43.59075" lon="2.91116">
        <ele>978.4</ele>
        <time>2014-01-18T08:57:05Z</time>
      </trkpt>
      <trkpt lat="43.59075" lon="2.91116">
        <ele>978.8</ele>
        <time>2014-01-18T08:57:06Z</time>
      </trkpt>
      <trkpt lat="43.59074" lon="2.91116">
        <ele>979.2</ele>
        <time>2014-01-18T08:57:07Z</time>
      </trkpt>
      <trkpt lat="43.59073" lon="2.91117">
        <ele>979.6</ele>
        <time>2014-01-18T08:57:08Z</time>
      </trkpt>
      <trkpt lat="43.59072" lon="2.91117">
        <ele>979.6</ele>
        <time>2014-01-18T08:57:09Z</time>
      </trkpt>
      <trkpt lat="43.59065" lon="2.9112">
        <ele>979.6</ele>
        <time>2014-01-18T08:57:16Z</time>
      </trkpt>
      <trkpt lat="43.59063" lon="2.9112">
        <ele>980</ele>
        <time>2014-01-18T08:57:18Z</time>
      </trkpt>
      <trkpt lat="43.59062" lon="2.91121">
        <ele>980.4</ele>
        <time>2014-01-18T08:57:19Z</time>
      </trkpt>
      <trkpt lat="43.59061" lon="2.91121">
        <ele>980.8</ele>
        <time>2014-01-18T08:57:20Z</time>
      </trkpt>
      <trkpt lat="43.5906" lon="2.91121">
        <ele>981.4</ele>
        <time>2014-01-18T08:57:21Z</time>
      </trkpt>
      <trkpt lat="43.59059" lon="2.91121">
        <ele>981.8</ele>
        <time>2014-01-18T08:57:22Z</time>
      </trkpt>
      <trkpt lat="43.59058" lon="2.91121">
        <ele>981.8</ele>
        <time>2014-01-18T08:57:23Z</time>
      </trkpt>
      <trkpt lat="43.59052" lon="2.91122">
        <ele>981.8</ele>
        <time>2014-01-18T08:57:29Z</time>
      </trkpt>
      <trkpt lat="43.59051" lon="2.91123">
        <ele>982.2</ele>
        <time>2014-01-18T08:57:30Z</time>
      </trkpt>
      <trkpt lat="43.5905" lon="2.91123">
        <ele>982.6</ele>
        <time>2014-01-18T08:57:31Z</time>
      </trkpt>
      <trkpt lat="43.59049" lon="2.91124">
        <ele>983</ele>
        <time>2014-01-18T08:57:32Z</time>
      </trkpt>
      <trkpt lat="43.59048" lon="2.91124">
        <ele>983.8</ele>
        <time>2014-01-18T08:57:33Z</time>
      </trkpt>
      <trkpt lat="43.59045" lon="2.91124">
        <ele>983.8</ele>
        <time>2014-01-18T08:57:36Z</time>
      </trkpt>
      <trkpt lat="43.5904" lon="2.91125">
        <ele>983.8</ele>
        <time>2014-01-18T08:57:42Z</time>
      </trkpt>
      <trkpt lat="43.59036" lon="2.91126">
        <ele>983.8</ele>
        <time>2014-01-18T08:57:47Z</time>
      </trkpt>
      <trkpt lat="43.59035" lon="2.91126">
        <ele>983.8</ele>
        <time>2014-01-18T08:57:48Z</time>
      </trkpt>
      <trkpt lat="43.59031" lon="2.91125">
        <ele>983.8</ele>
        <time>2014-01-18T08:57:52Z</time>
      </trkpt>
      <trkpt lat="43.59031" lon="2.91125">
        <ele>983.8</ele>
        <time>2014-01-18T08:57:53Z</time>
      </trkpt>
      <trkpt lat="43.59028" lon="2.91125">
        <ele>983.8</ele>
        <time>2014-01-18T08:57:56Z</time>
      </trkpt>
      <trkpt lat="43.59025" lon="2.91125">
        <ele>983.8</ele>
        <time>2014-01-18T08:58:00Z</time>
      </trkpt>
      <trkpt lat="43.59022" lon="2.91125">
        <ele>983.8</ele>
        <time>2014-01-18T08:58:03Z</time>
      </trkpt>
      <trkpt lat="43.5902" lon="2.91125">
        <ele>983.8</ele>
        <time>2014-01-18T08:58:06Z</time>
      </trkpt>
      <trkpt lat="43.59015" lon="2.91124">
        <ele>983.8</ele>
        <time>2014-01-18T08:58:13Z</time>
      </trkpt>
      <trkpt lat="43.59014" lon="2.91123">
        <ele>984.2</ele>
        <time>2014-01-18T08:58:14Z</time>
      </trkpt>
      <trkpt lat="43.59013" lon="2.91123">
        <ele>984.6</ele>
        <time>2014-01-18T08:58:15Z</time>
      </trkpt>
      <trkpt lat="43.59012" lon="2.91123">
        <ele>985.2</ele>
        <time>2014-01-18T08:58:16Z</time>
      </trkpt>
      <trkpt lat="43.59011" lon="2.91124">
        <ele>985.6</ele>
        <time>2014-01-18T08:58:17Z</time>
      </trkpt>
      <trkpt lat="43.59011" lon="2.91124">
        <ele>986</ele>
        <time>2014-01-18T08:58:18Z</time>
      </trkpt>
      <trkpt lat="43.59011" lon="2.91124">
        <ele>986</ele>
        <time>2014-01-18T08:58:19Z</time>
      </trkpt>
      <trkpt lat="43.59011" lon="2.91124">
        <ele>986</ele>
        <time>2014-01-18T08:58:20Z</time>
      </trkpt>
      <trkpt lat="43.59011" lon="2.91124">
        <ele>985.4</ele>
        <time>2014-01-18T08:58:22Z</time>
      </trkpt>
      <trkpt lat="43.5901" lon="2.91124">
        <ele>983.4</ele>
        <time>2014-01-18T08:58:33Z</time>
      </trkpt>
      <trkpt lat="43.59009" lon="2.91124">
        <ele>983.4</ele>
        <time>2014-01-18T08:58:34Z</time>
      </trkpt>
      <trkpt lat="43.59009" lon="2.91124">
        <ele>983.4</ele>
        <time>2014-01-18T08:58:35Z</time>
      </trkpt>
      <trkpt lat="43.59008" lon="2.91124">
        <ele>983.4</ele>
        <time>2014-01-18T08:58:37Z</time>
      </trkpt>
      <trkpt lat="43.59008" lon="2.91124">
        <ele>983.4</ele>
        <time>2014-01-18T08:58:38Z</time>
      </trkpt>
      <trkpt lat="43.59008" lon="2.91124">
        <ele>983.4</ele>
        <time>2014-01-18T08:58:41Z</time>
      </trkpt>
      <trkpt lat="43.59006" lon="2.91125">
        <ele>983.4</ele>
        <time>2014-01-18T08:58:45Z</time>
      </trkpt>
      <trkpt lat="43.59006" lon="2.91125">
        <ele>983.4</ele>
        <time>2014-01-18T08:58:46Z</time>
      </trkpt>
      <trkpt lat="43.59005" lon="2.91125">
        <ele>983</ele>
        <time>2014-01-18T08:58:48Z</time>
      </trkpt>
      <trkpt lat="43.59004" lon="2.91124">
        <ele>982.6</ele>
        <time>2014-01-18T08:58:49Z</time>
      </trkpt>
      <trkpt lat="43.59003" lon="2.91124">
        <ele>982.2</ele>
        <time>2014-01-18T08:58:50Z</time>
      </trkpt>
      <trkpt lat="43.59002" lon="2.91124">
        <ele>981.8</ele>
        <time>2014-01-18T08:58:51Z</time>
      </trkpt>
      <trkpt lat="43.59002" lon="2.91124">
        <ele>981.4</ele>
        <time>2014-01-18T08:58:52Z</time>
      </trkpt>
      <trkpt lat="43.58998" lon="2.91123">
        <ele>981.4</ele>
        <time>2014-01-18T08:58:57Z</time>
      </trkpt>
      <trkpt lat="43.58997" lon="2.91122">
        <ele>981.4</ele>
        <time>2014-01-18T08:58:59Z</time>
      </trkpt>
      <trkpt lat="43.58996" lon="2.91122">
        <ele>981.4</ele>
        <time>2014-01-18T08:59:00Z</time>
      </trkpt>
      <trkpt lat="43.58994" lon="2.91123">
        <ele>981.4</ele>
        <time>2014-01-18T08:59:02Z</time>
      </trkpt>
      <trkpt lat="43.58992" lon="2.91123">
        <ele>981.4</ele>
        <time>2014-01-18T08:59:05Z</time>
      </trkpt>
      <trkpt lat="43.58989" lon="2.91122">
        <ele>981.4</ele>
        <time>2014-01-18T08:59:07Z</time>
      </trkpt>
      <trkpt lat="43.58982" lon="2.91122">
        <ele>980.8</ele>
        <time>2014-01-18T08:59:14Z</time>
      </trkpt>
      <trkpt lat="43.58982" lon="2.91122">
        <ele>980.4</ele>
        <time>2014-01-18T08:59:15Z</time>
      </trkpt>
      <trkpt lat="43.5898" lon="2.91122">
        <ele>979.8</ele>
        <time>2014-01-18T08:59:16Z</time>
      </trkpt>
      <trkpt lat="43.5898" lon="2.91122">
        <ele>979.4</ele>
        <time>2014-01-18T08:59:17Z</time>
      </trkpt>
      <trkpt lat="43.58979" lon="2.91121">
        <ele>978.8</ele>
        <time>2014-01-18T08:59:18Z</time>
      </trkpt>
      <trkpt lat="43.58978" lon="2.91121">
        <ele>978.8</ele>
        <time>2014-01-18T08:59:19Z</time>
      </trkpt>
      <trkpt lat="43.58978" lon="2.91121">
        <ele>978.8</ele>
        <time>2014-01-18T08:59:20Z</time>
      </trkpt>
      <trkpt lat="43.58977" lon="2.91121">
        <ele>977.8</ele>
        <time>2014-01-18T08:59:28Z</time>
      </trkpt>
      <trkpt lat="43.58978" lon="2.9112">
        <ele>977.4</ele>
        <time>2014-01-18T08:59:29Z</time>
      </trkpt>
      <trkpt lat="43.58978" lon="2.9112">
        <ele>977</ele>
        <time>2014-01-18T08:59:30Z</time>
      </trkpt>
      <trkpt lat="43.58977" lon="2.9112">
        <ele>976.4</ele>
        <time>2014-01-18T08:59:31Z</time>
      </trkpt>
      <trkpt lat="43.58975" lon="2.91116">
        <ele>976</ele>
        <time>2014-01-18T08:59:36Z</time>
      </trkpt>
      <trkpt lat="43.58974" lon="2.91116">
        <ele>975.4</ele>
        <time>2014-01-18T08:59:37Z</time>
      </trkpt>
      <trkpt lat="43.58974" lon="2.91116">
        <ele>975</ele>
        <time>2014-01-18T08:59:38Z</time>
      </trkpt>
      <trkpt lat="43.58973" lon="2.91115">
        <ele>974.6</ele>
        <time>2014-01-18T08:59:39Z</time>
      </trkpt>
      <trkpt lat="43.58973" lon="2.91115">
        <ele>974</ele>
        <time>2014-01-18T08:59:40Z</time>
      </trkpt>
      <trkpt lat="43.58972" lon="2.91114">
        <ele>974</ele>
        <time>2014-01-18T08:59:41Z</time>
      </trkpt>
      <trkpt lat="43.5897" lon="2.91112">
        <ele>974</ele>
        <time>2014-01-18T08:59:45Z</time>
      </trkpt>
      <trkpt lat="43.58969" lon="2.91112">
        <ele>974</ele>
        <time>2014-01-18T08:59:46Z</time>
      </trkpt>
      <trkpt lat="43.58967" lon="2.91112">
        <ele>974</ele>
        <time>2014-01-18T08:59:48Z</time>
      </trkpt>
      <trkpt lat="43.58963" lon="2.91109">
        <ele>974</ele>
        <time>2014-01-18T08:59:54Z</time>
      </trkpt>
      <trkpt lat="43.58958" lon="2.91106">
        <ele>974</ele>
        <time>2014-01-18T09:00:02Z</time>
      </trkpt>
      <trkpt lat="43.58958" lon="2.91105">
        <ele>974</ele>
        <time>2014-01-18T09:00:03Z</time>
      </trkpt>
      <trkpt lat="43.58957" lon="2.91105">
        <ele>974</ele>
        <time>2014-01-18T09:00:04Z</time>
      </trkpt>
      <trkpt lat="43.58955" lon="2.91104">
        <ele>974</ele>
        <time>2014-01-18T09:00:08Z</time>
      </trkpt>
      <trkpt lat="43.58953" lon="2.91104">
        <ele>974</ele>
        <time>2014-01-18T09:00:10Z</time>
      </trkpt>
      <trkpt lat="43.58951" lon="2.91102">
        <ele>974</ele>
        <time>2014-01-18T09:00:14Z</time>
      </trkpt>
      <trkpt lat="43.5895" lon="2.91101">
        <ele>974</ele>
        <time>2014-01-18T09:00:16Z</time>
      </trkpt>
      <trkpt lat="43.58949" lon="2.91101">
        <ele>974</ele>
        <time>2014-01-18T09:00:17Z</time>
      </trkpt>
      <trkpt lat="43.58947" lon="2.91101">
        <ele>974</ele>
        <time>2014-01-18T09:00:20Z</time>
      </trkpt>
      <trkpt lat="43.58945" lon="2.91099">
        <ele>974</ele>
        <time>2014-01-18T09:00:25Z</time>
      </trkpt>
      <trkpt lat="43.58944" lon="2.91099">
        <ele>974.4</ele>
        <time>2014-01-18T09:00:27Z</time>
      </trkpt>
      <trkpt lat="43.58943" lon="2.91098">
        <ele>974.8</ele>
        <time>2014-01-18T09:00:28Z</time>
      </trkpt>
      <trkpt lat="43.58943" lon="2.91098">
        <ele>975.2</ele>
        <time>2014-01-18T09:00:29Z</time>
      </trkpt>
      <trkpt lat="43.58942" lon="2.91098">
        <ele>975.6</ele>
        <time>2014-01-18T09:00:30Z</time>
      </trkpt>
      <trkpt lat="43.58941" lon="2.91097">
        <ele>976.2</ele>
        <time>2014-01-18T09:00:31Z</time>
      </trkpt>
      <trkpt lat="43.58937" lon="2.91096">
        <ele>976.2</ele>
        <time>2014-01-18T09:00:37Z</time>
      </trkpt>
      <trkpt lat="43.58937" lon="2.91096">
        <ele>976.2</ele>
        <time>2014-01-18T09:00:38Z</time>
      </trkpt>
      <trkpt lat="43.58934" lon="2.91094">
        <ele>976.2</ele>
        <time>2014-01-18T09:00:42Z</time>
      </trkpt>
      <trkpt lat="43.58934" lon="2.91093">
        <ele>976.6</ele>
        <time>2014-01-18T09:00:43Z</time>
      </trkpt>
      <trkpt lat="43.58935" lon="2.91093">
        <ele>977</ele>
        <time>2014-01-18T09:00:44Z</time>
      </trkpt>
      <trkpt lat="43.58935" lon="2.91093">
        <ele>977.4</ele>
        <time>2014-01-18T09:00:45Z</time>
      </trkpt>
      <trkpt lat="43.58936" lon="2.91093">
        <ele>978</ele>
        <time>2014-01-18T09:00:46Z</time>
      </trkpt>
      <trkpt lat="43.58936" lon="2.91092">
        <ele>978.4</ele>
        <time>2014-01-18T09:00:47Z</time>
      </trkpt>
      <trkpt lat="43.58936" lon="2.91092">
        <ele>978.4</ele>
        <time>2014-01-18T09:00:49Z</time>
      </trkpt>
      <trkpt lat="43.58937" lon="2.91092">
        <ele>979.2</ele>
        <time>2014-01-18T09:00:51Z</time>
      </trkpt>
      <trkpt lat="43.58937" lon="2.91092">
        <ele>979.6</ele>
        <time>2014-01-18T09:00:52Z</time>
      </trkpt>
      <trkpt lat="43.58938" lon="2.91092">
        <ele>980</ele>
        <time>2014-01-18T09:00:53Z</time>
      </trkpt>
      <trkpt lat="43.58938" lon="2.91092">
        <ele>980.4</ele>
        <time>2014-01-18T09:00:54Z</time>
      </trkpt>
      <trkpt lat="43.58938" lon="2.91091">
        <ele>980.4</ele>
        <time>2014-01-18T09:00:55Z</time>
      </trkpt>
      <trkpt lat="43.58939" lon="2.91091">
        <ele>980.4</ele>
        <time>2014-01-18T09:00:56Z</time>
      </trkpt>
      <trkpt lat="43.5894" lon="2.91091">
        <ele>980.4</ele>
        <time>2014-01-18T09:01:03Z</time>
      </trkpt>
      <trkpt lat="43.58942" lon="2.9109">
        <ele>980.4</ele>
        <time>2014-01-18T09:01:06Z</time>
      </trkpt>
      <trkpt lat="43.58943" lon="2.91091">
        <ele>980.4</ele>
        <time>2014-01-18T09:01:07Z</time>
      </trkpt>
      <trkpt lat="43.58943" lon="2.91091">
        <ele>980.4</ele>
        <time>2014-01-18T09:01:08Z</time>
      </trkpt>
      <trkpt lat="43.58944" lon="2.91091">
        <ele>980.4</ele>
        <time>2014-01-18T09:01:14Z</time>
      </trkpt>
      <trkpt lat="43.58945" lon="2.91091">
        <ele>980.4</ele>
        <time>2014-01-18T09:01:15Z</time>
      </trkpt>
      <trkpt lat="43.58946" lon="2.91091">
        <ele>980.4</ele>
        <time>2014-01-18T09:01:17Z</time>
      </trkpt>
      <trkpt lat="43.58947" lon="2.91091">
        <ele>980.4</ele>
        <time>2014-01-18T09:01:19Z</time>
      </trkpt>
      <trkpt lat="43.58946" lon="2.9109">
        <ele>980.4</ele>
        <time>2014-01-18T09:01:21Z</time>
      </trkpt>
      <trkpt lat="43.58945" lon="2.91089">
        <ele>980.8</ele>
        <time>2014-01-18T09:01:23Z</time>
      </trkpt>
      <trkpt lat="43.58945" lon="2.91089">
        <ele>981.4</ele>
        <time>2014-01-18T09:01:24Z</time>
      </trkpt>
      <trkpt lat="43.58945" lon="2.91088">
        <ele>981.8</ele>
        <time>2014-01-18T09:01:25Z</time>
      </trkpt>
      <trkpt lat="43.58944" lon="2.91088">
        <ele>982.2</ele>
        <time>2014-01-18T09:01:26Z</time>
      </trkpt>
      <trkpt lat="43.58944" lon="2.91087">
        <ele>982.6</ele>
        <time>2014-01-18T09:01:27Z</time>
      </trkpt>
      <trkpt lat="43.58943" lon="2.91086">
        <ele>983</ele>
        <time>2014-01-18T09:01:28Z</time>
      </trkpt>
      <trkpt lat="43.58943" lon="2.91085">
        <ele>983.4</ele>
        <time>2014-01-18T09:01:29Z</time>
      </trkpt>
      <trkpt lat="43.58943" lon="2.91084">
        <ele>983.8</ele>
        <time>2014-01-18T09:01:30Z</time>
      </trkpt>
      <trkpt lat="43.58943" lon="2.91084">
        <ele>984.2</ele>
        <time>2014-01-18T09:01:31Z</time>
      </trkpt>
      <trkpt lat="43.58942" lon="2.91083">
        <ele>984.6</ele>
        <time>2014-01-18T09:01:32Z</time>
      </trkpt>
      <trkpt lat="43.58941" lon="2.91081">
        <ele>984.6</ele>
        <time>2014-01-18T09:01:34Z</time>
      </trkpt>
      <trkpt lat="43.58938" lon="2.91079">
        <ele>984.6</ele>
        <time>2014-01-18T09:01:40Z</time>
      </trkpt>
      <trkpt lat="43.58934" lon="2.91077">
        <ele>984.6</ele>
        <time>2014-01-18T09:01:48Z</time>
      </trkpt>
      <trkpt lat="43.5893" lon="2.91074">
        <ele>985.2</ele>
        <time>2014-01-18T09:01:53Z</time>
      </trkpt>
      <trkpt lat="43.5893" lon="2.91074">
        <ele>985.6</ele>
        <time>2014-01-18T09:01:54Z</time>
      </trkpt>
      <trkpt lat="43.58929" lon="2.91073">
        <ele>986</ele>
        <time>2014-01-18T09:01:55Z</time>
      </trkpt>
      <trkpt lat="43.58928" lon="2.91073">
        <ele>986.4</ele>
        <time>2014-01-18T09:01:56Z</time>
      </trkpt>
      <trkpt lat="43.58928" lon="2.91072">
        <ele>987</ele>
        <time>2014-01-18T09:01:57Z</time>
      </trkpt>
      <trkpt lat="43.58927" lon="2.91071">
        <ele>987</ele>
        <time>2014-01-18T09:01:59Z</time>
      </trkpt>
      <trkpt lat="43.58925" lon="2.9107">
        <ele>987.4</ele>
        <time>2014-01-18T09:02:02Z</time>
      </trkpt>
      <trkpt lat="43.58925" lon="2.9107">
        <ele>988.2</ele>
        <time>2014-01-18T09:02:03Z</time>
      </trkpt>
      <trkpt lat="43.58925" lon="2.9107">
        <ele>988.6</ele>
        <time>2014-01-18T09:02:04Z</time>
      </trkpt>
      <trkpt lat="43.58924" lon="2.9107">
        <ele>988.4</ele>
        <time>2014-01-18T09:02:05Z</time>
      </trkpt>
      <trkpt lat="43.58923" lon="2.91069">
        <ele>988</ele>
        <time>2014-01-18T09:02:06Z</time>
      </trkpt>
      <trkpt lat="43.58923" lon="2.91069">
        <ele>987.6</ele>
        <time>2014-01-18T09:02:07Z</time>
      </trkpt>
      <trkpt lat="43.58923" lon="2.91069">
        <ele>987.2</ele>
        <time>2014-01-18T09:02:08Z</time>
      </trkpt>
      <trkpt lat="43.58923" lon="2.91069">
        <ele>987.6</ele>
        <time>2014-01-18T09:02:09Z</time>
      </trkpt>
      <trkpt lat="43.58922" lon="2.91069">
        <ele>988</ele>
        <time>2014-01-18T09:02:10Z</time>
      </trkpt>
      <trkpt lat="43.58922" lon="2.91069">
        <ele>988.4</ele>
        <time>2014-01-18T09:02:11Z</time>
      </trkpt>
      <trkpt lat="43.58922" lon="2.91069">
        <ele>988.6</ele>
        <time>2014-01-18T09:02:12Z</time>
      </trkpt>
      <trkpt lat="43.58922" lon="2.91068">
        <ele>989</ele>
        <time>2014-01-18T09:02:13Z</time>
      </trkpt>
      <trkpt lat="43.58921" lon="2.91067">
        <ele>989</ele>
        <time>2014-01-18T09:02:14Z</time>
      </trkpt>
      <trkpt lat="43.58919" lon="2.91066">
        <ele>989</ele>
        <time>2014-01-18T09:02:16Z</time>
      </trkpt>
      <trkpt lat="43.58918" lon="2.91066">
        <ele>989.4</ele>
        <time>2014-01-18T09:02:17Z</time>
      </trkpt>
      <trkpt lat="43.58917" lon="2.91066">
        <ele>990</ele>
        <time>2014-01-18T09:02:18Z</time>
      </trkpt>
      <trkpt lat="43.58917" lon="2.91064">
        <ele>990.4</ele>
        <time>2014-01-18T09:02:19Z</time>
      </trkpt>
      <trkpt lat="43.58916" lon="2.91064">
        <ele>990.8</ele>
        <time>2014-01-18T09:02:20Z</time>
      </trkpt>
      <trkpt lat="43.58915" lon="2.91063">
        <ele>991.2</ele>
        <time>2014-01-18T09:02:21Z</time>
      </trkpt>
      <trkpt lat="43.58915" lon="2.91063">
        <ele>991.2</ele>
        <time>2014-01-18T09:02:22Z</time>
      </trkpt>
      <trkpt lat="43.58914" lon="2.91063">
        <ele>991.2</ele>
        <time>2014-01-18T09:02:23Z</time>
      </trkpt>
      <trkpt lat="43.58911" lon="2.91062">
        <ele>991.2</ele>
        <time>2014-01-18T09:02:26Z</time>
      </trkpt>
      <trkpt lat="43.5891" lon="2.91061">
        <ele>991.6</ele>
        <time>2014-01-18T09:02:28Z</time>
      </trkpt>
      <trkpt lat="43.5891" lon="2.9106">
        <ele>992.2</ele>
        <time>2014-01-18T09:02:29Z</time>
      </trkpt>
      <trkpt lat="43.58909" lon="2.91059">
        <ele>992.6</ele>
        <time>2014-01-18T09:02:30Z</time>
      </trkpt>
      <trkpt lat="43.58908" lon="2.91059">
        <ele>993</ele>
        <time>2014-01-18T09:02:31Z</time>
      </trkpt>
      <trkpt lat="43.58908" lon="2.91058">
        <ele>993.4</ele>
        <time>2014-01-18T09:02:32Z</time>
      </trkpt>
      <trkpt lat="43.58906" lon="2.91057">
        <ele>993.4</ele>
        <time>2014-01-18T09:02:34Z</time>
      </trkpt>
      <trkpt lat="43.58904" lon="2.91057">
        <ele>993.4</ele>
        <time>2014-01-18T09:02:36Z</time>
      </trkpt>
      <trkpt lat="43.58903" lon="2.91057">
        <ele>993.8</ele>
        <time>2014-01-18T09:02:37Z</time>
      </trkpt>
      <trkpt lat="43.58903" lon="2.91056">
        <ele>994.4</ele>
        <time>2014-01-18T09:02:38Z</time>
      </trkpt>
      <trkpt lat="43.58902" lon="2.91056">
        <ele>994.8</ele>
        <time>2014-01-18T09:02:39Z</time>
      </trkpt>
      <trkpt lat="43.58901" lon="2.91055">
        <ele>995.2</ele>
        <time>2014-01-18T09:02:40Z</time>
      </trkpt>
      <trkpt lat="43.58901" lon="2.91054">
        <ele>995.6</ele>
        <time>2014-01-18T09:02:41Z</time>
      </trkpt>
      <trkpt lat="43.58896" lon="2.91052">
        <ele>995.6</ele>
        <time>2014-01-18T09:02:47Z</time>
      </trkpt>
      <trkpt lat="43.58892" lon="2.91049">
        <ele>995.6</ele>
        <time>2014-01-18T09:02:53Z</time>
      </trkpt>
      <trkpt lat="43.58889" lon="2.91048">
        <ele>996.2</ele>
        <time>2014-01-18T09:02:56Z</time>
      </trkpt>
      <trkpt lat="43.58889" lon="2.91047">
        <ele>996.6</ele>
        <time>2014-01-18T09:02:57Z</time>
      </trkpt>
      <trkpt lat="43.58888" lon="2.91047">
        <ele>997.2</ele>
        <time>2014-01-18T09:02:58Z</time>
      </trkpt>
      <trkpt lat="43.58887" lon="2.91047">
        <ele>997.6</ele>
        <time>2014-01-18T09:02:59Z</time>
      </trkpt>
      <trkpt lat="43.58886" lon="2.91047">
        <ele>998.2</ele>
        <time>2014-01-18T09:03:00Z</time>
      </trkpt>
      <trkpt lat="43.58883" lon="2.91043">
        <ele>998.2</ele>
        <time>2014-01-18T09:03:04Z</time>
      </trkpt>
      <trkpt lat="43.58877" lon="2.91039">
        <ele>998.2</ele>
        <time>2014-01-18T09:03:11Z</time>
      </trkpt>
      <trkpt lat="43.58875" lon="2.91037">
        <ele>998.6</ele>
        <time>2014-01-18T09:03:13Z</time>
      </trkpt>
      <trkpt lat="43.58874" lon="2.91037">
        <ele>999</ele>
        <time>2014-01-18T09:03:14Z</time>
      </trkpt>
      <trkpt lat="43.58873" lon="2.91036">
        <ele>999.4</ele>
        <time>2014-01-18T09:03:15Z</time>
      </trkpt>
      <trkpt lat="43.58872" lon="2.91035">
        <ele>999.8</ele>
        <time>2014-01-18T09:03:16Z</time>
      </trkpt>
      <trkpt lat="43.58872" lon="2.91034">
        <ele>1000.2</ele>
        <time>2014-01-18T09:03:17Z</time>
      </trkpt>
      <trkpt lat="43.58868" lon="2.91031">
        <ele>1000.2</ele>
        <time>2014-01-18T09:03:21Z</time>
      </trkpt>
      <trkpt lat="43.58865" lon="2.91026">
        <ele>1000.2</ele>
        <time>2014-01-18T09:03:25Z</time>
      </trkpt>
      <trkpt lat="43.58865" lon="2.91025">
        <ele>1000.2</ele>
        <time>2014-01-18T09:03:26Z</time>
      </trkpt>
      <trkpt lat="43.58863" lon="2.91022">
        <ele>1000.2</ele>
        <time>2014-01-18T09:03:29Z</time>
      </trkpt>
      <trkpt lat="43.58861" lon="2.91019">
        <ele>1000.2</ele>
        <time>2014-01-18T09:03:32Z</time>
      </trkpt>
      <trkpt lat="43.58857" lon="2.91013">
        <ele>1000.2</ele>
        <time>2014-01-18T09:03:38Z</time>
      </trkpt>
      <trkpt lat="43.58854" lon="2.91008">
        <ele>1000.2</ele>
        <time>2014-01-18T09:03:43Z</time>
      </trkpt>
      <trkpt lat="43.58853" lon="2.91007">
        <ele>1000.6</ele>
        <time>2014-01-18T09:03:44Z</time>
      </trkpt>
      <trkpt lat="43.58853" lon="2.91006">
        <ele>1001</ele>
        <time>2014-01-18T09:03:45Z</time>
      </trkpt>
      <trkpt lat="43.58852" lon="2.91005">
        <ele>1001.6</ele>
        <time>2014-01-18T09:03:46Z</time>
      </trkpt>
      <trkpt lat="43.58852" lon="2.91005">
        <ele>1002.4</ele>
        <time>2014-01-18T09:03:47Z</time>
      </trkpt>
      <trkpt lat="43.58851" lon="2.91004">
        <ele>1003</ele>
        <time>2014-01-18T09:03:48Z</time>
      </trkpt>
      <trkpt lat="43.58851" lon="2.91003">
        <ele>1003.8</ele>
        <time>2014-01-18T09:03:49Z</time>
      </trkpt>
      <trkpt lat="43.5885" lon="2.91002">
        <ele>1004.4</ele>
        <time>2014-01-18T09:03:50Z</time>
      </trkpt>
      <trkpt lat="43.58849" lon="2.90996">
        <ele>1004.4</ele>
        <time>2014-01-18T09:03:54Z</time>
      </trkpt>
      <trkpt lat="43.58846" lon="2.90988">
        <ele>1004.4</ele>
        <time>2014-01-18T09:04:01Z</time>
      </trkpt>
      <trkpt lat="43.58845" lon="2.90985">
        <ele>1004.4</ele>
        <time>2014-01-18T09:04:04Z</time>
      </trkpt>
      <trkpt lat="43.58844" lon="2.90981">
        <ele>1004.4</ele>
        <time>2014-01-18T09:04:06Z</time>
      </trkpt>
      <trkpt lat="43.58841" lon="2.90974">
        <ele>1004.4</ele>
        <time>2014-01-18T09:04:12Z</time>
      </trkpt>
      <trkpt lat="43.5884" lon="2.90973">
        <ele>1004.4</ele>
        <time>2014-01-18T09:04:13Z</time>
      </trkpt>
      <trkpt lat="43.58839" lon="2.90966">
        <ele>1005</ele>
        <time>2014-01-18T09:04:18Z</time>
      </trkpt>
      <trkpt lat="43.58839" lon="2.90964">
        <ele>1005.4</ele>
        <time>2014-01-18T09:04:19Z</time>
      </trkpt>
      <trkpt lat="43.58839" lon="2.90963">
        <ele>1005.8</ele>
        <time>2014-01-18T09:04:20Z</time>
      </trkpt>
      <trkpt lat="43.58839" lon="2.90962">
        <ele>1006.2</ele>
        <time>2014-01-18T09:04:21Z</time>
      </trkpt>
      <trkpt lat="43.5884" lon="2.90961">
        <ele>1006.8</ele>
        <time>2014-01-18T09:04:22Z</time>
      </trkpt>
      <trkpt lat="43.5884" lon="2.90958">
        <ele>1006.8</ele>
        <time>2014-01-18T09:04:24Z</time>
      </trkpt>
      <trkpt lat="43.58841" lon="2.90951">
        <ele>1006.8</ele>
        <time>2014-01-18T09:04:29Z</time>
      </trkpt>
      <trkpt lat="43.58842" lon="2.90948">
        <ele>1006.8</ele>
        <time>2014-01-18T09:04:32Z</time>
      </trkpt>
      <trkpt lat="43.58842" lon="2.90943">
        <ele>1007.2</ele>
        <time>2014-01-18T09:04:35Z</time>
      </trkpt>
      <trkpt lat="43.58842" lon="2.90941">
        <ele>1007.6</ele>
        <time>2014-01-18T09:04:36Z</time>
      </trkpt>
      <trkpt lat="43.58842" lon="2.9094">
        <ele>1008</ele>
        <time>2014-01-18T09:04:37Z</time>
      </trkpt>
      <trkpt lat="43.58843" lon="2.90939">
        <ele>1008.4</ele>
        <time>2014-01-18T09:04:38Z</time>
      </trkpt>
      <trkpt lat="43.58843" lon="2.90937">
        <ele>1008.8</ele>
        <time>2014-01-18T09:04:39Z</time>
      </trkpt>
      <trkpt lat="43.58843" lon="2.90934">
        <ele>1008.8</ele>
        <time>2014-01-18T09:04:41Z</time>
      </trkpt>
      <trkpt lat="43.58844" lon="2.90925">
        <ele>1008.8</ele>
        <time>2014-01-18T09:04:48Z</time>
      </trkpt>
      <trkpt lat="43.58842" lon="2.90918">
        <ele>1009.4</ele>
        <time>2014-01-18T09:04:52Z</time>
      </trkpt>
      <trkpt lat="43.58842" lon="2.90916">
        <ele>1009.8</ele>
        <time>2014-01-18T09:04:53Z</time>
      </trkpt>
      <trkpt lat="43.58842" lon="2.90915">
        <ele>1010.2</ele>
        <time>2014-01-18T09:04:54Z</time>
      </trkpt>
      <trkpt lat="43.58842" lon="2.90913">
        <ele>1010.6</ele>
        <time>2014-01-18T09:04:55Z</time>
      </trkpt>
      <trkpt lat="43.58842" lon="2.90912">
        <ele>1011</ele>
        <time>2014-01-18T09:04:56Z</time>
      </trkpt>
      <trkpt lat="43.5884" lon="2.90907">
        <ele>1011</ele>
        <time>2014-01-18T09:04:59Z</time>
      </trkpt>
      <trkpt lat="43.5884" lon="2.90906">
        <ele>1011</ele>
        <time>2014-01-18T09:05:01Z</time>
      </trkpt>
      <trkpt lat="43.5884" lon="2.90906">
        <ele>1011</ele>
        <time>2014-01-18T09:08:13Z</time>
      </trkpt>
      <trkpt lat="43.5884" lon="2.90904">
        <ele>1011</ele>
        <time>2014-01-18T09:08:16Z</time>
      </trkpt>
      <trkpt lat="43.5884" lon="2.90903">
        <ele>1011</ele>
        <time>2014-01-18T09:08:18Z</time>
      </trkpt>
      <trkpt lat="43.58839" lon="2.90903">
        <ele>1011</ele>
        <time>2014-01-18T09:08:24Z</time>
      </trkpt>
      <trkpt lat="43.58839" lon="2.90902">
        <ele>1011</ele>
        <time>2014-01-18T09:08:25Z</time>
      </trkpt>
      <trkpt lat="43.58839" lon="2.90902">
        <ele>1011</ele>
        <time>2014-01-18T09:08:26Z</time>
      </trkpt>
      <trkpt lat="43.58839" lon="2.90901">
        <ele>1011</ele>
        <time>2014-01-18T09:08:27Z</time>
      </trkpt>
      <trkpt lat="43.58839" lon="2.90902">
        <ele>1011</ele>
        <time>2014-01-18T09:08:29Z</time>
      </trkpt>
      <trkpt lat="43.5884" lon="2.90899">
        <ele>1009</ele>
        <time>2014-01-18T09:10:16Z</time>
      </trkpt>
      <trkpt lat="43.58841" lon="2.90898">
        <ele>1009</ele>
        <time>2014-01-18T09:10:17Z</time>
      </trkpt>
      <trkpt lat="43.58842" lon="2.90896">
        <ele>1009</ele>
        <time>2014-01-18T09:10:20Z</time>
      </trkpt>
      <trkpt lat="43.58843" lon="2.90896">
        <ele>1009</ele>
        <time>2014-01-18T09:10:21Z</time>
      </trkpt>
      <trkpt lat="43.58846" lon="2.90894">
        <ele>1009</ele>
        <time>2014-01-18T09:10:23Z</time>
      </trkpt>
      <trkpt lat="43.58849" lon="2.90892">
        <ele>1009</ele>
        <time>2014-01-18T09:10:25Z</time>
      </trkpt>
      <trkpt lat="43.5885" lon="2.9089">
        <ele>1009</ele>
        <time>2014-01-18T09:10:26Z</time>
      </trkpt>
      <trkpt lat="43.58853" lon="2.90885">
        <ele>1009</ele>
        <time>2014-01-18T09:10:28Z</time>
      </trkpt>
      <trkpt lat="43.58855" lon="2.90883">
        <ele>1009.4</ele>
        <time>2014-01-18T09:10:29Z</time>
      </trkpt>
      <trkpt lat="43.58857" lon="2.90881">
        <ele>1009.8</ele>
        <time>2014-01-18T09:10:30Z</time>
      </trkpt>
      <trkpt lat="43.58859" lon="2.90879">
        <ele>1010.4</ele>
        <time>2014-01-18T09:10:31Z</time>
      </trkpt>
      <trkpt lat="43.58861" lon="2.90876">
        <ele>1010.8</ele>
        <time>2014-01-18T09:10:32Z</time>
      </trkpt>
      <trkpt lat="43.58863" lon="2.90874">
        <ele>1011.2</ele>
        <time>2014-01-18T09:10:33Z</time>
      </trkpt>
      <trkpt lat="43.58868" lon="2.90868">
        <ele>1011.2</ele>
        <time>2014-01-18T09:10:35Z</time>
      </trkpt>
      <trkpt lat="43.58874" lon="2.90862">
        <ele>1011.2</ele>
        <time>2014-01-18T09:10:37Z</time>
      </trkpt>
      <trkpt lat="43.58878" lon="2.90857">
        <ele>1011.2</ele>
        <time>2014-01-18T09:10:38Z</time>
      </trkpt>
      <trkpt lat="43.58885" lon="2.90847">
        <ele>1011.2</ele>
        <time>2014-01-18T09:10:41Z</time>
      </trkpt>
      <trkpt lat="43.58888" lon="2.90845">
        <ele>1011.2</ele>
        <time>2014-01-18T09:10:42Z</time>
      </trkpt>
      <trkpt lat="43.58893" lon="2.90836">
        <ele>1011.2</ele>
        <time>2014-01-18T09:10:45Z</time>
      </trkpt>
      <trkpt lat="43.58895" lon="2.90832">
        <ele>1011.2</ele>
        <time>2014-01-18T09:10:46Z</time>
      </trkpt>
      <trkpt lat="43.58903" lon="2.90821">
        <ele>1011.2</ele>
        <time>2014-01-18T09:10:50Z</time>
      </trkpt>
      <trkpt lat="43.58905" lon="2.90818">
        <ele>1011.2</ele>
        <time>2014-01-18T09:10:51Z</time>
      </trkpt>
      <trkpt lat="43.58913" lon="2.90802">
        <ele>1011.2</ele>
        <time>2014-01-18T09:10:56Z</time>
      </trkpt>
      <trkpt lat="43.58922" lon="2.90788">
        <ele>1011.2</ele>
        <time>2014-01-18T09:11:01Z</time>
      </trkpt>
      <trkpt lat="43.58931" lon="2.90768">
        <ele>1011.2</ele>
        <time>2014-01-18T09:11:07Z</time>
      </trkpt>
      <trkpt lat="43.58937" lon="2.90754">
        <ele>1011.2</ele>
        <time>2014-01-18T09:11:12Z</time>
      </trkpt>
      <trkpt lat="43.58939" lon="2.90751">
        <ele>1011.2</ele>
        <time>2014-01-18T09:11:13Z</time>
      </trkpt>
      <trkpt lat="43.58949" lon="2.90748">
        <ele>1011.2</ele>
        <time>2014-01-18T09:11:16Z</time>
      </trkpt>
      <trkpt lat="43.58956" lon="2.90745">
        <ele>1011.2</ele>
        <time>2014-01-18T09:11:18Z</time>
      </trkpt>
      <trkpt lat="43.5897" lon="2.90742">
        <ele>1010.8</ele>
        <time>2014-01-18T09:11:22Z</time>
      </trkpt>
      <trkpt lat="43.58975" lon="2.90741">
        <ele>1010.4</ele>
        <time>2014-01-18T09:11:23Z</time>
      </trkpt>
      <trkpt lat="43.5898" lon="2.90742">
        <ele>1010</ele>
        <time>2014-01-18T09:11:24Z</time>
      </trkpt>
      <trkpt lat="43.58983" lon="2.90741">
        <ele>1009.6</ele>
        <time>2014-01-18T09:11:25Z</time>
      </trkpt>
      <trkpt lat="43.58987" lon="2.90741">
        <ele>1009.2</ele>
        <time>2014-01-18T09:11:26Z</time>
      </trkpt>
      <trkpt lat="43.58995" lon="2.9074">
        <ele>1008.8</ele>
        <time>2014-01-18T09:11:28Z</time>
      </trkpt>
      <trkpt lat="43.58998" lon="2.90742">
        <ele>1008.2</ele>
        <time>2014-01-18T09:11:29Z</time>
      </trkpt>
      <trkpt lat="43.58999" lon="2.90743">
        <ele>1007.8</ele>
        <time>2014-01-18T09:11:30Z</time>
      </trkpt>
      <trkpt lat="43.59001" lon="2.90744">
        <ele>1007</ele>
        <time>2014-01-18T09:11:31Z</time>
      </trkpt>
      <trkpt lat="43.59002" lon="2.90745">
        <ele>1007</ele>
        <time>2014-01-18T09:11:32Z</time>
      </trkpt>
      <trkpt lat="43.59004" lon="2.90747">
        <ele>1007</ele>
        <time>2014-01-18T09:11:35Z</time>
      </trkpt>
      <trkpt lat="43.59004" lon="2.90747">
        <ele>1007</ele>
        <time>2014-01-18T09:11:36Z</time>
      </trkpt>
      <trkpt lat="43.59006" lon="2.90748">
        <ele>1005</ele>
        <time>2014-01-18T09:12:04Z</time>
      </trkpt>
      <trkpt lat="43.59008" lon="2.90747">
        <ele>1005</ele>
        <time>2014-01-18T09:12:05Z</time>
      </trkpt>
      <trkpt lat="43.59011" lon="2.90746">
        <ele>1004.6</ele>
        <time>2014-01-18T09:12:06Z</time>
      </trkpt>
      <trkpt lat="43.59015" lon="2.90747">
        <ele>1004</ele>
        <time>2014-01-18T09:12:07Z</time>
      </trkpt>
      <trkpt lat="43.59019" lon="2.90747">
        <ele>1003.6</ele>
        <time>2014-01-18T09:12:08Z</time>
      </trkpt>
      <trkpt lat="43.59021" lon="2.90747">
        <ele>1003.2</ele>
        <time>2014-01-18T09:12:09Z</time>
      </trkpt>
      <trkpt lat="43.59023" lon="2.90747">
        <ele>1002.6</ele>
        <time>2014-01-18T09:12:10Z</time>
      </trkpt>
      <trkpt lat="43.59023" lon="2.90747">
        <ele>1002.2</ele>
        <time>2014-01-18T09:12:11Z</time>
      </trkpt>
      <trkpt lat="43.59024" lon="2.90747">
        <ele>1000.4</ele>
        <time>2014-01-18T09:12:20Z</time>
      </trkpt>
      <trkpt lat="43.59026" lon="2.90748">
        <ele>1000.4</ele>
        <time>2014-01-18T09:12:21Z</time>
      </trkpt>
      <trkpt lat="43.59037" lon="2.90748">
        <ele>1000.4</ele>
        <time>2014-01-18T09:12:24Z</time>
      </trkpt>
      <trkpt lat="43.59041" lon="2.90747">
        <ele>1000</ele>
        <time>2014-01-18T09:12:25Z</time>
      </trkpt>
      <trkpt lat="43.59047" lon="2.90747">
        <ele>999.6</ele>
        <time>2014-01-18T09:12:26Z</time>
      </trkpt>
      <trkpt lat="43.59053" lon="2.90746">
        <ele>999.2</ele>
        <time>2014-01-18T09:12:27Z</time>
      </trkpt>
      <trkpt lat="43.59059" lon="2.90744">
        <ele>998.6</ele>
        <time>2014-01-18T09:12:28Z</time>
      </trkpt>
      <trkpt lat="43.59065" lon="2.9074">
        <ele>998</ele>
        <time>2014-01-18T09:12:29Z</time>
      </trkpt>
      <trkpt lat="43.5907" lon="2.90734">
        <ele>997.2</ele>
        <time>2014-01-18T09:12:30Z</time>
      </trkpt>
      <trkpt lat="43.59075" lon="2.90728">
        <ele>996.6</ele>
        <time>2014-01-18T09:12:31Z</time>
      </trkpt>
      <trkpt lat="43.59076" lon="2.90722">
        <ele>995.8</ele>
        <time>2014-01-18T09:12:32Z</time>
      </trkpt>
      <trkpt lat="43.59075" lon="2.90716">
        <ele>994.8</ele>
        <time>2014-01-18T09:12:33Z</time>
      </trkpt>
      <trkpt lat="43.59072" lon="2.90713">
        <ele>993.8</ele>
        <time>2014-01-18T09:12:34Z</time>
      </trkpt>
      <trkpt lat="43.59069" lon="2.90713">
        <ele>993</ele>
        <time>2014-01-18T09:12:35Z</time>
      </trkpt>
      <trkpt lat="43.59066" lon="2.90709">
        <ele>992</ele>
        <time>2014-01-18T09:12:36Z</time>
      </trkpt>
      <trkpt lat="43.59063" lon="2.90704">
        <ele>991</ele>
        <time>2014-01-18T09:12:37Z</time>
      </trkpt>
      <trkpt lat="43.59059" lon="2.907">
        <ele>990</ele>
        <time>2014-01-18T09:12:38Z</time>
      </trkpt>
      <trkpt lat="43.59054" lon="2.90696">
        <ele>988.8</ele>
        <time>2014-01-18T09:12:39Z</time>
      </trkpt>
      <trkpt lat="43.59048" lon="2.90692">
        <ele>987.4</ele>
        <time>2014-01-18T09:12:40Z</time>
      </trkpt>
      <trkpt lat="43.59042" lon="2.90687">
        <ele>986</ele>
        <time>2014-01-18T09:12:41Z</time>
      </trkpt>
      <trkpt lat="43.59035" lon="2.90684">
        <ele>984.4</ele>
        <time>2014-01-18T09:12:42Z</time>
      </trkpt>
      <trkpt lat="43.59028" lon="2.90679">
        <ele>983</ele>
        <time>2014-01-18T09:12:43Z</time>
      </trkpt>
      <trkpt lat="43.59022" lon="2.90676">
        <ele>981.6</ele>
        <time>2014-01-18T09:12:44Z</time>
      </trkpt>
      <trkpt lat="43.59016" lon="2.90673">
        <ele>978.8</ele>
        <time>2014-01-18T09:12:45Z</time>
      </trkpt>
      <trkpt lat="43.59011" lon="2.90669">
        <ele>977.4</ele>
        <time>2014-01-18T09:12:46Z</time>
      </trkpt>
      <trkpt lat="43.59005" lon="2.90666">
        <ele>976.2</ele>
        <time>2014-01-18T09:12:47Z</time>
      </trkpt>
      <trkpt lat="43.58999" lon="2.90662">
        <ele>975</ele>
        <time>2014-01-18T09:12:48Z</time>
      </trkpt>
      <trkpt lat="43.58992" lon="2.90658">
        <ele>973.6</ele>
        <time>2014-01-18T09:12:49Z</time>
      </trkpt>
      <trkpt lat="43.58985" lon="2.90657">
        <ele>972.6</ele>
        <time>2014-01-18T09:12:50Z</time>
      </trkpt>
      <trkpt lat="43.58976" lon="2.90656">
        <ele>971.6</ele>
        <time>2014-01-18T09:12:51Z</time>
      </trkpt>
      <trkpt lat="43.58969" lon="2.90655">
        <ele>970.6</ele>
        <time>2014-01-18T09:12:52Z</time>
      </trkpt>
      <trkpt lat="43.58962" lon="2.90652">
        <ele>969.4</ele>
        <time>2014-01-18T09:12:53Z</time>
      </trkpt>
      <trkpt lat="43.58955" lon="2.90649">
        <ele>968.4</ele>
        <time>2014-01-18T09:12:54Z</time>
      </trkpt>
      <trkpt lat="43.58948" lon="2.90645">
        <ele>967.4</ele>
        <time>2014-01-18T09:12:55Z</time>
      </trkpt>
      <trkpt lat="43.58941" lon="2.90641">
        <ele>966.6</ele>
        <time>2014-01-18T09:12:56Z</time>
      </trkpt>
      <trkpt lat="43.58934" lon="2.90636">
        <ele>965.4</ele>
        <time>2014-01-18T09:12:57Z</time>
      </trkpt>
      <trkpt lat="43.58927" lon="2.9063">
        <ele>964.2</ele>
        <time>2014-01-18T09:12:58Z</time>
      </trkpt>
      <trkpt lat="43.5892" lon="2.90626">
        <ele>963</ele>
        <time>2014-01-18T09:12:59Z</time>
      </trkpt>
      <trkpt lat="43.58913" lon="2.90621">
        <ele>962.2</ele>
        <time>2014-01-18T09:13:00Z</time>
      </trkpt>
      <trkpt lat="43.58906" lon="2.90616">
        <ele>961.2</ele>
        <time>2014-01-18T09:13:01Z</time>
      </trkpt>
      <trkpt lat="43.589" lon="2.90612">
        <ele>960.2</ele>
        <time>2014-01-18T09:13:02Z</time>
      </trkpt>
      <trkpt lat="43.58894" lon="2.90607">
        <ele>959</ele>
        <time>2014-01-18T09:13:03Z</time>
      </trkpt>
      <trkpt lat="43.58887" lon="2.90602">
        <ele>958</ele>
        <time>2014-01-18T09:13:04Z</time>
      </trkpt>
      <trkpt lat="43.5888" lon="2.90597">
        <ele>957</ele>
        <time>2014-01-18T09:13:05Z</time>
      </trkpt>
      <trkpt lat="43.58874" lon="2.90593">
        <ele>956</ele>
        <time>2014-01-18T09:13:06Z</time>
      </trkpt>
      <trkpt lat="43.58869" lon="2.90588">
        <ele>955.2</ele>
        <time>2014-01-18T09:13:07Z</time>
      </trkpt>
      <trkpt lat="43.58864" lon="2.90586">
        <ele>954.2</ele>
        <time>2014-01-18T09:13:08Z</time>
      </trkpt>
      <trkpt lat="43.58862" lon="2.90586">
        <ele>953.4</ele>
        <time>2014-01-18T09:13:09Z</time>
      </trkpt>
      <trkpt lat="43.5886" lon="2.90585">
        <ele>953.4</ele>
        <time>2014-01-18T09:13:11Z</time>
      </trkpt>
      <trkpt lat="43.5886" lon="2.90585">
        <ele>953.4</ele>
        <time>2014-01-18T09:13:19Z</time>
      </trkpt>
      <trkpt lat="43.58857" lon="2.90586">
        <ele>953.4</ele>
        <time>2014-01-18T09:13:21Z</time>
      </trkpt>
      <trkpt lat="43.58853" lon="2.90585">
        <ele>953.4</ele>
        <time>2014-01-18T09:13:23Z</time>
      </trkpt>
      <trkpt lat="43.58847" lon="2.90587">
        <ele>953.4</ele>
        <time>2014-01-18T09:13:26Z</time>
      </trkpt>
      <trkpt lat="43.58846" lon="2.90587">
        <ele>953.4</ele>
        <time>2014-01-18T09:13:27Z</time>
      </trkpt>
      <trkpt lat="43.58841" lon="2.9059">
        <ele>953.8</ele>
        <time>2014-01-18T09:13:30Z</time>
      </trkpt>
      <trkpt lat="43.5884" lon="2.90592">
        <ele>954.4</ele>
        <time>2014-01-18T09:13:31Z</time>
      </trkpt>
      <trkpt lat="43.5884" lon="2.90594">
        <ele>954.8</ele>
        <time>2014-01-18T09:13:32Z</time>
      </trkpt>
      <trkpt lat="43.58839" lon="2.90595">
        <ele>955.4</ele>
        <time>2014-01-18T09:13:33Z</time>
      </trkpt>
      <trkpt lat="43.58839" lon="2.90595">
        <ele>955.8</ele>
        <time>2014-01-18T09:13:34Z</time>
      </trkpt>
      <trkpt lat="43.58839" lon="2.90595">
        <ele>955.8</ele>
        <time>2014-01-18T09:13:41Z</time>
      </trkpt>
      <trkpt lat="43.58839" lon="2.90596">
        <ele>955.8</ele>
        <time>2014-01-18T09:13:42Z</time>
      </trkpt>
      <trkpt lat="43.58837" lon="2.90601">
        <ele>955.4</ele>
        <time>2014-01-18T09:13:44Z</time>
      </trkpt>
      <trkpt lat="43.58836" lon="2.90604">
        <ele>955</ele>
        <time>2014-01-18T09:13:45Z</time>
      </trkpt>
      <trkpt lat="43.58835" lon="2.90608">
        <ele>954.6</ele>
        <time>2014-01-18T09:13:46Z</time>
      </trkpt>
      <trkpt lat="43.58835" lon="2.90612">
        <ele>954.2</ele>
        <time>2014-01-18T09:13:47Z</time>
      </trkpt>
      <trkpt lat="43.58834" lon="2.90616">
        <ele>953.8</ele>
        <time>2014-01-18T09:13:48Z</time>
      </trkpt>
      <trkpt lat="43.58833" lon="2.90626">
        <ele>953.4</ele>
        <time>2014-01-18T09:13:50Z</time>
      </trkpt>
      <trkpt lat="43.58832" lon="2.90631">
        <ele>953</ele>
        <time>2014-01-18T09:13:51Z</time>
      </trkpt>
      <trkpt lat="43.58831" lon="2.90636">
        <ele>952.4</ele>
        <time>2014-01-18T09:13:52Z</time>
      </trkpt>
      <trkpt lat="43.58831" lon="2.90642">
        <ele>952</ele>
        <time>2014-01-18T09:13:53Z</time>
      </trkpt>
      <trkpt lat="43.5883" lon="2.90649">
        <ele>951.6</ele>
        <time>2014-01-18T09:13:54Z</time>
      </trkpt>
      <trkpt lat="43.58829" lon="2.90655">
        <ele>951</ele>
        <time>2014-01-18T09:13:55Z</time>
      </trkpt>
      <trkpt lat="43.58828" lon="2.90662">
        <ele>950.6</ele>
        <time>2014-01-18T09:13:56Z</time>
      </trkpt>
      <trkpt lat="43.58826" lon="2.90669">
        <ele>950.2</ele>
        <time>2014-01-18T09:13:57Z</time>
      </trkpt>
      <trkpt lat="43.58824" lon="2.90676">
        <ele>949.6</ele>
        <time>2014-01-18T09:13:58Z</time>
      </trkpt>
      <trkpt lat="43.58823" lon="2.90684">
        <ele>949</ele>
        <time>2014-01-18T09:13:59Z</time>
      </trkpt>
      <trkpt lat="43.58822" lon="2.90691">
        <ele>947.6</ele>
        <time>2014-01-18T09:14:00Z</time>
      </trkpt>
      <trkpt lat="43.5882" lon="2.90698">
        <ele>946.8</ele>
        <time>2014-01-18T09:14:01Z</time>
      </trkpt>
      <trkpt lat="43.58819" lon="2.90705">
        <ele>946</ele>
        <time>2014-01-18T09:14:02Z</time>
      </trkpt>
      <trkpt lat="43.5882" lon="2.9071">
        <ele>945</ele>
        <time>2014-01-18T09:14:03Z</time>
      </trkpt>
      <trkpt lat="43.58822" lon="2.90714">
        <ele>944.2</ele>
        <time>2014-01-18T09:14:04Z</time>
      </trkpt>
      <trkpt lat="43.58821" lon="2.90716">
        <ele>943.2</ele>
        <time>2014-01-18T09:14:05Z</time>
      </trkpt>
      <trkpt lat="43.5882" lon="2.90715">
        <ele>942.4</ele>
        <time>2014-01-18T09:14:06Z</time>
      </trkpt>
      <trkpt lat="43.58819" lon="2.9071">
        <ele>942.4</ele>
        <time>2014-01-18T09:14:08Z</time>
      </trkpt>
      <trkpt lat="43.58816" lon="2.90702">
        <ele>942.4</ele>
        <time>2014-01-18T09:14:10Z</time>
      </trkpt>
      <trkpt lat="43.58813" lon="2.90689">
        <ele>942</ele>
        <time>2014-01-18T09:14:12Z</time>
      </trkpt>
      <trkpt lat="43.58811" lon="2.90682">
        <ele>941.4</ele>
        <time>2014-01-18T09:14:13Z</time>
      </trkpt>
      <trkpt lat="43.58808" lon="2.90675">
        <ele>941</ele>
        <time>2014-01-18T09:14:14Z</time>
      </trkpt>
      <trkpt lat="43.58805" lon="2.90668">
        <ele>940.4</ele>
        <time>2014-01-18T09:14:15Z</time>
      </trkpt>
      <trkpt lat="43.58802" lon="2.90661">
        <ele>940</ele>
        <time>2014-01-18T09:14:16Z</time>
      </trkpt>
      <trkpt lat="43.58799" lon="2.90654">
        <ele>939.4</ele>
        <time>2014-01-18T09:14:17Z</time>
      </trkpt>
      <trkpt lat="43.58796" lon="2.90649">
        <ele>938.8</ele>
        <time>2014-01-18T09:14:18Z</time>
      </trkpt>
      <trkpt lat="43.58793" lon="2.90645">
        <ele>938</ele>
        <time>2014-01-18T09:14:19Z</time>
      </trkpt>
      <trkpt lat="43.5879" lon="2.90642">
        <ele>937.4</ele>
        <time>2014-01-18T09:14:20Z</time>
      </trkpt>
      <trkpt lat="43.58787" lon="2.9064">
        <ele>936.6</ele>
        <time>2014-01-18T09:14:21Z</time>
      </trkpt>
      <trkpt lat="43.58784" lon="2.90641">
        <ele>936</ele>
        <time>2014-01-18T09:14:22Z</time>
      </trkpt>
      <trkpt lat="43.58784" lon="2.90642">
        <ele>935.4</ele>
        <time>2014-01-18T09:14:23Z</time>
      </trkpt>
      <trkpt lat="43.58785" lon="2.90644">
        <ele>934</ele>
        <time>2014-01-18T09:14:24Z</time>
      </trkpt>
      <trkpt lat="43.58786" lon="2.90648">
        <ele>933.2</ele>
        <time>2014-01-18T09:14:25Z</time>
      </trkpt>
      <trkpt lat="43.58788" lon="2.90652">
        <ele>932.2</ele>
        <time>2014-01-18T09:14:26Z</time>
      </trkpt>
      <trkpt lat="43.5879" lon="2.90658">
        <ele>931.4</ele>
        <time>2014-01-18T09:14:27Z</time>
      </trkpt>
      <trkpt lat="43.58792" lon="2.90664">
        <ele>930.8</ele>
        <time>2014-01-18T09:14:28Z</time>
      </trkpt>
      <trkpt lat="43.58794" lon="2.90669">
        <ele>930</ele>
        <time>2014-01-18T09:14:29Z</time>
      </trkpt>
      <trkpt lat="43.58794" lon="2.90676">
        <ele>929.4</ele>
        <time>2014-01-18T09:14:30Z</time>
      </trkpt>
      <trkpt lat="43.58795" lon="2.90681">
        <ele>928.6</ele>
        <time>2014-01-18T09:14:31Z</time>
      </trkpt>
      <trkpt lat="43.58796" lon="2.90687">
        <ele>928</ele>
        <time>2014-01-18T09:14:32Z</time>
      </trkpt>
      <trkpt lat="43.58796" lon="2.90694">
        <ele>927.4</ele>
        <time>2014-01-18T09:14:33Z</time>
      </trkpt>
      <trkpt lat="43.58796" lon="2.907">
        <ele>927</ele>
        <time>2014-01-18T09:14:34Z</time>
      </trkpt>
      <trkpt lat="43.58796" lon="2.90706">
        <ele>926.4</ele>
        <time>2014-01-18T09:14:35Z</time>
      </trkpt>
      <trkpt lat="43.58796" lon="2.90712">
        <ele>925.8</ele>
        <time>2014-01-18T09:14:36Z</time>
      </trkpt>
      <trkpt lat="43.58796" lon="2.90716">
        <ele>925.2</ele>
        <time>2014-01-18T09:14:37Z</time>
      </trkpt>
      <trkpt lat="43.58794" lon="2.90716">
        <ele>924.6</ele>
        <time>2014-01-18T09:14:38Z</time>
      </trkpt>
      <trkpt lat="43.58794" lon="2.90714">
        <ele>924</ele>
        <time>2014-01-18T09:14:39Z</time>
      </trkpt>
      <trkpt lat="43.58794" lon="2.90713">
        <ele>923.4</ele>
        <time>2014-01-18T09:14:40Z</time>
      </trkpt>
      <trkpt lat="43.58794" lon="2.90711">
        <ele>922.8</ele>
        <time>2014-01-18T09:14:41Z</time>
      </trkpt>
      <trkpt lat="43.58793" lon="2.90703">
        <ele>922.8</ele>
        <time>2014-01-18T09:14:46Z</time>
      </trkpt>
      <trkpt lat="43.58793" lon="2.90692">
        <ele>922</ele>
        <time>2014-01-18T09:14:49Z</time>
      </trkpt>
      <trkpt lat="43.58792" lon="2.90689">
        <ele>921.6</ele>
        <time>2014-01-18T09:14:50Z</time>
      </trkpt>
      <trkpt lat="43.5879" lon="2.90687">
        <ele>921.2</ele>
        <time>2014-01-18T09:14:51Z</time>
      </trkpt>
      <trkpt lat="43.58789" lon="2.90687">
        <ele>920.8</ele>
        <time>2014-01-18T09:14:52Z</time>
      </trkpt>
      <trkpt lat="43.58789" lon="2.90687">
        <ele>920.8</ele>
        <time>2014-01-18T09:14:53Z</time>
      </trkpt>
      <trkpt lat="43.58789" lon="2.90688">
        <ele>920.8</ele>
        <time>2014-01-18T09:14:54Z</time>
      </trkpt>
      <trkpt lat="43.58789" lon="2.9069">
        <ele>920.4</ele>
        <time>2014-01-18T09:14:55Z</time>
      </trkpt>
      <trkpt lat="43.58788" lon="2.9069">
        <ele>920</ele>
        <time>2014-01-18T09:14:56Z</time>
      </trkpt>
      <trkpt lat="43.58788" lon="2.90693">
        <ele>919.6</ele>
        <time>2014-01-18T09:14:57Z</time>
      </trkpt>
      <trkpt lat="43.58788" lon="2.90696">
        <ele>919</ele>
        <time>2014-01-18T09:14:58Z</time>
      </trkpt>
      <trkpt lat="43.58788" lon="2.90699">
        <ele>918.6</ele>
        <time>2014-01-18T09:14:59Z</time>
      </trkpt>
      <trkpt lat="43.58786" lon="2.90707">
        <ele>918.6</ele>
        <time>2014-01-18T09:15:02Z</time>
      </trkpt>
      <trkpt lat="43.58778" lon="2.90714">
        <ele>918.2</ele>
        <time>2014-01-18T09:15:05Z</time>
      </trkpt>
      <trkpt lat="43.58775" lon="2.90717">
        <ele>917.8</ele>
        <time>2014-01-18T09:15:06Z</time>
      </trkpt>
      <trkpt lat="43.58771" lon="2.90719">
        <ele>917.4</ele>
        <time>2014-01-18T09:15:07Z</time>
      </trkpt>
      <trkpt lat="43.58767" lon="2.90722">
        <ele>916.8</ele>
        <time>2014-01-18T09:15:08Z</time>
      </trkpt>
      <trkpt lat="43.58765" lon="2.90724">
        <ele>916.2</ele>
        <time>2014-01-18T09:15:09Z</time>
      </trkpt>
      <trkpt lat="43.58763" lon="2.90728">
        <ele>915.6</ele>
        <time>2014-01-18T09:15:10Z</time>
      </trkpt>
      <trkpt lat="43.58761" lon="2.90733">
        <ele>915</ele>
        <time>2014-01-18T09:15:11Z</time>
      </trkpt>
      <trkpt lat="43.58758" lon="2.90737">
        <ele>914.4</ele>
        <time>2014-01-18T09:15:12Z</time>
      </trkpt>
      <trkpt lat="43.58756" lon="2.90743">
        <ele>914</ele>
        <time>2014-01-18T09:15:13Z</time>
      </trkpt>
      <trkpt lat="43.58756" lon="2.90747">
        <ele>912.8</ele>
        <time>2014-01-18T09:15:14Z</time>
      </trkpt>
      <trkpt lat="43.58756" lon="2.9075">
        <ele>912.4</ele>
        <time>2014-01-18T09:15:15Z</time>
      </trkpt>
      <trkpt lat="43.58753" lon="2.90754">
        <ele>912.4</ele>
        <time>2014-01-18T09:15:16Z</time>
      </trkpt>
      <trkpt lat="43.58751" lon="2.90756">
        <ele>911.8</ele>
        <time>2014-01-18T09:15:17Z</time>
      </trkpt>
      <trkpt lat="43.58749" lon="2.90758">
        <ele>911.4</ele>
        <time>2014-01-18T09:15:18Z</time>
      </trkpt>
      <trkpt lat="43.58747" lon="2.90761">
        <ele>910.8</ele>
        <time>2014-01-18T09:15:19Z</time>
      </trkpt>
      <trkpt lat="43.58746" lon="2.90766">
        <ele>910.4</ele>
        <time>2014-01-18T09:15:20Z</time>
      </trkpt>
      <trkpt lat="43.58744" lon="2.9077">
        <ele>909.8</ele>
        <time>2014-01-18T09:15:21Z</time>
      </trkpt>
      <trkpt lat="43.58745" lon="2.90775">
        <ele>909.2</ele>
        <time>2014-01-18T09:15:22Z</time>
      </trkpt>
      <trkpt lat="43.58743" lon="2.90778">
        <ele>908.6</ele>
        <time>2014-01-18T09:15:23Z</time>
      </trkpt>
      <trkpt lat="43.5874" lon="2.90782">
        <ele>907.8</ele>
        <time>2014-01-18T09:15:24Z</time>
      </trkpt>
      <trkpt lat="43.58737" lon="2.90786">
        <ele>907</ele>
        <time>2014-01-18T09:15:25Z</time>
      </trkpt>
      <trkpt lat="43.58735" lon="2.90789">
        <ele>906.2</ele>
        <time>2014-01-18T09:15:26Z</time>
      </trkpt>
      <trkpt lat="43.58734" lon="2.90793">
        <ele>905.4</ele>
        <time>2014-01-18T09:15:27Z</time>
      </trkpt>
      <trkpt lat="43.58734" lon="2.90796">
        <ele>904.6</ele>
        <time>2014-01-18T09:15:28Z</time>
      </trkpt>
      <trkpt lat="43.58733" lon="2.908">
        <ele>904.6</ele>
        <time>2014-01-18T09:15:29Z</time>
      </trkpt>
      <trkpt lat="43.58733" lon="2.90802">
        <ele>904.6</ele>
        <time>2014-01-18T09:15:30Z</time>
      </trkpt>
      <trkpt lat="43.58732" lon="2.90804">
        <ele>904.6</ele>
        <time>2014-01-18T09:15:33Z</time>
      </trkpt>
      <trkpt lat="43.58732" lon="2.90805">
        <ele>904.6</ele>
        <time>2014-01-18T09:15:58Z</time>
      </trkpt>
      <trkpt lat="43.58729" lon="2.90808">
        <ele>904.6</ele>
        <time>2014-01-18T09:16:00Z</time>
      </trkpt>
      <trkpt lat="43.58724" lon="2.90815">
        <ele>904.6</ele>
        <time>2014-01-18T09:16:03Z</time>
      </trkpt>
      <trkpt lat="43.58714" lon="2.90825">
        <ele>904.2</ele>
        <time>2014-01-18T09:16:06Z</time>
      </trkpt>
      <trkpt lat="43.58711" lon="2.9083">
        <ele>903.8</ele>
        <time>2014-01-18T09:16:07Z</time>
      </trkpt>
      <trkpt lat="43.58709" lon="2.90834">
        <ele>903.2</ele>
        <time>2014-01-18T09:16:08Z</time>
      </trkpt>
      <trkpt lat="43.58707" lon="2.9084">
        <ele>902.8</ele>
        <time>2014-01-18T09:16:09Z</time>
      </trkpt>
      <trkpt lat="43.58703" lon="2.90844">
        <ele>902.4</ele>
        <time>2014-01-18T09:16:10Z</time>
      </trkpt>
      <trkpt lat="43.58701" lon="2.9085">
        <ele>902</ele>
        <time>2014-01-18T09:16:11Z</time>
      </trkpt>
      <trkpt lat="43.58699" lon="2.90856">
        <ele>901.4</ele>
        <time>2014-01-18T09:16:12Z</time>
      </trkpt>
      <trkpt lat="43.58697" lon="2.90859">
        <ele>901</ele>
        <time>2014-01-18T09:16:13Z</time>
      </trkpt>
      <trkpt lat="43.58695" lon="2.90861">
        <ele>900.4</ele>
        <time>2014-01-18T09:16:14Z</time>
      </trkpt>
      <trkpt lat="43.58695" lon="2.90862">
        <ele>899.8</ele>
        <time>2014-01-18T09:16:15Z</time>
      </trkpt>
      <trkpt lat="43.58694" lon="2.90863">
        <ele>899.2</ele>
        <time>2014-01-18T09:16:16Z</time>
      </trkpt>
      <trkpt lat="43.58693" lon="2.90864">
        <ele>898.6</ele>
        <time>2014-01-18T09:16:17Z</time>
      </trkpt>
      <trkpt lat="43.5869" lon="2.90867">
        <ele>898</ele>
        <time>2014-01-18T09:16:18Z</time>
      </trkpt>
      <trkpt lat="43.58686" lon="2.9087">
        <ele>898</ele>
        <time>2014-01-18T09:16:19Z</time>
      </trkpt>
      <trkpt lat="43.58683" lon="2.90875">
        <ele>898</ele>
        <time>2014-01-18T09:16:20Z</time>
      </trkpt>
      <trkpt lat="43.58682" lon="2.90878">
        <ele>897.6</ele>
        <time>2014-01-18T09:16:21Z</time>
      </trkpt>
      <trkpt lat="43.58679" lon="2.9088">
        <ele>897</ele>
        <time>2014-01-18T09:16:22Z</time>
      </trkpt>
      <trkpt lat="43.58678" lon="2.90877">
        <ele>896.6</ele>
        <time>2014-01-18T09:16:23Z</time>
      </trkpt>
      <trkpt lat="43.58677" lon="2.90873">
        <ele>896</ele>
        <time>2014-01-18T09:16:24Z</time>
      </trkpt>
      <trkpt lat="43.58678" lon="2.90866">
        <ele>895.4</ele>
        <time>2014-01-18T09:16:25Z</time>
      </trkpt>
      <trkpt lat="43.5868" lon="2.90862">
        <ele>894.8</ele>
        <time>2014-01-18T09:16:26Z</time>
      </trkpt>
      <trkpt lat="43.58681" lon="2.90858">
        <ele>894.2</ele>
        <time>2014-01-18T09:16:27Z</time>
      </trkpt>
      <trkpt lat="43.58685" lon="2.90855">
        <ele>893</ele>
        <time>2014-01-18T09:16:28Z</time>
      </trkpt>
      <trkpt lat="43.58687" lon="2.90852">
        <ele>892.4</ele>
        <time>2014-01-18T09:16:29Z</time>
      </trkpt>
      <trkpt lat="43.58689" lon="2.90845">
        <ele>891.8</ele>
        <time>2014-01-18T09:16:30Z</time>
      </trkpt>
      <trkpt lat="43.58691" lon="2.90836">
        <ele>891.2</ele>
        <time>2014-01-18T09:16:31Z</time>
      </trkpt>
      <trkpt lat="43.5869" lon="2.90829">
        <ele>890.6</ele>
        <time>2014-01-18T09:16:32Z</time>
      </trkpt>
      <trkpt lat="43.58688" lon="2.90823">
        <ele>890</ele>
        <time>2014-01-18T09:16:33Z</time>
      </trkpt>
      <trkpt lat="43.58689" lon="2.90815">
        <ele>889.2</ele>
        <time>2014-01-18T09:16:34Z</time>
      </trkpt>
      <trkpt lat="43.5869" lon="2.90807">
        <ele>888.4</ele>
        <time>2014-01-18T09:16:35Z</time>
      </trkpt>
      <trkpt lat="43.58692" lon="2.90799">
        <ele>887.8</ele>
        <time>2014-01-18T09:16:36Z</time>
      </trkpt>
      <trkpt lat="43.58693" lon="2.90792">
        <ele>887</ele>
        <time>2014-01-18T09:16:37Z</time>
      </trkpt>
      <trkpt lat="43.58694" lon="2.90785">
        <ele>886.2</ele>
        <time>2014-01-18T09:16:38Z</time>
      </trkpt>
      <trkpt lat="43.58696" lon="2.90777">
        <ele>885.4</ele>
        <time>2014-01-18T09:16:39Z</time>
      </trkpt>
      <trkpt lat="43.58696" lon="2.90769">
        <ele>884.6</ele>
        <time>2014-01-18T09:16:40Z</time>
      </trkpt>
      <trkpt lat="43.58696" lon="2.90763">
        <ele>883.8</ele>
        <time>2014-01-18T09:16:41Z</time>
      </trkpt>
      <trkpt lat="43.58695" lon="2.90757">
        <ele>883</ele>
        <time>2014-01-18T09:16:42Z</time>
      </trkpt>
      <trkpt lat="43.58696" lon="2.90753">
        <ele>882.2</ele>
        <time>2014-01-18T09:16:43Z</time>
      </trkpt>
      <trkpt lat="43.58698" lon="2.90753">
        <ele>881.6</ele>
        <time>2014-01-18T09:16:44Z</time>
      </trkpt>
      <trkpt lat="43.58698" lon="2.90753">
        <ele>880.8</ele>
        <time>2014-01-18T09:16:45Z</time>
      </trkpt>
      <trkpt lat="43.58697" lon="2.90752">
        <ele>879.2</ele>
        <time>2014-01-18T09:16:48Z</time>
      </trkpt>
      <trkpt lat="43.58696" lon="2.90752">
        <ele>878.8</ele>
        <time>2014-01-18T09:16:50Z</time>
      </trkpt>
      <trkpt lat="43.58696" lon="2.90753">
        <ele>878.4</ele>
        <time>2014-01-18T09:16:51Z</time>
      </trkpt>
      <trkpt lat="43.58696" lon="2.90754">
        <ele>877.8</ele>
        <time>2014-01-18T09:16:52Z</time>
      </trkpt>
      <trkpt lat="43.58696" lon="2.90755">
        <ele>877</ele>
        <time>2014-01-18T09:16:53Z</time>
      </trkpt>
      <trkpt lat="43.58696" lon="2.90755">
        <ele>877</ele>
        <time>2014-01-18T09:16:54Z</time>
      </trkpt>
      <trkpt lat="43.58696" lon="2.90755">
        <ele>877</ele>
        <time>2014-01-18T09:16:56Z</time>
      </trkpt>
      <trkpt lat="43.58693" lon="2.90758">
        <ele>876.6</ele>
        <time>2014-01-18T09:16:58Z</time>
      </trkpt>
      <trkpt lat="43.58691" lon="2.90762">
        <ele>876.2</ele>
        <time>2014-01-18T09:16:59Z</time>
      </trkpt>
      <trkpt lat="43.5869" lon="2.90765">
        <ele>875.8</ele>
        <time>2014-01-18T09:17:00Z</time>
      </trkpt>
      <trkpt lat="43.58687" lon="2.90769">
        <ele>875.4</ele>
        <time>2014-01-18T09:17:01Z</time>
      </trkpt>
      <trkpt lat="43.58683" lon="2.90772">
        <ele>875</ele>
        <time>2014-01-18T09:17:02Z</time>
      </trkpt>
      <trkpt lat="43.58678" lon="2.90776">
        <ele>874.4</ele>
        <time>2014-01-18T09:17:03Z</time>
      </trkpt>
      <trkpt lat="43.58673" lon="2.9078">
        <ele>873.8</ele>
        <time>2014-01-18T09:17:04Z</time>
      </trkpt>
      <trkpt lat="43.58669" lon="2.90783">
        <ele>873</ele>
        <time>2014-01-18T09:17:05Z</time>
      </trkpt>
      <trkpt lat="43.58667" lon="2.90786">
        <ele>872.2</ele>
        <time>2014-01-18T09:17:06Z</time>
      </trkpt>
      <trkpt lat="43.58665" lon="2.90788">
        <ele>871.4</ele>
        <time>2014-01-18T09:17:07Z</time>
      </trkpt>
      <trkpt lat="43.58663" lon="2.90792">
        <ele>870.6</ele>
        <time>2014-01-18T09:17:08Z</time>
      </trkpt>
      <trkpt lat="43.58662" lon="2.90797">
        <ele>869.8</ele>
        <time>2014-01-18T09:17:09Z</time>
      </trkpt>
      <trkpt lat="43.58661" lon="2.90799">
        <ele>869</ele>
        <time>2014-01-18T09:17:10Z</time>
      </trkpt>
      <trkpt lat="43.5866" lon="2.90801">
        <ele>868.2</ele>
        <time>2014-01-18T09:17:11Z</time>
      </trkpt>
      <trkpt lat="43.58659" lon="2.90803">
        <ele>867.6</ele>
        <time>2014-01-18T09:17:12Z</time>
      </trkpt>
      <trkpt lat="43.58659" lon="2.90806">
        <ele>867.6</ele>
        <time>2014-01-18T09:17:14Z</time>
      </trkpt>
      <trkpt lat="43.58659" lon="2.90807">
        <ele>867.6</ele>
        <time>2014-01-18T09:17:15Z</time>
      </trkpt>
      <trkpt lat="43.58659" lon="2.90808">
        <ele>867.6</ele>
        <time>2014-01-18T09:17:21Z</time>
      </trkpt>
      <trkpt lat="43.58659" lon="2.9081">
        <ele>867</ele>
        <time>2014-01-18T09:17:24Z</time>
      </trkpt>
      <trkpt lat="43.5866" lon="2.90811">
        <ele>866.6</ele>
        <time>2014-01-18T09:17:25Z</time>
      </trkpt>
      <trkpt lat="43.5866" lon="2.90811">
        <ele>866.2</ele>
        <time>2014-01-18T09:17:26Z</time>
      </trkpt>
      <trkpt lat="43.5866" lon="2.9081">
        <ele>865.8</ele>
        <time>2014-01-18T09:17:27Z</time>
      </trkpt>
      <trkpt lat="43.5866" lon="2.9081">
        <ele>865.4</ele>
        <time>2014-01-18T09:17:28Z</time>
      </trkpt>
      <trkpt lat="43.5866" lon="2.90809">
        <ele>865.4</ele>
        <time>2014-01-18T09:17:29Z</time>
      </trkpt>
      <trkpt lat="43.58659" lon="2.90798">
        <ele>865</ele>
        <time>2014-01-18T09:17:33Z</time>
      </trkpt>
      <trkpt lat="43.58658" lon="2.90793">
        <ele>864.4</ele>
        <time>2014-01-18T09:17:34Z</time>
      </trkpt>
      <trkpt lat="43.58657" lon="2.90788">
        <ele>864</ele>
        <time>2014-01-18T09:17:35Z</time>
      </trkpt>
      <trkpt lat="43.58658" lon="2.90784">
        <ele>863.6</ele>
        <time>2014-01-18T09:17:36Z</time>
      </trkpt>
      <trkpt lat="43.58659" lon="2.90782">
        <ele>863.2</ele>
        <time>2014-01-18T09:17:37Z</time>
      </trkpt>
      <trkpt lat="43.58657" lon="2.90783">
        <ele>862.6</ele>
        <time>2014-01-18T09:17:39Z</time>
      </trkpt>
      <trkpt lat="43.58657" lon="2.90785">
        <ele>862.2</ele>
        <time>2014-01-18T09:17:40Z</time>
      </trkpt>
      <trkpt lat="43.58657" lon="2.90788">
        <ele>861.8</ele>
        <time>2014-01-18T09:17:41Z</time>
      </trkpt>
      <trkpt lat="43.58656" lon="2.90791">
        <ele>860.8</ele>
        <time>2014-01-18T09:17:42Z</time>
      </trkpt>
      <trkpt lat="43.58656" lon="2.90793">
        <ele>860.8</ele>
        <time>2014-01-18T09:17:43Z</time>
      </trkpt>
      <trkpt lat="43.58657" lon="2.90796">
        <ele>860.4</ele>
        <time>2014-01-18T09:17:44Z</time>
      </trkpt>
      <trkpt lat="43.58656" lon="2.90799">
        <ele>860</ele>
        <time>2014-01-18T09:17:45Z</time>
      </trkpt>
      <trkpt lat="43.58655" lon="2.90804">
        <ele>859.6</ele>
        <time>2014-01-18T09:17:46Z</time>
      </trkpt>
      <trkpt lat="43.58654" lon="2.90809">
        <ele>859.2</ele>
        <time>2014-01-18T09:17:47Z</time>
      </trkpt>
      <trkpt lat="43.5865" lon="2.90812">
        <ele>858.6</ele>
        <time>2014-01-18T09:17:48Z</time>
      </trkpt>
      <trkpt lat="43.58648" lon="2.90816">
        <ele>857.8</ele>
        <time>2014-01-18T09:17:49Z</time>
      </trkpt>
      <trkpt lat="43.58645" lon="2.90817">
        <ele>857.2</ele>
        <time>2014-01-18T09:17:50Z</time>
      </trkpt>
      <trkpt lat="43.58642" lon="2.90819">
        <ele>856.6</ele>
        <time>2014-01-18T09:17:51Z</time>
      </trkpt>
      <trkpt lat="43.58639" lon="2.9082">
        <ele>856</ele>
        <time>2014-01-18T09:17:52Z</time>
      </trkpt>
      <trkpt lat="43.58636" lon="2.90822">
        <ele>855.6</ele>
        <time>2014-01-18T09:17:53Z</time>
      </trkpt>
      <trkpt lat="43.58632" lon="2.90826">
        <ele>854.8</ele>
        <time>2014-01-18T09:17:54Z</time>
      </trkpt>
      <trkpt lat="43.5863" lon="2.90829">
        <ele>854</ele>
        <time>2014-01-18T09:17:55Z</time>
      </trkpt>
      <trkpt lat="43.58628" lon="2.90833">
        <ele>853.2</ele>
        <time>2014-01-18T09:17:56Z</time>
      </trkpt>
      <trkpt lat="43.58626" lon="2.90837">
        <ele>852.6</ele>
        <time>2014-01-18T09:17:57Z</time>
      </trkpt>
      <trkpt lat="43.58623" lon="2.90841">
        <ele>851.8</ele>
        <time>2014-01-18T09:17:58Z</time>
      </trkpt>
      <trkpt lat="43.58621" lon="2.90845">
        <ele>851</ele>
        <time>2014-01-18T09:17:59Z</time>
      </trkpt>
      <trkpt lat="43.58618" lon="2.9085">
        <ele>850.4</ele>
        <time>2014-01-18T09:18:00Z</time>
      </trkpt>
      <trkpt lat="43.58616" lon="2.90856">
        <ele>849.8</ele>
        <time>2014-01-18T09:18:01Z</time>
      </trkpt>
      <trkpt lat="43.58614" lon="2.90859">
        <ele>849.2</ele>
        <time>2014-01-18T09:18:02Z</time>
      </trkpt>
      <trkpt lat="43.58612" lon="2.90864">
        <ele>848.6</ele>
        <time>2014-01-18T09:18:03Z</time>
      </trkpt>
      <trkpt lat="43.5861" lon="2.90864">
        <ele>848</ele>
        <time>2014-01-18T09:18:04Z</time>
      </trkpt>
      <trkpt lat="43.58609" lon="2.90868">
        <ele>847.6</ele>
        <time>2014-01-18T09:18:05Z</time>
      </trkpt>
      <trkpt lat="43.58606" lon="2.90871">
        <ele>847</ele>
        <time>2014-01-18T09:18:06Z</time>
      </trkpt>
      <trkpt lat="43.58604" lon="2.90876">
        <ele>846</ele>
        <time>2014-01-18T09:18:07Z</time>
      </trkpt>
      <trkpt lat="43.58601" lon="2.90881">
        <ele>845.4</ele>
        <time>2014-01-18T09:18:08Z</time>
      </trkpt>
      <trkpt lat="43.58599" lon="2.90885">
        <ele>845</ele>
        <time>2014-01-18T09:18:09Z</time>
      </trkpt>
      <trkpt lat="43.58597" lon="2.90888">
        <ele>844.6</ele>
        <time>2014-01-18T09:18:10Z</time>
      </trkpt>
      <trkpt lat="43.58597" lon="2.90888">
        <ele>844.2</ele>
        <time>2014-01-18T09:18:11Z</time>
      </trkpt>
      <trkpt lat="43.58597" lon="2.90885">
        <ele>843.8</ele>
        <time>2014-01-18T09:18:12Z</time>
      </trkpt>
      <trkpt lat="43.58598" lon="2.90887">
        <ele>843.4</ele>
        <time>2014-01-18T09:18:13Z</time>
      </trkpt>
      <trkpt lat="43.58603" lon="2.90885">
        <ele>843.4</ele>
        <time>2014-01-18T09:18:17Z</time>
      </trkpt>
      <trkpt lat="43.58604" lon="2.90884">
        <ele>843.4</ele>
        <time>2014-01-18T09:18:18Z</time>
      </trkpt>
      <trkpt lat="43.58605" lon="2.90881">
        <ele>843</ele>
        <time>2014-01-18T09:18:19Z</time>
      </trkpt>
      <trkpt lat="43.58606" lon="2.9088">
        <ele>842.6</ele>
        <time>2014-01-18T09:18:20Z</time>
      </trkpt>
      <trkpt lat="43.58608" lon="2.90878">
        <ele>842.2</ele>
        <time>2014-01-18T09:18:21Z</time>
      </trkpt>
      <trkpt lat="43.5861" lon="2.90876">
        <ele>841.6</ele>
        <time>2014-01-18T09:18:22Z</time>
      </trkpt>
      <trkpt lat="43.58613" lon="2.90874">
        <ele>841.2</ele>
        <time>2014-01-18T09:18:23Z</time>
      </trkpt>
      <trkpt lat="43.58615" lon="2.9087">
        <ele>840.8</ele>
        <time>2014-01-18T09:18:25Z</time>
      </trkpt>
      <trkpt lat="43.58615" lon="2.90867">
        <ele>840.4</ele>
        <time>2014-01-18T09:18:26Z</time>
      </trkpt>
      <trkpt lat="43.58616" lon="2.90863">
        <ele>840</ele>
        <time>2014-01-18T09:18:27Z</time>
      </trkpt>
      <trkpt lat="43.58617" lon="2.90858">
        <ele>839.6</ele>
        <time>2014-01-18T09:18:28Z</time>
      </trkpt>
      <trkpt lat="43.58617" lon="2.90853">
        <ele>839.2</ele>
        <time>2014-01-18T09:18:29Z</time>
      </trkpt>
      <trkpt lat="43.58617" lon="2.90847">
        <ele>838.8</ele>
        <time>2014-01-18T09:18:30Z</time>
      </trkpt>
      <trkpt lat="43.58617" lon="2.90841">
        <ele>838.4</ele>
        <time>2014-01-18T09:18:31Z</time>
      </trkpt>
      <trkpt lat="43.58615" lon="2.90837">
        <ele>837.6</ele>
        <time>2014-01-18T09:18:32Z</time>
      </trkpt>
      <trkpt lat="43.58614" lon="2.90831">
        <ele>837</ele>
        <time>2014-01-18T09:18:33Z</time>
      </trkpt>
      <trkpt lat="43.58614" lon="2.90827">
        <ele>836.4</ele>
        <time>2014-01-18T09:18:34Z</time>
      </trkpt>
      <trkpt lat="43.58614" lon="2.90824">
        <ele>836</ele>
        <time>2014-01-18T09:18:35Z</time>
      </trkpt>
      <trkpt lat="43.58616" lon="2.90822">
        <ele>835.4</ele>
        <time>2014-01-18T09:18:36Z</time>
      </trkpt>
      <trkpt lat="43.58618" lon="2.9082">
        <ele>834.8</ele>
        <time>2014-01-18T09:18:37Z</time>
      </trkpt>
      <trkpt lat="43.58619" lon="2.90815">
        <ele>834.4</ele>
        <time>2014-01-18T09:18:38Z</time>
      </trkpt>
      <trkpt lat="43.58621" lon="2.90811">
        <ele>834</ele>
        <time>2014-01-18T09:18:39Z</time>
      </trkpt>
      <trkpt lat="43.58623" lon="2.90807">
        <ele>833.6</ele>
        <time>2014-01-18T09:18:40Z</time>
      </trkpt>
      <trkpt lat="43.58625" lon="2.90802">
        <ele>833</ele>
        <time>2014-01-18T09:18:41Z</time>
      </trkpt>
      <trkpt lat="43.58626" lon="2.90798">
        <ele>832.6</ele>
        <time>2014-01-18T09:18:42Z</time>
      </trkpt>
      <trkpt lat="43.58627" lon="2.90791">
        <ele>832</ele>
        <time>2014-01-18T09:18:43Z</time>
      </trkpt>
      <trkpt lat="43.58626" lon="2.90785">
        <ele>831.4</ele>
        <time>2014-01-18T09:18:44Z</time>
      </trkpt>
      <trkpt lat="43.58625" lon="2.90781">
        <ele>830.8</ele>
        <time>2014-01-18T09:18:45Z</time>
      </trkpt>
      <trkpt lat="43.58625" lon="2.90779">
        <ele>830.2</ele>
        <time>2014-01-18T09:18:46Z</time>
      </trkpt>
      <trkpt lat="43.58624" lon="2.90779">
        <ele>829.8</ele>
        <time>2014-01-18T09:18:47Z</time>
      </trkpt>
      <trkpt lat="43.58624" lon="2.90778">
        <ele>828.2</ele>
        <time>2014-01-18T09:19:21Z</time>
      </trkpt>
      <trkpt lat="43.58624" lon="2.90778">
        <ele>828.2</ele>
        <time>2014-01-18T09:19:22Z</time>
      </trkpt>
      <trkpt lat="43.58624" lon="2.90775">
        <ele>828.2</ele>
        <time>2014-01-18T09:19:25Z</time>
      </trkpt>
      <trkpt lat="43.58624" lon="2.90775">
        <ele>828.2</ele>
        <time>2014-01-18T09:19:26Z</time>
      </trkpt>
      <trkpt lat="43.58624" lon="2.90774">
        <ele>828.2</ele>
        <time>2014-01-18T09:19:30Z</time>
      </trkpt>
      <trkpt lat="43.58624" lon="2.90771">
        <ele>828.2</ele>
        <time>2014-01-18T09:19:31Z</time>
      </trkpt>
      <trkpt lat="43.58625" lon="2.90768">
        <ele>828.2</ele>
        <time>2014-01-18T09:19:33Z</time>
      </trkpt>
      <trkpt lat="43.58625" lon="2.90767">
        <ele>828.2</ele>
        <time>2014-01-18T09:19:34Z</time>
      </trkpt>
      <trkpt lat="43.58624" lon="2.90767">
        <ele>828.2</ele>
        <time>2014-01-18T09:19:36Z</time>
      </trkpt>
      <trkpt lat="43.58624" lon="2.90766">
        <ele>828.2</ele>
        <time>2014-01-18T09:19:37Z</time>
      </trkpt>
      <trkpt lat="43.58623" lon="2.90766">
        <ele>828.2</ele>
        <time>2014-01-18T09:19:38Z</time>
      </trkpt>
      <trkpt lat="43.58619" lon="2.90769">
        <ele>828.2</ele>
        <time>2014-01-18T09:19:42Z</time>
      </trkpt>
      <trkpt lat="43.58619" lon="2.90771">
        <ele>828.2</ele>
        <time>2014-01-18T09:19:43Z</time>
      </trkpt>
      <trkpt lat="43.58618" lon="2.90773">
        <ele>827.8</ele>
        <time>2014-01-18T09:19:44Z</time>
      </trkpt>
      <trkpt lat="43.58617" lon="2.90775">
        <ele>827.4</ele>
        <time>2014-01-18T09:19:45Z</time>
      </trkpt>
      <trkpt lat="43.58616" lon="2.90777">
        <ele>826.6</ele>
        <time>2014-01-18T09:19:46Z</time>
      </trkpt>
      <trkpt lat="43.58616" lon="2.90779">
        <ele>826.2</ele>
        <time>2014-01-18T09:19:47Z</time>
      </trkpt>
      <trkpt lat="43.58615" lon="2.90784">
        <ele>825.8</ele>
        <time>2014-01-18T09:19:49Z</time>
      </trkpt>
      <trkpt lat="43.58613" lon="2.90787">
        <ele>825.4</ele>
        <time>2014-01-18T09:19:50Z</time>
      </trkpt>
      <trkpt lat="43.58611" lon="2.90789">
        <ele>824.8</ele>
        <time>2014-01-18T09:19:51Z</time>
      </trkpt>
      <trkpt lat="43.58609" lon="2.90792">
        <ele>824.4</ele>
        <time>2014-01-18T09:19:52Z</time>
      </trkpt>
      <trkpt lat="43.58607" lon="2.90794">
        <ele>824</ele>
        <time>2014-01-18T09:19:53Z</time>
      </trkpt>
      <trkpt lat="43.58605" lon="2.90795">
        <ele>823.6</ele>
        <time>2014-01-18T09:19:54Z</time>
      </trkpt>
      <trkpt lat="43.58602" lon="2.90798">
        <ele>823</ele>
        <time>2014-01-18T09:19:55Z</time>
      </trkpt>
      <trkpt lat="43.586" lon="2.908">
        <ele>822.6</ele>
        <time>2014-01-18T09:19:56Z</time>
      </trkpt>
      <trkpt lat="43.58597" lon="2.90804">
        <ele>822</ele>
        <time>2014-01-18T09:19:57Z</time>
      </trkpt>
      <trkpt lat="43.58594" lon="2.90809">
        <ele>821.6</ele>
        <time>2014-01-18T09:19:58Z</time>
      </trkpt>
      <trkpt lat="43.58593" lon="2.90816">
        <ele>821.2</ele>
        <time>2014-01-18T09:19:59Z</time>
      </trkpt>
      <trkpt lat="43.58592" lon="2.9082">
        <ele>820.6</ele>
        <time>2014-01-18T09:20:00Z</time>
      </trkpt>
      <trkpt lat="43.5859" lon="2.90826">
        <ele>820.2</ele>
        <time>2014-01-18T09:20:01Z</time>
      </trkpt>
      <trkpt lat="43.58587" lon="2.90829">
        <ele>819.6</ele>
        <time>2014-01-18T09:20:02Z</time>
      </trkpt>
      <trkpt lat="43.58584" lon="2.90835">
        <ele>819</ele>
        <time>2014-01-18T09:20:03Z</time>
      </trkpt>
      <trkpt lat="43.58581" lon="2.9084">
        <ele>818.4</ele>
        <time>2014-01-18T09:20:04Z</time>
      </trkpt>
      <trkpt lat="43.58578" lon="2.90844">
        <ele>817.6</ele>
        <time>2014-01-18T09:20:05Z</time>
      </trkpt>
      <trkpt lat="43.58575" lon="2.90846">
        <ele>817</ele>
        <time>2014-01-18T09:20:06Z</time>
      </trkpt>
      <trkpt lat="43.58571" lon="2.9085">
        <ele>816.2</ele>
        <time>2014-01-18T09:20:07Z</time>
      </trkpt>
      <trkpt lat="43.58568" lon="2.90853">
        <ele>815.6</ele>
        <time>2014-01-18T09:20:08Z</time>
      </trkpt>
      <trkpt lat="43.58564" lon="2.90856">
        <ele>814.8</ele>
        <time>2014-01-18T09:20:09Z</time>
      </trkpt>
      <trkpt lat="43.58562" lon="2.90861">
        <ele>814.2</ele>
        <time>2014-01-18T09:20:10Z</time>
      </trkpt>
      <trkpt lat="43.58559" lon="2.90865">
        <ele>813.6</ele>
        <time>2014-01-18T09:20:11Z</time>
      </trkpt>
      <trkpt lat="43.58557" lon="2.90869">
        <ele>812.4</ele>
        <time>2014-01-18T09:20:12Z</time>
      </trkpt>
      <trkpt lat="43.58554" lon="2.90873">
        <ele>811.6</ele>
        <time>2014-01-18T09:20:13Z</time>
      </trkpt>
      <trkpt lat="43.58551" lon="2.90878">
        <ele>811</ele>
        <time>2014-01-18T09:20:14Z</time>
      </trkpt>
      <trkpt lat="43.58549" lon="2.90882">
        <ele>810.4</ele>
        <time>2014-01-18T09:20:15Z</time>
      </trkpt>
      <trkpt lat="43.58546" lon="2.90887">
        <ele>809.8</ele>
        <time>2014-01-18T09:20:16Z</time>
      </trkpt>
      <trkpt lat="43.58544" lon="2.90892">
        <ele>809.2</ele>
        <time>2014-01-18T09:20:17Z</time>
      </trkpt>
      <trkpt lat="43.58542" lon="2.90897">
        <ele>808.6</ele>
        <time>2014-01-18T09:20:18Z</time>
      </trkpt>
      <trkpt lat="43.58539" lon="2.909">
        <ele>808</ele>
        <time>2014-01-18T09:20:19Z</time>
      </trkpt>
      <trkpt lat="43.58536" lon="2.90905">
        <ele>807.4</ele>
        <time>2014-01-18T09:20:20Z</time>
      </trkpt>
      <trkpt lat="43.58533" lon="2.90909">
        <ele>806.8</ele>
        <time>2014-01-18T09:20:21Z</time>
      </trkpt>
      <trkpt lat="43.5853" lon="2.90912">
        <ele>806.2</ele>
        <time>2014-01-18T09:20:22Z</time>
      </trkpt>
      <trkpt lat="43.58526" lon="2.90915">
        <ele>805.4</ele>
        <time>2014-01-18T09:20:23Z</time>
      </trkpt>
      <trkpt lat="43.58524" lon="2.90918">
        <ele>804.8</ele>
        <time>2014-01-18T09:20:24Z</time>
      </trkpt>
      <trkpt lat="43.58521" lon="2.90922">
        <ele>804</ele>
        <time>2014-01-18T09:20:25Z</time>
      </trkpt>
      <trkpt lat="43.5852" lon="2.90925">
        <ele>803.4</ele>
        <time>2014-01-18T09:20:26Z</time>
      </trkpt>
      <trkpt lat="43.58519" lon="2.90925">
        <ele>802.6</ele>
        <time>2014-01-18T09:20:27Z</time>
      </trkpt>
      <trkpt lat="43.58519" lon="2.90924">
        <ele>802.2</ele>
        <time>2014-01-18T09:20:28Z</time>
      </trkpt>
      <trkpt lat="43.58521" lon="2.90924">
        <ele>801.8</ele>
        <time>2014-01-18T09:20:29Z</time>
      </trkpt>
      <trkpt lat="43.58522" lon="2.90922">
        <ele>801.4</ele>
        <time>2014-01-18T09:20:30Z</time>
      </trkpt>
      <trkpt lat="43.58523" lon="2.90919">
        <ele>801</ele>
        <time>2014-01-18T09:20:31Z</time>
      </trkpt>
      <trkpt lat="43.58524" lon="2.90916">
        <ele>800.4</ele>
        <time>2014-01-18T09:20:32Z</time>
      </trkpt>
      <trkpt lat="43.58527" lon="2.90909">
        <ele>800</ele>
        <time>2014-01-18T09:20:34Z</time>
      </trkpt>
      <trkpt lat="43.58526" lon="2.90905">
        <ele>799.4</ele>
        <time>2014-01-18T09:20:35Z</time>
      </trkpt>
      <trkpt lat="43.58526" lon="2.90901">
        <ele>798.4</ele>
        <time>2014-01-18T09:20:36Z</time>
      </trkpt>
      <trkpt lat="43.58528" lon="2.90896">
        <ele>798</ele>
        <time>2014-01-18T09:20:37Z</time>
      </trkpt>
      <trkpt lat="43.58528" lon="2.90892">
        <ele>797.4</ele>
        <time>2014-01-18T09:20:38Z</time>
      </trkpt>
      <trkpt lat="43.58529" lon="2.90888">
        <ele>796.8</ele>
        <time>2014-01-18T09:20:39Z</time>
      </trkpt>
      <trkpt lat="43.5853" lon="2.90886">
        <ele>796.2</ele>
        <time>2014-01-18T09:20:40Z</time>
      </trkpt>
      <trkpt lat="43.5853" lon="2.90882">
        <ele>795.8</ele>
        <time>2014-01-18T09:20:41Z</time>
      </trkpt>
      <trkpt lat="43.58531" lon="2.90872">
        <ele>795.2</ele>
        <time>2014-01-18T09:20:43Z</time>
      </trkpt>
      <trkpt lat="43.58531" lon="2.90867">
        <ele>794.8</ele>
        <time>2014-01-18T09:20:44Z</time>
      </trkpt>
      <trkpt lat="43.58532" lon="2.90863">
        <ele>794.4</ele>
        <time>2014-01-18T09:20:45Z</time>
      </trkpt>
      <trkpt lat="43.58532" lon="2.9086">
        <ele>794</ele>
        <time>2014-01-18T09:20:46Z</time>
      </trkpt>
      <trkpt lat="43.58532" lon="2.90855">
        <ele>793.4</ele>
        <time>2014-01-18T09:20:47Z</time>
      </trkpt>
      <trkpt lat="43.58533" lon="2.90851">
        <ele>792.8</ele>
        <time>2014-01-18T09:20:48Z</time>
      </trkpt>
      <trkpt lat="43.58534" lon="2.90847">
        <ele>792.2</ele>
        <time>2014-01-18T09:20:49Z</time>
      </trkpt>
      <trkpt lat="43.58535" lon="2.90843">
        <ele>791.6</ele>
        <time>2014-01-18T09:20:50Z</time>
      </trkpt>
      <trkpt lat="43.58535" lon="2.90839">
        <ele>790.8</ele>
        <time>2014-01-18T09:20:51Z</time>
      </trkpt>
      <trkpt lat="43.58536" lon="2.90836">
        <ele>790.2</ele>
        <time>2014-01-18T09:20:52Z</time>
      </trkpt>
      <trkpt lat="43.58537" lon="2.90832">
        <ele>789.6</ele>
        <time>2014-01-18T09:20:53Z</time>
      </trkpt>
      <trkpt lat="43.58538" lon="2.90827">
        <ele>789</ele>
        <time>2014-01-18T09:20:54Z</time>
      </trkpt>
      <trkpt lat="43.58539" lon="2.90824">
        <ele>788.6</ele>
        <time>2014-01-18T09:20:55Z</time>
      </trkpt>
      <trkpt lat="43.5854" lon="2.9082">
        <ele>788</ele>
        <time>2014-01-18T09:20:56Z</time>
      </trkpt>
      <trkpt lat="43.5854" lon="2.90816">
        <ele>787.4</ele>
        <time>2014-01-18T09:20:57Z</time>
      </trkpt>
      <trkpt lat="43.5854" lon="2.90813">
        <ele>786.8</ele>
        <time>2014-01-18T09:20:58Z</time>
      </trkpt>
      <trkpt lat="43.5854" lon="2.90811">
        <ele>786.4</ele>
        <time>2014-01-18T09:20:59Z</time>
      </trkpt>
      <trkpt lat="43.58538" lon="2.9081">
        <ele>785.8</ele>
        <time>2014-01-18T09:21:00Z</time>
      </trkpt>
      <trkpt lat="43.58537" lon="2.90811">
        <ele>784.6</ele>
        <time>2014-01-18T09:21:01Z</time>
      </trkpt>
      <trkpt lat="43.58537" lon="2.90813">
        <ele>783.8</ele>
        <time>2014-01-18T09:21:02Z</time>
      </trkpt>
      <trkpt lat="43.58535" lon="2.90813">
        <ele>783.2</ele>
        <time>2014-01-18T09:21:03Z</time>
      </trkpt>
      <trkpt lat="43.58533" lon="2.90814">
        <ele>782.6</ele>
        <time>2014-01-18T09:21:04Z</time>
      </trkpt>
      <trkpt lat="43.58531" lon="2.90816">
        <ele>782</ele>
        <time>2014-01-18T09:21:05Z</time>
      </trkpt>
      <trkpt lat="43.58528" lon="2.90818">
        <ele>781.2</ele>
        <time>2014-01-18T09:21:06Z</time>
      </trkpt>
      <trkpt lat="43.58525" lon="2.9082">
        <ele>780.6</ele>
        <time>2014-01-18T09:21:07Z</time>
      </trkpt>
      <trkpt lat="43.58522" lon="2.90823">
        <ele>779.8</ele>
        <time>2014-01-18T09:21:08Z</time>
      </trkpt>
      <trkpt lat="43.58519" lon="2.90825">
        <ele>779</ele>
        <time>2014-01-18T09:21:09Z</time>
      </trkpt>
      <trkpt lat="43.58516" lon="2.90828">
        <ele>778.4</ele>
        <time>2014-01-18T09:21:10Z</time>
      </trkpt>
      <trkpt lat="43.58512" lon="2.90831">
        <ele>777.6</ele>
        <time>2014-01-18T09:21:11Z</time>
      </trkpt>
      <trkpt lat="43.5851" lon="2.90835">
        <ele>776.8</ele>
        <time>2014-01-18T09:21:12Z</time>
      </trkpt>
      <trkpt lat="43.58507" lon="2.90839">
        <ele>776.2</ele>
        <time>2014-01-18T09:21:13Z</time>
      </trkpt>
      <trkpt lat="43.58506" lon="2.90843">
        <ele>775.6</ele>
        <time>2014-01-18T09:21:14Z</time>
      </trkpt>
      <trkpt lat="43.58505" lon="2.90848">
        <ele>774.8</ele>
        <time>2014-01-18T09:21:15Z</time>
      </trkpt>
      <trkpt lat="43.58503" lon="2.90852">
        <ele>774.2</ele>
        <time>2014-01-18T09:21:16Z</time>
      </trkpt>
      <trkpt lat="43.58502" lon="2.90856">
        <ele>774.2</ele>
        <time>2014-01-18T09:21:17Z</time>
      </trkpt>
      <trkpt lat="43.58502" lon="2.90859">
        <ele>773.8</ele>
        <time>2014-01-18T09:21:18Z</time>
      </trkpt>
      <trkpt lat="43.58501" lon="2.90862">
        <ele>773.2</ele>
        <time>2014-01-18T09:21:19Z</time>
      </trkpt>
      <trkpt lat="43.585" lon="2.90864">
        <ele>772.8</ele>
        <time>2014-01-18T09:21:20Z</time>
      </trkpt>
      <trkpt lat="43.58498" lon="2.90866">
        <ele>772.4</ele>
        <time>2014-01-18T09:21:21Z</time>
      </trkpt>
      <trkpt lat="43.58496" lon="2.90869">
        <ele>772</ele>
        <time>2014-01-18T09:21:22Z</time>
      </trkpt>
      <trkpt lat="43.58494" lon="2.90872">
        <ele>772</ele>
        <time>2014-01-18T09:21:25Z</time>
      </trkpt>
      <trkpt lat="43.58494" lon="2.90873">
        <ele>772</ele>
        <time>2014-01-18T09:21:26Z</time>
      </trkpt>
      <trkpt lat="43.58494" lon="2.90873">
        <ele>772</ele>
        <time>2014-01-18T09:21:27Z</time>
      </trkpt>
      <trkpt lat="43.58494" lon="2.90874">
        <ele>772</ele>
        <time>2014-01-18T09:21:28Z</time>
      </trkpt>
      <trkpt lat="43.58494" lon="2.90874">
        <ele>772</ele>
        <time>2014-01-18T09:21:34Z</time>
      </trkpt>
      <trkpt lat="43.58494" lon="2.90876">
        <ele>772</ele>
        <time>2014-01-18T09:21:37Z</time>
      </trkpt>
      <trkpt lat="43.58493" lon="2.90877">
        <ele>772</ele>
        <time>2014-01-18T09:21:38Z</time>
      </trkpt>
      <trkpt lat="43.58493" lon="2.90877">
        <ele>772</ele>
        <time>2014-01-18T09:21:39Z</time>
      </trkpt>
      <trkpt lat="43.58493" lon="2.90877">
        <ele>772</ele>
        <time>2014-01-18T09:21:41Z</time>
      </trkpt>
      <trkpt lat="43.58493" lon="2.90877">
        <ele>772</ele>
        <time>2014-01-18T09:21:42Z</time>
      </trkpt>
      <trkpt lat="43.58493" lon="2.90876">
        <ele>772</ele>
        <time>2014-01-18T09:21:45Z</time>
      </trkpt>
      <trkpt lat="43.58494" lon="2.90875">
        <ele>772</ele>
        <time>2014-01-18T09:21:50Z</time>
      </trkpt>
      <trkpt lat="43.58494" lon="2.90875">
        <ele>772</ele>
        <time>2014-01-18T09:21:51Z</time>
      </trkpt>
      <trkpt lat="43.58494" lon="2.90875">
        <ele>772</ele>
        <time>2014-01-18T09:21:52Z</time>
      </trkpt>
      <trkpt lat="43.58494" lon="2.90875">
        <ele>772</ele>
        <time>2014-01-18T09:21:53Z</time>
      </trkpt>
      <trkpt lat="43.58494" lon="2.90875">
        <ele>771.6</ele>
        <time>2014-01-18T09:21:57Z</time>
      </trkpt>
      <trkpt lat="43.58494" lon="2.90875">
        <ele>771.2</ele>
        <time>2014-01-18T09:21:58Z</time>
      </trkpt>
      <trkpt lat="43.58494" lon="2.90875">
        <ele>770.8</ele>
        <time>2014-01-18T09:21:59Z</time>
      </trkpt>
      <trkpt lat="43.58494" lon="2.90875">
        <ele>770.4</ele>
        <time>2014-01-18T09:22:00Z</time>
      </trkpt>
      <trkpt lat="43.58494" lon="2.90875">
        <ele>770</ele>
        <time>2014-01-18T09:22:01Z</time>
      </trkpt>
      <trkpt lat="43.58494" lon="2.90875">
        <ele>770</ele>
        <time>2014-01-18T09:22:07Z</time>
      </trkpt>
      <trkpt lat="43.58495" lon="2.90867">
        <ele>770</ele>
        <time>2014-01-18T09:22:10Z</time>
      </trkpt>
      <trkpt lat="43.58496" lon="2.90853">
        <ele>769.6</ele>
        <time>2014-01-18T09:22:13Z</time>
      </trkpt>
      <trkpt lat="43.58496" lon="2.90847">
        <ele>769</ele>
        <time>2014-01-18T09:22:14Z</time>
      </trkpt>
      <trkpt lat="43.58497" lon="2.90842">
        <ele>768.6</ele>
        <time>2014-01-18T09:22:15Z</time>
      </trkpt>
      <trkpt lat="43.58498" lon="2.90837">
        <ele>768.2</ele>
        <time>2014-01-18T09:22:16Z</time>
      </trkpt>
      <trkpt lat="43.58499" lon="2.90832">
        <ele>767.8</ele>
        <time>2014-01-18T09:22:17Z</time>
      </trkpt>
      <trkpt lat="43.585" lon="2.90826">
        <ele>767.2</ele>
        <time>2014-01-18T09:22:18Z</time>
      </trkpt>
      <trkpt lat="43.58502" lon="2.90822">
        <ele>766.6</ele>
        <time>2014-01-18T09:22:19Z</time>
      </trkpt>
      <trkpt lat="43.58503" lon="2.90818">
        <ele>766.2</ele>
        <time>2014-01-18T09:22:20Z</time>
      </trkpt>
      <trkpt lat="43.58504" lon="2.90814">
        <ele>765.6</ele>
        <time>2014-01-18T09:22:21Z</time>
      </trkpt>
      <trkpt lat="43.58505" lon="2.90811">
        <ele>764.8</ele>
        <time>2014-01-18T09:22:22Z</time>
      </trkpt>
      <trkpt lat="43.58506" lon="2.9081">
        <ele>764.2</ele>
        <time>2014-01-18T09:22:23Z</time>
      </trkpt>
      <trkpt lat="43.58506" lon="2.90809">
        <ele>763.4</ele>
        <time>2014-01-18T09:22:24Z</time>
      </trkpt>
      <trkpt lat="43.58506" lon="2.90808">
        <ele>762.8</ele>
        <time>2014-01-18T09:22:26Z</time>
      </trkpt>
      <trkpt lat="43.58506" lon="2.90806">
        <ele>762.8</ele>
        <time>2014-01-18T09:22:28Z</time>
      </trkpt>
      <trkpt lat="43.58505" lon="2.90805">
        <ele>762.8</ele>
        <time>2014-01-18T09:22:30Z</time>
      </trkpt>
      <trkpt lat="43.58505" lon="2.90806">
        <ele>762.8</ele>
        <time>2014-01-18T09:22:31Z</time>
      </trkpt>
      <trkpt lat="43.58504" lon="2.90807">
        <ele>762.8</ele>
        <time>2014-01-18T09:22:32Z</time>
      </trkpt>
      <trkpt lat="43.58501" lon="2.9081">
        <ele>762.4</ele>
        <time>2014-01-18T09:22:34Z</time>
      </trkpt>
      <trkpt lat="43.58499" lon="2.90811">
        <ele>762</ele>
        <time>2014-01-18T09:22:35Z</time>
      </trkpt>
      <trkpt lat="43.58497" lon="2.90813">
        <ele>761.6</ele>
        <time>2014-01-18T09:22:36Z</time>
      </trkpt>
      <trkpt lat="43.58495" lon="2.90815">
        <ele>761.2</ele>
        <time>2014-01-18T09:22:37Z</time>
      </trkpt>
      <trkpt lat="43.58492" lon="2.90817">
        <ele>760.8</ele>
        <time>2014-01-18T09:22:38Z</time>
      </trkpt>
      <trkpt lat="43.58488" lon="2.90822">
        <ele>760.2</ele>
        <time>2014-01-18T09:22:40Z</time>
      </trkpt>
      <trkpt lat="43.58487" lon="2.90826">
        <ele>759.8</ele>
        <time>2014-01-18T09:22:41Z</time>
      </trkpt>
      <trkpt lat="43.58485" lon="2.90829">
        <ele>759</ele>
        <time>2014-01-18T09:22:42Z</time>
      </trkpt>
      <trkpt lat="43.58482" lon="2.90832">
        <ele>758.4</ele>
        <time>2014-01-18T09:22:43Z</time>
      </trkpt>
      <trkpt lat="43.5848" lon="2.90834">
        <ele>757.6</ele>
        <time>2014-01-18T09:22:44Z</time>
      </trkpt>
      <trkpt lat="43.58477" lon="2.90837">
        <ele>757</ele>
        <time>2014-01-18T09:22:45Z</time>
      </trkpt>
      <trkpt lat="43.58474" lon="2.90841">
        <ele>756.2</ele>
        <time>2014-01-18T09:22:46Z</time>
      </trkpt>
      <trkpt lat="43.58471" lon="2.90845">
        <ele>755.6</ele>
        <time>2014-01-18T09:22:47Z</time>
      </trkpt>
      <trkpt lat="43.58468" lon="2.90848">
        <ele>755</ele>
        <time>2014-01-18T09:22:48Z</time>
      </trkpt>
      <trkpt lat="43.58465" lon="2.9085">
        <ele>754</ele>
        <time>2014-01-18T09:22:49Z</time>
      </trkpt>
      <trkpt lat="43.58461" lon="2.90854">
        <ele>753.2</ele>
        <time>2014-01-18T09:22:50Z</time>
      </trkpt>
      <trkpt lat="43.58457" lon="2.90857">
        <ele>752.4</ele>
        <time>2014-01-18T09:22:51Z</time>
      </trkpt>
      <trkpt lat="43.58452" lon="2.90862">
        <ele>751.6</ele>
        <time>2014-01-18T09:22:52Z</time>
      </trkpt>
      <trkpt lat="43.58448" lon="2.90865">
        <ele>750.8</ele>
        <time>2014-01-18T09:22:53Z</time>
      </trkpt>
      <trkpt lat="43.58444" lon="2.9087">
        <ele>750</ele>
        <time>2014-01-18T09:22:54Z</time>
      </trkpt>
      <trkpt lat="43.58441" lon="2.90877">
        <ele>749.4</ele>
        <time>2014-01-18T09:22:55Z</time>
      </trkpt>
      <trkpt lat="43.58438" lon="2.90883">
        <ele>748.6</ele>
        <time>2014-01-18T09:22:56Z</time>
      </trkpt>
      <trkpt lat="43.58434" lon="2.90888">
        <ele>747.8</ele>
        <time>2014-01-18T09:22:57Z</time>
      </trkpt>
      <trkpt lat="43.5843" lon="2.90891">
        <ele>746.2</ele>
        <time>2014-01-18T09:22:58Z</time>
      </trkpt>
      <trkpt lat="43.58426" lon="2.90891">
        <ele>745.2</ele>
        <time>2014-01-18T09:22:59Z</time>
      </trkpt>
      <trkpt lat="43.58423" lon="2.90893">
        <ele>744.8</ele>
        <time>2014-01-18T09:23:00Z</time>
      </trkpt>
      <trkpt lat="43.5842" lon="2.90896">
        <ele>744.2</ele>
        <time>2014-01-18T09:23:01Z</time>
      </trkpt>
      <trkpt lat="43.58416" lon="2.909">
        <ele>743.6</ele>
        <time>2014-01-18T09:23:02Z</time>
      </trkpt>
      <trkpt lat="43.58412" lon="2.90903">
        <ele>743.2</ele>
        <time>2014-01-18T09:23:03Z</time>
      </trkpt>
      <trkpt lat="43.58409" lon="2.90905">
        <ele>742.4</ele>
        <time>2014-01-18T09:23:04Z</time>
      </trkpt>
      <trkpt lat="43.58406" lon="2.90907">
        <ele>741.8</ele>
        <time>2014-01-18T09:23:05Z</time>
      </trkpt>
      <trkpt lat="43.58404" lon="2.9091">
        <ele>741.2</ele>
        <time>2014-01-18T09:23:06Z</time>
      </trkpt>
      <trkpt lat="43.58402" lon="2.90913">
        <ele>740.6</ele>
        <time>2014-01-18T09:23:07Z</time>
      </trkpt>
      <trkpt lat="43.584" lon="2.90917">
        <ele>740</ele>
        <time>2014-01-18T09:23:08Z</time>
      </trkpt>
      <trkpt lat="43.58396" lon="2.90921">
        <ele>739.6</ele>
        <time>2014-01-18T09:23:09Z</time>
      </trkpt>
      <trkpt lat="43.58392" lon="2.90925">
        <ele>739.2</ele>
        <time>2014-01-18T09:23:10Z</time>
      </trkpt>
      <trkpt lat="43.58387" lon="2.90929">
        <ele>738.6</ele>
        <time>2014-01-18T09:23:11Z</time>
      </trkpt>
      <trkpt lat="43.58382" lon="2.90931">
        <ele>738</ele>
        <time>2014-01-18T09:23:12Z</time>
      </trkpt>
      <trkpt lat="43.58376" lon="2.90932">
        <ele>737.2</ele>
        <time>2014-01-18T09:23:13Z</time>
      </trkpt>
      <trkpt lat="43.58371" lon="2.90932">
        <ele>736.4</ele>
        <time>2014-01-18T09:23:14Z</time>
      </trkpt>
      <trkpt lat="43.58367" lon="2.90931">
        <ele>735.8</ele>
        <time>2014-01-18T09:23:15Z</time>
      </trkpt>
      <trkpt lat="43.58362" lon="2.90932">
        <ele>735</ele>
        <time>2014-01-18T09:23:16Z</time>
      </trkpt>
      <trkpt lat="43.58356" lon="2.90932">
        <ele>734.4</ele>
        <time>2014-01-18T09:23:17Z</time>
      </trkpt>
      <trkpt lat="43.58352" lon="2.90933">
        <ele>733.6</ele>
        <time>2014-01-18T09:23:18Z</time>
      </trkpt>
      <trkpt lat="43.58349" lon="2.90934">
        <ele>732.8</ele>
        <time>2014-01-18T09:23:19Z</time>
      </trkpt>
      <trkpt lat="43.58347" lon="2.90933">
        <ele>732</ele>
        <time>2014-01-18T09:23:20Z</time>
      </trkpt>
      <trkpt lat="43.58347" lon="2.9093">
        <ele>731.2</ele>
        <time>2014-01-18T09:23:21Z</time>
      </trkpt>
      <trkpt lat="43.58347" lon="2.90927">
        <ele>730.4</ele>
        <time>2014-01-18T09:23:22Z</time>
      </trkpt>
      <trkpt lat="43.58349" lon="2.90925">
        <ele>729.4</ele>
        <time>2014-01-18T09:23:23Z</time>
      </trkpt>
      <trkpt lat="43.5835" lon="2.90924">
        <ele>729</ele>
        <time>2014-01-18T09:23:24Z</time>
      </trkpt>
      <trkpt lat="43.58353" lon="2.90923">
        <ele>728.4</ele>
        <time>2014-01-18T09:23:25Z</time>
      </trkpt>
      <trkpt lat="43.58357" lon="2.90922">
        <ele>728</ele>
        <time>2014-01-18T09:23:26Z</time>
      </trkpt>
      <trkpt lat="43.58362" lon="2.9092">
        <ele>727.4</ele>
        <time>2014-01-18T09:23:27Z</time>
      </trkpt>
      <trkpt lat="43.58366" lon="2.90917">
        <ele>726.8</ele>
        <time>2014-01-18T09:23:28Z</time>
      </trkpt>
      <trkpt lat="43.58368" lon="2.90915">
        <ele>726</ele>
        <time>2014-01-18T09:23:29Z</time>
      </trkpt>
      <trkpt lat="43.5837" lon="2.90913">
        <ele>725.4</ele>
        <time>2014-01-18T09:23:30Z</time>
      </trkpt>
      <trkpt lat="43.5837" lon="2.9091">
        <ele>724.6</ele>
        <time>2014-01-18T09:23:31Z</time>
      </trkpt>
      <trkpt lat="43.58372" lon="2.90906">
        <ele>723.8</ele>
        <time>2014-01-18T09:23:32Z</time>
      </trkpt>
      <trkpt lat="43.58374" lon="2.90903">
        <ele>723.2</ele>
        <time>2014-01-18T09:23:33Z</time>
      </trkpt>
      <trkpt lat="43.58375" lon="2.90899">
        <ele>722.4</ele>
        <time>2014-01-18T09:23:34Z</time>
      </trkpt>
      <trkpt lat="43.58377" lon="2.90896">
        <ele>722</ele>
        <time>2014-01-18T09:23:35Z</time>
      </trkpt>
      <trkpt lat="43.58379" lon="2.90893">
        <ele>721.6</ele>
        <time>2014-01-18T09:23:36Z</time>
      </trkpt>
      <trkpt lat="43.58381" lon="2.90889">
        <ele>721.2</ele>
        <time>2014-01-18T09:23:37Z</time>
      </trkpt>
      <trkpt lat="43.58383" lon="2.90885">
        <ele>720.8</ele>
        <time>2014-01-18T09:23:38Z</time>
      </trkpt>
      <trkpt lat="43.58384" lon="2.9088">
        <ele>720.2</ele>
        <time>2014-01-18T09:23:39Z</time>
      </trkpt>
      <trkpt lat="43.58385" lon="2.90875">
        <ele>719.8</ele>
        <time>2014-01-18T09:23:40Z</time>
      </trkpt>
      <trkpt lat="43.58387" lon="2.90869">
        <ele>719.2</ele>
        <time>2014-01-18T09:23:41Z</time>
      </trkpt>
      <trkpt lat="43.5839" lon="2.90863">
        <ele>718.4</ele>
        <time>2014-01-18T09:23:42Z</time>
      </trkpt>
      <trkpt lat="43.58392" lon="2.90859">
        <ele>717.6</ele>
        <time>2014-01-18T09:23:43Z</time>
      </trkpt>
      <trkpt lat="43.58394" lon="2.90857">
        <ele>717</ele>
        <time>2014-01-18T09:23:44Z</time>
      </trkpt>
      <trkpt lat="43.58394" lon="2.90856">
        <ele>716.2</ele>
        <time>2014-01-18T09:23:45Z</time>
      </trkpt>
      <trkpt lat="43.58394" lon="2.90857">
        <ele>715.4</ele>
        <time>2014-01-18T09:23:46Z</time>
      </trkpt>
      <trkpt lat="43.58391" lon="2.90859">
        <ele>715</ele>
        <time>2014-01-18T09:23:48Z</time>
      </trkpt>
      <trkpt lat="43.58389" lon="2.9086">
        <ele>714.6</ele>
        <time>2014-01-18T09:23:49Z</time>
      </trkpt>
      <trkpt lat="43.58386" lon="2.90862">
        <ele>714.2</ele>
        <time>2014-01-18T09:23:50Z</time>
      </trkpt>
      <trkpt lat="43.58383" lon="2.90864">
        <ele>713.6</ele>
        <time>2014-01-18T09:23:51Z</time>
      </trkpt>
      <trkpt lat="43.5838" lon="2.90865">
        <ele>713</ele>
        <time>2014-01-18T09:23:52Z</time>
      </trkpt>
      <trkpt lat="43.58378" lon="2.90866">
        <ele>712.4</ele>
        <time>2014-01-18T09:23:53Z</time>
      </trkpt>
      <trkpt lat="43.58376" lon="2.90867">
        <ele>711.8</ele>
        <time>2014-01-18T09:23:54Z</time>
      </trkpt>
      <trkpt lat="43.58374" lon="2.90868">
        <ele>711.2</ele>
        <time>2014-01-18T09:23:55Z</time>
      </trkpt>
      <trkpt lat="43.58371" lon="2.90869">
        <ele>710.4</ele>
        <time>2014-01-18T09:23:56Z</time>
      </trkpt>
      <trkpt lat="43.58368" lon="2.9087">
        <ele>709.8</ele>
        <time>2014-01-18T09:23:57Z</time>
      </trkpt>
      <trkpt lat="43.58364" lon="2.90872">
        <ele>709</ele>
        <time>2014-01-18T09:23:58Z</time>
      </trkpt>
      <trkpt lat="43.58361" lon="2.90874">
        <ele>708.4</ele>
        <time>2014-01-18T09:23:59Z</time>
      </trkpt>
      <trkpt lat="43.58357" lon="2.90876">
        <ele>707.6</ele>
        <time>2014-01-18T09:24:00Z</time>
      </trkpt>
      <trkpt lat="43.58352" lon="2.90879">
        <ele>707</ele>
        <time>2014-01-18T09:24:01Z</time>
      </trkpt>
      <trkpt lat="43.58348" lon="2.90881">
        <ele>706.4</ele>
        <time>2014-01-18T09:24:02Z</time>
      </trkpt>
      <trkpt lat="43.58344" lon="2.90883">
        <ele>705.8</ele>
        <time>2014-01-18T09:24:03Z</time>
      </trkpt>
      <trkpt lat="43.5834" lon="2.90885">
        <ele>705</ele>
        <time>2014-01-18T09:24:04Z</time>
      </trkpt>
      <trkpt lat="43.58336" lon="2.90887">
        <ele>704.2</ele>
        <time>2014-01-18T09:24:05Z</time>
      </trkpt>
      <trkpt lat="43.58333" lon="2.9089">
        <ele>703.4</ele>
        <time>2014-01-18T09:24:06Z</time>
      </trkpt>
      <trkpt lat="43.58329" lon="2.90893">
        <ele>702.8</ele>
        <time>2014-01-18T09:24:07Z</time>
      </trkpt>
      <trkpt lat="43.58326" lon="2.90896">
        <ele>702</ele>
        <time>2014-01-18T09:24:08Z</time>
      </trkpt>
      <trkpt lat="43.58323" lon="2.90898">
        <ele>701.4</ele>
        <time>2014-01-18T09:24:09Z</time>
      </trkpt>
      <trkpt lat="43.5832" lon="2.909">
        <ele>700.6</ele>
        <time>2014-01-18T09:24:10Z</time>
      </trkpt>
      <trkpt lat="43.58316" lon="2.90903">
        <ele>700</ele>
        <time>2014-01-18T09:24:11Z</time>
      </trkpt>
      <trkpt lat="43.58311" lon="2.90905">
        <ele>698.2</ele>
        <time>2014-01-18T09:24:12Z</time>
      </trkpt>
      <trkpt lat="43.58306" lon="2.90907">
        <ele>697.4</ele>
        <time>2014-01-18T09:24:13Z</time>
      </trkpt>
      <trkpt lat="43.58301" lon="2.90909">
        <ele>696.4</ele>
        <time>2014-01-18T09:24:14Z</time>
      </trkpt>
      <trkpt lat="43.58296" lon="2.9091">
        <ele>695.4</ele>
        <time>2014-01-18T09:24:15Z</time>
      </trkpt>
      <trkpt lat="43.58292" lon="2.90912">
        <ele>694.6</ele>
        <time>2014-01-18T09:24:16Z</time>
      </trkpt>
      <trkpt lat="43.58288" lon="2.90914">
        <ele>693.6</ele>
        <time>2014-01-18T09:24:17Z</time>
      </trkpt>
      <trkpt lat="43.58286" lon="2.90917">
        <ele>692.8</ele>
        <time>2014-01-18T09:24:18Z</time>
      </trkpt>
      <trkpt lat="43.58282" lon="2.90918">
        <ele>692</ele>
        <time>2014-01-18T09:24:19Z</time>
      </trkpt>
      <trkpt lat="43.58278" lon="2.9092">
        <ele>691.2</ele>
        <time>2014-01-18T09:24:20Z</time>
      </trkpt>
      <trkpt lat="43.58274" lon="2.90923">
        <ele>690.6</ele>
        <time>2014-01-18T09:24:21Z</time>
      </trkpt>
      <trkpt lat="43.58268" lon="2.90926">
        <ele>690</ele>
        <time>2014-01-18T09:24:22Z</time>
      </trkpt>
      <trkpt lat="43.58263" lon="2.90927">
        <ele>689.4</ele>
        <time>2014-01-18T09:24:23Z</time>
      </trkpt>
      <trkpt lat="43.58259" lon="2.90927">
        <ele>688.8</ele>
        <time>2014-01-18T09:24:24Z</time>
      </trkpt>
      <trkpt lat="43.58257" lon="2.90928">
        <ele>688.2</ele>
        <time>2014-01-18T09:24:25Z</time>
      </trkpt>
      <trkpt lat="43.58257" lon="2.90928">
        <ele>687.6</ele>
        <time>2014-01-18T09:24:26Z</time>
      </trkpt>
      <trkpt lat="43.58256" lon="2.90929">
        <ele>687</ele>
        <time>2014-01-18T09:24:27Z</time>
      </trkpt>
      <trkpt lat="43.58256" lon="2.90929">
        <ele>686</ele>
        <time>2014-01-18T09:24:29Z</time>
      </trkpt>
      <trkpt lat="43.58254" lon="2.90932">
        <ele>686</ele>
        <time>2014-01-18T09:24:34Z</time>
      </trkpt>
      <trkpt lat="43.58253" lon="2.90934">
        <ele>686</ele>
        <time>2014-01-18T09:24:36Z</time>
      </trkpt>
      <trkpt lat="43.5825" lon="2.90936">
        <ele>686</ele>
        <time>2014-01-18T09:24:41Z</time>
      </trkpt>
      <trkpt lat="43.5825" lon="2.90936">
        <ele>685.6</ele>
        <time>2014-01-18T09:24:42Z</time>
      </trkpt>
      <trkpt lat="43.58249" lon="2.90937">
        <ele>685.2</ele>
        <time>2014-01-18T09:24:43Z</time>
      </trkpt>
      <trkpt lat="43.58248" lon="2.90937">
        <ele>684.8</ele>
        <time>2014-01-18T09:24:44Z</time>
      </trkpt>
      <trkpt lat="43.58247" lon="2.90937">
        <ele>684.4</ele>
        <time>2014-01-18T09:24:45Z</time>
      </trkpt>
      <trkpt lat="43.58246" lon="2.90937">
        <ele>684</ele>
        <time>2014-01-18T09:24:46Z</time>
      </trkpt>
      <trkpt lat="43.58246" lon="2.90937">
        <ele>684</ele>
        <time>2014-01-18T09:24:47Z</time>
      </trkpt>
      <trkpt lat="43.58241" lon="2.90935">
        <ele>684</ele>
        <time>2014-01-18T09:24:52Z</time>
      </trkpt>
      <trkpt lat="43.58236" lon="2.90932">
        <ele>683.4</ele>
        <time>2014-01-18T09:24:54Z</time>
      </trkpt>
      <trkpt lat="43.58232" lon="2.90932">
        <ele>683</ele>
        <time>2014-01-18T09:24:55Z</time>
      </trkpt>
      <trkpt lat="43.58228" lon="2.90931">
        <ele>682.6</ele>
        <time>2014-01-18T09:24:56Z</time>
      </trkpt>
      <trkpt lat="43.58225" lon="2.90931">
        <ele>682.2</ele>
        <time>2014-01-18T09:24:57Z</time>
      </trkpt>
      <trkpt lat="43.5822" lon="2.90929">
        <ele>681.6</ele>
        <time>2014-01-18T09:24:58Z</time>
      </trkpt>
      <trkpt lat="43.58215" lon="2.90928">
        <ele>681</ele>
        <time>2014-01-18T09:24:59Z</time>
      </trkpt>
      <trkpt lat="43.58209" lon="2.90927">
        <ele>680.6</ele>
        <time>2014-01-18T09:25:00Z</time>
      </trkpt>
      <trkpt lat="43.58203" lon="2.90927">
        <ele>680</ele>
        <time>2014-01-18T09:25:01Z</time>
      </trkpt>
      <trkpt lat="43.58197" lon="2.90927">
        <ele>678.8</ele>
        <time>2014-01-18T09:25:02Z</time>
      </trkpt>
      <trkpt lat="43.58192" lon="2.90929">
        <ele>678.4</ele>
        <time>2014-01-18T09:25:03Z</time>
      </trkpt>
      <trkpt lat="43.58187" lon="2.9093">
        <ele>677.8</ele>
        <time>2014-01-18T09:25:04Z</time>
      </trkpt>
      <trkpt lat="43.58182" lon="2.90932">
        <ele>677.2</ele>
        <time>2014-01-18T09:25:05Z</time>
      </trkpt>
      <trkpt lat="43.58175" lon="2.90933">
        <ele>677.2</ele>
        <time>2014-01-18T09:25:06Z</time>
      </trkpt>
      <trkpt lat="43.58163" lon="2.90934">
        <ele>676.8</ele>
        <time>2014-01-18T09:25:08Z</time>
      </trkpt>
      <trkpt lat="43.58156" lon="2.90933">
        <ele>676.4</ele>
        <time>2014-01-18T09:25:09Z</time>
      </trkpt>
      <trkpt lat="43.58151" lon="2.90931">
        <ele>676</ele>
        <time>2014-01-18T09:25:10Z</time>
      </trkpt>
      <trkpt lat="43.58145" lon="2.90929">
        <ele>675.6</ele>
        <time>2014-01-18T09:25:11Z</time>
      </trkpt>
      <trkpt lat="43.5814" lon="2.90928">
        <ele>675.2</ele>
        <time>2014-01-18T09:25:12Z</time>
      </trkpt>
      <trkpt lat="43.58134" lon="2.90926">
        <ele>674.8</ele>
        <time>2014-01-18T09:25:13Z</time>
      </trkpt>
      <trkpt lat="43.58128" lon="2.90924">
        <ele>674.4</ele>
        <time>2014-01-18T09:25:14Z</time>
      </trkpt>
      <trkpt lat="43.58122" lon="2.90922">
        <ele>674</ele>
        <time>2014-01-18T09:25:15Z</time>
      </trkpt>
      <trkpt lat="43.58116" lon="2.90921">
        <ele>673.6</ele>
        <time>2014-01-18T09:25:16Z</time>
      </trkpt>
      <trkpt lat="43.5811" lon="2.90919">
        <ele>673.2</ele>
        <time>2014-01-18T09:25:17Z</time>
      </trkpt>
      <trkpt lat="43.58094" lon="2.90911">
        <ele>673.2</ele>
        <time>2014-01-18T09:25:20Z</time>
      </trkpt>
      <trkpt lat="43.58088" lon="2.90906">
        <ele>672.6</ele>
        <time>2014-01-18T09:25:21Z</time>
      </trkpt>
      <trkpt lat="43.58082" lon="2.90902">
        <ele>672.2</ele>
        <time>2014-01-18T09:25:22Z</time>
      </trkpt>
      <trkpt lat="43.58076" lon="2.90899">
        <ele>671.6</ele>
        <time>2014-01-18T09:25:23Z</time>
      </trkpt>
      <trkpt lat="43.5807" lon="2.90898">
        <ele>671.2</ele>
        <time>2014-01-18T09:25:24Z</time>
      </trkpt>
      <trkpt lat="43.58066" lon="2.90896">
        <ele>670.6</ele>
        <time>2014-01-18T09:25:25Z</time>
      </trkpt>
      <trkpt lat="43.58062" lon="2.90894">
        <ele>669.4</ele>
        <time>2014-01-18T09:25:26Z</time>
      </trkpt>
      <trkpt lat="43.58059" lon="2.90892">
        <ele>668.8</ele>
        <time>2014-01-18T09:25:27Z</time>
      </trkpt>
      <trkpt lat="43.58055" lon="2.9089">
        <ele>668.2</ele>
        <time>2014-01-18T09:25:28Z</time>
      </trkpt>
      <trkpt lat="43.58054" lon="2.90887">
        <ele>668.2</ele>
        <time>2014-01-18T09:25:29Z</time>
      </trkpt>
      <trkpt lat="43.58055" lon="2.90886">
        <ele>668.2</ele>
        <time>2014-01-18T09:25:30Z</time>
      </trkpt>
      <trkpt lat="43.58058" lon="2.90887">
        <ele>667.6</ele>
        <time>2014-01-18T09:25:32Z</time>
      </trkpt>
      <trkpt lat="43.58062" lon="2.90888">
        <ele>667.2</ele>
        <time>2014-01-18T09:25:33Z</time>
      </trkpt>
      <trkpt lat="43.58066" lon="2.90889">
        <ele>666.6</ele>
        <time>2014-01-18T09:25:34Z</time>
      </trkpt>
      <trkpt lat="43.5807" lon="2.90888">
        <ele>666.2</ele>
        <time>2014-01-18T09:25:35Z</time>
      </trkpt>
      <trkpt lat="43.58073" lon="2.90886">
        <ele>665.4</ele>
        <time>2014-01-18T09:25:36Z</time>
      </trkpt>
      <trkpt lat="43.58077" lon="2.90884">
        <ele>664.8</ele>
        <time>2014-01-18T09:25:37Z</time>
      </trkpt>
      <trkpt lat="43.58082" lon="2.90881">
        <ele>663.8</ele>
        <time>2014-01-18T09:25:38Z</time>
      </trkpt>
      <trkpt lat="43.58087" lon="2.90878">
        <ele>663</ele>
        <time>2014-01-18T09:25:39Z</time>
      </trkpt>
      <trkpt lat="43.58092" lon="2.90876">
        <ele>662</ele>
        <time>2014-01-18T09:25:40Z</time>
      </trkpt>
      <trkpt lat="43.58096" lon="2.90876">
        <ele>661</ele>
        <time>2014-01-18T09:25:41Z</time>
      </trkpt>
      <trkpt lat="43.58099" lon="2.90875">
        <ele>660</ele>
        <time>2014-01-18T09:25:42Z</time>
      </trkpt>
      <trkpt lat="43.58102" lon="2.90874">
        <ele>658.8</ele>
        <time>2014-01-18T09:25:43Z</time>
      </trkpt>
      <trkpt lat="43.58105" lon="2.90873">
        <ele>657.8</ele>
        <time>2014-01-18T09:25:44Z</time>
      </trkpt>
      <trkpt lat="43.58108" lon="2.90872">
        <ele>656.8</ele>
        <time>2014-01-18T09:25:45Z</time>
      </trkpt>
      <trkpt lat="43.58113" lon="2.90871">
        <ele>656</ele>
        <time>2014-01-18T09:25:46Z</time>
      </trkpt>
      <trkpt lat="43.58118" lon="2.90869">
        <ele>655.2</ele>
        <time>2014-01-18T09:25:47Z</time>
      </trkpt>
      <trkpt lat="43.58123" lon="2.90867">
        <ele>654.2</ele>
        <time>2014-01-18T09:25:48Z</time>
      </trkpt>
      <trkpt lat="43.58128" lon="2.90866">
        <ele>653.4</ele>
        <time>2014-01-18T09:25:49Z</time>
      </trkpt>
      <trkpt lat="43.58133" lon="2.90864">
        <ele>652.6</ele>
        <time>2014-01-18T09:25:50Z</time>
      </trkpt>
      <trkpt lat="43.58138" lon="2.90862">
        <ele>650.8</ele>
        <time>2014-01-18T09:25:51Z</time>
      </trkpt>
      <trkpt lat="43.58142" lon="2.9086">
        <ele>649.8</ele>
        <time>2014-01-18T09:25:52Z</time>
      </trkpt>
      <trkpt lat="43.58146" lon="2.90857">
        <ele>648.8</ele>
        <time>2014-01-18T09:25:53Z</time>
      </trkpt>
      <trkpt lat="43.5815" lon="2.90855">
        <ele>647.8</ele>
        <time>2014-01-18T09:25:54Z</time>
      </trkpt>
      <trkpt lat="43.58153" lon="2.90855">
        <ele>647</ele>
        <time>2014-01-18T09:25:55Z</time>
      </trkpt>
      <trkpt lat="43.58155" lon="2.90854">
        <ele>646</ele>
        <time>2014-01-18T09:25:56Z</time>
      </trkpt>
      <trkpt lat="43.58158" lon="2.90853">
        <ele>645.2</ele>
        <time>2014-01-18T09:25:57Z</time>
      </trkpt>
      <trkpt lat="43.58162" lon="2.90853">
        <ele>644.4</ele>
        <time>2014-01-18T09:25:58Z</time>
      </trkpt>
      <trkpt lat="43.58165" lon="2.90852">
        <ele>643.6</ele>
        <time>2014-01-18T09:25:59Z</time>
      </trkpt>
      <trkpt lat="43.58167" lon="2.9085">
        <ele>642.8</ele>
        <time>2014-01-18T09:26:00Z</time>
      </trkpt>
      <trkpt lat="43.58169" lon="2.90846">
        <ele>642.2</ele>
        <time>2014-01-18T09:26:01Z</time>
      </trkpt>
      <trkpt lat="43.5817" lon="2.90841">
        <ele>641.4</ele>
        <time>2014-01-18T09:26:02Z</time>
      </trkpt>
      <trkpt lat="43.58173" lon="2.90837">
        <ele>640.6</ele>
        <time>2014-01-18T09:26:03Z</time>
      </trkpt>
      <trkpt lat="43.58175" lon="2.90835">
        <ele>639.8</ele>
        <time>2014-01-18T09:26:04Z</time>
      </trkpt>
      <trkpt lat="43.58176" lon="2.90833">
        <ele>639</ele>
        <time>2014-01-18T09:26:05Z</time>
      </trkpt>
      <trkpt lat="43.58177" lon="2.90831">
        <ele>638.2</ele>
        <time>2014-01-18T09:26:06Z</time>
      </trkpt>
      <trkpt lat="43.58177" lon="2.9083">
        <ele>637.2</ele>
        <time>2014-01-18T09:26:07Z</time>
      </trkpt>
      <trkpt lat="43.58177" lon="2.9083">
        <ele>636.6</ele>
        <time>2014-01-18T09:26:08Z</time>
      </trkpt>
      <trkpt lat="43.58175" lon="2.90829">
        <ele>636</ele>
        <time>2014-01-18T09:26:09Z</time>
      </trkpt>
      <trkpt lat="43.58172" lon="2.90829">
        <ele>635.2</ele>
        <time>2014-01-18T09:26:10Z</time>
      </trkpt>
      <trkpt lat="43.5817" lon="2.90829">
        <ele>634.6</ele>
        <time>2014-01-18T09:26:11Z</time>
      </trkpt>
      <trkpt lat="43.58167" lon="2.90829">
        <ele>634</ele>
        <time>2014-01-18T09:26:12Z</time>
      </trkpt>
      <trkpt lat="43.58165" lon="2.90829">
        <ele>633.4</ele>
        <time>2014-01-18T09:26:13Z</time>
      </trkpt>
      <trkpt lat="43.58163" lon="2.90827">
        <ele>632.6</ele>
        <time>2014-01-18T09:26:14Z</time>
      </trkpt>
      <trkpt lat="43.58161" lon="2.90824">
        <ele>631.4</ele>
        <time>2014-01-18T09:26:15Z</time>
      </trkpt>
      <trkpt lat="43.58158" lon="2.90822">
        <ele>630.8</ele>
        <time>2014-01-18T09:26:16Z</time>
      </trkpt>
      <trkpt lat="43.58157" lon="2.90819">
        <ele>630.2</ele>
        <time>2014-01-18T09:26:17Z</time>
      </trkpt>
      <trkpt lat="43.58156" lon="2.90815">
        <ele>629.6</ele>
        <time>2014-01-18T09:26:18Z</time>
      </trkpt>
      <trkpt lat="43.58155" lon="2.90813">
        <ele>629</ele>
        <time>2014-01-18T09:26:19Z</time>
      </trkpt>
      <trkpt lat="43.58154" lon="2.90811">
        <ele>628.4</ele>
        <time>2014-01-18T09:26:20Z</time>
      </trkpt>
      <trkpt lat="43.58154" lon="2.90809">
        <ele>627.8</ele>
        <time>2014-01-18T09:26:21Z</time>
      </trkpt>
      <trkpt lat="43.58153" lon="2.90808">
        <ele>627.2</ele>
        <time>2014-01-18T09:26:22Z</time>
      </trkpt>
      <trkpt lat="43.58152" lon="2.90808">
        <ele>626.6</ele>
        <time>2014-01-18T09:26:23Z</time>
      </trkpt>
      <trkpt lat="43.58152" lon="2.90808">
        <ele>626.2</ele>
        <time>2014-01-18T09:26:24Z</time>
      </trkpt>
      <trkpt lat="43.58151" lon="2.90808">
        <ele>625.8</ele>
        <time>2014-01-18T09:26:25Z</time>
      </trkpt>
      <trkpt lat="43.5815" lon="2.90808">
        <ele>625.4</ele>
        <time>2014-01-18T09:26:26Z</time>
      </trkpt>
      <trkpt lat="43.58148" lon="2.90807">
        <ele>625</ele>
        <time>2014-01-18T09:26:27Z</time>
      </trkpt>
      <trkpt lat="43.58146" lon="2.90806">
        <ele>624.6</ele>
        <time>2014-01-18T09:26:28Z</time>
      </trkpt>
      <trkpt lat="43.58142" lon="2.90801">
        <ele>624</ele>
        <time>2014-01-18T09:26:30Z</time>
      </trkpt>
      <trkpt lat="43.5814" lon="2.90799">
        <ele>623.6</ele>
        <time>2014-01-18T09:26:31Z</time>
      </trkpt>
      <trkpt lat="43.58139" lon="2.90796">
        <ele>623</ele>
        <time>2014-01-18T09:26:32Z</time>
      </trkpt>
      <trkpt lat="43.58138" lon="2.90795">
        <ele>622.6</ele>
        <time>2014-01-18T09:26:33Z</time>
      </trkpt>
      <trkpt lat="43.58136" lon="2.90793">
        <ele>622.2</ele>
        <time>2014-01-18T09:26:34Z</time>
      </trkpt>
      <trkpt lat="43.58134" lon="2.90791">
        <ele>621.6</ele>
        <time>2014-01-18T09:26:35Z</time>
      </trkpt>
      <trkpt lat="43.58133" lon="2.9079">
        <ele>621.2</ele>
        <time>2014-01-18T09:26:36Z</time>
      </trkpt>
      <trkpt lat="43.58132" lon="2.90789">
        <ele>620.6</ele>
        <time>2014-01-18T09:26:37Z</time>
      </trkpt>
      <trkpt lat="43.58131" lon="2.90789">
        <ele>620.2</ele>
        <time>2014-01-18T09:26:38Z</time>
      </trkpt>
      <trkpt lat="43.58129" lon="2.90787">
        <ele>619.6</ele>
        <time>2014-01-18T09:26:39Z</time>
      </trkpt>
      <trkpt lat="43.58126" lon="2.90786">
        <ele>619</ele>
        <time>2014-01-18T09:26:40Z</time>
      </trkpt>
      <trkpt lat="43.58125" lon="2.90783">
        <ele>618.6</ele>
        <time>2014-01-18T09:26:41Z</time>
      </trkpt>
      <trkpt lat="43.58123" lon="2.90781">
        <ele>618.2</ele>
        <time>2014-01-18T09:26:42Z</time>
      </trkpt>
      <trkpt lat="43.58122" lon="2.9078">
        <ele>617.6</ele>
        <time>2014-01-18T09:26:43Z</time>
      </trkpt>
      <trkpt lat="43.5812" lon="2.90778">
        <ele>617</ele>
        <time>2014-01-18T09:26:44Z</time>
      </trkpt>
      <trkpt lat="43.58118" lon="2.90777">
        <ele>616.4</ele>
        <time>2014-01-18T09:26:45Z</time>
      </trkpt>
      <trkpt lat="43.58116" lon="2.90775">
        <ele>615.8</ele>
        <time>2014-01-18T09:26:46Z</time>
      </trkpt>
      <trkpt lat="43.58115" lon="2.90772">
        <ele>615.2</ele>
        <time>2014-01-18T09:26:47Z</time>
      </trkpt>
      <trkpt lat="43.58113" lon="2.90769">
        <ele>614.8</ele>
        <time>2014-01-18T09:26:48Z</time>
      </trkpt>
      <trkpt lat="43.5811" lon="2.90765">
        <ele>614.2</ele>
        <time>2014-01-18T09:26:49Z</time>
      </trkpt>
      <trkpt lat="43.58108" lon="2.90761">
        <ele>613.6</ele>
        <time>2014-01-18T09:26:50Z</time>
      </trkpt>
      <trkpt lat="43.58106" lon="2.90757">
        <ele>613.2</ele>
        <time>2014-01-18T09:26:51Z</time>
      </trkpt>
      <trkpt lat="43.58104" lon="2.90754">
        <ele>612.6</ele>
        <time>2014-01-18T09:26:52Z</time>
      </trkpt>
      <trkpt lat="43.58101" lon="2.90752">
        <ele>612</ele>
        <time>2014-01-18T09:26:53Z</time>
      </trkpt>
      <trkpt lat="43.58098" lon="2.9075">
        <ele>611.4</ele>
        <time>2014-01-18T09:26:54Z</time>
      </trkpt>
      <trkpt lat="43.58095" lon="2.90748">
        <ele>610.8</ele>
        <time>2014-01-18T09:26:55Z</time>
      </trkpt>
      <trkpt lat="43.58092" lon="2.90746">
        <ele>610.2</ele>
        <time>2014-01-18T09:26:56Z</time>
      </trkpt>
      <trkpt lat="43.58089" lon="2.90743">
        <ele>609.6</ele>
        <time>2014-01-18T09:26:57Z</time>
      </trkpt>
      <trkpt lat="43.58086" lon="2.90741">
        <ele>608.8</ele>
        <time>2014-01-18T09:26:58Z</time>
      </trkpt>
      <trkpt lat="43.58083" lon="2.90738">
        <ele>608.2</ele>
        <time>2014-01-18T09:26:59Z</time>
      </trkpt>
      <trkpt lat="43.58081" lon="2.90735">
        <ele>607.4</ele>
        <time>2014-01-18T09:27:00Z</time>
      </trkpt>
      <trkpt lat="43.58078" lon="2.90733">
        <ele>606.8</ele>
        <time>2014-01-18T09:27:01Z</time>
      </trkpt>
      <trkpt lat="43.58075" lon="2.90731">
        <ele>606.2</ele>
        <time>2014-01-18T09:27:02Z</time>
      </trkpt>
      <trkpt lat="43.58072" lon="2.9073">
        <ele>605.4</ele>
        <time>2014-01-18T09:27:03Z</time>
      </trkpt>
      <trkpt lat="43.58071" lon="2.90729">
        <ele>604.8</ele>
        <time>2014-01-18T09:27:04Z</time>
      </trkpt>
      <trkpt lat="43.58069" lon="2.90728">
        <ele>603.4</ele>
        <time>2014-01-18T09:27:05Z</time>
      </trkpt>
      <trkpt lat="43.58067" lon="2.90727">
        <ele>602.6</ele>
        <time>2014-01-18T09:27:06Z</time>
      </trkpt>
      <trkpt lat="43.58064" lon="2.90725">
        <ele>602</ele>
        <time>2014-01-18T09:27:07Z</time>
      </trkpt>
      <trkpt lat="43.58062" lon="2.90723">
        <ele>601.6</ele>
        <time>2014-01-18T09:27:08Z</time>
      </trkpt>
      <trkpt lat="43.5806" lon="2.9072">
        <ele>601</ele>
        <time>2014-01-18T09:27:09Z</time>
      </trkpt>
      <trkpt lat="43.58057" lon="2.90719">
        <ele>600.6</ele>
        <time>2014-01-18T09:27:10Z</time>
      </trkpt>
      <trkpt lat="43.58055" lon="2.90718">
        <ele>600</ele>
        <time>2014-01-18T09:27:11Z</time>
      </trkpt>
      <trkpt lat="43.58053" lon="2.90716">
        <ele>599.4</ele>
        <time>2014-01-18T09:27:12Z</time>
      </trkpt>
      <trkpt lat="43.58051" lon="2.90714">
        <ele>598.8</ele>
        <time>2014-01-18T09:27:13Z</time>
      </trkpt>
      <trkpt lat="43.58049" lon="2.90712">
        <ele>598.2</ele>
        <time>2014-01-18T09:27:14Z</time>
      </trkpt>
      <trkpt lat="43.58046" lon="2.9071">
        <ele>597.6</ele>
        <time>2014-01-18T09:27:15Z</time>
      </trkpt>
      <trkpt lat="43.58045" lon="2.90707">
        <ele>597.2</ele>
        <time>2014-01-18T09:27:16Z</time>
      </trkpt>
      <trkpt lat="43.58043" lon="2.90705">
        <ele>596.6</ele>
        <time>2014-01-18T09:27:17Z</time>
      </trkpt>
      <trkpt lat="43.5804" lon="2.90703">
        <ele>596</ele>
        <time>2014-01-18T09:27:18Z</time>
      </trkpt>
      <trkpt lat="43.58038" lon="2.90701">
        <ele>595.4</ele>
        <time>2014-01-18T09:27:19Z</time>
      </trkpt>
      <trkpt lat="43.58035" lon="2.907">
        <ele>594.8</ele>
        <time>2014-01-18T09:27:20Z</time>
      </trkpt>
      <trkpt lat="43.58033" lon="2.90698">
        <ele>594.4</ele>
        <time>2014-01-18T09:27:21Z</time>
      </trkpt>
      <trkpt lat="43.5803" lon="2.90698">
        <ele>593.8</ele>
        <time>2014-01-18T09:27:22Z</time>
      </trkpt>
      <trkpt lat="43.58028" lon="2.90697">
        <ele>593.4</ele>
        <time>2014-01-18T09:27:23Z</time>
      </trkpt>
      <trkpt lat="43.58025" lon="2.90696">
        <ele>592.8</ele>
        <time>2014-01-18T09:27:24Z</time>
      </trkpt>
      <trkpt lat="43.58022" lon="2.90696">
        <ele>592.4</ele>
        <time>2014-01-18T09:27:25Z</time>
      </trkpt>
      <trkpt lat="43.58019" lon="2.90694">
        <ele>591.8</ele>
        <time>2014-01-18T09:27:26Z</time>
      </trkpt>
      <trkpt lat="43.58017" lon="2.90692">
        <ele>591.4</ele>
        <time>2014-01-18T09:27:27Z</time>
      </trkpt>
      <trkpt lat="43.58014" lon="2.90691">
        <ele>590.8</ele>
        <time>2014-01-18T09:27:28Z</time>
      </trkpt>
      <trkpt lat="43.5801" lon="2.9069">
        <ele>589.8</ele>
        <time>2014-01-18T09:27:29Z</time>
      </trkpt>
      <trkpt lat="43.58007" lon="2.9069">
        <ele>589.2</ele>
        <time>2014-01-18T09:27:30Z</time>
      </trkpt>
      <trkpt lat="43.58004" lon="2.90689">
        <ele>588.8</ele>
        <time>2014-01-18T09:27:31Z</time>
      </trkpt>
      <trkpt lat="43.58001" lon="2.9069">
        <ele>588.2</ele>
        <time>2014-01-18T09:27:32Z</time>
      </trkpt>
      <trkpt lat="43.58" lon="2.9069">
        <ele>587.8</ele>
        <time>2014-01-18T09:27:33Z</time>
      </trkpt>
      <trkpt lat="43.57998" lon="2.90688">
        <ele>587.2</ele>
        <time>2014-01-18T09:27:34Z</time>
      </trkpt>
      <trkpt lat="43.57998" lon="2.90687">
        <ele>586.8</ele>
        <time>2014-01-18T09:27:35Z</time>
      </trkpt>
      <trkpt lat="43.57999" lon="2.90686">
        <ele>586.4</ele>
        <time>2014-01-18T09:27:36Z</time>
      </trkpt>
      <trkpt lat="43.58001" lon="2.90685">
        <ele>585.8</ele>
        <time>2014-01-18T09:27:37Z</time>
      </trkpt>
      <trkpt lat="43.58002" lon="2.90683">
        <ele>585.4</ele>
        <time>2014-01-18T09:27:38Z</time>
      </trkpt>
      <trkpt lat="43.58004" lon="2.90683">
        <ele>585</ele>
        <time>2014-01-18T09:27:39Z</time>
      </trkpt>
      <trkpt lat="43.58005" lon="2.90681">
        <ele>584.6</ele>
        <time>2014-01-18T09:27:40Z</time>
      </trkpt>
      <trkpt lat="43.58006" lon="2.9068">
        <ele>584.2</ele>
        <time>2014-01-18T09:27:41Z</time>
      </trkpt>
      <trkpt lat="43.58007" lon="2.9068">
        <ele>583.8</ele>
        <time>2014-01-18T09:27:42Z</time>
      </trkpt>
      <trkpt lat="43.58009" lon="2.9068">
        <ele>583.8</ele>
        <time>2014-01-18T09:27:44Z</time>
      </trkpt>
      <trkpt lat="43.5801" lon="2.9068">
        <ele>583.8</ele>
        <time>2014-01-18T09:28:48Z</time>
      </trkpt>
      <trkpt lat="43.58011" lon="2.9068">
        <ele>583.8</ele>
        <time>2014-01-18T09:28:49Z</time>
      </trkpt>
      <trkpt lat="43.58012" lon="2.9068">
        <ele>583.8</ele>
        <time>2014-01-18T09:28:50Z</time>
      </trkpt>
      <trkpt lat="43.58016" lon="2.90677">
        <ele>583.8</ele>
        <time>2014-01-18T09:28:52Z</time>
      </trkpt>
      <trkpt lat="43.58021" lon="2.90672">
        <ele>583.8</ele>
        <time>2014-01-18T09:28:54Z</time>
      </trkpt>
      <trkpt lat="43.58026" lon="2.90668">
        <ele>583.8</ele>
        <time>2014-01-18T09:28:56Z</time>
      </trkpt>
      <trkpt lat="43.5803" lon="2.90667">
        <ele>583.4</ele>
        <time>2014-01-18T09:28:57Z</time>
      </trkpt>
      <trkpt lat="43.58032" lon="2.90666">
        <ele>582.8</ele>
        <time>2014-01-18T09:28:58Z</time>
      </trkpt>
      <trkpt lat="43.58034" lon="2.90665">
        <ele>582.4</ele>
        <time>2014-01-18T09:28:59Z</time>
      </trkpt>
      <trkpt lat="43.58035" lon="2.90663">
        <ele>582</ele>
        <time>2014-01-18T09:29:00Z</time>
      </trkpt>
      <trkpt lat="43.58037" lon="2.90662">
        <ele>581.4</ele>
        <time>2014-01-18T09:29:01Z</time>
      </trkpt>
      <trkpt lat="43.58041" lon="2.9066">
        <ele>581</ele>
        <time>2014-01-18T09:29:03Z</time>
      </trkpt>
      <trkpt lat="43.58044" lon="2.90658">
        <ele>580.6</ele>
        <time>2014-01-18T09:29:04Z</time>
      </trkpt>
      <trkpt lat="43.58047" lon="2.90657">
        <ele>580.2</ele>
        <time>2014-01-18T09:29:05Z</time>
      </trkpt>
      <trkpt lat="43.58049" lon="2.90655">
        <ele>579.8</ele>
        <time>2014-01-18T09:29:06Z</time>
      </trkpt>
      <trkpt lat="43.58052" lon="2.90655">
        <ele>579.4</ele>
        <time>2014-01-18T09:29:07Z</time>
      </trkpt>
      <trkpt lat="43.58054" lon="2.90656">
        <ele>579.4</ele>
        <time>2014-01-18T09:29:08Z</time>
      </trkpt>
      <trkpt lat="43.58057" lon="2.90657">
        <ele>578.8</ele>
        <time>2014-01-18T09:29:10Z</time>
      </trkpt>
      <trkpt lat="43.58058" lon="2.90658">
        <ele>578.4</ele>
        <time>2014-01-18T09:29:11Z</time>
      </trkpt>
      <trkpt lat="43.5806" lon="2.90659">
        <ele>578</ele>
        <time>2014-01-18T09:29:12Z</time>
      </trkpt>
      <trkpt lat="43.58061" lon="2.90659">
        <ele>577.6</ele>
        <time>2014-01-18T09:29:13Z</time>
      </trkpt>
      <trkpt lat="43.58062" lon="2.90659">
        <ele>577.2</ele>
        <time>2014-01-18T09:29:14Z</time>
      </trkpt>
      <trkpt lat="43.58062" lon="2.90657">
        <ele>577.2</ele>
        <time>2014-01-18T09:29:15Z</time>
      </trkpt>
      <trkpt lat="43.58062" lon="2.90654">
        <ele>577.2</ele>
        <time>2014-01-18T09:29:17Z</time>
      </trkpt>
      <trkpt lat="43.58063" lon="2.90653">
        <ele>577.2</ele>
        <time>2014-01-18T09:29:18Z</time>
      </trkpt>
      <trkpt lat="43.58063" lon="2.90653">
        <ele>577.2</ele>
        <time>2014-01-18T09:29:21Z</time>
      </trkpt>
      <trkpt lat="43.58062" lon="2.90652">
        <ele>577.2</ele>
        <time>2014-01-18T09:29:23Z</time>
      </trkpt>
      <trkpt lat="43.58062" lon="2.90651">
        <ele>576.8</ele>
        <time>2014-01-18T09:29:24Z</time>
      </trkpt>
      <trkpt lat="43.58062" lon="2.9065">
        <ele>576.4</ele>
        <time>2014-01-18T09:29:25Z</time>
      </trkpt>
      <trkpt lat="43.58062" lon="2.9065">
        <ele>576</ele>
        <time>2014-01-18T09:29:26Z</time>
      </trkpt>
      <trkpt lat="43.58062" lon="2.9065">
        <ele>575.6</ele>
        <time>2014-01-18T09:29:27Z</time>
      </trkpt>
      <trkpt lat="43.58062" lon="2.90649">
        <ele>575.2</ele>
        <time>2014-01-18T09:29:28Z</time>
      </trkpt>
      <trkpt lat="43.58062" lon="2.90649">
        <ele>575.2</ele>
        <time>2014-01-18T09:29:29Z</time>
      </trkpt>
      <trkpt lat="43.58062" lon="2.90648">
        <ele>573</ele>
        <time>2014-01-18T09:29:39Z</time>
      </trkpt>
      <trkpt lat="43.58063" lon="2.90645">
        <ele>573</ele>
        <time>2014-01-18T09:29:42Z</time>
      </trkpt>
      <trkpt lat="43.58064" lon="2.90643">
        <ele>572.6</ele>
        <time>2014-01-18T09:29:43Z</time>
      </trkpt>
      <trkpt lat="43.58063" lon="2.90641">
        <ele>572.2</ele>
        <time>2014-01-18T09:29:44Z</time>
      </trkpt>
      <trkpt lat="43.58063" lon="2.9064">
        <ele>571.8</ele>
        <time>2014-01-18T09:29:45Z</time>
      </trkpt>
      <trkpt lat="43.58063" lon="2.90638">
        <ele>571.4</ele>
        <time>2014-01-18T09:29:46Z</time>
      </trkpt>
      <trkpt lat="43.58063" lon="2.90637">
        <ele>571</ele>
        <time>2014-01-18T09:29:47Z</time>
      </trkpt>
      <trkpt lat="43.58063" lon="2.90636">
        <ele>570.4</ele>
        <time>2014-01-18T09:29:48Z</time>
      </trkpt>
      <trkpt lat="43.58063" lon="2.90635">
        <ele>570</ele>
        <time>2014-01-18T09:29:49Z</time>
      </trkpt>
      <trkpt lat="43.58063" lon="2.90634">
        <ele>569.6</ele>
        <time>2014-01-18T09:29:50Z</time>
      </trkpt>
      <trkpt lat="43.58062" lon="2.90633">
        <ele>569.2</ele>
        <time>2014-01-18T09:29:51Z</time>
      </trkpt>
      <trkpt lat="43.5806" lon="2.90633">
        <ele>568.8</ele>
        <time>2014-01-18T09:29:52Z</time>
      </trkpt>
      <trkpt lat="43.58056" lon="2.90632">
        <ele>568.8</ele>
        <time>2014-01-18T09:29:55Z</time>
      </trkpt>
      <trkpt lat="43.58053" lon="2.90633">
        <ele>568.8</ele>
        <time>2014-01-18T09:29:57Z</time>
      </trkpt>
      <trkpt lat="43.58044" lon="2.90638">
        <ele>568.8</ele>
        <time>2014-01-18T09:30:02Z</time>
      </trkpt>
      <trkpt lat="43.58042" lon="2.90638">
        <ele>568.8</ele>
        <time>2014-01-18T09:30:03Z</time>
      </trkpt>
      <trkpt lat="43.58029" lon="2.90639">
        <ele>568.8</ele>
        <time>2014-01-18T09:30:08Z</time>
      </trkpt>
      <trkpt lat="43.58025" lon="2.90641">
        <ele>568.8</ele>
        <time>2014-01-18T09:30:11Z</time>
      </trkpt>
      <trkpt lat="43.58025" lon="2.9064">
        <ele>568.8</ele>
        <time>2014-01-18T09:30:15Z</time>
      </trkpt>
      <trkpt lat="43.58023" lon="2.9064">
        <ele>568.8</ele>
        <time>2014-01-18T09:30:16Z</time>
      </trkpt>
      <trkpt lat="43.58022" lon="2.90639">
        <ele>568.8</ele>
        <time>2014-01-18T09:30:18Z</time>
      </trkpt>
      <trkpt lat="43.5802" lon="2.90639">
        <ele>568.4</ele>
        <time>2014-01-18T09:30:19Z</time>
      </trkpt>
      <trkpt lat="43.58017" lon="2.90639">
        <ele>568</ele>
        <time>2014-01-18T09:30:20Z</time>
      </trkpt>
      <trkpt lat="43.58015" lon="2.90638">
        <ele>567.6</ele>
        <time>2014-01-18T09:30:21Z</time>
      </trkpt>
      <trkpt lat="43.58013" lon="2.90637">
        <ele>566.6</ele>
        <time>2014-01-18T09:30:22Z</time>
      </trkpt>
      <trkpt lat="43.58011" lon="2.90636">
        <ele>566.2</ele>
        <time>2014-01-18T09:30:23Z</time>
      </trkpt>
      <trkpt lat="43.5801" lon="2.90635">
        <ele>565.8</ele>
        <time>2014-01-18T09:30:24Z</time>
      </trkpt>
      <trkpt lat="43.58008" lon="2.90636">
        <ele>565.4</ele>
        <time>2014-01-18T09:30:25Z</time>
      </trkpt>
      <trkpt lat="43.58005" lon="2.90636">
        <ele>565</ele>
        <time>2014-01-18T09:30:26Z</time>
      </trkpt>
      <trkpt lat="43.58001" lon="2.90636">
        <ele>564.6</ele>
        <time>2014-01-18T09:30:27Z</time>
      </trkpt>
      <trkpt lat="43.57998" lon="2.90633">
        <ele>564.6</ele>
        <time>2014-01-18T09:30:28Z</time>
      </trkpt>
      <trkpt lat="43.57995" lon="2.9063">
        <ele>564.2</ele>
        <time>2014-01-18T09:30:29Z</time>
      </trkpt>
      <trkpt lat="43.57992" lon="2.90629">
        <ele>563.6</ele>
        <time>2014-01-18T09:30:30Z</time>
      </trkpt>
      <trkpt lat="43.5799" lon="2.9063">
        <ele>563.2</ele>
        <time>2014-01-18T09:30:31Z</time>
      </trkpt>
      <trkpt lat="43.57986" lon="2.90632">
        <ele>562.6</ele>
        <time>2014-01-18T09:30:32Z</time>
      </trkpt>
      <trkpt lat="43.57982" lon="2.90632">
        <ele>562</ele>
        <time>2014-01-18T09:30:33Z</time>
      </trkpt>
      <trkpt lat="43.57977" lon="2.90635">
        <ele>561.4</ele>
        <time>2014-01-18T09:30:34Z</time>
      </trkpt>
      <trkpt lat="43.57972" lon="2.90638">
        <ele>560.6</ele>
        <time>2014-01-18T09:30:35Z</time>
      </trkpt>
      <trkpt lat="43.57967" lon="2.9064">
        <ele>559.8</ele>
        <time>2014-01-18T09:30:36Z</time>
      </trkpt>
      <trkpt lat="43.57961" lon="2.90642">
        <ele>559</ele>
        <time>2014-01-18T09:30:37Z</time>
      </trkpt>
      <trkpt lat="43.57957" lon="2.90644">
        <ele>558.2</ele>
        <time>2014-01-18T09:30:38Z</time>
      </trkpt>
      <trkpt lat="43.57952" lon="2.90645">
        <ele>557.2</ele>
        <time>2014-01-18T09:30:39Z</time>
      </trkpt>
      <trkpt lat="43.57946" lon="2.90647">
        <ele>556.4</ele>
        <time>2014-01-18T09:30:40Z</time>
      </trkpt>
      <trkpt lat="43.57942" lon="2.90649">
        <ele>555.6</ele>
        <time>2014-01-18T09:30:41Z</time>
      </trkpt>
      <trkpt lat="43.57937" lon="2.90651">
        <ele>554.6</ele>
        <time>2014-01-18T09:30:42Z</time>
      </trkpt>
      <trkpt lat="43.57934" lon="2.90652">
        <ele>553.8</ele>
        <time>2014-01-18T09:30:43Z</time>
      </trkpt>
      <trkpt lat="43.57929" lon="2.90652">
        <ele>552.8</ele>
        <time>2014-01-18T09:30:44Z</time>
      </trkpt>
      <trkpt lat="43.57926" lon="2.90652">
        <ele>552</ele>
        <time>2014-01-18T09:30:45Z</time>
      </trkpt>
      <trkpt lat="43.57922" lon="2.90652">
        <ele>550.2</ele>
        <time>2014-01-18T09:30:46Z</time>
      </trkpt>
      <trkpt lat="43.57919" lon="2.90652">
        <ele>549.6</ele>
        <time>2014-01-18T09:30:47Z</time>
      </trkpt>
      <trkpt lat="43.57916" lon="2.90653">
        <ele>549</ele>
        <time>2014-01-18T09:30:48Z</time>
      </trkpt>
      <trkpt lat="43.57913" lon="2.90653">
        <ele>548.2</ele>
        <time>2014-01-18T09:30:49Z</time>
      </trkpt>
      <trkpt lat="43.57909" lon="2.90654">
        <ele>547.6</ele>
        <time>2014-01-18T09:30:50Z</time>
      </trkpt>
      <trkpt lat="43.57906" lon="2.90655">
        <ele>547</ele>
        <time>2014-01-18T09:30:51Z</time>
      </trkpt>
      <trkpt lat="43.57903" lon="2.90657">
        <ele>546.6</ele>
        <time>2014-01-18T09:30:52Z</time>
      </trkpt>
      <trkpt lat="43.57899" lon="2.90659">
        <ele>546</ele>
        <time>2014-01-18T09:30:53Z</time>
      </trkpt>
      <trkpt lat="43.57896" lon="2.90661">
        <ele>545.4</ele>
        <time>2014-01-18T09:30:54Z</time>
      </trkpt>
      <trkpt lat="43.57892" lon="2.90662">
        <ele>544.8</ele>
        <time>2014-01-18T09:30:55Z</time>
      </trkpt>
      <trkpt lat="43.57889" lon="2.90661">
        <ele>544.2</ele>
        <time>2014-01-18T09:30:56Z</time>
      </trkpt>
      <trkpt lat="43.57886" lon="2.90661">
        <ele>543.6</ele>
        <time>2014-01-18T09:30:57Z</time>
      </trkpt>
      <trkpt lat="43.57884" lon="2.90661">
        <ele>542.8</ele>
        <time>2014-01-18T09:30:58Z</time>
      </trkpt>
      <trkpt lat="43.57881" lon="2.90662">
        <ele>542.2</ele>
        <time>2014-01-18T09:30:59Z</time>
      </trkpt>
      <trkpt lat="43.57878" lon="2.90665">
        <ele>541.8</ele>
        <time>2014-01-18T09:31:00Z</time>
      </trkpt>
      <trkpt lat="43.57876" lon="2.90666">
        <ele>541.4</ele>
        <time>2014-01-18T09:31:01Z</time>
      </trkpt>
      <trkpt lat="43.57874" lon="2.90668">
        <ele>541</ele>
        <time>2014-01-18T09:31:02Z</time>
      </trkpt>
      <trkpt lat="43.57871" lon="2.9067">
        <ele>540.6</ele>
        <time>2014-01-18T09:31:03Z</time>
      </trkpt>
      <trkpt lat="43.57868" lon="2.90671">
        <ele>540</ele>
        <time>2014-01-18T09:31:04Z</time>
      </trkpt>
      <trkpt lat="43.57864" lon="2.90673">
        <ele>539.4</ele>
        <time>2014-01-18T09:31:05Z</time>
      </trkpt>
      <trkpt lat="43.57859" lon="2.90676">
        <ele>539</ele>
        <time>2014-01-18T09:31:06Z</time>
      </trkpt>
      <trkpt lat="43.57854" lon="2.90679">
        <ele>538.2</ele>
        <time>2014-01-18T09:31:07Z</time>
      </trkpt>
      <trkpt lat="43.57849" lon="2.90682">
        <ele>537.4</ele>
        <time>2014-01-18T09:31:08Z</time>
      </trkpt>
      <trkpt lat="43.57844" lon="2.90686">
        <ele>536.6</ele>
        <time>2014-01-18T09:31:09Z</time>
      </trkpt>
      <trkpt lat="43.57839" lon="2.9069">
        <ele>535.8</ele>
        <time>2014-01-18T09:31:10Z</time>
      </trkpt>
      <trkpt lat="43.57834" lon="2.90693">
        <ele>534.2</ele>
        <time>2014-01-18T09:31:11Z</time>
      </trkpt>
      <trkpt lat="43.5783" lon="2.90695">
        <ele>533.4</ele>
        <time>2014-01-18T09:31:12Z</time>
      </trkpt>
      <trkpt lat="43.57826" lon="2.90698">
        <ele>532.6</ele>
        <time>2014-01-18T09:31:13Z</time>
      </trkpt>
      <trkpt lat="43.57822" lon="2.907">
        <ele>531.8</ele>
        <time>2014-01-18T09:31:14Z</time>
      </trkpt>
      <trkpt lat="43.57817" lon="2.90703">
        <ele>531</ele>
        <time>2014-01-18T09:31:15Z</time>
      </trkpt>
      <trkpt lat="43.57815" lon="2.90705">
        <ele>530.2</ele>
        <time>2014-01-18T09:31:16Z</time>
      </trkpt>
      <trkpt lat="43.57813" lon="2.90708">
        <ele>529.4</ele>
        <time>2014-01-18T09:31:17Z</time>
      </trkpt>
      <trkpt lat="43.57812" lon="2.9071">
        <ele>528.6</ele>
        <time>2014-01-18T09:31:18Z</time>
      </trkpt>
      <trkpt lat="43.57811" lon="2.9071">
        <ele>528</ele>
        <time>2014-01-18T09:31:19Z</time>
      </trkpt>
      <trkpt lat="43.57813" lon="2.90709">
        <ele>527.4</ele>
        <time>2014-01-18T09:31:20Z</time>
      </trkpt>
      <trkpt lat="43.57814" lon="2.90708">
        <ele>527</ele>
        <time>2014-01-18T09:31:21Z</time>
      </trkpt>
      <trkpt lat="43.57814" lon="2.90705">
        <ele>526.6</ele>
        <time>2014-01-18T09:31:22Z</time>
      </trkpt>
      <trkpt lat="43.57816" lon="2.90702">
        <ele>526.2</ele>
        <time>2014-01-18T09:31:23Z</time>
      </trkpt>
      <trkpt lat="43.57818" lon="2.90699">
        <ele>525.8</ele>
        <time>2014-01-18T09:31:24Z</time>
      </trkpt>
      <trkpt lat="43.5782" lon="2.90697">
        <ele>525.8</ele>
        <time>2014-01-18T09:31:25Z</time>
      </trkpt>
      <trkpt lat="43.57824" lon="2.9069">
        <ele>525.2</ele>
        <time>2014-01-18T09:31:27Z</time>
      </trkpt>
      <trkpt lat="43.57826" lon="2.90688">
        <ele>524.8</ele>
        <time>2014-01-18T09:31:28Z</time>
      </trkpt>
      <trkpt lat="43.57828" lon="2.90685">
        <ele>524.2</ele>
        <time>2014-01-18T09:31:29Z</time>
      </trkpt>
      <trkpt lat="43.5783" lon="2.90682">
        <ele>523.8</ele>
        <time>2014-01-18T09:31:30Z</time>
      </trkpt>
      <trkpt lat="43.57832" lon="2.9068">
        <ele>523.4</ele>
        <time>2014-01-18T09:31:31Z</time>
      </trkpt>
      <trkpt lat="43.57834" lon="2.90677">
        <ele>523</ele>
        <time>2014-01-18T09:31:32Z</time>
      </trkpt>
      <trkpt lat="43.57834" lon="2.90675">
        <ele>522.4</ele>
        <time>2014-01-18T09:31:33Z</time>
      </trkpt>
      <trkpt lat="43.57831" lon="2.90672">
        <ele>522</ele>
        <time>2014-01-18T09:31:34Z</time>
      </trkpt>
      <trkpt lat="43.57828" lon="2.90672">
        <ele>521.4</ele>
        <time>2014-01-18T09:31:35Z</time>
      </trkpt>
      <trkpt lat="43.57825" lon="2.90673">
        <ele>519.8</ele>
        <time>2014-01-18T09:31:36Z</time>
      </trkpt>
      <trkpt lat="43.57824" lon="2.90671">
        <ele>519.2</ele>
        <time>2014-01-18T09:31:37Z</time>
      </trkpt>
      <trkpt lat="43.57824" lon="2.90669">
        <ele>518.4</ele>
        <time>2014-01-18T09:31:38Z</time>
      </trkpt>
      <trkpt lat="43.57824" lon="2.90666">
        <ele>517.6</ele>
        <time>2014-01-18T09:31:39Z</time>
      </trkpt>
      <trkpt lat="43.57825" lon="2.90664">
        <ele>516.8</ele>
        <time>2014-01-18T09:31:40Z</time>
      </trkpt>
      <trkpt lat="43.57826" lon="2.90664">
        <ele>516</ele>
        <time>2014-01-18T09:31:41Z</time>
      </trkpt>
      <trkpt lat="43.57827" lon="2.90662">
        <ele>515.4</ele>
        <time>2014-01-18T09:31:42Z</time>
      </trkpt>
      <trkpt lat="43.57827" lon="2.90661">
        <ele>515</ele>
        <time>2014-01-18T09:31:43Z</time>
      </trkpt>
      <trkpt lat="43.57826" lon="2.9066">
        <ele>514.6</ele>
        <time>2014-01-18T09:31:44Z</time>
      </trkpt>
      <trkpt lat="43.57824" lon="2.9066">
        <ele>514.2</ele>
        <time>2014-01-18T09:31:45Z</time>
      </trkpt>
      <trkpt lat="43.57821" lon="2.90661">
        <ele>513.6</ele>
        <time>2014-01-18T09:31:46Z</time>
      </trkpt>
      <trkpt lat="43.57817" lon="2.90661">
        <ele>513</ele>
        <time>2014-01-18T09:31:47Z</time>
      </trkpt>
      <trkpt lat="43.57813" lon="2.90659">
        <ele>512.4</ele>
        <time>2014-01-18T09:31:48Z</time>
      </trkpt>
      <trkpt lat="43.57809" lon="2.9066">
        <ele>511.6</ele>
        <time>2014-01-18T09:31:49Z</time>
      </trkpt>
      <trkpt lat="43.57805" lon="2.90661">
        <ele>511</ele>
        <time>2014-01-18T09:31:50Z</time>
      </trkpt>
      <trkpt lat="43.57803" lon="2.90664">
        <ele>510.2</ele>
        <time>2014-01-18T09:31:51Z</time>
      </trkpt>
      <trkpt lat="43.57801" lon="2.90668">
        <ele>509.4</ele>
        <time>2014-01-18T09:31:52Z</time>
      </trkpt>
      <trkpt lat="43.57799" lon="2.90672">
        <ele>508.6</ele>
        <time>2014-01-18T09:31:53Z</time>
      </trkpt>
      <trkpt lat="43.57798" lon="2.90676">
        <ele>507.6</ele>
        <time>2014-01-18T09:31:54Z</time>
      </trkpt>
      <trkpt lat="43.57796" lon="2.9068">
        <ele>507</ele>
        <time>2014-01-18T09:31:55Z</time>
      </trkpt>
      <trkpt lat="43.57794" lon="2.90683">
        <ele>506.2</ele>
        <time>2014-01-18T09:31:56Z</time>
      </trkpt>
      <trkpt lat="43.57791" lon="2.90685">
        <ele>505.4</ele>
        <time>2014-01-18T09:31:57Z</time>
      </trkpt>
      <trkpt lat="43.57788" lon="2.90684">
        <ele>504.8</ele>
        <time>2014-01-18T09:31:58Z</time>
      </trkpt>
      <trkpt lat="43.57787" lon="2.90682">
        <ele>504</ele>
        <time>2014-01-18T09:31:59Z</time>
      </trkpt>
      <trkpt lat="43.57787" lon="2.90682">
        <ele>503</ele>
        <time>2014-01-18T09:32:00Z</time>
      </trkpt>
      <trkpt lat="43.57788" lon="2.9068">
        <ele>501.6</ele>
        <time>2014-01-18T09:33:05Z</time>
      </trkpt>
      <trkpt lat="43.57788" lon="2.90677">
        <ele>501.6</ele>
        <time>2014-01-18T09:33:06Z</time>
      </trkpt>
      <trkpt lat="43.57788" lon="2.90671">
        <ele>501.6</ele>
        <time>2014-01-18T09:33:08Z</time>
      </trkpt>
      <trkpt lat="43.57788" lon="2.90667">
        <ele>501.6</ele>
        <time>2014-01-18T09:33:09Z</time>
      </trkpt>
      <trkpt lat="43.57782" lon="2.90655">
        <ele>501.6</ele>
        <time>2014-01-18T09:33:13Z</time>
      </trkpt>
      <trkpt lat="43.57781" lon="2.90655">
        <ele>501.6</ele>
        <time>2014-01-18T09:33:14Z</time>
      </trkpt>
      <trkpt lat="43.5778" lon="2.90655">
        <ele>501.6</ele>
        <time>2014-01-18T09:33:16Z</time>
      </trkpt>
      <trkpt lat="43.57779" lon="2.90656">
        <ele>501.6</ele>
        <time>2014-01-18T09:33:17Z</time>
      </trkpt>
      <trkpt lat="43.5778" lon="2.90656">
        <ele>501.6</ele>
        <time>2014-01-18T09:33:19Z</time>
      </trkpt>
      <trkpt lat="43.57779" lon="2.90656">
        <ele>501.6</ele>
        <time>2014-01-18T09:33:24Z</time>
      </trkpt>
      <trkpt lat="43.57777" lon="2.90658">
        <ele>501.6</ele>
        <time>2014-01-18T09:33:26Z</time>
      </trkpt>
      <trkpt lat="43.57773" lon="2.90662">
        <ele>501.6</ele>
        <time>2014-01-18T09:33:29Z</time>
      </trkpt>
      <trkpt lat="43.57771" lon="2.90662">
        <ele>501.6</ele>
        <time>2014-01-18T09:33:30Z</time>
      </trkpt>
      <trkpt lat="43.57769" lon="2.90663">
        <ele>501.6</ele>
        <time>2014-01-18T09:33:31Z</time>
      </trkpt>
      <trkpt lat="43.57766" lon="2.90664">
        <ele>501.6</ele>
        <time>2014-01-18T09:33:32Z</time>
      </trkpt>
      <trkpt lat="43.57764" lon="2.90666">
        <ele>501</ele>
        <time>2014-01-18T09:33:33Z</time>
      </trkpt>
      <trkpt lat="43.57762" lon="2.90668">
        <ele>500.6</ele>
        <time>2014-01-18T09:33:34Z</time>
      </trkpt>
      <trkpt lat="43.57761" lon="2.90668">
        <ele>500.2</ele>
        <time>2014-01-18T09:33:35Z</time>
      </trkpt>
      <trkpt lat="43.5776" lon="2.90668">
        <ele>499.6</ele>
        <time>2014-01-18T09:33:36Z</time>
      </trkpt>
      <trkpt lat="43.57759" lon="2.90668">
        <ele>499.2</ele>
        <time>2014-01-18T09:33:37Z</time>
      </trkpt>
      <trkpt lat="43.57757" lon="2.90668">
        <ele>499.2</ele>
        <time>2014-01-18T09:33:38Z</time>
      </trkpt>
      <trkpt lat="43.57753" lon="2.90669">
        <ele>498.4</ele>
        <time>2014-01-18T09:33:40Z</time>
      </trkpt>
      <trkpt lat="43.57752" lon="2.90669">
        <ele>498</ele>
        <time>2014-01-18T09:33:41Z</time>
      </trkpt>
      <trkpt lat="43.57751" lon="2.9067">
        <ele>497.4</ele>
        <time>2014-01-18T09:33:42Z</time>
      </trkpt>
      <trkpt lat="43.57749" lon="2.9067">
        <ele>497</ele>
        <time>2014-01-18T09:33:43Z</time>
      </trkpt>
      <trkpt lat="43.5774" lon="2.90672">
        <ele>496.6</ele>
        <time>2014-01-18T09:33:46Z</time>
      </trkpt>
      <trkpt lat="43.57737" lon="2.90673">
        <ele>496</ele>
        <time>2014-01-18T09:33:47Z</time>
      </trkpt>
      <trkpt lat="43.57736" lon="2.90673">
        <ele>495.4</ele>
        <time>2014-01-18T09:33:48Z</time>
      </trkpt>
      <trkpt lat="43.57734" lon="2.90675">
        <ele>494.8</ele>
        <time>2014-01-18T09:33:49Z</time>
      </trkpt>
      <trkpt lat="43.57733" lon="2.90676">
        <ele>494.4</ele>
        <time>2014-01-18T09:33:50Z</time>
      </trkpt>
      <trkpt lat="43.57731" lon="2.90677">
        <ele>493.8</ele>
        <time>2014-01-18T09:33:51Z</time>
      </trkpt>
      <trkpt lat="43.57731" lon="2.90677">
        <ele>493.4</ele>
        <time>2014-01-18T09:33:52Z</time>
      </trkpt>
      <trkpt lat="43.57731" lon="2.90677">
        <ele>492</ele>
        <time>2014-01-18T09:33:55Z</time>
      </trkpt>
      <trkpt lat="43.5773" lon="2.90679">
        <ele>492</ele>
        <time>2014-01-18T09:33:57Z</time>
      </trkpt>
      <trkpt lat="43.5773" lon="2.90679">
        <ele>492</ele>
        <time>2014-01-18T09:33:58Z</time>
      </trkpt>
      <trkpt lat="43.57728" lon="2.90681">
        <ele>492</ele>
        <time>2014-01-18T09:34:01Z</time>
      </trkpt>
      <trkpt lat="43.57727" lon="2.90683">
        <ele>492</ele>
        <time>2014-01-18T09:34:04Z</time>
      </trkpt>
      <trkpt lat="43.57726" lon="2.90686">
        <ele>492</ele>
        <time>2014-01-18T09:34:07Z</time>
      </trkpt>
      <trkpt lat="43.57725" lon="2.90687">
        <ele>492</ele>
        <time>2014-01-18T09:34:08Z</time>
      </trkpt>
      <trkpt lat="43.57724" lon="2.90688">
        <ele>492</ele>
        <time>2014-01-18T09:34:09Z</time>
      </trkpt>
      <trkpt lat="43.57723" lon="2.90688">
        <ele>492</ele>
        <time>2014-01-18T09:34:10Z</time>
      </trkpt>
      <trkpt lat="43.57722" lon="2.90688">
        <ele>491.4</ele>
        <time>2014-01-18T09:34:11Z</time>
      </trkpt>
      <trkpt lat="43.57721" lon="2.90688">
        <ele>491</ele>
        <time>2014-01-18T09:34:12Z</time>
      </trkpt>
      <trkpt lat="43.5772" lon="2.90689">
        <ele>490.6</ele>
        <time>2014-01-18T09:34:13Z</time>
      </trkpt>
      <trkpt lat="43.57719" lon="2.90689">
        <ele>490.2</ele>
        <time>2014-01-18T09:34:14Z</time>
      </trkpt>
      <trkpt lat="43.57719" lon="2.90689">
        <ele>489.8</ele>
        <time>2014-01-18T09:34:15Z</time>
      </trkpt>
      <trkpt lat="43.57719" lon="2.90689">
        <ele>489.8</ele>
        <time>2014-01-18T09:34:17Z</time>
      </trkpt>
      <trkpt lat="43.57717" lon="2.9069">
        <ele>489.4</ele>
        <time>2014-01-18T09:34:18Z</time>
      </trkpt>
      <trkpt lat="43.57715" lon="2.90691">
        <ele>489</ele>
        <time>2014-01-18T09:34:19Z</time>
      </trkpt>
      <trkpt lat="43.57713" lon="2.90694">
        <ele>488.6</ele>
        <time>2014-01-18T09:34:20Z</time>
      </trkpt>
      <trkpt lat="43.57711" lon="2.90697">
        <ele>488.2</ele>
        <time>2014-01-18T09:34:21Z</time>
      </trkpt>
      <trkpt lat="43.57708" lon="2.90699">
        <ele>487.8</ele>
        <time>2014-01-18T09:34:22Z</time>
      </trkpt>
      <trkpt lat="43.57702" lon="2.90704">
        <ele>487.2</ele>
        <time>2014-01-18T09:34:24Z</time>
      </trkpt>
      <trkpt lat="43.577" lon="2.90707">
        <ele>486.8</ele>
        <time>2014-01-18T09:34:25Z</time>
      </trkpt>
      <trkpt lat="43.57698" lon="2.9071">
        <ele>486.2</ele>
        <time>2014-01-18T09:34:26Z</time>
      </trkpt>
      <trkpt lat="43.57697" lon="2.90712">
        <ele>485.6</ele>
        <time>2014-01-18T09:34:27Z</time>
      </trkpt>
      <trkpt lat="43.57695" lon="2.90712">
        <ele>485</ele>
        <time>2014-01-18T09:34:28Z</time>
      </trkpt>
      <trkpt lat="43.57691" lon="2.90711">
        <ele>483.8</ele>
        <time>2014-01-18T09:34:29Z</time>
      </trkpt>
      <trkpt lat="43.57688" lon="2.90712">
        <ele>483.2</ele>
        <time>2014-01-18T09:34:30Z</time>
      </trkpt>
      <trkpt lat="43.57686" lon="2.90713">
        <ele>482.6</ele>
        <time>2014-01-18T09:34:31Z</time>
      </trkpt>
      <trkpt lat="43.57684" lon="2.90714">
        <ele>482.6</ele>
        <time>2014-01-18T09:34:32Z</time>
      </trkpt>
      <trkpt lat="43.57684" lon="2.90714">
        <ele>482.6</ele>
        <time>2014-01-18T09:34:33Z</time>
      </trkpt>
      <trkpt lat="43.57684" lon="2.90714">
        <ele>480.6</ele>
        <time>2014-01-18T09:34:57Z</time>
      </trkpt>
      <trkpt lat="43.57682" lon="2.90716">
        <ele>480.6</ele>
        <time>2014-01-18T09:34:58Z</time>
      </trkpt>
      <trkpt lat="43.5767" lon="2.9072">
        <ele>480.6</ele>
        <time>2014-01-18T09:35:03Z</time>
      </trkpt>
      <trkpt lat="43.57667" lon="2.90721">
        <ele>480.2</ele>
        <time>2014-01-18T09:35:04Z</time>
      </trkpt>
      <trkpt lat="43.57663" lon="2.90722">
        <ele>479.6</ele>
        <time>2014-01-18T09:35:05Z</time>
      </trkpt>
      <trkpt lat="43.57658" lon="2.90723">
        <ele>479.2</ele>
        <time>2014-01-18T09:35:06Z</time>
      </trkpt>
      <trkpt lat="43.57653" lon="2.90726">
        <ele>478.8</ele>
        <time>2014-01-18T09:35:07Z</time>
      </trkpt>
      <trkpt lat="43.57648" lon="2.90728">
        <ele>478.2</ele>
        <time>2014-01-18T09:35:08Z</time>
      </trkpt>
      <trkpt lat="43.57644" lon="2.90728">
        <ele>477.6</ele>
        <time>2014-01-18T09:35:09Z</time>
      </trkpt>
      <trkpt lat="43.57641" lon="2.90728">
        <ele>477.2</ele>
        <time>2014-01-18T09:35:10Z</time>
      </trkpt>
      <trkpt lat="43.57639" lon="2.90729">
        <ele>476.4</ele>
        <time>2014-01-18T09:35:11Z</time>
      </trkpt>
      <trkpt lat="43.57636" lon="2.90728">
        <ele>475.6</ele>
        <time>2014-01-18T09:35:12Z</time>
      </trkpt>
      <trkpt lat="43.57633" lon="2.90727">
        <ele>475</ele>
        <time>2014-01-18T09:35:13Z</time>
      </trkpt>
      <trkpt lat="43.57629" lon="2.90726">
        <ele>474.2</ele>
        <time>2014-01-18T09:35:14Z</time>
      </trkpt>
      <trkpt lat="43.57625" lon="2.90726">
        <ele>473.4</ele>
        <time>2014-01-18T09:35:15Z</time>
      </trkpt>
      <trkpt lat="43.57621" lon="2.90726">
        <ele>473</ele>
        <time>2014-01-18T09:35:16Z</time>
      </trkpt>
      <trkpt lat="43.57619" lon="2.90727">
        <ele>472.6</ele>
        <time>2014-01-18T09:35:17Z</time>
      </trkpt>
      <trkpt lat="43.57615" lon="2.90728">
        <ele>471.6</ele>
        <time>2014-01-18T09:35:18Z</time>
      </trkpt>
      <trkpt lat="43.57611" lon="2.90727">
        <ele>471</ele>
        <time>2014-01-18T09:35:19Z</time>
      </trkpt>
      <trkpt lat="43.57608" lon="2.90726">
        <ele>470.4</ele>
        <time>2014-01-18T09:35:20Z</time>
      </trkpt>
      <trkpt lat="43.57604" lon="2.90726">
        <ele>469.8</ele>
        <time>2014-01-18T09:35:21Z</time>
      </trkpt>
      <trkpt lat="43.576" lon="2.90728">
        <ele>469.2</ele>
        <time>2014-01-18T09:35:22Z</time>
      </trkpt>
      <trkpt lat="43.57595" lon="2.90731">
        <ele>468.4</ele>
        <time>2014-01-18T09:35:23Z</time>
      </trkpt>
      <trkpt lat="43.5759" lon="2.90732">
        <ele>467.8</ele>
        <time>2014-01-18T09:35:24Z</time>
      </trkpt>
      <trkpt lat="43.57584" lon="2.90733">
        <ele>467.2</ele>
        <time>2014-01-18T09:35:25Z</time>
      </trkpt>
      <trkpt lat="43.57578" lon="2.90735">
        <ele>466.4</ele>
        <time>2014-01-18T09:35:26Z</time>
      </trkpt>
      <trkpt lat="43.57573" lon="2.90736">
        <ele>465.8</ele>
        <time>2014-01-18T09:35:27Z</time>
      </trkpt>
      <trkpt lat="43.57569" lon="2.90738">
        <ele>465</ele>
        <time>2014-01-18T09:35:28Z</time>
      </trkpt>
      <trkpt lat="43.57566" lon="2.90739">
        <ele>464.2</ele>
        <time>2014-01-18T09:35:29Z</time>
      </trkpt>
      <trkpt lat="43.57564" lon="2.9074">
        <ele>463.4</ele>
        <time>2014-01-18T09:35:30Z</time>
      </trkpt>
      <trkpt lat="43.57562" lon="2.90741">
        <ele>462.8</ele>
        <time>2014-01-18T09:35:31Z</time>
      </trkpt>
      <trkpt lat="43.57561" lon="2.9074">
        <ele>462</ele>
        <time>2014-01-18T09:35:32Z</time>
      </trkpt>
      <trkpt lat="43.57559" lon="2.90741">
        <ele>462</ele>
        <time>2014-01-18T09:35:33Z</time>
      </trkpt>
      <trkpt lat="43.57556" lon="2.9074">
        <ele>462</ele>
        <time>2014-01-18T09:35:35Z</time>
      </trkpt>
      <trkpt lat="43.57547" lon="2.90739">
        <ele>462</ele>
        <time>2014-01-18T09:35:37Z</time>
      </trkpt>
      <trkpt lat="43.57542" lon="2.9074">
        <ele>462</ele>
        <time>2014-01-18T09:35:38Z</time>
      </trkpt>
      <trkpt lat="43.57532" lon="2.9074">
        <ele>461.6</ele>
        <time>2014-01-18T09:35:41Z</time>
      </trkpt>
      <trkpt lat="43.57529" lon="2.90739">
        <ele>461.2</ele>
        <time>2014-01-18T09:35:42Z</time>
      </trkpt>
      <trkpt lat="43.57526" lon="2.90738">
        <ele>460.4</ele>
        <time>2014-01-18T09:35:43Z</time>
      </trkpt>
      <trkpt lat="43.57523" lon="2.90738">
        <ele>460</ele>
        <time>2014-01-18T09:35:44Z</time>
      </trkpt>
      <trkpt lat="43.57518" lon="2.90737">
        <ele>460</ele>
        <time>2014-01-18T09:35:45Z</time>
      </trkpt>
      <trkpt lat="43.57513" lon="2.90739">
        <ele>459.6</ele>
        <time>2014-01-18T09:35:47Z</time>
      </trkpt>
      <trkpt lat="43.5751" lon="2.90741">
        <ele>459</ele>
        <time>2014-01-18T09:35:48Z</time>
      </trkpt>
      <trkpt lat="43.57507" lon="2.90743">
        <ele>458.6</ele>
        <time>2014-01-18T09:35:49Z</time>
      </trkpt>
      <trkpt lat="43.57505" lon="2.90744">
        <ele>458.2</ele>
        <time>2014-01-18T09:35:50Z</time>
      </trkpt>
      <trkpt lat="43.57501" lon="2.90746">
        <ele>457.8</ele>
        <time>2014-01-18T09:35:51Z</time>
      </trkpt>
      <trkpt lat="43.57498" lon="2.90748">
        <ele>457.8</ele>
        <time>2014-01-18T09:35:52Z</time>
      </trkpt>
      <trkpt lat="43.57489" lon="2.90754">
        <ele>457.8</ele>
        <time>2014-01-18T09:35:54Z</time>
      </trkpt>
      <trkpt lat="43.57482" lon="2.90762">
        <ele>457.8</ele>
        <time>2014-01-18T09:35:56Z</time>
      </trkpt>
      <trkpt lat="43.57479" lon="2.90767">
        <ele>457.4</ele>
        <time>2014-01-18T09:35:57Z</time>
      </trkpt>
      <trkpt lat="43.57476" lon="2.90769">
        <ele>457</ele>
        <time>2014-01-18T09:35:58Z</time>
      </trkpt>
      <trkpt lat="43.57472" lon="2.9077">
        <ele>456.4</ele>
        <time>2014-01-18T09:35:59Z</time>
      </trkpt>
      <trkpt lat="43.57468" lon="2.90771">
        <ele>456</ele>
        <time>2014-01-18T09:36:00Z</time>
      </trkpt>
      <trkpt lat="43.57464" lon="2.90771">
        <ele>455.6</ele>
        <time>2014-01-18T09:36:01Z</time>
      </trkpt>
      <trkpt lat="43.57459" lon="2.90772">
        <ele>455.6</ele>
        <time>2014-01-18T09:36:02Z</time>
      </trkpt>
      <trkpt lat="43.57455" lon="2.90774">
        <ele>455.6</ele>
        <time>2014-01-18T09:36:03Z</time>
      </trkpt>
      <trkpt lat="43.57447" lon="2.90776">
        <ele>455.2</ele>
        <time>2014-01-18T09:36:05Z</time>
      </trkpt>
      <trkpt lat="43.57444" lon="2.90778">
        <ele>454.8</ele>
        <time>2014-01-18T09:36:06Z</time>
      </trkpt>
      <trkpt lat="43.57439" lon="2.90779">
        <ele>454.4</ele>
        <time>2014-01-18T09:36:07Z</time>
      </trkpt>
      <trkpt lat="43.57435" lon="2.90781">
        <ele>453.4</ele>
        <time>2014-01-18T09:36:08Z</time>
      </trkpt>
      <trkpt lat="43.5743" lon="2.90782">
        <ele>453</ele>
        <time>2014-01-18T09:36:09Z</time>
      </trkpt>
      <trkpt lat="43.57427" lon="2.90784">
        <ele>452.6</ele>
        <time>2014-01-18T09:36:10Z</time>
      </trkpt>
      <trkpt lat="43.57424" lon="2.90785">
        <ele>452.2</ele>
        <time>2014-01-18T09:36:11Z</time>
      </trkpt>
      <trkpt lat="43.5742" lon="2.90786">
        <ele>451.8</ele>
        <time>2014-01-18T09:36:12Z</time>
      </trkpt>
      <trkpt lat="43.57418" lon="2.90788">
        <ele>451.2</ele>
        <time>2014-01-18T09:36:13Z</time>
      </trkpt>
      <trkpt lat="43.57413" lon="2.90789">
        <ele>451.2</ele>
        <time>2014-01-18T09:36:15Z</time>
      </trkpt>
      <trkpt lat="43.57411" lon="2.90789">
        <ele>451.2</ele>
        <time>2014-01-18T09:36:16Z</time>
      </trkpt>
      <trkpt lat="43.57409" lon="2.90787">
        <ele>451.2</ele>
        <time>2014-01-18T09:36:17Z</time>
      </trkpt>
      <trkpt lat="43.57409" lon="2.90787">
        <ele>451.2</ele>
        <time>2014-01-18T09:36:18Z</time>
      </trkpt>
      <trkpt lat="43.57407" lon="2.90787">
        <ele>451.2</ele>
        <time>2014-01-18T09:36:20Z</time>
      </trkpt>
      <trkpt lat="43.57402" lon="2.90788">
        <ele>451.2</ele>
        <time>2014-01-18T09:36:22Z</time>
      </trkpt>
      <trkpt lat="43.574" lon="2.9079">
        <ele>451.2</ele>
        <time>2014-01-18T09:36:24Z</time>
      </trkpt>
      <trkpt lat="43.574" lon="2.9079">
        <ele>451.2</ele>
        <time>2014-01-18T09:36:25Z</time>
      </trkpt>
      <trkpt lat="43.57398" lon="2.9079">
        <ele>451.2</ele>
        <time>2014-01-18T09:36:26Z</time>
      </trkpt>
      <trkpt lat="43.5739" lon="2.90795">
        <ele>450.8</ele>
        <time>2014-01-18T09:36:31Z</time>
      </trkpt>
      <trkpt lat="43.57389" lon="2.90796">
        <ele>450</ele>
        <time>2014-01-18T09:36:32Z</time>
      </trkpt>
      <trkpt lat="43.57388" lon="2.90797">
        <ele>449.6</ele>
        <time>2014-01-18T09:36:33Z</time>
      </trkpt>
      <trkpt lat="43.57387" lon="2.90799">
        <ele>449</ele>
        <time>2014-01-18T09:36:34Z</time>
      </trkpt>
      <trkpt lat="43.57386" lon="2.90801">
        <ele>449</ele>
        <time>2014-01-18T09:36:35Z</time>
      </trkpt>
      <trkpt lat="43.57384" lon="2.90803">
        <ele>449</ele>
        <time>2014-01-18T09:36:36Z</time>
      </trkpt>
      <trkpt lat="43.57376" lon="2.90806">
        <ele>448.6</ele>
        <time>2014-01-18T09:36:39Z</time>
      </trkpt>
      <trkpt lat="43.57373" lon="2.90808">
        <ele>448.2</ele>
        <time>2014-01-18T09:36:40Z</time>
      </trkpt>
      <trkpt lat="43.57372" lon="2.90809">
        <ele>447.8</ele>
        <time>2014-01-18T09:36:41Z</time>
      </trkpt>
      <trkpt lat="43.57372" lon="2.9081">
        <ele>447.2</ele>
        <time>2014-01-18T09:36:42Z</time>
      </trkpt>
      <trkpt lat="43.57372" lon="2.9081">
        <ele>446.8</ele>
        <time>2014-01-18T09:36:43Z</time>
      </trkpt>
      <trkpt lat="43.57372" lon="2.90811">
        <ele>446.8</ele>
        <time>2014-01-18T09:36:44Z</time>
      </trkpt>
      <trkpt lat="43.57372" lon="2.90811">
        <ele>446.8</ele>
        <time>2014-01-18T09:36:45Z</time>
      </trkpt>
      <trkpt lat="43.57371" lon="2.90814">
        <ele>446.8</ele>
        <time>2014-01-18T09:36:48Z</time>
      </trkpt>
      <trkpt lat="43.57366" lon="2.90821">
        <ele>446.8</ele>
        <time>2014-01-18T09:36:53Z</time>
      </trkpt>
      <trkpt lat="43.57365" lon="2.90823">
        <ele>446.8</ele>
        <time>2014-01-18T09:36:54Z</time>
      </trkpt>
      <trkpt lat="43.57359" lon="2.90827">
        <ele>446.8</ele>
        <time>2014-01-18T09:36:57Z</time>
      </trkpt>
      <trkpt lat="43.57356" lon="2.9083">
        <ele>446.8</ele>
        <time>2014-01-18T09:36:59Z</time>
      </trkpt>
      <trkpt lat="43.57352" lon="2.90831">
        <ele>446.8</ele>
        <time>2014-01-18T09:37:01Z</time>
      </trkpt>
      <trkpt lat="43.57344" lon="2.90837">
        <ele>446.8</ele>
        <time>2014-01-18T09:37:05Z</time>
      </trkpt>
      <trkpt lat="43.57334" lon="2.90844">
        <ele>446.8</ele>
        <time>2014-01-18T09:37:09Z</time>
      </trkpt>
      <trkpt lat="43.57331" lon="2.90845">
        <ele>446.4</ele>
        <time>2014-01-18T09:37:10Z</time>
      </trkpt>
      <trkpt lat="43.57329" lon="2.90846">
        <ele>446</ele>
        <time>2014-01-18T09:37:11Z</time>
      </trkpt>
      <trkpt lat="43.57327" lon="2.90847">
        <ele>445.6</ele>
        <time>2014-01-18T09:37:12Z</time>
      </trkpt>
      <trkpt lat="43.57326" lon="2.90848">
        <ele>445.2</ele>
        <time>2014-01-18T09:37:13Z</time>
      </trkpt>
      <trkpt lat="43.57324" lon="2.9085">
        <ele>444.8</ele>
        <time>2014-01-18T09:37:14Z</time>
      </trkpt>
      <trkpt lat="43.57313" lon="2.90856">
        <ele>444.2</ele>
        <time>2014-01-18T09:37:17Z</time>
      </trkpt>
      <trkpt lat="43.5731" lon="2.90859">
        <ele>443.8</ele>
        <time>2014-01-18T09:37:18Z</time>
      </trkpt>
      <trkpt lat="43.57306" lon="2.90861">
        <ele>443.4</ele>
        <time>2014-01-18T09:37:19Z</time>
      </trkpt>
      <trkpt lat="43.57303" lon="2.90863">
        <ele>442.8</ele>
        <time>2014-01-18T09:37:20Z</time>
      </trkpt>
      <trkpt lat="43.573" lon="2.90866">
        <ele>442.4</ele>
        <time>2014-01-18T09:37:21Z</time>
      </trkpt>
      <trkpt lat="43.57296" lon="2.9087">
        <ele>441.4</ele>
        <time>2014-01-18T09:37:22Z</time>
      </trkpt>
      <trkpt lat="43.57292" lon="2.90874">
        <ele>441</ele>
        <time>2014-01-18T09:37:23Z</time>
      </trkpt>
      <trkpt lat="43.5729" lon="2.90877">
        <ele>440.6</ele>
        <time>2014-01-18T09:37:24Z</time>
      </trkpt>
      <trkpt lat="43.57287" lon="2.90881">
        <ele>440.2</ele>
        <time>2014-01-18T09:37:25Z</time>
      </trkpt>
      <trkpt lat="43.57282" lon="2.90886">
        <ele>439.6</ele>
        <time>2014-01-18T09:37:27Z</time>
      </trkpt>
      <trkpt lat="43.57279" lon="2.90887">
        <ele>439.2</ele>
        <time>2014-01-18T09:37:28Z</time>
      </trkpt>
      <trkpt lat="43.57276" lon="2.9089">
        <ele>438.8</ele>
        <time>2014-01-18T09:37:29Z</time>
      </trkpt>
      <trkpt lat="43.57271" lon="2.90893">
        <ele>438.2</ele>
        <time>2014-01-18T09:37:30Z</time>
      </trkpt>
      <trkpt lat="43.57267" lon="2.90896">
        <ele>437.8</ele>
        <time>2014-01-18T09:37:31Z</time>
      </trkpt>
      <trkpt lat="43.57261" lon="2.90904">
        <ele>437.8</ele>
        <time>2014-01-18T09:37:33Z</time>
      </trkpt>
      <trkpt lat="43.57256" lon="2.90911">
        <ele>437.4</ele>
        <time>2014-01-18T09:37:35Z</time>
      </trkpt>
      <trkpt lat="43.57254" lon="2.90915">
        <ele>437</ele>
        <time>2014-01-18T09:37:36Z</time>
      </trkpt>
      <trkpt lat="43.57253" lon="2.90919">
        <ele>436.6</ele>
        <time>2014-01-18T09:37:37Z</time>
      </trkpt>
      <trkpt lat="43.57252" lon="2.90923">
        <ele>436.2</ele>
        <time>2014-01-18T09:37:38Z</time>
      </trkpt>
      <trkpt lat="43.57251" lon="2.90926">
        <ele>435.8</ele>
        <time>2014-01-18T09:37:39Z</time>
      </trkpt>
      <trkpt lat="43.57247" lon="2.90934">
        <ele>435.8</ele>
        <time>2014-01-18T09:37:41Z</time>
      </trkpt>
      <trkpt lat="43.57244" lon="2.90939">
        <ele>435.4</ele>
        <time>2014-01-18T09:37:42Z</time>
      </trkpt>
      <trkpt lat="43.57241" lon="2.90944">
        <ele>434.8</ele>
        <time>2014-01-18T09:37:43Z</time>
      </trkpt>
      <trkpt lat="43.57238" lon="2.90949">
        <ele>434.4</ele>
        <time>2014-01-18T09:37:44Z</time>
      </trkpt>
      <trkpt lat="43.57234" lon="2.90953">
        <ele>433.6</ele>
        <time>2014-01-18T09:37:45Z</time>
      </trkpt>
      <trkpt lat="43.5723" lon="2.90956">
        <ele>432</ele>
        <time>2014-01-18T09:37:46Z</time>
      </trkpt>
      <trkpt lat="43.57227" lon="2.9096">
        <ele>431.2</ele>
        <time>2014-01-18T09:37:47Z</time>
      </trkpt>
      <trkpt lat="43.57223" lon="2.90964">
        <ele>430.4</ele>
        <time>2014-01-18T09:37:48Z</time>
      </trkpt>
      <trkpt lat="43.5722" lon="2.90967">
        <ele>429.8</ele>
        <time>2014-01-18T09:37:49Z</time>
      </trkpt>
      <trkpt lat="43.57217" lon="2.90971">
        <ele>429</ele>
        <time>2014-01-18T09:37:50Z</time>
      </trkpt>
      <trkpt lat="43.57215" lon="2.90974">
        <ele>428.4</ele>
        <time>2014-01-18T09:37:51Z</time>
      </trkpt>
      <trkpt lat="43.57213" lon="2.90977">
        <ele>427.8</ele>
        <time>2014-01-18T09:37:52Z</time>
      </trkpt>
      <trkpt lat="43.57212" lon="2.90981">
        <ele>427</ele>
        <time>2014-01-18T09:37:53Z</time>
      </trkpt>
      <trkpt lat="43.5721" lon="2.90985">
        <ele>426.2</ele>
        <time>2014-01-18T09:37:54Z</time>
      </trkpt>
      <trkpt lat="43.57209" lon="2.90988">
        <ele>425.6</ele>
        <time>2014-01-18T09:37:55Z</time>
      </trkpt>
      <trkpt lat="43.57207" lon="2.90991">
        <ele>424.8</ele>
        <time>2014-01-18T09:37:56Z</time>
      </trkpt>
      <trkpt lat="43.57206" lon="2.90994">
        <ele>424</ele>
        <time>2014-01-18T09:37:57Z</time>
      </trkpt>
      <trkpt lat="43.57205" lon="2.90998">
        <ele>423.4</ele>
        <time>2014-01-18T09:37:58Z</time>
      </trkpt>
      <trkpt lat="43.57204" lon="2.91002">
        <ele>422.6</ele>
        <time>2014-01-18T09:37:59Z</time>
      </trkpt>
      <trkpt lat="43.57203" lon="2.91004">
        <ele>421.8</ele>
        <time>2014-01-18T09:38:00Z</time>
      </trkpt>
      <trkpt lat="43.57201" lon="2.91008">
        <ele>420.8</ele>
        <time>2014-01-18T09:38:01Z</time>
      </trkpt>
      <trkpt lat="43.57198" lon="2.91012">
        <ele>420.2</ele>
        <time>2014-01-18T09:38:02Z</time>
      </trkpt>
      <trkpt lat="43.57196" lon="2.91017">
        <ele>419.4</ele>
        <time>2014-01-18T09:38:04Z</time>
      </trkpt>
      <trkpt lat="43.57193" lon="2.91022">
        <ele>418.6</ele>
        <time>2014-01-18T09:38:05Z</time>
      </trkpt>
      <trkpt lat="43.57192" lon="2.91028">
        <ele>418</ele>
        <time>2014-01-18T09:38:06Z</time>
      </trkpt>
      <trkpt lat="43.57191" lon="2.91035">
        <ele>417.2</ele>
        <time>2014-01-18T09:38:07Z</time>
      </trkpt>
      <trkpt lat="43.5719" lon="2.91042">
        <ele>416.4</ele>
        <time>2014-01-18T09:38:08Z</time>
      </trkpt>
      <trkpt lat="43.57189" lon="2.91047">
        <ele>415.8</ele>
        <time>2014-01-18T09:38:09Z</time>
      </trkpt>
      <trkpt lat="43.57187" lon="2.91052">
        <ele>415</ele>
        <time>2014-01-18T09:38:10Z</time>
      </trkpt>
      <trkpt lat="43.57187" lon="2.91055">
        <ele>414.4</ele>
        <time>2014-01-18T09:38:11Z</time>
      </trkpt>
      <trkpt lat="43.57186" lon="2.91058">
        <ele>412.8</ele>
        <time>2014-01-18T09:38:12Z</time>
      </trkpt>
      <trkpt lat="43.57185" lon="2.9106">
        <ele>412.2</ele>
        <time>2014-01-18T09:38:13Z</time>
      </trkpt>
      <trkpt lat="43.57183" lon="2.91064">
        <ele>411.6</ele>
        <time>2014-01-18T09:38:15Z</time>
      </trkpt>
      <trkpt lat="43.57183" lon="2.91065">
        <ele>411.2</ele>
        <time>2014-01-18T09:38:16Z</time>
      </trkpt>
      <trkpt lat="43.57182" lon="2.91067">
        <ele>410.8</ele>
        <time>2014-01-18T09:38:17Z</time>
      </trkpt>
      <trkpt lat="43.57182" lon="2.91067">
        <ele>410.2</ele>
        <time>2014-01-18T09:38:18Z</time>
      </trkpt>
      <trkpt lat="43.57183" lon="2.91071">
        <ele>409.6</ele>
        <time>2014-01-18T09:38:19Z</time>
      </trkpt>
      <trkpt lat="43.57183" lon="2.91073">
        <ele>409</ele>
        <time>2014-01-18T09:38:20Z</time>
      </trkpt>
      <trkpt lat="43.57183" lon="2.91075">
        <ele>408.4</ele>
        <time>2014-01-18T09:38:21Z</time>
      </trkpt>
      <trkpt lat="43.57183" lon="2.91075">
        <ele>407.8</ele>
        <time>2014-01-18T09:38:22Z</time>
      </trkpt>
      <trkpt lat="43.57182" lon="2.91076">
        <ele>407.8</ele>
        <time>2014-01-18T09:38:23Z</time>
      </trkpt>
      <trkpt lat="43.57182" lon="2.91076">
        <ele>407.8</ele>
        <time>2014-01-18T09:38:40Z</time>
      </trkpt>
      <trkpt lat="43.57182" lon="2.91077">
        <ele>407.8</ele>
        <time>2014-01-18T09:38:41Z</time>
      </trkpt>
      <trkpt lat="43.57181" lon="2.91083">
        <ele>407.8</ele>
        <time>2014-01-18T09:38:46Z</time>
      </trkpt>
      <trkpt lat="43.57181" lon="2.91085">
        <ele>407.4</ele>
        <time>2014-01-18T09:38:47Z</time>
      </trkpt>
      <trkpt lat="43.57181" lon="2.91087">
        <ele>407</ele>
        <time>2014-01-18T09:38:48Z</time>
      </trkpt>
      <trkpt lat="43.57181" lon="2.91089">
        <ele>406.6</ele>
        <time>2014-01-18T09:38:49Z</time>
      </trkpt>
      <trkpt lat="43.5718" lon="2.91091">
        <ele>406.2</ele>
        <time>2014-01-18T09:38:50Z</time>
      </trkpt>
      <trkpt lat="43.5718" lon="2.91093">
        <ele>405.8</ele>
        <time>2014-01-18T09:38:51Z</time>
      </trkpt>
      <trkpt lat="43.57182" lon="2.91097">
        <ele>405.2</ele>
        <time>2014-01-18T09:38:54Z</time>
      </trkpt>
      <trkpt lat="43.57183" lon="2.911">
        <ele>404.8</ele>
        <time>2014-01-18T09:38:55Z</time>
      </trkpt>
      <trkpt lat="43.57184" lon="2.91102">
        <ele>404.2</ele>
        <time>2014-01-18T09:38:56Z</time>
      </trkpt>
      <trkpt lat="43.57184" lon="2.91105">
        <ele>403.6</ele>
        <time>2014-01-18T09:38:57Z</time>
      </trkpt>
      <trkpt lat="43.57184" lon="2.91107">
        <ele>403.2</ele>
        <time>2014-01-18T09:38:58Z</time>
      </trkpt>
      <trkpt lat="43.57184" lon="2.91108">
        <ele>402.6</ele>
        <time>2014-01-18T09:38:59Z</time>
      </trkpt>
      <trkpt lat="43.57184" lon="2.91111">
        <ele>402</ele>
        <time>2014-01-18T09:39:00Z</time>
      </trkpt>
      <trkpt lat="43.57183" lon="2.91114">
        <ele>400.8</ele>
        <time>2014-01-18T09:39:01Z</time>
      </trkpt>
      <trkpt lat="43.57182" lon="2.91116">
        <ele>400.8</ele>
        <time>2014-01-18T09:39:02Z</time>
      </trkpt>
      <trkpt lat="43.5718" lon="2.91119">
        <ele>400.2</ele>
        <time>2014-01-18T09:39:03Z</time>
      </trkpt>
      <trkpt lat="43.57179" lon="2.91121">
        <ele>399.6</ele>
        <time>2014-01-18T09:39:04Z</time>
      </trkpt>
      <trkpt lat="43.57177" lon="2.91123">
        <ele>398.8</ele>
        <time>2014-01-18T09:39:05Z</time>
      </trkpt>
      <trkpt lat="43.57175" lon="2.91125">
        <ele>398</ele>
        <time>2014-01-18T09:39:06Z</time>
      </trkpt>
      <trkpt lat="43.57174" lon="2.91126">
        <ele>397</ele>
        <time>2014-01-18T09:39:07Z</time>
      </trkpt>
      <trkpt lat="43.57172" lon="2.91127">
        <ele>396.2</ele>
        <time>2014-01-18T09:39:08Z</time>
      </trkpt>
      <trkpt lat="43.57171" lon="2.9113">
        <ele>395.6</ele>
        <time>2014-01-18T09:39:09Z</time>
      </trkpt>
      <trkpt lat="43.5717" lon="2.91132">
        <ele>395</ele>
        <time>2014-01-18T09:39:10Z</time>
      </trkpt>
      <trkpt lat="43.57169" lon="2.91134">
        <ele>394.4</ele>
        <time>2014-01-18T09:39:11Z</time>
      </trkpt>
      <trkpt lat="43.57167" lon="2.91136">
        <ele>393.8</ele>
        <time>2014-01-18T09:39:12Z</time>
      </trkpt>
      <trkpt lat="43.57166" lon="2.91137">
        <ele>393.4</ele>
        <time>2014-01-18T09:39:13Z</time>
      </trkpt>
      <trkpt lat="43.57164" lon="2.91138">
        <ele>393</ele>
        <time>2014-01-18T09:39:14Z</time>
      </trkpt>
      <trkpt lat="43.57161" lon="2.9114">
        <ele>392.6</ele>
        <time>2014-01-18T09:39:15Z</time>
      </trkpt>
      <trkpt lat="43.57157" lon="2.91141">
        <ele>392.2</ele>
        <time>2014-01-18T09:39:16Z</time>
      </trkpt>
      <trkpt lat="43.57153" lon="2.91143">
        <ele>391.8</ele>
        <time>2014-01-18T09:39:17Z</time>
      </trkpt>
      <trkpt lat="43.5715" lon="2.91146">
        <ele>391.2</ele>
        <time>2014-01-18T09:39:18Z</time>
      </trkpt>
      <trkpt lat="43.57147" lon="2.91149">
        <ele>390.6</ele>
        <time>2014-01-18T09:39:19Z</time>
      </trkpt>
      <trkpt lat="43.57143" lon="2.9115">
        <ele>390</ele>
        <time>2014-01-18T09:39:20Z</time>
      </trkpt>
      <trkpt lat="43.57141" lon="2.91153">
        <ele>389.4</ele>
        <time>2014-01-18T09:39:21Z</time>
      </trkpt>
      <trkpt lat="43.57137" lon="2.91153">
        <ele>388.8</ele>
        <time>2014-01-18T09:39:22Z</time>
      </trkpt>
      <trkpt lat="43.57133" lon="2.91154">
        <ele>388.2</ele>
        <time>2014-01-18T09:39:23Z</time>
      </trkpt>
      <trkpt lat="43.57131" lon="2.91155">
        <ele>387.6</ele>
        <time>2014-01-18T09:39:24Z</time>
      </trkpt>
      <trkpt lat="43.57128" lon="2.91156">
        <ele>386.8</ele>
        <time>2014-01-18T09:39:25Z</time>
      </trkpt>
      <trkpt lat="43.57127" lon="2.91161">
        <ele>385.4</ele>
        <time>2014-01-18T09:39:26Z</time>
      </trkpt>
      <trkpt lat="43.57128" lon="2.91163">
        <ele>384.8</ele>
        <time>2014-01-18T09:39:27Z</time>
      </trkpt>
      <trkpt lat="43.57127" lon="2.91163">
        <ele>384</ele>
        <time>2014-01-18T09:39:28Z</time>
      </trkpt>
      <trkpt lat="43.57127" lon="2.91167">
        <ele>384</ele>
        <time>2014-01-18T09:39:30Z</time>
      </trkpt>
      <trkpt lat="43.57127" lon="2.91167">
        <ele>383.6</ele>
        <time>2014-01-18T09:39:31Z</time>
      </trkpt>
      <trkpt lat="43.57124" lon="2.91168">
        <ele>383.2</ele>
        <time>2014-01-18T09:39:32Z</time>
      </trkpt>
      <trkpt lat="43.57122" lon="2.91169">
        <ele>382.8</ele>
        <time>2014-01-18T09:39:33Z</time>
      </trkpt>
      <trkpt lat="43.57119" lon="2.91171">
        <ele>382.4</ele>
        <time>2014-01-18T09:39:34Z</time>
      </trkpt>
      <trkpt lat="43.57116" lon="2.91175">
        <ele>382</ele>
        <time>2014-01-18T09:39:35Z</time>
      </trkpt>
      <trkpt lat="43.57113" lon="2.91177">
        <ele>381.6</ele>
        <time>2014-01-18T09:39:36Z</time>
      </trkpt>
      <trkpt lat="43.5711" lon="2.91179">
        <ele>381.2</ele>
        <time>2014-01-18T09:39:37Z</time>
      </trkpt>
      <trkpt lat="43.57108" lon="2.9118">
        <ele>380.8</ele>
        <time>2014-01-18T09:39:38Z</time>
      </trkpt>
      <trkpt lat="43.57107" lon="2.91181">
        <ele>380.4</ele>
        <time>2014-01-18T09:39:39Z</time>
      </trkpt>
      <trkpt lat="43.57103" lon="2.91183">
        <ele>379.8</ele>
        <time>2014-01-18T09:39:40Z</time>
      </trkpt>
      <trkpt lat="43.571" lon="2.91185">
        <ele>379.4</ele>
        <time>2014-01-18T09:39:41Z</time>
      </trkpt>
      <trkpt lat="43.57096" lon="2.91187">
        <ele>378.8</ele>
        <time>2014-01-18T09:39:42Z</time>
      </trkpt>
      <trkpt lat="43.57092" lon="2.91188">
        <ele>378.2</ele>
        <time>2014-01-18T09:39:43Z</time>
      </trkpt>
      <trkpt lat="43.57089" lon="2.9119">
        <ele>377.6</ele>
        <time>2014-01-18T09:39:44Z</time>
      </trkpt>
      <trkpt lat="43.57087" lon="2.91191">
        <ele>376.8</ele>
        <time>2014-01-18T09:39:45Z</time>
      </trkpt>
      <trkpt lat="43.57086" lon="2.91194">
        <ele>376</ele>
        <time>2014-01-18T09:39:46Z</time>
      </trkpt>
      <trkpt lat="43.57084" lon="2.91196">
        <ele>375.4</ele>
        <time>2014-01-18T09:39:47Z</time>
      </trkpt>
      <trkpt lat="43.57081" lon="2.91198">
        <ele>374.6</ele>
        <time>2014-01-18T09:39:48Z</time>
      </trkpt>
      <trkpt lat="43.57077" lon="2.91201">
        <ele>374</ele>
        <time>2014-01-18T09:39:49Z</time>
      </trkpt>
      <trkpt lat="43.57073" lon="2.91203">
        <ele>373.4</ele>
        <time>2014-01-18T09:39:50Z</time>
      </trkpt>
      <trkpt lat="43.57068" lon="2.91207">
        <ele>372</ele>
        <time>2014-01-18T09:39:51Z</time>
      </trkpt>
      <trkpt lat="43.57064" lon="2.9121">
        <ele>371.4</ele>
        <time>2014-01-18T09:39:52Z</time>
      </trkpt>
      <trkpt lat="43.5706" lon="2.91212">
        <ele>370.8</ele>
        <time>2014-01-18T09:39:53Z</time>
      </trkpt>
      <trkpt lat="43.57057" lon="2.91213">
        <ele>370.2</ele>
        <time>2014-01-18T09:39:54Z</time>
      </trkpt>
      <trkpt lat="43.57054" lon="2.91214">
        <ele>370.2</ele>
        <time>2014-01-18T09:39:55Z</time>
      </trkpt>
      <trkpt lat="43.57051" lon="2.91216">
        <ele>370.2</ele>
        <time>2014-01-18T09:39:56Z</time>
      </trkpt>
      <trkpt lat="43.57048" lon="2.91217">
        <ele>369.6</ele>
        <time>2014-01-18T09:39:57Z</time>
      </trkpt>
      <trkpt lat="43.57045" lon="2.91219">
        <ele>369.2</ele>
        <time>2014-01-18T09:39:58Z</time>
      </trkpt>
      <trkpt lat="43.57043" lon="2.91221">
        <ele>368.8</ele>
        <time>2014-01-18T09:39:59Z</time>
      </trkpt>
      <trkpt lat="43.57042" lon="2.91224">
        <ele>368.4</ele>
        <time>2014-01-18T09:40:00Z</time>
      </trkpt>
      <trkpt lat="43.5704" lon="2.91229">
        <ele>367.6</ele>
        <time>2014-01-18T09:40:01Z</time>
      </trkpt>
      <trkpt lat="43.57039" lon="2.91232">
        <ele>367</ele>
        <time>2014-01-18T09:40:02Z</time>
      </trkpt>
      <trkpt lat="43.57037" lon="2.91235">
        <ele>366.4</ele>
        <time>2014-01-18T09:40:03Z</time>
      </trkpt>
      <trkpt lat="43.57035" lon="2.91238">
        <ele>365.6</ele>
        <time>2014-01-18T09:40:04Z</time>
      </trkpt>
      <trkpt lat="43.57033" lon="2.91241">
        <ele>365</ele>
        <time>2014-01-18T09:40:05Z</time>
      </trkpt>
      <trkpt lat="43.57029" lon="2.91242">
        <ele>364.6</ele>
        <time>2014-01-18T09:40:06Z</time>
      </trkpt>
      <trkpt lat="43.57027" lon="2.91246">
        <ele>364</ele>
        <time>2014-01-18T09:40:07Z</time>
      </trkpt>
      <trkpt lat="43.57024" lon="2.9125">
        <ele>363.6</ele>
        <time>2014-01-18T09:40:08Z</time>
      </trkpt>
      <trkpt lat="43.57021" lon="2.91254">
        <ele>362.8</ele>
        <time>2014-01-18T09:40:09Z</time>
      </trkpt>
      <trkpt lat="43.57017" lon="2.91258">
        <ele>362</ele>
        <time>2014-01-18T09:40:10Z</time>
      </trkpt>
      <trkpt lat="43.57015" lon="2.9126">
        <ele>361.2</ele>
        <time>2014-01-18T09:40:11Z</time>
      </trkpt>
      <trkpt lat="43.57013" lon="2.91262">
        <ele>360.2</ele>
        <time>2014-01-18T09:40:12Z</time>
      </trkpt>
      <trkpt lat="43.57011" lon="2.91264">
        <ele>359.4</ele>
        <time>2014-01-18T09:40:13Z</time>
      </trkpt>
      <trkpt lat="43.57009" lon="2.91267">
        <ele>358.4</ele>
        <time>2014-01-18T09:40:14Z</time>
      </trkpt>
      <trkpt lat="43.57008" lon="2.91271">
        <ele>357.6</ele>
        <time>2014-01-18T09:40:15Z</time>
      </trkpt>
      <trkpt lat="43.57006" lon="2.91274">
        <ele>357</ele>
        <time>2014-01-18T09:40:16Z</time>
      </trkpt>
      <trkpt lat="43.57002" lon="2.91277">
        <ele>356.4</ele>
        <time>2014-01-18T09:40:17Z</time>
      </trkpt>
      <trkpt lat="43.56998" lon="2.91279">
        <ele>355.8</ele>
        <time>2014-01-18T09:40:18Z</time>
      </trkpt>
      <trkpt lat="43.56996" lon="2.9128">
        <ele>355</ele>
        <time>2014-01-18T09:40:19Z</time>
      </trkpt>
      <trkpt lat="43.56993" lon="2.91282">
        <ele>354.2</ele>
        <time>2014-01-18T09:40:20Z</time>
      </trkpt>
      <trkpt lat="43.56991" lon="2.91283">
        <ele>353.6</ele>
        <time>2014-01-18T09:40:21Z</time>
      </trkpt>
      <trkpt lat="43.56989" lon="2.91286">
        <ele>353</ele>
        <time>2014-01-18T09:40:22Z</time>
      </trkpt>
      <trkpt lat="43.56988" lon="2.91288">
        <ele>352.4</ele>
        <time>2014-01-18T09:40:23Z</time>
      </trkpt>
      <trkpt lat="43.56986" lon="2.9129">
        <ele>351.8</ele>
        <time>2014-01-18T09:40:24Z</time>
      </trkpt>
      <trkpt lat="43.56983" lon="2.91293">
        <ele>351.2</ele>
        <time>2014-01-18T09:40:25Z</time>
      </trkpt>
      <trkpt lat="43.5698" lon="2.91296">
        <ele>350.6</ele>
        <time>2014-01-18T09:40:26Z</time>
      </trkpt>
      <trkpt lat="43.56977" lon="2.91299">
        <ele>350.2</ele>
        <time>2014-01-18T09:40:27Z</time>
      </trkpt>
      <trkpt lat="43.56974" lon="2.91302">
        <ele>349.6</ele>
        <time>2014-01-18T09:40:28Z</time>
      </trkpt>
      <trkpt lat="43.56971" lon="2.91306">
        <ele>349.2</ele>
        <time>2014-01-18T09:40:29Z</time>
      </trkpt>
      <trkpt lat="43.56968" lon="2.9131">
        <ele>348.6</ele>
        <time>2014-01-18T09:40:30Z</time>
      </trkpt>
      <trkpt lat="43.56965" lon="2.91315">
        <ele>348.2</ele>
        <time>2014-01-18T09:40:31Z</time>
      </trkpt>
      <trkpt lat="43.56962" lon="2.9132">
        <ele>347.6</ele>
        <time>2014-01-18T09:40:32Z</time>
      </trkpt>
      <trkpt lat="43.56961" lon="2.91322">
        <ele>347.2</ele>
        <time>2014-01-18T09:40:33Z</time>
      </trkpt>
      <trkpt lat="43.56961" lon="2.91322">
        <ele>346.6</ele>
        <time>2014-01-18T09:40:34Z</time>
      </trkpt>
      <trkpt lat="43.56961" lon="2.91323">
        <ele>346.2</ele>
        <time>2014-01-18T09:40:35Z</time>
      </trkpt>
      <trkpt lat="43.56957" lon="2.91325">
        <ele>345.6</ele>
        <time>2014-01-18T09:40:36Z</time>
      </trkpt>
      <trkpt lat="43.56955" lon="2.91328">
        <ele>345</ele>
        <time>2014-01-18T09:40:37Z</time>
      </trkpt>
      <trkpt lat="43.56953" lon="2.91332">
        <ele>344.4</ele>
        <time>2014-01-18T09:40:38Z</time>
      </trkpt>
      <trkpt lat="43.5695" lon="2.91337">
        <ele>343.6</ele>
        <time>2014-01-18T09:40:39Z</time>
      </trkpt>
      <trkpt lat="43.56949" lon="2.91343">
        <ele>342.2</ele>
        <time>2014-01-18T09:40:40Z</time>
      </trkpt>
      <trkpt lat="43.56948" lon="2.91348">
        <ele>341.4</ele>
        <time>2014-01-18T09:40:41Z</time>
      </trkpt>
      <trkpt lat="43.56947" lon="2.91352">
        <ele>340.8</ele>
        <time>2014-01-18T09:40:42Z</time>
      </trkpt>
      <trkpt lat="43.56945" lon="2.91355">
        <ele>340.2</ele>
        <time>2014-01-18T09:40:43Z</time>
      </trkpt>
      <trkpt lat="43.56943" lon="2.91358">
        <ele>339.4</ele>
        <time>2014-01-18T09:40:44Z</time>
      </trkpt>
      <trkpt lat="43.56943" lon="2.91361">
        <ele>338.8</ele>
        <time>2014-01-18T09:40:45Z</time>
      </trkpt>
      <trkpt lat="43.56942" lon="2.91363">
        <ele>338.8</ele>
        <time>2014-01-18T09:40:47Z</time>
      </trkpt>
      <trkpt lat="43.56941" lon="2.91362">
        <ele>338.4</ele>
        <time>2014-01-18T09:40:48Z</time>
      </trkpt>
      <trkpt lat="43.56941" lon="2.91363">
        <ele>338</ele>
        <time>2014-01-18T09:40:49Z</time>
      </trkpt>
      <trkpt lat="43.56939" lon="2.91364">
        <ele>337.4</ele>
        <time>2014-01-18T09:40:50Z</time>
      </trkpt>
      <trkpt lat="43.56937" lon="2.91368">
        <ele>337</ele>
        <time>2014-01-18T09:40:51Z</time>
      </trkpt>
      <trkpt lat="43.56934" lon="2.91368">
        <ele>336.6</ele>
        <time>2014-01-18T09:40:52Z</time>
      </trkpt>
      <trkpt lat="43.56932" lon="2.91375">
        <ele>336.6</ele>
        <time>2014-01-18T09:40:54Z</time>
      </trkpt>
      <trkpt lat="43.56931" lon="2.91378">
        <ele>336.2</ele>
        <time>2014-01-18T09:40:55Z</time>
      </trkpt>
      <trkpt lat="43.5693" lon="2.91385">
        <ele>335.6</ele>
        <time>2014-01-18T09:40:56Z</time>
      </trkpt>
      <trkpt lat="43.56929" lon="2.9139">
        <ele>335.2</ele>
        <time>2014-01-18T09:40:57Z</time>
      </trkpt>
      <trkpt lat="43.56928" lon="2.91394">
        <ele>334.6</ele>
        <time>2014-01-18T09:40:58Z</time>
      </trkpt>
      <trkpt lat="43.56926" lon="2.91397">
        <ele>334.2</ele>
        <time>2014-01-18T09:40:59Z</time>
      </trkpt>
      <trkpt lat="43.56919" lon="2.91403">
        <ele>334.2</ele>
        <time>2014-01-18T09:41:01Z</time>
      </trkpt>
      <trkpt lat="43.56916" lon="2.91407">
        <ele>333.6</ele>
        <time>2014-01-18T09:41:02Z</time>
      </trkpt>
      <trkpt lat="43.56912" lon="2.9141">
        <ele>333</ele>
        <time>2014-01-18T09:41:03Z</time>
      </trkpt>
      <trkpt lat="43.5691" lon="2.91414">
        <ele>332.4</ele>
        <time>2014-01-18T09:41:04Z</time>
      </trkpt>
      <trkpt lat="43.56908" lon="2.91416">
        <ele>331.2</ele>
        <time>2014-01-18T09:41:05Z</time>
      </trkpt>
      <trkpt lat="43.56905" lon="2.91416">
        <ele>330.4</ele>
        <time>2014-01-18T09:41:06Z</time>
      </trkpt>
      <trkpt lat="43.56902" lon="2.91417">
        <ele>329.6</ele>
        <time>2014-01-18T09:41:07Z</time>
      </trkpt>
      <trkpt lat="43.56899" lon="2.91418">
        <ele>328.8</ele>
        <time>2014-01-18T09:41:08Z</time>
      </trkpt>
      <trkpt lat="43.56895" lon="2.9142">
        <ele>328</ele>
        <time>2014-01-18T09:41:09Z</time>
      </trkpt>
      <trkpt lat="43.56893" lon="2.91422">
        <ele>327.2</ele>
        <time>2014-01-18T09:41:10Z</time>
      </trkpt>
      <trkpt lat="43.56885" lon="2.91427">
        <ele>326.6</ele>
        <time>2014-01-18T09:41:12Z</time>
      </trkpt>
      <trkpt lat="43.56882" lon="2.91431">
        <ele>326.2</ele>
        <time>2014-01-18T09:41:13Z</time>
      </trkpt>
      <trkpt lat="43.56879" lon="2.91436">
        <ele>325.6</ele>
        <time>2014-01-18T09:41:14Z</time>
      </trkpt>
      <trkpt lat="43.56875" lon="2.9144">
        <ele>325</ele>
        <time>2014-01-18T09:41:15Z</time>
      </trkpt>
      <trkpt lat="43.5687" lon="2.91444">
        <ele>324.4</ele>
        <time>2014-01-18T09:41:16Z</time>
      </trkpt>
      <trkpt lat="43.56867" lon="2.91447">
        <ele>323.8</ele>
        <time>2014-01-18T09:41:17Z</time>
      </trkpt>
      <trkpt lat="43.56864" lon="2.91451">
        <ele>323.2</ele>
        <time>2014-01-18T09:41:18Z</time>
      </trkpt>
      <trkpt lat="43.56864" lon="2.91455">
        <ele>322.6</ele>
        <time>2014-01-18T09:41:19Z</time>
      </trkpt>
      <trkpt lat="43.56863" lon="2.9146">
        <ele>322.6</ele>
        <time>2014-01-18T09:41:20Z</time>
      </trkpt>
      <trkpt lat="43.56857" lon="2.91468">
        <ele>322</ele>
        <time>2014-01-18T09:41:22Z</time>
      </trkpt>
      <trkpt lat="43.56853" lon="2.91471">
        <ele>321.6</ele>
        <time>2014-01-18T09:41:23Z</time>
      </trkpt>
      <trkpt lat="43.56848" lon="2.91474">
        <ele>321</ele>
        <time>2014-01-18T09:41:24Z</time>
      </trkpt>
      <trkpt lat="43.56845" lon="2.91478">
        <ele>320.4</ele>
        <time>2014-01-18T09:41:25Z</time>
      </trkpt>
      <trkpt lat="43.56841" lon="2.91482">
        <ele>319.8</ele>
        <time>2014-01-18T09:41:26Z</time>
      </trkpt>
      <trkpt lat="43.56839" lon="2.91489">
        <ele>319.2</ele>
        <time>2014-01-18T09:41:27Z</time>
      </trkpt>
      <trkpt lat="43.56836" lon="2.91493">
        <ele>318.6</ele>
        <time>2014-01-18T09:41:28Z</time>
      </trkpt>
      <trkpt lat="43.56833" lon="2.91499">
        <ele>317.8</ele>
        <time>2014-01-18T09:41:29Z</time>
      </trkpt>
      <trkpt lat="43.5683" lon="2.91502">
        <ele>316</ele>
        <time>2014-01-18T09:41:30Z</time>
      </trkpt>
      <trkpt lat="43.56828" lon="2.91505">
        <ele>315</ele>
        <time>2014-01-18T09:41:31Z</time>
      </trkpt>
      <trkpt lat="43.56826" lon="2.9151">
        <ele>314</ele>
        <time>2014-01-18T09:41:32Z</time>
      </trkpt>
      <trkpt lat="43.56823" lon="2.91515">
        <ele>313</ele>
        <time>2014-01-18T09:41:33Z</time>
      </trkpt>
      <trkpt lat="43.56823" lon="2.91519">
        <ele>312</ele>
        <time>2014-01-18T09:41:34Z</time>
      </trkpt>
      <trkpt lat="43.56824" lon="2.91523">
        <ele>311</ele>
        <time>2014-01-18T09:41:35Z</time>
      </trkpt>
      <trkpt lat="43.56825" lon="2.91528">
        <ele>310</ele>
        <time>2014-01-18T09:41:36Z</time>
      </trkpt>
      <trkpt lat="43.56827" lon="2.91534">
        <ele>309</ele>
        <time>2014-01-18T09:41:37Z</time>
      </trkpt>
      <trkpt lat="43.56831" lon="2.91541">
        <ele>307.8</ele>
        <time>2014-01-18T09:41:38Z</time>
      </trkpt>
      <trkpt lat="43.56833" lon="2.91542">
        <ele>306.8</ele>
        <time>2014-01-18T09:41:39Z</time>
      </trkpt>
      <trkpt lat="43.56835" lon="2.91542">
        <ele>305.8</ele>
        <time>2014-01-18T09:41:40Z</time>
      </trkpt>
      <trkpt lat="43.5684" lon="2.91542">
        <ele>304.8</ele>
        <time>2014-01-18T09:41:41Z</time>
      </trkpt>
      <trkpt lat="43.56845" lon="2.91542">
        <ele>304</ele>
        <time>2014-01-18T09:41:42Z</time>
      </trkpt>
      <trkpt lat="43.56852" lon="2.91541">
        <ele>303.2</ele>
        <time>2014-01-18T09:41:43Z</time>
      </trkpt>
      <trkpt lat="43.56857" lon="2.9154">
        <ele>302.2</ele>
        <time>2014-01-18T09:41:44Z</time>
      </trkpt>
      <trkpt lat="43.56861" lon="2.91539">
        <ele>301.4</ele>
        <time>2014-01-18T09:41:45Z</time>
      </trkpt>
      <trkpt lat="43.56863" lon="2.9154">
        <ele>300.6</ele>
        <time>2014-01-18T09:41:46Z</time>
      </trkpt>
      <trkpt lat="43.56866" lon="2.91543">
        <ele>300.6</ele>
        <time>2014-01-18T09:41:49Z</time>
      </trkpt>
      <trkpt lat="43.56869" lon="2.91547">
        <ele>300.6</ele>
        <time>2014-01-18T09:41:51Z</time>
      </trkpt>
      <trkpt lat="43.56874" lon="2.91552">
        <ele>300.2</ele>
        <time>2014-01-18T09:41:53Z</time>
      </trkpt>
      <trkpt lat="43.56876" lon="2.91554">
        <ele>299.4</ele>
        <time>2014-01-18T09:41:54Z</time>
      </trkpt>
      <trkpt lat="43.56876" lon="2.91556">
        <ele>299</ele>
        <time>2014-01-18T09:41:55Z</time>
      </trkpt>
      <trkpt lat="43.56877" lon="2.91556">
        <ele>298.6</ele>
        <time>2014-01-18T09:41:56Z</time>
      </trkpt>
      <trkpt lat="43.56878" lon="2.91557">
        <ele>298.6</ele>
        <time>2014-01-18T09:41:59Z</time>
      </trkpt>
      <trkpt lat="43.56879" lon="2.91557">
        <ele>298.6</ele>
        <time>2014-01-18T09:42:01Z</time>
      </trkpt>
      <trkpt lat="43.56879" lon="2.91554">
        <ele>298.6</ele>
        <time>2014-01-18T09:42:05Z</time>
      </trkpt>
      <trkpt lat="43.56875" lon="2.91547">
        <ele>298.6</ele>
        <time>2014-01-18T09:42:12Z</time>
      </trkpt>
      <trkpt lat="43.56874" lon="2.91546">
        <ele>298.6</ele>
        <time>2014-01-18T09:42:13Z</time>
      </trkpt>
      <trkpt lat="43.5687" lon="2.91542">
        <ele>298.6</ele>
        <time>2014-01-18T09:42:16Z</time>
      </trkpt>
      <trkpt lat="43.56867" lon="2.91541">
        <ele>298.6</ele>
        <time>2014-01-18T09:42:19Z</time>
      </trkpt>
      <trkpt lat="43.5686" lon="2.91543">
        <ele>298.6</ele>
        <time>2014-01-18T09:42:23Z</time>
      </trkpt>
      <trkpt lat="43.56857" lon="2.91542">
        <ele>298.6</ele>
        <time>2014-01-18T09:42:24Z</time>
      </trkpt>
      <trkpt lat="43.56853" lon="2.91546">
        <ele>298.6</ele>
        <time>2014-01-18T09:42:26Z</time>
      </trkpt>
      <trkpt lat="43.56848" lon="2.91552">
        <ele>298.6</ele>
        <time>2014-01-18T09:42:28Z</time>
      </trkpt>
      <trkpt lat="43.56838" lon="2.91558">
        <ele>298.6</ele>
        <time>2014-01-18T09:42:33Z</time>
      </trkpt>
      <trkpt lat="43.56835" lon="2.9156">
        <ele>298.6</ele>
        <time>2014-01-18T09:42:37Z</time>
      </trkpt>
      <trkpt lat="43.56834" lon="2.9156">
        <ele>298.2</ele>
        <time>2014-01-18T09:42:39Z</time>
      </trkpt>
      <trkpt lat="43.56833" lon="2.91561">
        <ele>297.6</ele>
        <time>2014-01-18T09:42:40Z</time>
      </trkpt>
      <trkpt lat="43.56831" lon="2.91563">
        <ele>297.2</ele>
        <time>2014-01-18T09:42:41Z</time>
      </trkpt>
      <trkpt lat="43.56829" lon="2.91565">
        <ele>296.8</ele>
        <time>2014-01-18T09:42:42Z</time>
      </trkpt>
      <trkpt lat="43.56828" lon="2.91569">
        <ele>296.4</ele>
        <time>2014-01-18T09:42:43Z</time>
      </trkpt>
      <trkpt lat="43.56824" lon="2.91572">
        <ele>296.4</ele>
        <time>2014-01-18T09:42:45Z</time>
      </trkpt>
      <trkpt lat="43.56821" lon="2.91572">
        <ele>296.4</ele>
        <time>2014-01-18T09:42:47Z</time>
      </trkpt>
      <trkpt lat="43.56821" lon="2.91572">
        <ele>296.4</ele>
        <time>2014-01-18T09:42:48Z</time>
      </trkpt>
      <trkpt lat="43.56821" lon="2.91572">
        <ele>296.4</ele>
        <time>2014-01-18T09:42:51Z</time>
      </trkpt>
      <trkpt lat="43.56822" lon="2.91573">
        <ele>296.4</ele>
        <time>2014-01-18T09:42:53Z</time>
      </trkpt>
      <trkpt lat="43.56824" lon="2.91572">
        <ele>296.4</ele>
        <time>2014-01-18T09:42:56Z</time>
      </trkpt>
      <trkpt lat="43.56824" lon="2.91571">
        <ele>296.4</ele>
        <time>2014-01-18T09:42:58Z</time>
      </trkpt>
      <trkpt lat="43.56824" lon="2.9157">
        <ele>296.4</ele>
        <time>2014-01-18T09:42:59Z</time>
      </trkpt>
      <trkpt lat="43.56825" lon="2.91569">
        <ele>296.4</ele>
        <time>2014-01-18T09:43:01Z</time>
      </trkpt>
      <trkpt lat="43.56824" lon="2.91568">
        <ele>294.4</ele>
        <time>2014-01-18T09:47:39Z</time>
      </trkpt>
      <trkpt lat="43.56826" lon="2.91568">
        <ele>294.4</ele>
        <time>2014-01-18T09:47:40Z</time>
      </trkpt>
      <trkpt lat="43.56827" lon="2.91567">
        <ele>294.4</ele>
        <time>2014-01-18T09:47:41Z</time>
      </trkpt>
      <trkpt lat="43.56831" lon="2.91567">
        <ele>294.4</ele>
        <time>2014-01-18T09:47:43Z</time>
      </trkpt>
      <trkpt lat="43.56834" lon="2.91567">
        <ele>294.4</ele>
        <time>2014-01-18T09:47:44Z</time>
      </trkpt>
      <trkpt lat="43.56839" lon="2.9157">
        <ele>294.4</ele>
        <time>2014-01-18T09:47:45Z</time>
      </trkpt>
      <trkpt lat="43.56841" lon="2.91575">
        <ele>294.4</ele>
        <time>2014-01-18T09:47:46Z</time>
      </trkpt>
      <trkpt lat="43.56841" lon="2.91581">
        <ele>294.4</ele>
        <time>2014-01-18T09:47:47Z</time>
      </trkpt>
      <trkpt lat="43.56836" lon="2.91592">
        <ele>293.8</ele>
        <time>2014-01-18T09:47:49Z</time>
      </trkpt>
      <trkpt lat="43.56831" lon="2.91596">
        <ele>293.2</ele>
        <time>2014-01-18T09:47:50Z</time>
      </trkpt>
      <trkpt lat="43.56826" lon="2.91599">
        <ele>292.8</ele>
        <time>2014-01-18T09:47:51Z</time>
      </trkpt>
      <trkpt lat="43.56821" lon="2.91601">
        <ele>292.2</ele>
        <time>2014-01-18T09:47:52Z</time>
      </trkpt>
      <trkpt lat="43.56815" lon="2.91602">
        <ele>291.6</ele>
        <time>2014-01-18T09:47:53Z</time>
      </trkpt>
      <trkpt lat="43.5681" lon="2.91602">
        <ele>291</ele>
        <time>2014-01-18T09:47:54Z</time>
      </trkpt>
      <trkpt lat="43.56804" lon="2.91601">
        <ele>290.2</ele>
        <time>2014-01-18T09:47:55Z</time>
      </trkpt>
      <trkpt lat="43.56798" lon="2.91599">
        <ele>289.6</ele>
        <time>2014-01-18T09:47:56Z</time>
      </trkpt>
      <trkpt lat="43.56796" lon="2.91599">
        <ele>288.8</ele>
        <time>2014-01-18T09:47:57Z</time>
      </trkpt>
      <trkpt lat="43.56795" lon="2.91599">
        <ele>288</ele>
        <time>2014-01-18T09:47:58Z</time>
      </trkpt>
      <trkpt lat="43.56796" lon="2.91598">
        <ele>287.2</ele>
        <time>2014-01-18T09:47:59Z</time>
      </trkpt>
      <trkpt lat="43.56796" lon="2.91597">
        <ele>286.4</ele>
        <time>2014-01-18T09:48:00Z</time>
      </trkpt>
      <trkpt lat="43.56796" lon="2.91597">
        <ele>285.6</ele>
        <time>2014-01-18T09:48:01Z</time>
      </trkpt>
      <trkpt lat="43.56796" lon="2.91596">
        <ele>285</ele>
        <time>2014-01-18T09:48:02Z</time>
      </trkpt>
      <trkpt lat="43.56797" lon="2.91595">
        <ele>285</ele>
        <time>2014-01-18T09:48:05Z</time>
      </trkpt>
      <trkpt lat="43.56797" lon="2.91595">
        <ele>285</ele>
        <time>2014-01-18T09:48:14Z</time>
      </trkpt>
      <trkpt lat="43.56797" lon="2.91595">
        <ele>285</ele>
        <time>2014-01-18T09:48:15Z</time>
      </trkpt>
      <trkpt lat="43.56796" lon="2.91595">
        <ele>285</ele>
        <time>2014-01-18T09:48:16Z</time>
      </trkpt>
      <trkpt lat="43.56797" lon="2.91599">
        <ele>285</ele>
        <time>2014-01-18T09:48:18Z</time>
      </trkpt>
      <trkpt lat="43.56799" lon="2.91603">
        <ele>285</ele>
        <time>2014-01-18T09:48:19Z</time>
      </trkpt>
      <trkpt lat="43.56801" lon="2.91609">
        <ele>285</ele>
        <time>2014-01-18T09:48:21Z</time>
      </trkpt>
      <trkpt lat="43.56804" lon="2.91611">
        <ele>285</ele>
        <time>2014-01-18T09:48:22Z</time>
      </trkpt>
      <trkpt lat="43.56805" lon="2.91612">
        <ele>285</ele>
        <time>2014-01-18T09:48:24Z</time>
      </trkpt>
      <trkpt lat="43.56806" lon="2.91612">
        <ele>285</ele>
        <time>2014-01-18T09:48:25Z</time>
      </trkpt>
      <trkpt lat="43.56808" lon="2.91612">
        <ele>285</ele>
        <time>2014-01-18T09:48:27Z</time>
      </trkpt>
      <trkpt lat="43.56808" lon="2.91613">
        <ele>285</ele>
        <time>2014-01-18T09:48:29Z</time>
      </trkpt>
      <trkpt lat="43.56808" lon="2.91613">
        <ele>285</ele>
        <time>2014-01-18T09:48:33Z</time>
      </trkpt>
      <trkpt lat="43.56817" lon="2.91614">
        <ele>284.4</ele>
        <time>2014-01-18T09:48:38Z</time>
      </trkpt>
      <trkpt lat="43.56821" lon="2.91611">
        <ele>284</ele>
        <time>2014-01-18T09:48:39Z</time>
      </trkpt>
      <trkpt lat="43.56823" lon="2.91611">
        <ele>283.6</ele>
        <time>2014-01-18T09:48:40Z</time>
      </trkpt>
      <trkpt lat="43.56826" lon="2.9161">
        <ele>283.2</ele>
        <time>2014-01-18T09:48:41Z</time>
      </trkpt>
      <trkpt lat="43.56828" lon="2.91612">
        <ele>282.8</ele>
        <time>2014-01-18T09:48:42Z</time>
      </trkpt>
      <trkpt lat="43.56834" lon="2.9162">
        <ele>282.2</ele>
        <time>2014-01-18T09:48:44Z</time>
      </trkpt>
      <trkpt lat="43.56835" lon="2.91626">
        <ele>281.8</ele>
        <time>2014-01-18T09:48:45Z</time>
      </trkpt>
      <trkpt lat="43.56835" lon="2.91632">
        <ele>281.4</ele>
        <time>2014-01-18T09:48:46Z</time>
      </trkpt>
      <trkpt lat="43.56835" lon="2.91636">
        <ele>280.8</ele>
        <time>2014-01-18T09:48:47Z</time>
      </trkpt>
      <trkpt lat="43.56835" lon="2.91641">
        <ele>280.4</ele>
        <time>2014-01-18T09:48:48Z</time>
      </trkpt>
      <trkpt lat="43.56833" lon="2.91649">
        <ele>280.4</ele>
        <time>2014-01-18T09:48:50Z</time>
      </trkpt>
      <trkpt lat="43.56829" lon="2.91659">
        <ele>280.4</ele>
        <time>2014-01-18T09:48:52Z</time>
      </trkpt>
      <trkpt lat="43.5682" lon="2.91674">
        <ele>280.4</ele>
        <time>2014-01-18T09:48:55Z</time>
      </trkpt>
      <trkpt lat="43.56817" lon="2.91679">
        <ele>280.4</ele>
        <time>2014-01-18T09:48:56Z</time>
      </trkpt>
      <trkpt lat="43.56813" lon="2.91685">
        <ele>280.4</ele>
        <time>2014-01-18T09:48:57Z</time>
      </trkpt>
      <trkpt lat="43.56807" lon="2.91697">
        <ele>280.4</ele>
        <time>2014-01-18T09:48:59Z</time>
      </trkpt>
      <trkpt lat="43.56804" lon="2.91703">
        <ele>280.4</ele>
        <time>2014-01-18T09:49:00Z</time>
      </trkpt>
      <trkpt lat="43.56798" lon="2.91717">
        <ele>280.4</ele>
        <time>2014-01-18T09:49:02Z</time>
      </trkpt>
      <trkpt lat="43.56789" lon="2.91727">
        <ele>280.4</ele>
        <time>2014-01-18T09:49:04Z</time>
      </trkpt>
      <trkpt lat="43.56781" lon="2.91737">
        <ele>280.4</ele>
        <time>2014-01-18T09:49:06Z</time>
      </trkpt>
      <trkpt lat="43.56779" lon="2.91742">
        <ele>280.4</ele>
        <time>2014-01-18T09:49:07Z</time>
      </trkpt>
      <trkpt lat="43.56774" lon="2.91769">
        <ele>280.4</ele>
        <time>2014-01-18T09:49:11Z</time>
      </trkpt>
      <trkpt lat="43.5677" lon="2.91783">
        <ele>280.4</ele>
        <time>2014-01-18T09:49:13Z</time>
      </trkpt>
      <trkpt lat="43.56764" lon="2.91795">
        <ele>280.4</ele>
        <time>2014-01-18T09:49:15Z</time>
      </trkpt>
      <trkpt lat="43.5676" lon="2.91798">
        <ele>280.4</ele>
        <time>2014-01-18T09:49:16Z</time>
      </trkpt>
      <trkpt lat="43.56756" lon="2.91802">
        <ele>280</ele>
        <time>2014-01-18T09:49:17Z</time>
      </trkpt>
      <trkpt lat="43.56752" lon="2.91804">
        <ele>279.6</ele>
        <time>2014-01-18T09:49:18Z</time>
      </trkpt>
      <trkpt lat="43.56747" lon="2.91807">
        <ele>278.6</ele>
        <time>2014-01-18T09:49:19Z</time>
      </trkpt>
      <trkpt lat="43.56742" lon="2.91809">
        <ele>278.2</ele>
        <time>2014-01-18T09:49:20Z</time>
      </trkpt>
      <trkpt lat="43.56737" lon="2.91813">
        <ele>278.2</ele>
        <time>2014-01-18T09:49:21Z</time>
      </trkpt>
      <trkpt lat="43.56732" lon="2.91816">
        <ele>278.2</ele>
        <time>2014-01-18T09:49:22Z</time>
      </trkpt>
      <trkpt lat="43.56722" lon="2.9182">
        <ele>278.2</ele>
        <time>2014-01-18T09:49:24Z</time>
      </trkpt>
      <trkpt lat="43.56717" lon="2.91821">
        <ele>278.2</ele>
        <time>2014-01-18T09:49:25Z</time>
      </trkpt>
      <trkpt lat="43.56712" lon="2.91823">
        <ele>278.2</ele>
        <time>2014-01-18T09:49:26Z</time>
      </trkpt>
      <trkpt lat="43.5669" lon="2.91827">
        <ele>278.2</ele>
        <time>2014-01-18T09:49:30Z</time>
      </trkpt>
      <trkpt lat="43.56678" lon="2.91823">
        <ele>278.2</ele>
        <time>2014-01-18T09:49:32Z</time>
      </trkpt>
      <trkpt lat="43.56669" lon="2.91814">
        <ele>277.8</ele>
        <time>2014-01-18T09:49:34Z</time>
      </trkpt>
      <trkpt lat="43.56665" lon="2.91808">
        <ele>277.4</ele>
        <time>2014-01-18T09:49:35Z</time>
      </trkpt>
      <trkpt lat="43.56661" lon="2.91802">
        <ele>277</ele>
        <time>2014-01-18T09:49:36Z</time>
      </trkpt>
      <trkpt lat="43.56658" lon="2.91795">
        <ele>276.6</ele>
        <time>2014-01-18T09:49:37Z</time>
      </trkpt>
      <trkpt lat="43.56654" lon="2.91788">
        <ele>276.2</ele>
        <time>2014-01-18T09:49:38Z</time>
      </trkpt>
      <trkpt lat="43.56639" lon="2.91777">
        <ele>276.2</ele>
        <time>2014-01-18T09:49:41Z</time>
      </trkpt>
      <trkpt lat="43.56623" lon="2.91781">
        <ele>276.2</ele>
        <time>2014-01-18T09:49:44Z</time>
      </trkpt>
      <trkpt lat="43.56619" lon="2.91785">
        <ele>275.8</ele>
        <time>2014-01-18T09:49:45Z</time>
      </trkpt>
      <trkpt lat="43.56616" lon="2.91792">
        <ele>275.4</ele>
        <time>2014-01-18T09:49:46Z</time>
      </trkpt>
      <trkpt lat="43.56613" lon="2.91798">
        <ele>275</ele>
        <time>2014-01-18T09:49:47Z</time>
      </trkpt>
      <trkpt lat="43.56612" lon="2.91805">
        <ele>274.6</ele>
        <time>2014-01-18T09:49:48Z</time>
      </trkpt>
      <trkpt lat="43.56611" lon="2.9181">
        <ele>274.2</ele>
        <time>2014-01-18T09:49:49Z</time>
      </trkpt>
      <trkpt lat="43.56609" lon="2.91818">
        <ele>274.2</ele>
        <time>2014-01-18T09:49:51Z</time>
      </trkpt>
      <trkpt lat="43.5661" lon="2.91837">
        <ele>274.2</ele>
        <time>2014-01-18T09:49:56Z</time>
      </trkpt>
      <trkpt lat="43.56613" lon="2.91851">
        <ele>274.6</ele>
        <time>2014-01-18T09:50:00Z</time>
      </trkpt>
      <trkpt lat="43.56614" lon="2.91854">
        <ele>275</ele>
        <time>2014-01-18T09:50:01Z</time>
      </trkpt>
      <trkpt lat="43.56616" lon="2.91857">
        <ele>275.4</ele>
        <time>2014-01-18T09:50:02Z</time>
      </trkpt>
      <trkpt lat="43.56617" lon="2.9186">
        <ele>275.8</ele>
        <time>2014-01-18T09:50:03Z</time>
      </trkpt>
      <trkpt lat="43.56618" lon="2.91863">
        <ele>276.2</ele>
        <time>2014-01-18T09:50:04Z</time>
      </trkpt>
      <trkpt lat="43.56622" lon="2.91876">
        <ele>276.2</ele>
        <time>2014-01-18T09:50:08Z</time>
      </trkpt>
      <trkpt lat="43.56625" lon="2.91884">
        <ele>276.2</ele>
        <time>2014-01-18T09:50:11Z</time>
      </trkpt>
      <trkpt lat="43.56627" lon="2.91889">
        <ele>276.6</ele>
        <time>2014-01-18T09:50:13Z</time>
      </trkpt>
      <trkpt lat="43.56628" lon="2.91892">
        <ele>277</ele>
        <time>2014-01-18T09:50:14Z</time>
      </trkpt>
      <trkpt lat="43.5663" lon="2.91894">
        <ele>277.4</ele>
        <time>2014-01-18T09:50:15Z</time>
      </trkpt>
      <trkpt lat="43.56631" lon="2.91897">
        <ele>277.8</ele>
        <time>2014-01-18T09:50:16Z</time>
      </trkpt>
      <trkpt lat="43.56632" lon="2.91899">
        <ele>278.2</ele>
        <time>2014-01-18T09:50:17Z</time>
      </trkpt>
      <trkpt lat="43.56634" lon="2.91905">
        <ele>278.2</ele>
        <time>2014-01-18T09:50:19Z</time>
      </trkpt>
      <trkpt lat="43.56637" lon="2.91913">
        <ele>278.2</ele>
        <time>2014-01-18T09:50:22Z</time>
      </trkpt>
      <trkpt lat="43.56639" lon="2.91918">
        <ele>278.6</ele>
        <time>2014-01-18T09:50:24Z</time>
      </trkpt>
      <trkpt lat="43.5664" lon="2.9192">
        <ele>279.2</ele>
        <time>2014-01-18T09:50:25Z</time>
      </trkpt>
      <trkpt lat="43.56642" lon="2.91923">
        <ele>279.6</ele>
        <time>2014-01-18T09:50:26Z</time>
      </trkpt>
      <trkpt lat="43.56643" lon="2.91925">
        <ele>280</ele>
        <time>2014-01-18T09:50:27Z</time>
      </trkpt>
      <trkpt lat="43.56643" lon="2.91927">
        <ele>280.4</ele>
        <time>2014-01-18T09:50:28Z</time>
      </trkpt>
      <trkpt lat="43.56651" lon="2.91944">
        <ele>280.4</ele>
        <time>2014-01-18T09:50:35Z</time>
      </trkpt>
      <trkpt lat="43.56655" lon="2.91952">
        <ele>280.8</ele>
        <time>2014-01-18T09:50:38Z</time>
      </trkpt>
      <trkpt lat="43.56656" lon="2.91954">
        <ele>281.2</ele>
        <time>2014-01-18T09:50:39Z</time>
      </trkpt>
      <trkpt lat="43.56657" lon="2.91957">
        <ele>281.6</ele>
        <time>2014-01-18T09:50:40Z</time>
      </trkpt>
      <trkpt lat="43.56658" lon="2.9196">
        <ele>282</ele>
        <time>2014-01-18T09:50:41Z</time>
      </trkpt>
      <trkpt lat="43.56659" lon="2.91962">
        <ele>282.4</ele>
        <time>2014-01-18T09:50:42Z</time>
      </trkpt>
      <trkpt lat="43.56659" lon="2.91965">
        <ele>282.4</ele>
        <time>2014-01-18T09:50:43Z</time>
      </trkpt>
      <trkpt lat="43.56666" lon="2.91979">
        <ele>282.4</ele>
        <time>2014-01-18T09:50:49Z</time>
      </trkpt>
      <trkpt lat="43.56669" lon="2.91988">
        <ele>282.8</ele>
        <time>2014-01-18T09:50:52Z</time>
      </trkpt>
      <trkpt lat="43.5667" lon="2.9199">
        <ele>283.2</ele>
        <time>2014-01-18T09:50:53Z</time>
      </trkpt>
      <trkpt lat="43.56671" lon="2.91993">
        <ele>283.6</ele>
        <time>2014-01-18T09:50:54Z</time>
      </trkpt>
      <trkpt lat="43.56672" lon="2.91996">
        <ele>284</ele>
        <time>2014-01-18T09:50:55Z</time>
      </trkpt>
      <trkpt lat="43.56674" lon="2.91998">
        <ele>284.6</ele>
        <time>2014-01-18T09:50:56Z</time>
      </trkpt>
      <trkpt lat="43.56676" lon="2.92004">
        <ele>284.6</ele>
        <time>2014-01-18T09:50:58Z</time>
      </trkpt>
      <trkpt lat="43.56684" lon="2.92022">
        <ele>284.6</ele>
        <time>2014-01-18T09:51:05Z</time>
      </trkpt>
      <trkpt lat="43.5669" lon="2.92028">
        <ele>285</ele>
        <time>2014-01-18T09:51:08Z</time>
      </trkpt>
      <trkpt lat="43.56691" lon="2.92029">
        <ele>285.4</ele>
        <time>2014-01-18T09:51:09Z</time>
      </trkpt>
      <trkpt lat="43.56693" lon="2.9203">
        <ele>285.8</ele>
        <time>2014-01-18T09:51:10Z</time>
      </trkpt>
      <trkpt lat="43.56695" lon="2.9203">
        <ele>286.2</ele>
        <time>2014-01-18T09:51:11Z</time>
      </trkpt>
      <trkpt lat="43.56698" lon="2.9203">
        <ele>286.6</ele>
        <time>2014-01-18T09:51:12Z</time>
      </trkpt>
      <trkpt lat="43.56706" lon="2.92027">
        <ele>287</ele>
        <time>2014-01-18T09:51:16Z</time>
      </trkpt>
      <trkpt lat="43.56707" lon="2.92026">
        <ele>287.4</ele>
        <time>2014-01-18T09:51:17Z</time>
      </trkpt>
      <trkpt lat="43.56709" lon="2.92025">
        <ele>287.8</ele>
        <time>2014-01-18T09:51:18Z</time>
      </trkpt>
      <trkpt lat="43.56711" lon="2.92023">
        <ele>288.2</ele>
        <time>2014-01-18T09:51:19Z</time>
      </trkpt>
      <trkpt lat="43.56713" lon="2.92022">
        <ele>288.6</ele>
        <time>2014-01-18T09:51:20Z</time>
      </trkpt>
      <trkpt lat="43.56723" lon="2.92015">
        <ele>288.6</ele>
        <time>2014-01-18T09:51:25Z</time>
      </trkpt>
      <trkpt lat="43.56732" lon="2.92008">
        <ele>289</ele>
        <time>2014-01-18T09:51:29Z</time>
      </trkpt>
      <trkpt lat="43.56733" lon="2.92007">
        <ele>289.4</ele>
        <time>2014-01-18T09:51:30Z</time>
      </trkpt>
      <trkpt lat="43.56735" lon="2.92006">
        <ele>290</ele>
        <time>2014-01-18T09:51:31Z</time>
      </trkpt>
      <trkpt lat="43.56737" lon="2.92005">
        <ele>290.4</ele>
        <time>2014-01-18T09:51:32Z</time>
      </trkpt>
      <trkpt lat="43.56739" lon="2.92005">
        <ele>290.8</ele>
        <time>2014-01-18T09:51:33Z</time>
      </trkpt>
      <trkpt lat="43.56747" lon="2.92007">
        <ele>290.8</ele>
        <time>2014-01-18T09:51:37Z</time>
      </trkpt>
      <trkpt lat="43.56762" lon="2.9201">
        <ele>290.8</ele>
        <time>2014-01-18T09:51:44Z</time>
      </trkpt>
      <trkpt lat="43.56778" lon="2.92009">
        <ele>290.8</ele>
        <time>2014-01-18T09:51:49Z</time>
      </trkpt>
      <trkpt lat="43.56805" lon="2.92001">
        <ele>290.8</ele>
        <time>2014-01-18T09:51:56Z</time>
      </trkpt>
      <trkpt lat="43.56822" lon="2.91997">
        <ele>290.8</ele>
        <time>2014-01-18T09:52:00Z</time>
      </trkpt>
      <trkpt lat="43.56832" lon="2.91999">
        <ele>290.8</ele>
        <time>2014-01-18T09:52:02Z</time>
      </trkpt>
      <trkpt lat="43.56837" lon="2.92002">
        <ele>290.4</ele>
        <time>2014-01-18T09:52:03Z</time>
      </trkpt>
      <trkpt lat="43.56842" lon="2.92006">
        <ele>290</ele>
        <time>2014-01-18T09:52:04Z</time>
      </trkpt>
      <trkpt lat="43.56846" lon="2.9201">
        <ele>289.6</ele>
        <time>2014-01-18T09:52:05Z</time>
      </trkpt>
      <trkpt lat="43.5685" lon="2.92016">
        <ele>289</ele>
        <time>2014-01-18T09:52:06Z</time>
      </trkpt>
      <trkpt lat="43.56854" lon="2.92021">
        <ele>288.6</ele>
        <time>2014-01-18T09:52:07Z</time>
      </trkpt>
      <trkpt lat="43.56863" lon="2.92031">
        <ele>288.6</ele>
        <time>2014-01-18T09:52:09Z</time>
      </trkpt>
      <trkpt lat="43.56868" lon="2.92035">
        <ele>288.6</ele>
        <time>2014-01-18T09:52:10Z</time>
      </trkpt>
      <trkpt lat="43.56873" lon="2.92036">
        <ele>288.6</ele>
        <time>2014-01-18T09:52:11Z</time>
      </trkpt>
      <trkpt lat="43.5689" lon="2.9203">
        <ele>288.6</ele>
        <time>2014-01-18T09:52:14Z</time>
      </trkpt>
      <trkpt lat="43.56899" lon="2.92027">
        <ele>288.6</ele>
        <time>2014-01-18T09:52:16Z</time>
      </trkpt>
      <trkpt lat="43.56904" lon="2.92026">
        <ele>288.2</ele>
        <time>2014-01-18T09:52:17Z</time>
      </trkpt>
      <trkpt lat="43.56908" lon="2.92025">
        <ele>287.8</ele>
        <time>2014-01-18T09:52:18Z</time>
      </trkpt>
      <trkpt lat="43.56913" lon="2.92026">
        <ele>287.4</ele>
        <time>2014-01-18T09:52:19Z</time>
      </trkpt>
      <trkpt lat="43.56918" lon="2.92026">
        <ele>287</ele>
        <time>2014-01-18T09:52:20Z</time>
      </trkpt>
      <trkpt lat="43.56923" lon="2.92029">
        <ele>286.6</ele>
        <time>2014-01-18T09:52:21Z</time>
      </trkpt>
      <trkpt lat="43.56932" lon="2.92037">
        <ele>286.6</ele>
        <time>2014-01-18T09:52:23Z</time>
      </trkpt>
      <trkpt lat="43.5694" lon="2.92055">
        <ele>286.6</ele>
        <time>2014-01-18T09:52:26Z</time>
      </trkpt>
      <trkpt lat="43.56936" lon="2.92083">
        <ele>286.6</ele>
        <time>2014-01-18T09:52:30Z</time>
      </trkpt>
      <trkpt lat="43.56922" lon="2.92097">
        <ele>286.6</ele>
        <time>2014-01-18T09:52:33Z</time>
      </trkpt>
      <trkpt lat="43.5691" lon="2.92102">
        <ele>286.2</ele>
        <time>2014-01-18T09:52:35Z</time>
      </trkpt>
      <trkpt lat="43.56904" lon="2.92105">
        <ele>285.8</ele>
        <time>2014-01-18T09:52:36Z</time>
      </trkpt>
      <trkpt lat="43.56899" lon="2.92108">
        <ele>285</ele>
        <time>2014-01-18T09:52:37Z</time>
      </trkpt>
      <trkpt lat="43.56893" lon="2.9211">
        <ele>284.6</ele>
        <time>2014-01-18T09:52:38Z</time>
      </trkpt>
      <trkpt lat="43.56873" lon="2.92123">
        <ele>284.6</ele>
        <time>2014-01-18T09:52:42Z</time>
      </trkpt>
      <trkpt lat="43.56868" lon="2.92126">
        <ele>284.6</ele>
        <time>2014-01-18T09:52:43Z</time>
      </trkpt>
      <trkpt lat="43.5686" lon="2.92134">
        <ele>284.6</ele>
        <time>2014-01-18T09:52:45Z</time>
      </trkpt>
      <trkpt lat="43.56855" lon="2.92145">
        <ele>284.6</ele>
        <time>2014-01-18T09:52:47Z</time>
      </trkpt>
      <trkpt lat="43.56851" lon="2.92157">
        <ele>284.2</ele>
        <time>2014-01-18T09:52:49Z</time>
      </trkpt>
      <trkpt lat="43.56849" lon="2.92163">
        <ele>283.8</ele>
        <time>2014-01-18T09:52:50Z</time>
      </trkpt>
      <trkpt lat="43.56849" lon="2.9217">
        <ele>283.4</ele>
        <time>2014-01-18T09:52:51Z</time>
      </trkpt>
      <trkpt lat="43.56848" lon="2.92176">
        <ele>282.8</ele>
        <time>2014-01-18T09:52:52Z</time>
      </trkpt>
      <trkpt lat="43.56848" lon="2.92182">
        <ele>282.4</ele>
        <time>2014-01-18T09:52:53Z</time>
      </trkpt>
      <trkpt lat="43.56847" lon="2.92195">
        <ele>282.4</ele>
        <time>2014-01-18T09:52:55Z</time>
      </trkpt>
      <trkpt lat="43.56847" lon="2.92221">
        <ele>282.4</ele>
        <time>2014-01-18T09:52:59Z</time>
      </trkpt>
      <trkpt lat="43.56844" lon="2.92249">
        <ele>282.4</ele>
        <time>2014-01-18T09:53:04Z</time>
      </trkpt>
      <trkpt lat="43.56842" lon="2.92271">
        <ele>282.4</ele>
        <time>2014-01-18T09:53:08Z</time>
      </trkpt>
      <trkpt lat="43.56841" lon="2.92282">
        <ele>282.4</ele>
        <time>2014-01-18T09:53:10Z</time>
      </trkpt>
      <trkpt lat="43.56842" lon="2.92288">
        <ele>282.4</ele>
        <time>2014-01-18T09:53:11Z</time>
      </trkpt>
      <trkpt lat="43.56842" lon="2.92305">
        <ele>282.4</ele>
        <time>2014-01-18T09:53:14Z</time>
      </trkpt>
      <trkpt lat="43.56842" lon="2.92311">
        <ele>282.4</ele>
        <time>2014-01-18T09:53:15Z</time>
      </trkpt>
      <trkpt lat="43.56842" lon="2.92317">
        <ele>282.4</ele>
        <time>2014-01-18T09:53:16Z</time>
      </trkpt>
      <trkpt lat="43.56841" lon="2.92349">
        <ele>282.4</ele>
        <time>2014-01-18T09:53:21Z</time>
      </trkpt>
      <trkpt lat="43.5684" lon="2.92356">
        <ele>282.4</ele>
        <time>2014-01-18T09:53:22Z</time>
      </trkpt>
      <trkpt lat="43.56835" lon="2.92386">
        <ele>282.4</ele>
        <time>2014-01-18T09:53:26Z</time>
      </trkpt>
      <trkpt lat="43.56832" lon="2.92409">
        <ele>282.4</ele>
        <time>2014-01-18T09:53:29Z</time>
      </trkpt>
      <trkpt lat="43.56827" lon="2.92421">
        <ele>282.4</ele>
        <time>2014-01-18T09:53:31Z</time>
      </trkpt>
      <trkpt lat="43.56825" lon="2.92427">
        <ele>282</ele>
        <time>2014-01-18T09:53:32Z</time>
      </trkpt>
      <trkpt lat="43.56822" lon="2.92433">
        <ele>281.6</ele>
        <time>2014-01-18T09:53:33Z</time>
      </trkpt>
      <trkpt lat="43.56819" lon="2.9244">
        <ele>281</ele>
        <time>2014-01-18T09:53:34Z</time>
      </trkpt>
      <trkpt lat="43.56816" lon="2.92446">
        <ele>280.6</ele>
        <time>2014-01-18T09:53:35Z</time>
      </trkpt>
      <trkpt lat="43.56813" lon="2.92453">
        <ele>280.2</ele>
        <time>2014-01-18T09:53:36Z</time>
      </trkpt>
      <trkpt lat="43.56809" lon="2.9246">
        <ele>279.6</ele>
        <time>2014-01-18T09:53:37Z</time>
      </trkpt>
      <trkpt lat="43.56806" lon="2.92466">
        <ele>279.2</ele>
        <time>2014-01-18T09:53:38Z</time>
      </trkpt>
      <trkpt lat="43.56802" lon="2.92474">
        <ele>278.6</ele>
        <time>2014-01-18T09:53:39Z</time>
      </trkpt>
      <trkpt lat="43.568" lon="2.92481">
        <ele>278.2</ele>
        <time>2014-01-18T09:53:40Z</time>
      </trkpt>
      <trkpt lat="43.56797" lon="2.92489">
        <ele>277.6</ele>
        <time>2014-01-18T09:53:41Z</time>
      </trkpt>
      <trkpt lat="43.56796" lon="2.92499">
        <ele>277.6</ele>
        <time>2014-01-18T09:53:42Z</time>
      </trkpt>
      <trkpt lat="43.56795" lon="2.92519">
        <ele>277.2</ele>
        <time>2014-01-18T09:53:44Z</time>
      </trkpt>
      <trkpt lat="43.56797" lon="2.92529">
        <ele>276.6</ele>
        <time>2014-01-18T09:53:45Z</time>
      </trkpt>
      <trkpt lat="43.56801" lon="2.92537">
        <ele>276.2</ele>
        <time>2014-01-18T09:53:46Z</time>
      </trkpt>
      <trkpt lat="43.56806" lon="2.92544">
        <ele>275.6</ele>
        <time>2014-01-18T09:53:47Z</time>
      </trkpt>
      <trkpt lat="43.56814" lon="2.92547">
        <ele>275.2</ele>
        <time>2014-01-18T09:53:48Z</time>
      </trkpt>
      <trkpt lat="43.56821" lon="2.92546">
        <ele>274.6</ele>
        <time>2014-01-18T09:53:49Z</time>
      </trkpt>
      <trkpt lat="43.56828" lon="2.92543">
        <ele>274.2</ele>
        <time>2014-01-18T09:53:50Z</time>
      </trkpt>
      <trkpt lat="43.56836" lon="2.92536">
        <ele>273.6</ele>
        <time>2014-01-18T09:53:51Z</time>
      </trkpt>
      <trkpt lat="43.56841" lon="2.92526">
        <ele>272.6</ele>
        <time>2014-01-18T09:53:52Z</time>
      </trkpt>
      <trkpt lat="43.56842" lon="2.92515">
        <ele>272.2</ele>
        <time>2014-01-18T09:53:53Z</time>
      </trkpt>
      <trkpt lat="43.56844" lon="2.92503">
        <ele>271.6</ele>
        <time>2014-01-18T09:53:54Z</time>
      </trkpt>
      <trkpt lat="43.56846" lon="2.92492">
        <ele>271</ele>
        <time>2014-01-18T09:53:55Z</time>
      </trkpt>
      <trkpt lat="43.56849" lon="2.92481">
        <ele>270.4</ele>
        <time>2014-01-18T09:53:56Z</time>
      </trkpt>
      <trkpt lat="43.56853" lon="2.92473">
        <ele>269.6</ele>
        <time>2014-01-18T09:53:57Z</time>
      </trkpt>
      <trkpt lat="43.56858" lon="2.92466">
        <ele>268.8</ele>
        <time>2014-01-18T09:53:58Z</time>
      </trkpt>
      <trkpt lat="43.56863" lon="2.9246">
        <ele>268.2</ele>
        <time>2014-01-18T09:53:59Z</time>
      </trkpt>
      <trkpt lat="43.56869" lon="2.92457">
        <ele>267.4</ele>
        <time>2014-01-18T09:54:00Z</time>
      </trkpt>
      <trkpt lat="43.56875" lon="2.92458">
        <ele>266.6</ele>
        <time>2014-01-18T09:54:01Z</time>
      </trkpt>
      <trkpt lat="43.5688" lon="2.92465">
        <ele>265.8</ele>
        <time>2014-01-18T09:54:02Z</time>
      </trkpt>
      <trkpt lat="43.56884" lon="2.92473">
        <ele>265</ele>
        <time>2014-01-18T09:54:03Z</time>
      </trkpt>
      <trkpt lat="43.5689" lon="2.92491">
        <ele>265</ele>
        <time>2014-01-18T09:54:05Z</time>
      </trkpt>
      <trkpt lat="43.56891" lon="2.925">
        <ele>265</ele>
        <time>2014-01-18T09:54:06Z</time>
      </trkpt>
      <trkpt lat="43.56892" lon="2.92516">
        <ele>265</ele>
        <time>2014-01-18T09:54:08Z</time>
      </trkpt>
      <trkpt lat="43.56892" lon="2.92524">
        <ele>265</ele>
        <time>2014-01-18T09:54:09Z</time>
      </trkpt>
      <trkpt lat="43.56892" lon="2.92531">
        <ele>265</ele>
        <time>2014-01-18T09:54:10Z</time>
      </trkpt>
      <trkpt lat="43.56889" lon="2.92553">
        <ele>265</ele>
        <time>2014-01-18T09:54:14Z</time>
      </trkpt>
      <trkpt lat="43.56881" lon="2.92566">
        <ele>265.4</ele>
        <time>2014-01-18T09:54:18Z</time>
      </trkpt>
      <trkpt lat="43.56879" lon="2.92569">
        <ele>265.8</ele>
        <time>2014-01-18T09:54:19Z</time>
      </trkpt>
      <trkpt lat="43.56877" lon="2.92572">
        <ele>266.2</ele>
        <time>2014-01-18T09:54:20Z</time>
      </trkpt>
      <trkpt lat="43.56874" lon="2.92575">
        <ele>266.6</ele>
        <time>2014-01-18T09:54:21Z</time>
      </trkpt>
      <trkpt lat="43.56872" lon="2.92578">
        <ele>267</ele>
        <time>2014-01-18T09:54:22Z</time>
      </trkpt>
      <trkpt lat="43.56865" lon="2.92583">
        <ele>267</ele>
        <time>2014-01-18T09:54:25Z</time>
      </trkpt>
      <trkpt lat="43.56862" lon="2.92587">
        <ele>267.6</ele>
        <time>2014-01-18T09:54:27Z</time>
      </trkpt>
      <trkpt lat="43.5686" lon="2.92589">
        <ele>268</ele>
        <time>2014-01-18T09:54:28Z</time>
      </trkpt>
      <trkpt lat="43.56858" lon="2.92591">
        <ele>268.4</ele>
        <time>2014-01-18T09:54:29Z</time>
      </trkpt>
      <trkpt lat="43.56856" lon="2.92594">
        <ele>268.8</ele>
        <time>2014-01-18T09:54:30Z</time>
      </trkpt>
      <trkpt lat="43.56852" lon="2.92598">
        <ele>269.2</ele>
        <time>2014-01-18T09:54:31Z</time>
      </trkpt>
      <trkpt lat="43.56848" lon="2.92602">
        <ele>269.2</ele>
        <time>2014-01-18T09:54:32Z</time>
      </trkpt>
      <trkpt lat="43.56833" lon="2.92617">
        <ele>268.6</ele>
        <time>2014-01-18T09:54:35Z</time>
      </trkpt>
      <trkpt lat="43.56827" lon="2.92623">
        <ele>268.2</ele>
        <time>2014-01-18T09:54:36Z</time>
      </trkpt>
      <trkpt lat="43.5682" lon="2.92628">
        <ele>267.8</ele>
        <time>2014-01-18T09:54:37Z</time>
      </trkpt>
      <trkpt lat="43.56813" lon="2.92634">
        <ele>267</ele>
        <time>2014-01-18T09:54:38Z</time>
      </trkpt>
      <trkpt lat="43.56806" lon="2.92641">
        <ele>266.4</ele>
        <time>2014-01-18T09:54:39Z</time>
      </trkpt>
      <trkpt lat="43.56799" lon="2.92648">
        <ele>265.6</ele>
        <time>2014-01-18T09:54:40Z</time>
      </trkpt>
      <trkpt lat="43.56791" lon="2.92655">
        <ele>264.2</ele>
        <time>2014-01-18T09:54:41Z</time>
      </trkpt>
      <trkpt lat="43.56784" lon="2.92663">
        <ele>263.4</ele>
        <time>2014-01-18T09:54:42Z</time>
      </trkpt>
      <trkpt lat="43.56776" lon="2.92671">
        <ele>262.6</ele>
        <time>2014-01-18T09:54:43Z</time>
      </trkpt>
      <trkpt lat="43.56768" lon="2.92679">
        <ele>261.8</ele>
        <time>2014-01-18T09:54:44Z</time>
      </trkpt>
      <trkpt lat="43.56759" lon="2.92687">
        <ele>261</ele>
        <time>2014-01-18T09:54:45Z</time>
      </trkpt>
      <trkpt lat="43.56753" lon="2.92697">
        <ele>260.2</ele>
        <time>2014-01-18T09:54:46Z</time>
      </trkpt>
      <trkpt lat="43.56749" lon="2.9271">
        <ele>259.2</ele>
        <time>2014-01-18T09:54:47Z</time>
      </trkpt>
      <trkpt lat="43.56745" lon="2.92723">
        <ele>258</ele>
        <time>2014-01-18T09:54:48Z</time>
      </trkpt>
      <trkpt lat="43.56741" lon="2.92736">
        <ele>257</ele>
        <time>2014-01-18T09:54:49Z</time>
      </trkpt>
      <trkpt lat="43.56738" lon="2.92749">
        <ele>255.8</ele>
        <time>2014-01-18T09:54:50Z</time>
      </trkpt>
      <trkpt lat="43.56739" lon="2.92763">
        <ele>254.8</ele>
        <time>2014-01-18T09:54:51Z</time>
      </trkpt>
      <trkpt lat="43.56744" lon="2.92776">
        <ele>253.8</ele>
        <time>2014-01-18T09:54:52Z</time>
      </trkpt>
      <trkpt lat="43.56749" lon="2.92787">
        <ele>252.8</ele>
        <time>2014-01-18T09:54:53Z</time>
      </trkpt>
      <trkpt lat="43.56751" lon="2.928">
        <ele>251.6</ele>
        <time>2014-01-18T09:54:54Z</time>
      </trkpt>
      <trkpt lat="43.56748" lon="2.92812">
        <ele>250.6</ele>
        <time>2014-01-18T09:54:55Z</time>
      </trkpt>
      <trkpt lat="43.56744" lon="2.92821">
        <ele>249.6</ele>
        <time>2014-01-18T09:54:56Z</time>
      </trkpt>
      <trkpt lat="43.5674" lon="2.92831">
        <ele>248.6</ele>
        <time>2014-01-18T09:54:57Z</time>
      </trkpt>
      <trkpt lat="43.56737" lon="2.9284">
        <ele>248.6</ele>
        <time>2014-01-18T09:54:58Z</time>
      </trkpt>
      <trkpt lat="43.56734" lon="2.92847">
        <ele>249</ele>
        <time>2014-01-18T09:54:59Z</time>
      </trkpt>
      <trkpt lat="43.56731" lon="2.92854">
        <ele>249.4</ele>
        <time>2014-01-18T09:55:00Z</time>
      </trkpt>
      <trkpt lat="43.56727" lon="2.92861">
        <ele>249.8</ele>
        <time>2014-01-18T09:55:01Z</time>
      </trkpt>
      <trkpt lat="43.56723" lon="2.92868">
        <ele>250.2</ele>
        <time>2014-01-18T09:55:02Z</time>
      </trkpt>
      <trkpt lat="43.56719" lon="2.92876">
        <ele>250.6</ele>
        <time>2014-01-18T09:55:03Z</time>
      </trkpt>
      <trkpt lat="43.56709" lon="2.92891">
        <ele>250.6</ele>
        <time>2014-01-18T09:55:05Z</time>
      </trkpt>
      <trkpt lat="43.56699" lon="2.92906">
        <ele>250.6</ele>
        <time>2014-01-18T09:55:07Z</time>
      </trkpt>
      <trkpt lat="43.56694" lon="2.92914">
        <ele>250.6</ele>
        <time>2014-01-18T09:55:08Z</time>
      </trkpt>
      <trkpt lat="43.56691" lon="2.92924">
        <ele>250</ele>
        <time>2014-01-18T09:55:09Z</time>
      </trkpt>
      <trkpt lat="43.56688" lon="2.92934">
        <ele>249.6</ele>
        <time>2014-01-18T09:55:10Z</time>
      </trkpt>
      <trkpt lat="43.56683" lon="2.92943">
        <ele>249.2</ele>
        <time>2014-01-18T09:55:11Z</time>
      </trkpt>
      <trkpt lat="43.56678" lon="2.92951">
        <ele>248.6</ele>
        <time>2014-01-18T09:55:12Z</time>
      </trkpt>
      <trkpt lat="43.56671" lon="2.92958">
        <ele>248.2</ele>
        <time>2014-01-18T09:55:13Z</time>
      </trkpt>
      <trkpt lat="43.56665" lon="2.92965">
        <ele>247.8</ele>
        <time>2014-01-18T09:55:14Z</time>
      </trkpt>
      <trkpt lat="43.56659" lon="2.92974">
        <ele>247.2</ele>
        <time>2014-01-18T09:55:15Z</time>
      </trkpt>
      <trkpt lat="43.56652" lon="2.92982">
        <ele>246.8</ele>
        <time>2014-01-18T09:55:16Z</time>
      </trkpt>
      <trkpt lat="43.56646" lon="2.9299">
        <ele>246.4</ele>
        <time>2014-01-18T09:55:17Z</time>
      </trkpt>
      <trkpt lat="43.56642" lon="2.92999">
        <ele>245.8</ele>
        <time>2014-01-18T09:55:18Z</time>
      </trkpt>
      <trkpt lat="43.56638" lon="2.93009">
        <ele>245.2</ele>
        <time>2014-01-18T09:55:19Z</time>
      </trkpt>
      <trkpt lat="43.56637" lon="2.93018">
        <ele>244.6</ele>
        <time>2014-01-18T09:55:20Z</time>
      </trkpt>
      <trkpt lat="43.56635" lon="2.93028">
        <ele>244</ele>
        <time>2014-01-18T09:55:21Z</time>
      </trkpt>
      <trkpt lat="43.56634" lon="2.93038">
        <ele>243.4</ele>
        <time>2014-01-18T09:55:22Z</time>
      </trkpt>
      <trkpt lat="43.56634" lon="2.93047">
        <ele>243</ele>
        <time>2014-01-18T09:55:23Z</time>
      </trkpt>
      <trkpt lat="43.56633" lon="2.93057">
        <ele>242.4</ele>
        <time>2014-01-18T09:55:24Z</time>
      </trkpt>
      <trkpt lat="43.56631" lon="2.93067">
        <ele>241.6</ele>
        <time>2014-01-18T09:55:25Z</time>
      </trkpt>
      <trkpt lat="43.56628" lon="2.93077">
        <ele>241</ele>
        <time>2014-01-18T09:55:26Z</time>
      </trkpt>
      <trkpt lat="43.56626" lon="2.93086">
        <ele>240.2</ele>
        <time>2014-01-18T09:55:27Z</time>
      </trkpt>
      <trkpt lat="43.56623" lon="2.93096">
        <ele>239.6</ele>
        <time>2014-01-18T09:55:28Z</time>
      </trkpt>
      <trkpt lat="43.5662" lon="2.93107">
        <ele>239</ele>
        <time>2014-01-18T09:55:29Z</time>
      </trkpt>
      <trkpt lat="43.56616" lon="2.93119">
        <ele>237.6</ele>
        <time>2014-01-18T09:55:30Z</time>
      </trkpt>
      <trkpt lat="43.56614" lon="2.9313">
        <ele>237</ele>
        <time>2014-01-18T09:55:31Z</time>
      </trkpt>
      <trkpt lat="43.56612" lon="2.93141">
        <ele>236.2</ele>
        <time>2014-01-18T09:55:32Z</time>
      </trkpt>
      <trkpt lat="43.5661" lon="2.93153">
        <ele>235.6</ele>
        <time>2014-01-18T09:55:33Z</time>
      </trkpt>
      <trkpt lat="43.56607" lon="2.93165">
        <ele>235</ele>
        <time>2014-01-18T09:55:34Z</time>
      </trkpt>
      <trkpt lat="43.56604" lon="2.93178">
        <ele>234.4</ele>
        <time>2014-01-18T09:55:35Z</time>
      </trkpt>
      <trkpt lat="43.56602" lon="2.93189">
        <ele>233.8</ele>
        <time>2014-01-18T09:55:36Z</time>
      </trkpt>
      <trkpt lat="43.56599" lon="2.932">
        <ele>233.2</ele>
        <time>2014-01-18T09:55:37Z</time>
      </trkpt>
      <trkpt lat="43.56597" lon="2.93213">
        <ele>232.6</ele>
        <time>2014-01-18T09:55:38Z</time>
      </trkpt>
      <trkpt lat="43.56594" lon="2.93225">
        <ele>231.8</ele>
        <time>2014-01-18T09:55:39Z</time>
      </trkpt>
      <trkpt lat="43.56591" lon="2.93236">
        <ele>231</ele>
        <time>2014-01-18T09:55:40Z</time>
      </trkpt>
      <trkpt lat="43.56588" lon="2.93247">
        <ele>230.4</ele>
        <time>2014-01-18T09:55:41Z</time>
      </trkpt>
      <trkpt lat="43.56583" lon="2.93257">
        <ele>229.6</ele>
        <time>2014-01-18T09:55:42Z</time>
      </trkpt>
      <trkpt lat="43.56576" lon="2.93265">
        <ele>228.8</ele>
        <time>2014-01-18T09:55:43Z</time>
      </trkpt>
      <trkpt lat="43.56568" lon="2.93271">
        <ele>228</ele>
        <time>2014-01-18T09:55:44Z</time>
      </trkpt>
      <trkpt lat="43.56559" lon="2.93278">
        <ele>227.2</ele>
        <time>2014-01-18T09:55:45Z</time>
      </trkpt>
      <trkpt lat="43.5655" lon="2.93283">
        <ele>226.6</ele>
        <time>2014-01-18T09:55:46Z</time>
      </trkpt>
      <trkpt lat="43.56542" lon="2.93288">
        <ele>225.8</ele>
        <time>2014-01-18T09:55:47Z</time>
      </trkpt>
      <trkpt lat="43.56533" lon="2.93293">
        <ele>225</ele>
        <time>2014-01-18T09:55:48Z</time>
      </trkpt>
      <trkpt lat="43.56523" lon="2.93295">
        <ele>224.2</ele>
        <time>2014-01-18T09:55:49Z</time>
      </trkpt>
      <trkpt lat="43.56514" lon="2.93295">
        <ele>223.8</ele>
        <time>2014-01-18T09:55:50Z</time>
      </trkpt>
      <trkpt lat="43.56505" lon="2.93294">
        <ele>223.4</ele>
        <time>2014-01-18T09:55:51Z</time>
      </trkpt>
      <trkpt lat="43.56495" lon="2.93292">
        <ele>222.8</ele>
        <time>2014-01-18T09:55:52Z</time>
      </trkpt>
      <trkpt lat="43.56485" lon="2.93289">
        <ele>222.4</ele>
        <time>2014-01-18T09:55:53Z</time>
      </trkpt>
      <trkpt lat="43.56475" lon="2.93285">
        <ele>221.8</ele>
        <time>2014-01-18T09:55:54Z</time>
      </trkpt>
      <trkpt lat="43.56465" lon="2.93281">
        <ele>221</ele>
        <time>2014-01-18T09:55:55Z</time>
      </trkpt>
      <trkpt lat="43.56455" lon="2.93278">
        <ele>220.4</ele>
        <time>2014-01-18T09:55:56Z</time>
      </trkpt>
      <trkpt lat="43.56444" lon="2.93279">
        <ele>220</ele>
        <time>2014-01-18T09:55:57Z</time>
      </trkpt>
      <trkpt lat="43.56433" lon="2.93284">
        <ele>219.2</ele>
        <time>2014-01-18T09:55:58Z</time>
      </trkpt>
      <trkpt lat="43.56423" lon="2.9329">
        <ele>218.6</ele>
        <time>2014-01-18T09:55:59Z</time>
      </trkpt>
      <trkpt lat="43.56414" lon="2.93297">
        <ele>217.8</ele>
        <time>2014-01-18T09:56:00Z</time>
      </trkpt>
      <trkpt lat="43.56405" lon="2.93306">
        <ele>217</ele>
        <time>2014-01-18T09:56:01Z</time>
      </trkpt>
      <trkpt lat="43.56398" lon="2.93316">
        <ele>216.2</ele>
        <time>2014-01-18T09:56:02Z</time>
      </trkpt>
      <trkpt lat="43.56393" lon="2.93327">
        <ele>215.4</ele>
        <time>2014-01-18T09:56:03Z</time>
      </trkpt>
      <trkpt lat="43.56388" lon="2.93338">
        <ele>214.8</ele>
        <time>2014-01-18T09:56:04Z</time>
      </trkpt>
      <trkpt lat="43.56384" lon="2.93349">
        <ele>214</ele>
        <time>2014-01-18T09:56:05Z</time>
      </trkpt>
      <trkpt lat="43.5638" lon="2.93361">
        <ele>213.4</ele>
        <time>2014-01-18T09:56:06Z</time>
      </trkpt>
      <trkpt lat="43.56378" lon="2.93372">
        <ele>212.8</ele>
        <time>2014-01-18T09:56:07Z</time>
      </trkpt>
      <trkpt lat="43.56376" lon="2.93384">
        <ele>212.2</ele>
        <time>2014-01-18T09:56:08Z</time>
      </trkpt>
      <trkpt lat="43.56373" lon="2.93396">
        <ele>212.2</ele>
        <time>2014-01-18T09:56:09Z</time>
      </trkpt>
      <trkpt lat="43.56373" lon="2.93405">
        <ele>205.8</ele>
        <time>2014-01-18T10:08:14Z</time>
      </trkpt>
      <trkpt lat="43.56372" lon="2.93407">
        <ele>205.4</ele>
        <time>2014-01-18T10:08:15Z</time>
      </trkpt>
      <trkpt lat="43.56371" lon="2.9341">
        <ele>205</ele>
        <time>2014-01-18T10:08:16Z</time>
      </trkpt>
      <trkpt lat="43.56371" lon="2.93412">
        <ele>204.4</ele>
        <time>2014-01-18T10:08:17Z</time>
      </trkpt>
      <trkpt lat="43.5637" lon="2.93415">
        <ele>204</ele>
        <time>2014-01-18T10:08:18Z</time>
      </trkpt>
      <trkpt lat="43.5637" lon="2.93419">
        <ele>203.6</ele>
        <time>2014-01-18T10:08:20Z</time>
      </trkpt>
      <trkpt lat="43.56371" lon="2.93421">
        <ele>203.2</ele>
        <time>2014-01-18T10:08:21Z</time>
      </trkpt>
      <trkpt lat="43.56372" lon="2.93423">
        <ele>202.6</ele>
        <time>2014-01-18T10:08:22Z</time>
      </trkpt>
      <trkpt lat="43.56372" lon="2.93424">
        <ele>202.2</ele>
        <time>2014-01-18T10:08:23Z</time>
      </trkpt>
      <trkpt lat="43.56373" lon="2.93426">
        <ele>201.8</ele>
        <time>2014-01-18T10:08:24Z</time>
      </trkpt>
      <trkpt lat="43.56376" lon="2.93432">
        <ele>201.4</ele>
        <time>2014-01-18T10:08:27Z</time>
      </trkpt>
      <trkpt lat="43.56376" lon="2.93434">
        <ele>201.4</ele>
        <time>2014-01-18T10:08:28Z</time>
      </trkpt>
      <trkpt lat="43.56377" lon="2.93436">
        <ele>201</ele>
        <time>2014-01-18T10:08:29Z</time>
      </trkpt>
      <trkpt lat="43.56377" lon="2.93437">
        <ele>200.6</ele>
        <time>2014-01-18T10:08:30Z</time>
      </trkpt>
      <trkpt lat="43.56377" lon="2.93439">
        <ele>200.2</ele>
        <time>2014-01-18T10:08:31Z</time>
      </trkpt>
      <trkpt lat="43.56377" lon="2.9344">
        <ele>199.8</ele>
        <time>2014-01-18T10:08:32Z</time>
      </trkpt>
      <trkpt lat="43.56374" lon="2.93445">
        <ele>199.4</ele>
        <time>2014-01-18T10:08:35Z</time>
      </trkpt>
      <trkpt lat="43.56373" lon="2.93447">
        <ele>198.8</ele>
        <time>2014-01-18T10:08:36Z</time>
      </trkpt>
      <trkpt lat="43.56373" lon="2.93448">
        <ele>198.4</ele>
        <time>2014-01-18T10:08:37Z</time>
      </trkpt>
      <trkpt lat="43.56371" lon="2.9345">
        <ele>198</ele>
        <time>2014-01-18T10:08:38Z</time>
      </trkpt>
      <trkpt lat="43.5637" lon="2.93452">
        <ele>197.6</ele>
        <time>2014-01-18T10:08:39Z</time>
      </trkpt>
      <trkpt lat="43.56365" lon="2.93458">
        <ele>197.2</ele>
        <time>2014-01-18T10:08:44Z</time>
      </trkpt>
      <trkpt lat="43.56364" lon="2.93459">
        <ele>196.8</ele>
        <time>2014-01-18T10:08:45Z</time>
      </trkpt>
      <trkpt lat="43.56362" lon="2.93461">
        <ele>196.4</ele>
        <time>2014-01-18T10:08:46Z</time>
      </trkpt>
      <trkpt lat="43.56361" lon="2.93462">
        <ele>196</ele>
        <time>2014-01-18T10:08:47Z</time>
      </trkpt>
      <trkpt lat="43.5636" lon="2.93463">
        <ele>195.4</ele>
        <time>2014-01-18T10:08:48Z</time>
      </trkpt>
      <trkpt lat="43.56355" lon="2.93466">
        <ele>195</ele>
        <time>2014-01-18T10:08:51Z</time>
      </trkpt>
      <trkpt lat="43.56353" lon="2.93468">
        <ele>195</ele>
        <time>2014-01-18T10:08:53Z</time>
      </trkpt>
      <trkpt lat="43.56352" lon="2.93469">
        <ele>194.6</ele>
        <time>2014-01-18T10:08:54Z</time>
      </trkpt>
      <trkpt lat="43.5635" lon="2.9347">
        <ele>194.2</ele>
        <time>2014-01-18T10:08:55Z</time>
      </trkpt>
      <trkpt lat="43.56348" lon="2.93471">
        <ele>193.8</ele>
        <time>2014-01-18T10:08:56Z</time>
      </trkpt>
      <trkpt lat="43.56347" lon="2.93471">
        <ele>193.4</ele>
        <time>2014-01-18T10:08:57Z</time>
      </trkpt>
      <trkpt lat="43.56344" lon="2.93472">
        <ele>193</ele>
        <time>2014-01-18T10:08:59Z</time>
      </trkpt>
      <trkpt lat="43.56342" lon="2.93472">
        <ele>192.6</ele>
        <time>2014-01-18T10:09:00Z</time>
      </trkpt>
      <trkpt lat="43.5634" lon="2.93472">
        <ele>192.2</ele>
        <time>2014-01-18T10:09:01Z</time>
      </trkpt>
      <trkpt lat="43.56338" lon="2.93472">
        <ele>191.8</ele>
        <time>2014-01-18T10:09:02Z</time>
      </trkpt>
      <trkpt lat="43.56337" lon="2.93472">
        <ele>191.4</ele>
        <time>2014-01-18T10:09:03Z</time>
      </trkpt>
      <trkpt lat="43.56334" lon="2.93474">
        <ele>190.8</ele>
        <time>2014-01-18T10:09:06Z</time>
      </trkpt>
      <trkpt lat="43.56333" lon="2.93475">
        <ele>190.8</ele>
        <time>2014-01-18T10:09:07Z</time>
      </trkpt>
      <trkpt lat="43.56331" lon="2.93476">
        <ele>190.8</ele>
        <time>2014-01-18T10:09:08Z</time>
      </trkpt>
      <trkpt lat="43.56329" lon="2.93476">
        <ele>190.4</ele>
        <time>2014-01-18T10:09:09Z</time>
      </trkpt>
      <trkpt lat="43.56328" lon="2.93476">
        <ele>190</ele>
        <time>2014-01-18T10:09:10Z</time>
      </trkpt>
      <trkpt lat="43.56326" lon="2.93477">
        <ele>189.6</ele>
        <time>2014-01-18T10:09:11Z</time>
      </trkpt>
      <trkpt lat="43.56324" lon="2.93478">
        <ele>189.2</ele>
        <time>2014-01-18T10:09:12Z</time>
      </trkpt>
      <trkpt lat="43.56323" lon="2.93479">
        <ele>188.8</ele>
        <time>2014-01-18T10:09:13Z</time>
      </trkpt>
      <trkpt lat="43.56323" lon="2.93483">
        <ele>188.8</ele>
        <time>2014-01-18T10:09:15Z</time>
      </trkpt>
      <trkpt lat="43.56324" lon="2.93485">
        <ele>188.2</ele>
        <time>2014-01-18T10:09:16Z</time>
      </trkpt>
      <trkpt lat="43.56326" lon="2.93487">
        <ele>187.8</ele>
        <time>2014-01-18T10:09:17Z</time>
      </trkpt>
      <trkpt lat="43.56327" lon="2.93489">
        <ele>187.4</ele>
        <time>2014-01-18T10:09:18Z</time>
      </trkpt>
      <trkpt lat="43.56329" lon="2.9349">
        <ele>186.8</ele>
        <time>2014-01-18T10:09:19Z</time>
      </trkpt>
      <trkpt lat="43.56333" lon="2.93494">
        <ele>186.4</ele>
        <time>2014-01-18T10:09:21Z</time>
      </trkpt>
      <trkpt lat="43.56335" lon="2.93495">
        <ele>186</ele>
        <time>2014-01-18T10:09:22Z</time>
      </trkpt>
      <trkpt lat="43.56337" lon="2.93496">
        <ele>185.6</ele>
        <time>2014-01-18T10:09:23Z</time>
      </trkpt>
      <trkpt lat="43.56339" lon="2.93498">
        <ele>184.8</ele>
        <time>2014-01-18T10:09:24Z</time>
      </trkpt>
      <trkpt lat="43.56341" lon="2.93499">
        <ele>184.4</ele>
        <time>2014-01-18T10:09:25Z</time>
      </trkpt>
      <trkpt lat="43.56342" lon="2.93501">
        <ele>184</ele>
        <time>2014-01-18T10:09:26Z</time>
      </trkpt>
      <trkpt lat="43.56344" lon="2.93502">
        <ele>183.6</ele>
        <time>2014-01-18T10:09:27Z</time>
      </trkpt>
      <trkpt lat="43.56346" lon="2.93504">
        <ele>183.2</ele>
        <time>2014-01-18T10:09:28Z</time>
      </trkpt>
      <trkpt lat="43.56348" lon="2.93506">
        <ele>182.6</ele>
        <time>2014-01-18T10:09:29Z</time>
      </trkpt>
      <trkpt lat="43.56349" lon="2.93507">
        <ele>182.2</ele>
        <time>2014-01-18T10:09:30Z</time>
      </trkpt>
      <trkpt lat="43.56358" lon="2.93517">
        <ele>182.2</ele>
        <time>2014-01-18T10:09:34Z</time>
      </trkpt>
      <trkpt lat="43.5636" lon="2.9352">
        <ele>182.2</ele>
        <time>2014-01-18T10:09:36Z</time>
      </trkpt>
      <trkpt lat="43.56361" lon="2.93521">
        <ele>181.8</ele>
        <time>2014-01-18T10:09:37Z</time>
      </trkpt>
      <trkpt lat="43.56362" lon="2.93521">
        <ele>181.4</ele>
        <time>2014-01-18T10:09:38Z</time>
      </trkpt>
      <trkpt lat="43.56364" lon="2.93523">
        <ele>181</ele>
        <time>2014-01-18T10:09:39Z</time>
      </trkpt>
      <trkpt lat="43.56365" lon="2.93524">
        <ele>180.6</ele>
        <time>2014-01-18T10:09:40Z</time>
      </trkpt>
      <trkpt lat="43.56366" lon="2.93525">
        <ele>180.2</ele>
        <time>2014-01-18T10:09:41Z</time>
      </trkpt>
      <trkpt lat="43.5637" lon="2.93531">
        <ele>180.2</ele>
        <time>2014-01-18T10:09:44Z</time>
      </trkpt>
      <trkpt lat="43.56376" lon="2.93538">
        <ele>180.2</ele>
        <time>2014-01-18T10:09:48Z</time>
      </trkpt>
      <trkpt lat="43.56377" lon="2.9354">
        <ele>179.8</ele>
        <time>2014-01-18T10:09:49Z</time>
      </trkpt>
      <trkpt lat="43.56378" lon="2.93542">
        <ele>179.4</ele>
        <time>2014-01-18T10:09:50Z</time>
      </trkpt>
      <trkpt lat="43.56379" lon="2.93544">
        <ele>179</ele>
        <time>2014-01-18T10:09:51Z</time>
      </trkpt>
      <trkpt lat="43.5638" lon="2.93545">
        <ele>178.6</ele>
        <time>2014-01-18T10:09:52Z</time>
      </trkpt>
      <trkpt lat="43.56381" lon="2.93548">
        <ele>178.2</ele>
        <time>2014-01-18T10:09:54Z</time>
      </trkpt>
      <trkpt lat="43.56382" lon="2.93549">
        <ele>178.2</ele>
        <time>2014-01-18T10:09:55Z</time>
      </trkpt>
      <trkpt lat="43.56383" lon="2.9355">
        <ele>178.2</ele>
        <time>2014-01-18T10:09:58Z</time>
      </trkpt>
      <trkpt lat="43.56384" lon="2.9355">
        <ele>178.2</ele>
        <time>2014-01-18T10:10:00Z</time>
      </trkpt>
      <trkpt lat="43.56385" lon="2.9355">
        <ele>178.2</ele>
        <time>2014-01-18T10:12:15Z</time>
      </trkpt>
      <trkpt lat="43.56386" lon="2.9355">
        <ele>178.2</ele>
        <time>2014-01-18T10:12:16Z</time>
      </trkpt>
      <trkpt lat="43.56387" lon="2.9355">
        <ele>178.2</ele>
        <time>2014-01-18T10:12:18Z</time>
      </trkpt>
      <trkpt lat="43.56389" lon="2.93561">
        <ele>178.2</ele>
        <time>2014-01-18T10:12:23Z</time>
      </trkpt>
      <trkpt lat="43.56393" lon="2.93568">
        <ele>178.2</ele>
        <time>2014-01-18T10:12:29Z</time>
      </trkpt>
      <trkpt lat="43.56397" lon="2.93573">
        <ele>178.2</ele>
        <time>2014-01-18T10:12:33Z</time>
      </trkpt>
      <trkpt lat="43.56408" lon="2.9359">
        <ele>178.2</ele>
        <time>2014-01-18T10:12:38Z</time>
      </trkpt>
      <trkpt lat="43.56413" lon="2.93597">
        <ele>178.2</ele>
        <time>2014-01-18T10:12:40Z</time>
      </trkpt>
      <trkpt lat="43.56422" lon="2.93611">
        <ele>178.2</ele>
        <time>2014-01-18T10:12:43Z</time>
      </trkpt>
      <trkpt lat="43.56426" lon="2.93634">
        <ele>178.2</ele>
        <time>2014-01-18T10:12:47Z</time>
      </trkpt>
      <trkpt lat="43.56431" lon="2.93642">
        <ele>178.2</ele>
        <time>2014-01-18T10:12:50Z</time>
      </trkpt>
      <trkpt lat="43.56432" lon="2.93642">
        <ele>178.2</ele>
        <time>2014-01-18T10:12:51Z</time>
      </trkpt>
      <trkpt lat="43.56434" lon="2.93648">
        <ele>178.2</ele>
        <time>2014-01-18T10:12:54Z</time>
      </trkpt>
      <trkpt lat="43.56449" lon="2.93682">
        <ele>178.2</ele>
        <time>2014-01-18T10:13:01Z</time>
      </trkpt>
      <trkpt lat="43.56456" lon="2.93699">
        <ele>178.2</ele>
        <time>2014-01-18T10:13:04Z</time>
      </trkpt>
      <trkpt lat="43.56461" lon="2.93716">
        <ele>178.2</ele>
        <time>2014-01-18T10:13:07Z</time>
      </trkpt>
      <trkpt lat="43.56468" lon="2.93742">
        <ele>178.2</ele>
        <time>2014-01-18T10:13:12Z</time>
      </trkpt>
      <trkpt lat="43.5647" lon="2.93748">
        <ele>178.2</ele>
        <time>2014-01-18T10:13:13Z</time>
      </trkpt>
      <trkpt lat="43.56475" lon="2.93771">
        <ele>178.2</ele>
        <time>2014-01-18T10:13:18Z</time>
      </trkpt>
      <trkpt lat="43.56477" lon="2.93785">
        <ele>178.2</ele>
        <time>2014-01-18T10:13:22Z</time>
      </trkpt>
      <trkpt lat="43.56478" lon="2.93787">
        <ele>178.2</ele>
        <time>2014-01-18T10:13:23Z</time>
      </trkpt>
      <trkpt lat="43.56479" lon="2.9379">
        <ele>178.2</ele>
        <time>2014-01-18T10:13:25Z</time>
      </trkpt>
      <trkpt lat="43.56479" lon="2.9379">
        <ele>178.2</ele>
        <time>2014-01-18T10:13:28Z</time>
      </trkpt>
      <trkpt lat="43.56479" lon="2.93792">
        <ele>178.2</ele>
        <time>2014-01-18T10:13:30Z</time>
      </trkpt>
      <trkpt lat="43.56481" lon="2.93797">
        <ele>178.2</ele>
        <time>2014-01-18T10:13:34Z</time>
      </trkpt>
      <trkpt lat="43.56481" lon="2.93798">
        <ele>178.2</ele>
        <time>2014-01-18T10:13:36Z</time>
      </trkpt>
      <trkpt lat="43.56482" lon="2.93802">
        <ele>178.2</ele>
        <time>2014-01-18T10:13:40Z</time>
      </trkpt>
      <trkpt lat="43.56486" lon="2.93827">
        <ele>178.2</ele>
        <time>2014-01-18T10:13:45Z</time>
      </trkpt>
      <trkpt lat="43.56493" lon="2.93874">
        <ele>178.2</ele>
        <time>2014-01-18T10:13:52Z</time>
      </trkpt>
      <trkpt lat="43.56504" lon="2.93932">
        <ele>178.2</ele>
        <time>2014-01-18T10:14:00Z</time>
      </trkpt>
      <trkpt lat="43.56518" lon="2.93982">
        <ele>178.2</ele>
        <time>2014-01-18T10:14:07Z</time>
      </trkpt>
      <trkpt lat="43.56527" lon="2.94016">
        <ele>178.2</ele>
        <time>2014-01-18T10:14:12Z</time>
      </trkpt>
      <trkpt lat="43.56531" lon="2.94029">
        <ele>178.2</ele>
        <time>2014-01-18T10:14:14Z</time>
      </trkpt>
      <trkpt lat="43.56536" lon="2.9405">
        <ele>178.2</ele>
        <time>2014-01-18T10:14:17Z</time>
      </trkpt>
      <trkpt lat="43.56542" lon="2.94076">
        <ele>178.2</ele>
        <time>2014-01-18T10:14:21Z</time>
      </trkpt>
      <trkpt lat="43.56543" lon="2.94083">
        <ele>178.2</ele>
        <time>2014-01-18T10:14:22Z</time>
      </trkpt>
      <trkpt lat="43.56545" lon="2.9409">
        <ele>178.2</ele>
        <time>2014-01-18T10:14:23Z</time>
      </trkpt>
      <trkpt lat="43.56554" lon="2.94142">
        <ele>178.2</ele>
        <time>2014-01-18T10:14:30Z</time>
      </trkpt>
      <trkpt lat="43.56555" lon="2.9415">
        <ele>178.2</ele>
        <time>2014-01-18T10:14:31Z</time>
      </trkpt>
      <trkpt lat="43.56552" lon="2.94157">
        <ele>177.6</ele>
        <time>2014-01-18T06:00:16Z</time>
      </trkpt>
      <trkpt lat="43.56558" lon="2.94161">
        <ele>177.6</ele>
        <time>2014-01-18T06:00:18Z</time>
      </trkpt>
      <trkpt lat="43.56562" lon="2.94163">
        <ele>177.6</ele>
        <time>2014-01-18T06:00:20Z</time>
      </trkpt>
      <trkpt lat="43.56573" lon="2.94171">
        <ele>177.6</ele>
        <time>2014-01-18T06:00:25Z</time>
      </trkpt>
      <trkpt lat="43.56576" lon="2.94174">
        <ele>178.2</ele>
        <time>2014-01-18T06:00:27Z</time>
      </trkpt>
      <trkpt lat="43.56577" lon="2.94176">
        <ele>178.6</ele>
        <time>2014-01-18T06:00:28Z</time>
      </trkpt>
      <trkpt lat="43.56579" lon="2.94177">
        <ele>179</ele>
        <time>2014-01-18T06:00:29Z</time>
      </trkpt>
      <trkpt lat="43.5658" lon="2.94179">
        <ele>179.4</ele>
        <time>2014-01-18T06:00:30Z</time>
      </trkpt>
      <trkpt lat="43.56581" lon="2.94182">
        <ele>179.8</ele>
        <time>2014-01-18T06:00:31Z</time>
      </trkpt>
      <trkpt lat="43.56578" lon="2.94188">
        <ele>179.8</ele>
        <time>2014-01-18T06:00:34Z</time>
      </trkpt>
      <trkpt lat="43.56577" lon="2.9419">
        <ele>180.4</ele>
        <time>2014-01-18T06:00:35Z</time>
      </trkpt>
      <trkpt lat="43.56576" lon="2.94192">
        <ele>180.8</ele>
        <time>2014-01-18T06:00:36Z</time>
      </trkpt>
      <trkpt lat="43.56575" lon="2.94194">
        <ele>181.2</ele>
        <time>2014-01-18T06:00:37Z</time>
      </trkpt>
      <trkpt lat="43.56573" lon="2.94196">
        <ele>181.8</ele>
        <time>2014-01-18T06:00:38Z</time>
      </trkpt>
      <trkpt lat="43.56572" lon="2.94199">
        <ele>182.2</ele>
        <time>2014-01-18T06:00:39Z</time>
      </trkpt>
      <trkpt lat="43.56571" lon="2.94201">
        <ele>182.6</ele>
        <time>2014-01-18T06:00:40Z</time>
      </trkpt>
      <trkpt lat="43.5657" lon="2.94203">
        <ele>183.2</ele>
        <time>2014-01-18T06:00:41Z</time>
      </trkpt>
      <trkpt lat="43.5657" lon="2.94205">
        <ele>183.6</ele>
        <time>2014-01-18T06:00:42Z</time>
      </trkpt>
      <trkpt lat="43.5657" lon="2.94207">
        <ele>184.4</ele>
        <time>2014-01-18T06:00:43Z</time>
      </trkpt>
      <trkpt lat="43.56572" lon="2.94209">
        <ele>185</ele>
        <time>2014-01-18T06:00:45Z</time>
      </trkpt>
      <trkpt lat="43.56575" lon="2.94209">
        <ele>185.4</ele>
        <time>2014-01-18T06:00:46Z</time>
      </trkpt>
      <trkpt lat="43.56577" lon="2.94208">
        <ele>185.8</ele>
        <time>2014-01-18T06:00:47Z</time>
      </trkpt>
      <trkpt lat="43.5658" lon="2.94208">
        <ele>186.2</ele>
        <time>2014-01-18T06:00:48Z</time>
      </trkpt>
      <trkpt lat="43.56583" lon="2.94208">
        <ele>186.8</ele>
        <time>2014-01-18T06:00:49Z</time>
      </trkpt>
      <trkpt lat="43.56588" lon="2.94207">
        <ele>186.8</ele>
        <time>2014-01-18T06:00:51Z</time>
      </trkpt>
      <trkpt lat="43.566" lon="2.94208">
        <ele>186.8</ele>
        <time>2014-01-18T06:00:56Z</time>
      </trkpt>
      <trkpt lat="43.56612" lon="2.94207">
        <ele>186.8</ele>
        <time>2014-01-18T06:01:01Z</time>
      </trkpt>
      <trkpt lat="43.56616" lon="2.94206">
        <ele>187.2</ele>
        <time>2014-01-18T06:01:03Z</time>
      </trkpt>
      <trkpt lat="43.56618" lon="2.94206">
        <ele>187.6</ele>
        <time>2014-01-18T06:01:04Z</time>
      </trkpt>
      <trkpt lat="43.56621" lon="2.94205">
        <ele>188</ele>
        <time>2014-01-18T06:01:05Z</time>
      </trkpt>
      <trkpt lat="43.56623" lon="2.94205">
        <ele>188.6</ele>
        <time>2014-01-18T06:01:06Z</time>
      </trkpt>
      <trkpt lat="43.56625" lon="2.94205">
        <ele>189</ele>
        <time>2014-01-18T06:01:07Z</time>
      </trkpt>
      <trkpt lat="43.56638" lon="2.94207">
        <ele>189</ele>
        <time>2014-01-18T06:01:13Z</time>
      </trkpt>
      <trkpt lat="43.56651" lon="2.94212">
        <ele>189.4</ele>
        <time>2014-01-18T06:01:19Z</time>
      </trkpt>
      <trkpt lat="43.56652" lon="2.94213">
        <ele>189.8</ele>
        <time>2014-01-18T06:01:20Z</time>
      </trkpt>
      <trkpt lat="43.56652" lon="2.94214">
        <ele>190.2</ele>
        <time>2014-01-18T06:01:21Z</time>
      </trkpt>
      <trkpt lat="43.56652" lon="2.94214">
        <ele>190.6</ele>
        <time>2014-01-18T06:01:22Z</time>
      </trkpt>
      <trkpt lat="43.56651" lon="2.94214">
        <ele>191</ele>
        <time>2014-01-18T06:01:23Z</time>
      </trkpt>
      <trkpt lat="43.56651" lon="2.94214">
        <ele>191</ele>
        <time>2014-01-18T06:02:11Z</time>
      </trkpt>
      <trkpt lat="43.56653" lon="2.94213">
        <ele>191</ele>
        <time>2014-01-18T06:02:13Z</time>
      </trkpt>
      <trkpt lat="43.56659" lon="2.94214">
        <ele>191</ele>
        <time>2014-01-18T06:02:17Z</time>
      </trkpt>
      <trkpt lat="43.56663" lon="2.94216">
        <ele>191</ele>
        <time>2014-01-18T06:02:19Z</time>
      </trkpt>
      <trkpt lat="43.56671" lon="2.9422">
        <ele>191</ele>
        <time>2014-01-18T06:02:22Z</time>
      </trkpt>
      <trkpt lat="43.56676" lon="2.94224">
        <ele>191</ele>
        <time>2014-01-18T06:02:24Z</time>
      </trkpt>
      <trkpt lat="43.56696" lon="2.94234">
        <ele>191</ele>
        <time>2014-01-18T06:02:30Z</time>
      </trkpt>
      <trkpt lat="43.56705" lon="2.9424">
        <ele>191</ele>
        <time>2014-01-18T06:02:33Z</time>
      </trkpt>
      <trkpt lat="43.56713" lon="2.94245">
        <ele>191</ele>
        <time>2014-01-18T06:02:36Z</time>
      </trkpt>
      <trkpt lat="43.56719" lon="2.94248">
        <ele>191</ele>
        <time>2014-01-18T06:02:38Z</time>
      </trkpt>
      <trkpt lat="43.56722" lon="2.94249">
        <ele>191.4</ele>
        <time>2014-01-18T06:02:39Z</time>
      </trkpt>
      <trkpt lat="43.56724" lon="2.9425">
        <ele>191.8</ele>
        <time>2014-01-18T06:02:40Z</time>
      </trkpt>
      <trkpt lat="43.56727" lon="2.94252">
        <ele>192.2</ele>
        <time>2014-01-18T06:02:41Z</time>
      </trkpt>
      <trkpt lat="43.5673" lon="2.94253">
        <ele>192.6</ele>
        <time>2014-01-18T06:02:42Z</time>
      </trkpt>
      <trkpt lat="43.56733" lon="2.94255">
        <ele>193</ele>
        <time>2014-01-18T06:02:43Z</time>
      </trkpt>
      <trkpt lat="43.5674" lon="2.9426">
        <ele>193</ele>
        <time>2014-01-18T06:02:46Z</time>
      </trkpt>
      <trkpt lat="43.56743" lon="2.94261">
        <ele>193.4</ele>
        <time>2014-01-18T06:02:47Z</time>
      </trkpt>
      <trkpt lat="43.56746" lon="2.94262">
        <ele>193.8</ele>
        <time>2014-01-18T06:02:48Z</time>
      </trkpt>
      <trkpt lat="43.56748" lon="2.94264">
        <ele>194.4</ele>
        <time>2014-01-18T06:02:49Z</time>
      </trkpt>
      <trkpt lat="43.56751" lon="2.94265">
        <ele>194.8</ele>
        <time>2014-01-18T06:02:50Z</time>
      </trkpt>
      <trkpt lat="43.56753" lon="2.94266">
        <ele>195.2</ele>
        <time>2014-01-18T06:02:51Z</time>
      </trkpt>
      <trkpt lat="43.5676" lon="2.9427">
        <ele>195.6</ele>
        <time>2014-01-18T06:02:54Z</time>
      </trkpt>
      <trkpt lat="43.56762" lon="2.94271">
        <ele>196</ele>
        <time>2014-01-18T06:02:55Z</time>
      </trkpt>
      <trkpt lat="43.56765" lon="2.94272">
        <ele>196.4</ele>
        <time>2014-01-18T06:02:56Z</time>
      </trkpt>
      <trkpt lat="43.56767" lon="2.94273">
        <ele>196.8</ele>
        <time>2014-01-18T06:02:57Z</time>
      </trkpt>
      <trkpt lat="43.5677" lon="2.94273">
        <ele>197.4</ele>
        <time>2014-01-18T06:02:58Z</time>
      </trkpt>
      <trkpt lat="43.56779" lon="2.94275">
        <ele>197.8</ele>
        <time>2014-01-18T06:03:02Z</time>
      </trkpt>
      <trkpt lat="43.56781" lon="2.94275">
        <ele>198.2</ele>
        <time>2014-01-18T06:03:03Z</time>
      </trkpt>
      <trkpt lat="43.56784" lon="2.94276">
        <ele>198.6</ele>
        <time>2014-01-18T06:03:04Z</time>
      </trkpt>
      <trkpt lat="43.56786" lon="2.94277">
        <ele>199.2</ele>
        <time>2014-01-18T06:03:05Z</time>
      </trkpt>
      <trkpt lat="43.56788" lon="2.94278">
        <ele>199.6</ele>
        <time>2014-01-18T06:03:06Z</time>
      </trkpt>
      <trkpt lat="43.56793" lon="2.9428">
        <ele>200</ele>
        <time>2014-01-18T06:03:08Z</time>
      </trkpt>
      <trkpt lat="43.56795" lon="2.94281">
        <ele>200.4</ele>
        <time>2014-01-18T06:03:09Z</time>
      </trkpt>
      <trkpt lat="43.56797" lon="2.94281">
        <ele>200.8</ele>
        <time>2014-01-18T06:03:10Z</time>
      </trkpt>
      <trkpt lat="43.56799" lon="2.94282">
        <ele>201.8</ele>
        <time>2014-01-18T06:03:11Z</time>
      </trkpt>
      <trkpt lat="43.56813" lon="2.94289">
        <ele>201.8</ele>
        <time>2014-01-18T06:03:17Z</time>
      </trkpt>
      <trkpt lat="43.56815" lon="2.9429">
        <ele>202.2</ele>
        <time>2014-01-18T06:03:18Z</time>
      </trkpt>
      <trkpt lat="43.56817" lon="2.94292">
        <ele>202.6</ele>
        <time>2014-01-18T06:03:19Z</time>
      </trkpt>
      <trkpt lat="43.56819" lon="2.94294">
        <ele>203</ele>
        <time>2014-01-18T06:03:20Z</time>
      </trkpt>
      <trkpt lat="43.56821" lon="2.94297">
        <ele>203.4</ele>
        <time>2014-01-18T06:03:21Z</time>
      </trkpt>
      <trkpt lat="43.56823" lon="2.943">
        <ele>203.8</ele>
        <time>2014-01-18T06:03:22Z</time>
      </trkpt>
      <trkpt lat="43.56824" lon="2.94302">
        <ele>203.8</ele>
        <time>2014-01-18T06:03:23Z</time>
      </trkpt>
      <trkpt lat="43.56826" lon="2.94308">
        <ele>204.2</ele>
        <time>2014-01-18T06:03:25Z</time>
      </trkpt>
      <trkpt lat="43.56826" lon="2.94311">
        <ele>204.6</ele>
        <time>2014-01-18T06:03:26Z</time>
      </trkpt>
      <trkpt lat="43.56827" lon="2.94315">
        <ele>205</ele>
        <time>2014-01-18T06:03:27Z</time>
      </trkpt>
      <trkpt lat="43.56828" lon="2.94318">
        <ele>205.6</ele>
        <time>2014-01-18T06:03:28Z</time>
      </trkpt>
      <trkpt lat="43.56828" lon="2.94321">
        <ele>206</ele>
        <time>2014-01-18T06:03:29Z</time>
      </trkpt>
      <trkpt lat="43.56828" lon="2.94324">
        <ele>206</ele>
        <time>2014-01-18T06:03:30Z</time>
      </trkpt>
      <trkpt lat="43.56829" lon="2.94337">
        <ele>206.4</ele>
        <time>2014-01-18T06:03:34Z</time>
      </trkpt>
      <trkpt lat="43.56829" lon="2.9434">
        <ele>206.8</ele>
        <time>2014-01-18T06:03:35Z</time>
      </trkpt>
      <trkpt lat="43.5683" lon="2.94343">
        <ele>207.6</ele>
        <time>2014-01-18T06:03:36Z</time>
      </trkpt>
      <trkpt lat="43.5683" lon="2.94346">
        <ele>208.2</ele>
        <time>2014-01-18T06:03:37Z</time>
      </trkpt>
      <trkpt lat="43.56834" lon="2.9436">
        <ele>208.6</ele>
        <time>2014-01-18T06:03:42Z</time>
      </trkpt>
      <trkpt lat="43.56834" lon="2.94363">
        <ele>209</ele>
        <time>2014-01-18T06:03:43Z</time>
      </trkpt>
      <trkpt lat="43.56835" lon="2.94367">
        <ele>209.4</ele>
        <time>2014-01-18T06:03:44Z</time>
      </trkpt>
      <trkpt lat="43.56836" lon="2.9437">
        <ele>209.8</ele>
        <time>2014-01-18T06:03:45Z</time>
      </trkpt>
      <trkpt lat="43.56836" lon="2.94373">
        <ele>210.2</ele>
        <time>2014-01-18T06:03:46Z</time>
      </trkpt>
      <trkpt lat="43.56839" lon="2.94382">
        <ele>210.2</ele>
        <time>2014-01-18T06:03:49Z</time>
      </trkpt>
      <trkpt lat="43.56849" lon="2.94395">
        <ele>210.6</ele>
        <time>2014-01-18T06:03:55Z</time>
      </trkpt>
      <trkpt lat="43.56851" lon="2.94397">
        <ele>211</ele>
        <time>2014-01-18T06:03:56Z</time>
      </trkpt>
      <trkpt lat="43.56853" lon="2.94398">
        <ele>211.4</ele>
        <time>2014-01-18T06:03:57Z</time>
      </trkpt>
      <trkpt lat="43.56855" lon="2.94399">
        <ele>211.8</ele>
        <time>2014-01-18T06:03:58Z</time>
      </trkpt>
      <trkpt lat="43.56857" lon="2.944">
        <ele>212.2</ele>
        <time>2014-01-18T06:03:59Z</time>
      </trkpt>
      <trkpt lat="43.56867" lon="2.94403">
        <ele>212.6</ele>
        <time>2014-01-18T06:04:03Z</time>
      </trkpt>
      <trkpt lat="43.56869" lon="2.94403">
        <ele>213</ele>
        <time>2014-01-18T06:04:04Z</time>
      </trkpt>
      <trkpt lat="43.56871" lon="2.94403">
        <ele>213.4</ele>
        <time>2014-01-18T06:04:05Z</time>
      </trkpt>
      <trkpt lat="43.56874" lon="2.94402">
        <ele>213.8</ele>
        <time>2014-01-18T06:04:06Z</time>
      </trkpt>
      <trkpt lat="43.56876" lon="2.94401">
        <ele>214.4</ele>
        <time>2014-01-18T06:04:07Z</time>
      </trkpt>
      <trkpt lat="43.56888" lon="2.94396">
        <ele>214.4</ele>
        <time>2014-01-18T06:04:12Z</time>
      </trkpt>
      <trkpt lat="43.5689" lon="2.94395">
        <ele>214.8</ele>
        <time>2014-01-18T06:04:13Z</time>
      </trkpt>
      <trkpt lat="43.56892" lon="2.94394">
        <ele>215.2</ele>
        <time>2014-01-18T06:04:14Z</time>
      </trkpt>
      <trkpt lat="43.56894" lon="2.94392">
        <ele>215.6</ele>
        <time>2014-01-18T06:04:15Z</time>
      </trkpt>
      <trkpt lat="43.56896" lon="2.94391">
        <ele>216.2</ele>
        <time>2014-01-18T06:04:16Z</time>
      </trkpt>
      <trkpt lat="43.56899" lon="2.9439">
        <ele>216.6</ele>
        <time>2014-01-18T06:04:17Z</time>
      </trkpt>
      <trkpt lat="43.56904" lon="2.94388">
        <ele>216.6</ele>
        <time>2014-01-18T06:04:19Z</time>
      </trkpt>
      <trkpt lat="43.5691" lon="2.94384">
        <ele>217</ele>
        <time>2014-01-18T06:04:22Z</time>
      </trkpt>
      <trkpt lat="43.56912" lon="2.94383">
        <ele>217.4</ele>
        <time>2014-01-18T06:04:23Z</time>
      </trkpt>
      <trkpt lat="43.56914" lon="2.94381">
        <ele>217.8</ele>
        <time>2014-01-18T06:04:24Z</time>
      </trkpt>
      <trkpt lat="43.56916" lon="2.9438">
        <ele>218.6</ele>
        <time>2014-01-18T06:04:25Z</time>
      </trkpt>
      <trkpt lat="43.56921" lon="2.94377">
        <ele>218.6</ele>
        <time>2014-01-18T06:04:27Z</time>
      </trkpt>
      <trkpt lat="43.56936" lon="2.94379">
        <ele>218.6</ele>
        <time>2014-01-18T06:04:33Z</time>
      </trkpt>
      <trkpt lat="43.56938" lon="2.9438">
        <ele>219</ele>
        <time>2014-01-18T06:04:34Z</time>
      </trkpt>
      <trkpt lat="43.56941" lon="2.94382">
        <ele>219.4</ele>
        <time>2014-01-18T06:04:35Z</time>
      </trkpt>
      <trkpt lat="43.56943" lon="2.94384">
        <ele>219.8</ele>
        <time>2014-01-18T06:04:36Z</time>
      </trkpt>
      <trkpt lat="43.56944" lon="2.94385">
        <ele>220.4</ele>
        <time>2014-01-18T06:04:37Z</time>
      </trkpt>
      <trkpt lat="43.56946" lon="2.94387">
        <ele>220.8</ele>
        <time>2014-01-18T06:04:38Z</time>
      </trkpt>
      <trkpt lat="43.56947" lon="2.94389">
        <ele>220.8</ele>
        <time>2014-01-18T06:04:39Z</time>
      </trkpt>
      <trkpt lat="43.56954" lon="2.94407">
        <ele>220.8</ele>
        <time>2014-01-18T06:04:46Z</time>
      </trkpt>
      <trkpt lat="43.56957" lon="2.94419">
        <ele>221.2</ele>
        <time>2014-01-18T06:04:50Z</time>
      </trkpt>
      <trkpt lat="43.56957" lon="2.94422">
        <ele>221.6</ele>
        <time>2014-01-18T06:04:51Z</time>
      </trkpt>
      <trkpt lat="43.56957" lon="2.94425">
        <ele>222</ele>
        <time>2014-01-18T06:04:52Z</time>
      </trkpt>
      <trkpt lat="43.56957" lon="2.94428">
        <ele>222.6</ele>
        <time>2014-01-18T06:04:53Z</time>
      </trkpt>
      <trkpt lat="43.56957" lon="2.94431">
        <ele>223</ele>
        <time>2014-01-18T06:04:54Z</time>
      </trkpt>
      <trkpt lat="43.56958" lon="2.94446">
        <ele>223.4</ele>
        <time>2014-01-18T06:04:59Z</time>
      </trkpt>
      <trkpt lat="43.56958" lon="2.94449">
        <ele>223.8</ele>
        <time>2014-01-18T06:05:00Z</time>
      </trkpt>
      <trkpt lat="43.56957" lon="2.94452">
        <ele>224.2</ele>
        <time>2014-01-18T06:05:01Z</time>
      </trkpt>
      <trkpt lat="43.56957" lon="2.94455">
        <ele>224.6</ele>
        <time>2014-01-18T06:05:02Z</time>
      </trkpt>
      <trkpt lat="43.56957" lon="2.94458">
        <ele>225</ele>
        <time>2014-01-18T06:05:03Z</time>
      </trkpt>
      <trkpt lat="43.56959" lon="2.94469">
        <ele>225</ele>
        <time>2014-01-18T06:05:07Z</time>
      </trkpt>
      <trkpt lat="43.56964" lon="2.94487">
        <ele>225</ele>
        <time>2014-01-18T06:05:13Z</time>
      </trkpt>
      <trkpt lat="43.56964" lon="2.9449">
        <ele>225.4</ele>
        <time>2014-01-18T06:05:14Z</time>
      </trkpt>
      <trkpt lat="43.56965" lon="2.94493">
        <ele>225.8</ele>
        <time>2014-01-18T06:05:15Z</time>
      </trkpt>
      <trkpt lat="43.56966" lon="2.94496">
        <ele>226.4</ele>
        <time>2014-01-18T06:05:16Z</time>
      </trkpt>
      <trkpt lat="43.56967" lon="2.94499">
        <ele>226.8</ele>
        <time>2014-01-18T06:05:17Z</time>
      </trkpt>
      <trkpt lat="43.56969" lon="2.94501">
        <ele>227.2</ele>
        <time>2014-01-18T06:05:18Z</time>
      </trkpt>
      <trkpt lat="43.5697" lon="2.94504">
        <ele>227.2</ele>
        <time>2014-01-18T06:05:19Z</time>
      </trkpt>
      <trkpt lat="43.5698" lon="2.94517">
        <ele>227.2</ele>
        <time>2014-01-18T06:05:25Z</time>
      </trkpt>
      <trkpt lat="43.56984" lon="2.94523">
        <ele>227.6</ele>
        <time>2014-01-18T06:05:28Z</time>
      </trkpt>
      <trkpt lat="43.56986" lon="2.94525">
        <ele>228</ele>
        <time>2014-01-18T06:05:29Z</time>
      </trkpt>
      <trkpt lat="43.56988" lon="2.94527">
        <ele>228.4</ele>
        <time>2014-01-18T06:05:30Z</time>
      </trkpt>
      <trkpt lat="43.56989" lon="2.94529">
        <ele>228.8</ele>
        <time>2014-01-18T06:05:31Z</time>
      </trkpt>
      <trkpt lat="43.56991" lon="2.94531">
        <ele>229.2</ele>
        <time>2014-01-18T06:05:32Z</time>
      </trkpt>
      <trkpt lat="43.56992" lon="2.94534">
        <ele>229.2</ele>
        <time>2014-01-18T06:05:33Z</time>
      </trkpt>
      <trkpt lat="43.56997" lon="2.94553">
        <ele>229.2</ele>
        <time>2014-01-18T06:05:40Z</time>
      </trkpt>
      <trkpt lat="43.56996" lon="2.94559">
        <ele>229.6</ele>
        <time>2014-01-18T06:05:42Z</time>
      </trkpt>
      <trkpt lat="43.56995" lon="2.94562">
        <ele>230</ele>
        <time>2014-01-18T06:05:43Z</time>
      </trkpt>
      <trkpt lat="43.56995" lon="2.94564">
        <ele>230.4</ele>
        <time>2014-01-18T06:05:44Z</time>
      </trkpt>
      <trkpt lat="43.56994" lon="2.94567">
        <ele>230.8</ele>
        <time>2014-01-18T06:05:45Z</time>
      </trkpt>
      <trkpt lat="43.56994" lon="2.9457">
        <ele>231.2</ele>
        <time>2014-01-18T06:05:46Z</time>
      </trkpt>
      <trkpt lat="43.56993" lon="2.94573">
        <ele>231.2</ele>
        <time>2014-01-18T06:05:47Z</time>
      </trkpt>
      <trkpt lat="43.56986" lon="2.94592">
        <ele>231.2</ele>
        <time>2014-01-18T06:05:54Z</time>
      </trkpt>
      <trkpt lat="43.56985" lon="2.94595">
        <ele>231.6</ele>
        <time>2014-01-18T06:05:55Z</time>
      </trkpt>
      <trkpt lat="43.56984" lon="2.94597">
        <ele>232</ele>
        <time>2014-01-18T06:05:56Z</time>
      </trkpt>
      <trkpt lat="43.56983" lon="2.946">
        <ele>232.4</ele>
        <time>2014-01-18T06:05:57Z</time>
      </trkpt>
      <trkpt lat="43.56982" lon="2.94603">
        <ele>232.8</ele>
        <time>2014-01-18T06:05:58Z</time>
      </trkpt>
      <trkpt lat="43.56982" lon="2.94606">
        <ele>233.2</ele>
        <time>2014-01-18T06:05:59Z</time>
      </trkpt>
      <trkpt lat="43.56979" lon="2.94615">
        <ele>233.2</ele>
        <time>2014-01-18T06:06:02Z</time>
      </trkpt>
      <trkpt lat="43.56978" lon="2.94621">
        <ele>234</ele>
        <time>2014-01-18T06:06:04Z</time>
      </trkpt>
      <trkpt lat="43.56978" lon="2.94624">
        <ele>234.4</ele>
        <time>2014-01-18T06:06:05Z</time>
      </trkpt>
      <trkpt lat="43.56978" lon="2.94627">
        <ele>235</ele>
        <time>2014-01-18T06:06:06Z</time>
      </trkpt>
      <trkpt lat="43.56977" lon="2.94629">
        <ele>235.4</ele>
        <time>2014-01-18T06:06:07Z</time>
      </trkpt>
      <trkpt lat="43.56977" lon="2.94633">
        <ele>235.4</ele>
        <time>2014-01-18T06:06:08Z</time>
      </trkpt>
      <trkpt lat="43.5698" lon="2.94654">
        <ele>235.4</ele>
        <time>2014-01-18T06:06:15Z</time>
      </trkpt>
      <trkpt lat="43.56981" lon="2.94666">
        <ele>235.8</ele>
        <time>2014-01-18T06:06:19Z</time>
      </trkpt>
      <trkpt lat="43.56981" lon="2.94669">
        <ele>236.2</ele>
        <time>2014-01-18T06:06:20Z</time>
      </trkpt>
      <trkpt lat="43.56981" lon="2.94673">
        <ele>236.6</ele>
        <time>2014-01-18T06:06:21Z</time>
      </trkpt>
      <trkpt lat="43.5698" lon="2.94676">
        <ele>237</ele>
        <time>2014-01-18T06:06:22Z</time>
      </trkpt>
      <trkpt lat="43.5698" lon="2.94679">
        <ele>237.4</ele>
        <time>2014-01-18T06:06:23Z</time>
      </trkpt>
      <trkpt lat="43.5698" lon="2.94682">
        <ele>237.4</ele>
        <time>2014-01-18T06:06:24Z</time>
      </trkpt>
      <trkpt lat="43.56974" lon="2.94703">
        <ele>237.8</ele>
        <time>2014-01-18T06:06:31Z</time>
      </trkpt>
      <trkpt lat="43.56973" lon="2.94705">
        <ele>238.2</ele>
        <time>2014-01-18T06:06:32Z</time>
      </trkpt>
      <trkpt lat="43.56973" lon="2.94709">
        <ele>238.6</ele>
        <time>2014-01-18T06:06:33Z</time>
      </trkpt>
      <trkpt lat="43.56972" lon="2.94711">
        <ele>239</ele>
        <time>2014-01-18T06:06:34Z</time>
      </trkpt>
      <trkpt lat="43.56972" lon="2.94714">
        <ele>239.4</ele>
        <time>2014-01-18T06:06:35Z</time>
      </trkpt>
      <trkpt lat="43.56972" lon="2.94724">
        <ele>239.4</ele>
        <time>2014-01-18T06:06:38Z</time>
      </trkpt>
      <trkpt lat="43.56975" lon="2.94736">
        <ele>239.8</ele>
        <time>2014-01-18T06:06:42Z</time>
      </trkpt>
      <trkpt lat="43.56976" lon="2.94738">
        <ele>240.2</ele>
        <time>2014-01-18T06:06:43Z</time>
      </trkpt>
      <trkpt lat="43.56977" lon="2.9474">
        <ele>240.6</ele>
        <time>2014-01-18T06:06:44Z</time>
      </trkpt>
      <trkpt lat="43.56979" lon="2.94743">
        <ele>241</ele>
        <time>2014-01-18T06:06:45Z</time>
      </trkpt>
      <trkpt lat="43.5698" lon="2.94746">
        <ele>241.4</ele>
        <time>2014-01-18T06:06:46Z</time>
      </trkpt>
      <trkpt lat="43.56988" lon="2.94756">
        <ele>241.4</ele>
        <time>2014-01-18T06:06:51Z</time>
      </trkpt>
      <trkpt lat="43.57004" lon="2.9477">
        <ele>241.4</ele>
        <time>2014-01-18T06:06:59Z</time>
      </trkpt>
      <trkpt lat="43.57007" lon="2.94771">
        <ele>241.8</ele>
        <time>2014-01-18T06:07:00Z</time>
      </trkpt>
      <trkpt lat="43.57009" lon="2.94773">
        <ele>242.2</ele>
        <time>2014-01-18T06:07:01Z</time>
      </trkpt>
      <trkpt lat="43.5701" lon="2.94774">
        <ele>242.6</ele>
        <time>2014-01-18T06:07:02Z</time>
      </trkpt>
      <trkpt lat="43.57012" lon="2.94776">
        <ele>243</ele>
        <time>2014-01-18T06:07:03Z</time>
      </trkpt>
      <trkpt lat="43.57014" lon="2.94777">
        <ele>243.4</ele>
        <time>2014-01-18T06:07:04Z</time>
      </trkpt>
      <trkpt lat="43.5702" lon="2.94782">
        <ele>243.4</ele>
        <time>2014-01-18T06:07:07Z</time>
      </trkpt>
      <trkpt lat="43.57024" lon="2.94785">
        <ele>244</ele>
        <time>2014-01-18T06:07:09Z</time>
      </trkpt>
      <trkpt lat="43.57026" lon="2.94787">
        <ele>244.4</ele>
        <time>2014-01-18T06:07:10Z</time>
      </trkpt>
      <trkpt lat="43.57028" lon="2.94789">
        <ele>244.8</ele>
        <time>2014-01-18T06:07:11Z</time>
      </trkpt>
      <trkpt lat="43.5703" lon="2.94791">
        <ele>245.2</ele>
        <time>2014-01-18T06:07:12Z</time>
      </trkpt>
      <trkpt lat="43.57031" lon="2.94793">
        <ele>245.8</ele>
        <time>2014-01-18T06:07:13Z</time>
      </trkpt>
      <trkpt lat="43.57035" lon="2.94798">
        <ele>245.8</ele>
        <time>2014-01-18T06:07:15Z</time>
      </trkpt>
      <trkpt lat="43.57038" lon="2.94802">
        <ele>246.2</ele>
        <time>2014-01-18T06:07:17Z</time>
      </trkpt>
      <trkpt lat="43.5704" lon="2.94804">
        <ele>247</ele>
        <time>2014-01-18T06:07:18Z</time>
      </trkpt>
      <trkpt lat="43.57041" lon="2.94806">
        <ele>247.4</ele>
        <time>2014-01-18T06:07:19Z</time>
      </trkpt>
      <trkpt lat="43.57043" lon="2.94808">
        <ele>247.8</ele>
        <time>2014-01-18T06:07:20Z</time>
      </trkpt>
      <trkpt lat="43.57047" lon="2.94813">
        <ele>247.8</ele>
        <time>2014-01-18T06:07:22Z</time>
      </trkpt>
      <trkpt lat="43.57061" lon="2.94829">
        <ele>247.8</ele>
        <time>2014-01-18T06:07:30Z</time>
      </trkpt>
      <trkpt lat="43.57072" lon="2.94837">
        <ele>248.2</ele>
        <time>2014-01-18T06:07:35Z</time>
      </trkpt>
      <trkpt lat="43.57074" lon="2.94839">
        <ele>248.6</ele>
        <time>2014-01-18T06:07:36Z</time>
      </trkpt>
      <trkpt lat="43.57076" lon="2.94841">
        <ele>249.2</ele>
        <time>2014-01-18T06:07:37Z</time>
      </trkpt>
      <trkpt lat="43.57078" lon="2.94842">
        <ele>249.6</ele>
        <time>2014-01-18T06:07:38Z</time>
      </trkpt>
      <trkpt lat="43.5708" lon="2.94844">
        <ele>250</ele>
        <time>2014-01-18T06:07:39Z</time>
      </trkpt>
      <trkpt lat="43.57094" lon="2.94855">
        <ele>250</ele>
        <time>2014-01-18T06:07:46Z</time>
      </trkpt>
      <trkpt lat="43.57104" lon="2.94863">
        <ele>250.4</ele>
        <time>2014-01-18T06:07:51Z</time>
      </trkpt>
      <trkpt lat="43.57106" lon="2.94865">
        <ele>250.8</ele>
        <time>2014-01-18T06:07:52Z</time>
      </trkpt>
      <trkpt lat="43.57107" lon="2.94867">
        <ele>251.2</ele>
        <time>2014-01-18T06:07:53Z</time>
      </trkpt>
      <trkpt lat="43.57109" lon="2.94869">
        <ele>251.8</ele>
        <time>2014-01-18T06:07:54Z</time>
      </trkpt>
      <trkpt lat="43.5711" lon="2.94871">
        <ele>252.2</ele>
        <time>2014-01-18T06:07:55Z</time>
      </trkpt>
      <trkpt lat="43.57115" lon="2.94884">
        <ele>252.2</ele>
        <time>2014-01-18T06:08:00Z</time>
      </trkpt>
      <trkpt lat="43.57116" lon="2.94887">
        <ele>252.2</ele>
        <time>2014-01-18T06:08:01Z</time>
      </trkpt>
      <trkpt lat="43.57116" lon="2.94893">
        <ele>252.6</ele>
        <time>2014-01-18T06:08:03Z</time>
      </trkpt>
      <trkpt lat="43.57116" lon="2.94896">
        <ele>253</ele>
        <time>2014-01-18T06:08:04Z</time>
      </trkpt>
      <trkpt lat="43.57115" lon="2.94899">
        <ele>253.4</ele>
        <time>2014-01-18T06:08:05Z</time>
      </trkpt>
      <trkpt lat="43.57114" lon="2.94902">
        <ele>253.8</ele>
        <time>2014-01-18T06:08:06Z</time>
      </trkpt>
      <trkpt lat="43.57113" lon="2.94905">
        <ele>254.2</ele>
        <time>2014-01-18T06:08:07Z</time>
      </trkpt>
      <trkpt lat="43.57102" lon="2.94922">
        <ele>254.6</ele>
        <time>2014-01-18T06:08:14Z</time>
      </trkpt>
      <trkpt lat="43.57101" lon="2.94924">
        <ele>255.2</ele>
        <time>2014-01-18T06:08:15Z</time>
      </trkpt>
      <trkpt lat="43.571" lon="2.94927">
        <ele>255.6</ele>
        <time>2014-01-18T06:08:16Z</time>
      </trkpt>
      <trkpt lat="43.57099" lon="2.9493">
        <ele>256</ele>
        <time>2014-01-18T06:08:17Z</time>
      </trkpt>
      <trkpt lat="43.57098" lon="2.94933">
        <ele>256.4</ele>
        <time>2014-01-18T06:08:18Z</time>
      </trkpt>
      <trkpt lat="43.57096" lon="2.94946">
        <ele>256.8</ele>
        <time>2014-01-18T06:08:22Z</time>
      </trkpt>
      <trkpt lat="43.57096" lon="2.94949">
        <ele>257.2</ele>
        <time>2014-01-18T06:08:23Z</time>
      </trkpt>
      <trkpt lat="43.57096" lon="2.94952">
        <ele>257.6</ele>
        <time>2014-01-18T06:08:24Z</time>
      </trkpt>
      <trkpt lat="43.57096" lon="2.94955">
        <ele>258</ele>
        <time>2014-01-18T06:08:25Z</time>
      </trkpt>
      <trkpt lat="43.57096" lon="2.94959">
        <ele>258.4</ele>
        <time>2014-01-18T06:08:26Z</time>
      </trkpt>
      <trkpt lat="43.57099" lon="2.94977">
        <ele>258.4</ele>
        <time>2014-01-18T06:08:32Z</time>
      </trkpt>
      <trkpt lat="43.57101" lon="2.94992">
        <ele>258.4</ele>
        <time>2014-01-18T06:08:37Z</time>
      </trkpt>
      <trkpt lat="43.57101" lon="2.94998">
        <ele>258.8</ele>
        <time>2014-01-18T06:08:39Z</time>
      </trkpt>
      <trkpt lat="43.57101" lon="2.95001">
        <ele>259.2</ele>
        <time>2014-01-18T06:08:40Z</time>
      </trkpt>
      <trkpt lat="43.57102" lon="2.95005">
        <ele>259.6</ele>
        <time>2014-01-18T06:08:41Z</time>
      </trkpt>
      <trkpt lat="43.57102" lon="2.95008">
        <ele>260</ele>
        <time>2014-01-18T06:08:42Z</time>
      </trkpt>
      <trkpt lat="43.57103" lon="2.95011">
        <ele>260.4</ele>
        <time>2014-01-18T06:08:43Z</time>
      </trkpt>
      <trkpt lat="43.57103" lon="2.95014">
        <ele>260.4</ele>
        <time>2014-01-18T06:08:44Z</time>
      </trkpt>
      <trkpt lat="43.57104" lon="2.95035">
        <ele>260.4</ele>
        <time>2014-01-18T06:08:51Z</time>
      </trkpt>
      <trkpt lat="43.57106" lon="2.95044">
        <ele>260.4</ele>
        <time>2014-01-18T06:08:56Z</time>
      </trkpt>
      <trkpt lat="43.57107" lon="2.95045">
        <ele>260.4</ele>
        <time>2014-01-18T06:08:57Z</time>
      </trkpt>
      <trkpt lat="43.5711" lon="2.95052">
        <ele>260.4</ele>
        <time>2014-01-18T06:09:03Z</time>
      </trkpt>
      <trkpt lat="43.57111" lon="2.9505">
        <ele>260.8</ele>
        <time>2014-01-18T06:09:05Z</time>
      </trkpt>
      <trkpt lat="43.57111" lon="2.95049">
        <ele>261.2</ele>
        <time>2014-01-18T06:09:06Z</time>
      </trkpt>
      <trkpt lat="43.57112" lon="2.95048">
        <ele>261.6</ele>
        <time>2014-01-18T06:09:07Z</time>
      </trkpt>
      <trkpt lat="43.57112" lon="2.95047">
        <ele>262</ele>
        <time>2014-01-18T06:09:08Z</time>
      </trkpt>
      <trkpt lat="43.57113" lon="2.95045">
        <ele>262.6</ele>
        <time>2014-01-18T06:09:09Z</time>
      </trkpt>
      <trkpt lat="43.57114" lon="2.95042">
        <ele>262.6</ele>
        <time>2014-01-18T06:09:13Z</time>
      </trkpt>
      <trkpt lat="43.57113" lon="2.95041">
        <ele>262.6</ele>
        <time>2014-01-18T06:09:14Z</time>
      </trkpt>
      <trkpt lat="43.5711" lon="2.95039">
        <ele>262.6</ele>
        <time>2014-01-18T06:09:17Z</time>
      </trkpt>
      <trkpt lat="43.57109" lon="2.95039">
        <ele>262.6</ele>
        <time>2014-01-18T06:09:19Z</time>
      </trkpt>
      <trkpt lat="43.57107" lon="2.95039">
        <ele>262.6</ele>
        <time>2014-01-18T06:09:20Z</time>
      </trkpt>
      <trkpt lat="43.57106" lon="2.95041">
        <ele>262.6</ele>
        <time>2014-01-18T06:09:21Z</time>
      </trkpt>
      <trkpt lat="43.57107" lon="2.95046">
        <ele>262.6</ele>
        <time>2014-01-18T06:09:24Z</time>
      </trkpt>
      <trkpt lat="43.57107" lon="2.95048">
        <ele>262.6</ele>
        <time>2014-01-18T06:09:25Z</time>
      </trkpt>
      <trkpt lat="43.57108" lon="2.95051">
        <ele>262.6</ele>
        <time>2014-01-18T06:09:27Z</time>
      </trkpt>
      <trkpt lat="43.57112" lon="2.95053">
        <ele>262.6</ele>
        <time>2014-01-18T06:09:30Z</time>
      </trkpt>
      <trkpt lat="43.57112" lon="2.9505">
        <ele>262.6</ele>
        <time>2014-01-18T06:09:32Z</time>
      </trkpt>
      <trkpt lat="43.57114" lon="2.95047">
        <ele>262.6</ele>
        <time>2014-01-18T06:09:35Z</time>
      </trkpt>
      <trkpt lat="43.57117" lon="2.95048">
        <ele>262.6</ele>
        <time>2014-01-18T06:09:40Z</time>
      </trkpt>
      <trkpt lat="43.57121" lon="2.95049">
        <ele>262.6</ele>
        <time>2014-01-18T06:09:45Z</time>
      </trkpt>
      <trkpt lat="43.57123" lon="2.95043">
        <ele>262.6</ele>
        <time>2014-01-18T06:09:48Z</time>
      </trkpt>
      <trkpt lat="43.57123" lon="2.95034">
        <ele>263</ele>
        <time>2014-01-18T06:09:53Z</time>
      </trkpt>
      <trkpt lat="43.57123" lon="2.95033">
        <ele>263.4</ele>
        <time>2014-01-18T06:09:54Z</time>
      </trkpt>
      <trkpt lat="43.57123" lon="2.95031">
        <ele>263.8</ele>
        <time>2014-01-18T06:09:55Z</time>
      </trkpt>
      <trkpt lat="43.57124" lon="2.95029">
        <ele>264.2</ele>
        <time>2014-01-18T06:09:56Z</time>
      </trkpt>
      <trkpt lat="43.57123" lon="2.95028">
        <ele>264.6</ele>
        <time>2014-01-18T06:09:57Z</time>
      </trkpt>
      <trkpt lat="43.57122" lon="2.95026">
        <ele>264.6</ele>
        <time>2014-01-18T06:09:59Z</time>
      </trkpt>
      <trkpt lat="43.57121" lon="2.95026">
        <ele>265</ele>
        <time>2014-01-18T06:10:00Z</time>
      </trkpt>
      <trkpt lat="43.57119" lon="2.95027">
        <ele>265.4</ele>
        <time>2014-01-18T06:10:01Z</time>
      </trkpt>
      <trkpt lat="43.57119" lon="2.95027">
        <ele>265.8</ele>
        <time>2014-01-18T06:10:02Z</time>
      </trkpt>
      <trkpt lat="43.57119" lon="2.95027">
        <ele>266.2</ele>
        <time>2014-01-18T06:10:03Z</time>
      </trkpt>
      <trkpt lat="43.57119" lon="2.95027">
        <ele>266.8</ele>
        <time>2014-01-18T06:10:04Z</time>
      </trkpt>
      <trkpt lat="43.57119" lon="2.95027">
        <ele>264.6</ele>
        <time>2014-01-18T06:10:39Z</time>
      </trkpt>
      <trkpt lat="43.5712" lon="2.95027">
        <ele>264.6</ele>
        <time>2014-01-18T06:10:40Z</time>
      </trkpt>
      <trkpt lat="43.57121" lon="2.95027">
        <ele>264.6</ele>
        <time>2014-01-18T06:10:42Z</time>
      </trkpt>
      <trkpt lat="43.57121" lon="2.95027">
        <ele>264.6</ele>
        <time>2014-01-18T06:10:43Z</time>
      </trkpt>
      <trkpt lat="43.57122" lon="2.95027">
        <ele>264.6</ele>
        <time>2014-01-18T06:10:45Z</time>
      </trkpt>
      <trkpt lat="43.57122" lon="2.95026">
        <ele>264.6</ele>
        <time>2014-01-18T06:11:19Z</time>
      </trkpt>
      <trkpt lat="43.57122" lon="2.95026">
        <ele>264.6</ele>
        <time>2014-01-18T06:11:20Z</time>
      </trkpt>
      <trkpt lat="43.57122" lon="2.95026">
        <ele>264.6</ele>
        <time>2014-01-18T06:11:23Z</time>
      </trkpt>
      <trkpt lat="43.57122" lon="2.95026">
        <ele>264.6</ele>
        <time>2014-01-18T06:11:30Z</time>
      </trkpt>
      <trkpt lat="43.57122" lon="2.95026">
        <ele>264.6</ele>
        <time>2014-01-18T06:11:31Z</time>
      </trkpt>
      <trkpt lat="43.57123" lon="2.95023">
        <ele>264.6</ele>
        <time>2014-01-18T06:11:34Z</time>
      </trkpt>
      <trkpt lat="43.57124" lon="2.95022">
        <ele>264.6</ele>
        <time>2014-01-18T06:11:35Z</time>
      </trkpt>
      <trkpt lat="43.57124" lon="2.95022">
        <ele>264.6</ele>
        <time>2014-01-18T06:11:39Z</time>
      </trkpt>
      <trkpt lat="43.57124" lon="2.95018">
        <ele>264.6</ele>
        <time>2014-01-18T06:11:41Z</time>
      </trkpt>
      <trkpt lat="43.57124" lon="2.95016">
        <ele>264.6</ele>
        <time>2014-01-18T06:11:42Z</time>
      </trkpt>
      <trkpt lat="43.57123" lon="2.95014">
        <ele>264.6</ele>
        <time>2014-01-18T06:11:43Z</time>
      </trkpt>
      <trkpt lat="43.57124" lon="2.95005">
        <ele>264.6</ele>
        <time>2014-01-18T06:11:46Z</time>
      </trkpt>
      <trkpt lat="43.57124" lon="2.95002">
        <ele>264.6</ele>
        <time>2014-01-18T06:11:47Z</time>
      </trkpt>
      <trkpt lat="43.57124" lon="2.94993">
        <ele>264.6</ele>
        <time>2014-01-18T06:11:50Z</time>
      </trkpt>
      <trkpt lat="43.57126" lon="2.94978">
        <ele>264.6</ele>
        <time>2014-01-18T06:11:55Z</time>
      </trkpt>
      <trkpt lat="43.57127" lon="2.94969">
        <ele>265</ele>
        <time>2014-01-18T06:11:58Z</time>
      </trkpt>
      <trkpt lat="43.57127" lon="2.94966">
        <ele>265.4</ele>
        <time>2014-01-18T06:11:59Z</time>
      </trkpt>
      <trkpt lat="43.57128" lon="2.94963">
        <ele>265.8</ele>
        <time>2014-01-18T06:12:00Z</time>
      </trkpt>
      <trkpt lat="43.57128" lon="2.9496">
        <ele>266.2</ele>
        <time>2014-01-18T06:12:01Z</time>
      </trkpt>
      <trkpt lat="43.57129" lon="2.94958">
        <ele>266.6</ele>
        <time>2014-01-18T06:12:02Z</time>
      </trkpt>
      <trkpt lat="43.57131" lon="2.94952">
        <ele>266.6</ele>
        <time>2014-01-18T06:12:04Z</time>
      </trkpt>
      <trkpt lat="43.57138" lon="2.94932">
        <ele>266.6</ele>
        <time>2014-01-18T06:12:12Z</time>
      </trkpt>
      <trkpt lat="43.57139" lon="2.9493">
        <ele>267</ele>
        <time>2014-01-18T06:12:13Z</time>
      </trkpt>
      <trkpt lat="43.5714" lon="2.94928">
        <ele>267.4</ele>
        <time>2014-01-18T06:12:14Z</time>
      </trkpt>
      <trkpt lat="43.57141" lon="2.94926">
        <ele>268.2</ele>
        <time>2014-01-18T06:12:15Z</time>
      </trkpt>
      <trkpt lat="43.57142" lon="2.94923">
        <ele>268.6</ele>
        <time>2014-01-18T06:12:16Z</time>
      </trkpt>
      <trkpt lat="43.57148" lon="2.94912">
        <ele>268.6</ele>
        <time>2014-01-18T06:12:21Z</time>
      </trkpt>
      <trkpt lat="43.57159" lon="2.94896">
        <ele>268.6</ele>
        <time>2014-01-18T06:12:29Z</time>
      </trkpt>
      <trkpt lat="43.57162" lon="2.94892">
        <ele>269</ele>
        <time>2014-01-18T06:12:31Z</time>
      </trkpt>
      <trkpt lat="43.57163" lon="2.9489">
        <ele>269.4</ele>
        <time>2014-01-18T06:12:32Z</time>
      </trkpt>
      <trkpt lat="43.57165" lon="2.94888">
        <ele>269.8</ele>
        <time>2014-01-18T06:12:33Z</time>
      </trkpt>
      <trkpt lat="43.57166" lon="2.94885">
        <ele>270.4</ele>
        <time>2014-01-18T06:12:34Z</time>
      </trkpt>
      <trkpt lat="43.57168" lon="2.94883">
        <ele>270.8</ele>
        <time>2014-01-18T06:12:35Z</time>
      </trkpt>
      <trkpt lat="43.5717" lon="2.94882">
        <ele>270.8</ele>
        <time>2014-01-18T06:12:36Z</time>
      </trkpt>
      <trkpt lat="43.57179" lon="2.94871">
        <ele>270.8</ele>
        <time>2014-01-18T06:12:42Z</time>
      </trkpt>
      <trkpt lat="43.57184" lon="2.94866">
        <ele>271.2</ele>
        <time>2014-01-18T06:12:45Z</time>
      </trkpt>
      <trkpt lat="43.57185" lon="2.94864">
        <ele>271.6</ele>
        <time>2014-01-18T06:12:46Z</time>
      </trkpt>
      <trkpt lat="43.57186" lon="2.94862">
        <ele>272</ele>
        <time>2014-01-18T06:12:47Z</time>
      </trkpt>
      <trkpt lat="43.57187" lon="2.9486">
        <ele>272.4</ele>
        <time>2014-01-18T06:12:48Z</time>
      </trkpt>
      <trkpt lat="43.57188" lon="2.94857">
        <ele>272.8</ele>
        <time>2014-01-18T06:12:49Z</time>
      </trkpt>
      <trkpt lat="43.5719" lon="2.94846">
        <ele>272.8</ele>
        <time>2014-01-18T06:12:53Z</time>
      </trkpt>
      <trkpt lat="43.57189" lon="2.94843">
        <ele>272.8</ele>
        <time>2014-01-18T06:12:54Z</time>
      </trkpt>
      <trkpt lat="43.57187" lon="2.94827">
        <ele>272.8</ele>
        <time>2014-01-18T06:13:00Z</time>
      </trkpt>
      <trkpt lat="43.57179" lon="2.94815">
        <ele>272.8</ele>
        <time>2014-01-18T06:13:05Z</time>
      </trkpt>
      <trkpt lat="43.57176" lon="2.94813">
        <ele>273.2</ele>
        <time>2014-01-18T06:13:06Z</time>
      </trkpt>
      <trkpt lat="43.57175" lon="2.94811">
        <ele>273.6</ele>
        <time>2014-01-18T06:13:07Z</time>
      </trkpt>
      <trkpt lat="43.57173" lon="2.94809">
        <ele>274</ele>
        <time>2014-01-18T06:13:08Z</time>
      </trkpt>
      <trkpt lat="43.57171" lon="2.94807">
        <ele>274.4</ele>
        <time>2014-01-18T06:13:09Z</time>
      </trkpt>
      <trkpt lat="43.57169" lon="2.94805">
        <ele>274.8</ele>
        <time>2014-01-18T06:13:10Z</time>
      </trkpt>
      <trkpt lat="43.57164" lon="2.94797">
        <ele>274.8</ele>
        <time>2014-01-18T06:13:13Z</time>
      </trkpt>
      <trkpt lat="43.57155" lon="2.94777">
        <ele>275.4</ele>
        <time>2014-01-18T06:13:20Z</time>
      </trkpt>
      <trkpt lat="43.57154" lon="2.94774">
        <ele>275.8</ele>
        <time>2014-01-18T06:13:21Z</time>
      </trkpt>
      <trkpt lat="43.57153" lon="2.94771">
        <ele>276.2</ele>
        <time>2014-01-18T06:13:22Z</time>
      </trkpt>
      <trkpt lat="43.57151" lon="2.94768">
        <ele>276.6</ele>
        <time>2014-01-18T06:13:23Z</time>
      </trkpt>
      <trkpt lat="43.5715" lon="2.94765">
        <ele>277</ele>
        <time>2014-01-18T06:13:24Z</time>
      </trkpt>
      <trkpt lat="43.57146" lon="2.94749">
        <ele>277.6</ele>
        <time>2014-01-18T06:13:29Z</time>
      </trkpt>
      <trkpt lat="43.57145" lon="2.94747">
        <ele>278</ele>
        <time>2014-01-18T06:13:30Z</time>
      </trkpt>
      <trkpt lat="43.57144" lon="2.94744">
        <ele>278.4</ele>
        <time>2014-01-18T06:13:31Z</time>
      </trkpt>
      <trkpt lat="43.57143" lon="2.9474">
        <ele>279</ele>
        <time>2014-01-18T06:13:32Z</time>
      </trkpt>
      <trkpt lat="43.57142" lon="2.94737">
        <ele>279.8</ele>
        <time>2014-01-18T06:13:33Z</time>
      </trkpt>
      <trkpt lat="43.57141" lon="2.94734">
        <ele>280.4</ele>
        <time>2014-01-18T06:13:34Z</time>
      </trkpt>
      <trkpt lat="43.5714" lon="2.9473">
        <ele>281</ele>
        <time>2014-01-18T06:13:35Z</time>
      </trkpt>
      <trkpt lat="43.57139" lon="2.94726">
        <ele>281.6</ele>
        <time>2014-01-18T06:13:36Z</time>
      </trkpt>
      <trkpt lat="43.57138" lon="2.94723">
        <ele>281.6</ele>
        <time>2014-01-18T06:13:37Z</time>
      </trkpt>
      <trkpt lat="43.57137" lon="2.947">
        <ele>282</ele>
        <time>2014-01-18T06:13:43Z</time>
      </trkpt>
      <trkpt lat="43.57137" lon="2.94697">
        <ele>282.4</ele>
        <time>2014-01-18T06:13:44Z</time>
      </trkpt>
      <trkpt lat="43.57137" lon="2.94693">
        <ele>282.8</ele>
        <time>2014-01-18T06:13:45Z</time>
      </trkpt>
      <trkpt lat="43.57137" lon="2.94689">
        <ele>283.2</ele>
        <time>2014-01-18T06:13:46Z</time>
      </trkpt>
      <trkpt lat="43.57137" lon="2.94685">
        <ele>283.6</ele>
        <time>2014-01-18T06:13:47Z</time>
      </trkpt>
      <trkpt lat="43.57138" lon="2.94671">
        <ele>283.6</ele>
        <time>2014-01-18T06:13:51Z</time>
      </trkpt>
      <trkpt lat="43.57144" lon="2.94649">
        <ele>284</ele>
        <time>2014-01-18T06:13:58Z</time>
      </trkpt>
      <trkpt lat="43.57146" lon="2.94647">
        <ele>284.4</ele>
        <time>2014-01-18T06:13:59Z</time>
      </trkpt>
      <trkpt lat="43.57147" lon="2.94644">
        <ele>284.8</ele>
        <time>2014-01-18T06:14:00Z</time>
      </trkpt>
      <trkpt lat="43.57148" lon="2.94641">
        <ele>285.2</ele>
        <time>2014-01-18T06:14:01Z</time>
      </trkpt>
      <trkpt lat="43.57149" lon="2.94639">
        <ele>285.6</ele>
        <time>2014-01-18T06:14:02Z</time>
      </trkpt>
      <trkpt lat="43.57156" lon="2.94626">
        <ele>286</ele>
        <time>2014-01-18T06:14:07Z</time>
      </trkpt>
      <trkpt lat="43.57158" lon="2.94623">
        <ele>286.4</ele>
        <time>2014-01-18T06:14:08Z</time>
      </trkpt>
      <trkpt lat="43.57159" lon="2.9462">
        <ele>287</ele>
        <time>2014-01-18T06:14:09Z</time>
      </trkpt>
      <trkpt lat="43.5716" lon="2.94617">
        <ele>287.4</ele>
        <time>2014-01-18T06:14:10Z</time>
      </trkpt>
      <trkpt lat="43.57161" lon="2.94614">
        <ele>287.8</ele>
        <time>2014-01-18T06:14:11Z</time>
      </trkpt>
      <trkpt lat="43.57168" lon="2.94597">
        <ele>288.2</ele>
        <time>2014-01-18T06:14:17Z</time>
      </trkpt>
      <trkpt lat="43.57169" lon="2.94595">
        <ele>288.6</ele>
        <time>2014-01-18T06:14:18Z</time>
      </trkpt>
      <trkpt lat="43.57171" lon="2.94593">
        <ele>289.6</ele>
        <time>2014-01-18T06:14:19Z</time>
      </trkpt>
      <trkpt lat="43.57172" lon="2.9459">
        <ele>290</ele>
        <time>2014-01-18T06:14:20Z</time>
      </trkpt>
      <trkpt lat="43.5718" lon="2.94577">
        <ele>290.4</ele>
        <time>2014-01-18T06:14:26Z</time>
      </trkpt>
      <trkpt lat="43.57182" lon="2.94575">
        <ele>290.8</ele>
        <time>2014-01-18T06:14:27Z</time>
      </trkpt>
      <trkpt lat="43.57184" lon="2.94573">
        <ele>291.2</ele>
        <time>2014-01-18T06:14:28Z</time>
      </trkpt>
      <trkpt lat="43.57185" lon="2.94571">
        <ele>291.6</ele>
        <time>2014-01-18T06:14:29Z</time>
      </trkpt>
      <trkpt lat="43.57187" lon="2.94569">
        <ele>292.2</ele>
        <time>2014-01-18T06:14:30Z</time>
      </trkpt>
      <trkpt lat="43.57193" lon="2.94565">
        <ele>292.2</ele>
        <time>2014-01-18T06:14:33Z</time>
      </trkpt>
      <trkpt lat="43.572" lon="2.94558">
        <ele>292.6</ele>
        <time>2014-01-18T06:14:37Z</time>
      </trkpt>
      <trkpt lat="43.57202" lon="2.94557">
        <ele>293</ele>
        <time>2014-01-18T06:14:38Z</time>
      </trkpt>
      <trkpt lat="43.57203" lon="2.94557">
        <ele>293.4</ele>
        <time>2014-01-18T06:14:39Z</time>
      </trkpt>
      <trkpt lat="43.57204" lon="2.94556">
        <ele>293.8</ele>
        <time>2014-01-18T06:14:40Z</time>
      </trkpt>
      <trkpt lat="43.57205" lon="2.94555">
        <ele>294.2</ele>
        <time>2014-01-18T06:14:41Z</time>
      </trkpt>
      <trkpt lat="43.57214" lon="2.94549">
        <ele>294.6</ele>
        <time>2014-01-18T06:14:47Z</time>
      </trkpt>
      <trkpt lat="43.57215" lon="2.94548">
        <ele>295</ele>
        <time>2014-01-18T06:14:48Z</time>
      </trkpt>
      <trkpt lat="43.57217" lon="2.94547">
        <ele>295.6</ele>
        <time>2014-01-18T06:14:49Z</time>
      </trkpt>
      <trkpt lat="43.57218" lon="2.94547">
        <ele>296</ele>
        <time>2014-01-18T06:14:50Z</time>
      </trkpt>
      <trkpt lat="43.5722" lon="2.94548">
        <ele>296.4</ele>
        <time>2014-01-18T06:14:51Z</time>
      </trkpt>
      <trkpt lat="43.57223" lon="2.9455">
        <ele>296.4</ele>
        <time>2014-01-18T06:14:53Z</time>
      </trkpt>
      <trkpt lat="43.57225" lon="2.94554">
        <ele>296.4</ele>
        <time>2014-01-18T06:14:55Z</time>
      </trkpt>
      <trkpt lat="43.57223" lon="2.94558">
        <ele>296.8</ele>
        <time>2014-01-18T06:14:57Z</time>
      </trkpt>
      <trkpt lat="43.57222" lon="2.9456">
        <ele>297.4</ele>
        <time>2014-01-18T06:14:58Z</time>
      </trkpt>
      <trkpt lat="43.57222" lon="2.94562">
        <ele>297.8</ele>
        <time>2014-01-18T06:14:59Z</time>
      </trkpt>
      <trkpt lat="43.57221" lon="2.94565">
        <ele>298.2</ele>
        <time>2014-01-18T06:15:00Z</time>
      </trkpt>
      <trkpt lat="43.57221" lon="2.94568">
        <ele>298.8</ele>
        <time>2014-01-18T06:15:01Z</time>
      </trkpt>
      <trkpt lat="43.57222" lon="2.94572">
        <ele>298.8</ele>
        <time>2014-01-18T06:15:03Z</time>
      </trkpt>
      <trkpt lat="43.57221" lon="2.94574">
        <ele>298.8</ele>
        <time>2014-01-18T06:15:04Z</time>
      </trkpt>
      <trkpt lat="43.57218" lon="2.94579">
        <ele>299.2</ele>
        <time>2014-01-18T06:15:07Z</time>
      </trkpt>
      <trkpt lat="43.57217" lon="2.94581">
        <ele>300</ele>
        <time>2014-01-18T06:15:08Z</time>
      </trkpt>
      <trkpt lat="43.57216" lon="2.94583">
        <ele>300.6</ele>
        <time>2014-01-18T06:15:09Z</time>
      </trkpt>
      <trkpt lat="43.57215" lon="2.94585">
        <ele>301</ele>
        <time>2014-01-18T06:15:10Z</time>
      </trkpt>
      <trkpt lat="43.57215" lon="2.94587">
        <ele>301</ele>
        <time>2014-01-18T06:15:11Z</time>
      </trkpt>
      <trkpt lat="43.57213" lon="2.94592">
        <ele>301.4</ele>
        <time>2014-01-18T06:15:14Z</time>
      </trkpt>
      <trkpt lat="43.57212" lon="2.94594">
        <ele>301.8</ele>
        <time>2014-01-18T06:15:15Z</time>
      </trkpt>
      <trkpt lat="43.57211" lon="2.94596">
        <ele>302.2</ele>
        <time>2014-01-18T06:15:16Z</time>
      </trkpt>
      <trkpt lat="43.5721" lon="2.94598">
        <ele>302.8</ele>
        <time>2014-01-18T06:15:17Z</time>
      </trkpt>
      <trkpt lat="43.57209" lon="2.946">
        <ele>303.2</ele>
        <time>2014-01-18T06:15:18Z</time>
      </trkpt>
      <trkpt lat="43.57206" lon="2.94608">
        <ele>303.2</ele>
        <time>2014-01-18T06:15:22Z</time>
      </trkpt>
      <trkpt lat="43.57205" lon="2.94611">
        <ele>303.6</ele>
        <time>2014-01-18T06:15:24Z</time>
      </trkpt>
      <trkpt lat="43.57204" lon="2.94613">
        <ele>304</ele>
        <time>2014-01-18T06:15:25Z</time>
      </trkpt>
      <trkpt lat="43.57204" lon="2.94615">
        <ele>304.6</ele>
        <time>2014-01-18T06:15:26Z</time>
      </trkpt>
      <trkpt lat="43.57204" lon="2.94617">
        <ele>305</ele>
        <time>2014-01-18T06:15:27Z</time>
      </trkpt>
      <trkpt lat="43.57203" lon="2.94619">
        <ele>305.4</ele>
        <time>2014-01-18T06:15:28Z</time>
      </trkpt>
      <trkpt lat="43.57202" lon="2.94627">
        <ele>305.4</ele>
        <time>2014-01-18T06:15:32Z</time>
      </trkpt>
      <trkpt lat="43.57202" lon="2.9463">
        <ele>305.8</ele>
        <time>2014-01-18T06:15:34Z</time>
      </trkpt>
      <trkpt lat="43.57202" lon="2.94632">
        <ele>306.2</ele>
        <time>2014-01-18T06:15:35Z</time>
      </trkpt>
      <trkpt lat="43.57202" lon="2.94634">
        <ele>306.6</ele>
        <time>2014-01-18T06:15:36Z</time>
      </trkpt>
      <trkpt lat="43.57202" lon="2.94636">
        <ele>307.2</ele>
        <time>2014-01-18T06:15:37Z</time>
      </trkpt>
      <trkpt lat="43.57203" lon="2.94637">
        <ele>307.6</ele>
        <time>2014-01-18T06:15:38Z</time>
      </trkpt>
      <trkpt lat="43.57203" lon="2.94639">
        <ele>307.6</ele>
        <time>2014-01-18T06:15:39Z</time>
      </trkpt>
      <trkpt lat="43.57203" lon="2.94646">
        <ele>308</ele>
        <time>2014-01-18T06:15:42Z</time>
      </trkpt>
      <trkpt lat="43.57203" lon="2.94648">
        <ele>308.4</ele>
        <time>2014-01-18T06:15:43Z</time>
      </trkpt>
      <trkpt lat="43.57203" lon="2.94649">
        <ele>309</ele>
        <time>2014-01-18T06:15:44Z</time>
      </trkpt>
      <trkpt lat="43.57203" lon="2.94651">
        <ele>309.4</ele>
        <time>2014-01-18T06:15:45Z</time>
      </trkpt>
      <trkpt lat="43.57204" lon="2.94653">
        <ele>309.8</ele>
        <time>2014-01-18T06:15:46Z</time>
      </trkpt>
      <trkpt lat="43.57205" lon="2.94657">
        <ele>310.4</ele>
        <time>2014-01-18T06:15:48Z</time>
      </trkpt>
      <trkpt lat="43.57205" lon="2.94659">
        <ele>310.8</ele>
        <time>2014-01-18T06:15:49Z</time>
      </trkpt>
      <trkpt lat="43.57206" lon="2.94661">
        <ele>311.2</ele>
        <time>2014-01-18T06:15:50Z</time>
      </trkpt>
      <trkpt lat="43.57207" lon="2.94663">
        <ele>311.6</ele>
        <time>2014-01-18T06:15:51Z</time>
      </trkpt>
      <trkpt lat="43.57207" lon="2.94665">
        <ele>312.2</ele>
        <time>2014-01-18T06:15:52Z</time>
      </trkpt>
      <trkpt lat="43.57208" lon="2.94667">
        <ele>312.2</ele>
        <time>2014-01-18T06:15:53Z</time>
      </trkpt>
      <trkpt lat="43.57211" lon="2.94678">
        <ele>312.6</ele>
        <time>2014-01-18T06:15:59Z</time>
      </trkpt>
      <trkpt lat="43.57212" lon="2.9468">
        <ele>313</ele>
        <time>2014-01-18T06:16:00Z</time>
      </trkpt>
      <trkpt lat="43.57212" lon="2.94682">
        <ele>313.4</ele>
        <time>2014-01-18T06:16:01Z</time>
      </trkpt>
      <trkpt lat="43.57212" lon="2.94684">
        <ele>313.8</ele>
        <time>2014-01-18T06:16:02Z</time>
      </trkpt>
      <trkpt lat="43.57213" lon="2.94685">
        <ele>314.2</ele>
        <time>2014-01-18T06:16:03Z</time>
      </trkpt>
      <trkpt lat="43.57216" lon="2.94693">
        <ele>314.8</ele>
        <time>2014-01-18T06:16:08Z</time>
      </trkpt>
      <trkpt lat="43.57217" lon="2.94695">
        <ele>315.2</ele>
        <time>2014-01-18T06:16:09Z</time>
      </trkpt>
      <trkpt lat="43.57217" lon="2.94697">
        <ele>315.6</ele>
        <time>2014-01-18T06:16:10Z</time>
      </trkpt>
      <trkpt lat="43.57218" lon="2.94699">
        <ele>316</ele>
        <time>2014-01-18T06:16:11Z</time>
      </trkpt>
      <trkpt lat="43.57219" lon="2.94701">
        <ele>316.4</ele>
        <time>2014-01-18T06:16:12Z</time>
      </trkpt>
      <trkpt lat="43.57224" lon="2.9471">
        <ele>316.8</ele>
        <time>2014-01-18T06:16:18Z</time>
      </trkpt>
      <trkpt lat="43.57225" lon="2.94711">
        <ele>317.4</ele>
        <time>2014-01-18T06:16:19Z</time>
      </trkpt>
      <trkpt lat="43.57227" lon="2.94713">
        <ele>317.8</ele>
        <time>2014-01-18T06:16:20Z</time>
      </trkpt>
      <trkpt lat="43.57228" lon="2.94714">
        <ele>318.2</ele>
        <time>2014-01-18T06:16:21Z</time>
      </trkpt>
      <trkpt lat="43.57229" lon="2.94715">
        <ele>318.6</ele>
        <time>2014-01-18T06:16:22Z</time>
      </trkpt>
      <trkpt lat="43.57231" lon="2.94718">
        <ele>319</ele>
        <time>2014-01-18T06:16:24Z</time>
      </trkpt>
      <trkpt lat="43.57232" lon="2.9472">
        <ele>319.4</ele>
        <time>2014-01-18T06:16:25Z</time>
      </trkpt>
      <trkpt lat="43.57233" lon="2.94722">
        <ele>319.8</ele>
        <time>2014-01-18T06:16:26Z</time>
      </trkpt>
      <trkpt lat="43.57234" lon="2.94723">
        <ele>320.2</ele>
        <time>2014-01-18T06:16:27Z</time>
      </trkpt>
      <trkpt lat="43.57235" lon="2.94724">
        <ele>320.6</ele>
        <time>2014-01-18T06:16:28Z</time>
      </trkpt>
      <trkpt lat="43.57239" lon="2.9473">
        <ele>320.6</ele>
        <time>2014-01-18T06:16:32Z</time>
      </trkpt>
      <trkpt lat="43.57241" lon="2.9474">
        <ele>321.2</ele>
        <time>2014-01-18T06:16:37Z</time>
      </trkpt>
      <trkpt lat="43.57242" lon="2.94743">
        <ele>321.6</ele>
        <time>2014-01-18T06:16:38Z</time>
      </trkpt>
      <trkpt lat="43.57244" lon="2.94745">
        <ele>322</ele>
        <time>2014-01-18T06:16:39Z</time>
      </trkpt>
      <trkpt lat="43.57245" lon="2.94747">
        <ele>322.4</ele>
        <time>2014-01-18T06:16:40Z</time>
      </trkpt>
      <trkpt lat="43.57246" lon="2.94749">
        <ele>322.8</ele>
        <time>2014-01-18T06:16:41Z</time>
      </trkpt>
      <trkpt lat="43.57252" lon="2.94754">
        <ele>322.8</ele>
        <time>2014-01-18T06:16:45Z</time>
      </trkpt>
      <trkpt lat="43.57257" lon="2.94761">
        <ele>323.2</ele>
        <time>2014-01-18T06:16:50Z</time>
      </trkpt>
      <trkpt lat="43.57259" lon="2.94763">
        <ele>323.6</ele>
        <time>2014-01-18T06:16:51Z</time>
      </trkpt>
      <trkpt lat="43.5726" lon="2.94765">
        <ele>324</ele>
        <time>2014-01-18T06:16:52Z</time>
      </trkpt>
      <trkpt lat="43.57261" lon="2.94767">
        <ele>324.4</ele>
        <time>2014-01-18T06:16:53Z</time>
      </trkpt>
      <trkpt lat="43.57262" lon="2.94768">
        <ele>324.8</ele>
        <time>2014-01-18T06:16:54Z</time>
      </trkpt>
      <trkpt lat="43.57268" lon="2.94774">
        <ele>324.8</ele>
        <time>2014-01-18T06:16:59Z</time>
      </trkpt>
      <trkpt lat="43.57271" lon="2.94776">
        <ele>325.2</ele>
        <time>2014-01-18T06:17:01Z</time>
      </trkpt>
      <trkpt lat="43.57273" lon="2.94777">
        <ele>325.8</ele>
        <time>2014-01-18T06:17:02Z</time>
      </trkpt>
      <trkpt lat="43.57274" lon="2.94778">
        <ele>326.2</ele>
        <time>2014-01-18T06:17:03Z</time>
      </trkpt>
      <trkpt lat="43.57276" lon="2.9478">
        <ele>326.6</ele>
        <time>2014-01-18T06:17:04Z</time>
      </trkpt>
      <trkpt lat="43.57277" lon="2.94781">
        <ele>327</ele>
        <time>2014-01-18T06:17:05Z</time>
      </trkpt>
      <trkpt lat="43.57287" lon="2.94789">
        <ele>327</ele>
        <time>2014-01-18T06:17:11Z</time>
      </trkpt>
      <trkpt lat="43.57297" lon="2.94798">
        <ele>327.4</ele>
        <time>2014-01-18T06:17:18Z</time>
      </trkpt>
      <trkpt lat="43.57298" lon="2.948">
        <ele>327.8</ele>
        <time>2014-01-18T06:17:19Z</time>
      </trkpt>
      <trkpt lat="43.573" lon="2.94801">
        <ele>328.4</ele>
        <time>2014-01-18T06:17:20Z</time>
      </trkpt>
      <trkpt lat="43.57301" lon="2.94802">
        <ele>328.8</ele>
        <time>2014-01-18T06:17:21Z</time>
      </trkpt>
      <trkpt lat="43.57303" lon="2.94803">
        <ele>329.2</ele>
        <time>2014-01-18T06:17:22Z</time>
      </trkpt>
      <trkpt lat="43.57307" lon="2.94808">
        <ele>329.2</ele>
        <time>2014-01-18T06:17:25Z</time>
      </trkpt>
      <trkpt lat="43.57312" lon="2.94813">
        <ele>329.6</ele>
        <time>2014-01-18T06:17:29Z</time>
      </trkpt>
      <trkpt lat="43.57314" lon="2.94814">
        <ele>330</ele>
        <time>2014-01-18T06:17:30Z</time>
      </trkpt>
      <trkpt lat="43.57315" lon="2.94815">
        <ele>330.4</ele>
        <time>2014-01-18T06:17:31Z</time>
      </trkpt>
      <trkpt lat="43.57316" lon="2.94817">
        <ele>330.8</ele>
        <time>2014-01-18T06:17:32Z</time>
      </trkpt>
      <trkpt lat="43.57318" lon="2.94819">
        <ele>331.2</ele>
        <time>2014-01-18T06:17:33Z</time>
      </trkpt>
      <trkpt lat="43.57322" lon="2.94826">
        <ele>331.6</ele>
        <time>2014-01-18T06:17:37Z</time>
      </trkpt>
      <trkpt lat="43.57323" lon="2.94828">
        <ele>332</ele>
        <time>2014-01-18T06:17:38Z</time>
      </trkpt>
      <trkpt lat="43.57324" lon="2.94831">
        <ele>332.4</ele>
        <time>2014-01-18T06:17:39Z</time>
      </trkpt>
      <trkpt lat="43.57324" lon="2.94833">
        <ele>333</ele>
        <time>2014-01-18T06:17:40Z</time>
      </trkpt>
      <trkpt lat="43.57325" lon="2.94835">
        <ele>333.4</ele>
        <time>2014-01-18T06:17:41Z</time>
      </trkpt>
      <trkpt lat="43.57326" lon="2.94847">
        <ele>333.4</ele>
        <time>2014-01-18T06:17:46Z</time>
      </trkpt>
      <trkpt lat="43.57325" lon="2.94851">
        <ele>333.8</ele>
        <time>2014-01-18T06:17:48Z</time>
      </trkpt>
      <trkpt lat="43.57325" lon="2.94854">
        <ele>334.2</ele>
        <time>2014-01-18T06:17:49Z</time>
      </trkpt>
      <trkpt lat="43.57324" lon="2.94857">
        <ele>334.6</ele>
        <time>2014-01-18T06:17:50Z</time>
      </trkpt>
      <trkpt lat="43.57323" lon="2.94859">
        <ele>335</ele>
        <time>2014-01-18T06:17:51Z</time>
      </trkpt>
      <trkpt lat="43.57323" lon="2.94862">
        <ele>335.4</ele>
        <time>2014-01-18T06:17:52Z</time>
      </trkpt>
      <trkpt lat="43.57318" lon="2.94876">
        <ele>335.4</ele>
        <time>2014-01-18T06:17:58Z</time>
      </trkpt>
      <trkpt lat="43.57317" lon="2.94879">
        <ele>335.8</ele>
        <time>2014-01-18T06:17:59Z</time>
      </trkpt>
      <trkpt lat="43.57316" lon="2.94881">
        <ele>336.2</ele>
        <time>2014-01-18T06:18:00Z</time>
      </trkpt>
      <trkpt lat="43.57316" lon="2.94883">
        <ele>337</ele>
        <time>2014-01-18T06:18:01Z</time>
      </trkpt>
      <trkpt lat="43.57315" lon="2.94885">
        <ele>337.4</ele>
        <time>2014-01-18T06:18:02Z</time>
      </trkpt>
      <trkpt lat="43.57313" lon="2.94893">
        <ele>337.8</ele>
        <time>2014-01-18T06:18:06Z</time>
      </trkpt>
      <trkpt lat="43.57313" lon="2.94896">
        <ele>338.2</ele>
        <time>2014-01-18T06:18:07Z</time>
      </trkpt>
      <trkpt lat="43.57312" lon="2.94898">
        <ele>338.6</ele>
        <time>2014-01-18T06:18:08Z</time>
      </trkpt>
      <trkpt lat="43.57312" lon="2.94901">
        <ele>339</ele>
        <time>2014-01-18T06:18:09Z</time>
      </trkpt>
      <trkpt lat="43.57311" lon="2.94903">
        <ele>339.4</ele>
        <time>2014-01-18T06:18:10Z</time>
      </trkpt>
      <trkpt lat="43.5731" lon="2.94911">
        <ele>339.4</ele>
        <time>2014-01-18T06:18:13Z</time>
      </trkpt>
      <trkpt lat="43.57308" lon="2.94915">
        <ele>339.8</ele>
        <time>2014-01-18T06:18:15Z</time>
      </trkpt>
      <trkpt lat="43.57308" lon="2.94917">
        <ele>340.2</ele>
        <time>2014-01-18T06:18:16Z</time>
      </trkpt>
      <trkpt lat="43.57307" lon="2.9492">
        <ele>340.6</ele>
        <time>2014-01-18T06:18:17Z</time>
      </trkpt>
      <trkpt lat="43.57307" lon="2.94922">
        <ele>341</ele>
        <time>2014-01-18T06:18:18Z</time>
      </trkpt>
      <trkpt lat="43.57307" lon="2.94925">
        <ele>341.4</ele>
        <time>2014-01-18T06:18:19Z</time>
      </trkpt>
      <trkpt lat="43.57306" lon="2.9493">
        <ele>341.4</ele>
        <time>2014-01-18T06:18:21Z</time>
      </trkpt>
      <trkpt lat="43.57304" lon="2.94941">
        <ele>341.8</ele>
        <time>2014-01-18T06:18:26Z</time>
      </trkpt>
      <trkpt lat="43.57304" lon="2.94943">
        <ele>342.2</ele>
        <time>2014-01-18T06:18:27Z</time>
      </trkpt>
      <trkpt lat="43.57304" lon="2.94946">
        <ele>342.6</ele>
        <time>2014-01-18T06:18:28Z</time>
      </trkpt>
      <trkpt lat="43.57304" lon="2.94948">
        <ele>343</ele>
        <time>2014-01-18T06:18:29Z</time>
      </trkpt>
      <trkpt lat="43.57304" lon="2.94951">
        <ele>343.6</ele>
        <time>2014-01-18T06:18:30Z</time>
      </trkpt>
      <trkpt lat="43.57303" lon="2.9496">
        <ele>343.6</ele>
        <time>2014-01-18T06:18:34Z</time>
      </trkpt>
      <trkpt lat="43.57303" lon="2.94962">
        <ele>344</ele>
        <time>2014-01-18T06:18:35Z</time>
      </trkpt>
      <trkpt lat="43.57303" lon="2.94965">
        <ele>344.4</ele>
        <time>2014-01-18T06:18:36Z</time>
      </trkpt>
      <trkpt lat="43.57303" lon="2.94967">
        <ele>344.8</ele>
        <time>2014-01-18T06:18:37Z</time>
      </trkpt>
      <trkpt lat="43.57303" lon="2.94969">
        <ele>345.2</ele>
        <time>2014-01-18T06:18:38Z</time>
      </trkpt>
      <trkpt lat="43.57303" lon="2.94972">
        <ele>345.8</ele>
        <time>2014-01-18T06:18:39Z</time>
      </trkpt>
      <trkpt lat="43.57303" lon="2.94982">
        <ele>345.8</ele>
        <time>2014-01-18T06:18:43Z</time>
      </trkpt>
      <trkpt lat="43.57304" lon="2.94987">
        <ele>346.2</ele>
        <time>2014-01-18T06:18:45Z</time>
      </trkpt>
      <trkpt lat="43.57304" lon="2.94989">
        <ele>346.6</ele>
        <time>2014-01-18T06:18:46Z</time>
      </trkpt>
      <trkpt lat="43.57304" lon="2.94991">
        <ele>347</ele>
        <time>2014-01-18T06:18:47Z</time>
      </trkpt>
      <trkpt lat="43.57304" lon="2.94993">
        <ele>347.4</ele>
        <time>2014-01-18T06:18:48Z</time>
      </trkpt>
      <trkpt lat="43.57305" lon="2.94996">
        <ele>348</ele>
        <time>2014-01-18T06:18:49Z</time>
      </trkpt>
      <trkpt lat="43.57305" lon="2.94998">
        <ele>348</ele>
        <time>2014-01-18T06:18:50Z</time>
      </trkpt>
      <trkpt lat="43.57307" lon="2.95008">
        <ele>348.4</ele>
        <time>2014-01-18T06:18:54Z</time>
      </trkpt>
      <trkpt lat="43.57307" lon="2.95011">
        <ele>348.8</ele>
        <time>2014-01-18T06:18:55Z</time>
      </trkpt>
      <trkpt lat="43.57307" lon="2.95013">
        <ele>349.2</ele>
        <time>2014-01-18T06:18:56Z</time>
      </trkpt>
      <trkpt lat="43.57307" lon="2.95016">
        <ele>349.6</ele>
        <time>2014-01-18T06:18:57Z</time>
      </trkpt>
      <trkpt lat="43.57307" lon="2.95018">
        <ele>350</ele>
        <time>2014-01-18T06:18:58Z</time>
      </trkpt>
      <trkpt lat="43.57314" lon="2.95029">
        <ele>350</ele>
        <time>2014-01-18T06:19:03Z</time>
      </trkpt>
      <trkpt lat="43.57316" lon="2.95029">
        <ele>350</ele>
        <time>2014-01-18T06:19:04Z</time>
      </trkpt>
      <trkpt lat="43.57321" lon="2.95024">
        <ele>350.4</ele>
        <time>2014-01-18T06:19:07Z</time>
      </trkpt>
      <trkpt lat="43.57321" lon="2.95021">
        <ele>351</ele>
        <time>2014-01-18T06:19:08Z</time>
      </trkpt>
      <trkpt lat="43.57322" lon="2.95019">
        <ele>351.4</ele>
        <time>2014-01-18T06:19:09Z</time>
      </trkpt>
      <trkpt lat="43.57322" lon="2.95016">
        <ele>352</ele>
        <time>2014-01-18T06:19:10Z</time>
      </trkpt>
      <trkpt lat="43.57322" lon="2.95013">
        <ele>352.4</ele>
        <time>2014-01-18T06:19:11Z</time>
      </trkpt>
      <trkpt lat="43.57322" lon="2.95003">
        <ele>352.4</ele>
        <time>2014-01-18T06:19:15Z</time>
      </trkpt>
      <trkpt lat="43.57323" lon="2.94991">
        <ele>352.8</ele>
        <time>2014-01-18T06:19:20Z</time>
      </trkpt>
      <trkpt lat="43.57323" lon="2.94988">
        <ele>353.2</ele>
        <time>2014-01-18T06:19:21Z</time>
      </trkpt>
      <trkpt lat="43.57323" lon="2.94986">
        <ele>353.6</ele>
        <time>2014-01-18T06:19:22Z</time>
      </trkpt>
      <trkpt lat="43.57323" lon="2.94984">
        <ele>354</ele>
        <time>2014-01-18T06:19:23Z</time>
      </trkpt>
      <trkpt lat="43.57324" lon="2.94981">
        <ele>354.4</ele>
        <time>2014-01-18T06:19:24Z</time>
      </trkpt>
      <trkpt lat="43.57326" lon="2.94972">
        <ele>354.4</ele>
        <time>2014-01-18T06:19:28Z</time>
      </trkpt>
      <trkpt lat="43.5733" lon="2.94961">
        <ele>354.8</ele>
        <time>2014-01-18T06:19:33Z</time>
      </trkpt>
      <trkpt lat="43.5733" lon="2.94959">
        <ele>355.4</ele>
        <time>2014-01-18T06:19:34Z</time>
      </trkpt>
      <trkpt lat="43.57331" lon="2.94957">
        <ele>355.8</ele>
        <time>2014-01-18T06:19:35Z</time>
      </trkpt>
      <trkpt lat="43.57332" lon="2.94955">
        <ele>356.2</ele>
        <time>2014-01-18T06:19:36Z</time>
      </trkpt>
      <trkpt lat="43.57333" lon="2.94953">
        <ele>356.6</ele>
        <time>2014-01-18T06:19:37Z</time>
      </trkpt>
      <trkpt lat="43.57338" lon="2.9494">
        <ele>356.6</ele>
        <time>2014-01-18T06:19:43Z</time>
      </trkpt>
      <trkpt lat="43.57339" lon="2.94936">
        <ele>357</ele>
        <time>2014-01-18T06:19:45Z</time>
      </trkpt>
      <trkpt lat="43.5734" lon="2.94934">
        <ele>357.4</ele>
        <time>2014-01-18T06:19:46Z</time>
      </trkpt>
      <trkpt lat="43.57341" lon="2.94932">
        <ele>357.8</ele>
        <time>2014-01-18T06:19:47Z</time>
      </trkpt>
      <trkpt lat="43.57342" lon="2.9493">
        <ele>358.4</ele>
        <time>2014-01-18T06:19:48Z</time>
      </trkpt>
      <trkpt lat="43.57343" lon="2.94928">
        <ele>358.8</ele>
        <time>2014-01-18T06:19:49Z</time>
      </trkpt>
      <trkpt lat="43.57344" lon="2.94926">
        <ele>358.8</ele>
        <time>2014-01-18T06:19:50Z</time>
      </trkpt>
      <trkpt lat="43.5735" lon="2.94915">
        <ele>358.8</ele>
        <time>2014-01-18T06:19:56Z</time>
      </trkpt>
      <trkpt lat="43.57351" lon="2.94913">
        <ele>359.2</ele>
        <time>2014-01-18T06:19:57Z</time>
      </trkpt>
      <trkpt lat="43.57353" lon="2.94911">
        <ele>359.6</ele>
        <time>2014-01-18T06:19:58Z</time>
      </trkpt>
      <trkpt lat="43.57354" lon="2.9491">
        <ele>360</ele>
        <time>2014-01-18T06:19:59Z</time>
      </trkpt>
      <trkpt lat="43.57355" lon="2.94908">
        <ele>360.4</ele>
        <time>2014-01-18T06:20:00Z</time>
      </trkpt>
      <trkpt lat="43.57356" lon="2.94907">
        <ele>360.8</ele>
        <time>2014-01-18T06:20:01Z</time>
      </trkpt>
      <trkpt lat="43.57357" lon="2.94905">
        <ele>360.8</ele>
        <time>2014-01-18T06:20:02Z</time>
      </trkpt>
      <trkpt lat="43.57364" lon="2.94892">
        <ele>361.2</ele>
        <time>2014-01-18T06:20:09Z</time>
      </trkpt>
      <trkpt lat="43.57365" lon="2.9489">
        <ele>361.6</ele>
        <time>2014-01-18T06:20:10Z</time>
      </trkpt>
      <trkpt lat="43.57366" lon="2.94888">
        <ele>362</ele>
        <time>2014-01-18T06:20:11Z</time>
      </trkpt>
      <trkpt lat="43.57367" lon="2.94886">
        <ele>362.4</ele>
        <time>2014-01-18T06:20:12Z</time>
      </trkpt>
      <trkpt lat="43.57368" lon="2.94884">
        <ele>362.8</ele>
        <time>2014-01-18T06:20:13Z</time>
      </trkpt>
      <trkpt lat="43.57374" lon="2.94874">
        <ele>362.8</ele>
        <time>2014-01-18T06:20:18Z</time>
      </trkpt>
      <trkpt lat="43.57375" lon="2.94871">
        <ele>363.2</ele>
        <time>2014-01-18T06:20:20Z</time>
      </trkpt>
      <trkpt lat="43.57377" lon="2.94869">
        <ele>363.6</ele>
        <time>2014-01-18T06:20:22Z</time>
      </trkpt>
      <trkpt lat="43.57378" lon="2.94867">
        <ele>364</ele>
        <time>2014-01-18T06:20:23Z</time>
      </trkpt>
      <trkpt lat="43.57379" lon="2.94865">
        <ele>364.4</ele>
        <time>2014-01-18T06:20:24Z</time>
      </trkpt>
      <trkpt lat="43.5738" lon="2.94863">
        <ele>364.8</ele>
        <time>2014-01-18T06:20:25Z</time>
      </trkpt>
      <trkpt lat="43.57382" lon="2.94858">
        <ele>364.8</ele>
        <time>2014-01-18T06:20:27Z</time>
      </trkpt>
      <trkpt lat="43.57387" lon="2.94846">
        <ele>365.2</ele>
        <time>2014-01-18T06:20:33Z</time>
      </trkpt>
      <trkpt lat="43.57388" lon="2.94844">
        <ele>365.8</ele>
        <time>2014-01-18T06:20:34Z</time>
      </trkpt>
      <trkpt lat="43.57389" lon="2.94842">
        <ele>366.2</ele>
        <time>2014-01-18T06:20:35Z</time>
      </trkpt>
      <trkpt lat="43.5739" lon="2.9484">
        <ele>366.6</ele>
        <time>2014-01-18T06:20:36Z</time>
      </trkpt>
      <trkpt lat="43.57392" lon="2.94838">
        <ele>367</ele>
        <time>2014-01-18T06:20:37Z</time>
      </trkpt>
      <trkpt lat="43.57394" lon="2.94831">
        <ele>367</ele>
        <time>2014-01-18T06:20:40Z</time>
      </trkpt>
      <trkpt lat="43.57396" lon="2.94826">
        <ele>367.4</ele>
        <time>2014-01-18T06:20:43Z</time>
      </trkpt>
      <trkpt lat="43.57397" lon="2.94824">
        <ele>367.8</ele>
        <time>2014-01-18T06:20:44Z</time>
      </trkpt>
      <trkpt lat="43.57397" lon="2.94822">
        <ele>368.4</ele>
        <time>2014-01-18T06:20:45Z</time>
      </trkpt>
      <trkpt lat="43.57398" lon="2.94819">
        <ele>368.8</ele>
        <time>2014-01-18T06:20:46Z</time>
      </trkpt>
      <trkpt lat="43.57398" lon="2.94817">
        <ele>369.2</ele>
        <time>2014-01-18T06:20:47Z</time>
      </trkpt>
      <trkpt lat="43.57395" lon="2.94804">
        <ele>369.2</ele>
        <time>2014-01-18T06:20:52Z</time>
      </trkpt>
      <trkpt lat="43.57392" lon="2.94798">
        <ele>370</ele>
        <time>2014-01-18T06:20:55Z</time>
      </trkpt>
      <trkpt lat="43.57391" lon="2.94796">
        <ele>370.4</ele>
        <time>2014-01-18T06:20:56Z</time>
      </trkpt>
      <trkpt lat="43.5739" lon="2.94794">
        <ele>370.8</ele>
        <time>2014-01-18T06:20:57Z</time>
      </trkpt>
      <trkpt lat="43.57389" lon="2.94792">
        <ele>371.2</ele>
        <time>2014-01-18T06:20:58Z</time>
      </trkpt>
      <trkpt lat="43.57382" lon="2.94782">
        <ele>371.2</ele>
        <time>2014-01-18T06:21:04Z</time>
      </trkpt>
      <trkpt lat="43.57381" lon="2.94778">
        <ele>371.8</ele>
        <time>2014-01-18T06:21:06Z</time>
      </trkpt>
      <trkpt lat="43.57379" lon="2.94776">
        <ele>372.2</ele>
        <time>2014-01-18T06:21:07Z</time>
      </trkpt>
      <trkpt lat="43.57378" lon="2.94774">
        <ele>372.6</ele>
        <time>2014-01-18T06:21:08Z</time>
      </trkpt>
      <trkpt lat="43.57377" lon="2.94772">
        <ele>373.2</ele>
        <time>2014-01-18T06:21:09Z</time>
      </trkpt>
      <trkpt lat="43.57376" lon="2.94769">
        <ele>373.6</ele>
        <time>2014-01-18T06:21:10Z</time>
      </trkpt>
      <trkpt lat="43.57373" lon="2.94757">
        <ele>373.6</ele>
        <time>2014-01-18T06:21:15Z</time>
      </trkpt>
      <trkpt lat="43.57373" lon="2.94754">
        <ele>374</ele>
        <time>2014-01-18T06:21:16Z</time>
      </trkpt>
      <trkpt lat="43.57372" lon="2.94752">
        <ele>374.4</ele>
        <time>2014-01-18T06:21:17Z</time>
      </trkpt>
      <trkpt lat="43.57372" lon="2.9475">
        <ele>375</ele>
        <time>2014-01-18T06:21:18Z</time>
      </trkpt>
      <trkpt lat="43.57372" lon="2.94748">
        <ele>375.4</ele>
        <time>2014-01-18T06:21:19Z</time>
      </trkpt>
      <trkpt lat="43.57371" lon="2.94746">
        <ele>376</ele>
        <time>2014-01-18T06:21:20Z</time>
      </trkpt>
      <trkpt lat="43.57369" lon="2.94734">
        <ele>376.4</ele>
        <time>2014-01-18T06:21:25Z</time>
      </trkpt>
      <trkpt lat="43.57369" lon="2.94731">
        <ele>376.8</ele>
        <time>2014-01-18T06:21:26Z</time>
      </trkpt>
      <trkpt lat="43.57368" lon="2.94729">
        <ele>377.2</ele>
        <time>2014-01-18T06:21:27Z</time>
      </trkpt>
      <trkpt lat="43.57368" lon="2.94726">
        <ele>377.8</ele>
        <time>2014-01-18T06:21:28Z</time>
      </trkpt>
      <trkpt lat="43.57367" lon="2.94724">
        <ele>378.2</ele>
        <time>2014-01-18T06:21:29Z</time>
      </trkpt>
      <trkpt lat="43.57368" lon="2.94713">
        <ele>378.2</ele>
        <time>2014-01-18T06:21:33Z</time>
      </trkpt>
      <trkpt lat="43.57368" lon="2.9471">
        <ele>378.6</ele>
        <time>2014-01-18T06:21:34Z</time>
      </trkpt>
      <trkpt lat="43.57368" lon="2.94708">
        <ele>379</ele>
        <time>2014-01-18T06:21:35Z</time>
      </trkpt>
      <trkpt lat="43.57369" lon="2.94705">
        <ele>379.6</ele>
        <time>2014-01-18T06:21:36Z</time>
      </trkpt>
      <trkpt lat="43.5737" lon="2.94703">
        <ele>380</ele>
        <time>2014-01-18T06:21:37Z</time>
      </trkpt>
      <trkpt lat="43.57372" lon="2.947">
        <ele>380.4</ele>
        <time>2014-01-18T06:21:38Z</time>
      </trkpt>
      <trkpt lat="43.57374" lon="2.94696">
        <ele>380.4</ele>
        <time>2014-01-18T06:21:40Z</time>
      </trkpt>
      <trkpt lat="43.57378" lon="2.94687">
        <ele>380.8</ele>
        <time>2014-01-18T06:21:44Z</time>
      </trkpt>
      <trkpt lat="43.57378" lon="2.94685">
        <ele>381.2</ele>
        <time>2014-01-18T06:21:45Z</time>
      </trkpt>
      <trkpt lat="43.57379" lon="2.94683">
        <ele>382.2</ele>
        <time>2014-01-18T06:21:46Z</time>
      </trkpt>
      <trkpt lat="43.5738" lon="2.94681">
        <ele>382.6</ele>
        <time>2014-01-18T06:21:47Z</time>
      </trkpt>
      <trkpt lat="43.57384" lon="2.94669">
        <ele>383</ele>
        <time>2014-01-18T06:21:53Z</time>
      </trkpt>
      <trkpt lat="43.57385" lon="2.94668">
        <ele>383.4</ele>
        <time>2014-01-18T06:21:54Z</time>
      </trkpt>
      <trkpt lat="43.57385" lon="2.94666">
        <ele>383.8</ele>
        <time>2014-01-18T06:21:55Z</time>
      </trkpt>
      <trkpt lat="43.57386" lon="2.94664">
        <ele>384.2</ele>
        <time>2014-01-18T06:21:56Z</time>
      </trkpt>
      <trkpt lat="43.57386" lon="2.94662">
        <ele>384.6</ele>
        <time>2014-01-18T06:21:57Z</time>
      </trkpt>
      <trkpt lat="43.57389" lon="2.94654">
        <ele>384.6</ele>
        <time>2014-01-18T06:22:01Z</time>
      </trkpt>
      <trkpt lat="43.57393" lon="2.94644">
        <ele>385</ele>
        <time>2014-01-18T06:22:06Z</time>
      </trkpt>
      <trkpt lat="43.57393" lon="2.94642">
        <ele>385.4</ele>
        <time>2014-01-18T06:22:07Z</time>
      </trkpt>
      <trkpt lat="43.57394" lon="2.9464">
        <ele>385.8</ele>
        <time>2014-01-18T06:22:08Z</time>
      </trkpt>
      <trkpt lat="43.57395" lon="2.94638">
        <ele>386.2</ele>
        <time>2014-01-18T06:22:09Z</time>
      </trkpt>
      <trkpt lat="43.57396" lon="2.94637">
        <ele>386.8</ele>
        <time>2014-01-18T06:22:10Z</time>
      </trkpt>
      <trkpt lat="43.57401" lon="2.94621">
        <ele>386.8</ele>
        <time>2014-01-18T06:22:17Z</time>
      </trkpt>
      <trkpt lat="43.57407" lon="2.94613">
        <ele>387.2</ele>
        <time>2014-01-18T06:22:22Z</time>
      </trkpt>
      <trkpt lat="43.57408" lon="2.94611">
        <ele>387.6</ele>
        <time>2014-01-18T06:22:23Z</time>
      </trkpt>
      <trkpt lat="43.57409" lon="2.94609">
        <ele>388</ele>
        <time>2014-01-18T06:22:24Z</time>
      </trkpt>
      <trkpt lat="43.5741" lon="2.94607">
        <ele>388.4</ele>
        <time>2014-01-18T06:22:25Z</time>
      </trkpt>
      <trkpt lat="43.57411" lon="2.94605">
        <ele>388.8</ele>
        <time>2014-01-18T06:22:26Z</time>
      </trkpt>
      <trkpt lat="43.57417" lon="2.94595">
        <ele>388.8</ele>
        <time>2014-01-18T06:22:32Z</time>
      </trkpt>
      <trkpt lat="43.5742" lon="2.9459">
        <ele>389.6</ele>
        <time>2014-01-18T06:22:35Z</time>
      </trkpt>
      <trkpt lat="43.57422" lon="2.94589">
        <ele>390</ele>
        <time>2014-01-18T06:22:36Z</time>
      </trkpt>
      <trkpt lat="43.57423" lon="2.94587">
        <ele>390.4</ele>
        <time>2014-01-18T06:22:37Z</time>
      </trkpt>
      <trkpt lat="43.57424" lon="2.94585">
        <ele>391</ele>
        <time>2014-01-18T06:22:38Z</time>
      </trkpt>
      <trkpt lat="43.57427" lon="2.94582">
        <ele>391</ele>
        <time>2014-01-18T06:22:40Z</time>
      </trkpt>
      <trkpt lat="43.5743" lon="2.9458">
        <ele>391.4</ele>
        <time>2014-01-18T06:22:42Z</time>
      </trkpt>
      <trkpt lat="43.57431" lon="2.94579">
        <ele>391.8</ele>
        <time>2014-01-18T06:22:43Z</time>
      </trkpt>
      <trkpt lat="43.57433" lon="2.94578">
        <ele>392.2</ele>
        <time>2014-01-18T06:22:44Z</time>
      </trkpt>
      <trkpt lat="43.57434" lon="2.94577">
        <ele>392.6</ele>
        <time>2014-01-18T06:22:45Z</time>
      </trkpt>
      <trkpt lat="43.57435" lon="2.94575">
        <ele>393.2</ele>
        <time>2014-01-18T06:22:46Z</time>
      </trkpt>
      <trkpt lat="43.57438" lon="2.94572">
        <ele>393.2</ele>
        <time>2014-01-18T06:22:48Z</time>
      </trkpt>
      <trkpt lat="43.57446" lon="2.94564">
        <ele>393.2</ele>
        <time>2014-01-18T06:22:54Z</time>
      </trkpt>
      <trkpt lat="43.57448" lon="2.94561">
        <ele>393.6</ele>
        <time>2014-01-18T06:22:56Z</time>
      </trkpt>
      <trkpt lat="43.5745" lon="2.94561">
        <ele>394</ele>
        <time>2014-01-18T06:22:57Z</time>
      </trkpt>
      <trkpt lat="43.57451" lon="2.9456">
        <ele>394.4</ele>
        <time>2014-01-18T06:22:58Z</time>
      </trkpt>
      <trkpt lat="43.57452" lon="2.94559">
        <ele>394.8</ele>
        <time>2014-01-18T06:22:59Z</time>
      </trkpt>
      <trkpt lat="43.57454" lon="2.94557">
        <ele>395.2</ele>
        <time>2014-01-18T06:23:00Z</time>
      </trkpt>
      <trkpt lat="43.57455" lon="2.94556">
        <ele>395.2</ele>
        <time>2014-01-18T06:23:01Z</time>
      </trkpt>
      <trkpt lat="43.57461" lon="2.9455">
        <ele>395.6</ele>
        <time>2014-01-18T06:23:05Z</time>
      </trkpt>
      <trkpt lat="43.57462" lon="2.94548">
        <ele>396</ele>
        <time>2014-01-18T06:23:06Z</time>
      </trkpt>
      <trkpt lat="43.57463" lon="2.94547">
        <ele>396.6</ele>
        <time>2014-01-18T06:23:07Z</time>
      </trkpt>
      <trkpt lat="43.57464" lon="2.94546">
        <ele>397</ele>
        <time>2014-01-18T06:23:08Z</time>
      </trkpt>
      <trkpt lat="43.57466" lon="2.94545">
        <ele>397.4</ele>
        <time>2014-01-18T06:23:09Z</time>
      </trkpt>
      <trkpt lat="43.57469" lon="2.94543">
        <ele>397.4</ele>
        <time>2014-01-18T06:23:11Z</time>
      </trkpt>
      <trkpt lat="43.57475" lon="2.94538">
        <ele>397.8</ele>
        <time>2014-01-18T06:23:15Z</time>
      </trkpt>
      <trkpt lat="43.57476" lon="2.94536">
        <ele>398.2</ele>
        <time>2014-01-18T06:23:16Z</time>
      </trkpt>
      <trkpt lat="43.57477" lon="2.94534">
        <ele>398.6</ele>
        <time>2014-01-18T06:23:17Z</time>
      </trkpt>
      <trkpt lat="43.57479" lon="2.94533">
        <ele>399</ele>
        <time>2014-01-18T06:23:18Z</time>
      </trkpt>
      <trkpt lat="43.5748" lon="2.94532">
        <ele>399.4</ele>
        <time>2014-01-18T06:23:19Z</time>
      </trkpt>
      <trkpt lat="43.57481" lon="2.9453">
        <ele>399.4</ele>
        <time>2014-01-18T06:23:20Z</time>
      </trkpt>
      <trkpt lat="43.57491" lon="2.94521">
        <ele>399.8</ele>
        <time>2014-01-18T06:23:27Z</time>
      </trkpt>
      <trkpt lat="43.57492" lon="2.9452">
        <ele>400.2</ele>
        <time>2014-01-18T06:23:28Z</time>
      </trkpt>
      <trkpt lat="43.57493" lon="2.94518">
        <ele>400.8</ele>
        <time>2014-01-18T06:23:29Z</time>
      </trkpt>
      <trkpt lat="43.57494" lon="2.94516">
        <ele>401.2</ele>
        <time>2014-01-18T06:23:30Z</time>
      </trkpt>
      <trkpt lat="43.57495" lon="2.94515">
        <ele>401.6</ele>
        <time>2014-01-18T06:23:31Z</time>
      </trkpt>
      <trkpt lat="43.57499" lon="2.94509">
        <ele>401.6</ele>
        <time>2014-01-18T06:23:35Z</time>
      </trkpt>
      <trkpt lat="43.57501" lon="2.94505">
        <ele>402</ele>
        <time>2014-01-18T06:23:37Z</time>
      </trkpt>
      <trkpt lat="43.57502" lon="2.94503">
        <ele>402.4</ele>
        <time>2014-01-18T06:23:38Z</time>
      </trkpt>
      <trkpt lat="43.57503" lon="2.94501">
        <ele>402.8</ele>
        <time>2014-01-18T06:23:39Z</time>
      </trkpt>
      <trkpt lat="43.57505" lon="2.94499">
        <ele>403.2</ele>
        <time>2014-01-18T06:23:40Z</time>
      </trkpt>
      <trkpt lat="43.57506" lon="2.94498">
        <ele>403.6</ele>
        <time>2014-01-18T06:23:41Z</time>
      </trkpt>
      <trkpt lat="43.57509" lon="2.94492">
        <ele>403.6</ele>
        <time>2014-01-18T06:23:44Z</time>
      </trkpt>
      <trkpt lat="43.57514" lon="2.94483">
        <ele>404.2</ele>
        <time>2014-01-18T06:23:49Z</time>
      </trkpt>
      <trkpt lat="43.57515" lon="2.94481">
        <ele>404.6</ele>
        <time>2014-01-18T06:23:50Z</time>
      </trkpt>
      <trkpt lat="43.57516" lon="2.94478">
        <ele>405</ele>
        <time>2014-01-18T06:23:51Z</time>
      </trkpt>
      <trkpt lat="43.57516" lon="2.94476">
        <ele>405.6</ele>
        <time>2014-01-18T06:23:52Z</time>
      </trkpt>
      <trkpt lat="43.57517" lon="2.94475">
        <ele>406</ele>
        <time>2014-01-18T06:23:53Z</time>
      </trkpt>
      <trkpt lat="43.57519" lon="2.94472">
        <ele>406</ele>
        <time>2014-01-18T06:23:55Z</time>
      </trkpt>
      <trkpt lat="43.5752" lon="2.94468">
        <ele>406</ele>
        <time>2014-01-18T06:23:57Z</time>
      </trkpt>
      <trkpt lat="43.57522" lon="2.94464">
        <ele>406.4</ele>
        <time>2014-01-18T06:23:59Z</time>
      </trkpt>
      <trkpt lat="43.57523" lon="2.94462">
        <ele>406.8</ele>
        <time>2014-01-18T06:24:00Z</time>
      </trkpt>
      <trkpt lat="43.57524" lon="2.94461">
        <ele>407.2</ele>
        <time>2014-01-18T06:24:01Z</time>
      </trkpt>
      <trkpt lat="43.57525" lon="2.94459">
        <ele>407.6</ele>
        <time>2014-01-18T06:24:02Z</time>
      </trkpt>
      <trkpt lat="43.57526" lon="2.94457">
        <ele>408.2</ele>
        <time>2014-01-18T06:24:03Z</time>
      </trkpt>
      <trkpt lat="43.57529" lon="2.94455">
        <ele>408.2</ele>
        <time>2014-01-18T06:24:05Z</time>
      </trkpt>
      <trkpt lat="43.57536" lon="2.94456">
        <ele>408.2</ele>
        <time>2014-01-18T06:24:09Z</time>
      </trkpt>
      <trkpt lat="43.57537" lon="2.94457">
        <ele>408.6</ele>
        <time>2014-01-18T06:24:10Z</time>
      </trkpt>
      <trkpt lat="43.57538" lon="2.94458">
        <ele>409</ele>
        <time>2014-01-18T06:24:11Z</time>
      </trkpt>
      <trkpt lat="43.5754" lon="2.94459">
        <ele>409.4</ele>
        <time>2014-01-18T06:24:12Z</time>
      </trkpt>
      <trkpt lat="43.57541" lon="2.94461">
        <ele>409.8</ele>
        <time>2014-01-18T06:24:13Z</time>
      </trkpt>
      <trkpt lat="43.57542" lon="2.94462">
        <ele>410.2</ele>
        <time>2014-01-18T06:24:14Z</time>
      </trkpt>
      <trkpt lat="43.57543" lon="2.94464">
        <ele>410.2</ele>
        <time>2014-01-18T06:24:15Z</time>
      </trkpt>
      <trkpt lat="43.57546" lon="2.94469">
        <ele>410.2</ele>
        <time>2014-01-18T06:24:18Z</time>
      </trkpt>
      <trkpt lat="43.57548" lon="2.94472">
        <ele>410.6</ele>
        <time>2014-01-18T06:24:20Z</time>
      </trkpt>
      <trkpt lat="43.5755" lon="2.94474">
        <ele>411</ele>
        <time>2014-01-18T06:24:21Z</time>
      </trkpt>
      <trkpt lat="43.57551" lon="2.94474">
        <ele>411.4</ele>
        <time>2014-01-18T06:24:22Z</time>
      </trkpt>
      <trkpt lat="43.57552" lon="2.94476">
        <ele>412</ele>
        <time>2014-01-18T06:24:23Z</time>
      </trkpt>
      <trkpt lat="43.57553" lon="2.94477">
        <ele>412.4</ele>
        <time>2014-01-18T06:24:24Z</time>
      </trkpt>
      <trkpt lat="43.57555" lon="2.94478">
        <ele>412.4</ele>
        <time>2014-01-18T06:24:26Z</time>
      </trkpt>
      <trkpt lat="43.57558" lon="2.9448">
        <ele>412.8</ele>
        <time>2014-01-18T06:24:28Z</time>
      </trkpt>
      <trkpt lat="43.5756" lon="2.94481">
        <ele>413.2</ele>
        <time>2014-01-18T06:24:29Z</time>
      </trkpt>
      <trkpt lat="43.57562" lon="2.94482">
        <ele>413.6</ele>
        <time>2014-01-18T06:24:30Z</time>
      </trkpt>
      <trkpt lat="43.57563" lon="2.94483">
        <ele>414</ele>
        <time>2014-01-18T06:24:31Z</time>
      </trkpt>
      <trkpt lat="43.57565" lon="2.94484">
        <ele>414.4</ele>
        <time>2014-01-18T06:24:32Z</time>
      </trkpt>
      <trkpt lat="43.57567" lon="2.94487">
        <ele>414.4</ele>
        <time>2014-01-18T06:24:34Z</time>
      </trkpt>
      <trkpt lat="43.57569" lon="2.94488">
        <ele>414.8</ele>
        <time>2014-01-18T06:24:35Z</time>
      </trkpt>
      <trkpt lat="43.5757" lon="2.94489">
        <ele>415.2</ele>
        <time>2014-01-18T06:24:36Z</time>
      </trkpt>
      <trkpt lat="43.57571" lon="2.9449">
        <ele>415.8</ele>
        <time>2014-01-18T06:24:37Z</time>
      </trkpt>
      <trkpt lat="43.57573" lon="2.94491">
        <ele>416.2</ele>
        <time>2014-01-18T06:24:38Z</time>
      </trkpt>
      <trkpt lat="43.57574" lon="2.94491">
        <ele>416.6</ele>
        <time>2014-01-18T06:24:39Z</time>
      </trkpt>
      <trkpt lat="43.57579" lon="2.94494">
        <ele>416.6</ele>
        <time>2014-01-18T06:24:42Z</time>
      </trkpt>
      <trkpt lat="43.57588" lon="2.94497">
        <ele>416.6</ele>
        <time>2014-01-18T06:24:48Z</time>
      </trkpt>
      <trkpt lat="43.576" lon="2.94501">
        <ele>417</ele>
        <time>2014-01-18T06:24:56Z</time>
      </trkpt>
      <trkpt lat="43.57602" lon="2.945">
        <ele>417.6</ele>
        <time>2014-01-18T06:24:57Z</time>
      </trkpt>
      <trkpt lat="43.57604" lon="2.94501">
        <ele>418</ele>
        <time>2014-01-18T06:24:58Z</time>
      </trkpt>
      <trkpt lat="43.57605" lon="2.945">
        <ele>418.4</ele>
        <time>2014-01-18T06:24:59Z</time>
      </trkpt>
      <trkpt lat="43.57607" lon="2.945">
        <ele>419</ele>
        <time>2014-01-18T06:25:00Z</time>
      </trkpt>
      <trkpt lat="43.5761" lon="2.94499">
        <ele>419</ele>
        <time>2014-01-18T06:25:02Z</time>
      </trkpt>
      <trkpt lat="43.57613" lon="2.94498">
        <ele>419.4</ele>
        <time>2014-01-18T06:25:04Z</time>
      </trkpt>
      <trkpt lat="43.57614" lon="2.94498">
        <ele>419.8</ele>
        <time>2014-01-18T06:25:05Z</time>
      </trkpt>
      <trkpt lat="43.57616" lon="2.94498">
        <ele>420.2</ele>
        <time>2014-01-18T06:25:06Z</time>
      </trkpt>
      <trkpt lat="43.57617" lon="2.94497">
        <ele>420.6</ele>
        <time>2014-01-18T06:25:07Z</time>
      </trkpt>
      <trkpt lat="43.57619" lon="2.94498">
        <ele>421.2</ele>
        <time>2014-01-18T06:25:08Z</time>
      </trkpt>
      <trkpt lat="43.5762" lon="2.94498">
        <ele>421.2</ele>
        <time>2014-01-18T06:25:09Z</time>
      </trkpt>
      <trkpt lat="43.57625" lon="2.94502">
        <ele>421.6</ele>
        <time>2014-01-18T06:25:12Z</time>
      </trkpt>
      <trkpt lat="43.57627" lon="2.94504">
        <ele>422</ele>
        <time>2014-01-18T06:25:13Z</time>
      </trkpt>
      <trkpt lat="43.57628" lon="2.94505">
        <ele>422.4</ele>
        <time>2014-01-18T06:25:14Z</time>
      </trkpt>
      <trkpt lat="43.5763" lon="2.94507">
        <ele>422.8</ele>
        <time>2014-01-18T06:25:15Z</time>
      </trkpt>
      <trkpt lat="43.57631" lon="2.94508">
        <ele>423.2</ele>
        <time>2014-01-18T06:25:16Z</time>
      </trkpt>
      <trkpt lat="43.57633" lon="2.94511">
        <ele>423.6</ele>
        <time>2014-01-18T06:25:18Z</time>
      </trkpt>
      <trkpt lat="43.57634" lon="2.94513">
        <ele>424.2</ele>
        <time>2014-01-18T06:25:19Z</time>
      </trkpt>
      <trkpt lat="43.57635" lon="2.94514">
        <ele>424.6</ele>
        <time>2014-01-18T06:25:20Z</time>
      </trkpt>
      <trkpt lat="43.57637" lon="2.94516">
        <ele>425</ele>
        <time>2014-01-18T06:25:21Z</time>
      </trkpt>
      <trkpt lat="43.57638" lon="2.94517">
        <ele>425.4</ele>
        <time>2014-01-18T06:25:22Z</time>
      </trkpt>
      <trkpt lat="43.57643" lon="2.94524">
        <ele>425.8</ele>
        <time>2014-01-18T06:25:26Z</time>
      </trkpt>
      <trkpt lat="43.57645" lon="2.94526">
        <ele>426.2</ele>
        <time>2014-01-18T06:25:27Z</time>
      </trkpt>
      <trkpt lat="43.57646" lon="2.94528">
        <ele>427.2</ele>
        <time>2014-01-18T06:25:28Z</time>
      </trkpt>
      <trkpt lat="43.57648" lon="2.9453">
        <ele>427.6</ele>
        <time>2014-01-18T06:25:29Z</time>
      </trkpt>
      <trkpt lat="43.57657" lon="2.94536">
        <ele>427.6</ele>
        <time>2014-01-18T06:25:34Z</time>
      </trkpt>
      <trkpt lat="43.57667" lon="2.94539">
        <ele>427.6</ele>
        <time>2014-01-18T06:25:39Z</time>
      </trkpt>
      <trkpt lat="43.57685" lon="2.94546">
        <ele>427.6</ele>
        <time>2014-01-18T06:25:46Z</time>
      </trkpt>
      <trkpt lat="43.577" lon="2.94552">
        <ele>427.6</ele>
        <time>2014-01-18T06:25:52Z</time>
      </trkpt>
      <trkpt lat="43.57716" lon="2.94567">
        <ele>427.6</ele>
        <time>2014-01-18T06:25:58Z</time>
      </trkpt>
      <trkpt lat="43.57739" lon="2.9459">
        <ele>427.6</ele>
        <time>2014-01-18T06:26:06Z</time>
      </trkpt>
      <trkpt lat="43.57755" lon="2.94602">
        <ele>427.6</ele>
        <time>2014-01-18T06:26:11Z</time>
      </trkpt>
      <trkpt lat="43.57761" lon="2.94606">
        <ele>427.6</ele>
        <time>2014-01-18T06:26:13Z</time>
      </trkpt>
      <trkpt lat="43.57773" lon="2.94611">
        <ele>427.6</ele>
        <time>2014-01-18T06:26:17Z</time>
      </trkpt>
      <trkpt lat="43.57795" lon="2.94614">
        <ele>427.6</ele>
        <time>2014-01-18T06:26:23Z</time>
      </trkpt>
      <trkpt lat="43.5782" lon="2.94612">
        <ele>427.6</ele>
        <time>2014-01-18T06:26:31Z</time>
      </trkpt>
      <trkpt lat="43.57841" lon="2.94605">
        <ele>427.6</ele>
        <time>2014-01-18T06:26:38Z</time>
      </trkpt>
      <trkpt lat="43.57856" lon="2.94593">
        <ele>427.6</ele>
        <time>2014-01-18T06:26:44Z</time>
      </trkpt>
      <trkpt lat="43.57872" lon="2.94578">
        <ele>427.6</ele>
        <time>2014-01-18T06:26:50Z</time>
      </trkpt>
      <trkpt lat="43.5789" lon="2.9457">
        <ele>427.6</ele>
        <time>2014-01-18T06:26:56Z</time>
      </trkpt>
      <trkpt lat="43.57903" lon="2.94567">
        <ele>428</ele>
        <time>2014-01-18T06:27:00Z</time>
      </trkpt>
      <trkpt lat="43.57906" lon="2.94566">
        <ele>428.4</ele>
        <time>2014-01-18T06:27:01Z</time>
      </trkpt>
      <trkpt lat="43.5791" lon="2.94567">
        <ele>428.8</ele>
        <time>2014-01-18T06:27:02Z</time>
      </trkpt>
      <trkpt lat="43.57913" lon="2.94567">
        <ele>429.2</ele>
        <time>2014-01-18T06:27:03Z</time>
      </trkpt>
      <trkpt lat="43.57917" lon="2.94567">
        <ele>429.8</ele>
        <time>2014-01-18T06:27:04Z</time>
      </trkpt>
      <trkpt lat="43.5793" lon="2.94574">
        <ele>429.8</ele>
        <time>2014-01-18T06:27:08Z</time>
      </trkpt>
      <trkpt lat="43.5794" lon="2.94581">
        <ele>429.8</ele>
        <time>2014-01-18T06:27:11Z</time>
      </trkpt>
      <trkpt lat="43.5795" lon="2.9459">
        <ele>429.8</ele>
        <time>2014-01-18T06:27:14Z</time>
      </trkpt>
      <trkpt lat="43.57965" lon="2.94605">
        <ele>429.8</ele>
        <time>2014-01-18T06:27:19Z</time>
      </trkpt>
      <trkpt lat="43.57982" lon="2.94618">
        <ele>429.8</ele>
        <time>2014-01-18T06:27:25Z</time>
      </trkpt>
      <trkpt lat="43.58" lon="2.94624">
        <ele>429.8</ele>
        <time>2014-01-18T06:27:30Z</time>
      </trkpt>
      <trkpt lat="43.58008" lon="2.94626">
        <ele>430.6</ele>
        <time>2014-01-18T06:27:32Z</time>
      </trkpt>
      <trkpt lat="43.58011" lon="2.94628">
        <ele>431</ele>
        <time>2014-01-18T06:27:33Z</time>
      </trkpt>
      <trkpt lat="43.58015" lon="2.94629">
        <ele>431.4</ele>
        <time>2014-01-18T06:27:34Z</time>
      </trkpt>
      <trkpt lat="43.58018" lon="2.94631">
        <ele>431.8</ele>
        <time>2014-01-18T06:27:35Z</time>
      </trkpt>
      <trkpt lat="43.58021" lon="2.94633">
        <ele>431.8</ele>
        <time>2014-01-18T06:27:36Z</time>
      </trkpt>
      <trkpt lat="43.58042" lon="2.94642">
        <ele>431.8</ele>
        <time>2014-01-18T06:27:43Z</time>
      </trkpt>
      <trkpt lat="43.58055" lon="2.94647">
        <ele>431.8</ele>
        <time>2014-01-18T06:27:48Z</time>
      </trkpt>
      <trkpt lat="43.58057" lon="2.94648">
        <ele>432.2</ele>
        <time>2014-01-18T06:27:49Z</time>
      </trkpt>
      <trkpt lat="43.58059" lon="2.94648">
        <ele>432.8</ele>
        <time>2014-01-18T06:27:50Z</time>
      </trkpt>
      <trkpt lat="43.58061" lon="2.94649">
        <ele>433.2</ele>
        <time>2014-01-18T06:27:51Z</time>
      </trkpt>
      <trkpt lat="43.58062" lon="2.94649">
        <ele>433.6</ele>
        <time>2014-01-18T06:27:52Z</time>
      </trkpt>
      <trkpt lat="43.58064" lon="2.9465">
        <ele>434</ele>
        <time>2014-01-18T06:27:53Z</time>
      </trkpt>
      <trkpt lat="43.58066" lon="2.94651">
        <ele>434</ele>
        <time>2014-01-18T06:27:54Z</time>
      </trkpt>
      <trkpt lat="43.58071" lon="2.94653">
        <ele>434.6</ele>
        <time>2014-01-18T06:27:57Z</time>
      </trkpt>
      <trkpt lat="43.58073" lon="2.94654">
        <ele>435</ele>
        <time>2014-01-18T06:27:58Z</time>
      </trkpt>
      <trkpt lat="43.58075" lon="2.94654">
        <ele>435.4</ele>
        <time>2014-01-18T06:27:59Z</time>
      </trkpt>
      <trkpt lat="43.58077" lon="2.94654">
        <ele>435.8</ele>
        <time>2014-01-18T06:28:00Z</time>
      </trkpt>
      <trkpt lat="43.5808" lon="2.94655">
        <ele>436.2</ele>
        <time>2014-01-18T06:28:01Z</time>
      </trkpt>
      <trkpt lat="43.58088" lon="2.94657">
        <ele>436.2</ele>
        <time>2014-01-18T06:28:07Z</time>
      </trkpt>
      <trkpt lat="43.58091" lon="2.94658">
        <ele>436.6</ele>
        <time>2014-01-18T06:28:09Z</time>
      </trkpt>
      <trkpt lat="43.58092" lon="2.94658">
        <ele>437</ele>
        <time>2014-01-18T06:28:10Z</time>
      </trkpt>
      <trkpt lat="43.58094" lon="2.94658">
        <ele>437.4</ele>
        <time>2014-01-18T06:28:11Z</time>
      </trkpt>
      <trkpt lat="43.58095" lon="2.94658">
        <ele>437.8</ele>
        <time>2014-01-18T06:28:12Z</time>
      </trkpt>
      <trkpt lat="43.58097" lon="2.94658">
        <ele>438.2</ele>
        <time>2014-01-18T06:28:13Z</time>
      </trkpt>
      <trkpt lat="43.58106" lon="2.94661">
        <ele>438.2</ele>
        <time>2014-01-18T06:28:18Z</time>
      </trkpt>
      <trkpt lat="43.58108" lon="2.94661">
        <ele>438.6</ele>
        <time>2014-01-18T06:28:19Z</time>
      </trkpt>
      <trkpt lat="43.58109" lon="2.94661">
        <ele>439</ele>
        <time>2014-01-18T06:28:20Z</time>
      </trkpt>
      <trkpt lat="43.58111" lon="2.94661">
        <ele>439.8</ele>
        <time>2014-01-18T06:28:21Z</time>
      </trkpt>
      <trkpt lat="43.58113" lon="2.94662">
        <ele>440.2</ele>
        <time>2014-01-18T06:28:22Z</time>
      </trkpt>
      <trkpt lat="43.58114" lon="2.94662">
        <ele>440.2</ele>
        <time>2014-01-18T06:28:23Z</time>
      </trkpt>
      <trkpt lat="43.58126" lon="2.94663">
        <ele>440.2</ele>
        <time>2014-01-18T06:28:30Z</time>
      </trkpt>
      <trkpt lat="43.58127" lon="2.94664">
        <ele>440.8</ele>
        <time>2014-01-18T06:28:31Z</time>
      </trkpt>
      <trkpt lat="43.58129" lon="2.94664">
        <ele>441.2</ele>
        <time>2014-01-18T06:28:32Z</time>
      </trkpt>
      <trkpt lat="43.58131" lon="2.94665">
        <ele>441.6</ele>
        <time>2014-01-18T06:28:33Z</time>
      </trkpt>
      <trkpt lat="43.58133" lon="2.94665">
        <ele>442</ele>
        <time>2014-01-18T06:28:34Z</time>
      </trkpt>
      <trkpt lat="43.58135" lon="2.94665">
        <ele>442.4</ele>
        <time>2014-01-18T06:28:35Z</time>
      </trkpt>
      <trkpt lat="43.58137" lon="2.94666">
        <ele>442.4</ele>
        <time>2014-01-18T06:28:36Z</time>
      </trkpt>
      <trkpt lat="43.58145" lon="2.94665">
        <ele>443</ele>
        <time>2014-01-18T06:28:41Z</time>
      </trkpt>
      <trkpt lat="43.58146" lon="2.94665">
        <ele>443.4</ele>
        <time>2014-01-18T06:28:42Z</time>
      </trkpt>
      <trkpt lat="43.58147" lon="2.94665">
        <ele>443.8</ele>
        <time>2014-01-18T06:28:43Z</time>
      </trkpt>
      <trkpt lat="43.58149" lon="2.94665">
        <ele>444.2</ele>
        <time>2014-01-18T06:28:44Z</time>
      </trkpt>
      <trkpt lat="43.58149" lon="2.94664">
        <ele>444.6</ele>
        <time>2014-01-18T06:28:45Z</time>
      </trkpt>
      <trkpt lat="43.58151" lon="2.94664">
        <ele>444.6</ele>
        <time>2014-01-18T06:28:46Z</time>
      </trkpt>
      <trkpt lat="43.5816" lon="2.94664">
        <ele>445</ele>
        <time>2014-01-18T06:28:51Z</time>
      </trkpt>
      <trkpt lat="43.58162" lon="2.94664">
        <ele>445.6</ele>
        <time>2014-01-18T06:28:52Z</time>
      </trkpt>
      <trkpt lat="43.58164" lon="2.94664">
        <ele>446</ele>
        <time>2014-01-18T06:28:53Z</time>
      </trkpt>
      <trkpt lat="43.58165" lon="2.94663">
        <ele>446.4</ele>
        <time>2014-01-18T06:28:54Z</time>
      </trkpt>
      <trkpt lat="43.58167" lon="2.94662">
        <ele>446.8</ele>
        <time>2014-01-18T06:28:55Z</time>
      </trkpt>
      <trkpt lat="43.58173" lon="2.94662">
        <ele>446.8</ele>
        <time>2014-01-18T06:28:58Z</time>
      </trkpt>
      <trkpt lat="43.58178" lon="2.94664">
        <ele>447.2</ele>
        <time>2014-01-18T06:29:01Z</time>
      </trkpt>
      <trkpt lat="43.5818" lon="2.94665">
        <ele>447.6</ele>
        <time>2014-01-18T06:29:02Z</time>
      </trkpt>
      <trkpt lat="43.58182" lon="2.94665">
        <ele>448</ele>
        <time>2014-01-18T06:29:03Z</time>
      </trkpt>
      <trkpt lat="43.58183" lon="2.94664">
        <ele>448.4</ele>
        <time>2014-01-18T06:29:04Z</time>
      </trkpt>
      <trkpt lat="43.58185" lon="2.94664">
        <ele>448.8</ele>
        <time>2014-01-18T06:29:05Z</time>
      </trkpt>
      <trkpt lat="43.58189" lon="2.94663">
        <ele>448.8</ele>
        <time>2014-01-18T06:29:09Z</time>
      </trkpt>
      <trkpt lat="43.58191" lon="2.94663">
        <ele>449.2</ele>
        <time>2014-01-18T06:29:10Z</time>
      </trkpt>
      <trkpt lat="43.58193" lon="2.94664">
        <ele>449.6</ele>
        <time>2014-01-18T06:29:11Z</time>
      </trkpt>
      <trkpt lat="43.58195" lon="2.94664">
        <ele>450</ele>
        <time>2014-01-18T06:29:12Z</time>
      </trkpt>
      <trkpt lat="43.58196" lon="2.94665">
        <ele>450.6</ele>
        <time>2014-01-18T06:29:13Z</time>
      </trkpt>
      <trkpt lat="43.58198" lon="2.94665">
        <ele>451</ele>
        <time>2014-01-18T06:29:14Z</time>
      </trkpt>
      <trkpt lat="43.58204" lon="2.94665">
        <ele>451</ele>
        <time>2014-01-18T06:29:19Z</time>
      </trkpt>
      <trkpt lat="43.58209" lon="2.94665">
        <ele>451.4</ele>
        <time>2014-01-18T06:29:22Z</time>
      </trkpt>
      <trkpt lat="43.58211" lon="2.94664">
        <ele>451.8</ele>
        <time>2014-01-18T06:29:23Z</time>
      </trkpt>
      <trkpt lat="43.58212" lon="2.94663">
        <ele>452.2</ele>
        <time>2014-01-18T06:29:24Z</time>
      </trkpt>
      <trkpt lat="43.58213" lon="2.94663">
        <ele>452.6</ele>
        <time>2014-01-18T06:29:25Z</time>
      </trkpt>
      <trkpt lat="43.58215" lon="2.94663">
        <ele>453</ele>
        <time>2014-01-18T06:29:26Z</time>
      </trkpt>
      <trkpt lat="43.5822" lon="2.94663">
        <ele>453</ele>
        <time>2014-01-18T06:29:30Z</time>
      </trkpt>
      <trkpt lat="43.58222" lon="2.94663">
        <ele>453.4</ele>
        <time>2014-01-18T06:29:31Z</time>
      </trkpt>
      <trkpt lat="43.58224" lon="2.94663">
        <ele>453.8</ele>
        <time>2014-01-18T06:29:32Z</time>
      </trkpt>
      <trkpt lat="43.58226" lon="2.94663">
        <ele>454.2</ele>
        <time>2014-01-18T06:29:33Z</time>
      </trkpt>
      <trkpt lat="43.58227" lon="2.94664">
        <ele>454.6</ele>
        <time>2014-01-18T06:29:34Z</time>
      </trkpt>
      <trkpt lat="43.58228" lon="2.94664">
        <ele>455</ele>
        <time>2014-01-18T06:29:35Z</time>
      </trkpt>
      <trkpt lat="43.58232" lon="2.94664">
        <ele>455</ele>
        <time>2014-01-18T06:29:37Z</time>
      </trkpt>
      <trkpt lat="43.58239" lon="2.94666">
        <ele>455.4</ele>
        <time>2014-01-18T06:29:40Z</time>
      </trkpt>
      <trkpt lat="43.58241" lon="2.94667">
        <ele>455.8</ele>
        <time>2014-01-18T06:29:41Z</time>
      </trkpt>
      <trkpt lat="43.58243" lon="2.94668">
        <ele>456.4</ele>
        <time>2014-01-18T06:29:42Z</time>
      </trkpt>
      <trkpt lat="43.58245" lon="2.94668">
        <ele>456.8</ele>
        <time>2014-01-18T06:29:43Z</time>
      </trkpt>
      <trkpt lat="43.58247" lon="2.94669">
        <ele>457.2</ele>
        <time>2014-01-18T06:29:44Z</time>
      </trkpt>
      <trkpt lat="43.58256" lon="2.94674">
        <ele>457.6</ele>
        <time>2014-01-18T06:29:50Z</time>
      </trkpt>
      <trkpt lat="43.58257" lon="2.94674">
        <ele>458</ele>
        <time>2014-01-18T06:29:51Z</time>
      </trkpt>
      <trkpt lat="43.58258" lon="2.94675">
        <ele>458.4</ele>
        <time>2014-01-18T06:29:52Z</time>
      </trkpt>
      <trkpt lat="43.5826" lon="2.94675">
        <ele>458.8</ele>
        <time>2014-01-18T06:29:53Z</time>
      </trkpt>
      <trkpt lat="43.58261" lon="2.94675">
        <ele>459.4</ele>
        <time>2014-01-18T06:29:54Z</time>
      </trkpt>
      <trkpt lat="43.58267" lon="2.94675">
        <ele>459.4</ele>
        <time>2014-01-18T06:29:57Z</time>
      </trkpt>
      <trkpt lat="43.58269" lon="2.94675">
        <ele>459.8</ele>
        <time>2014-01-18T06:29:58Z</time>
      </trkpt>
      <trkpt lat="43.58271" lon="2.94675">
        <ele>460.2</ele>
        <time>2014-01-18T06:29:59Z</time>
      </trkpt>
      <trkpt lat="43.58272" lon="2.94675">
        <ele>461</ele>
        <time>2014-01-18T06:30:00Z</time>
      </trkpt>
      <trkpt lat="43.58274" lon="2.94675">
        <ele>461.4</ele>
        <time>2014-01-18T06:30:01Z</time>
      </trkpt>
      <trkpt lat="43.58278" lon="2.94675">
        <ele>461.4</ele>
        <time>2014-01-18T06:30:03Z</time>
      </trkpt>
      <trkpt lat="43.58282" lon="2.94673">
        <ele>461.8</ele>
        <time>2014-01-18T06:30:05Z</time>
      </trkpt>
      <trkpt lat="43.58283" lon="2.94673">
        <ele>462.2</ele>
        <time>2014-01-18T06:30:06Z</time>
      </trkpt>
      <trkpt lat="43.58284" lon="2.94672">
        <ele>462.6</ele>
        <time>2014-01-18T06:30:07Z</time>
      </trkpt>
      <trkpt lat="43.58286" lon="2.94671">
        <ele>463</ele>
        <time>2014-01-18T06:30:08Z</time>
      </trkpt>
      <trkpt lat="43.58287" lon="2.9467">
        <ele>463.4</ele>
        <time>2014-01-18T06:30:09Z</time>
      </trkpt>
      <trkpt lat="43.58288" lon="2.9467">
        <ele>463.4</ele>
        <time>2014-01-18T06:30:10Z</time>
      </trkpt>
      <trkpt lat="43.58289" lon="2.94669">
        <ele>463.4</ele>
        <time>2014-01-18T06:30:11Z</time>
      </trkpt>
      <trkpt lat="43.58294" lon="2.94666">
        <ele>463.4</ele>
        <time>2014-01-18T06:30:15Z</time>
      </trkpt>
      <trkpt lat="43.58295" lon="2.94665">
        <ele>463.8</ele>
        <time>2014-01-18T06:30:16Z</time>
      </trkpt>
      <trkpt lat="43.58297" lon="2.94664">
        <ele>464.2</ele>
        <time>2014-01-18T06:30:17Z</time>
      </trkpt>
      <trkpt lat="43.58298" lon="2.94663">
        <ele>464.6</ele>
        <time>2014-01-18T06:30:18Z</time>
      </trkpt>
      <trkpt lat="43.58299" lon="2.94662">
        <ele>465.2</ele>
        <time>2014-01-18T06:30:19Z</time>
      </trkpt>
      <trkpt lat="43.58301" lon="2.94661">
        <ele>465.6</ele>
        <time>2014-01-18T06:30:20Z</time>
      </trkpt>
      <trkpt lat="43.58303" lon="2.94661">
        <ele>465.6</ele>
        <time>2014-01-18T06:30:21Z</time>
      </trkpt>
      <trkpt lat="43.5831" lon="2.94658">
        <ele>466</ele>
        <time>2014-01-18T06:30:25Z</time>
      </trkpt>
      <trkpt lat="43.58311" lon="2.94658">
        <ele>466.4</ele>
        <time>2014-01-18T06:30:26Z</time>
      </trkpt>
      <trkpt lat="43.58313" lon="2.94657">
        <ele>466.8</ele>
        <time>2014-01-18T06:30:27Z</time>
      </trkpt>
      <trkpt lat="43.58315" lon="2.94655">
        <ele>467.2</ele>
        <time>2014-01-18T06:30:28Z</time>
      </trkpt>
      <trkpt lat="43.58317" lon="2.94655">
        <ele>467.6</ele>
        <time>2014-01-18T06:30:29Z</time>
      </trkpt>
      <trkpt lat="43.58324" lon="2.94649">
        <ele>467.6</ele>
        <time>2014-01-18T06:30:34Z</time>
      </trkpt>
      <trkpt lat="43.58328" lon="2.94646">
        <ele>468</ele>
        <time>2014-01-18T06:30:36Z</time>
      </trkpt>
      <trkpt lat="43.5833" lon="2.94645">
        <ele>468.4</ele>
        <time>2014-01-18T06:30:37Z</time>
      </trkpt>
      <trkpt lat="43.58332" lon="2.94644">
        <ele>468.8</ele>
        <time>2014-01-18T06:30:38Z</time>
      </trkpt>
      <trkpt lat="43.58334" lon="2.94644">
        <ele>469.2</ele>
        <time>2014-01-18T06:30:39Z</time>
      </trkpt>
      <trkpt lat="43.58337" lon="2.94643">
        <ele>469.6</ele>
        <time>2014-01-18T06:30:40Z</time>
      </trkpt>
      <trkpt lat="43.58347" lon="2.94639">
        <ele>469.6</ele>
        <time>2014-01-18T06:30:45Z</time>
      </trkpt>
      <trkpt lat="43.58349" lon="2.94638">
        <ele>469.6</ele>
        <time>2014-01-18T06:30:46Z</time>
      </trkpt>
      <trkpt lat="43.5835" lon="2.94638">
        <ele>469.6</ele>
        <time>2014-01-18T06:30:47Z</time>
      </trkpt>
      <trkpt lat="43.58358" lon="2.94632">
        <ele>469.6</ele>
        <time>2014-01-18T06:30:51Z</time>
      </trkpt>
      <trkpt lat="43.58361" lon="2.94629">
        <ele>469.6</ele>
        <time>2014-01-18T06:30:52Z</time>
      </trkpt>
      <trkpt lat="43.58363" lon="2.94623">
        <ele>469.6</ele>
        <time>2014-01-18T06:30:54Z</time>
      </trkpt>
      <trkpt lat="43.58363" lon="2.94618">
        <ele>469.6</ele>
        <time>2014-01-18T06:30:55Z</time>
      </trkpt>
      <trkpt lat="43.58363" lon="2.94596">
        <ele>469.6</ele>
        <time>2014-01-18T06:31:01Z</time>
      </trkpt>
      <trkpt lat="43.58363" lon="2.94581">
        <ele>469.6</ele>
        <time>2014-01-18T06:31:05Z</time>
      </trkpt>
      <trkpt lat="43.58362" lon="2.94566">
        <ele>469.6</ele>
        <time>2014-01-18T06:31:09Z</time>
      </trkpt>
      <trkpt lat="43.5836" lon="2.9456">
        <ele>469.6</ele>
        <time>2014-01-18T06:31:11Z</time>
      </trkpt>
      <trkpt lat="43.58358" lon="2.94553">
        <ele>469.6</ele>
        <time>2014-01-18T06:31:13Z</time>
      </trkpt>
      <trkpt lat="43.58352" lon="2.94529">
        <ele>469.6</ele>
        <time>2014-01-18T06:31:20Z</time>
      </trkpt>
      <trkpt lat="43.5835" lon="2.94521">
        <ele>470.2</ele>
        <time>2014-01-18T06:31:23Z</time>
      </trkpt>
      <trkpt lat="43.58349" lon="2.94517">
        <ele>470.6</ele>
        <time>2014-01-18T06:31:24Z</time>
      </trkpt>
      <trkpt lat="43.58348" lon="2.94513">
        <ele>471</ele>
        <time>2014-01-18T06:31:25Z</time>
      </trkpt>
      <trkpt lat="43.58348" lon="2.9451">
        <ele>471.4</ele>
        <time>2014-01-18T06:31:26Z</time>
      </trkpt>
      <trkpt lat="43.58348" lon="2.94506">
        <ele>471.8</ele>
        <time>2014-01-18T06:31:27Z</time>
      </trkpt>
      <trkpt lat="43.58347" lon="2.94498">
        <ele>472.2</ele>
        <time>2014-01-18T06:31:30Z</time>
      </trkpt>
      <trkpt lat="43.58346" lon="2.94496">
        <ele>472.6</ele>
        <time>2014-01-18T06:31:31Z</time>
      </trkpt>
      <trkpt lat="43.58347" lon="2.94494">
        <ele>473</ele>
        <time>2014-01-18T06:31:32Z</time>
      </trkpt>
      <trkpt lat="43.58346" lon="2.94492">
        <ele>473.4</ele>
        <time>2014-01-18T06:31:33Z</time>
      </trkpt>
      <trkpt lat="43.58346" lon="2.94489">
        <ele>473.8</ele>
        <time>2014-01-18T06:31:34Z</time>
      </trkpt>
      <trkpt lat="43.58345" lon="2.94487">
        <ele>473.8</ele>
        <time>2014-01-18T06:31:35Z</time>
      </trkpt>
      <trkpt lat="43.58345" lon="2.94481">
        <ele>473.8</ele>
        <time>2014-01-18T06:31:38Z</time>
      </trkpt>
      <trkpt lat="43.58345" lon="2.9448">
        <ele>474.2</ele>
        <time>2014-01-18T06:31:39Z</time>
      </trkpt>
      <trkpt lat="43.58344" lon="2.94478">
        <ele>474.6</ele>
        <time>2014-01-18T06:31:40Z</time>
      </trkpt>
      <trkpt lat="43.58344" lon="2.94475">
        <ele>475</ele>
        <time>2014-01-18T06:31:41Z</time>
      </trkpt>
      <trkpt lat="43.58343" lon="2.94473">
        <ele>475.4</ele>
        <time>2014-01-18T06:31:42Z</time>
      </trkpt>
      <trkpt lat="43.58342" lon="2.94472">
        <ele>475.8</ele>
        <time>2014-01-18T06:31:43Z</time>
      </trkpt>
      <trkpt lat="43.58339" lon="2.94468">
        <ele>475.8</ele>
        <time>2014-01-18T06:31:45Z</time>
      </trkpt>
      <trkpt lat="43.58336" lon="2.94466">
        <ele>475.8</ele>
        <time>2014-01-18T06:31:47Z</time>
      </trkpt>
      <trkpt lat="43.58331" lon="2.94462">
        <ele>476.2</ele>
        <time>2014-01-18T06:31:50Z</time>
      </trkpt>
      <trkpt lat="43.58329" lon="2.94462">
        <ele>476.6</ele>
        <time>2014-01-18T06:31:51Z</time>
      </trkpt>
      <trkpt lat="43.58328" lon="2.94462">
        <ele>477</ele>
        <time>2014-01-18T06:31:52Z</time>
      </trkpt>
      <trkpt lat="43.58326" lon="2.94461">
        <ele>477.6</ele>
        <time>2014-01-18T06:31:53Z</time>
      </trkpt>
      <trkpt lat="43.58325" lon="2.94461">
        <ele>478</ele>
        <time>2014-01-18T06:31:54Z</time>
      </trkpt>
      <trkpt lat="43.58318" lon="2.94461">
        <ele>478</ele>
        <time>2014-01-18T06:31:58Z</time>
      </trkpt>
      <trkpt lat="43.58312" lon="2.94457">
        <ele>478.4</ele>
        <time>2014-01-18T06:32:03Z</time>
      </trkpt>
      <trkpt lat="43.58311" lon="2.94455">
        <ele>479.2</ele>
        <time>2014-01-18T06:32:04Z</time>
      </trkpt>
      <trkpt lat="43.5831" lon="2.94454">
        <ele>479.6</ele>
        <time>2014-01-18T06:32:05Z</time>
      </trkpt>
      <trkpt lat="43.58308" lon="2.94453">
        <ele>480</ele>
        <time>2014-01-18T06:32:06Z</time>
      </trkpt>
      <trkpt lat="43.58306" lon="2.94439">
        <ele>480</ele>
        <time>2014-01-18T06:32:12Z</time>
      </trkpt>
      <trkpt lat="43.58306" lon="2.94434">
        <ele>480.4</ele>
        <time>2014-01-18T06:32:14Z</time>
      </trkpt>
      <trkpt lat="43.58305" lon="2.94432">
        <ele>480.8</ele>
        <time>2014-01-18T06:32:15Z</time>
      </trkpt>
      <trkpt lat="43.58305" lon="2.9443">
        <ele>481.2</ele>
        <time>2014-01-18T06:32:16Z</time>
      </trkpt>
      <trkpt lat="43.58305" lon="2.94428">
        <ele>481.6</ele>
        <time>2014-01-18T06:32:17Z</time>
      </trkpt>
      <trkpt lat="43.58304" lon="2.94426">
        <ele>482</ele>
        <time>2014-01-18T06:32:18Z</time>
      </trkpt>
      <trkpt lat="43.58302" lon="2.94413">
        <ele>482</ele>
        <time>2014-01-18T06:32:24Z</time>
      </trkpt>
      <trkpt lat="43.58299" lon="2.94402">
        <ele>482.8</ele>
        <time>2014-01-18T06:32:29Z</time>
      </trkpt>
      <trkpt lat="43.58298" lon="2.94399">
        <ele>483.2</ele>
        <time>2014-01-18T06:32:30Z</time>
      </trkpt>
      <trkpt lat="43.58298" lon="2.94397">
        <ele>483.6</ele>
        <time>2014-01-18T06:32:31Z</time>
      </trkpt>
      <trkpt lat="43.58297" lon="2.94396">
        <ele>484</ele>
        <time>2014-01-18T06:32:32Z</time>
      </trkpt>
      <trkpt lat="43.58293" lon="2.94384">
        <ele>484</ele>
        <time>2014-01-18T06:32:37Z</time>
      </trkpt>
      <trkpt lat="43.5829" lon="2.94371">
        <ele>484.4</ele>
        <time>2014-01-18T06:32:43Z</time>
      </trkpt>
      <trkpt lat="43.5829" lon="2.94369">
        <ele>484.8</ele>
        <time>2014-01-18T06:32:44Z</time>
      </trkpt>
      <trkpt lat="43.5829" lon="2.94366">
        <ele>485.2</ele>
        <time>2014-01-18T06:32:45Z</time>
      </trkpt>
      <trkpt lat="43.58291" lon="2.94364">
        <ele>485.6</ele>
        <time>2014-01-18T06:32:46Z</time>
      </trkpt>
      <trkpt lat="43.58292" lon="2.94361">
        <ele>486</ele>
        <time>2014-01-18T06:32:47Z</time>
      </trkpt>
      <trkpt lat="43.58293" lon="2.94359">
        <ele>486</ele>
        <time>2014-01-18T06:32:48Z</time>
      </trkpt>
      <trkpt lat="43.58294" lon="2.94356">
        <ele>486</ele>
        <time>2014-01-18T06:32:49Z</time>
      </trkpt>
      <trkpt lat="43.58301" lon="2.94343">
        <ele>486</ele>
        <time>2014-01-18T06:32:54Z</time>
      </trkpt>
      <trkpt lat="43.5831" lon="2.94329">
        <ele>486.4</ele>
        <time>2014-01-18T06:33:00Z</time>
      </trkpt>
      <trkpt lat="43.58312" lon="2.94327">
        <ele>486.8</ele>
        <time>2014-01-18T06:33:01Z</time>
      </trkpt>
      <trkpt lat="43.58313" lon="2.94324">
        <ele>487.2</ele>
        <time>2014-01-18T06:33:02Z</time>
      </trkpt>
      <trkpt lat="43.58315" lon="2.94322">
        <ele>487.6</ele>
        <time>2014-01-18T06:33:03Z</time>
      </trkpt>
      <trkpt lat="43.58317" lon="2.94319">
        <ele>488.2</ele>
        <time>2014-01-18T06:33:04Z</time>
      </trkpt>
      <trkpt lat="43.58321" lon="2.94312">
        <ele>488.2</ele>
        <time>2014-01-18T06:33:07Z</time>
      </trkpt>
      <trkpt lat="43.58329" lon="2.94291">
        <ele>488.6</ele>
        <time>2014-01-18T06:33:14Z</time>
      </trkpt>
      <trkpt lat="43.5833" lon="2.94289">
        <ele>489</ele>
        <time>2014-01-18T06:33:15Z</time>
      </trkpt>
      <trkpt lat="43.58331" lon="2.94286">
        <ele>489.4</ele>
        <time>2014-01-18T06:33:16Z</time>
      </trkpt>
      <trkpt lat="43.58333" lon="2.94283">
        <ele>489.8</ele>
        <time>2014-01-18T06:33:17Z</time>
      </trkpt>
      <trkpt lat="43.58334" lon="2.9428">
        <ele>490.2</ele>
        <time>2014-01-18T06:33:18Z</time>
      </trkpt>
      <trkpt lat="43.58339" lon="2.94269">
        <ele>490.2</ele>
        <time>2014-01-18T06:33:22Z</time>
      </trkpt>
      <trkpt lat="43.5834" lon="2.94262">
        <ele>490.6</ele>
        <time>2014-01-18T06:33:24Z</time>
      </trkpt>
      <trkpt lat="43.58341" lon="2.94259">
        <ele>491</ele>
        <time>2014-01-18T06:33:25Z</time>
      </trkpt>
      <trkpt lat="43.58341" lon="2.94256">
        <ele>491.4</ele>
        <time>2014-01-18T06:33:26Z</time>
      </trkpt>
      <trkpt lat="43.58342" lon="2.94253">
        <ele>491.8</ele>
        <time>2014-01-18T06:33:27Z</time>
      </trkpt>
      <trkpt lat="43.58343" lon="2.9425">
        <ele>492.2</ele>
        <time>2014-01-18T06:33:28Z</time>
      </trkpt>
      <trkpt lat="43.58349" lon="2.94233">
        <ele>492.6</ele>
        <time>2014-01-18T06:33:34Z</time>
      </trkpt>
      <trkpt lat="43.58349" lon="2.94229">
        <ele>493</ele>
        <time>2014-01-18T06:33:35Z</time>
      </trkpt>
      <trkpt lat="43.5835" lon="2.94226">
        <ele>493.4</ele>
        <time>2014-01-18T06:33:36Z</time>
      </trkpt>
      <trkpt lat="43.5835" lon="2.94223">
        <ele>493.8</ele>
        <time>2014-01-18T06:33:37Z</time>
      </trkpt>
      <trkpt lat="43.58351" lon="2.9422">
        <ele>494.2</ele>
        <time>2014-01-18T06:33:38Z</time>
      </trkpt>
      <trkpt lat="43.58353" lon="2.94204">
        <ele>494.6</ele>
        <time>2014-01-18T06:33:43Z</time>
      </trkpt>
      <trkpt lat="43.58354" lon="2.94202">
        <ele>495.2</ele>
        <time>2014-01-18T06:33:44Z</time>
      </trkpt>
      <trkpt lat="43.58355" lon="2.94199">
        <ele>495.6</ele>
        <time>2014-01-18T06:33:45Z</time>
      </trkpt>
      <trkpt lat="43.58357" lon="2.94197">
        <ele>496</ele>
        <time>2014-01-18T06:33:46Z</time>
      </trkpt>
      <trkpt lat="43.58358" lon="2.94194">
        <ele>496.4</ele>
        <time>2014-01-18T06:33:47Z</time>
      </trkpt>
      <trkpt lat="43.58364" lon="2.94181">
        <ele>496.4</ele>
        <time>2014-01-18T06:33:52Z</time>
      </trkpt>
      <trkpt lat="43.58365" lon="2.94178">
        <ele>496.8</ele>
        <time>2014-01-18T06:33:53Z</time>
      </trkpt>
      <trkpt lat="43.58367" lon="2.94176">
        <ele>497.2</ele>
        <time>2014-01-18T06:33:54Z</time>
      </trkpt>
      <trkpt lat="43.58367" lon="2.94173">
        <ele>497.6</ele>
        <time>2014-01-18T06:33:55Z</time>
      </trkpt>
      <trkpt lat="43.58367" lon="2.9417">
        <ele>498</ele>
        <time>2014-01-18T06:33:56Z</time>
      </trkpt>
      <trkpt lat="43.58368" lon="2.94168">
        <ele>498.4</ele>
        <time>2014-01-18T06:33:57Z</time>
      </trkpt>
      <trkpt lat="43.5837" lon="2.94166">
        <ele>498.4</ele>
        <time>2014-01-18T06:33:58Z</time>
      </trkpt>
      <trkpt lat="43.58379" lon="2.94161">
        <ele>498.4</ele>
        <time>2014-01-18T06:34:03Z</time>
      </trkpt>
      <trkpt lat="43.58381" lon="2.94161">
        <ele>499</ele>
        <time>2014-01-18T06:34:04Z</time>
      </trkpt>
      <trkpt lat="43.58383" lon="2.94161">
        <ele>499.4</ele>
        <time>2014-01-18T06:34:05Z</time>
      </trkpt>
      <trkpt lat="43.58385" lon="2.94161">
        <ele>499.8</ele>
        <time>2014-01-18T06:34:06Z</time>
      </trkpt>
      <trkpt lat="43.58386" lon="2.94162">
        <ele>500.2</ele>
        <time>2014-01-18T06:34:07Z</time>
      </trkpt>
      <trkpt lat="43.58388" lon="2.94161">
        <ele>500.8</ele>
        <time>2014-01-18T06:34:08Z</time>
      </trkpt>
      <trkpt lat="43.58391" lon="2.94162">
        <ele>500.8</ele>
        <time>2014-01-18T06:34:10Z</time>
      </trkpt>
      <trkpt lat="43.58397" lon="2.94167">
        <ele>501.2</ele>
        <time>2014-01-18T06:34:14Z</time>
      </trkpt>
      <trkpt lat="43.58399" lon="2.94169">
        <ele>501.6</ele>
        <time>2014-01-18T06:34:15Z</time>
      </trkpt>
      <trkpt lat="43.584" lon="2.9417">
        <ele>502</ele>
        <time>2014-01-18T06:34:16Z</time>
      </trkpt>
      <trkpt lat="43.58402" lon="2.94172">
        <ele>502.4</ele>
        <time>2014-01-18T06:34:17Z</time>
      </trkpt>
      <trkpt lat="43.58403" lon="2.94174">
        <ele>502.8</ele>
        <time>2014-01-18T06:34:18Z</time>
      </trkpt>
      <trkpt lat="43.58411" lon="2.94179">
        <ele>502.8</ele>
        <time>2014-01-18T06:34:23Z</time>
      </trkpt>
      <trkpt lat="43.58415" lon="2.94182">
        <ele>503.2</ele>
        <time>2014-01-18T06:34:26Z</time>
      </trkpt>
      <trkpt lat="43.58416" lon="2.94183">
        <ele>503.6</ele>
        <time>2014-01-18T06:34:27Z</time>
      </trkpt>
      <trkpt lat="43.58418" lon="2.94184">
        <ele>504</ele>
        <time>2014-01-18T06:34:28Z</time>
      </trkpt>
      <trkpt lat="43.58419" lon="2.94185">
        <ele>504.4</ele>
        <time>2014-01-18T06:34:29Z</time>
      </trkpt>
      <trkpt lat="43.58421" lon="2.94186">
        <ele>504.8</ele>
        <time>2014-01-18T06:34:30Z</time>
      </trkpt>
      <trkpt lat="43.58429" lon="2.9419">
        <ele>505.2</ele>
        <time>2014-01-18T06:34:35Z</time>
      </trkpt>
      <trkpt lat="43.58431" lon="2.94191">
        <ele>505.6</ele>
        <time>2014-01-18T06:34:36Z</time>
      </trkpt>
      <trkpt lat="43.58432" lon="2.94191">
        <ele>506</ele>
        <time>2014-01-18T06:34:37Z</time>
      </trkpt>
      <trkpt lat="43.58434" lon="2.94192">
        <ele>506.4</ele>
        <time>2014-01-18T06:34:38Z</time>
      </trkpt>
      <trkpt lat="43.58436" lon="2.94193">
        <ele>506.8</ele>
        <time>2014-01-18T06:34:39Z</time>
      </trkpt>
      <trkpt lat="43.5844" lon="2.94195">
        <ele>506.8</ele>
        <time>2014-01-18T06:34:42Z</time>
      </trkpt>
      <trkpt lat="43.58446" lon="2.94197">
        <ele>507.2</ele>
        <time>2014-01-18T06:34:46Z</time>
      </trkpt>
      <trkpt lat="43.58448" lon="2.94197">
        <ele>507.6</ele>
        <time>2014-01-18T06:34:47Z</time>
      </trkpt>
      <trkpt lat="43.58449" lon="2.94197">
        <ele>508</ele>
        <time>2014-01-18T06:34:48Z</time>
      </trkpt>
      <trkpt lat="43.58451" lon="2.94198">
        <ele>508.4</ele>
        <time>2014-01-18T06:34:49Z</time>
      </trkpt>
      <trkpt lat="43.58452" lon="2.94199">
        <ele>508.8</ele>
        <time>2014-01-18T06:34:50Z</time>
      </trkpt>
      <trkpt lat="43.58459" lon="2.942">
        <ele>508.8</ele>
        <time>2014-01-18T06:34:54Z</time>
      </trkpt>
      <trkpt lat="43.58465" lon="2.94202">
        <ele>509.4</ele>
        <time>2014-01-18T06:34:58Z</time>
      </trkpt>
      <trkpt lat="43.58467" lon="2.94203">
        <ele>510</ele>
        <time>2014-01-18T06:34:59Z</time>
      </trkpt>
      <trkpt lat="43.58468" lon="2.94203">
        <ele>510.6</ele>
        <time>2014-01-18T06:35:00Z</time>
      </trkpt>
      <trkpt lat="43.58469" lon="2.94204">
        <ele>511</ele>
        <time>2014-01-18T06:35:01Z</time>
      </trkpt>
      <trkpt lat="43.58471" lon="2.94205">
        <ele>511.6</ele>
        <time>2014-01-18T06:35:02Z</time>
      </trkpt>
      <trkpt lat="43.58478" lon="2.94209">
        <ele>511.6</ele>
        <time>2014-01-18T06:35:06Z</time>
      </trkpt>
      <trkpt lat="43.58488" lon="2.94212">
        <ele>512.2</ele>
        <time>2014-01-18T06:35:13Z</time>
      </trkpt>
      <trkpt lat="43.5849" lon="2.94212">
        <ele>512.6</ele>
        <time>2014-01-18T06:35:14Z</time>
      </trkpt>
      <trkpt lat="43.58492" lon="2.94212">
        <ele>513.2</ele>
        <time>2014-01-18T06:35:15Z</time>
      </trkpt>
      <trkpt lat="43.58494" lon="2.94212">
        <ele>513.6</ele>
        <time>2014-01-18T06:35:16Z</time>
      </trkpt>
      <trkpt lat="43.58496" lon="2.94213">
        <ele>514</ele>
        <time>2014-01-18T06:35:17Z</time>
      </trkpt>
      <trkpt lat="43.58499" lon="2.94214">
        <ele>514</ele>
        <time>2014-01-18T06:35:19Z</time>
      </trkpt>
      <trkpt lat="43.58501" lon="2.94214">
        <ele>514</ele>
        <time>2014-01-18T06:35:20Z</time>
      </trkpt>
      <trkpt lat="43.5851" lon="2.94215">
        <ele>514.4</ele>
        <time>2014-01-18T06:35:26Z</time>
      </trkpt>
      <trkpt lat="43.58512" lon="2.94215">
        <ele>514.8</ele>
        <time>2014-01-18T06:35:27Z</time>
      </trkpt>
      <trkpt lat="43.58514" lon="2.94215">
        <ele>515.4</ele>
        <time>2014-01-18T06:35:28Z</time>
      </trkpt>
      <trkpt lat="43.58516" lon="2.94215">
        <ele>515.8</ele>
        <time>2014-01-18T06:35:29Z</time>
      </trkpt>
      <trkpt lat="43.58518" lon="2.94216">
        <ele>516.2</ele>
        <time>2014-01-18T06:35:30Z</time>
      </trkpt>
      <trkpt lat="43.58524" lon="2.94214">
        <ele>516.2</ele>
        <time>2014-01-18T06:35:34Z</time>
      </trkpt>
      <trkpt lat="43.5853" lon="2.94213">
        <ele>516.6</ele>
        <time>2014-01-18T06:35:38Z</time>
      </trkpt>
      <trkpt lat="43.58532" lon="2.94214">
        <ele>517</ele>
        <time>2014-01-18T06:35:39Z</time>
      </trkpt>
      <trkpt lat="43.58534" lon="2.94213">
        <ele>517.4</ele>
        <time>2014-01-18T06:35:40Z</time>
      </trkpt>
      <trkpt lat="43.58536" lon="2.94213">
        <ele>517.8</ele>
        <time>2014-01-18T06:35:41Z</time>
      </trkpt>
      <trkpt lat="43.58538" lon="2.94213">
        <ele>518.4</ele>
        <time>2014-01-18T06:35:42Z</time>
      </trkpt>
      <trkpt lat="43.58545" lon="2.9421">
        <ele>518.4</ele>
        <time>2014-01-18T06:35:47Z</time>
      </trkpt>
      <trkpt lat="43.58549" lon="2.94209">
        <ele>518.8</ele>
        <time>2014-01-18T06:35:49Z</time>
      </trkpt>
      <trkpt lat="43.58551" lon="2.94208">
        <ele>519.2</ele>
        <time>2014-01-18T06:35:50Z</time>
      </trkpt>
      <trkpt lat="43.58552" lon="2.94207">
        <ele>519.6</ele>
        <time>2014-01-18T06:35:51Z</time>
      </trkpt>
      <trkpt lat="43.58554" lon="2.94206">
        <ele>520</ele>
        <time>2014-01-18T06:35:52Z</time>
      </trkpt>
      <trkpt lat="43.58555" lon="2.94206">
        <ele>520.4</ele>
        <time>2014-01-18T06:35:53Z</time>
      </trkpt>
      <trkpt lat="43.58565" lon="2.94203">
        <ele>520.4</ele>
        <time>2014-01-18T06:35:59Z</time>
      </trkpt>
      <trkpt lat="43.58567" lon="2.94202">
        <ele>520.8</ele>
        <time>2014-01-18T06:36:00Z</time>
      </trkpt>
      <trkpt lat="43.58569" lon="2.94201">
        <ele>521.2</ele>
        <time>2014-01-18T06:36:01Z</time>
      </trkpt>
      <trkpt lat="43.58571" lon="2.94201">
        <ele>521.6</ele>
        <time>2014-01-18T06:36:02Z</time>
      </trkpt>
      <trkpt lat="43.58573" lon="2.942">
        <ele>522</ele>
        <time>2014-01-18T06:36:03Z</time>
      </trkpt>
      <trkpt lat="43.58574" lon="2.942">
        <ele>522.4</ele>
        <time>2014-01-18T06:36:04Z</time>
      </trkpt>
      <trkpt lat="43.58575" lon="2.94199">
        <ele>522.4</ele>
        <time>2014-01-18T06:36:05Z</time>
      </trkpt>
      <trkpt lat="43.58581" lon="2.94197">
        <ele>522.8</ele>
        <time>2014-01-18T06:36:09Z</time>
      </trkpt>
      <trkpt lat="43.58583" lon="2.94196">
        <ele>523.2</ele>
        <time>2014-01-18T06:36:10Z</time>
      </trkpt>
      <trkpt lat="43.58584" lon="2.94195">
        <ele>523.8</ele>
        <time>2014-01-18T06:36:11Z</time>
      </trkpt>
      <trkpt lat="43.58585" lon="2.94194">
        <ele>524.6</ele>
        <time>2014-01-18T06:36:12Z</time>
      </trkpt>
      <trkpt lat="43.58596" lon="2.94193">
        <ele>524.6</ele>
        <time>2014-01-18T06:36:18Z</time>
      </trkpt>
      <trkpt lat="43.58601" lon="2.94192">
        <ele>525</ele>
        <time>2014-01-18T06:36:21Z</time>
      </trkpt>
      <trkpt lat="43.58603" lon="2.94192">
        <ele>525.4</ele>
        <time>2014-01-18T06:36:22Z</time>
      </trkpt>
      <trkpt lat="43.58605" lon="2.94192">
        <ele>525.8</ele>
        <time>2014-01-18T06:36:23Z</time>
      </trkpt>
      <trkpt lat="43.58607" lon="2.94192">
        <ele>526.4</ele>
        <time>2014-01-18T06:36:24Z</time>
      </trkpt>
      <trkpt lat="43.58608" lon="2.94192">
        <ele>526.8</ele>
        <time>2014-01-18T06:36:25Z</time>
      </trkpt>
      <trkpt lat="43.58616" lon="2.94192">
        <ele>527.2</ele>
        <time>2014-01-18T06:36:30Z</time>
      </trkpt>
      <trkpt lat="43.58618" lon="2.94192">
        <ele>527.6</ele>
        <time>2014-01-18T06:36:31Z</time>
      </trkpt>
      <trkpt lat="43.58619" lon="2.94192">
        <ele>528</ele>
        <time>2014-01-18T06:36:32Z</time>
      </trkpt>
      <trkpt lat="43.58621" lon="2.94192">
        <ele>528.4</ele>
        <time>2014-01-18T06:36:33Z</time>
      </trkpt>
      <trkpt lat="43.58623" lon="2.94192">
        <ele>528.8</ele>
        <time>2014-01-18T06:36:34Z</time>
      </trkpt>
      <trkpt lat="43.5863" lon="2.94189">
        <ele>528.8</ele>
        <time>2014-01-18T06:36:38Z</time>
      </trkpt>
      <trkpt lat="43.58633" lon="2.94187">
        <ele>529.2</ele>
        <time>2014-01-18T06:36:40Z</time>
      </trkpt>
      <trkpt lat="43.58634" lon="2.94185">
        <ele>529.6</ele>
        <time>2014-01-18T06:36:41Z</time>
      </trkpt>
      <trkpt lat="43.58636" lon="2.94184">
        <ele>530</ele>
        <time>2014-01-18T06:36:42Z</time>
      </trkpt>
      <trkpt lat="43.58637" lon="2.94183">
        <ele>530.4</ele>
        <time>2014-01-18T06:36:43Z</time>
      </trkpt>
      <trkpt lat="43.58639" lon="2.94182">
        <ele>530.8</ele>
        <time>2014-01-18T06:36:44Z</time>
      </trkpt>
      <trkpt lat="43.58644" lon="2.9418">
        <ele>530.8</ele>
        <time>2014-01-18T06:36:47Z</time>
      </trkpt>
      <trkpt lat="43.5865" lon="2.94176">
        <ele>531.2</ele>
        <time>2014-01-18T06:36:51Z</time>
      </trkpt>
      <trkpt lat="43.58652" lon="2.94175">
        <ele>531.8</ele>
        <time>2014-01-18T06:36:52Z</time>
      </trkpt>
      <trkpt lat="43.58653" lon="2.94174">
        <ele>532.2</ele>
        <time>2014-01-18T06:36:53Z</time>
      </trkpt>
      <trkpt lat="43.58654" lon="2.94174">
        <ele>532.6</ele>
        <time>2014-01-18T06:36:54Z</time>
      </trkpt>
      <trkpt lat="43.58656" lon="2.94173">
        <ele>533</ele>
        <time>2014-01-18T06:36:55Z</time>
      </trkpt>
      <trkpt lat="43.58657" lon="2.94172">
        <ele>533</ele>
        <time>2014-01-18T06:36:56Z</time>
      </trkpt>
      <trkpt lat="43.58663" lon="2.94167">
        <ele>533.4</ele>
        <time>2014-01-18T06:37:00Z</time>
      </trkpt>
      <trkpt lat="43.58664" lon="2.94166">
        <ele>533.8</ele>
        <time>2014-01-18T06:37:01Z</time>
      </trkpt>
      <trkpt lat="43.58665" lon="2.94166">
        <ele>534.2</ele>
        <time>2014-01-18T06:37:02Z</time>
      </trkpt>
      <trkpt lat="43.58665" lon="2.94165">
        <ele>534.6</ele>
        <time>2014-01-18T06:37:03Z</time>
      </trkpt>
      <trkpt lat="43.58667" lon="2.94164">
        <ele>535.2</ele>
        <time>2014-01-18T06:37:04Z</time>
      </trkpt>
      <trkpt lat="43.58673" lon="2.9416">
        <ele>535.2</ele>
        <time>2014-01-18T06:37:08Z</time>
      </trkpt>
      <trkpt lat="43.58679" lon="2.94156">
        <ele>535.6</ele>
        <time>2014-01-18T06:37:13Z</time>
      </trkpt>
      <trkpt lat="43.58681" lon="2.94155">
        <ele>536</ele>
        <time>2014-01-18T06:37:14Z</time>
      </trkpt>
      <trkpt lat="43.58682" lon="2.94154">
        <ele>536.4</ele>
        <time>2014-01-18T06:37:15Z</time>
      </trkpt>
      <trkpt lat="43.58684" lon="2.94154">
        <ele>537</ele>
        <time>2014-01-18T06:37:16Z</time>
      </trkpt>
      <trkpt lat="43.58685" lon="2.94153">
        <ele>537.4</ele>
        <time>2014-01-18T06:37:17Z</time>
      </trkpt>
      <trkpt lat="43.58687" lon="2.94152">
        <ele>537.4</ele>
        <time>2014-01-18T06:37:18Z</time>
      </trkpt>
      <trkpt lat="43.58691" lon="2.94149">
        <ele>537.8</ele>
        <time>2014-01-18T06:37:21Z</time>
      </trkpt>
      <trkpt lat="43.58692" lon="2.94148">
        <ele>538.2</ele>
        <time>2014-01-18T06:37:22Z</time>
      </trkpt>
      <trkpt lat="43.58694" lon="2.94147">
        <ele>538.6</ele>
        <time>2014-01-18T06:37:23Z</time>
      </trkpt>
      <trkpt lat="43.58695" lon="2.94147">
        <ele>539</ele>
        <time>2014-01-18T06:37:24Z</time>
      </trkpt>
      <trkpt lat="43.58696" lon="2.94146">
        <ele>539.4</ele>
        <time>2014-01-18T06:37:25Z</time>
      </trkpt>
      <trkpt lat="43.58697" lon="2.94145">
        <ele>539.4</ele>
        <time>2014-01-18T06:37:26Z</time>
      </trkpt>
      <trkpt lat="43.58698" lon="2.94145">
        <ele>539.4</ele>
        <time>2014-01-18T06:37:27Z</time>
      </trkpt>
      <trkpt lat="43.58701" lon="2.94143">
        <ele>539.4</ele>
        <time>2014-01-18T06:37:29Z</time>
      </trkpt>
      <trkpt lat="43.58706" lon="2.94142">
        <ele>539.8</ele>
        <time>2014-01-18T06:37:32Z</time>
      </trkpt>
      <trkpt lat="43.58707" lon="2.94141">
        <ele>540.4</ele>
        <time>2014-01-18T06:37:33Z</time>
      </trkpt>
      <trkpt lat="43.58708" lon="2.94141">
        <ele>540.8</ele>
        <time>2014-01-18T06:37:34Z</time>
      </trkpt>
      <trkpt lat="43.58709" lon="2.94141">
        <ele>541.2</ele>
        <time>2014-01-18T06:37:35Z</time>
      </trkpt>
      <trkpt lat="43.5871" lon="2.9414">
        <ele>541.6</ele>
        <time>2014-01-18T06:37:36Z</time>
      </trkpt>
      <trkpt lat="43.5871" lon="2.94139">
        <ele>541.6</ele>
        <time>2014-01-18T06:37:37Z</time>
      </trkpt>
      <trkpt lat="43.58712" lon="2.94138">
        <ele>541.6</ele>
        <time>2014-01-18T06:37:39Z</time>
      </trkpt>
      <trkpt lat="43.58715" lon="2.94137">
        <ele>541.6</ele>
        <time>2014-01-18T06:37:41Z</time>
      </trkpt>
      <trkpt lat="43.58718" lon="2.94136">
        <ele>541.6</ele>
        <time>2014-01-18T06:37:43Z</time>
      </trkpt>
      <trkpt lat="43.58721" lon="2.94135">
        <ele>542</ele>
        <time>2014-01-18T06:37:45Z</time>
      </trkpt>
      <trkpt lat="43.58722" lon="2.94134">
        <ele>542.4</ele>
        <time>2014-01-18T06:37:46Z</time>
      </trkpt>
      <trkpt lat="43.58723" lon="2.94134">
        <ele>542.8</ele>
        <time>2014-01-18T06:37:47Z</time>
      </trkpt>
      <trkpt lat="43.58725" lon="2.94133">
        <ele>543.2</ele>
        <time>2014-01-18T06:37:48Z</time>
      </trkpt>
      <trkpt lat="43.58726" lon="2.94132">
        <ele>543.6</ele>
        <time>2014-01-18T06:37:49Z</time>
      </trkpt>
      <trkpt lat="43.58727" lon="2.94132">
        <ele>543.6</ele>
        <time>2014-01-18T06:37:50Z</time>
      </trkpt>
      <trkpt lat="43.58735" lon="2.94128">
        <ele>543.6</ele>
        <time>2014-01-18T06:37:56Z</time>
      </trkpt>
      <trkpt lat="43.5874" lon="2.94127">
        <ele>544</ele>
        <time>2014-01-18T06:38:00Z</time>
      </trkpt>
      <trkpt lat="43.58741" lon="2.94125">
        <ele>544.4</ele>
        <time>2014-01-18T06:38:01Z</time>
      </trkpt>
      <trkpt lat="43.58742" lon="2.94124">
        <ele>544.8</ele>
        <time>2014-01-18T06:38:02Z</time>
      </trkpt>
      <trkpt lat="43.58744" lon="2.94124">
        <ele>545.6</ele>
        <time>2014-01-18T06:38:03Z</time>
      </trkpt>
      <trkpt lat="43.5875" lon="2.94117">
        <ele>545.6</ele>
        <time>2014-01-18T06:38:08Z</time>
      </trkpt>
      <trkpt lat="43.58751" lon="2.94114">
        <ele>546</ele>
        <time>2014-01-18T06:38:09Z</time>
      </trkpt>
      <trkpt lat="43.58752" lon="2.94113">
        <ele>546.4</ele>
        <time>2014-01-18T06:38:10Z</time>
      </trkpt>
      <trkpt lat="43.58753" lon="2.94111">
        <ele>547</ele>
        <time>2014-01-18T06:38:11Z</time>
      </trkpt>
      <trkpt lat="43.58755" lon="2.94109">
        <ele>547.4</ele>
        <time>2014-01-18T06:38:12Z</time>
      </trkpt>
      <trkpt lat="43.58756" lon="2.94108">
        <ele>547.8</ele>
        <time>2014-01-18T06:38:13Z</time>
      </trkpt>
      <trkpt lat="43.58758" lon="2.94107">
        <ele>547.8</ele>
        <time>2014-01-18T06:38:14Z</time>
      </trkpt>
      <trkpt lat="43.58763" lon="2.94105">
        <ele>548.2</ele>
        <time>2014-01-18T06:38:17Z</time>
      </trkpt>
      <trkpt lat="43.58765" lon="2.94104">
        <ele>548.6</ele>
        <time>2014-01-18T06:38:18Z</time>
      </trkpt>
      <trkpt lat="43.58767" lon="2.94103">
        <ele>549</ele>
        <time>2014-01-18T06:38:19Z</time>
      </trkpt>
      <trkpt lat="43.58769" lon="2.94103">
        <ele>549.4</ele>
        <time>2014-01-18T06:38:20Z</time>
      </trkpt>
      <trkpt lat="43.58771" lon="2.94104">
        <ele>549.8</ele>
        <time>2014-01-18T06:38:21Z</time>
      </trkpt>
      <trkpt lat="43.58782" lon="2.94107">
        <ele>549.8</ele>
        <time>2014-01-18T06:38:27Z</time>
      </trkpt>
      <trkpt lat="43.58789" lon="2.94108">
        <ele>549.8</ele>
        <time>2014-01-18T06:38:31Z</time>
      </trkpt>
      <trkpt lat="43.58791" lon="2.94108">
        <ele>549.8</ele>
        <time>2014-01-18T06:38:32Z</time>
      </trkpt>
      <trkpt lat="43.58799" lon="2.94108">
        <ele>550.2</ele>
        <time>2014-01-18T06:38:35Z</time>
      </trkpt>
      <trkpt lat="43.58801" lon="2.94108">
        <ele>550.6</ele>
        <time>2014-01-18T06:38:36Z</time>
      </trkpt>
      <trkpt lat="43.58803" lon="2.94108">
        <ele>551</ele>
        <time>2014-01-18T06:38:37Z</time>
      </trkpt>
      <trkpt lat="43.58805" lon="2.94108">
        <ele>551.4</ele>
        <time>2014-01-18T06:38:38Z</time>
      </trkpt>
      <trkpt lat="43.58807" lon="2.94108">
        <ele>551.8</ele>
        <time>2014-01-18T06:38:39Z</time>
      </trkpt>
      <trkpt lat="43.58818" lon="2.94105">
        <ele>551.8</ele>
        <time>2014-01-18T06:38:45Z</time>
      </trkpt>
      <trkpt lat="43.58826" lon="2.94103">
        <ele>552.2</ele>
        <time>2014-01-18T06:38:50Z</time>
      </trkpt>
      <trkpt lat="43.58828" lon="2.94103">
        <ele>552.6</ele>
        <time>2014-01-18T06:38:51Z</time>
      </trkpt>
      <trkpt lat="43.5883" lon="2.94103">
        <ele>553.4</ele>
        <time>2014-01-18T06:38:52Z</time>
      </trkpt>
      <trkpt lat="43.58831" lon="2.94103">
        <ele>553.8</ele>
        <time>2014-01-18T06:38:53Z</time>
      </trkpt>
      <trkpt lat="43.58837" lon="2.94102">
        <ele>553.8</ele>
        <time>2014-01-18T06:38:57Z</time>
      </trkpt>
      <trkpt lat="43.5884" lon="2.94101">
        <ele>553.8</ele>
        <time>2014-01-18T06:38:59Z</time>
      </trkpt>
      <trkpt lat="43.58845" lon="2.94101">
        <ele>554.2</ele>
        <time>2014-01-18T06:39:02Z</time>
      </trkpt>
      <trkpt lat="43.58846" lon="2.94101">
        <ele>554.6</ele>
        <time>2014-01-18T06:39:03Z</time>
      </trkpt>
      <trkpt lat="43.58848" lon="2.94101">
        <ele>555</ele>
        <time>2014-01-18T06:39:04Z</time>
      </trkpt>
      <trkpt lat="43.5885" lon="2.94101">
        <ele>555.4</ele>
        <time>2014-01-18T06:39:05Z</time>
      </trkpt>
      <trkpt lat="43.58851" lon="2.941">
        <ele>555.8</ele>
        <time>2014-01-18T06:39:06Z</time>
      </trkpt>
      <trkpt lat="43.58857" lon="2.94101">
        <ele>555.8</ele>
        <time>2014-01-18T06:39:10Z</time>
      </trkpt>
      <trkpt lat="43.5886" lon="2.94102">
        <ele>555.8</ele>
        <time>2014-01-18T06:39:12Z</time>
      </trkpt>
      <trkpt lat="43.58862" lon="2.94107">
        <ele>555.8</ele>
        <time>2014-01-18T06:39:15Z</time>
      </trkpt>
      <trkpt lat="43.58862" lon="2.94109">
        <ele>556.2</ele>
        <time>2014-01-18T06:39:16Z</time>
      </trkpt>
      <trkpt lat="43.58861" lon="2.9411">
        <ele>557.2</ele>
        <time>2014-01-18T06:39:17Z</time>
      </trkpt>
      <trkpt lat="43.58861" lon="2.94112">
        <ele>557.6</ele>
        <time>2014-01-18T06:39:18Z</time>
      </trkpt>
      <trkpt lat="43.58859" lon="2.94112">
        <ele>558</ele>
        <time>2014-01-18T06:39:19Z</time>
      </trkpt>
      <trkpt lat="43.58858" lon="2.94113">
        <ele>558</ele>
        <time>2014-01-18T06:39:20Z</time>
      </trkpt>
      <trkpt lat="43.58853" lon="2.94115">
        <ele>558.4</ele>
        <time>2014-01-18T06:39:23Z</time>
      </trkpt>
      <trkpt lat="43.58852" lon="2.94115">
        <ele>558.8</ele>
        <time>2014-01-18T06:39:24Z</time>
      </trkpt>
      <trkpt lat="43.5885" lon="2.94115">
        <ele>559.2</ele>
        <time>2014-01-18T06:39:25Z</time>
      </trkpt>
      <trkpt lat="43.58849" lon="2.94115">
        <ele>559.6</ele>
        <time>2014-01-18T06:39:26Z</time>
      </trkpt>
      <trkpt lat="43.58849" lon="2.94116">
        <ele>560</ele>
        <time>2014-01-18T06:39:27Z</time>
      </trkpt>
      <trkpt lat="43.58849" lon="2.94116">
        <ele>560</ele>
        <time>2014-01-18T06:39:28Z</time>
      </trkpt>
      <trkpt lat="43.58845" lon="2.94117">
        <ele>560</ele>
        <time>2014-01-18T06:39:31Z</time>
      </trkpt>
      <trkpt lat="43.58841" lon="2.94119">
        <ele>560.4</ele>
        <time>2014-01-18T06:39:34Z</time>
      </trkpt>
      <trkpt lat="43.5884" lon="2.9412">
        <ele>560.8</ele>
        <time>2014-01-18T06:39:35Z</time>
      </trkpt>
      <trkpt lat="43.58839" lon="2.94122">
        <ele>561.2</ele>
        <time>2014-01-18T06:39:36Z</time>
      </trkpt>
      <trkpt lat="43.58839" lon="2.94124">
        <ele>561.6</ele>
        <time>2014-01-18T06:39:37Z</time>
      </trkpt>
      <trkpt lat="43.5884" lon="2.94125">
        <ele>562</ele>
        <time>2014-01-18T06:39:38Z</time>
      </trkpt>
      <trkpt lat="43.58844" lon="2.94128">
        <ele>562</ele>
        <time>2014-01-18T06:39:42Z</time>
      </trkpt>
      <trkpt lat="43.58847" lon="2.94128">
        <ele>562</ele>
        <time>2014-01-18T06:39:44Z</time>
      </trkpt>
      <trkpt lat="43.58851" lon="2.94127">
        <ele>562</ele>
        <time>2014-01-18T06:39:47Z</time>
      </trkpt>
      <trkpt lat="43.58853" lon="2.94127">
        <ele>562</ele>
        <time>2014-01-18T06:39:48Z</time>
      </trkpt>
      <trkpt lat="43.58855" lon="2.94127">
        <ele>562.4</ele>
        <time>2014-01-18T06:39:50Z</time>
      </trkpt>
      <trkpt lat="43.58857" lon="2.94127">
        <ele>563</ele>
        <time>2014-01-18T06:39:51Z</time>
      </trkpt>
      <trkpt lat="43.58859" lon="2.94127">
        <ele>563.4</ele>
        <time>2014-01-18T06:39:52Z</time>
      </trkpt>
      <trkpt lat="43.5886" lon="2.94126">
        <ele>563.8</ele>
        <time>2014-01-18T06:39:53Z</time>
      </trkpt>
      <trkpt lat="43.58861" lon="2.94126">
        <ele>564.2</ele>
        <time>2014-01-18T06:39:54Z</time>
      </trkpt>
      <trkpt lat="43.58863" lon="2.94125">
        <ele>564.2</ele>
        <time>2014-01-18T06:39:55Z</time>
      </trkpt>
      <trkpt lat="43.58871" lon="2.94123">
        <ele>564.2</ele>
        <time>2014-01-18T06:40:01Z</time>
      </trkpt>
      <trkpt lat="43.58873" lon="2.94123">
        <ele>564.6</ele>
        <time>2014-01-18T06:40:02Z</time>
      </trkpt>
      <trkpt lat="43.58874" lon="2.94123">
        <ele>565</ele>
        <time>2014-01-18T06:40:03Z</time>
      </trkpt>
      <trkpt lat="43.58875" lon="2.94123">
        <ele>565.6</ele>
        <time>2014-01-18T06:40:04Z</time>
      </trkpt>
      <trkpt lat="43.58876" lon="2.94122">
        <ele>566</ele>
        <time>2014-01-18T06:40:05Z</time>
      </trkpt>
      <trkpt lat="43.58877" lon="2.94122">
        <ele>566.4</ele>
        <time>2014-01-18T06:40:06Z</time>
      </trkpt>
      <trkpt lat="43.58878" lon="2.94122">
        <ele>566.4</ele>
        <time>2014-01-18T06:40:07Z</time>
      </trkpt>
      <trkpt lat="43.58882" lon="2.94122">
        <ele>566.8</ele>
        <time>2014-01-18T06:40:10Z</time>
      </trkpt>
      <trkpt lat="43.58883" lon="2.94122">
        <ele>567.2</ele>
        <time>2014-01-18T06:40:11Z</time>
      </trkpt>
      <trkpt lat="43.58885" lon="2.94122">
        <ele>567.8</ele>
        <time>2014-01-18T06:40:12Z</time>
      </trkpt>
      <trkpt lat="43.58886" lon="2.94122">
        <ele>568.2</ele>
        <time>2014-01-18T06:40:13Z</time>
      </trkpt>
      <trkpt lat="43.58887" lon="2.94122">
        <ele>568.6</ele>
        <time>2014-01-18T06:40:14Z</time>
      </trkpt>
      <trkpt lat="43.58889" lon="2.94122">
        <ele>568.6</ele>
        <time>2014-01-18T06:40:15Z</time>
      </trkpt>
      <trkpt lat="43.589" lon="2.94125">
        <ele>568.6</ele>
        <time>2014-01-18T06:40:23Z</time>
      </trkpt>
      <trkpt lat="43.58904" lon="2.94127">
        <ele>569</ele>
        <time>2014-01-18T06:40:25Z</time>
      </trkpt>
      <trkpt lat="43.58905" lon="2.94128">
        <ele>569.4</ele>
        <time>2014-01-18T06:40:26Z</time>
      </trkpt>
      <trkpt lat="43.58906" lon="2.94128">
        <ele>569.8</ele>
        <time>2014-01-18T06:40:27Z</time>
      </trkpt>
      <trkpt lat="43.58908" lon="2.94129">
        <ele>570.2</ele>
        <time>2014-01-18T06:40:28Z</time>
      </trkpt>
      <trkpt lat="43.58909" lon="2.9413">
        <ele>570.6</ele>
        <time>2014-01-18T06:40:29Z</time>
      </trkpt>
      <trkpt lat="43.5892" lon="2.94135">
        <ele>570.6</ele>
        <time>2014-01-18T06:40:37Z</time>
      </trkpt>
      <trkpt lat="43.58924" lon="2.94136">
        <ele>571</ele>
        <time>2014-01-18T06:40:40Z</time>
      </trkpt>
      <trkpt lat="43.58925" lon="2.94136">
        <ele>571.4</ele>
        <time>2014-01-18T06:40:41Z</time>
      </trkpt>
      <trkpt lat="43.58926" lon="2.94136">
        <ele>571.8</ele>
        <time>2014-01-18T06:40:42Z</time>
      </trkpt>
      <trkpt lat="43.58928" lon="2.94137">
        <ele>572.4</ele>
        <time>2014-01-18T06:40:43Z</time>
      </trkpt>
      <trkpt lat="43.58929" lon="2.94137">
        <ele>572.8</ele>
        <time>2014-01-18T06:40:44Z</time>
      </trkpt>
      <trkpt lat="43.5894" lon="2.94138">
        <ele>572.8</ele>
        <time>2014-01-18T06:40:52Z</time>
      </trkpt>
      <trkpt lat="43.58944" lon="2.94139">
        <ele>573.6</ele>
        <time>2014-01-18T06:40:55Z</time>
      </trkpt>
      <trkpt lat="43.58946" lon="2.9414">
        <ele>574</ele>
        <time>2014-01-18T06:40:56Z</time>
      </trkpt>
      <trkpt lat="43.58947" lon="2.9414">
        <ele>574.4</ele>
        <time>2014-01-18T06:40:57Z</time>
      </trkpt>
      <trkpt lat="43.58949" lon="2.9414">
        <ele>574.8</ele>
        <time>2014-01-18T06:40:58Z</time>
      </trkpt>
      <trkpt lat="43.58955" lon="2.94141">
        <ele>574.8</ele>
        <time>2014-01-18T06:41:03Z</time>
      </trkpt>
      <trkpt lat="43.58956" lon="2.94141">
        <ele>575.2</ele>
        <time>2014-01-18T06:41:04Z</time>
      </trkpt>
      <trkpt lat="43.58958" lon="2.94141">
        <ele>575.6</ele>
        <time>2014-01-18T06:41:05Z</time>
      </trkpt>
      <trkpt lat="43.58959" lon="2.94142">
        <ele>576</ele>
        <time>2014-01-18T06:41:06Z</time>
      </trkpt>
      <trkpt lat="43.5896" lon="2.94143">
        <ele>576.4</ele>
        <time>2014-01-18T06:41:07Z</time>
      </trkpt>
      <trkpt lat="43.58962" lon="2.94143">
        <ele>576.8</ele>
        <time>2014-01-18T06:41:08Z</time>
      </trkpt>
      <trkpt lat="43.58965" lon="2.94144">
        <ele>576.8</ele>
        <time>2014-01-18T06:41:10Z</time>
      </trkpt>
      <trkpt lat="43.58973" lon="2.94147">
        <ele>577.2</ele>
        <time>2014-01-18T06:41:16Z</time>
      </trkpt>
      <trkpt lat="43.58975" lon="2.94147">
        <ele>577.6</ele>
        <time>2014-01-18T06:41:17Z</time>
      </trkpt>
      <trkpt lat="43.58976" lon="2.94147">
        <ele>578</ele>
        <time>2014-01-18T06:41:18Z</time>
      </trkpt>
      <trkpt lat="43.58978" lon="2.94146">
        <ele>578.4</ele>
        <time>2014-01-18T06:41:19Z</time>
      </trkpt>
      <trkpt lat="43.58979" lon="2.94146">
        <ele>578.8</ele>
        <time>2014-01-18T06:41:20Z</time>
      </trkpt>
      <trkpt lat="43.58983" lon="2.94145">
        <ele>578.8</ele>
        <time>2014-01-18T06:41:23Z</time>
      </trkpt>
      <trkpt lat="43.58989" lon="2.94145">
        <ele>579.2</ele>
        <time>2014-01-18T06:41:27Z</time>
      </trkpt>
      <trkpt lat="43.5899" lon="2.94145">
        <ele>579.6</ele>
        <time>2014-01-18T06:41:28Z</time>
      </trkpt>
      <trkpt lat="43.58991" lon="2.94145">
        <ele>580.2</ele>
        <time>2014-01-18T06:41:29Z</time>
      </trkpt>
      <trkpt lat="43.58993" lon="2.94145">
        <ele>580.6</ele>
        <time>2014-01-18T06:41:30Z</time>
      </trkpt>
      <trkpt lat="43.58994" lon="2.94145">
        <ele>581</ele>
        <time>2014-01-18T06:41:31Z</time>
      </trkpt>
      <trkpt lat="43.59" lon="2.94142">
        <ele>581</ele>
        <time>2014-01-18T06:41:35Z</time>
      </trkpt>
      <trkpt lat="43.59002" lon="2.9414">
        <ele>581.4</ele>
        <time>2014-01-18T06:41:37Z</time>
      </trkpt>
      <trkpt lat="43.59003" lon="2.94139">
        <ele>581.8</ele>
        <time>2014-01-18T06:41:38Z</time>
      </trkpt>
      <trkpt lat="43.59004" lon="2.94138">
        <ele>582.2</ele>
        <time>2014-01-18T06:41:39Z</time>
      </trkpt>
      <trkpt lat="43.59005" lon="2.94136">
        <ele>582.6</ele>
        <time>2014-01-18T06:41:40Z</time>
      </trkpt>
      <trkpt lat="43.59007" lon="2.94135">
        <ele>583.2</ele>
        <time>2014-01-18T06:41:41Z</time>
      </trkpt>
      <trkpt lat="43.59009" lon="2.94133">
        <ele>583.2</ele>
        <time>2014-01-18T06:41:43Z</time>
      </trkpt>
      <trkpt lat="43.59012" lon="2.9413">
        <ele>583.6</ele>
        <time>2014-01-18T06:41:46Z</time>
      </trkpt>
      <trkpt lat="43.59013" lon="2.94129">
        <ele>584</ele>
        <time>2014-01-18T06:41:47Z</time>
      </trkpt>
      <trkpt lat="43.59015" lon="2.94128">
        <ele>584.4</ele>
        <time>2014-01-18T06:41:48Z</time>
      </trkpt>
      <trkpt lat="43.59016" lon="2.94127">
        <ele>584.8</ele>
        <time>2014-01-18T06:41:49Z</time>
      </trkpt>
      <trkpt lat="43.59017" lon="2.94125">
        <ele>585.2</ele>
        <time>2014-01-18T06:41:50Z</time>
      </trkpt>
      <trkpt lat="43.59018" lon="2.94123">
        <ele>585.2</ele>
        <time>2014-01-18T06:41:51Z</time>
      </trkpt>
      <trkpt lat="43.59021" lon="2.94117">
        <ele>585.2</ele>
        <time>2014-01-18T06:41:54Z</time>
      </trkpt>
      <trkpt lat="43.59021" lon="2.94115">
        <ele>585.6</ele>
        <time>2014-01-18T06:41:55Z</time>
      </trkpt>
      <trkpt lat="43.59022" lon="2.94113">
        <ele>586</ele>
        <time>2014-01-18T06:41:56Z</time>
      </trkpt>
      <trkpt lat="43.59022" lon="2.94111">
        <ele>586.4</ele>
        <time>2014-01-18T06:41:57Z</time>
      </trkpt>
      <trkpt lat="43.59023" lon="2.9411">
        <ele>586.8</ele>
        <time>2014-01-18T06:41:58Z</time>
      </trkpt>
      <trkpt lat="43.59024" lon="2.94109">
        <ele>587.2</ele>
        <time>2014-01-18T06:41:59Z</time>
      </trkpt>
      <trkpt lat="43.59026" lon="2.94106">
        <ele>587.2</ele>
        <time>2014-01-18T06:42:01Z</time>
      </trkpt>
      <trkpt lat="43.59029" lon="2.94101">
        <ele>587.2</ele>
        <time>2014-01-18T06:42:04Z</time>
      </trkpt>
      <trkpt lat="43.59029" lon="2.94099">
        <ele>587.6</ele>
        <time>2014-01-18T06:42:05Z</time>
      </trkpt>
      <trkpt lat="43.5903" lon="2.94098">
        <ele>588</ele>
        <time>2014-01-18T06:42:06Z</time>
      </trkpt>
      <trkpt lat="43.59031" lon="2.94096">
        <ele>588.4</ele>
        <time>2014-01-18T06:42:07Z</time>
      </trkpt>
      <trkpt lat="43.59032" lon="2.94094">
        <ele>588.8</ele>
        <time>2014-01-18T06:42:08Z</time>
      </trkpt>
      <trkpt lat="43.59033" lon="2.94093">
        <ele>589.2</ele>
        <time>2014-01-18T06:42:09Z</time>
      </trkpt>
      <trkpt lat="43.59036" lon="2.94087">
        <ele>589.2</ele>
        <time>2014-01-18T06:42:13Z</time>
      </trkpt>
      <trkpt lat="43.59037" lon="2.94085">
        <ele>589.2</ele>
        <time>2014-01-18T06:42:14Z</time>
      </trkpt>
      <trkpt lat="43.59038" lon="2.94084">
        <ele>589.6</ele>
        <time>2014-01-18T06:42:15Z</time>
      </trkpt>
      <trkpt lat="43.59039" lon="2.94082">
        <ele>590.2</ele>
        <time>2014-01-18T06:42:16Z</time>
      </trkpt>
      <trkpt lat="43.59039" lon="2.9408">
        <ele>590.6</ele>
        <time>2014-01-18T06:42:17Z</time>
      </trkpt>
      <trkpt lat="43.5904" lon="2.94078">
        <ele>591</ele>
        <time>2014-01-18T06:42:18Z</time>
      </trkpt>
      <trkpt lat="43.59041" lon="2.94077">
        <ele>591.4</ele>
        <time>2014-01-18T06:42:19Z</time>
      </trkpt>
      <trkpt lat="43.59043" lon="2.94074">
        <ele>591.4</ele>
        <time>2014-01-18T06:42:21Z</time>
      </trkpt>
      <trkpt lat="43.59045" lon="2.94067">
        <ele>591.8</ele>
        <time>2014-01-18T06:42:25Z</time>
      </trkpt>
      <trkpt lat="43.59046" lon="2.94065">
        <ele>592.2</ele>
        <time>2014-01-18T06:42:26Z</time>
      </trkpt>
      <trkpt lat="43.59047" lon="2.94063">
        <ele>592.8</ele>
        <time>2014-01-18T06:42:27Z</time>
      </trkpt>
      <trkpt lat="43.59048" lon="2.94061">
        <ele>593.2</ele>
        <time>2014-01-18T06:42:28Z</time>
      </trkpt>
      <trkpt lat="43.59049" lon="2.9406">
        <ele>593.6</ele>
        <time>2014-01-18T06:42:29Z</time>
      </trkpt>
      <trkpt lat="43.59053" lon="2.94049">
        <ele>594.4</ele>
        <time>2014-01-18T06:42:35Z</time>
      </trkpt>
      <trkpt lat="43.59053" lon="2.94048">
        <ele>594.8</ele>
        <time>2014-01-18T06:42:36Z</time>
      </trkpt>
      <trkpt lat="43.59054" lon="2.94046">
        <ele>595.2</ele>
        <time>2014-01-18T06:42:37Z</time>
      </trkpt>
      <trkpt lat="43.59054" lon="2.94044">
        <ele>595.6</ele>
        <time>2014-01-18T06:42:38Z</time>
      </trkpt>
      <trkpt lat="43.59056" lon="2.94042">
        <ele>595.6</ele>
        <time>2014-01-18T06:42:40Z</time>
      </trkpt>
      <trkpt lat="43.59058" lon="2.94041">
        <ele>595.6</ele>
        <time>2014-01-18T06:42:42Z</time>
      </trkpt>
      <trkpt lat="43.59059" lon="2.9404">
        <ele>595.6</ele>
        <time>2014-01-18T06:42:44Z</time>
      </trkpt>
      <trkpt lat="43.59059" lon="2.94039">
        <ele>595.6</ele>
        <time>2014-01-18T06:43:42Z</time>
      </trkpt>
      <trkpt lat="43.59059" lon="2.9404">
        <ele>595.6</ele>
        <time>2014-01-18T06:43:43Z</time>
      </trkpt>
      <trkpt lat="43.5906" lon="2.94042">
        <ele>595.6</ele>
        <time>2014-01-18T06:43:44Z</time>
      </trkpt>
      <trkpt lat="43.59061" lon="2.94046">
        <ele>595.6</ele>
        <time>2014-01-18T06:43:47Z</time>
      </trkpt>
      <trkpt lat="43.59064" lon="2.94049">
        <ele>595.6</ele>
        <time>2014-01-18T06:43:50Z</time>
      </trkpt>
      <trkpt lat="43.59067" lon="2.94051">
        <ele>596</ele>
        <time>2014-01-18T06:43:52Z</time>
      </trkpt>
      <trkpt lat="43.59067" lon="2.94052">
        <ele>596.6</ele>
        <time>2014-01-18T06:43:53Z</time>
      </trkpt>
      <trkpt lat="43.59068" lon="2.94052">
        <ele>597</ele>
        <time>2014-01-18T06:43:54Z</time>
      </trkpt>
      <trkpt lat="43.59069" lon="2.94053">
        <ele>597.4</ele>
        <time>2014-01-18T06:43:55Z</time>
      </trkpt>
      <trkpt lat="43.59069" lon="2.94053">
        <ele>597.8</ele>
        <time>2014-01-18T06:43:56Z</time>
      </trkpt>
      <trkpt lat="43.5907" lon="2.94054">
        <ele>597.8</ele>
        <time>2014-01-18T06:43:57Z</time>
      </trkpt>
      <trkpt lat="43.59074" lon="2.94056">
        <ele>598.2</ele>
        <time>2014-01-18T06:44:01Z</time>
      </trkpt>
      <trkpt lat="43.59075" lon="2.94056">
        <ele>598.6</ele>
        <time>2014-01-18T06:44:02Z</time>
      </trkpt>
      <trkpt lat="43.59075" lon="2.94056">
        <ele>599.2</ele>
        <time>2014-01-18T06:44:03Z</time>
      </trkpt>
      <trkpt lat="43.59077" lon="2.94056">
        <ele>599.6</ele>
        <time>2014-01-18T06:44:04Z</time>
      </trkpt>
      <trkpt lat="43.59079" lon="2.94056">
        <ele>600</ele>
        <time>2014-01-18T06:44:05Z</time>
      </trkpt>
      <trkpt lat="43.5908" lon="2.94056">
        <ele>600</ele>
        <time>2014-01-18T06:44:06Z</time>
      </trkpt>
      <trkpt lat="43.59089" lon="2.94058">
        <ele>600</ele>
        <time>2014-01-18T06:44:12Z</time>
      </trkpt>
      <trkpt lat="43.59097" lon="2.94059">
        <ele>600</ele>
        <time>2014-01-18T06:44:16Z</time>
      </trkpt>
      <trkpt lat="43.591" lon="2.94059">
        <ele>600</ele>
        <time>2014-01-18T06:44:17Z</time>
      </trkpt>
      <trkpt lat="43.59111" lon="2.94063">
        <ele>600</ele>
        <time>2014-01-18T06:44:23Z</time>
      </trkpt>
      <trkpt lat="43.59115" lon="2.94065">
        <ele>600.4</ele>
        <time>2014-01-18T06:44:25Z</time>
      </trkpt>
      <trkpt lat="43.59118" lon="2.94066">
        <ele>600.8</ele>
        <time>2014-01-18T06:44:26Z</time>
      </trkpt>
      <trkpt lat="43.59119" lon="2.94066">
        <ele>601.2</ele>
        <time>2014-01-18T06:44:27Z</time>
      </trkpt>
      <trkpt lat="43.59121" lon="2.94068">
        <ele>601.6</ele>
        <time>2014-01-18T06:44:28Z</time>
      </trkpt>
      <trkpt lat="43.59123" lon="2.94069">
        <ele>602</ele>
        <time>2014-01-18T06:44:29Z</time>
      </trkpt>
      <trkpt lat="43.59126" lon="2.9407">
        <ele>602</ele>
        <time>2014-01-18T06:44:30Z</time>
      </trkpt>
      <trkpt lat="43.59137" lon="2.94078">
        <ele>602</ele>
        <time>2014-01-18T06:44:36Z</time>
      </trkpt>
      <trkpt lat="43.59145" lon="2.94086">
        <ele>602</ele>
        <time>2014-01-18T06:44:41Z</time>
      </trkpt>
      <trkpt lat="43.59145" lon="2.94088">
        <ele>602</ele>
        <time>2014-01-18T06:44:42Z</time>
      </trkpt>
      <trkpt lat="43.5914" lon="2.9409">
        <ele>602</ele>
        <time>2014-01-18T06:44:46Z</time>
      </trkpt>
      <trkpt lat="43.59138" lon="2.94088">
        <ele>602.4</ele>
        <time>2014-01-18T06:44:48Z</time>
      </trkpt>
      <trkpt lat="43.59136" lon="2.94087">
        <ele>602.8</ele>
        <time>2014-01-18T06:44:49Z</time>
      </trkpt>
      <trkpt lat="43.59135" lon="2.94086">
        <ele>603.2</ele>
        <time>2014-01-18T06:44:50Z</time>
      </trkpt>
      <trkpt lat="43.59133" lon="2.94085">
        <ele>603.6</ele>
        <time>2014-01-18T06:44:51Z</time>
      </trkpt>
      <trkpt lat="43.59131" lon="2.94084">
        <ele>604</ele>
        <time>2014-01-18T06:44:52Z</time>
      </trkpt>
      <trkpt lat="43.59123" lon="2.94082">
        <ele>604.4</ele>
        <time>2014-01-18T06:44:57Z</time>
      </trkpt>
      <trkpt lat="43.59121" lon="2.94082">
        <ele>604.8</ele>
        <time>2014-01-18T06:44:58Z</time>
      </trkpt>
      <trkpt lat="43.5912" lon="2.94081">
        <ele>605.2</ele>
        <time>2014-01-18T06:44:59Z</time>
      </trkpt>
      <trkpt lat="43.59118" lon="2.94081">
        <ele>605.6</ele>
        <time>2014-01-18T06:45:00Z</time>
      </trkpt>
      <trkpt lat="43.59116" lon="2.9408">
        <ele>606</ele>
        <time>2014-01-18T06:45:01Z</time>
      </trkpt>
      <trkpt lat="43.59112" lon="2.9408">
        <ele>606</ele>
        <time>2014-01-18T06:45:03Z</time>
      </trkpt>
      <trkpt lat="43.59102" lon="2.94077">
        <ele>606</ele>
        <time>2014-01-18T06:45:09Z</time>
      </trkpt>
      <trkpt lat="43.59101" lon="2.94076">
        <ele>606</ele>
        <time>2014-01-18T06:45:10Z</time>
      </trkpt>
      <trkpt lat="43.591" lon="2.94076">
        <ele>606</ele>
        <time>2014-01-18T06:45:11Z</time>
      </trkpt>
      <trkpt lat="43.59098" lon="2.94077">
        <ele>606.6</ele>
        <time>2014-01-18T06:45:12Z</time>
      </trkpt>
      <trkpt lat="43.59097" lon="2.94077">
        <ele>607</ele>
        <time>2014-01-18T06:45:13Z</time>
      </trkpt>
      <trkpt lat="43.59095" lon="2.94077">
        <ele>607.4</ele>
        <time>2014-01-18T06:45:14Z</time>
      </trkpt>
      <trkpt lat="43.59093" lon="2.94077">
        <ele>607.8</ele>
        <time>2014-01-18T06:45:15Z</time>
      </trkpt>
      <trkpt lat="43.59092" lon="2.94078">
        <ele>608.2</ele>
        <time>2014-01-18T06:45:16Z</time>
      </trkpt>
      <trkpt lat="43.59089" lon="2.94079">
        <ele>608.2</ele>
        <time>2014-01-18T06:45:18Z</time>
      </trkpt>
      <trkpt lat="43.59087" lon="2.94081">
        <ele>608.2</ele>
        <time>2014-01-18T06:45:20Z</time>
      </trkpt>
      <trkpt lat="43.59083" lon="2.94086">
        <ele>608.6</ele>
        <time>2014-01-18T06:45:24Z</time>
      </trkpt>
      <trkpt lat="43.59082" lon="2.94087">
        <ele>609</ele>
        <time>2014-01-18T06:45:25Z</time>
      </trkpt>
      <trkpt lat="43.5908" lon="2.94088">
        <ele>609.4</ele>
        <time>2014-01-18T06:45:26Z</time>
      </trkpt>
      <trkpt lat="43.59078" lon="2.94089">
        <ele>609.8</ele>
        <time>2014-01-18T06:45:27Z</time>
      </trkpt>
      <trkpt lat="43.59077" lon="2.94091">
        <ele>610.2</ele>
        <time>2014-01-18T06:45:28Z</time>
      </trkpt>
      <trkpt lat="43.59074" lon="2.94095">
        <ele>610.2</ele>
        <time>2014-01-18T06:45:30Z</time>
      </trkpt>
      <trkpt lat="43.59072" lon="2.94099">
        <ele>610.2</ele>
        <time>2014-01-18T06:45:32Z</time>
      </trkpt>
      <trkpt lat="43.59068" lon="2.94113">
        <ele>610.2</ele>
        <time>2014-01-18T06:45:38Z</time>
      </trkpt>
      <trkpt lat="43.59064" lon="2.94124">
        <ele>610.2</ele>
        <time>2014-01-18T06:45:43Z</time>
      </trkpt>
      <trkpt lat="43.59062" lon="2.94128">
        <ele>610.2</ele>
        <time>2014-01-18T06:45:45Z</time>
      </trkpt>
      <trkpt lat="43.59062" lon="2.94134">
        <ele>610.2</ele>
        <time>2014-01-18T06:45:47Z</time>
      </trkpt>
      <trkpt lat="43.59059" lon="2.94147">
        <ele>610.6</ele>
        <time>2014-01-18T06:45:52Z</time>
      </trkpt>
      <trkpt lat="43.59059" lon="2.9415">
        <ele>611</ele>
        <time>2014-01-18T06:45:53Z</time>
      </trkpt>
      <trkpt lat="43.59059" lon="2.94152">
        <ele>612</ele>
        <time>2014-01-18T06:45:54Z</time>
      </trkpt>
      <trkpt lat="43.59058" lon="2.94155">
        <ele>612.4</ele>
        <time>2014-01-18T06:45:55Z</time>
      </trkpt>
      <trkpt lat="43.59055" lon="2.94168">
        <ele>612.4</ele>
        <time>2014-01-18T06:46:00Z</time>
      </trkpt>
      <trkpt lat="43.59052" lon="2.94181">
        <ele>612.4</ele>
        <time>2014-01-18T06:46:06Z</time>
      </trkpt>
      <trkpt lat="43.59048" lon="2.94193">
        <ele>612.8</ele>
        <time>2014-01-18T06:46:11Z</time>
      </trkpt>
      <trkpt lat="43.59049" lon="2.94196">
        <ele>613.2</ele>
        <time>2014-01-18T06:46:12Z</time>
      </trkpt>
      <trkpt lat="43.5905" lon="2.94197">
        <ele>613.6</ele>
        <time>2014-01-18T06:46:13Z</time>
      </trkpt>
      <trkpt lat="43.59051" lon="2.94198">
        <ele>614</ele>
        <time>2014-01-18T06:46:14Z</time>
      </trkpt>
      <trkpt lat="43.59053" lon="2.94197">
        <ele>614.4</ele>
        <time>2014-01-18T06:46:15Z</time>
      </trkpt>
      <trkpt lat="43.59055" lon="2.94192">
        <ele>614.4</ele>
        <time>2014-01-18T06:46:17Z</time>
      </trkpt>
      <trkpt lat="43.59058" lon="2.94183">
        <ele>614.8</ele>
        <time>2014-01-18T06:46:21Z</time>
      </trkpt>
      <trkpt lat="43.59059" lon="2.94181">
        <ele>615.2</ele>
        <time>2014-01-18T06:46:22Z</time>
      </trkpt>
      <trkpt lat="43.5906" lon="2.9418">
        <ele>615.6</ele>
        <time>2014-01-18T06:46:23Z</time>
      </trkpt>
      <trkpt lat="43.5906" lon="2.94178">
        <ele>616.2</ele>
        <time>2014-01-18T06:46:24Z</time>
      </trkpt>
      <trkpt lat="43.59061" lon="2.94176">
        <ele>616.6</ele>
        <time>2014-01-18T06:46:25Z</time>
      </trkpt>
      <trkpt lat="43.59065" lon="2.94167">
        <ele>617</ele>
        <time>2014-01-18T06:46:29Z</time>
      </trkpt>
      <trkpt lat="43.59066" lon="2.94165">
        <ele>617.4</ele>
        <time>2014-01-18T06:46:30Z</time>
      </trkpt>
      <trkpt lat="43.59067" lon="2.94162">
        <ele>617.8</ele>
        <time>2014-01-18T06:46:31Z</time>
      </trkpt>
      <trkpt lat="43.59068" lon="2.9416">
        <ele>618.2</ele>
        <time>2014-01-18T06:46:32Z</time>
      </trkpt>
      <trkpt lat="43.59069" lon="2.94157">
        <ele>618.6</ele>
        <time>2014-01-18T06:46:33Z</time>
      </trkpt>
      <trkpt lat="43.59075" lon="2.94138">
        <ele>618.6</ele>
        <time>2014-01-18T06:46:39Z</time>
      </trkpt>
      <trkpt lat="43.59084" lon="2.94122">
        <ele>618.6</ele>
        <time>2014-01-18T06:46:45Z</time>
      </trkpt>
      <trkpt lat="43.59097" lon="2.94118">
        <ele>619</ele>
        <time>2014-01-18T06:46:50Z</time>
      </trkpt>
      <trkpt lat="43.59099" lon="2.94118">
        <ele>619.4</ele>
        <time>2014-01-18T06:46:51Z</time>
      </trkpt>
      <trkpt lat="43.59101" lon="2.94118">
        <ele>619.8</ele>
        <time>2014-01-18T06:46:52Z</time>
      </trkpt>
      <trkpt lat="43.59103" lon="2.94119">
        <ele>620.2</ele>
        <time>2014-01-18T06:46:53Z</time>
      </trkpt>
      <trkpt lat="43.59105" lon="2.9412">
        <ele>620.6</ele>
        <time>2014-01-18T06:46:54Z</time>
      </trkpt>
      <trkpt lat="43.59113" lon="2.94121">
        <ele>620.6</ele>
        <time>2014-01-18T06:46:57Z</time>
      </trkpt>
      <trkpt lat="43.59119" lon="2.94122">
        <ele>621</ele>
        <time>2014-01-18T06:47:00Z</time>
      </trkpt>
      <trkpt lat="43.59121" lon="2.94122">
        <ele>621.4</ele>
        <time>2014-01-18T06:47:01Z</time>
      </trkpt>
      <trkpt lat="43.59124" lon="2.94123">
        <ele>621.8</ele>
        <time>2014-01-18T06:47:02Z</time>
      </trkpt>
      <trkpt lat="43.59127" lon="2.94123">
        <ele>622.2</ele>
        <time>2014-01-18T06:47:03Z</time>
      </trkpt>
      <trkpt lat="43.59129" lon="2.94123">
        <ele>622.6</ele>
        <time>2014-01-18T06:47:04Z</time>
      </trkpt>
      <trkpt lat="43.59144" lon="2.94126">
        <ele>622.6</ele>
        <time>2014-01-18T06:47:10Z</time>
      </trkpt>
      <trkpt lat="43.59162" lon="2.94129">
        <ele>622.6</ele>
        <time>2014-01-18T06:47:18Z</time>
      </trkpt>
      <trkpt lat="43.59167" lon="2.94129">
        <ele>623</ele>
        <time>2014-01-18T06:47:20Z</time>
      </trkpt>
      <trkpt lat="43.59169" lon="2.9413">
        <ele>623.6</ele>
        <time>2014-01-18T06:47:21Z</time>
      </trkpt>
      <trkpt lat="43.59172" lon="2.94131">
        <ele>624</ele>
        <time>2014-01-18T06:47:22Z</time>
      </trkpt>
      <trkpt lat="43.59174" lon="2.94132">
        <ele>624.4</ele>
        <time>2014-01-18T06:47:23Z</time>
      </trkpt>
      <trkpt lat="43.59176" lon="2.94133">
        <ele>624.8</ele>
        <time>2014-01-18T06:47:24Z</time>
      </trkpt>
      <trkpt lat="43.59189" lon="2.94142">
        <ele>624.8</ele>
        <time>2014-01-18T06:47:29Z</time>
      </trkpt>
      <trkpt lat="43.5921" lon="2.94154">
        <ele>624.8</ele>
        <time>2014-01-18T06:47:37Z</time>
      </trkpt>
      <trkpt lat="43.59224" lon="2.94158">
        <ele>624.8</ele>
        <time>2014-01-18T06:47:42Z</time>
      </trkpt>
      <trkpt lat="43.59246" lon="2.94161">
        <ele>624.8</ele>
        <time>2014-01-18T06:47:50Z</time>
      </trkpt>
      <trkpt lat="43.59261" lon="2.94158">
        <ele>624.8</ele>
        <time>2014-01-18T06:47:55Z</time>
      </trkpt>
      <trkpt lat="43.59275" lon="2.94158">
        <ele>624.8</ele>
        <time>2014-01-18T06:48:00Z</time>
      </trkpt>
      <trkpt lat="43.59281" lon="2.94157">
        <ele>625.2</ele>
        <time>2014-01-18T06:48:05Z</time>
      </trkpt>
      <trkpt lat="43.59283" lon="2.94158">
        <ele>625.6</ele>
        <time>2014-01-18T06:48:06Z</time>
      </trkpt>
      <trkpt lat="43.59284" lon="2.94158">
        <ele>626</ele>
        <time>2014-01-18T06:48:07Z</time>
      </trkpt>
      <trkpt lat="43.59285" lon="2.94158">
        <ele>626.4</ele>
        <time>2014-01-18T06:48:08Z</time>
      </trkpt>
      <trkpt lat="43.59287" lon="2.94159">
        <ele>626.8</ele>
        <time>2014-01-18T06:48:09Z</time>
      </trkpt>
      <trkpt lat="43.59291" lon="2.9416">
        <ele>626.8</ele>
        <time>2014-01-18T06:48:13Z</time>
      </trkpt>
      <trkpt lat="43.5929" lon="2.9416">
        <ele>626.8</ele>
        <time>2014-01-18T06:48:14Z</time>
      </trkpt>
      <trkpt lat="43.59291" lon="2.9416">
        <ele>626.8</ele>
        <time>2014-01-18T06:48:29Z</time>
      </trkpt>
      <trkpt lat="43.59291" lon="2.94161">
        <ele>626.8</ele>
        <time>2014-01-18T06:48:31Z</time>
      </trkpt>
      <trkpt lat="43.59291" lon="2.94161">
        <ele>626.8</ele>
        <time>2014-01-18T06:48:33Z</time>
      </trkpt>
      <trkpt lat="43.59291" lon="2.94163">
        <ele>626.8</ele>
        <time>2014-01-18T06:48:34Z</time>
      </trkpt>
      <trkpt lat="43.5929" lon="2.94163">
        <ele>626.8</ele>
        <time>2014-01-18T06:48:36Z</time>
      </trkpt>
      <trkpt lat="43.59289" lon="2.94163">
        <ele>627.2</ele>
        <time>2014-01-18T06:48:39Z</time>
      </trkpt>
      <trkpt lat="43.59289" lon="2.94163">
        <ele>627.6</ele>
        <time>2014-01-18T06:48:40Z</time>
      </trkpt>
      <trkpt lat="43.59289" lon="2.94163">
        <ele>628</ele>
        <time>2014-01-18T06:48:41Z</time>
      </trkpt>
      <trkpt lat="43.59289" lon="2.94164">
        <ele>628.4</ele>
        <time>2014-01-18T06:48:42Z</time>
      </trkpt>
      <trkpt lat="43.59288" lon="2.94165">
        <ele>628.8</ele>
        <time>2014-01-18T06:48:43Z</time>
      </trkpt>
      <trkpt lat="43.59288" lon="2.94165">
        <ele>628.8</ele>
        <time>2014-01-18T06:48:44Z</time>
      </trkpt>
      <trkpt lat="43.59287" lon="2.94165">
        <ele>628.8</ele>
        <time>2014-01-18T06:48:45Z</time>
      </trkpt>
      <trkpt lat="43.59285" lon="2.94165">
        <ele>628.8</ele>
        <time>2014-01-18T06:48:47Z</time>
      </trkpt>
      <trkpt lat="43.59285" lon="2.94165">
        <ele>629.2</ele>
        <time>2014-01-18T06:48:48Z</time>
      </trkpt>
      <trkpt lat="43.59284" lon="2.94166">
        <ele>629.6</ele>
        <time>2014-01-18T06:48:49Z</time>
      </trkpt>
      <trkpt lat="43.59284" lon="2.94166">
        <ele>630</ele>
        <time>2014-01-18T06:48:50Z</time>
      </trkpt>
      <trkpt lat="43.59284" lon="2.94166">
        <ele>630.4</ele>
        <time>2014-01-18T06:48:51Z</time>
      </trkpt>
      <trkpt lat="43.59283" lon="2.94166">
        <ele>630.8</ele>
        <time>2014-01-18T06:48:52Z</time>
      </trkpt>
      <trkpt lat="43.59282" lon="2.94166">
        <ele>630.8</ele>
        <time>2014-01-18T06:48:53Z</time>
      </trkpt>
      <trkpt lat="43.59281" lon="2.94167">
        <ele>630.8</ele>
        <time>2014-01-18T06:48:55Z</time>
      </trkpt>
      <trkpt lat="43.59281" lon="2.94168">
        <ele>630.8</ele>
        <time>2014-01-18T06:48:57Z</time>
      </trkpt>
      <trkpt lat="43.5928" lon="2.94168">
        <ele>630.8</ele>
        <time>2014-01-18T06:48:58Z</time>
      </trkpt>
      <trkpt lat="43.59279" lon="2.94169">
        <ele>630.8</ele>
        <time>2014-01-18T06:48:59Z</time>
      </trkpt>
      <trkpt lat="43.59277" lon="2.94169">
        <ele>631.2</ele>
        <time>2014-01-18T06:49:01Z</time>
      </trkpt>
      <trkpt lat="43.59276" lon="2.94169">
        <ele>631.6</ele>
        <time>2014-01-18T06:49:02Z</time>
      </trkpt>
      <trkpt lat="43.59275" lon="2.94168">
        <ele>632</ele>
        <time>2014-01-18T06:49:03Z</time>
      </trkpt>
      <trkpt lat="43.59274" lon="2.94169">
        <ele>632.4</ele>
        <time>2014-01-18T06:49:04Z</time>
      </trkpt>
      <trkpt lat="43.59272" lon="2.94169">
        <ele>632.8</ele>
        <time>2014-01-18T06:49:05Z</time>
      </trkpt>
      <trkpt lat="43.5927" lon="2.94169">
        <ele>632.8</ele>
        <time>2014-01-18T06:49:08Z</time>
      </trkpt>
      <trkpt lat="43.59265" lon="2.94168">
        <ele>632.8</ele>
        <time>2014-01-18T06:49:13Z</time>
      </trkpt>
      <trkpt lat="43.59259" lon="2.9417">
        <ele>632.8</ele>
        <time>2014-01-18T06:49:18Z</time>
      </trkpt>
      <trkpt lat="43.59256" lon="2.94172">
        <ele>632.8</ele>
        <time>2014-01-18T06:49:20Z</time>
      </trkpt>
      <trkpt lat="43.59251" lon="2.94174">
        <ele>632.8</ele>
        <time>2014-01-18T06:49:25Z</time>
      </trkpt>
      <trkpt lat="43.59248" lon="2.94174">
        <ele>632.8</ele>
        <time>2014-01-18T06:49:28Z</time>
      </trkpt>
      <trkpt lat="43.59246" lon="2.94175">
        <ele>632.8</ele>
        <time>2014-01-18T06:49:30Z</time>
      </trkpt>
      <trkpt lat="43.59246" lon="2.94175">
        <ele>632.8</ele>
        <time>2014-01-18T06:49:31Z</time>
      </trkpt>
      <trkpt lat="43.59245" lon="2.94175">
        <ele>632.8</ele>
        <time>2014-01-18T06:49:32Z</time>
      </trkpt>
      <trkpt lat="43.59245" lon="2.94176">
        <ele>633.2</ele>
        <time>2014-01-18T06:49:33Z</time>
      </trkpt>
      <trkpt lat="43.59244" lon="2.94176">
        <ele>633.6</ele>
        <time>2014-01-18T06:49:34Z</time>
      </trkpt>
      <trkpt lat="43.59243" lon="2.94177">
        <ele>634</ele>
        <time>2014-01-18T06:49:35Z</time>
      </trkpt>
      <trkpt lat="43.59242" lon="2.94177">
        <ele>634.8</ele>
        <time>2014-01-18T06:49:36Z</time>
      </trkpt>
      <trkpt lat="43.59242" lon="2.94178">
        <ele>634.8</ele>
        <time>2014-01-18T06:49:37Z</time>
      </trkpt>
      <trkpt lat="43.59242" lon="2.94178">
        <ele>634.8</ele>
        <time>2014-01-18T06:49:39Z</time>
      </trkpt>
      <trkpt lat="43.59241" lon="2.9418">
        <ele>634.8</ele>
        <time>2014-01-18T06:49:40Z</time>
      </trkpt>
      <trkpt lat="43.59241" lon="2.9418">
        <ele>634.8</ele>
        <time>2014-01-18T06:49:41Z</time>
      </trkpt>
      <trkpt lat="43.5924" lon="2.9418">
        <ele>634.8</ele>
        <time>2014-01-18T06:49:42Z</time>
      </trkpt>
      <trkpt lat="43.59238" lon="2.94181">
        <ele>634.8</ele>
        <time>2014-01-18T06:49:44Z</time>
      </trkpt>
      <trkpt lat="43.59237" lon="2.94181">
        <ele>635.2</ele>
        <time>2014-01-18T06:49:45Z</time>
      </trkpt>
      <trkpt lat="43.59236" lon="2.94182">
        <ele>635.8</ele>
        <time>2014-01-18T06:49:46Z</time>
      </trkpt>
      <trkpt lat="43.59236" lon="2.94182">
        <ele>636.2</ele>
        <time>2014-01-18T06:49:47Z</time>
      </trkpt>
      <trkpt lat="43.59236" lon="2.94181">
        <ele>636.6</ele>
        <time>2014-01-18T06:49:48Z</time>
      </trkpt>
      <trkpt lat="43.59235" lon="2.94183">
        <ele>637</ele>
        <time>2014-01-18T06:49:49Z</time>
      </trkpt>
      <trkpt lat="43.59234" lon="2.94183">
        <ele>637</ele>
        <time>2014-01-18T06:49:50Z</time>
      </trkpt>
      <trkpt lat="43.5923" lon="2.94184">
        <ele>637</ele>
        <time>2014-01-18T06:49:53Z</time>
      </trkpt>
      <trkpt lat="43.59223" lon="2.94186">
        <ele>637.4</ele>
        <time>2014-01-18T06:49:58Z</time>
      </trkpt>
      <trkpt lat="43.59222" lon="2.94187">
        <ele>637.8</ele>
        <time>2014-01-18T06:49:59Z</time>
      </trkpt>
      <trkpt lat="43.59221" lon="2.94188">
        <ele>638.2</ele>
        <time>2014-01-18T06:50:00Z</time>
      </trkpt>
      <trkpt lat="43.5922" lon="2.94188">
        <ele>639</ele>
        <time>2014-01-18T06:50:01Z</time>
      </trkpt>
      <trkpt lat="43.59216" lon="2.94188">
        <ele>639</ele>
        <time>2014-01-18T06:50:05Z</time>
      </trkpt>
      <trkpt lat="43.59209" lon="2.94191">
        <ele>639</ele>
        <time>2014-01-18T06:50:13Z</time>
      </trkpt>
      <trkpt lat="43.59203" lon="2.94194">
        <ele>639</ele>
        <time>2014-01-18T06:50:21Z</time>
      </trkpt>
      <trkpt lat="43.59201" lon="2.94195">
        <ele>639.6</ele>
        <time>2014-01-18T06:50:24Z</time>
      </trkpt>
      <trkpt lat="43.592" lon="2.94195">
        <ele>640.4</ele>
        <time>2014-01-18T06:50:25Z</time>
      </trkpt>
      <trkpt lat="43.59198" lon="2.94195">
        <ele>640.8</ele>
        <time>2014-01-18T06:50:26Z</time>
      </trkpt>
      <trkpt lat="43.59197" lon="2.94195">
        <ele>641.2</ele>
        <time>2014-01-18T06:50:27Z</time>
      </trkpt>
      <trkpt lat="43.59196" lon="2.94194">
        <ele>641.8</ele>
        <time>2014-01-18T06:50:28Z</time>
      </trkpt>
      <trkpt lat="43.59195" lon="2.94194">
        <ele>642.2</ele>
        <time>2014-01-18T06:50:29Z</time>
      </trkpt>
      <trkpt lat="43.59194" lon="2.94194">
        <ele>642.8</ele>
        <time>2014-01-18T06:50:30Z</time>
      </trkpt>
      <trkpt lat="43.59193" lon="2.94194">
        <ele>643.2</ele>
        <time>2014-01-18T06:50:31Z</time>
      </trkpt>
      <trkpt lat="43.59191" lon="2.94193">
        <ele>643.2</ele>
        <time>2014-01-18T06:50:33Z</time>
      </trkpt>
      <trkpt lat="43.5919" lon="2.94194">
        <ele>643.2</ele>
        <time>2014-01-18T06:50:35Z</time>
      </trkpt>
      <trkpt lat="43.59187" lon="2.94193">
        <ele>643.2</ele>
        <time>2014-01-18T06:50:38Z</time>
      </trkpt>
      <trkpt lat="43.59185" lon="2.94195">
        <ele>643.2</ele>
        <time>2014-01-18T06:50:40Z</time>
      </trkpt>
      <trkpt lat="43.59181" lon="2.94196">
        <ele>643.2</ele>
        <time>2014-01-18T06:50:45Z</time>
      </trkpt>
      <trkpt lat="43.59179" lon="2.94196">
        <ele>643.2</ele>
        <time>2014-01-18T06:50:46Z</time>
      </trkpt>
      <trkpt lat="43.59175" lon="2.94196">
        <ele>643.2</ele>
        <time>2014-01-18T06:50:50Z</time>
      </trkpt>
      <trkpt lat="43.59172" lon="2.94197">
        <ele>643.2</ele>
        <time>2014-01-18T06:50:53Z</time>
      </trkpt>
      <trkpt lat="43.59169" lon="2.94199">
        <ele>643.8</ele>
        <time>2014-01-18T06:50:58Z</time>
      </trkpt>
      <trkpt lat="43.59168" lon="2.942">
        <ele>644.2</ele>
        <time>2014-01-18T06:50:59Z</time>
      </trkpt>
      <trkpt lat="43.59167" lon="2.942">
        <ele>644.6</ele>
        <time>2014-01-18T06:51:00Z</time>
      </trkpt>
      <trkpt lat="43.59167" lon="2.942">
        <ele>645.4</ele>
        <time>2014-01-18T06:51:07Z</time>
      </trkpt>
      <trkpt lat="43.59166" lon="2.942">
        <ele>645.4</ele>
        <time>2014-01-18T06:51:09Z</time>
      </trkpt>
      <trkpt lat="43.59166" lon="2.942">
        <ele>645.4</ele>
        <time>2014-01-18T06:51:10Z</time>
      </trkpt>
      <trkpt lat="43.59165" lon="2.942">
        <ele>645.4</ele>
        <time>2014-01-18T06:51:11Z</time>
      </trkpt>
      <trkpt lat="43.59165" lon="2.94201">
        <ele>645.4</ele>
        <time>2014-01-18T06:51:12Z</time>
      </trkpt>
      <trkpt lat="43.59163" lon="2.94202">
        <ele>645.8</ele>
        <time>2014-01-18T06:51:15Z</time>
      </trkpt>
      <trkpt lat="43.59163" lon="2.94203">
        <ele>646.2</ele>
        <time>2014-01-18T06:51:16Z</time>
      </trkpt>
      <trkpt lat="43.59163" lon="2.94203">
        <ele>647.6</ele>
        <time>2014-01-18T06:51:22Z</time>
      </trkpt>
      <trkpt lat="43.59161" lon="2.94202">
        <ele>647.6</ele>
        <time>2014-01-18T06:51:23Z</time>
      </trkpt>
      <trkpt lat="43.59158" lon="2.94202">
        <ele>647.6</ele>
        <time>2014-01-18T06:51:27Z</time>
      </trkpt>
      <trkpt lat="43.59158" lon="2.94202">
        <ele>647.6</ele>
        <time>2014-01-18T06:51:28Z</time>
      </trkpt>
      <trkpt lat="43.59157" lon="2.94202">
        <ele>647.6</ele>
        <time>2014-01-18T06:51:29Z</time>
      </trkpt>
      <trkpt lat="43.59157" lon="2.94203">
        <ele>647.6</ele>
        <time>2014-01-18T06:51:31Z</time>
      </trkpt>
      <trkpt lat="43.59156" lon="2.94204">
        <ele>647.6</ele>
        <time>2014-01-18T06:51:32Z</time>
      </trkpt>
      <trkpt lat="43.59151" lon="2.94204">
        <ele>647.6</ele>
        <time>2014-01-18T06:51:38Z</time>
      </trkpt>
      <trkpt lat="43.5915" lon="2.94204">
        <ele>647.6</ele>
        <time>2014-01-18T06:51:39Z</time>
      </trkpt>
      <trkpt lat="43.5915" lon="2.94204">
        <ele>648</ele>
        <time>2014-01-18T06:51:40Z</time>
      </trkpt>
      <trkpt lat="43.59149" lon="2.94205">
        <ele>649.4</ele>
        <time>2014-01-18T06:51:43Z</time>
      </trkpt>
      <trkpt lat="43.59148" lon="2.94205">
        <ele>649.8</ele>
        <time>2014-01-18T06:51:44Z</time>
      </trkpt>
      <trkpt lat="43.59147" lon="2.94207">
        <ele>649.8</ele>
        <time>2014-01-18T06:51:46Z</time>
      </trkpt>
      <trkpt lat="43.59142" lon="2.94215">
        <ele>649.8</ele>
        <time>2014-01-18T06:51:54Z</time>
      </trkpt>
      <trkpt lat="43.5914" lon="2.94216">
        <ele>649.8</ele>
        <time>2014-01-18T06:51:57Z</time>
      </trkpt>
      <trkpt lat="43.59139" lon="2.94217">
        <ele>649.8</ele>
        <time>2014-01-18T06:51:58Z</time>
      </trkpt>
      <trkpt lat="43.59138" lon="2.94218">
        <ele>649.8</ele>
        <time>2014-01-18T06:51:59Z</time>
      </trkpt>
      <trkpt lat="43.59137" lon="2.94219">
        <ele>650.2</ele>
        <time>2014-01-18T06:52:00Z</time>
      </trkpt>
      <trkpt lat="43.59137" lon="2.94221">
        <ele>650.6</ele>
        <time>2014-01-18T06:52:01Z</time>
      </trkpt>
      <trkpt lat="43.59136" lon="2.94222">
        <ele>651</ele>
        <time>2014-01-18T06:52:02Z</time>
      </trkpt>
      <trkpt lat="43.59136" lon="2.94223">
        <ele>651.4</ele>
        <time>2014-01-18T06:52:03Z</time>
      </trkpt>
      <trkpt lat="43.59135" lon="2.94224">
        <ele>651.8</ele>
        <time>2014-01-18T06:52:04Z</time>
      </trkpt>
      <trkpt lat="43.59135" lon="2.94226">
        <ele>651.8</ele>
        <time>2014-01-18T06:52:05Z</time>
      </trkpt>
      <trkpt lat="43.59131" lon="2.94229">
        <ele>651.8</ele>
        <time>2014-01-18T06:52:10Z</time>
      </trkpt>
      <trkpt lat="43.59131" lon="2.94229">
        <ele>651.8</ele>
        <time>2014-01-18T06:52:29Z</time>
      </trkpt>
      <trkpt lat="43.59131" lon="2.94229">
        <ele>651.8</ele>
        <time>2014-01-18T06:52:30Z</time>
      </trkpt>
      <trkpt lat="43.59129" lon="2.9423">
        <ele>651.8</ele>
        <time>2014-01-18T06:52:36Z</time>
      </trkpt>
      <trkpt lat="43.59127" lon="2.94232">
        <ele>651.8</ele>
        <time>2014-01-18T06:52:43Z</time>
      </trkpt>
      <trkpt lat="43.59127" lon="2.94232">
        <ele>651.8</ele>
        <time>2014-01-18T06:52:44Z</time>
      </trkpt>
      <trkpt lat="43.59125" lon="2.94234">
        <ele>651.8</ele>
        <time>2014-01-18T06:52:48Z</time>
      </trkpt>
      <trkpt lat="43.59124" lon="2.94235">
        <ele>651.8</ele>
        <time>2014-01-18T06:52:51Z</time>
      </trkpt>
      <trkpt lat="43.5912" lon="2.94241">
        <ele>651.8</ele>
        <time>2014-01-18T06:52:58Z</time>
      </trkpt>
      <trkpt lat="43.59117" lon="2.94247">
        <ele>652.4</ele>
        <time>2014-01-18T06:53:02Z</time>
      </trkpt>
      <trkpt lat="43.59116" lon="2.94248">
        <ele>652.8</ele>
        <time>2014-01-18T06:53:03Z</time>
      </trkpt>
      <trkpt lat="43.59115" lon="2.9425">
        <ele>653.4</ele>
        <time>2014-01-18T06:53:04Z</time>
      </trkpt>
      <trkpt lat="43.59114" lon="2.94251">
        <ele>653.8</ele>
        <time>2014-01-18T06:53:05Z</time>
      </trkpt>
      <trkpt lat="43.59114" lon="2.94253">
        <ele>654.4</ele>
        <time>2014-01-18T06:53:06Z</time>
      </trkpt>
      <trkpt lat="43.59113" lon="2.94256">
        <ele>654.4</ele>
        <time>2014-01-18T06:53:08Z</time>
      </trkpt>
      <trkpt lat="43.59113" lon="2.94258">
        <ele>654.4</ele>
        <time>2014-01-18T06:53:10Z</time>
      </trkpt>
      <trkpt lat="43.59111" lon="2.94263">
        <ele>654.4</ele>
        <time>2014-01-18T06:53:15Z</time>
      </trkpt>
      <trkpt lat="43.5911" lon="2.94264">
        <ele>654.4</ele>
        <time>2014-01-18T06:53:16Z</time>
      </trkpt>
      <trkpt lat="43.59105" lon="2.94273">
        <ele>654.4</ele>
        <time>2014-01-18T06:53:24Z</time>
      </trkpt>
      <trkpt lat="43.59104" lon="2.94275">
        <ele>654.4</ele>
        <time>2014-01-18T06:53:25Z</time>
      </trkpt>
      <trkpt lat="43.59103" lon="2.94277">
        <ele>654.4</ele>
        <time>2014-01-18T06:53:27Z</time>
      </trkpt>
      <trkpt lat="43.59102" lon="2.9428">
        <ele>654.4</ele>
        <time>2014-01-18T06:53:29Z</time>
      </trkpt>
      <trkpt lat="43.59101" lon="2.94282">
        <ele>654.4</ele>
        <time>2014-01-18T06:53:31Z</time>
      </trkpt>
      <trkpt lat="43.591" lon="2.94284">
        <ele>654.4</ele>
        <time>2014-01-18T06:53:32Z</time>
      </trkpt>
      <trkpt lat="43.59098" lon="2.94291">
        <ele>654.4</ele>
        <time>2014-01-18T06:53:36Z</time>
      </trkpt>
      <trkpt lat="43.59096" lon="2.94294">
        <ele>654.4</ele>
        <time>2014-01-18T06:53:40Z</time>
      </trkpt>
      <trkpt lat="43.59091" lon="2.94305">
        <ele>654.4</ele>
        <time>2014-01-18T06:53:46Z</time>
      </trkpt>
      <trkpt lat="43.59089" lon="2.94307">
        <ele>654.4</ele>
        <time>2014-01-18T06:53:48Z</time>
      </trkpt>
      <trkpt lat="43.59083" lon="2.94312">
        <ele>654.4</ele>
        <time>2014-01-18T06:53:52Z</time>
      </trkpt>
      <trkpt lat="43.59075" lon="2.94322">
        <ele>654.8</ele>
        <time>2014-01-18T06:53:55Z</time>
      </trkpt>
      <trkpt lat="43.59073" lon="2.94325">
        <ele>655.2</ele>
        <time>2014-01-18T06:53:56Z</time>
      </trkpt>
      <trkpt lat="43.5907" lon="2.94327">
        <ele>655.6</ele>
        <time>2014-01-18T06:53:57Z</time>
      </trkpt>
      <trkpt lat="43.59068" lon="2.94329">
        <ele>656</ele>
        <time>2014-01-18T06:53:58Z</time>
      </trkpt>
      <trkpt lat="43.59065" lon="2.94331">
        <ele>656.4</ele>
        <time>2014-01-18T06:53:59Z</time>
      </trkpt>
      <trkpt lat="43.59059" lon="2.94336">
        <ele>656.4</ele>
        <time>2014-01-18T06:54:01Z</time>
      </trkpt>
      <trkpt lat="43.59056" lon="2.94341">
        <ele>656.4</ele>
        <time>2014-01-18T06:54:02Z</time>
      </trkpt>
      <trkpt lat="43.59047" lon="2.94348">
        <ele>656.4</ele>
        <time>2014-01-18T06:54:06Z</time>
      </trkpt>
      <trkpt lat="43.59041" lon="2.94347">
        <ele>656.4</ele>
        <time>2014-01-18T06:54:08Z</time>
      </trkpt>
      <trkpt lat="43.59034" lon="2.9435">
        <ele>656.4</ele>
        <time>2014-01-18T06:54:11Z</time>
      </trkpt>
      <trkpt lat="43.59024" lon="2.94354">
        <ele>656.4</ele>
        <time>2014-01-18T06:54:15Z</time>
      </trkpt>
      <trkpt lat="43.59022" lon="2.94355">
        <ele>656.4</ele>
        <time>2014-01-18T06:54:16Z</time>
      </trkpt>
      <trkpt lat="43.59018" lon="2.94355">
        <ele>656.4</ele>
        <time>2014-01-18T06:54:18Z</time>
      </trkpt>
      <trkpt lat="43.59009" lon="2.94357">
        <ele>656.4</ele>
        <time>2014-01-18T06:54:22Z</time>
      </trkpt>
      <trkpt lat="43.58999" lon="2.94359">
        <ele>656.4</ele>
        <time>2014-01-18T06:54:26Z</time>
      </trkpt>
      <trkpt lat="43.58996" lon="2.9436">
        <ele>656.4</ele>
        <time>2014-01-18T06:54:27Z</time>
      </trkpt>
      <trkpt lat="43.58985" lon="2.94366">
        <ele>656.8</ele>
        <time>2014-01-18T06:54:31Z</time>
      </trkpt>
      <trkpt lat="43.58983" lon="2.94366">
        <ele>657.2</ele>
        <time>2014-01-18T06:54:32Z</time>
      </trkpt>
      <trkpt lat="43.58981" lon="2.94366">
        <ele>658</ele>
        <time>2014-01-18T06:54:33Z</time>
      </trkpt>
      <trkpt lat="43.58978" lon="2.94368">
        <ele>658.4</ele>
        <time>2014-01-18T06:54:34Z</time>
      </trkpt>
      <trkpt lat="43.58976" lon="2.9437">
        <ele>658.4</ele>
        <time>2014-01-18T06:54:35Z</time>
      </trkpt>
      <trkpt lat="43.58965" lon="2.94371">
        <ele>658.4</ele>
        <time>2014-01-18T06:54:40Z</time>
      </trkpt>
      <trkpt lat="43.58952" lon="2.9437">
        <ele>658.4</ele>
        <time>2014-01-18T06:54:45Z</time>
      </trkpt>
      <trkpt lat="43.58943" lon="2.94372">
        <ele>658.4</ele>
        <time>2014-01-18T06:54:49Z</time>
      </trkpt>
      <trkpt lat="43.58941" lon="2.94372">
        <ele>658.8</ele>
        <time>2014-01-18T06:54:50Z</time>
      </trkpt>
      <trkpt lat="43.58938" lon="2.94372">
        <ele>659.2</ele>
        <time>2014-01-18T06:54:51Z</time>
      </trkpt>
      <trkpt lat="43.58936" lon="2.94373">
        <ele>659.6</ele>
        <time>2014-01-18T06:54:52Z</time>
      </trkpt>
      <trkpt lat="43.58934" lon="2.94373">
        <ele>660</ele>
        <time>2014-01-18T06:54:53Z</time>
      </trkpt>
      <trkpt lat="43.58931" lon="2.94373">
        <ele>660.4</ele>
        <time>2014-01-18T06:54:54Z</time>
      </trkpt>
      <trkpt lat="43.58927" lon="2.94374">
        <ele>660.4</ele>
        <time>2014-01-18T06:54:56Z</time>
      </trkpt>
      <trkpt lat="43.58924" lon="2.94373">
        <ele>660.4</ele>
        <time>2014-01-18T06:54:57Z</time>
      </trkpt>
      <trkpt lat="43.58911" lon="2.94376">
        <ele>660.4</ele>
        <time>2014-01-18T06:55:02Z</time>
      </trkpt>
      <trkpt lat="43.58901" lon="2.94378">
        <ele>660.4</ele>
        <time>2014-01-18T06:55:06Z</time>
      </trkpt>
      <trkpt lat="43.58888" lon="2.94381">
        <ele>660.4</ele>
        <time>2014-01-18T06:55:11Z</time>
      </trkpt>
      <trkpt lat="43.58875" lon="2.94387">
        <ele>660.4</ele>
        <time>2014-01-18T06:55:17Z</time>
      </trkpt>
      <trkpt lat="43.5886" lon="2.9439">
        <ele>660.4</ele>
        <time>2014-01-18T06:55:22Z</time>
      </trkpt>
      <trkpt lat="43.58845" lon="2.94393">
        <ele>660.4</ele>
        <time>2014-01-18T06:55:27Z</time>
      </trkpt>
      <trkpt lat="43.58834" lon="2.94394">
        <ele>660.4</ele>
        <time>2014-01-18T06:55:31Z</time>
      </trkpt>
      <trkpt lat="43.58829" lon="2.94396">
        <ele>660.4</ele>
        <time>2014-01-18T06:55:33Z</time>
      </trkpt>
      <trkpt lat="43.58812" lon="2.94395">
        <ele>660.4</ele>
        <time>2014-01-18T06:55:39Z</time>
      </trkpt>
      <trkpt lat="43.58795" lon="2.94393">
        <ele>660.4</ele>
        <time>2014-01-18T06:55:45Z</time>
      </trkpt>
      <trkpt lat="43.58784" lon="2.94391">
        <ele>660.4</ele>
        <time>2014-01-18T06:55:50Z</time>
      </trkpt>
      <trkpt lat="43.58772" lon="2.94398">
        <ele>660</ele>
        <time>2014-01-18T06:55:55Z</time>
      </trkpt>
      <trkpt lat="43.58771" lon="2.944">
        <ele>659.6</ele>
        <time>2014-01-18T06:55:56Z</time>
      </trkpt>
      <trkpt lat="43.58769" lon="2.94402">
        <ele>659.2</ele>
        <time>2014-01-18T06:55:57Z</time>
      </trkpt>
      <trkpt lat="43.58768" lon="2.94402">
        <ele>658.6</ele>
        <time>2014-01-18T06:55:58Z</time>
      </trkpt>
      <trkpt lat="43.58766" lon="2.94404">
        <ele>658.2</ele>
        <time>2014-01-18T06:55:59Z</time>
      </trkpt>
      <trkpt lat="43.58762" lon="2.94404">
        <ele>658.2</ele>
        <time>2014-01-18T06:56:00Z</time>
      </trkpt>
      <trkpt lat="43.58751" lon="2.94411">
        <ele>658.2</ele>
        <time>2014-01-18T06:56:06Z</time>
      </trkpt>
      <trkpt lat="43.5875" lon="2.94413">
        <ele>658.2</ele>
        <time>2014-01-18T06:56:07Z</time>
      </trkpt>
      <trkpt lat="43.58745" lon="2.94416">
        <ele>658.2</ele>
        <time>2014-01-18T06:56:10Z</time>
      </trkpt>
      <trkpt lat="43.5874" lon="2.94421">
        <ele>658.2</ele>
        <time>2014-01-18T06:56:14Z</time>
      </trkpt>
      <trkpt lat="43.58739" lon="2.94422">
        <ele>658.2</ele>
        <time>2014-01-18T06:56:15Z</time>
      </trkpt>
      <trkpt lat="43.58739" lon="2.94422">
        <ele>658.6</ele>
        <time>2014-01-18T06:56:16Z</time>
      </trkpt>
      <trkpt lat="43.58738" lon="2.94423">
        <ele>659.2</ele>
        <time>2014-01-18T06:56:17Z</time>
      </trkpt>
      <trkpt lat="43.58738" lon="2.94423">
        <ele>659.6</ele>
        <time>2014-01-18T06:56:18Z</time>
      </trkpt>
      <trkpt lat="43.58738" lon="2.94423">
        <ele>660</ele>
        <time>2014-01-18T06:56:19Z</time>
      </trkpt>
      <trkpt lat="43.58738" lon="2.94423">
        <ele>660.4</ele>
        <time>2014-01-18T06:56:20Z</time>
      </trkpt>
      <trkpt lat="43.58738" lon="2.94423">
        <ele>660.4</ele>
        <time>2014-01-18T06:56:21Z</time>
      </trkpt>
      <trkpt lat="43.58732" lon="2.94425">
        <ele>660.4</ele>
        <time>2014-01-18T06:56:27Z</time>
      </trkpt>
      <trkpt lat="43.58725" lon="2.94426">
        <ele>660.4</ele>
        <time>2014-01-18T06:56:32Z</time>
      </trkpt>
      <trkpt lat="43.58717" lon="2.94429">
        <ele>660.4</ele>
        <time>2014-01-18T06:56:35Z</time>
      </trkpt>
      <trkpt lat="43.58715" lon="2.94431">
        <ele>660.4</ele>
        <time>2014-01-18T06:56:36Z</time>
      </trkpt>
      <trkpt lat="43.58708" lon="2.94435">
        <ele>660.4</ele>
        <time>2014-01-18T06:56:39Z</time>
      </trkpt>
      <trkpt lat="43.58705" lon="2.94438">
        <ele>660.4</ele>
        <time>2014-01-18T06:56:40Z</time>
      </trkpt>
      <trkpt lat="43.58703" lon="2.94445">
        <ele>660.4</ele>
        <time>2014-01-18T06:56:43Z</time>
      </trkpt>
      <trkpt lat="43.58699" lon="2.94448">
        <ele>660.4</ele>
        <time>2014-01-18T06:56:46Z</time>
      </trkpt>
      <trkpt lat="43.58696" lon="2.9445">
        <ele>660.4</ele>
        <time>2014-01-18T06:56:48Z</time>
      </trkpt>
      <trkpt lat="43.58692" lon="2.94456">
        <ele>660.4</ele>
        <time>2014-01-18T06:56:51Z</time>
      </trkpt>
      <trkpt lat="43.58689" lon="2.94459">
        <ele>660.8</ele>
        <time>2014-01-18T06:56:53Z</time>
      </trkpt>
      <trkpt lat="43.58689" lon="2.94459">
        <ele>661.2</ele>
        <time>2014-01-18T06:56:54Z</time>
      </trkpt>
      <trkpt lat="43.58689" lon="2.94459">
        <ele>661.6</ele>
        <time>2014-01-18T06:56:55Z</time>
      </trkpt>
      <trkpt lat="43.58689" lon="2.94459">
        <ele>662</ele>
        <time>2014-01-18T06:56:56Z</time>
      </trkpt>
      <trkpt lat="43.58689" lon="2.94459">
        <ele>662.4</ele>
        <time>2014-01-18T06:56:57Z</time>
      </trkpt>
      <trkpt lat="43.58688" lon="2.94459">
        <ele>662.4</ele>
        <time>2014-01-18T06:56:58Z</time>
      </trkpt>
      <trkpt lat="43.58686" lon="2.94462">
        <ele>662.4</ele>
        <time>2014-01-18T06:57:01Z</time>
      </trkpt>
      <trkpt lat="43.58685" lon="2.94464">
        <ele>662.4</ele>
        <time>2014-01-18T06:57:02Z</time>
      </trkpt>
      <trkpt lat="43.58682" lon="2.9447">
        <ele>662.4</ele>
        <time>2014-01-18T06:57:09Z</time>
      </trkpt>
      <trkpt lat="43.58681" lon="2.94471">
        <ele>662.4</ele>
        <time>2014-01-18T06:57:10Z</time>
      </trkpt>
      <trkpt lat="43.58679" lon="2.94475">
        <ele>662.4</ele>
        <time>2014-01-18T06:57:14Z</time>
      </trkpt>
      <trkpt lat="43.58676" lon="2.94476">
        <ele>662.4</ele>
        <time>2014-01-18T06:57:18Z</time>
      </trkpt>
      <trkpt lat="43.58675" lon="2.94477">
        <ele>663</ele>
        <time>2014-01-18T06:57:20Z</time>
      </trkpt>
      <trkpt lat="43.58674" lon="2.94479">
        <ele>663.4</ele>
        <time>2014-01-18T06:57:21Z</time>
      </trkpt>
      <trkpt lat="43.58673" lon="2.94481">
        <ele>663.8</ele>
        <time>2014-01-18T06:57:22Z</time>
      </trkpt>
      <trkpt lat="43.58672" lon="2.94482">
        <ele>664.2</ele>
        <time>2014-01-18T06:57:23Z</time>
      </trkpt>
      <trkpt lat="43.58671" lon="2.94484">
        <ele>664.6</ele>
        <time>2014-01-18T06:57:24Z</time>
      </trkpt>
      <trkpt lat="43.5867" lon="2.94485">
        <ele>664.6</ele>
        <time>2014-01-18T06:57:25Z</time>
      </trkpt>
      <trkpt lat="43.58663" lon="2.94492">
        <ele>664.6</ele>
        <time>2014-01-18T06:57:30Z</time>
      </trkpt>
      <trkpt lat="43.58662" lon="2.94495">
        <ele>664.6</ele>
        <time>2014-01-18T06:57:32Z</time>
      </trkpt>
      <trkpt lat="43.58662" lon="2.94499">
        <ele>664.6</ele>
        <time>2014-01-18T06:57:34Z</time>
      </trkpt>
      <trkpt lat="43.58662" lon="2.945">
        <ele>664.6</ele>
        <time>2014-01-18T06:57:35Z</time>
      </trkpt>
      <trkpt lat="43.58663" lon="2.94502">
        <ele>664.6</ele>
        <time>2014-01-18T06:57:41Z</time>
      </trkpt>
      <trkpt lat="43.58662" lon="2.94508">
        <ele>664.6</ele>
        <time>2014-01-18T06:57:46Z</time>
      </trkpt>
      <trkpt lat="43.58662" lon="2.9451">
        <ele>664.6</ele>
        <time>2014-01-18T06:57:51Z</time>
      </trkpt>
      <trkpt lat="43.58661" lon="2.94512">
        <ele>664.6</ele>
        <time>2014-01-18T06:57:56Z</time>
      </trkpt>
      <trkpt lat="43.58661" lon="2.94512">
        <ele>664.6</ele>
        <time>2014-01-18T06:58:01Z</time>
      </trkpt>
      <trkpt lat="43.58661" lon="2.94512">
        <ele>664.6</ele>
        <time>2014-01-18T06:58:07Z</time>
      </trkpt>
      <trkpt lat="43.58661" lon="2.94512">
        <ele>664.6</ele>
        <time>2014-01-18T06:58:08Z</time>
      </trkpt>
      <trkpt lat="43.58661" lon="2.94512">
        <ele>664.6</ele>
        <time>2014-01-18T06:58:11Z</time>
      </trkpt>
      <trkpt lat="43.58661" lon="2.94512">
        <ele>664.6</ele>
        <time>2014-01-18T06:58:13Z</time>
      </trkpt>
      <trkpt lat="43.58661" lon="2.94512">
        <ele>664.6</ele>
        <time>2014-01-18T06:58:17Z</time>
      </trkpt>
      <trkpt lat="43.58661" lon="2.94512">
        <ele>664.6</ele>
        <time>2014-01-18T06:58:21Z</time>
      </trkpt>
      <trkpt lat="43.58661" lon="2.94512">
        <ele>664.6</ele>
        <time>2014-01-18T06:58:22Z</time>
      </trkpt>
      <trkpt lat="43.58661" lon="2.94512">
        <ele>664.6</ele>
        <time>2014-01-18T06:58:32Z</time>
      </trkpt>
      <trkpt lat="43.58661" lon="2.94512">
        <ele>664.6</ele>
        <time>2014-01-18T06:58:40Z</time>
      </trkpt>
      <trkpt lat="43.58661" lon="2.94512">
        <ele>664.6</ele>
        <time>2014-01-18T06:58:45Z</time>
      </trkpt>
      <trkpt lat="43.58661" lon="2.94512">
        <ele>665</ele>
        <time>2014-01-18T06:58:46Z</time>
      </trkpt>
      <trkpt lat="43.58661" lon="2.94512">
        <ele>665.4</ele>
        <time>2014-01-18T06:58:47Z</time>
      </trkpt>
      <trkpt lat="43.58661" lon="2.94512">
        <ele>666</ele>
        <time>2014-01-18T06:58:48Z</time>
      </trkpt>
      <trkpt lat="43.58661" lon="2.94512">
        <ele>666.4</ele>
        <time>2014-01-18T06:58:49Z</time>
      </trkpt>
      <trkpt lat="43.58661" lon="2.94512">
        <ele>666.8</ele>
        <time>2014-01-18T06:58:50Z</time>
      </trkpt>
      <trkpt lat="43.58661" lon="2.94512">
        <ele>666.8</ele>
        <time>2014-01-18T06:59:01Z</time>
      </trkpt>
      <trkpt lat="43.58661" lon="2.94512">
        <ele>666.8</ele>
        <time>2014-01-18T06:59:11Z</time>
      </trkpt>
      <trkpt lat="43.58661" lon="2.94512">
        <ele>666.8</ele>
        <time>2014-01-18T06:59:15Z</time>
      </trkpt>
      <trkpt lat="43.58661" lon="2.94512">
        <ele>666.8</ele>
        <time>2014-01-18T06:59:28Z</time>
      </trkpt>
      <trkpt lat="43.58661" lon="2.94512">
        <ele>666.8</ele>
        <time>2014-01-18T06:59:40Z</time>
      </trkpt>
      <trkpt lat="43.58661" lon="2.94512">
        <ele>666.8</ele>
        <time>2014-01-18T06:59:50Z</time>
      </trkpt>
      <trkpt lat="43.58661" lon="2.94512">
        <ele>666.8</ele>
        <time>2014-01-18T07:00:02Z</time>
      </trkpt>
      <trkpt lat="43.58661" lon="2.94512">
        <ele>666.8</ele>
        <time>2014-01-18T07:00:08Z</time>
      </trkpt>
      <trkpt lat="43.58661" lon="2.94512">
        <ele>666.8</ele>
        <time>2014-01-18T07:00:18Z</time>
      </trkpt>
      <trkpt lat="43.58661" lon="2.94512">
        <ele>666.4</ele>
        <time>2014-01-18T07:00:22Z</time>
      </trkpt>
      <trkpt lat="43.58661" lon="2.94512">
        <ele>666</ele>
        <time>2014-01-18T07:00:23Z</time>
      </trkpt>
      <trkpt lat="43.58661" lon="2.94512">
        <ele>665.4</ele>
        <time>2014-01-18T07:00:24Z</time>
      </trkpt>
      <trkpt lat="43.58661" lon="2.94512">
        <ele>665</ele>
        <time>2014-01-18T07:00:25Z</time>
      </trkpt>
      <trkpt lat="43.58661" lon="2.94512">
        <ele>664.6</ele>
        <time>2014-01-18T07:00:26Z</time>
      </trkpt>
      <trkpt lat="43.58661" lon="2.94512">
        <ele>664.6</ele>
        <time>2014-01-18T07:00:31Z</time>
      </trkpt>
      <trkpt lat="43.58661" lon="2.94512">
        <ele>664.6</ele>
        <time>2014-01-18T07:00:37Z</time>
      </trkpt>
      <trkpt lat="43.58661" lon="2.94512">
        <ele>664.6</ele>
        <time>2014-01-18T07:00:44Z</time>
      </trkpt>
      <trkpt lat="43.58661" lon="2.94512">
        <ele>664.6</ele>
        <time>2014-01-18T07:00:49Z</time>
      </trkpt>
      <trkpt lat="43.58661" lon="2.94512">
        <ele>664.6</ele>
        <time>2014-01-18T07:00:53Z</time>
      </trkpt>
      <trkpt lat="43.58661" lon="2.94512">
        <ele>664.6</ele>
        <time>2014-01-18T07:00:58Z</time>
      </trkpt>
      <trkpt lat="43.58661" lon="2.94512">
        <ele>665.2</ele>
        <time>2014-01-18T07:01:08Z</time>
      </trkpt>
      <trkpt lat="43.58661" lon="2.94512">
        <ele>666</ele>
        <time>2014-01-18T07:01:09Z</time>
      </trkpt>
      <trkpt lat="43.58661" lon="2.94512">
        <ele>666.4</ele>
        <time>2014-01-18T07:01:10Z</time>
      </trkpt>
      <trkpt lat="43.58661" lon="2.94512">
        <ele>666.8</ele>
        <time>2014-01-18T07:01:11Z</time>
      </trkpt>
      <trkpt lat="43.58661" lon="2.94512">
        <ele>666.8</ele>
        <time>2014-01-18T07:01:14Z</time>
      </trkpt>
      <trkpt lat="43.58661" lon="2.94512">
        <ele>666.8</ele>
        <time>2014-01-18T07:01:20Z</time>
      </trkpt>
      <trkpt lat="43.58661" lon="2.94512">
        <ele>666.8</ele>
        <time>2014-01-18T07:01:30Z</time>
      </trkpt>
      <trkpt lat="43.58661" lon="2.94513">
        <ele>666.8</ele>
        <time>2014-01-18T07:01:32Z</time>
      </trkpt>
      <trkpt lat="43.58661" lon="2.94513">
        <ele>666</ele>
        <time>2014-01-18T07:01:34Z</time>
      </trkpt>
      <trkpt lat="43.58661" lon="2.94513">
        <ele>665.6</ele>
        <time>2014-01-18T07:01:35Z</time>
      </trkpt>
      <trkpt lat="43.58662" lon="2.94515">
        <ele>665.2</ele>
        <time>2014-01-18T07:01:36Z</time>
      </trkpt>
      <trkpt lat="43.58662" lon="2.94515">
        <ele>664.6</ele>
        <time>2014-01-18T07:01:37Z</time>
      </trkpt>
      <trkpt lat="43.58664" lon="2.94517">
        <ele>664.6</ele>
        <time>2014-01-18T07:01:39Z</time>
      </trkpt>
      <trkpt lat="43.58665" lon="2.94522">
        <ele>664.6</ele>
        <time>2014-01-18T07:01:41Z</time>
      </trkpt>
      <trkpt lat="43.58666" lon="2.94525">
        <ele>664.2</ele>
        <time>2014-01-18T07:01:42Z</time>
      </trkpt>
      <trkpt lat="43.58666" lon="2.94526">
        <ele>663.8</ele>
        <time>2014-01-18T07:01:43Z</time>
      </trkpt>
      <trkpt lat="43.58667" lon="2.94527">
        <ele>663.2</ele>
        <time>2014-01-18T07:01:44Z</time>
      </trkpt>
      <trkpt lat="43.58668" lon="2.9453">
        <ele>662.6</ele>
        <time>2014-01-18T07:01:45Z</time>
      </trkpt>
      <trkpt lat="43.58668" lon="2.94533">
        <ele>662</ele>
        <time>2014-01-18T07:01:46Z</time>
      </trkpt>
      <trkpt lat="43.58669" lon="2.94537">
        <ele>661.2</ele>
        <time>2014-01-18T07:01:47Z</time>
      </trkpt>
      <trkpt lat="43.58669" lon="2.94541">
        <ele>660.6</ele>
        <time>2014-01-18T07:01:48Z</time>
      </trkpt>
      <trkpt lat="43.5867" lon="2.94545">
        <ele>660</ele>
        <time>2014-01-18T07:01:49Z</time>
      </trkpt>
      <trkpt lat="43.58672" lon="2.94551">
        <ele>659.4</ele>
        <time>2014-01-18T07:01:50Z</time>
      </trkpt>
      <trkpt lat="43.58672" lon="2.94556">
        <ele>658.8</ele>
        <time>2014-01-18T07:01:51Z</time>
      </trkpt>
      <trkpt lat="43.58674" lon="2.94561">
        <ele>658.4</ele>
        <time>2014-01-18T07:01:52Z</time>
      </trkpt>
      <trkpt lat="43.58676" lon="2.94568">
        <ele>657.6</ele>
        <time>2014-01-18T07:01:53Z</time>
      </trkpt>
      <trkpt lat="43.58678" lon="2.94573">
        <ele>656.8</ele>
        <time>2014-01-18T07:01:54Z</time>
      </trkpt>
      <trkpt lat="43.58678" lon="2.94579">
        <ele>656</ele>
        <time>2014-01-18T07:01:55Z</time>
      </trkpt>
      <trkpt lat="43.58681" lon="2.94585">
        <ele>655.2</ele>
        <time>2014-01-18T07:01:56Z</time>
      </trkpt>
      <trkpt lat="43.58683" lon="2.94592">
        <ele>654.6</ele>
        <time>2014-01-18T07:01:57Z</time>
      </trkpt>
      <trkpt lat="43.58684" lon="2.94596">
        <ele>654</ele>
        <time>2014-01-18T07:01:58Z</time>
      </trkpt>
      <trkpt lat="43.58685" lon="2.946">
        <ele>652.8</ele>
        <time>2014-01-18T07:01:59Z</time>
      </trkpt>
      <trkpt lat="43.58688" lon="2.94605">
        <ele>652.2</ele>
        <time>2014-01-18T07:02:00Z</time>
      </trkpt>
      <trkpt lat="43.5869" lon="2.94609">
        <ele>651.8</ele>
        <time>2014-01-18T07:02:01Z</time>
      </trkpt>
      <trkpt lat="43.5869" lon="2.9461">
        <ele>651.4</ele>
        <time>2014-01-18T07:02:02Z</time>
      </trkpt>
      <trkpt lat="43.58691" lon="2.94613">
        <ele>651</ele>
        <time>2014-01-18T07:02:03Z</time>
      </trkpt>
      <trkpt lat="43.58692" lon="2.94615">
        <ele>650.6</ele>
        <time>2014-01-18T07:02:04Z</time>
      </trkpt>
      <trkpt lat="43.58692" lon="2.94619">
        <ele>650.2</ele>
        <time>2014-01-18T07:02:05Z</time>
      </trkpt>
      <trkpt lat="43.58694" lon="2.94627">
        <ele>649.8</ele>
        <time>2014-01-18T07:02:07Z</time>
      </trkpt>
      <trkpt lat="43.58695" lon="2.94632">
        <ele>649.4</ele>
        <time>2014-01-18T07:02:08Z</time>
      </trkpt>
      <trkpt lat="43.58697" lon="2.94638">
        <ele>648.8</ele>
        <time>2014-01-18T07:02:09Z</time>
      </trkpt>
      <trkpt lat="43.58698" lon="2.94645">
        <ele>648.4</ele>
        <time>2014-01-18T07:02:10Z</time>
      </trkpt>
      <trkpt lat="43.587" lon="2.94651">
        <ele>648</ele>
        <time>2014-01-18T07:02:11Z</time>
      </trkpt>
      <trkpt lat="43.58702" lon="2.94658">
        <ele>647.4</ele>
        <time>2014-01-18T07:02:12Z</time>
      </trkpt>
      <trkpt lat="43.58704" lon="2.94664">
        <ele>646.8</ele>
        <time>2014-01-18T07:02:13Z</time>
      </trkpt>
      <trkpt lat="43.58706" lon="2.9467">
        <ele>646.4</ele>
        <time>2014-01-18T07:02:14Z</time>
      </trkpt>
      <trkpt lat="43.58709" lon="2.94676">
        <ele>645.8</ele>
        <time>2014-01-18T07:02:15Z</time>
      </trkpt>
      <trkpt lat="43.58711" lon="2.94683">
        <ele>645.4</ele>
        <time>2014-01-18T07:02:16Z</time>
      </trkpt>
      <trkpt lat="43.58714" lon="2.94691">
        <ele>644.8</ele>
        <time>2014-01-18T07:02:17Z</time>
      </trkpt>
      <trkpt lat="43.58717" lon="2.94696">
        <ele>644.2</ele>
        <time>2014-01-18T07:02:18Z</time>
      </trkpt>
      <trkpt lat="43.58719" lon="2.94701">
        <ele>643.4</ele>
        <time>2014-01-18T07:02:19Z</time>
      </trkpt>
      <trkpt lat="43.58721" lon="2.94705">
        <ele>642.8</ele>
        <time>2014-01-18T07:02:20Z</time>
      </trkpt>
      <trkpt lat="43.58721" lon="2.94711">
        <ele>642</ele>
        <time>2014-01-18T07:02:21Z</time>
      </trkpt>
      <trkpt lat="43.58721" lon="2.94716">
        <ele>641.4</ele>
        <time>2014-01-18T07:02:22Z</time>
      </trkpt>
      <trkpt lat="43.58719" lon="2.94719">
        <ele>640</ele>
        <time>2014-01-18T07:02:23Z</time>
      </trkpt>
      <trkpt lat="43.58719" lon="2.94722">
        <ele>639.2</ele>
        <time>2014-01-18T07:02:24Z</time>
      </trkpt>
      <trkpt lat="43.58719" lon="2.94724">
        <ele>639.2</ele>
        <time>2014-01-18T07:02:26Z</time>
      </trkpt>
      <trkpt lat="43.58719" lon="2.94726">
        <ele>639.2</ele>
        <time>2014-01-18T07:02:33Z</time>
      </trkpt>
      <trkpt lat="43.58719" lon="2.94726">
        <ele>639.2</ele>
        <time>2014-01-18T07:02:42Z</time>
      </trkpt>
      <trkpt lat="43.58718" lon="2.94729">
        <ele>639.2</ele>
        <time>2014-01-18T07:02:46Z</time>
      </trkpt>
      <trkpt lat="43.58718" lon="2.9473">
        <ele>639.2</ele>
        <time>2014-01-18T07:02:47Z</time>
      </trkpt>
      <trkpt lat="43.58716" lon="2.94731">
        <ele>639.2</ele>
        <time>2014-01-18T07:02:48Z</time>
      </trkpt>
      <trkpt lat="43.5871" lon="2.94729">
        <ele>639.2</ele>
        <time>2014-01-18T07:02:51Z</time>
      </trkpt>
      <trkpt lat="43.58711" lon="2.94725">
        <ele>638.8</ele>
        <time>2014-01-18T07:02:52Z</time>
      </trkpt>
      <trkpt lat="43.58709" lon="2.9472">
        <ele>638.2</ele>
        <time>2014-01-18T07:02:53Z</time>
      </trkpt>
      <trkpt lat="43.58707" lon="2.94715">
        <ele>637.8</ele>
        <time>2014-01-18T07:02:54Z</time>
      </trkpt>
      <trkpt lat="43.58705" lon="2.94711">
        <ele>637.2</ele>
        <time>2014-01-18T07:02:55Z</time>
      </trkpt>
      <trkpt lat="43.58702" lon="2.94709">
        <ele>636.6</ele>
        <time>2014-01-18T07:02:56Z</time>
      </trkpt>
      <trkpt lat="43.58701" lon="2.94709">
        <ele>636.2</ele>
        <time>2014-01-18T07:02:57Z</time>
      </trkpt>
      <trkpt lat="43.58699" lon="2.94709">
        <ele>635.6</ele>
        <time>2014-01-18T07:02:58Z</time>
      </trkpt>
      <trkpt lat="43.58698" lon="2.94707">
        <ele>634.8</ele>
        <time>2014-01-18T07:02:59Z</time>
      </trkpt>
      <trkpt lat="43.58696" lon="2.94706">
        <ele>634.2</ele>
        <time>2014-01-18T07:03:00Z</time>
      </trkpt>
      <trkpt lat="43.58694" lon="2.94706">
        <ele>633.4</ele>
        <time>2014-01-18T07:03:01Z</time>
      </trkpt>
      <trkpt lat="43.58692" lon="2.94705">
        <ele>632.8</ele>
        <time>2014-01-18T07:03:02Z</time>
      </trkpt>
      <trkpt lat="43.58689" lon="2.94703">
        <ele>632.2</ele>
        <time>2014-01-18T07:03:03Z</time>
      </trkpt>
      <trkpt lat="43.58688" lon="2.94703">
        <ele>631.6</ele>
        <time>2014-01-18T07:03:04Z</time>
      </trkpt>
      <trkpt lat="43.58686" lon="2.94704">
        <ele>631</ele>
        <time>2014-01-18T07:03:05Z</time>
      </trkpt>
      <trkpt lat="43.58684" lon="2.94704">
        <ele>630.4</ele>
        <time>2014-01-18T07:03:06Z</time>
      </trkpt>
      <trkpt lat="43.58684" lon="2.94703">
        <ele>629.8</ele>
        <time>2014-01-18T07:03:07Z</time>
      </trkpt>
      <trkpt lat="43.58682" lon="2.94704">
        <ele>629.4</ele>
        <time>2014-01-18T07:03:08Z</time>
      </trkpt>
      <trkpt lat="43.5868" lon="2.94704">
        <ele>628.8</ele>
        <time>2014-01-18T07:03:09Z</time>
      </trkpt>
      <trkpt lat="43.58678" lon="2.94706">
        <ele>628.4</ele>
        <time>2014-01-18T07:03:10Z</time>
      </trkpt>
      <trkpt lat="43.58676" lon="2.94706">
        <ele>628</ele>
        <time>2014-01-18T07:03:11Z</time>
      </trkpt>
      <trkpt lat="43.58675" lon="2.94706">
        <ele>627.4</ele>
        <time>2014-01-18T07:03:12Z</time>
      </trkpt>
      <trkpt lat="43.58674" lon="2.94707">
        <ele>626.2</ele>
        <time>2014-01-18T07:03:13Z</time>
      </trkpt>
      <trkpt lat="43.58674" lon="2.94709">
        <ele>625.6</ele>
        <time>2014-01-18T07:03:14Z</time>
      </trkpt>
      <trkpt lat="43.58673" lon="2.94711">
        <ele>624.8</ele>
        <time>2014-01-18T07:03:15Z</time>
      </trkpt>
      <trkpt lat="43.58671" lon="2.9471">
        <ele>623.8</ele>
        <time>2014-01-18T07:03:16Z</time>
      </trkpt>
      <trkpt lat="43.5867" lon="2.9471">
        <ele>622.8</ele>
        <time>2014-01-18T07:03:17Z</time>
      </trkpt>
      <trkpt lat="43.58667" lon="2.94713">
        <ele>622</ele>
        <time>2014-01-18T07:03:18Z</time>
      </trkpt>
      <trkpt lat="43.58665" lon="2.94717">
        <ele>621.2</ele>
        <time>2014-01-18T07:03:19Z</time>
      </trkpt>
      <trkpt lat="43.58661" lon="2.94719">
        <ele>620.4</ele>
        <time>2014-01-18T07:03:20Z</time>
      </trkpt>
      <trkpt lat="43.58657" lon="2.94723">
        <ele>619.6</ele>
        <time>2014-01-18T07:03:21Z</time>
      </trkpt>
      <trkpt lat="43.58654" lon="2.94728">
        <ele>618.8</ele>
        <time>2014-01-18T07:03:22Z</time>
      </trkpt>
      <trkpt lat="43.5865" lon="2.94731">
        <ele>618.2</ele>
        <time>2014-01-18T07:03:23Z</time>
      </trkpt>
      <trkpt lat="43.58646" lon="2.94733">
        <ele>617.6</ele>
        <time>2014-01-18T07:03:24Z</time>
      </trkpt>
      <trkpt lat="43.58642" lon="2.94734">
        <ele>617</ele>
        <time>2014-01-18T07:03:25Z</time>
      </trkpt>
      <trkpt lat="43.58639" lon="2.94739">
        <ele>616.4</ele>
        <time>2014-01-18T07:03:26Z</time>
      </trkpt>
      <trkpt lat="43.58636" lon="2.94742">
        <ele>615.8</ele>
        <time>2014-01-18T07:03:27Z</time>
      </trkpt>
      <trkpt lat="43.58632" lon="2.94743">
        <ele>615.2</ele>
        <time>2014-01-18T07:03:28Z</time>
      </trkpt>
      <trkpt lat="43.58629" lon="2.94746">
        <ele>614.6</ele>
        <time>2014-01-18T07:03:29Z</time>
      </trkpt>
      <trkpt lat="43.58626" lon="2.94751">
        <ele>614.2</ele>
        <time>2014-01-18T07:03:30Z</time>
      </trkpt>
      <trkpt lat="43.58623" lon="2.94755">
        <ele>613.6</ele>
        <time>2014-01-18T07:03:31Z</time>
      </trkpt>
      <trkpt lat="43.5862" lon="2.94761">
        <ele>613</ele>
        <time>2014-01-18T07:03:32Z</time>
      </trkpt>
      <trkpt lat="43.58617" lon="2.94765">
        <ele>612.6</ele>
        <time>2014-01-18T07:03:33Z</time>
      </trkpt>
      <trkpt lat="43.58614" lon="2.94769">
        <ele>612</ele>
        <time>2014-01-18T07:03:34Z</time>
      </trkpt>
      <trkpt lat="43.58612" lon="2.94773">
        <ele>611.2</ele>
        <time>2014-01-18T07:03:35Z</time>
      </trkpt>
      <trkpt lat="43.58608" lon="2.94779">
        <ele>610.6</ele>
        <time>2014-01-18T07:03:36Z</time>
      </trkpt>
      <trkpt lat="43.58605" lon="2.94784">
        <ele>610</ele>
        <time>2014-01-18T07:03:37Z</time>
      </trkpt>
      <trkpt lat="43.58602" lon="2.94789">
        <ele>608.6</ele>
        <time>2014-01-18T07:03:38Z</time>
      </trkpt>
      <trkpt lat="43.58599" lon="2.94795">
        <ele>608</ele>
        <time>2014-01-18T07:03:39Z</time>
      </trkpt>
      <trkpt lat="43.58596" lon="2.94799">
        <ele>607.6</ele>
        <time>2014-01-18T07:03:40Z</time>
      </trkpt>
      <trkpt lat="43.58593" lon="2.94803">
        <ele>607</ele>
        <time>2014-01-18T07:03:41Z</time>
      </trkpt>
      <trkpt lat="43.58591" lon="2.94807">
        <ele>606.6</ele>
        <time>2014-01-18T07:03:42Z</time>
      </trkpt>
      <trkpt lat="43.58587" lon="2.94812">
        <ele>606</ele>
        <time>2014-01-18T07:03:43Z</time>
      </trkpt>
      <trkpt lat="43.58582" lon="2.94817">
        <ele>606</ele>
        <time>2014-01-18T07:03:44Z</time>
      </trkpt>
      <trkpt lat="43.58569" lon="2.94825">
        <ele>606</ele>
        <time>2014-01-18T07:03:48Z</time>
      </trkpt>
      <trkpt lat="43.58566" lon="2.94827">
        <ele>605.6</ele>
        <time>2014-01-18T07:03:49Z</time>
      </trkpt>
      <trkpt lat="43.58563" lon="2.94832">
        <ele>605.2</ele>
        <time>2014-01-18T07:03:50Z</time>
      </trkpt>
      <trkpt lat="43.5856" lon="2.94836">
        <ele>604.8</ele>
        <time>2014-01-18T07:03:51Z</time>
      </trkpt>
      <trkpt lat="43.58555" lon="2.94838">
        <ele>604.4</ele>
        <time>2014-01-18T07:03:52Z</time>
      </trkpt>
      <trkpt lat="43.58549" lon="2.94841">
        <ele>603.8</ele>
        <time>2014-01-18T07:03:53Z</time>
      </trkpt>
      <trkpt lat="43.58538" lon="2.94854">
        <ele>603.8</ele>
        <time>2014-01-18T07:03:56Z</time>
      </trkpt>
      <trkpt lat="43.58537" lon="2.94857">
        <ele>603.8</ele>
        <time>2014-01-18T07:03:57Z</time>
      </trkpt>
      <trkpt lat="43.58533" lon="2.94864">
        <ele>603.8</ele>
        <time>2014-01-18T07:03:59Z</time>
      </trkpt>
      <trkpt lat="43.58524" lon="2.94877">
        <ele>603.8</ele>
        <time>2014-01-18T07:04:04Z</time>
      </trkpt>
      <trkpt lat="43.58515" lon="2.9488">
        <ele>603.4</ele>
        <time>2014-01-18T07:04:07Z</time>
      </trkpt>
      <trkpt lat="43.58511" lon="2.94882">
        <ele>603</ele>
        <time>2014-01-18T07:04:08Z</time>
      </trkpt>
      <trkpt lat="43.58507" lon="2.94882">
        <ele>602.6</ele>
        <time>2014-01-18T07:04:09Z</time>
      </trkpt>
      <trkpt lat="43.58502" lon="2.94881">
        <ele>602</ele>
        <time>2014-01-18T07:04:10Z</time>
      </trkpt>
      <trkpt lat="43.58499" lon="2.94882">
        <ele>601.4</ele>
        <time>2014-01-18T07:04:11Z</time>
      </trkpt>
      <trkpt lat="43.58496" lon="2.9488">
        <ele>600.8</ele>
        <time>2014-01-18T07:04:12Z</time>
      </trkpt>
      <trkpt lat="43.58492" lon="2.94879">
        <ele>600</ele>
        <time>2014-01-18T07:04:13Z</time>
      </trkpt>
      <trkpt lat="43.58487" lon="2.94878">
        <ele>599.4</ele>
        <time>2014-01-18T07:04:14Z</time>
      </trkpt>
      <trkpt lat="43.58482" lon="2.94878">
        <ele>598.8</ele>
        <time>2014-01-18T07:04:15Z</time>
      </trkpt>
      <trkpt lat="43.58477" lon="2.94877">
        <ele>598</ele>
        <time>2014-01-18T07:04:16Z</time>
      </trkpt>
      <trkpt lat="43.58473" lon="2.94875">
        <ele>597.2</ele>
        <time>2014-01-18T07:04:17Z</time>
      </trkpt>
      <trkpt lat="43.58468" lon="2.94875">
        <ele>596.6</ele>
        <time>2014-01-18T07:04:18Z</time>
      </trkpt>
      <trkpt lat="43.58462" lon="2.94875">
        <ele>595.8</ele>
        <time>2014-01-18T07:04:19Z</time>
      </trkpt>
      <trkpt lat="43.58458" lon="2.94878">
        <ele>595</ele>
        <time>2014-01-18T07:04:20Z</time>
      </trkpt>
      <trkpt lat="43.58454" lon="2.94876">
        <ele>594.4</ele>
        <time>2014-01-18T07:04:21Z</time>
      </trkpt>
      <trkpt lat="43.58449" lon="2.94877">
        <ele>593.6</ele>
        <time>2014-01-18T07:04:22Z</time>
      </trkpt>
      <trkpt lat="43.58447" lon="2.94879">
        <ele>593</ele>
        <time>2014-01-18T07:04:23Z</time>
      </trkpt>
      <trkpt lat="43.58443" lon="2.94881">
        <ele>593</ele>
        <time>2014-01-18T07:04:24Z</time>
      </trkpt>
      <trkpt lat="43.58439" lon="2.94883">
        <ele>592.4</ele>
        <time>2014-01-18T07:04:25Z</time>
      </trkpt>
      <trkpt lat="43.58435" lon="2.94887">
        <ele>592</ele>
        <time>2014-01-18T07:04:26Z</time>
      </trkpt>
      <trkpt lat="43.58431" lon="2.94893">
        <ele>591.2</ele>
        <time>2014-01-18T07:04:27Z</time>
      </trkpt>
      <trkpt lat="43.58427" lon="2.94898">
        <ele>590.4</ele>
        <time>2014-01-18T07:04:28Z</time>
      </trkpt>
      <trkpt lat="43.58423" lon="2.94904">
        <ele>589.8</ele>
        <time>2014-01-18T07:04:29Z</time>
      </trkpt>
      <trkpt lat="43.58421" lon="2.94903">
        <ele>589.2</ele>
        <time>2014-01-18T07:04:30Z</time>
      </trkpt>
      <trkpt lat="43.58419" lon="2.94904">
        <ele>588.4</ele>
        <time>2014-01-18T07:04:31Z</time>
      </trkpt>
      <trkpt lat="43.58417" lon="2.94907">
        <ele>587.6</ele>
        <time>2014-01-18T07:04:32Z</time>
      </trkpt>
      <trkpt lat="43.58415" lon="2.94911">
        <ele>586.8</ele>
        <time>2014-01-18T07:04:33Z</time>
      </trkpt>
      <trkpt lat="43.58411" lon="2.94913">
        <ele>586</ele>
        <time>2014-01-18T07:04:34Z</time>
      </trkpt>
      <trkpt lat="43.58406" lon="2.94917">
        <ele>585</ele>
        <time>2014-01-18T07:04:35Z</time>
      </trkpt>
      <trkpt lat="43.58402" lon="2.94919">
        <ele>584</ele>
        <time>2014-01-18T07:04:36Z</time>
      </trkpt>
      <trkpt lat="43.58397" lon="2.94921">
        <ele>583.2</ele>
        <time>2014-01-18T07:04:37Z</time>
      </trkpt>
      <trkpt lat="43.58393" lon="2.94924">
        <ele>582.2</ele>
        <time>2014-01-18T07:04:38Z</time>
      </trkpt>
      <trkpt lat="43.58388" lon="2.94924">
        <ele>581.2</ele>
        <time>2014-01-18T07:04:39Z</time>
      </trkpt>
      <trkpt lat="43.58386" lon="2.94928">
        <ele>580.2</ele>
        <time>2014-01-18T07:04:40Z</time>
      </trkpt>
      <trkpt lat="43.58381" lon="2.94929">
        <ele>579.8</ele>
        <time>2014-01-18T07:04:41Z</time>
      </trkpt>
      <trkpt lat="43.58377" lon="2.94928">
        <ele>579.4</ele>
        <time>2014-01-18T07:04:42Z</time>
      </trkpt>
      <trkpt lat="43.58373" lon="2.94928">
        <ele>578.8</ele>
        <time>2014-01-18T07:04:43Z</time>
      </trkpt>
      <trkpt lat="43.5837" lon="2.9493">
        <ele>578.4</ele>
        <time>2014-01-18T07:04:44Z</time>
      </trkpt>
      <trkpt lat="43.58367" lon="2.9493">
        <ele>577.8</ele>
        <time>2014-01-18T07:04:45Z</time>
      </trkpt>
      <trkpt lat="43.58364" lon="2.94929">
        <ele>577.2</ele>
        <time>2014-01-18T07:04:46Z</time>
      </trkpt>
      <trkpt lat="43.58359" lon="2.9493">
        <ele>576.6</ele>
        <time>2014-01-18T07:04:47Z</time>
      </trkpt>
      <trkpt lat="43.58354" lon="2.94931">
        <ele>576</ele>
        <time>2014-01-18T07:04:48Z</time>
      </trkpt>
      <trkpt lat="43.58349" lon="2.94932">
        <ele>575.4</ele>
        <time>2014-01-18T07:04:49Z</time>
      </trkpt>
      <trkpt lat="43.58345" lon="2.94934">
        <ele>574.6</ele>
        <time>2014-01-18T07:04:50Z</time>
      </trkpt>
      <trkpt lat="43.58339" lon="2.94933">
        <ele>573.8</ele>
        <time>2014-01-18T07:04:51Z</time>
      </trkpt>
      <trkpt lat="43.58335" lon="2.94935">
        <ele>572.4</ele>
        <time>2014-01-18T07:04:52Z</time>
      </trkpt>
      <trkpt lat="43.58331" lon="2.94939">
        <ele>571.6</ele>
        <time>2014-01-18T07:04:53Z</time>
      </trkpt>
      <trkpt lat="43.58326" lon="2.9494">
        <ele>571</ele>
        <time>2014-01-18T07:04:54Z</time>
      </trkpt>
      <trkpt lat="43.58322" lon="2.94941">
        <ele>570.4</ele>
        <time>2014-01-18T07:04:55Z</time>
      </trkpt>
      <trkpt lat="43.58318" lon="2.94942">
        <ele>569.8</ele>
        <time>2014-01-18T07:04:56Z</time>
      </trkpt>
      <trkpt lat="43.58314" lon="2.94944">
        <ele>569.4</ele>
        <time>2014-01-18T07:04:57Z</time>
      </trkpt>
      <trkpt lat="43.58311" lon="2.94943">
        <ele>568.8</ele>
        <time>2014-01-18T07:04:58Z</time>
      </trkpt>
      <trkpt lat="43.58302" lon="2.94945">
        <ele>569.2</ele>
        <time>2014-01-18T07:05:01Z</time>
      </trkpt>
      <trkpt lat="43.58302" lon="2.94946">
        <ele>569.6</ele>
        <time>2014-01-18T07:05:02Z</time>
      </trkpt>
      <trkpt lat="43.58302" lon="2.94946">
        <ele>570</ele>
        <time>2014-01-18T07:05:03Z</time>
      </trkpt>
      <trkpt lat="43.583" lon="2.94946">
        <ele>570.4</ele>
        <time>2014-01-18T07:05:04Z</time>
      </trkpt>
      <trkpt lat="43.58299" lon="2.94947">
        <ele>571</ele>
        <time>2014-01-18T07:05:05Z</time>
      </trkpt>
      <trkpt lat="43.58298" lon="2.94947">
        <ele>571</ele>
        <time>2014-01-18T07:05:11Z</time>
      </trkpt>
      <trkpt lat="43.58298" lon="2.94947">
        <ele>571</ele>
        <time>2014-01-18T07:05:18Z</time>
      </trkpt>
      <trkpt lat="43.58298" lon="2.94947">
        <ele>571</ele>
        <time>2014-01-18T07:05:26Z</time>
      </trkpt>
      <trkpt lat="43.58298" lon="2.94947">
        <ele>571</ele>
        <time>2014-01-18T07:05:31Z</time>
      </trkpt>
      <trkpt lat="43.58298" lon="2.94947">
        <ele>571</ele>
        <time>2014-01-18T07:05:32Z</time>
      </trkpt>
      <trkpt lat="43.58298" lon="2.94947">
        <ele>571</ele>
        <time>2014-01-18T07:05:34Z</time>
      </trkpt>
      <trkpt lat="43.58298" lon="2.94947">
        <ele>571</ele>
        <time>2014-01-18T07:05:36Z</time>
      </trkpt>
      <trkpt lat="43.58298" lon="2.94947">
        <ele>571</ele>
        <time>2014-01-18T07:05:37Z</time>
      </trkpt>
      <trkpt lat="43.58298" lon="2.94947">
        <ele>571</ele>
        <time>2014-01-18T07:05:40Z</time>
      </trkpt>
      <trkpt lat="43.58298" lon="2.94948">
        <ele>571</ele>
        <time>2014-01-18T07:05:46Z</time>
      </trkpt>
      <trkpt lat="43.58298" lon="2.94948">
        <ele>571</ele>
        <time>2014-01-18T07:05:48Z</time>
      </trkpt>
      <trkpt lat="43.58298" lon="2.94948">
        <ele>571</ele>
        <time>2014-01-18T07:05:51Z</time>
      </trkpt>
      <trkpt lat="43.58298" lon="2.94948">
        <ele>571</ele>
        <time>2014-01-18T07:05:55Z</time>
      </trkpt>
      <trkpt lat="43.58298" lon="2.94948">
        <ele>571</ele>
        <time>2014-01-18T07:05:58Z</time>
      </trkpt>
      <trkpt lat="43.58298" lon="2.94948">
        <ele>571</ele>
        <time>2014-01-18T07:06:02Z</time>
      </trkpt>
      <trkpt lat="43.58298" lon="2.94948">
        <ele>570.6</ele>
        <time>2014-01-18T07:06:04Z</time>
      </trkpt>
      <trkpt lat="43.58298" lon="2.94948">
        <ele>570.2</ele>
        <time>2014-01-18T07:06:05Z</time>
      </trkpt>
      <trkpt lat="43.58298" lon="2.94948">
        <ele>569.4</ele>
        <time>2014-01-18T07:06:06Z</time>
      </trkpt>
      <trkpt lat="43.58298" lon="2.94948">
        <ele>568.8</ele>
        <time>2014-01-18T07:06:07Z</time>
      </trkpt>
      <trkpt lat="43.58298" lon="2.94948">
        <ele>568.8</ele>
        <time>2014-01-18T07:06:09Z</time>
      </trkpt>
      <trkpt lat="43.58298" lon="2.94948">
        <ele>568.8</ele>
        <time>2014-01-18T07:06:11Z</time>
      </trkpt>
      <trkpt lat="43.58295" lon="2.94948">
        <ele>568.8</ele>
        <time>2014-01-18T07:06:14Z</time>
      </trkpt>
      <trkpt lat="43.5829" lon="2.94949">
        <ele>568.8</ele>
        <time>2014-01-18T07:06:16Z</time>
      </trkpt>
      <trkpt lat="43.58278" lon="2.94946">
        <ele>568.8</ele>
        <time>2014-01-18T07:06:20Z</time>
      </trkpt>
      <trkpt lat="43.58269" lon="2.94942">
        <ele>568.4</ele>
        <time>2014-01-18T07:06:22Z</time>
      </trkpt>
      <trkpt lat="43.58266" lon="2.94941">
        <ele>568</ele>
        <time>2014-01-18T07:06:23Z</time>
      </trkpt>
      <trkpt lat="43.5826" lon="2.9494">
        <ele>567.6</ele>
        <time>2014-01-18T07:06:24Z</time>
      </trkpt>
      <trkpt lat="43.58256" lon="2.94938">
        <ele>567</ele>
        <time>2014-01-18T07:06:25Z</time>
      </trkpt>
      <trkpt lat="43.5825" lon="2.94938">
        <ele>566.4</ele>
        <time>2014-01-18T07:06:26Z</time>
      </trkpt>
      <trkpt lat="43.58245" lon="2.94935">
        <ele>565.8</ele>
        <time>2014-01-18T07:06:27Z</time>
      </trkpt>
      <trkpt lat="43.58241" lon="2.94933">
        <ele>565.2</ele>
        <time>2014-01-18T07:06:28Z</time>
      </trkpt>
      <trkpt lat="43.58236" lon="2.94932">
        <ele>564.6</ele>
        <time>2014-01-18T07:06:29Z</time>
      </trkpt>
      <trkpt lat="43.58232" lon="2.94931">
        <ele>563.8</ele>
        <time>2014-01-18T07:06:30Z</time>
      </trkpt>
      <trkpt lat="43.58227" lon="2.94929">
        <ele>562.6</ele>
        <time>2014-01-18T07:06:31Z</time>
      </trkpt>
      <trkpt lat="43.58222" lon="2.94927">
        <ele>562</ele>
        <time>2014-01-18T07:06:32Z</time>
      </trkpt>
      <trkpt lat="43.58209" lon="2.94929">
        <ele>562</ele>
        <time>2014-01-18T07:06:35Z</time>
      </trkpt>
      <trkpt lat="43.58205" lon="2.94928">
        <ele>562</ele>
        <time>2014-01-18T07:06:36Z</time>
      </trkpt>
      <trkpt lat="43.58196" lon="2.94926">
        <ele>562</ele>
        <time>2014-01-18T07:06:38Z</time>
      </trkpt>
      <trkpt lat="43.58188" lon="2.94924">
        <ele>562</ele>
        <time>2014-01-18T07:06:40Z</time>
      </trkpt>
      <trkpt lat="43.58185" lon="2.94923">
        <ele>562</ele>
        <time>2014-01-18T07:06:41Z</time>
      </trkpt>
      <trkpt lat="43.58178" lon="2.94921">
        <ele>562.6</ele>
        <time>2014-01-18T07:06:43Z</time>
      </trkpt>
      <trkpt lat="43.58173" lon="2.9492">
        <ele>563</ele>
        <time>2014-01-18T07:06:44Z</time>
      </trkpt>
      <trkpt lat="43.58169" lon="2.9492">
        <ele>563.4</ele>
        <time>2014-01-18T07:06:45Z</time>
      </trkpt>
      <trkpt lat="43.58165" lon="2.94921">
        <ele>563.8</ele>
        <time>2014-01-18T07:06:46Z</time>
      </trkpt>
      <trkpt lat="43.58162" lon="2.94921">
        <ele>564.2</ele>
        <time>2014-01-18T07:06:47Z</time>
      </trkpt>
      <trkpt lat="43.58159" lon="2.94918">
        <ele>564.2</ele>
        <time>2014-01-18T07:06:48Z</time>
      </trkpt>
      <trkpt lat="43.58146" lon="2.94913">
        <ele>564.2</ele>
        <time>2014-01-18T07:06:52Z</time>
      </trkpt>
      <trkpt lat="43.58142" lon="2.94913">
        <ele>564.2</ele>
        <time>2014-01-18T07:06:53Z</time>
      </trkpt>
      <trkpt lat="43.58137" lon="2.94914">
        <ele>563.8</ele>
        <time>2014-01-18T07:06:54Z</time>
      </trkpt>
      <trkpt lat="43.58133" lon="2.94913">
        <ele>563.2</ele>
        <time>2014-01-18T07:06:55Z</time>
      </trkpt>
      <trkpt lat="43.58129" lon="2.94911">
        <ele>562.4</ele>
        <time>2014-01-18T07:06:56Z</time>
      </trkpt>
      <trkpt lat="43.58124" lon="2.9491">
        <ele>561.8</ele>
        <time>2014-01-18T07:06:57Z</time>
      </trkpt>
      <trkpt lat="43.58114" lon="2.94908">
        <ele>561.4</ele>
        <time>2014-01-18T07:06:59Z</time>
      </trkpt>
      <trkpt lat="43.5811" lon="2.94909">
        <ele>560.8</ele>
        <time>2014-01-18T07:07:00Z</time>
      </trkpt>
      <trkpt lat="43.58107" lon="2.94912">
        <ele>560.4</ele>
        <time>2014-01-18T07:07:01Z</time>
      </trkpt>
      <trkpt lat="43.58103" lon="2.94916">
        <ele>559.8</ele>
        <time>2014-01-18T07:07:02Z</time>
      </trkpt>
      <trkpt lat="43.58099" lon="2.94917">
        <ele>559.4</ele>
        <time>2014-01-18T07:07:03Z</time>
      </trkpt>
      <trkpt lat="43.58094" lon="2.94917">
        <ele>559</ele>
        <time>2014-01-18T07:07:04Z</time>
      </trkpt>
      <trkpt lat="43.58089" lon="2.94918">
        <ele>558.6</ele>
        <time>2014-01-18T07:07:05Z</time>
      </trkpt>
      <trkpt lat="43.58085" lon="2.94918">
        <ele>558.2</ele>
        <time>2014-01-18T07:07:06Z</time>
      </trkpt>
      <trkpt lat="43.58081" lon="2.94921">
        <ele>557.6</ele>
        <time>2014-01-18T07:07:07Z</time>
      </trkpt>
      <trkpt lat="43.58078" lon="2.94926">
        <ele>557.2</ele>
        <time>2014-01-18T07:07:08Z</time>
      </trkpt>
      <trkpt lat="43.58076" lon="2.94932">
        <ele>556.6</ele>
        <time>2014-01-18T07:07:09Z</time>
      </trkpt>
      <trkpt lat="43.58073" lon="2.94936">
        <ele>556.2</ele>
        <time>2014-01-18T07:07:10Z</time>
      </trkpt>
      <trkpt lat="43.5807" lon="2.94938">
        <ele>555.6</ele>
        <time>2014-01-18T07:07:11Z</time>
      </trkpt>
      <trkpt lat="43.58067" lon="2.9494">
        <ele>555.2</ele>
        <time>2014-01-18T07:07:12Z</time>
      </trkpt>
      <trkpt lat="43.58066" lon="2.94942">
        <ele>554.6</ele>
        <time>2014-01-18T07:07:13Z</time>
      </trkpt>
      <trkpt lat="43.58064" lon="2.94942">
        <ele>554</ele>
        <time>2014-01-18T07:07:14Z</time>
      </trkpt>
      <trkpt lat="43.58063" lon="2.94943">
        <ele>553.4</ele>
        <time>2014-01-18T07:07:15Z</time>
      </trkpt>
      <trkpt lat="43.58061" lon="2.94944">
        <ele>553</ele>
        <time>2014-01-18T07:07:16Z</time>
      </trkpt>
      <trkpt lat="43.58058" lon="2.94946">
        <ele>552.4</ele>
        <time>2014-01-18T07:07:17Z</time>
      </trkpt>
      <trkpt lat="43.58056" lon="2.94947">
        <ele>551.8</ele>
        <time>2014-01-18T07:07:18Z</time>
      </trkpt>
      <trkpt lat="43.58054" lon="2.94945">
        <ele>551.4</ele>
        <time>2014-01-18T07:07:19Z</time>
      </trkpt>
      <trkpt lat="43.58052" lon="2.94944">
        <ele>550</ele>
        <time>2014-01-18T07:07:20Z</time>
      </trkpt>
      <trkpt lat="43.58049" lon="2.94943">
        <ele>549.2</ele>
        <time>2014-01-18T07:07:21Z</time>
      </trkpt>
      <trkpt lat="43.58046" lon="2.94943">
        <ele>548.4</ele>
        <time>2014-01-18T07:07:22Z</time>
      </trkpt>
      <trkpt lat="43.5804" lon="2.94943">
        <ele>547.8</ele>
        <time>2014-01-18T07:07:23Z</time>
      </trkpt>
      <trkpt lat="43.58037" lon="2.94944">
        <ele>547</ele>
        <time>2014-01-18T07:07:24Z</time>
      </trkpt>
      <trkpt lat="43.58035" lon="2.94946">
        <ele>546</ele>
        <time>2014-01-18T07:07:25Z</time>
      </trkpt>
      <trkpt lat="43.58033" lon="2.94952">
        <ele>545.2</ele>
        <time>2014-01-18T07:07:26Z</time>
      </trkpt>
      <trkpt lat="43.58031" lon="2.94956">
        <ele>544.4</ele>
        <time>2014-01-18T07:07:27Z</time>
      </trkpt>
      <trkpt lat="43.58028" lon="2.9496">
        <ele>543.6</ele>
        <time>2014-01-18T07:07:28Z</time>
      </trkpt>
      <trkpt lat="43.58024" lon="2.94961">
        <ele>542.6</ele>
        <time>2014-01-18T07:07:29Z</time>
      </trkpt>
      <trkpt lat="43.5802" lon="2.94964">
        <ele>541.8</ele>
        <time>2014-01-18T07:07:30Z</time>
      </trkpt>
      <trkpt lat="43.58014" lon="2.94969">
        <ele>541</ele>
        <time>2014-01-18T07:07:31Z</time>
      </trkpt>
      <trkpt lat="43.5801" lon="2.94971">
        <ele>540.4</ele>
        <time>2014-01-18T07:07:32Z</time>
      </trkpt>
      <trkpt lat="43.58005" lon="2.94974">
        <ele>539.4</ele>
        <time>2014-01-18T07:07:33Z</time>
      </trkpt>
      <trkpt lat="43.58001" lon="2.94976">
        <ele>538.4</ele>
        <time>2014-01-18T07:07:34Z</time>
      </trkpt>
      <trkpt lat="43.57997" lon="2.9498">
        <ele>537.4</ele>
        <time>2014-01-18T07:07:35Z</time>
      </trkpt>
      <trkpt lat="43.57992" lon="2.94985">
        <ele>536.4</ele>
        <time>2014-01-18T07:07:36Z</time>
      </trkpt>
      <trkpt lat="43.57988" lon="2.9499">
        <ele>535.4</ele>
        <time>2014-01-18T07:07:37Z</time>
      </trkpt>
      <trkpt lat="43.57982" lon="2.94994">
        <ele>534.4</ele>
        <time>2014-01-18T07:07:38Z</time>
      </trkpt>
      <trkpt lat="43.57978" lon="2.94998">
        <ele>533.6</ele>
        <time>2014-01-18T07:07:39Z</time>
      </trkpt>
      <trkpt lat="43.57973" lon="2.95003">
        <ele>532.6</ele>
        <time>2014-01-18T07:07:40Z</time>
      </trkpt>
      <trkpt lat="43.57969" lon="2.95006">
        <ele>531.8</ele>
        <time>2014-01-18T07:07:41Z</time>
      </trkpt>
      <trkpt lat="43.57966" lon="2.95009">
        <ele>531</ele>
        <time>2014-01-18T07:07:42Z</time>
      </trkpt>
      <trkpt lat="43.57965" lon="2.95013">
        <ele>530.2</ele>
        <time>2014-01-18T07:07:43Z</time>
      </trkpt>
      <trkpt lat="43.57962" lon="2.95019">
        <ele>529.4</ele>
        <time>2014-01-18T07:07:44Z</time>
      </trkpt>
      <trkpt lat="43.57959" lon="2.95023">
        <ele>528.6</ele>
        <time>2014-01-18T07:07:45Z</time>
      </trkpt>
      <trkpt lat="43.57951" lon="2.95033">
        <ele>528.2</ele>
        <time>2014-01-18T07:07:47Z</time>
      </trkpt>
      <trkpt lat="43.57947" lon="2.95037">
        <ele>527.6</ele>
        <time>2014-01-18T07:07:48Z</time>
      </trkpt>
      <trkpt lat="43.57943" lon="2.95041">
        <ele>527.2</ele>
        <time>2014-01-18T07:07:49Z</time>
      </trkpt>
      <trkpt lat="43.57938" lon="2.95045">
        <ele>526.8</ele>
        <time>2014-01-18T07:07:50Z</time>
      </trkpt>
      <trkpt lat="43.57934" lon="2.9505">
        <ele>526.2</ele>
        <time>2014-01-18T07:07:51Z</time>
      </trkpt>
      <trkpt lat="43.5793" lon="2.95056">
        <ele>525.6</ele>
        <time>2014-01-18T07:07:52Z</time>
      </trkpt>
      <trkpt lat="43.57927" lon="2.95061">
        <ele>525</ele>
        <time>2014-01-18T07:07:53Z</time>
      </trkpt>
      <trkpt lat="43.57925" lon="2.95065">
        <ele>524.4</ele>
        <time>2014-01-18T07:07:54Z</time>
      </trkpt>
      <trkpt lat="43.57924" lon="2.95067">
        <ele>524</ele>
        <time>2014-01-18T07:07:55Z</time>
      </trkpt>
      <trkpt lat="43.57921" lon="2.95073">
        <ele>524</ele>
        <time>2014-01-18T07:07:58Z</time>
      </trkpt>
      <trkpt lat="43.57919" lon="2.95076">
        <ele>523.4</ele>
        <time>2014-01-18T07:07:59Z</time>
      </trkpt>
      <trkpt lat="43.57919" lon="2.95077">
        <ele>523</ele>
        <time>2014-01-18T07:08:00Z</time>
      </trkpt>
      <trkpt lat="43.57918" lon="2.95078">
        <ele>522.6</ele>
        <time>2014-01-18T07:08:01Z</time>
      </trkpt>
      <trkpt lat="43.57918" lon="2.95078">
        <ele>522.2</ele>
        <time>2014-01-18T07:08:02Z</time>
      </trkpt>
      <trkpt lat="43.57918" lon="2.95078">
        <ele>521.8</ele>
        <time>2014-01-18T07:08:03Z</time>
      </trkpt>
      <trkpt lat="43.57918" lon="2.95078">
        <ele>521.8</ele>
        <time>2014-01-18T07:08:06Z</time>
      </trkpt>
      <trkpt lat="43.57918" lon="2.95078">
        <ele>521.8</ele>
        <time>2014-01-18T07:08:13Z</time>
      </trkpt>
      <trkpt lat="43.57918" lon="2.95078">
        <ele>521.8</ele>
        <time>2014-01-18T07:08:20Z</time>
      </trkpt>
      <trkpt lat="43.57918" lon="2.95078">
        <ele>521.8</ele>
        <time>2014-01-18T07:08:23Z</time>
      </trkpt>
      <trkpt lat="43.57918" lon="2.95078">
        <ele>521.8</ele>
        <time>2014-01-18T07:08:27Z</time>
      </trkpt>
      <trkpt lat="43.57918" lon="2.95078">
        <ele>521.8</ele>
        <time>2014-01-18T07:08:31Z</time>
      </trkpt>
      <trkpt lat="43.57915" lon="2.95081">
        <ele>521.8</ele>
        <time>2014-01-18T07:08:33Z</time>
      </trkpt>
      <trkpt lat="43.57907" lon="2.95089">
        <ele>521.8</ele>
        <time>2014-01-18T07:08:36Z</time>
      </trkpt>
      <trkpt lat="43.57905" lon="2.95093">
        <ele>521.4</ele>
        <time>2014-01-18T07:08:37Z</time>
      </trkpt>
      <trkpt lat="43.579" lon="2.95097">
        <ele>521</ele>
        <time>2014-01-18T07:08:38Z</time>
      </trkpt>
      <trkpt lat="43.57895" lon="2.95099">
        <ele>520.6</ele>
        <time>2014-01-18T07:08:39Z</time>
      </trkpt>
      <trkpt lat="43.57889" lon="2.95101">
        <ele>520</ele>
        <time>2014-01-18T07:08:40Z</time>
      </trkpt>
      <trkpt lat="43.57884" lon="2.95105">
        <ele>519.4</ele>
        <time>2014-01-18T07:08:41Z</time>
      </trkpt>
      <trkpt lat="43.57881" lon="2.95108">
        <ele>518.6</ele>
        <time>2014-01-18T07:08:42Z</time>
      </trkpt>
      <trkpt lat="43.57877" lon="2.95111">
        <ele>517.8</ele>
        <time>2014-01-18T07:08:43Z</time>
      </trkpt>
      <trkpt lat="43.57873" lon="2.95113">
        <ele>517</ele>
        <time>2014-01-18T07:08:44Z</time>
      </trkpt>
      <trkpt lat="43.57869" lon="2.95116">
        <ele>516</ele>
        <time>2014-01-18T07:08:45Z</time>
      </trkpt>
      <trkpt lat="43.57865" lon="2.9512">
        <ele>515.2</ele>
        <time>2014-01-18T07:08:46Z</time>
      </trkpt>
      <trkpt lat="43.57861" lon="2.95126">
        <ele>514.4</ele>
        <time>2014-01-18T07:08:47Z</time>
      </trkpt>
      <trkpt lat="43.57858" lon="2.95131">
        <ele>513.6</ele>
        <time>2014-01-18T07:08:48Z</time>
      </trkpt>
      <trkpt lat="43.57854" lon="2.95136">
        <ele>513</ele>
        <time>2014-01-18T07:08:49Z</time>
      </trkpt>
      <trkpt lat="43.5785" lon="2.95142">
        <ele>512.2</ele>
        <time>2014-01-18T07:08:50Z</time>
      </trkpt>
      <trkpt lat="43.57845" lon="2.95147">
        <ele>511.6</ele>
        <time>2014-01-18T07:08:51Z</time>
      </trkpt>
      <trkpt lat="43.57843" lon="2.95153">
        <ele>511</ele>
        <time>2014-01-18T07:08:52Z</time>
      </trkpt>
      <trkpt lat="43.5784" lon="2.95157">
        <ele>510.2</ele>
        <time>2014-01-18T07:08:53Z</time>
      </trkpt>
      <trkpt lat="43.57837" lon="2.95161">
        <ele>509.8</ele>
        <time>2014-01-18T07:08:54Z</time>
      </trkpt>
      <trkpt lat="43.57834" lon="2.95165">
        <ele>509.4</ele>
        <time>2014-01-18T07:08:55Z</time>
      </trkpt>
      <trkpt lat="43.57832" lon="2.95171">
        <ele>508.8</ele>
        <time>2014-01-18T07:08:56Z</time>
      </trkpt>
      <trkpt lat="43.5783" lon="2.95178">
        <ele>508.2</ele>
        <time>2014-01-18T07:08:57Z</time>
      </trkpt>
      <trkpt lat="43.57828" lon="2.95185">
        <ele>507.4</ele>
        <time>2014-01-18T07:08:58Z</time>
      </trkpt>
      <trkpt lat="43.57826" lon="2.95192">
        <ele>505.8</ele>
        <time>2014-01-18T07:08:59Z</time>
      </trkpt>
      <trkpt lat="43.57824" lon="2.95198">
        <ele>505</ele>
        <time>2014-01-18T07:09:00Z</time>
      </trkpt>
      <trkpt lat="43.57823" lon="2.95203">
        <ele>504</ele>
        <time>2014-01-18T07:09:01Z</time>
      </trkpt>
      <trkpt lat="43.5782" lon="2.9521">
        <ele>503.4</ele>
        <time>2014-01-18T07:09:02Z</time>
      </trkpt>
      <trkpt lat="43.57816" lon="2.95213">
        <ele>502.8</ele>
        <time>2014-01-18T07:09:03Z</time>
      </trkpt>
      <trkpt lat="43.57813" lon="2.95218">
        <ele>501.8</ele>
        <time>2014-01-18T07:09:04Z</time>
      </trkpt>
      <trkpt lat="43.5781" lon="2.95223">
        <ele>501</ele>
        <time>2014-01-18T07:09:05Z</time>
      </trkpt>
      <trkpt lat="43.57806" lon="2.95227">
        <ele>500</ele>
        <time>2014-01-18T07:09:06Z</time>
      </trkpt>
      <trkpt lat="43.57801" lon="2.95232">
        <ele>499</ele>
        <time>2014-01-18T07:09:07Z</time>
      </trkpt>
      <trkpt lat="43.57797" lon="2.95238">
        <ele>498</ele>
        <time>2014-01-18T07:09:08Z</time>
      </trkpt>
      <trkpt lat="43.57792" lon="2.95244">
        <ele>496.8</ele>
        <time>2014-01-18T07:09:09Z</time>
      </trkpt>
      <trkpt lat="43.57787" lon="2.95248">
        <ele>495.8</ele>
        <time>2014-01-18T07:09:10Z</time>
      </trkpt>
      <trkpt lat="43.57781" lon="2.95253">
        <ele>494.6</ele>
        <time>2014-01-18T07:09:11Z</time>
      </trkpt>
      <trkpt lat="43.57777" lon="2.95259">
        <ele>493.4</ele>
        <time>2014-01-18T07:09:12Z</time>
      </trkpt>
      <trkpt lat="43.57773" lon="2.95263">
        <ele>492.6</ele>
        <time>2014-01-18T07:09:13Z</time>
      </trkpt>
      <trkpt lat="43.57768" lon="2.95267">
        <ele>491.6</ele>
        <time>2014-01-18T07:09:14Z</time>
      </trkpt>
      <trkpt lat="43.57763" lon="2.95271">
        <ele>490.8</ele>
        <time>2014-01-18T07:09:15Z</time>
      </trkpt>
      <trkpt lat="43.57759" lon="2.95275">
        <ele>489.8</ele>
        <time>2014-01-18T07:09:16Z</time>
      </trkpt>
      <trkpt lat="43.57755" lon="2.95279">
        <ele>489</ele>
        <time>2014-01-18T07:09:17Z</time>
      </trkpt>
      <trkpt lat="43.57751" lon="2.95282">
        <ele>489</ele>
        <time>2014-01-18T07:09:18Z</time>
      </trkpt>
      <trkpt lat="43.57747" lon="2.95286">
        <ele>488.6</ele>
        <time>2014-01-18T07:09:19Z</time>
      </trkpt>
      <trkpt lat="43.57742" lon="2.95289">
        <ele>488.2</ele>
        <time>2014-01-18T07:09:20Z</time>
      </trkpt>
      <trkpt lat="43.57738" lon="2.95293">
        <ele>487.8</ele>
        <time>2014-01-18T07:09:21Z</time>
      </trkpt>
      <trkpt lat="43.57735" lon="2.95297">
        <ele>487.2</ele>
        <time>2014-01-18T07:09:22Z</time>
      </trkpt>
      <trkpt lat="43.57732" lon="2.95301">
        <ele>486.8</ele>
        <time>2014-01-18T07:09:23Z</time>
      </trkpt>
      <trkpt lat="43.57724" lon="2.95309">
        <ele>486.4</ele>
        <time>2014-01-18T07:09:25Z</time>
      </trkpt>
      <trkpt lat="43.57722" lon="2.95314">
        <ele>485.8</ele>
        <time>2014-01-18T07:09:26Z</time>
      </trkpt>
      <trkpt lat="43.5772" lon="2.95319">
        <ele>485.4</ele>
        <time>2014-01-18T07:09:27Z</time>
      </trkpt>
      <trkpt lat="43.57718" lon="2.95323">
        <ele>484.8</ele>
        <time>2014-01-18T07:09:28Z</time>
      </trkpt>
      <trkpt lat="43.57716" lon="2.95326">
        <ele>484</ele>
        <time>2014-01-18T07:09:29Z</time>
      </trkpt>
      <trkpt lat="43.57715" lon="2.95329">
        <ele>483.4</ele>
        <time>2014-01-18T07:09:30Z</time>
      </trkpt>
      <trkpt lat="43.57714" lon="2.95332">
        <ele>482.6</ele>
        <time>2014-01-18T07:09:31Z</time>
      </trkpt>
      <trkpt lat="43.57714" lon="2.95335">
        <ele>481.6</ele>
        <time>2014-01-18T07:09:32Z</time>
      </trkpt>
      <trkpt lat="43.57714" lon="2.95336">
        <ele>480.8</ele>
        <time>2014-01-18T07:09:33Z</time>
      </trkpt>
      <trkpt lat="43.57713" lon="2.95337">
        <ele>480</ele>
        <time>2014-01-18T07:09:34Z</time>
      </trkpt>
      <trkpt lat="43.57713" lon="2.95337">
        <ele>479.4</ele>
        <time>2014-01-18T07:09:35Z</time>
      </trkpt>
      <trkpt lat="43.57712" lon="2.95338">
        <ele>478.6</ele>
        <time>2014-01-18T07:09:36Z</time>
      </trkpt>
      <trkpt lat="43.5771" lon="2.95338">
        <ele>477.8</ele>
        <time>2014-01-18T07:09:37Z</time>
      </trkpt>
      <trkpt lat="43.57708" lon="2.95337">
        <ele>477</ele>
        <time>2014-01-18T07:09:38Z</time>
      </trkpt>
      <trkpt lat="43.57706" lon="2.95335">
        <ele>477</ele>
        <time>2014-01-18T07:09:39Z</time>
      </trkpt>
      <trkpt lat="43.57705" lon="2.95333">
        <ele>477</ele>
        <time>2014-01-18T07:09:40Z</time>
      </trkpt>
      <trkpt lat="43.57698" lon="2.95325">
        <ele>476.6</ele>
        <time>2014-01-18T07:09:44Z</time>
      </trkpt>
      <trkpt lat="43.57697" lon="2.95325">
        <ele>476.2</ele>
        <time>2014-01-18T07:09:45Z</time>
      </trkpt>
      <trkpt lat="43.57696" lon="2.95324">
        <ele>475.8</ele>
        <time>2014-01-18T07:09:46Z</time>
      </trkpt>
      <trkpt lat="43.57695" lon="2.95325">
        <ele>475.4</ele>
        <time>2014-01-18T07:09:47Z</time>
      </trkpt>
      <trkpt lat="43.57693" lon="2.95325">
        <ele>474.8</ele>
        <time>2014-01-18T07:09:48Z</time>
      </trkpt>
      <trkpt lat="43.57692" lon="2.95326">
        <ele>473.8</ele>
        <time>2014-01-18T07:09:49Z</time>
      </trkpt>
      <trkpt lat="43.5769" lon="2.95326">
        <ele>473.4</ele>
        <time>2014-01-18T07:09:50Z</time>
      </trkpt>
      <trkpt lat="43.57688" lon="2.95326">
        <ele>472.8</ele>
        <time>2014-01-18T07:09:51Z</time>
      </trkpt>
      <trkpt lat="43.57687" lon="2.95324">
        <ele>472.4</ele>
        <time>2014-01-18T07:09:52Z</time>
      </trkpt>
      <trkpt lat="43.57685" lon="2.95323">
        <ele>472</ele>
        <time>2014-01-18T07:09:53Z</time>
      </trkpt>
      <trkpt lat="43.57683" lon="2.95321">
        <ele>471.4</ele>
        <time>2014-01-18T07:09:54Z</time>
      </trkpt>
      <trkpt lat="43.57681" lon="2.9532">
        <ele>471</ele>
        <time>2014-01-18T07:09:55Z</time>
      </trkpt>
      <trkpt lat="43.57678" lon="2.95318">
        <ele>470.6</ele>
        <time>2014-01-18T07:09:56Z</time>
      </trkpt>
      <trkpt lat="43.57671" lon="2.95314">
        <ele>470.2</ele>
        <time>2014-01-18T07:09:59Z</time>
      </trkpt>
      <trkpt lat="43.57671" lon="2.95311">
        <ele>469.8</ele>
        <time>2014-01-18T07:10:00Z</time>
      </trkpt>
      <trkpt lat="43.5767" lon="2.95307">
        <ele>469.2</ele>
        <time>2014-01-18T07:10:01Z</time>
      </trkpt>
      <trkpt lat="43.5767" lon="2.95303">
        <ele>468.8</ele>
        <time>2014-01-18T07:10:02Z</time>
      </trkpt>
      <trkpt lat="43.57671" lon="2.95299">
        <ele>468.4</ele>
        <time>2014-01-18T07:10:03Z</time>
      </trkpt>
      <trkpt lat="43.57671" lon="2.95296">
        <ele>468.4</ele>
        <time>2014-01-18T07:10:04Z</time>
      </trkpt>
      <trkpt lat="43.57671" lon="2.95294">
        <ele>468</ele>
        <time>2014-01-18T07:10:05Z</time>
      </trkpt>
      <trkpt lat="43.5767" lon="2.95294">
        <ele>467.4</ele>
        <time>2014-01-18T07:10:06Z</time>
      </trkpt>
      <trkpt lat="43.5767" lon="2.95294">
        <ele>466.8</ele>
        <time>2014-01-18T07:10:07Z</time>
      </trkpt>
      <trkpt lat="43.5767" lon="2.95294">
        <ele>466.4</ele>
        <time>2014-01-18T07:10:08Z</time>
      </trkpt>
      <trkpt lat="43.5767" lon="2.95294">
        <ele>465.8</ele>
        <time>2014-01-18T07:10:09Z</time>
      </trkpt>
      <trkpt lat="43.57668" lon="2.95292">
        <ele>465.4</ele>
        <time>2014-01-18T07:10:12Z</time>
      </trkpt>
      <trkpt lat="43.57668" lon="2.95291">
        <ele>464.4</ele>
        <time>2014-01-18T07:10:13Z</time>
      </trkpt>
      <trkpt lat="43.57668" lon="2.95289">
        <ele>464</ele>
        <time>2014-01-18T07:10:14Z</time>
      </trkpt>
      <trkpt lat="43.57668" lon="2.95287">
        <ele>463.6</ele>
        <time>2014-01-18T07:10:15Z</time>
      </trkpt>
      <trkpt lat="43.57669" lon="2.95287">
        <ele>463.6</ele>
        <time>2014-01-18T07:10:16Z</time>
      </trkpt>
      <trkpt lat="43.5767" lon="2.95281">
        <ele>463.2</ele>
        <time>2014-01-18T07:10:20Z</time>
      </trkpt>
      <trkpt lat="43.5767" lon="2.9528">
        <ele>462.8</ele>
        <time>2014-01-18T07:10:21Z</time>
      </trkpt>
      <trkpt lat="43.57671" lon="2.95279">
        <ele>462.4</ele>
        <time>2014-01-18T07:10:22Z</time>
      </trkpt>
      <trkpt lat="43.57671" lon="2.95279">
        <ele>462</ele>
        <time>2014-01-18T07:10:23Z</time>
      </trkpt>
      <trkpt lat="43.5767" lon="2.95279">
        <ele>461.4</ele>
        <time>2014-01-18T07:10:24Z</time>
      </trkpt>
      <trkpt lat="43.5767" lon="2.95279">
        <ele>461.4</ele>
        <time>2014-01-18T07:10:25Z</time>
      </trkpt>
      <trkpt lat="43.5767" lon="2.95279">
        <ele>461.4</ele>
        <time>2014-01-18T07:10:36Z</time>
      </trkpt>
      <trkpt lat="43.5767" lon="2.95278">
        <ele>461.4</ele>
        <time>2014-01-18T07:10:44Z</time>
      </trkpt>
      <trkpt lat="43.5767" lon="2.95277">
        <ele>461.4</ele>
        <time>2014-01-18T07:10:49Z</time>
      </trkpt>
      <trkpt lat="43.5767" lon="2.95277">
        <ele>461.4</ele>
        <time>2014-01-18T07:10:52Z</time>
      </trkpt>
      <trkpt lat="43.5767" lon="2.95276">
        <ele>461.4</ele>
        <time>2014-01-18T07:11:06Z</time>
      </trkpt>
      <trkpt lat="43.57668" lon="2.95274">
        <ele>461.4</ele>
        <time>2014-01-18T07:11:09Z</time>
      </trkpt>
      <trkpt lat="43.57668" lon="2.95274">
        <ele>461.4</ele>
        <time>2014-01-18T07:11:10Z</time>
      </trkpt>
      <trkpt lat="43.57667" lon="2.95274">
        <ele>461.4</ele>
        <time>2014-01-18T07:11:12Z</time>
      </trkpt>
      <trkpt lat="43.57664" lon="2.95278">
        <ele>461</ele>
        <time>2014-01-18T07:11:15Z</time>
      </trkpt>
      <trkpt lat="43.57662" lon="2.95279">
        <ele>460.6</ele>
        <time>2014-01-18T07:11:16Z</time>
      </trkpt>
      <trkpt lat="43.5766" lon="2.95281">
        <ele>460.2</ele>
        <time>2014-01-18T07:11:17Z</time>
      </trkpt>
      <trkpt lat="43.57658" lon="2.95283">
        <ele>459.8</ele>
        <time>2014-01-18T07:11:18Z</time>
      </trkpt>
      <trkpt lat="43.57656" lon="2.95283">
        <ele>459.2</ele>
        <time>2014-01-18T07:11:19Z</time>
      </trkpt>
      <trkpt lat="43.57655" lon="2.95282">
        <ele>458.6</ele>
        <time>2014-01-18T07:11:20Z</time>
      </trkpt>
      <trkpt lat="43.57655" lon="2.9528">
        <ele>458.2</ele>
        <time>2014-01-18T07:11:21Z</time>
      </trkpt>
      <trkpt lat="43.57655" lon="2.95277">
        <ele>457.6</ele>
        <time>2014-01-18T07:11:22Z</time>
      </trkpt>
      <trkpt lat="43.57655" lon="2.95274">
        <ele>457</ele>
        <time>2014-01-18T07:11:23Z</time>
      </trkpt>
      <trkpt lat="43.57654" lon="2.95273">
        <ele>457</ele>
        <time>2014-01-18T07:11:24Z</time>
      </trkpt>
      <trkpt lat="43.57654" lon="2.95273">
        <ele>456.6</ele>
        <time>2014-01-18T07:11:25Z</time>
      </trkpt>
      <trkpt lat="43.57653" lon="2.95273">
        <ele>456.2</ele>
        <time>2014-01-18T07:11:26Z</time>
      </trkpt>
      <trkpt lat="43.57653" lon="2.95275">
        <ele>455.6</ele>
        <time>2014-01-18T07:11:27Z</time>
      </trkpt>
      <trkpt lat="43.57652" lon="2.95277">
        <ele>454.8</ele>
        <time>2014-01-18T07:11:28Z</time>
      </trkpt>
      <trkpt lat="43.57651" lon="2.95279">
        <ele>454.8</ele>
        <time>2014-01-18T07:11:29Z</time>
      </trkpt>
      <trkpt lat="43.57645" lon="2.95285">
        <ele>454.2</ele>
        <time>2014-01-18T07:11:33Z</time>
      </trkpt>
      <trkpt lat="43.57644" lon="2.95284">
        <ele>453.8</ele>
        <time>2014-01-18T07:11:34Z</time>
      </trkpt>
      <trkpt lat="43.57644" lon="2.95283">
        <ele>453.2</ele>
        <time>2014-01-18T07:11:35Z</time>
      </trkpt>
      <trkpt lat="43.57643" lon="2.95282">
        <ele>452.6</ele>
        <time>2014-01-18T07:11:36Z</time>
      </trkpt>
      <trkpt lat="43.57642" lon="2.95281">
        <ele>452.2</ele>
        <time>2014-01-18T07:11:37Z</time>
      </trkpt>
      <trkpt lat="43.57641" lon="2.95282">
        <ele>452.2</ele>
        <time>2014-01-18T07:11:38Z</time>
      </trkpt>
      <trkpt lat="43.57639" lon="2.95284">
        <ele>451.8</ele>
        <time>2014-01-18T07:11:39Z</time>
      </trkpt>
      <trkpt lat="43.57637" lon="2.95286">
        <ele>451.2</ele>
        <time>2014-01-18T07:11:40Z</time>
      </trkpt>
      <trkpt lat="43.57635" lon="2.95288">
        <ele>450.8</ele>
        <time>2014-01-18T07:11:41Z</time>
      </trkpt>
      <trkpt lat="43.57633" lon="2.9529">
        <ele>450.4</ele>
        <time>2014-01-18T07:11:42Z</time>
      </trkpt>
      <trkpt lat="43.57631" lon="2.9529">
        <ele>449.8</ele>
        <time>2014-01-18T07:11:43Z</time>
      </trkpt>
      <trkpt lat="43.57629" lon="2.95289">
        <ele>449.4</ele>
        <time>2014-01-18T07:11:44Z</time>
      </trkpt>
      <trkpt lat="43.57629" lon="2.95289">
        <ele>448.8</ele>
        <time>2014-01-18T07:11:45Z</time>
      </trkpt>
      <trkpt lat="43.57629" lon="2.95287">
        <ele>448.2</ele>
        <time>2014-01-18T07:11:46Z</time>
      </trkpt>
      <trkpt lat="43.57629" lon="2.95285">
        <ele>447.6</ele>
        <time>2014-01-18T07:11:47Z</time>
      </trkpt>
      <trkpt lat="43.57628" lon="2.95281">
        <ele>447.2</ele>
        <time>2014-01-18T07:11:49Z</time>
      </trkpt>
      <trkpt lat="43.57626" lon="2.95279">
        <ele>446.8</ele>
        <time>2014-01-18T07:11:50Z</time>
      </trkpt>
      <trkpt lat="43.57623" lon="2.9528">
        <ele>446.2</ele>
        <time>2014-01-18T07:11:51Z</time>
      </trkpt>
      <trkpt lat="43.5762" lon="2.95279">
        <ele>445.8</ele>
        <time>2014-01-18T07:11:52Z</time>
      </trkpt>
      <trkpt lat="43.57617" lon="2.95279">
        <ele>444.8</ele>
        <time>2014-01-18T07:11:53Z</time>
      </trkpt>
      <trkpt lat="43.57614" lon="2.95279">
        <ele>444.2</ele>
        <time>2014-01-18T07:11:54Z</time>
      </trkpt>
      <trkpt lat="43.57612" lon="2.95279">
        <ele>443.6</ele>
        <time>2014-01-18T07:11:55Z</time>
      </trkpt>
      <trkpt lat="43.5761" lon="2.95281">
        <ele>443</ele>
        <time>2014-01-18T07:11:56Z</time>
      </trkpt>
      <trkpt lat="43.57606" lon="2.95284">
        <ele>442.6</ele>
        <time>2014-01-18T07:11:58Z</time>
      </trkpt>
      <trkpt lat="43.57604" lon="2.95285">
        <ele>442.2</ele>
        <time>2014-01-18T07:11:59Z</time>
      </trkpt>
      <trkpt lat="43.57602" lon="2.95287">
        <ele>441.8</ele>
        <time>2014-01-18T07:12:00Z</time>
      </trkpt>
      <trkpt lat="43.576" lon="2.9529">
        <ele>441.2</ele>
        <time>2014-01-18T07:12:01Z</time>
      </trkpt>
      <trkpt lat="43.57599" lon="2.95293">
        <ele>440.8</ele>
        <time>2014-01-18T07:12:02Z</time>
      </trkpt>
      <trkpt lat="43.57594" lon="2.95298">
        <ele>440.8</ele>
        <time>2014-01-18T07:12:04Z</time>
      </trkpt>
      <trkpt lat="43.57593" lon="2.95301">
        <ele>440.2</ele>
        <time>2014-01-18T07:12:05Z</time>
      </trkpt>
      <trkpt lat="43.57592" lon="2.95304">
        <ele>439.6</ele>
        <time>2014-01-18T07:12:06Z</time>
      </trkpt>
      <trkpt lat="43.57591" lon="2.95307">
        <ele>439</ele>
        <time>2014-01-18T07:12:07Z</time>
      </trkpt>
      <trkpt lat="43.5759" lon="2.95311">
        <ele>438.4</ele>
        <time>2014-01-18T07:12:08Z</time>
      </trkpt>
      <trkpt lat="43.5759" lon="2.95316">
        <ele>437.6</ele>
        <time>2014-01-18T07:12:09Z</time>
      </trkpt>
      <trkpt lat="43.5759" lon="2.95321">
        <ele>437</ele>
        <time>2014-01-18T07:12:10Z</time>
      </trkpt>
      <trkpt lat="43.5759" lon="2.95326">
        <ele>436.2</ele>
        <time>2014-01-18T07:12:11Z</time>
      </trkpt>
      <trkpt lat="43.5759" lon="2.95331">
        <ele>435.6</ele>
        <time>2014-01-18T07:12:12Z</time>
      </trkpt>
      <trkpt lat="43.57591" lon="2.95336">
        <ele>435.2</ele>
        <time>2014-01-18T07:12:13Z</time>
      </trkpt>
      <trkpt lat="43.57593" lon="2.9534">
        <ele>434.6</ele>
        <time>2014-01-18T07:12:14Z</time>
      </trkpt>
      <trkpt lat="43.57594" lon="2.95344">
        <ele>434</ele>
        <time>2014-01-18T07:12:15Z</time>
      </trkpt>
      <trkpt lat="43.57595" lon="2.95348">
        <ele>433.4</ele>
        <time>2014-01-18T07:12:16Z</time>
      </trkpt>
      <trkpt lat="43.57597" lon="2.95352">
        <ele>432.6</ele>
        <time>2014-01-18T07:12:17Z</time>
      </trkpt>
      <trkpt lat="43.57599" lon="2.95356">
        <ele>432.2</ele>
        <time>2014-01-18T07:12:18Z</time>
      </trkpt>
      <trkpt lat="43.57601" lon="2.9536">
        <ele>431.4</ele>
        <time>2014-01-18T07:12:19Z</time>
      </trkpt>
      <trkpt lat="43.57604" lon="2.95364">
        <ele>430.8</ele>
        <time>2014-01-18T07:12:20Z</time>
      </trkpt>
      <trkpt lat="43.57606" lon="2.95368">
        <ele>430</ele>
        <time>2014-01-18T07:12:21Z</time>
      </trkpt>
      <trkpt lat="43.57609" lon="2.95373">
        <ele>429.2</ele>
        <time>2014-01-18T07:12:22Z</time>
      </trkpt>
      <trkpt lat="43.5761" lon="2.95377">
        <ele>428.6</ele>
        <time>2014-01-18T07:12:23Z</time>
      </trkpt>
      <trkpt lat="43.57612" lon="2.9538">
        <ele>427.8</ele>
        <time>2014-01-18T07:12:24Z</time>
      </trkpt>
      <trkpt lat="43.57613" lon="2.95382">
        <ele>427.2</ele>
        <time>2014-01-18T07:12:25Z</time>
      </trkpt>
      <trkpt lat="43.57615" lon="2.95383">
        <ele>426.4</ele>
        <time>2014-01-18T07:12:26Z</time>
      </trkpt>
      <trkpt lat="43.57622" lon="2.95391">
        <ele>426.4</ele>
        <time>2014-01-18T07:12:29Z</time>
      </trkpt>
      <trkpt lat="43.57624" lon="2.95394">
        <ele>426</ele>
        <time>2014-01-18T07:12:30Z</time>
      </trkpt>
      <trkpt lat="43.57626" lon="2.95398">
        <ele>425.6</ele>
        <time>2014-01-18T07:12:31Z</time>
      </trkpt>
      <trkpt lat="43.57629" lon="2.95404">
        <ele>425.2</ele>
        <time>2014-01-18T07:12:32Z</time>
      </trkpt>
      <trkpt lat="43.57631" lon="2.9541">
        <ele>424.8</ele>
        <time>2014-01-18T07:12:33Z</time>
      </trkpt>
      <trkpt lat="43.57632" lon="2.95415">
        <ele>424.2</ele>
        <time>2014-01-18T07:12:34Z</time>
      </trkpt>
      <trkpt lat="43.57635" lon="2.9542">
        <ele>423.8</ele>
        <time>2014-01-18T07:12:35Z</time>
      </trkpt>
      <trkpt lat="43.57637" lon="2.95425">
        <ele>423.4</ele>
        <time>2014-01-18T07:12:36Z</time>
      </trkpt>
      <trkpt lat="43.5764" lon="2.95431">
        <ele>422.8</ele>
        <time>2014-01-18T07:12:37Z</time>
      </trkpt>
      <trkpt lat="43.57643" lon="2.95436">
        <ele>422.4</ele>
        <time>2014-01-18T07:12:38Z</time>
      </trkpt>
      <trkpt lat="43.57645" lon="2.95441">
        <ele>421.8</ele>
        <time>2014-01-18T07:12:39Z</time>
      </trkpt>
      <trkpt lat="43.57648" lon="2.95446">
        <ele>421.4</ele>
        <time>2014-01-18T07:12:40Z</time>
      </trkpt>
      <trkpt lat="43.57651" lon="2.95449">
        <ele>421</ele>
        <time>2014-01-18T07:12:41Z</time>
      </trkpt>
      <trkpt lat="43.57654" lon="2.95454">
        <ele>420</ele>
        <time>2014-01-18T07:12:42Z</time>
      </trkpt>
      <trkpt lat="43.57655" lon="2.95459">
        <ele>419.6</ele>
        <time>2014-01-18T07:12:43Z</time>
      </trkpt>
      <trkpt lat="43.57659" lon="2.95468">
        <ele>419</ele>
        <time>2014-01-18T07:12:45Z</time>
      </trkpt>
      <trkpt lat="43.57661" lon="2.95473">
        <ele>418.6</ele>
        <time>2014-01-18T07:12:46Z</time>
      </trkpt>
      <trkpt lat="43.57662" lon="2.95478">
        <ele>418</ele>
        <time>2014-01-18T07:12:47Z</time>
      </trkpt>
      <trkpt lat="43.57664" lon="2.95483">
        <ele>417.6</ele>
        <time>2014-01-18T07:12:48Z</time>
      </trkpt>
      <trkpt lat="43.57666" lon="2.95488">
        <ele>417</ele>
        <time>2014-01-18T07:12:49Z</time>
      </trkpt>
      <trkpt lat="43.57669" lon="2.95493">
        <ele>416.4</ele>
        <time>2014-01-18T07:12:50Z</time>
      </trkpt>
      <trkpt lat="43.57671" lon="2.95498">
        <ele>416</ele>
        <time>2014-01-18T07:12:51Z</time>
      </trkpt>
      <trkpt lat="43.57673" lon="2.95503">
        <ele>415.4</ele>
        <time>2014-01-18T07:12:52Z</time>
      </trkpt>
      <trkpt lat="43.57672" lon="2.95507">
        <ele>414.8</ele>
        <time>2014-01-18T07:12:53Z</time>
      </trkpt>
      <trkpt lat="43.57672" lon="2.9551">
        <ele>414.4</ele>
        <time>2014-01-18T07:12:54Z</time>
      </trkpt>
      <trkpt lat="43.57672" lon="2.95514">
        <ele>413.8</ele>
        <time>2014-01-18T07:12:55Z</time>
      </trkpt>
      <trkpt lat="43.57673" lon="2.95515">
        <ele>413.4</ele>
        <time>2014-01-18T07:12:56Z</time>
      </trkpt>
      <trkpt lat="43.57673" lon="2.95516">
        <ele>412.8</ele>
        <time>2014-01-18T07:12:57Z</time>
      </trkpt>
      <trkpt lat="43.57673" lon="2.95517">
        <ele>412.8</ele>
        <time>2014-01-18T07:13:01Z</time>
      </trkpt>
      <trkpt lat="43.57673" lon="2.95517">
        <ele>412.8</ele>
        <time>2014-01-18T07:13:11Z</time>
      </trkpt>
      <trkpt lat="43.57673" lon="2.95517">
        <ele>412.8</ele>
        <time>2014-01-18T07:13:17Z</time>
      </trkpt>
      <trkpt lat="43.57673" lon="2.95517">
        <ele>412.8</ele>
        <time>2014-01-18T07:13:21Z</time>
      </trkpt>
      <trkpt lat="43.57673" lon="2.95517">
        <ele>412.8</ele>
        <time>2014-01-18T07:13:25Z</time>
      </trkpt>
      <trkpt lat="43.57673" lon="2.95517">
        <ele>412.8</ele>
        <time>2014-01-18T07:13:26Z</time>
      </trkpt>
      <trkpt lat="43.57673" lon="2.95517">
        <ele>412.8</ele>
        <time>2014-01-18T07:13:33Z</time>
      </trkpt>
      <trkpt lat="43.57673" lon="2.95517">
        <ele>412.8</ele>
        <time>2014-01-18T07:13:36Z</time>
      </trkpt>
      <trkpt lat="43.57673" lon="2.9552">
        <ele>412.8</ele>
        <time>2014-01-18T07:13:40Z</time>
      </trkpt>
      <trkpt lat="43.57673" lon="2.9552">
        <ele>412.8</ele>
        <time>2014-01-18T07:13:47Z</time>
      </trkpt>
      <trkpt lat="43.57673" lon="2.9552">
        <ele>412.8</ele>
        <time>2014-01-18T07:13:49Z</time>
      </trkpt>
      <trkpt lat="43.57673" lon="2.9552">
        <ele>412.8</ele>
        <time>2014-01-18T07:13:51Z</time>
      </trkpt>
      <trkpt lat="43.57673" lon="2.9552">
        <ele>412.8</ele>
        <time>2014-01-18T07:13:52Z</time>
      </trkpt>
      <trkpt lat="43.57673" lon="2.9552">
        <ele>412.8</ele>
        <time>2014-01-18T07:14:01Z</time>
      </trkpt>
      <trkpt lat="43.57673" lon="2.9552">
        <ele>412.8</ele>
        <time>2014-01-18T07:14:04Z</time>
      </trkpt>
      <trkpt lat="43.57673" lon="2.9552">
        <ele>412.8</ele>
        <time>2014-01-18T07:14:06Z</time>
      </trkpt>
      <trkpt lat="43.57669" lon="2.95523">
        <ele>412.8</ele>
        <time>2014-01-18T07:14:08Z</time>
      </trkpt>
      <trkpt lat="43.57667" lon="2.95524">
        <ele>412.4</ele>
        <time>2014-01-18T07:14:10Z</time>
      </trkpt>
      <trkpt lat="43.57665" lon="2.95525">
        <ele>412</ele>
        <time>2014-01-18T07:14:11Z</time>
      </trkpt>
      <trkpt lat="43.57662" lon="2.95526">
        <ele>411.6</ele>
        <time>2014-01-18T07:14:12Z</time>
      </trkpt>
      <trkpt lat="43.57659" lon="2.95526">
        <ele>411</ele>
        <time>2014-01-18T07:14:13Z</time>
      </trkpt>
      <trkpt lat="43.57656" lon="2.95527">
        <ele>410.6</ele>
        <time>2014-01-18T07:14:14Z</time>
      </trkpt>
      <trkpt lat="43.57654" lon="2.95528">
        <ele>410</ele>
        <time>2014-01-18T07:14:15Z</time>
      </trkpt>
      <trkpt lat="43.5765" lon="2.95529">
        <ele>409.4</ele>
        <time>2014-01-18T07:14:16Z</time>
      </trkpt>
      <trkpt lat="43.57645" lon="2.9553">
        <ele>408.6</ele>
        <time>2014-01-18T07:14:17Z</time>
      </trkpt>
      <trkpt lat="43.57641" lon="2.9553">
        <ele>407.8</ele>
        <time>2014-01-18T07:14:18Z</time>
      </trkpt>
      <trkpt lat="43.57637" lon="2.95531">
        <ele>407</ele>
        <time>2014-01-18T07:14:19Z</time>
      </trkpt>
      <trkpt lat="43.57633" lon="2.9553">
        <ele>406</ele>
        <time>2014-01-18T07:14:20Z</time>
      </trkpt>
      <trkpt lat="43.57629" lon="2.95531">
        <ele>404.2</ele>
        <time>2014-01-18T07:14:21Z</time>
      </trkpt>
      <trkpt lat="43.57623" lon="2.95532">
        <ele>403.2</ele>
        <time>2014-01-18T07:14:22Z</time>
      </trkpt>
      <trkpt lat="43.57618" lon="2.95531">
        <ele>402.4</ele>
        <time>2014-01-18T07:14:23Z</time>
      </trkpt>
      <trkpt lat="43.57613" lon="2.95532">
        <ele>401.4</ele>
        <time>2014-01-18T07:14:24Z</time>
      </trkpt>
      <trkpt lat="43.57608" lon="2.95534">
        <ele>400.4</ele>
        <time>2014-01-18T07:14:25Z</time>
      </trkpt>
      <trkpt lat="43.57604" lon="2.95537">
        <ele>399.2</ele>
        <time>2014-01-18T07:14:26Z</time>
      </trkpt>
      <trkpt lat="43.57599" lon="2.95538">
        <ele>398</ele>
        <time>2014-01-18T07:14:27Z</time>
      </trkpt>
      <trkpt lat="43.57593" lon="2.9554">
        <ele>396.8</ele>
        <time>2014-01-18T07:14:28Z</time>
      </trkpt>
      <trkpt lat="43.57589" lon="2.95541">
        <ele>395.8</ele>
        <time>2014-01-18T07:14:29Z</time>
      </trkpt>
      <trkpt lat="43.57585" lon="2.95542">
        <ele>394.8</ele>
        <time>2014-01-18T07:14:30Z</time>
      </trkpt>
      <trkpt lat="43.5758" lon="2.95543">
        <ele>393.8</ele>
        <time>2014-01-18T07:14:31Z</time>
      </trkpt>
      <trkpt lat="43.57576" lon="2.95544">
        <ele>392.8</ele>
        <time>2014-01-18T07:14:32Z</time>
      </trkpt>
      <trkpt lat="43.57572" lon="2.95545">
        <ele>391.8</ele>
        <time>2014-01-18T07:14:33Z</time>
      </trkpt>
      <trkpt lat="43.57568" lon="2.95548">
        <ele>390.8</ele>
        <time>2014-01-18T07:14:34Z</time>
      </trkpt>
      <trkpt lat="43.57563" lon="2.9555">
        <ele>389.6</ele>
        <time>2014-01-18T07:14:35Z</time>
      </trkpt>
      <trkpt lat="43.57559" lon="2.95551">
        <ele>388.6</ele>
        <time>2014-01-18T07:14:36Z</time>
      </trkpt>
      <trkpt lat="43.57554" lon="2.95552">
        <ele>387.6</ele>
        <time>2014-01-18T07:14:37Z</time>
      </trkpt>
      <trkpt lat="43.5755" lon="2.95552">
        <ele>386.6</ele>
        <time>2014-01-18T07:14:38Z</time>
      </trkpt>
      <trkpt lat="43.57546" lon="2.9555">
        <ele>385.4</ele>
        <time>2014-01-18T07:14:39Z</time>
      </trkpt>
      <trkpt lat="43.57542" lon="2.95549">
        <ele>384.4</ele>
        <time>2014-01-18T07:14:40Z</time>
      </trkpt>
      <trkpt lat="43.57538" lon="2.95551">
        <ele>383.2</ele>
        <time>2014-01-18T07:14:41Z</time>
      </trkpt>
      <trkpt lat="43.57535" lon="2.95554">
        <ele>382.2</ele>
        <time>2014-01-18T07:14:42Z</time>
      </trkpt>
      <trkpt lat="43.57532" lon="2.95556">
        <ele>381</ele>
        <time>2014-01-18T07:14:43Z</time>
      </trkpt>
      <trkpt lat="43.57526" lon="2.95558">
        <ele>380.2</ele>
        <time>2014-01-18T07:14:44Z</time>
      </trkpt>
      <trkpt lat="43.57521" lon="2.9556">
        <ele>379.6</ele>
        <time>2014-01-18T07:14:45Z</time>
      </trkpt>
      <trkpt lat="43.57516" lon="2.9556">
        <ele>377.8</ele>
        <time>2014-01-18T07:14:46Z</time>
      </trkpt>
      <trkpt lat="43.57511" lon="2.95561">
        <ele>376.8</ele>
        <time>2014-01-18T07:14:47Z</time>
      </trkpt>
      <trkpt lat="43.57507" lon="2.95564">
        <ele>376</ele>
        <time>2014-01-18T07:14:48Z</time>
      </trkpt>
      <trkpt lat="43.57503" lon="2.95567">
        <ele>375.4</ele>
        <time>2014-01-18T07:14:49Z</time>
      </trkpt>
      <trkpt lat="43.57501" lon="2.95569">
        <ele>374.6</ele>
        <time>2014-01-18T07:14:50Z</time>
      </trkpt>
      <trkpt lat="43.57499" lon="2.9557">
        <ele>373.8</ele>
        <time>2014-01-18T07:14:51Z</time>
      </trkpt>
      <trkpt lat="43.57496" lon="2.95572">
        <ele>373</ele>
        <time>2014-01-18T07:14:52Z</time>
      </trkpt>
      <trkpt lat="43.57485" lon="2.95576">
        <ele>373</ele>
        <time>2014-01-18T07:14:55Z</time>
      </trkpt>
      <trkpt lat="43.57481" lon="2.95577">
        <ele>373</ele>
        <time>2014-01-18T07:14:56Z</time>
      </trkpt>
      <trkpt lat="43.57478" lon="2.95579">
        <ele>372.6</ele>
        <time>2014-01-18T07:14:57Z</time>
      </trkpt>
      <trkpt lat="43.57475" lon="2.95582">
        <ele>372</ele>
        <time>2014-01-18T07:14:58Z</time>
      </trkpt>
      <trkpt lat="43.57473" lon="2.95585">
        <ele>371.6</ele>
        <time>2014-01-18T07:14:59Z</time>
      </trkpt>
      <trkpt lat="43.57471" lon="2.95588">
        <ele>371.2</ele>
        <time>2014-01-18T07:15:00Z</time>
      </trkpt>
      <trkpt lat="43.57468" lon="2.95591">
        <ele>370.8</ele>
        <time>2014-01-18T07:15:01Z</time>
      </trkpt>
      <trkpt lat="43.57461" lon="2.95603">
        <ele>370.8</ele>
        <time>2014-01-18T07:15:04Z</time>
      </trkpt>
      <trkpt lat="43.57447" lon="2.95618">
        <ele>370.8</ele>
        <time>2014-01-18T07:15:09Z</time>
      </trkpt>
      <trkpt lat="43.57439" lon="2.95629">
        <ele>370.8</ele>
        <time>2014-01-18T07:15:12Z</time>
      </trkpt>
      <trkpt lat="43.57436" lon="2.95632">
        <ele>370.8</ele>
        <time>2014-01-18T07:15:13Z</time>
      </trkpt>
      <trkpt lat="43.57427" lon="2.95642">
        <ele>370.8</ele>
        <time>2014-01-18T07:15:16Z</time>
      </trkpt>
      <trkpt lat="43.57425" lon="2.95642">
        <ele>370.8</ele>
        <time>2014-01-18T07:15:17Z</time>
      </trkpt>
      <trkpt lat="43.57421" lon="2.95648">
        <ele>370.2</ele>
        <time>2014-01-18T07:15:20Z</time>
      </trkpt>
      <trkpt lat="43.5742" lon="2.95652">
        <ele>369.8</ele>
        <time>2014-01-18T07:15:21Z</time>
      </trkpt>
      <trkpt lat="43.57418" lon="2.95656">
        <ele>369.4</ele>
        <time>2014-01-18T07:15:22Z</time>
      </trkpt>
      <trkpt lat="43.57416" lon="2.95659">
        <ele>368.6</ele>
        <time>2014-01-18T07:15:23Z</time>
      </trkpt>
      <trkpt lat="43.57414" lon="2.95662">
        <ele>368</ele>
        <time>2014-01-18T07:15:24Z</time>
      </trkpt>
      <trkpt lat="43.57411" lon="2.95666">
        <ele>367.2</ele>
        <time>2014-01-18T07:15:25Z</time>
      </trkpt>
      <trkpt lat="43.57409" lon="2.95669">
        <ele>366.6</ele>
        <time>2014-01-18T07:15:26Z</time>
      </trkpt>
      <trkpt lat="43.57406" lon="2.95673">
        <ele>365.8</ele>
        <time>2014-01-18T07:15:27Z</time>
      </trkpt>
      <trkpt lat="43.57403" lon="2.95677">
        <ele>365</ele>
        <time>2014-01-18T07:15:28Z</time>
      </trkpt>
      <trkpt lat="43.574" lon="2.9568">
        <ele>364.2</ele>
        <time>2014-01-18T07:15:29Z</time>
      </trkpt>
      <trkpt lat="43.57398" lon="2.95684">
        <ele>363.4</ele>
        <time>2014-01-18T07:15:30Z</time>
      </trkpt>
      <trkpt lat="43.57396" lon="2.95689">
        <ele>362.6</ele>
        <time>2014-01-18T07:15:31Z</time>
      </trkpt>
      <trkpt lat="43.57395" lon="2.95693">
        <ele>361.6</ele>
        <time>2014-01-18T07:15:32Z</time>
      </trkpt>
      <trkpt lat="43.57394" lon="2.95694">
        <ele>360.8</ele>
        <time>2014-01-18T07:15:33Z</time>
      </trkpt>
      <trkpt lat="43.57393" lon="2.95693">
        <ele>360</ele>
        <time>2014-01-18T07:15:34Z</time>
      </trkpt>
      <trkpt lat="43.57392" lon="2.9569">
        <ele>358.4</ele>
        <time>2014-01-18T07:15:35Z</time>
      </trkpt>
      <trkpt lat="43.57391" lon="2.95686">
        <ele>357.4</ele>
        <time>2014-01-18T07:15:36Z</time>
      </trkpt>
      <trkpt lat="43.5739" lon="2.9568">
        <ele>356.8</ele>
        <time>2014-01-18T07:15:37Z</time>
      </trkpt>
      <trkpt lat="43.57389" lon="2.95675">
        <ele>356.2</ele>
        <time>2014-01-18T07:15:38Z</time>
      </trkpt>
      <trkpt lat="43.57388" lon="2.95669">
        <ele>355.4</ele>
        <time>2014-01-18T07:15:39Z</time>
      </trkpt>
      <trkpt lat="43.57388" lon="2.95663">
        <ele>354.6</ele>
        <time>2014-01-18T07:15:40Z</time>
      </trkpt>
      <trkpt lat="43.57387" lon="2.95656">
        <ele>353.8</ele>
        <time>2014-01-18T07:15:41Z</time>
      </trkpt>
      <trkpt lat="43.57388" lon="2.9565">
        <ele>353</ele>
        <time>2014-01-18T07:15:42Z</time>
      </trkpt>
      <trkpt lat="43.57389" lon="2.95643">
        <ele>352.2</ele>
        <time>2014-01-18T07:15:43Z</time>
      </trkpt>
      <trkpt lat="43.5739" lon="2.95637">
        <ele>351.4</ele>
        <time>2014-01-18T07:15:44Z</time>
      </trkpt>
      <trkpt lat="43.57391" lon="2.95631">
        <ele>350.8</ele>
        <time>2014-01-18T07:15:45Z</time>
      </trkpt>
      <trkpt lat="43.57392" lon="2.95624">
        <ele>350</ele>
        <time>2014-01-18T07:15:46Z</time>
      </trkpt>
      <trkpt lat="43.57393" lon="2.95617">
        <ele>349.2</ele>
        <time>2014-01-18T07:15:47Z</time>
      </trkpt>
      <trkpt lat="43.57394" lon="2.95608">
        <ele>348.6</ele>
        <time>2014-01-18T07:15:48Z</time>
      </trkpt>
      <trkpt lat="43.57396" lon="2.95601">
        <ele>347.8</ele>
        <time>2014-01-18T07:15:49Z</time>
      </trkpt>
      <trkpt lat="43.57397" lon="2.95594">
        <ele>346.8</ele>
        <time>2014-01-18T07:15:50Z</time>
      </trkpt>
      <trkpt lat="43.57399" lon="2.95588">
        <ele>345.8</ele>
        <time>2014-01-18T07:15:51Z</time>
      </trkpt>
      <trkpt lat="43.57401" lon="2.95583">
        <ele>344.8</ele>
        <time>2014-01-18T07:15:52Z</time>
      </trkpt>
      <trkpt lat="43.57404" lon="2.95579">
        <ele>343.8</ele>
        <time>2014-01-18T07:15:53Z</time>
      </trkpt>
      <trkpt lat="43.57404" lon="2.95578">
        <ele>342.8</ele>
        <time>2014-01-18T07:15:54Z</time>
      </trkpt>
      <trkpt lat="43.57403" lon="2.95577">
        <ele>342</ele>
        <time>2014-01-18T07:15:55Z</time>
      </trkpt>
      <trkpt lat="43.57403" lon="2.95578">
        <ele>341.4</ele>
        <time>2014-01-18T07:15:56Z</time>
      </trkpt>
      <trkpt lat="43.57401" lon="2.9558">
        <ele>341</ele>
        <time>2014-01-18T07:15:57Z</time>
      </trkpt>
      <trkpt lat="43.57397" lon="2.95583">
        <ele>340.6</ele>
        <time>2014-01-18T07:15:58Z</time>
      </trkpt>
      <trkpt lat="43.57393" lon="2.95586">
        <ele>340.2</ele>
        <time>2014-01-18T07:15:59Z</time>
      </trkpt>
      <trkpt lat="43.57389" lon="2.9559">
        <ele>339.2</ele>
        <time>2014-01-18T07:16:00Z</time>
      </trkpt>
      <trkpt lat="43.57384" lon="2.95594">
        <ele>338.6</ele>
        <time>2014-01-18T07:16:01Z</time>
      </trkpt>
      <trkpt lat="43.5738" lon="2.95596">
        <ele>337.8</ele>
        <time>2014-01-18T07:16:02Z</time>
      </trkpt>
      <trkpt lat="43.57375" lon="2.95599">
        <ele>337</ele>
        <time>2014-01-18T07:16:03Z</time>
      </trkpt>
      <trkpt lat="43.57371" lon="2.95602">
        <ele>336.2</ele>
        <time>2014-01-18T07:16:04Z</time>
      </trkpt>
      <trkpt lat="43.57368" lon="2.95604">
        <ele>335.2</ele>
        <time>2014-01-18T07:16:05Z</time>
      </trkpt>
      <trkpt lat="43.57365" lon="2.95604">
        <ele>334.2</ele>
        <time>2014-01-18T07:16:06Z</time>
      </trkpt>
      <trkpt lat="43.57362" lon="2.95604">
        <ele>333</ele>
        <time>2014-01-18T07:16:07Z</time>
      </trkpt>
      <trkpt lat="43.57362" lon="2.95602">
        <ele>332</ele>
        <time>2014-01-18T07:16:08Z</time>
      </trkpt>
      <trkpt lat="43.57361" lon="2.956">
        <ele>331</ele>
        <time>2014-01-18T07:16:09Z</time>
      </trkpt>
      <trkpt lat="43.57362" lon="2.956">
        <ele>330</ele>
        <time>2014-01-18T07:16:10Z</time>
      </trkpt>
      <trkpt lat="43.57361" lon="2.956">
        <ele>329.2</ele>
        <time>2014-01-18T07:16:11Z</time>
      </trkpt>
      <trkpt lat="43.57361" lon="2.956">
        <ele>328.2</ele>
        <time>2014-01-18T07:16:12Z</time>
      </trkpt>
      <trkpt lat="43.57361" lon="2.956">
        <ele>327.2</ele>
        <time>2014-01-18T07:16:13Z</time>
      </trkpt>
      <trkpt lat="43.57361" lon="2.956">
        <ele>327.2</ele>
        <time>2014-01-18T07:16:19Z</time>
      </trkpt>
      <trkpt lat="43.57361" lon="2.956">
        <ele>327.2</ele>
        <time>2014-01-18T07:16:21Z</time>
      </trkpt>
      <trkpt lat="43.57359" lon="2.95598">
        <ele>327.2</ele>
        <time>2014-01-18T07:16:25Z</time>
      </trkpt>
      <trkpt lat="43.57359" lon="2.95598">
        <ele>327.2</ele>
        <time>2014-01-18T07:16:26Z</time>
      </trkpt>
      <trkpt lat="43.57359" lon="2.95598">
        <ele>327.2</ele>
        <time>2014-01-18T07:16:34Z</time>
      </trkpt>
      <trkpt lat="43.57359" lon="2.95598">
        <ele>327.2</ele>
        <time>2014-01-18T07:16:37Z</time>
      </trkpt>
      <trkpt lat="43.57359" lon="2.95598">
        <ele>327.2</ele>
        <time>2014-01-18T07:16:43Z</time>
      </trkpt>
      <trkpt lat="43.57359" lon="2.95598">
        <ele>327.2</ele>
        <time>2014-01-18T07:16:47Z</time>
      </trkpt>
      <trkpt lat="43.57359" lon="2.95598">
        <ele>326.8</ele>
        <time>2014-01-18T07:16:49Z</time>
      </trkpt>
      <trkpt lat="43.57359" lon="2.95598">
        <ele>326</ele>
        <time>2014-01-18T07:16:50Z</time>
      </trkpt>
      <trkpt lat="43.57359" lon="2.95598">
        <ele>325.6</ele>
        <time>2014-01-18T07:16:51Z</time>
      </trkpt>
      <trkpt lat="43.57359" lon="2.95598">
        <ele>325</ele>
        <time>2014-01-18T07:16:52Z</time>
      </trkpt>
      <trkpt lat="43.57359" lon="2.95598">
        <ele>325</ele>
        <time>2014-01-18T07:16:55Z</time>
      </trkpt>
      <trkpt lat="43.57358" lon="2.95598">
        <ele>325</ele>
        <time>2014-01-18T07:16:58Z</time>
      </trkpt>
      <trkpt lat="43.57354" lon="2.956">
        <ele>325</ele>
        <time>2014-01-18T07:17:01Z</time>
      </trkpt>
      <trkpt lat="43.57347" lon="2.95609">
        <ele>324.6</ele>
        <time>2014-01-18T07:17:05Z</time>
      </trkpt>
      <trkpt lat="43.57345" lon="2.95612">
        <ele>324.2</ele>
        <time>2014-01-18T07:17:06Z</time>
      </trkpt>
      <trkpt lat="43.57344" lon="2.95614">
        <ele>323.8</ele>
        <time>2014-01-18T07:17:07Z</time>
      </trkpt>
      <trkpt lat="43.57343" lon="2.95616">
        <ele>323.2</ele>
        <time>2014-01-18T07:17:08Z</time>
      </trkpt>
      <trkpt lat="43.57341" lon="2.95617">
        <ele>322.6</ele>
        <time>2014-01-18T07:17:09Z</time>
      </trkpt>
      <trkpt lat="43.57339" lon="2.95617">
        <ele>322</ele>
        <time>2014-01-18T07:17:10Z</time>
      </trkpt>
      <trkpt lat="43.57336" lon="2.95616">
        <ele>321.2</ele>
        <time>2014-01-18T07:17:11Z</time>
      </trkpt>
      <trkpt lat="43.57334" lon="2.95618">
        <ele>320.6</ele>
        <time>2014-01-18T07:17:12Z</time>
      </trkpt>
      <trkpt lat="43.57331" lon="2.9562">
        <ele>319.8</ele>
        <time>2014-01-18T07:17:13Z</time>
      </trkpt>
      <trkpt lat="43.57329" lon="2.95623">
        <ele>318</ele>
        <time>2014-01-18T07:17:14Z</time>
      </trkpt>
      <trkpt lat="43.57327" lon="2.95625">
        <ele>317</ele>
        <time>2014-01-18T07:17:15Z</time>
      </trkpt>
      <trkpt lat="43.57324" lon="2.95627">
        <ele>316.2</ele>
        <time>2014-01-18T07:17:16Z</time>
      </trkpt>
      <trkpt lat="43.57321" lon="2.95628">
        <ele>315.4</ele>
        <time>2014-01-18T07:17:17Z</time>
      </trkpt>
      <trkpt lat="43.57318" lon="2.95629">
        <ele>314.4</ele>
        <time>2014-01-18T07:17:18Z</time>
      </trkpt>
      <trkpt lat="43.57314" lon="2.9563">
        <ele>313.6</ele>
        <time>2014-01-18T07:17:19Z</time>
      </trkpt>
      <trkpt lat="43.57311" lon="2.95631">
        <ele>312.6</ele>
        <time>2014-01-18T07:17:20Z</time>
      </trkpt>
      <trkpt lat="43.57309" lon="2.95632">
        <ele>311.6</ele>
        <time>2014-01-18T07:17:21Z</time>
      </trkpt>
      <trkpt lat="43.57307" lon="2.95635">
        <ele>310.4</ele>
        <time>2014-01-18T07:17:22Z</time>
      </trkpt>
      <trkpt lat="43.57304" lon="2.95637">
        <ele>309.4</ele>
        <time>2014-01-18T07:17:23Z</time>
      </trkpt>
      <trkpt lat="43.57301" lon="2.95638">
        <ele>308.2</ele>
        <time>2014-01-18T07:17:24Z</time>
      </trkpt>
      <trkpt lat="43.57297" lon="2.95638">
        <ele>307.2</ele>
        <time>2014-01-18T07:17:25Z</time>
      </trkpt>
      <trkpt lat="43.57292" lon="2.95636">
        <ele>306</ele>
        <time>2014-01-18T07:17:26Z</time>
      </trkpt>
      <trkpt lat="43.57289" lon="2.95634">
        <ele>304.8</ele>
        <time>2014-01-18T07:17:27Z</time>
      </trkpt>
      <trkpt lat="43.57287" lon="2.95632">
        <ele>303.6</ele>
        <time>2014-01-18T07:17:28Z</time>
      </trkpt>
      <trkpt lat="43.57287" lon="2.9563">
        <ele>302.2</ele>
        <time>2014-01-18T07:17:29Z</time>
      </trkpt>
      <trkpt lat="43.57286" lon="2.95627">
        <ele>301</ele>
        <time>2014-01-18T07:17:30Z</time>
      </trkpt>
      <trkpt lat="43.57285" lon="2.95627">
        <ele>299.6</ele>
        <time>2014-01-18T07:17:31Z</time>
      </trkpt>
      <trkpt lat="43.57284" lon="2.95628">
        <ele>298.4</ele>
        <time>2014-01-18T07:17:32Z</time>
      </trkpt>
      <trkpt lat="43.57283" lon="2.9563">
        <ele>297.4</ele>
        <time>2014-01-18T07:17:33Z</time>
      </trkpt>
      <trkpt lat="43.57281" lon="2.95633">
        <ele>296.4</ele>
        <time>2014-01-18T07:17:34Z</time>
      </trkpt>
      <trkpt lat="43.57279" lon="2.95635">
        <ele>295.4</ele>
        <time>2014-01-18T07:17:35Z</time>
      </trkpt>
      <trkpt lat="43.57276" lon="2.95637">
        <ele>294.4</ele>
        <time>2014-01-18T07:17:36Z</time>
      </trkpt>
      <trkpt lat="43.57274" lon="2.95639">
        <ele>293.8</ele>
        <time>2014-01-18T07:17:37Z</time>
      </trkpt>
      <trkpt lat="43.57271" lon="2.9564">
        <ele>293.2</ele>
        <time>2014-01-18T07:17:38Z</time>
      </trkpt>
      <trkpt lat="43.57268" lon="2.9564">
        <ele>291.6</ele>
        <time>2014-01-18T07:17:39Z</time>
      </trkpt>
      <trkpt lat="43.57265" lon="2.95641">
        <ele>290.8</ele>
        <time>2014-01-18T07:17:40Z</time>
      </trkpt>
      <trkpt lat="43.57262" lon="2.95642">
        <ele>289.8</ele>
        <time>2014-01-18T07:17:41Z</time>
      </trkpt>
      <trkpt lat="43.57259" lon="2.95644">
        <ele>288.8</ele>
        <time>2014-01-18T07:17:42Z</time>
      </trkpt>
      <trkpt lat="43.57257" lon="2.95647">
        <ele>287.8</ele>
        <time>2014-01-18T07:17:43Z</time>
      </trkpt>
      <trkpt lat="43.57255" lon="2.95651">
        <ele>287</ele>
        <time>2014-01-18T07:17:44Z</time>
      </trkpt>
      <trkpt lat="43.57255" lon="2.95655">
        <ele>286.2</ele>
        <time>2014-01-18T07:17:45Z</time>
      </trkpt>
      <trkpt lat="43.57253" lon="2.9566">
        <ele>285.4</ele>
        <time>2014-01-18T07:17:46Z</time>
      </trkpt>
      <trkpt lat="43.57252" lon="2.95664">
        <ele>284.6</ele>
        <time>2014-01-18T07:17:47Z</time>
      </trkpt>
      <trkpt lat="43.57251" lon="2.95668">
        <ele>283.8</ele>
        <time>2014-01-18T07:17:48Z</time>
      </trkpt>
      <trkpt lat="43.57249" lon="2.95672">
        <ele>283.2</ele>
        <time>2014-01-18T07:17:49Z</time>
      </trkpt>
      <trkpt lat="43.57249" lon="2.95675">
        <ele>282.6</ele>
        <time>2014-01-18T07:17:50Z</time>
      </trkpt>
      <trkpt lat="43.5725" lon="2.95676">
        <ele>282</ele>
        <time>2014-01-18T07:17:51Z</time>
      </trkpt>
      <trkpt lat="43.5725" lon="2.95677">
        <ele>281.4</ele>
        <time>2014-01-18T07:17:52Z</time>
      </trkpt>
      <trkpt lat="43.57254" lon="2.95688">
        <ele>281.4</ele>
        <time>2014-01-18T07:17:57Z</time>
      </trkpt>
      <trkpt lat="43.57256" lon="2.95692">
        <ele>281.4</ele>
        <time>2014-01-18T07:17:59Z</time>
      </trkpt>
      <trkpt lat="43.57256" lon="2.95695">
        <ele>281.4</ele>
        <time>2014-01-18T07:18:00Z</time>
      </trkpt>
      <trkpt lat="43.57258" lon="2.95701">
        <ele>281.8</ele>
        <time>2014-01-18T07:18:02Z</time>
      </trkpt>
      <trkpt lat="43.57259" lon="2.95704">
        <ele>282.4</ele>
        <time>2014-01-18T07:18:03Z</time>
      </trkpt>
      <trkpt lat="43.5726" lon="2.95708">
        <ele>283.2</ele>
        <time>2014-01-18T07:18:04Z</time>
      </trkpt>
      <trkpt lat="43.5726" lon="2.9571">
        <ele>283.8</ele>
        <time>2014-01-18T07:18:05Z</time>
      </trkpt>
      <trkpt lat="43.57261" lon="2.95712">
        <ele>283.8</ele>
        <time>2014-01-18T07:18:06Z</time>
      </trkpt>
      <trkpt lat="43.57261" lon="2.95716">
        <ele>283.8</ele>
        <time>2014-01-18T07:18:09Z</time>
      </trkpt>
      <trkpt lat="43.57261" lon="2.95716">
        <ele>284.2</ele>
        <time>2014-01-18T07:18:11Z</time>
      </trkpt>
      <trkpt lat="43.57261" lon="2.95716">
        <ele>284.6</ele>
        <time>2014-01-18T07:18:12Z</time>
      </trkpt>
      <trkpt lat="43.57261" lon="2.95716">
        <ele>285</ele>
        <time>2014-01-18T07:18:13Z</time>
      </trkpt>
      <trkpt lat="43.57261" lon="2.95716">
        <ele>285.4</ele>
        <time>2014-01-18T07:18:14Z</time>
      </trkpt>
      <trkpt lat="43.57261" lon="2.95716">
        <ele>285.8</ele>
        <time>2014-01-18T07:18:15Z</time>
      </trkpt>
      <trkpt lat="43.57261" lon="2.95716">
        <ele>285.8</ele>
        <time>2014-01-18T07:18:23Z</time>
      </trkpt>
      <trkpt lat="43.57261" lon="2.95716">
        <ele>285.8</ele>
        <time>2014-01-18T07:18:32Z</time>
      </trkpt>
      <trkpt lat="43.57261" lon="2.95716">
        <ele>285.8</ele>
        <time>2014-01-18T07:18:35Z</time>
      </trkpt>
      <trkpt lat="43.57261" lon="2.95716">
        <ele>285.8</ele>
        <time>2014-01-18T07:18:39Z</time>
      </trkpt>
      <trkpt lat="43.57261" lon="2.95716">
        <ele>285.8</ele>
        <time>2014-01-18T07:18:42Z</time>
      </trkpt>
      <trkpt lat="43.57261" lon="2.95716">
        <ele>285.8</ele>
        <time>2014-01-18T07:18:46Z</time>
      </trkpt>
      <trkpt lat="43.57262" lon="2.95719">
        <ele>285.8</ele>
        <time>2014-01-18T07:18:48Z</time>
      </trkpt>
      <trkpt lat="43.57262" lon="2.9572">
        <ele>285.8</ele>
        <time>2014-01-18T07:18:49Z</time>
      </trkpt>
      <trkpt lat="43.57262" lon="2.95726">
        <ele>285.8</ele>
        <time>2014-01-18T07:18:51Z</time>
      </trkpt>
      <trkpt lat="43.57261" lon="2.95731">
        <ele>285.8</ele>
        <time>2014-01-18T07:18:53Z</time>
      </trkpt>
      <trkpt lat="43.57261" lon="2.95734">
        <ele>285.2</ele>
        <time>2014-01-18T07:18:54Z</time>
      </trkpt>
      <trkpt lat="43.5726" lon="2.95738">
        <ele>284.8</ele>
        <time>2014-01-18T07:18:55Z</time>
      </trkpt>
      <trkpt lat="43.57259" lon="2.95744">
        <ele>284.2</ele>
        <time>2014-01-18T07:18:56Z</time>
      </trkpt>
      <trkpt lat="43.57258" lon="2.9575">
        <ele>283.6</ele>
        <time>2014-01-18T07:18:57Z</time>
      </trkpt>
      <trkpt lat="43.57257" lon="2.95759">
        <ele>283</ele>
        <time>2014-01-18T07:18:58Z</time>
      </trkpt>
      <trkpt lat="43.57254" lon="2.95768">
        <ele>282.2</ele>
        <time>2014-01-18T07:18:59Z</time>
      </trkpt>
      <trkpt lat="43.57253" lon="2.95777">
        <ele>281.4</ele>
        <time>2014-01-18T07:19:00Z</time>
      </trkpt>
      <trkpt lat="43.57252" lon="2.95785">
        <ele>280.2</ele>
        <time>2014-01-18T07:19:01Z</time>
      </trkpt>
      <trkpt lat="43.57251" lon="2.95792">
        <ele>279.2</ele>
        <time>2014-01-18T07:19:02Z</time>
      </trkpt>
      <trkpt lat="43.5725" lon="2.95799">
        <ele>278.2</ele>
        <time>2014-01-18T07:19:03Z</time>
      </trkpt>
      <trkpt lat="43.57249" lon="2.95806">
        <ele>277.2</ele>
        <time>2014-01-18T07:19:04Z</time>
      </trkpt>
      <trkpt lat="43.57249" lon="2.95814">
        <ele>276.4</ele>
        <time>2014-01-18T07:19:05Z</time>
      </trkpt>
      <trkpt lat="43.57251" lon="2.95821">
        <ele>275.8</ele>
        <time>2014-01-18T07:19:06Z</time>
      </trkpt>
      <trkpt lat="43.57252" lon="2.95828">
        <ele>275</ele>
        <time>2014-01-18T07:19:07Z</time>
      </trkpt>
      <trkpt lat="43.57253" lon="2.95836">
        <ele>274.4</ele>
        <time>2014-01-18T07:19:08Z</time>
      </trkpt>
      <trkpt lat="43.57254" lon="2.95845">
        <ele>273.6</ele>
        <time>2014-01-18T07:19:09Z</time>
      </trkpt>
      <trkpt lat="43.57256" lon="2.9586">
        <ele>273.6</ele>
        <time>2014-01-18T07:19:11Z</time>
      </trkpt>
      <trkpt lat="43.57258" lon="2.95874">
        <ele>273.6</ele>
        <time>2014-01-18T07:19:13Z</time>
      </trkpt>
      <trkpt lat="43.57258" lon="2.95879">
        <ele>273.2</ele>
        <time>2014-01-18T07:19:14Z</time>
      </trkpt>
      <trkpt lat="43.57259" lon="2.95884">
        <ele>272.8</ele>
        <time>2014-01-18T07:19:15Z</time>
      </trkpt>
      <trkpt lat="43.57259" lon="2.9589">
        <ele>272.4</ele>
        <time>2014-01-18T07:19:16Z</time>
      </trkpt>
      <trkpt lat="43.5726" lon="2.95897">
        <ele>272</ele>
        <time>2014-01-18T07:19:17Z</time>
      </trkpt>
      <trkpt lat="43.5726" lon="2.95904">
        <ele>271.6</ele>
        <time>2014-01-18T07:19:18Z</time>
      </trkpt>
      <trkpt lat="43.57261" lon="2.95918">
        <ele>271.6</ele>
        <time>2014-01-18T07:19:20Z</time>
      </trkpt>
      <trkpt lat="43.57263" lon="2.95936">
        <ele>271.6</ele>
        <time>2014-01-18T07:19:23Z</time>
      </trkpt>
      <trkpt lat="43.57264" lon="2.95952">
        <ele>271.6</ele>
        <time>2014-01-18T07:19:26Z</time>
      </trkpt>
      <trkpt lat="43.57269" lon="2.95965">
        <ele>271.6</ele>
        <time>2014-01-18T07:19:29Z</time>
      </trkpt>
      <trkpt lat="43.57271" lon="2.95975">
        <ele>271.6</ele>
        <time>2014-01-18T07:19:31Z</time>
      </trkpt>
      <trkpt lat="43.5727" lon="2.95995">
        <ele>271.6</ele>
        <time>2014-01-18T07:19:35Z</time>
      </trkpt>
      <trkpt lat="43.5727" lon="2.96">
        <ele>272</ele>
        <time>2014-01-18T07:19:36Z</time>
      </trkpt>
      <trkpt lat="43.5727" lon="2.96005">
        <ele>272.4</ele>
        <time>2014-01-18T07:19:37Z</time>
      </trkpt>
      <trkpt lat="43.57271" lon="2.9601">
        <ele>272.8</ele>
        <time>2014-01-18T07:19:38Z</time>
      </trkpt>
      <trkpt lat="43.5727" lon="2.96015">
        <ele>273.2</ele>
        <time>2014-01-18T07:19:39Z</time>
      </trkpt>
      <trkpt lat="43.57269" lon="2.96019">
        <ele>273.6</ele>
        <time>2014-01-18T07:19:40Z</time>
      </trkpt>
      <trkpt lat="43.57269" lon="2.96022">
        <ele>273.6</ele>
        <time>2014-01-18T07:19:41Z</time>
      </trkpt>
      <trkpt lat="43.57272" lon="2.96034">
        <ele>273.6</ele>
        <time>2014-01-18T07:19:45Z</time>
      </trkpt>
      <trkpt lat="43.5727" lon="2.96036">
        <ele>273.6</ele>
        <time>2014-01-18T07:19:47Z</time>
      </trkpt>
      <trkpt lat="43.57268" lon="2.96036">
        <ele>273.6</ele>
        <time>2014-01-18T07:19:48Z</time>
      </trkpt>
      <trkpt lat="43.57265" lon="2.96037">
        <ele>273.6</ele>
        <time>2014-01-18T07:19:49Z</time>
      </trkpt>
      <trkpt lat="43.57263" lon="2.96038">
        <ele>273.2</ele>
        <time>2014-01-18T07:19:50Z</time>
      </trkpt>
      <trkpt lat="43.57261" lon="2.96038">
        <ele>272.8</ele>
        <time>2014-01-18T07:19:51Z</time>
      </trkpt>
      <trkpt lat="43.5726" lon="2.96036">
        <ele>272.4</ele>
        <time>2014-01-18T07:19:52Z</time>
      </trkpt>
      <trkpt lat="43.57258" lon="2.96034">
        <ele>272</ele>
        <time>2014-01-18T07:19:53Z</time>
      </trkpt>
      <trkpt lat="43.57257" lon="2.96032">
        <ele>271.4</ele>
        <time>2014-01-18T07:19:54Z</time>
      </trkpt>
      <trkpt lat="43.57257" lon="2.9603">
        <ele>271.4</ele>
        <time>2014-01-18T07:19:55Z</time>
      </trkpt>
      <trkpt lat="43.57256" lon="2.96028">
        <ele>271.4</ele>
        <time>2014-01-18T07:19:56Z</time>
      </trkpt>
      <trkpt lat="43.57251" lon="2.96016">
        <ele>271</ele>
        <time>2014-01-18T07:20:00Z</time>
      </trkpt>
      <trkpt lat="43.57248" lon="2.96014">
        <ele>270.6</ele>
        <time>2014-01-18T07:20:01Z</time>
      </trkpt>
      <trkpt lat="43.57245" lon="2.96011">
        <ele>270</ele>
        <time>2014-01-18T07:20:02Z</time>
      </trkpt>
      <trkpt lat="43.57242" lon="2.96009">
        <ele>269.6</ele>
        <time>2014-01-18T07:20:03Z</time>
      </trkpt>
      <trkpt lat="43.57239" lon="2.96007">
        <ele>269</ele>
        <time>2014-01-18T07:20:04Z</time>
      </trkpt>
      <trkpt lat="43.57236" lon="2.96005">
        <ele>268.4</ele>
        <time>2014-01-18T07:20:05Z</time>
      </trkpt>
      <trkpt lat="43.57234" lon="2.96003">
        <ele>267.6</ele>
        <time>2014-01-18T07:20:06Z</time>
      </trkpt>
      <trkpt lat="43.57233" lon="2.95999">
        <ele>266.8</ele>
        <time>2014-01-18T07:20:07Z</time>
      </trkpt>
      <trkpt lat="43.57233" lon="2.95996">
        <ele>265.2</ele>
        <time>2014-01-18T07:20:08Z</time>
      </trkpt>
      <trkpt lat="43.57233" lon="2.9599">
        <ele>264.4</ele>
        <time>2014-01-18T07:20:09Z</time>
      </trkpt>
      <trkpt lat="43.57233" lon="2.95985">
        <ele>264</ele>
        <time>2014-01-18T07:20:10Z</time>
      </trkpt>
      <trkpt lat="43.57232" lon="2.95981">
        <ele>263.4</ele>
        <time>2014-01-18T07:20:11Z</time>
      </trkpt>
      <trkpt lat="43.5723" lon="2.95977">
        <ele>263</ele>
        <time>2014-01-18T07:20:12Z</time>
      </trkpt>
      <trkpt lat="43.57227" lon="2.95975">
        <ele>262.6</ele>
        <time>2014-01-18T07:20:13Z</time>
      </trkpt>
      <trkpt lat="43.57226" lon="2.95974">
        <ele>262</ele>
        <time>2014-01-18T07:20:14Z</time>
      </trkpt>
      <trkpt lat="43.57225" lon="2.95973">
        <ele>261.4</ele>
        <time>2014-01-18T07:20:15Z</time>
      </trkpt>
      <trkpt lat="43.57221" lon="2.95972">
        <ele>261</ele>
        <time>2014-01-18T07:20:16Z</time>
      </trkpt>
      <trkpt lat="43.57218" lon="2.95971">
        <ele>260.4</ele>
        <time>2014-01-18T07:20:17Z</time>
      </trkpt>
      <trkpt lat="43.57215" lon="2.95971">
        <ele>259.8</ele>
        <time>2014-01-18T07:20:18Z</time>
      </trkpt>
      <trkpt lat="43.57212" lon="2.95972">
        <ele>259.4</ele>
        <time>2014-01-18T07:20:19Z</time>
      </trkpt>
      <trkpt lat="43.57208" lon="2.95973">
        <ele>258.8</ele>
        <time>2014-01-18T07:20:20Z</time>
      </trkpt>
      <trkpt lat="43.57205" lon="2.95973">
        <ele>258</ele>
        <time>2014-01-18T07:20:21Z</time>
      </trkpt>
      <trkpt lat="43.57201" lon="2.95972">
        <ele>257.2</ele>
        <time>2014-01-18T07:20:22Z</time>
      </trkpt>
      <trkpt lat="43.57198" lon="2.95971">
        <ele>256.4</ele>
        <time>2014-01-18T07:20:23Z</time>
      </trkpt>
      <trkpt lat="43.57196" lon="2.95971">
        <ele>255.8</ele>
        <time>2014-01-18T07:20:24Z</time>
      </trkpt>
      <trkpt lat="43.57194" lon="2.9597">
        <ele>255</ele>
        <time>2014-01-18T07:20:25Z</time>
      </trkpt>
      <trkpt lat="43.57193" lon="2.95969">
        <ele>254.2</ele>
        <time>2014-01-18T07:20:26Z</time>
      </trkpt>
      <trkpt lat="43.57192" lon="2.95969">
        <ele>253.6</ele>
        <time>2014-01-18T07:20:27Z</time>
      </trkpt>
      <trkpt lat="43.57192" lon="2.95969">
        <ele>252.8</ele>
        <time>2014-01-18T07:20:28Z</time>
      </trkpt>
      <trkpt lat="43.57192" lon="2.95969">
        <ele>252.8</ele>
        <time>2014-01-18T07:20:38Z</time>
      </trkpt>
      <trkpt lat="43.5719" lon="2.95967">
        <ele>252.8</ele>
        <time>2014-01-18T07:20:40Z</time>
      </trkpt>
      <trkpt lat="43.57183" lon="2.95952">
        <ele>252.4</ele>
        <time>2014-01-18T07:20:44Z</time>
      </trkpt>
      <trkpt lat="43.5718" lon="2.95948">
        <ele>252</ele>
        <time>2014-01-18T07:20:45Z</time>
      </trkpt>
      <trkpt lat="43.57176" lon="2.95944">
        <ele>251.6</ele>
        <time>2014-01-18T07:20:46Z</time>
      </trkpt>
      <trkpt lat="43.57174" lon="2.95938">
        <ele>251.2</ele>
        <time>2014-01-18T07:20:47Z</time>
      </trkpt>
      <trkpt lat="43.57172" lon="2.95932">
        <ele>250.6</ele>
        <time>2014-01-18T07:20:48Z</time>
      </trkpt>
      <trkpt lat="43.57169" lon="2.95928">
        <ele>250.2</ele>
        <time>2014-01-18T07:20:49Z</time>
      </trkpt>
      <trkpt lat="43.57167" lon="2.95927">
        <ele>249.8</ele>
        <time>2014-01-18T07:20:50Z</time>
      </trkpt>
      <trkpt lat="43.57166" lon="2.9593">
        <ele>249.2</ele>
        <time>2014-01-18T07:20:51Z</time>
      </trkpt>
      <trkpt lat="43.57164" lon="2.95933">
        <ele>248.8</ele>
        <time>2014-01-18T07:20:52Z</time>
      </trkpt>
      <trkpt lat="43.57162" lon="2.95938">
        <ele>248.2</ele>
        <time>2014-01-18T07:20:53Z</time>
      </trkpt>
      <trkpt lat="43.57161" lon="2.95944">
        <ele>247.6</ele>
        <time>2014-01-18T07:20:54Z</time>
      </trkpt>
      <trkpt lat="43.57158" lon="2.9595">
        <ele>247</ele>
        <time>2014-01-18T07:20:55Z</time>
      </trkpt>
      <trkpt lat="43.57155" lon="2.95958">
        <ele>246.4</ele>
        <time>2014-01-18T07:20:56Z</time>
      </trkpt>
      <trkpt lat="43.57151" lon="2.95965">
        <ele>245.4</ele>
        <time>2014-01-18T07:20:57Z</time>
      </trkpt>
      <trkpt lat="43.57147" lon="2.95972">
        <ele>245</ele>
        <time>2014-01-18T07:20:58Z</time>
      </trkpt>
      <trkpt lat="43.57144" lon="2.95978">
        <ele>244.6</ele>
        <time>2014-01-18T07:20:59Z</time>
      </trkpt>
      <trkpt lat="43.57141" lon="2.95983">
        <ele>244.2</ele>
        <time>2014-01-18T07:21:00Z</time>
      </trkpt>
      <trkpt lat="43.57139" lon="2.95987">
        <ele>243.8</ele>
        <time>2014-01-18T07:21:01Z</time>
      </trkpt>
      <trkpt lat="43.57139" lon="2.95997">
        <ele>243.8</ele>
        <time>2014-01-18T07:21:03Z</time>
      </trkpt>
      <trkpt lat="43.5714" lon="2.96008">
        <ele>243.4</ele>
        <time>2014-01-18T07:21:05Z</time>
      </trkpt>
      <trkpt lat="43.57141" lon="2.96014">
        <ele>243</ele>
        <time>2014-01-18T07:21:06Z</time>
      </trkpt>
      <trkpt lat="43.57141" lon="2.9602">
        <ele>242.6</ele>
        <time>2014-01-18T07:21:07Z</time>
      </trkpt>
      <trkpt lat="43.57142" lon="2.96026">
        <ele>242.2</ele>
        <time>2014-01-18T07:21:08Z</time>
      </trkpt>
      <trkpt lat="43.57142" lon="2.96032">
        <ele>241.8</ele>
        <time>2014-01-18T07:21:09Z</time>
      </trkpt>
      <trkpt lat="43.57142" lon="2.96044">
        <ele>241.8</ele>
        <time>2014-01-18T07:21:11Z</time>
      </trkpt>
      <trkpt lat="43.57142" lon="2.9605">
        <ele>241.8</ele>
        <time>2014-01-18T07:21:12Z</time>
      </trkpt>
      <trkpt lat="43.57141" lon="2.96069">
        <ele>241.8</ele>
        <time>2014-01-18T07:21:15Z</time>
      </trkpt>
      <trkpt lat="43.5714" lon="2.96075">
        <ele>241.8</ele>
        <time>2014-01-18T07:21:16Z</time>
      </trkpt>
      <trkpt lat="43.5714" lon="2.96082">
        <ele>241.2</ele>
        <time>2014-01-18T07:21:17Z</time>
      </trkpt>
      <trkpt lat="43.5714" lon="2.9609">
        <ele>240.8</ele>
        <time>2014-01-18T07:21:18Z</time>
      </trkpt>
      <trkpt lat="43.5714" lon="2.96097">
        <ele>240.4</ele>
        <time>2014-01-18T07:21:19Z</time>
      </trkpt>
      <trkpt lat="43.57141" lon="2.96104">
        <ele>240</ele>
        <time>2014-01-18T07:21:20Z</time>
      </trkpt>
      <trkpt lat="43.57142" lon="2.96111">
        <ele>239.4</ele>
        <time>2014-01-18T07:21:21Z</time>
      </trkpt>
      <trkpt lat="43.57147" lon="2.96123">
        <ele>239.4</ele>
        <time>2014-01-18T07:21:23Z</time>
      </trkpt>
      <trkpt lat="43.57149" lon="2.9613">
        <ele>239.4</ele>
        <time>2014-01-18T07:21:24Z</time>
      </trkpt>
      <trkpt lat="43.57159" lon="2.96153">
        <ele>239.4</ele>
        <time>2014-01-18T07:21:28Z</time>
      </trkpt>
      <trkpt lat="43.57162" lon="2.96158">
        <ele>239.4</ele>
        <time>2014-01-18T07:21:29Z</time>
      </trkpt>
      <trkpt lat="43.57169" lon="2.96173">
        <ele>239.4</ele>
        <time>2014-01-18T07:21:32Z</time>
      </trkpt>
      <trkpt lat="43.57171" lon="2.96177">
        <ele>239.4</ele>
        <time>2014-01-18T07:21:33Z</time>
      </trkpt>
      <trkpt lat="43.57173" lon="2.96182">
        <ele>239</ele>
        <time>2014-01-18T07:21:34Z</time>
      </trkpt>
      <trkpt lat="43.57174" lon="2.96188">
        <ele>238.6</ele>
        <time>2014-01-18T07:21:35Z</time>
      </trkpt>
      <trkpt lat="43.57175" lon="2.96192">
        <ele>238.2</ele>
        <time>2014-01-18T07:21:36Z</time>
      </trkpt>
      <trkpt lat="43.57176" lon="2.96197">
        <ele>237.8</ele>
        <time>2014-01-18T07:21:37Z</time>
      </trkpt>
      <trkpt lat="43.57178" lon="2.96203">
        <ele>237.4</ele>
        <time>2014-01-18T07:21:38Z</time>
      </trkpt>
      <trkpt lat="43.5718" lon="2.96208">
        <ele>237.4</ele>
        <time>2014-01-18T07:21:39Z</time>
      </trkpt>
      <trkpt lat="43.57183" lon="2.96213">
        <ele>237.4</ele>
        <time>2014-01-18T07:21:40Z</time>
      </trkpt>
      <trkpt lat="43.57188" lon="2.96224">
        <ele>237</ele>
        <time>2014-01-18T07:21:42Z</time>
      </trkpt>
      <trkpt lat="43.57191" lon="2.96231">
        <ele>236.6</ele>
        <time>2014-01-18T07:21:43Z</time>
      </trkpt>
      <trkpt lat="43.57192" lon="2.96239">
        <ele>236.2</ele>
        <time>2014-01-18T07:21:44Z</time>
      </trkpt>
      <trkpt lat="43.57195" lon="2.96245">
        <ele>235.8</ele>
        <time>2014-01-18T07:21:45Z</time>
      </trkpt>
      <trkpt lat="43.57196" lon="2.96252">
        <ele>235.2</ele>
        <time>2014-01-18T07:21:46Z</time>
      </trkpt>
      <trkpt lat="43.57199" lon="2.96264">
        <ele>235.2</ele>
        <time>2014-01-18T07:21:48Z</time>
      </trkpt>
      <trkpt lat="43.57201" lon="2.96278">
        <ele>235.2</ele>
        <time>2014-01-18T07:21:50Z</time>
      </trkpt>
      <trkpt lat="43.57202" lon="2.96285">
        <ele>235.2</ele>
        <time>2014-01-18T07:21:51Z</time>
      </trkpt>
      <trkpt lat="43.57204" lon="2.96297">
        <ele>235.2</ele>
        <time>2014-01-18T07:21:53Z</time>
      </trkpt>
      <trkpt lat="43.57206" lon="2.96307">
        <ele>235.6</ele>
        <time>2014-01-18T07:21:55Z</time>
      </trkpt>
      <trkpt lat="43.57206" lon="2.96311">
        <ele>236.2</ele>
        <time>2014-01-18T07:21:56Z</time>
      </trkpt>
      <trkpt lat="43.57206" lon="2.96317">
        <ele>236.6</ele>
        <time>2014-01-18T07:21:57Z</time>
      </trkpt>
      <trkpt lat="43.57206" lon="2.96323">
        <ele>237</ele>
        <time>2014-01-18T07:21:58Z</time>
      </trkpt>
      <trkpt lat="43.57206" lon="2.9633">
        <ele>237.4</ele>
        <time>2014-01-18T07:21:59Z</time>
      </trkpt>
      <trkpt lat="43.57206" lon="2.96344">
        <ele>237.4</ele>
        <time>2014-01-18T07:22:01Z</time>
      </trkpt>
      <trkpt lat="43.57206" lon="2.96351">
        <ele>237</ele>
        <time>2014-01-18T07:22:02Z</time>
      </trkpt>
      <trkpt lat="43.57205" lon="2.96358">
        <ele>236.4</ele>
        <time>2014-01-18T07:22:03Z</time>
      </trkpt>
      <trkpt lat="43.57203" lon="2.96366">
        <ele>236</ele>
        <time>2014-01-18T07:22:04Z</time>
      </trkpt>
      <trkpt lat="43.57201" lon="2.96373">
        <ele>235.4</ele>
        <time>2014-01-18T07:22:05Z</time>
      </trkpt>
      <trkpt lat="43.57201" lon="2.9638">
        <ele>235</ele>
        <time>2014-01-18T07:22:06Z</time>
      </trkpt>
      <trkpt lat="43.57201" lon="2.96387">
        <ele>234.4</ele>
        <time>2014-01-18T07:22:07Z</time>
      </trkpt>
      <trkpt lat="43.572" lon="2.96394">
        <ele>233.8</ele>
        <time>2014-01-18T07:22:08Z</time>
      </trkpt>
      <trkpt lat="43.57199" lon="2.96401">
        <ele>233.2</ele>
        <time>2014-01-18T07:22:09Z</time>
      </trkpt>
      <trkpt lat="43.57197" lon="2.96407">
        <ele>232.8</ele>
        <time>2014-01-18T07:22:10Z</time>
      </trkpt>
      <trkpt lat="43.57196" lon="2.96414">
        <ele>232.4</ele>
        <time>2014-01-18T07:22:11Z</time>
      </trkpt>
      <trkpt lat="43.57194" lon="2.96421">
        <ele>231.8</ele>
        <time>2014-01-18T07:22:12Z</time>
      </trkpt>
      <trkpt lat="43.57194" lon="2.96428">
        <ele>231.4</ele>
        <time>2014-01-18T07:22:13Z</time>
      </trkpt>
      <trkpt lat="43.57194" lon="2.96436">
        <ele>231</ele>
        <time>2014-01-18T07:22:14Z</time>
      </trkpt>
      <trkpt lat="43.57195" lon="2.96443">
        <ele>230.6</ele>
        <time>2014-01-18T07:22:15Z</time>
      </trkpt>
      <trkpt lat="43.57194" lon="2.9645">
        <ele>230.6</ele>
        <time>2014-01-18T07:22:16Z</time>
      </trkpt>
      <trkpt lat="43.57191" lon="2.96461">
        <ele>230.2</ele>
        <time>2014-01-18T07:22:18Z</time>
      </trkpt>
      <trkpt lat="43.57189" lon="2.96468">
        <ele>229.8</ele>
        <time>2014-01-18T07:22:19Z</time>
      </trkpt>
      <trkpt lat="43.57188" lon="2.96476">
        <ele>229.2</ele>
        <time>2014-01-18T07:22:20Z</time>
      </trkpt>
      <trkpt lat="43.57187" lon="2.96484">
        <ele>228.8</ele>
        <time>2014-01-18T07:22:21Z</time>
      </trkpt>
      <trkpt lat="43.57185" lon="2.96492">
        <ele>228.4</ele>
        <time>2014-01-18T07:22:22Z</time>
      </trkpt>
      <trkpt lat="43.57182" lon="2.96499">
        <ele>227.8</ele>
        <time>2014-01-18T07:22:23Z</time>
      </trkpt>
      <trkpt lat="43.5718" lon="2.96505">
        <ele>227.2</ele>
        <time>2014-01-18T07:22:24Z</time>
      </trkpt>
      <trkpt lat="43.57178" lon="2.96514">
        <ele>226.4</ele>
        <time>2014-01-18T07:22:25Z</time>
      </trkpt>
      <trkpt lat="43.57175" lon="2.96523">
        <ele>225.6</ele>
        <time>2014-01-18T07:22:26Z</time>
      </trkpt>
      <trkpt lat="43.57174" lon="2.96532">
        <ele>224.6</ele>
        <time>2014-01-18T07:22:27Z</time>
      </trkpt>
      <trkpt lat="43.57172" lon="2.96542">
        <ele>223.6</ele>
        <time>2014-01-18T07:22:28Z</time>
      </trkpt>
      <trkpt lat="43.57171" lon="2.96549">
        <ele>222.6</ele>
        <time>2014-01-18T07:22:29Z</time>
      </trkpt>
      <trkpt lat="43.5717" lon="2.96554">
        <ele>221.4</ele>
        <time>2014-01-18T07:22:30Z</time>
      </trkpt>
      <trkpt lat="43.5717" lon="2.96556">
        <ele>220.4</ele>
        <time>2014-01-18T07:22:31Z</time>
      </trkpt>
      <trkpt lat="43.57171" lon="2.96556">
        <ele>219.4</ele>
        <time>2014-01-18T07:22:32Z</time>
      </trkpt>
      <trkpt lat="43.57171" lon="2.96557">
        <ele>218.4</ele>
        <time>2014-01-18T07:22:33Z</time>
      </trkpt>
      <trkpt lat="43.57171" lon="2.96557">
        <ele>217.4</ele>
        <time>2014-01-18T07:22:34Z</time>
      </trkpt>
      <trkpt lat="43.57171" lon="2.96557">
        <ele>216.2</ele>
        <time>2014-01-18T07:22:35Z</time>
      </trkpt>
      <trkpt lat="43.57171" lon="2.96557">
        <ele>216.2</ele>
        <time>2014-01-18T07:22:41Z</time>
      </trkpt>
      <trkpt lat="43.57171" lon="2.96557">
        <ele>216.2</ele>
        <time>2014-01-18T07:22:50Z</time>
      </trkpt>
      <trkpt lat="43.57171" lon="2.96557">
        <ele>216.2</ele>
        <time>2014-01-18T07:22:51Z</time>
      </trkpt>
      <trkpt lat="43.57171" lon="2.96557">
        <ele>216.2</ele>
        <time>2014-01-18T07:22:56Z</time>
      </trkpt>
      <trkpt lat="43.57171" lon="2.96557">
        <ele>216.2</ele>
        <time>2014-01-18T07:22:57Z</time>
      </trkpt>
      <trkpt lat="43.57171" lon="2.96557">
        <ele>216.2</ele>
        <time>2014-01-18T07:23:00Z</time>
      </trkpt>
      <trkpt lat="43.57171" lon="2.96557">
        <ele>216.2</ele>
        <time>2014-01-18T07:23:03Z</time>
      </trkpt>
      <trkpt lat="43.5717" lon="2.96557">
        <ele>216.2</ele>
        <time>2014-01-18T07:23:05Z</time>
      </trkpt>
      <trkpt lat="43.57168" lon="2.96557">
        <ele>216.2</ele>
        <time>2014-01-18T07:23:07Z</time>
      </trkpt>
      <trkpt lat="43.57166" lon="2.96557">
        <ele>216.2</ele>
        <time>2014-01-18T07:23:09Z</time>
      </trkpt>
      <trkpt lat="43.57164" lon="2.96558">
        <ele>216.2</ele>
        <time>2014-01-18T07:23:10Z</time>
      </trkpt>
      <trkpt lat="43.57159" lon="2.9656">
        <ele>216.2</ele>
        <time>2014-01-18T07:23:12Z</time>
      </trkpt>
      <trkpt lat="43.57151" lon="2.96565">
        <ele>215.8</ele>
        <time>2014-01-18T07:23:14Z</time>
      </trkpt>
      <trkpt lat="43.57148" lon="2.96568">
        <ele>215.4</ele>
        <time>2014-01-18T07:23:15Z</time>
      </trkpt>
      <trkpt lat="43.57144" lon="2.96572">
        <ele>214.8</ele>
        <time>2014-01-18T07:23:16Z</time>
      </trkpt>
      <trkpt lat="43.57141" lon="2.96577">
        <ele>214.2</ele>
        <time>2014-01-18T07:23:17Z</time>
      </trkpt>
      <trkpt lat="43.57137" lon="2.96581">
        <ele>213.6</ele>
        <time>2014-01-18T07:23:18Z</time>
      </trkpt>
      <trkpt lat="43.57133" lon="2.96586">
        <ele>213</ele>
        <time>2014-01-18T07:23:19Z</time>
      </trkpt>
      <trkpt lat="43.57128" lon="2.96591">
        <ele>212.4</ele>
        <time>2014-01-18T07:23:20Z</time>
      </trkpt>
      <trkpt lat="43.57123" lon="2.96596">
        <ele>211.8</ele>
        <time>2014-01-18T07:23:21Z</time>
      </trkpt>
      <trkpt lat="43.57118" lon="2.96602">
        <ele>211.2</ele>
        <time>2014-01-18T07:23:22Z</time>
      </trkpt>
      <trkpt lat="43.57112" lon="2.96608">
        <ele>210.2</ele>
        <time>2014-01-18T07:23:23Z</time>
      </trkpt>
      <trkpt lat="43.57107" lon="2.96613">
        <ele>209.4</ele>
        <time>2014-01-18T07:23:24Z</time>
      </trkpt>
      <trkpt lat="43.57102" lon="2.96618">
        <ele>207.4</ele>
        <time>2014-01-18T07:23:25Z</time>
      </trkpt>
      <trkpt lat="43.57099" lon="2.96622">
        <ele>206.4</ele>
        <time>2014-01-18T07:23:26Z</time>
      </trkpt>
      <trkpt lat="43.57095" lon="2.96627">
        <ele>205.6</ele>
        <time>2014-01-18T07:23:27Z</time>
      </trkpt>
      <trkpt lat="43.57092" lon="2.96631">
        <ele>204.6</ele>
        <time>2014-01-18T07:23:28Z</time>
      </trkpt>
      <trkpt lat="43.57087" lon="2.96635">
        <ele>203.8</ele>
        <time>2014-01-18T07:23:29Z</time>
      </trkpt>
      <trkpt lat="43.57082" lon="2.96639">
        <ele>202.8</ele>
        <time>2014-01-18T07:23:30Z</time>
      </trkpt>
      <trkpt lat="43.57077" lon="2.96643">
        <ele>202.2</ele>
        <time>2014-01-18T07:23:31Z</time>
      </trkpt>
      <trkpt lat="43.57072" lon="2.96648">
        <ele>201.6</ele>
        <time>2014-01-18T07:23:32Z</time>
      </trkpt>
      <trkpt lat="43.57067" lon="2.96654">
        <ele>201</ele>
        <time>2014-01-18T07:23:33Z</time>
      </trkpt>
      <trkpt lat="43.57061" lon="2.96659">
        <ele>200.4</ele>
        <time>2014-01-18T07:23:34Z</time>
      </trkpt>
      <trkpt lat="43.57057" lon="2.96665">
        <ele>199.8</ele>
        <time>2014-01-18T07:23:35Z</time>
      </trkpt>
      <trkpt lat="43.57052" lon="2.96672">
        <ele>199.2</ele>
        <time>2014-01-18T07:23:36Z</time>
      </trkpt>
      <trkpt lat="43.57046" lon="2.96678">
        <ele>198.6</ele>
        <time>2014-01-18T07:23:37Z</time>
      </trkpt>
      <trkpt lat="43.5704" lon="2.96682">
        <ele>198</ele>
        <time>2014-01-18T07:23:38Z</time>
      </trkpt>
      <trkpt lat="43.57034" lon="2.96685">
        <ele>197.6</ele>
        <time>2014-01-18T07:23:39Z</time>
      </trkpt>
      <trkpt lat="43.57027" lon="2.96687">
        <ele>197</ele>
        <time>2014-01-18T07:23:40Z</time>
      </trkpt>
      <trkpt lat="43.57021" lon="2.96688">
        <ele>196.4</ele>
        <time>2014-01-18T07:23:41Z</time>
      </trkpt>
      <trkpt lat="43.5702" lon="2.96688">
        <ele>156.8</ele>
        <time>2013-11-27T17:09:12Z</time>
      </trkpt>
      <trkpt lat="43.57017" lon="2.96692">
        <ele>156.6</ele>
        <time>2013-11-27T17:09:13Z</time>
      </trkpt>
      <trkpt lat="43.57016" lon="2.96698">
        <ele>156.4</ele>
        <time>2013-11-27T17:09:14Z</time>
      </trkpt>
      <trkpt lat="43.57018" lon="2.96703">
        <ele>156.4</ele>
        <time>2013-11-27T17:09:15Z</time>
      </trkpt>
      <trkpt lat="43.57022" lon="2.9671">
        <ele>155.6</ele>
        <time>2013-11-27T17:09:16Z</time>
      </trkpt>
      <trkpt lat="43.57027" lon="2.96716">
        <ele>154.8</ele>
        <time>2013-11-27T17:09:17Z</time>
      </trkpt>
      <trkpt lat="43.5703" lon="2.96722">
        <ele>154</ele>
        <time>2013-11-27T17:09:18Z</time>
      </trkpt>
      <trkpt lat="43.57034" lon="2.96728">
        <ele>153.4</ele>
        <time>2013-11-27T17:09:19Z</time>
      </trkpt>
      <trkpt lat="43.57035" lon="2.96734">
        <ele>153</ele>
        <time>2013-11-27T17:09:20Z</time>
      </trkpt>
      <trkpt lat="43.57034" lon="2.9674">
        <ele>152.8</ele>
        <time>2013-11-27T17:09:21Z</time>
      </trkpt>
      <trkpt lat="43.57032" lon="2.96746">
        <ele>152.8</ele>
        <time>2013-11-27T17:09:22Z</time>
      </trkpt>
      <trkpt lat="43.57029" lon="2.96751">
        <ele>152.8</ele>
        <time>2013-11-27T17:09:23Z</time>
      </trkpt>
      <trkpt lat="43.57026" lon="2.96757">
        <ele>152.8</ele>
        <time>2013-11-27T17:09:24Z</time>
      </trkpt>
      <trkpt lat="43.57022" lon="2.9676">
        <ele>152.6</ele>
        <time>2013-11-27T17:09:25Z</time>
      </trkpt>
      <trkpt lat="43.57017" lon="2.96762">
        <ele>152.6</ele>
        <time>2013-11-27T17:09:26Z</time>
      </trkpt>
      <trkpt lat="43.57014" lon="2.96761">
        <ele>152.8</ele>
        <time>2013-11-27T17:09:27Z</time>
      </trkpt>
      <trkpt lat="43.57011" lon="2.96758">
        <ele>153</ele>
        <time>2013-11-27T17:09:28Z</time>
      </trkpt>
      <trkpt lat="43.57009" lon="2.96754">
        <ele>153.4</ele>
        <time>2013-11-27T17:09:29Z</time>
      </trkpt>
      <trkpt lat="43.57007" lon="2.96749">
        <ele>153.8</ele>
        <time>2013-11-27T17:09:30Z</time>
      </trkpt>
      <trkpt lat="43.57004" lon="2.96745">
        <ele>154.4</ele>
        <time>2013-11-27T17:09:31Z</time>
      </trkpt>
      <trkpt lat="43.57001" lon="2.96741">
        <ele>154.8</ele>
        <time>2013-11-27T17:09:32Z</time>
      </trkpt>
      <trkpt lat="43.56999" lon="2.96737">
        <ele>154.8</ele>
        <time>2013-11-27T17:09:33Z</time>
      </trkpt>
      <trkpt lat="43.56996" lon="2.96732">
        <ele>154.6</ele>
        <time>2013-11-27T17:09:34Z</time>
      </trkpt>
      <trkpt lat="43.56992" lon="2.96728">
        <ele>154.6</ele>
        <time>2013-11-27T17:09:35Z</time>
      </trkpt>
      <trkpt lat="43.56989" lon="2.96723">
        <ele>154.4</ele>
        <time>2013-11-27T17:09:36Z</time>
      </trkpt>
      <trkpt lat="43.56985" lon="2.96718">
        <ele>154</ele>
        <time>2013-11-27T17:09:37Z</time>
      </trkpt>
      <trkpt lat="43.56982" lon="2.96713">
        <ele>153.6</ele>
        <time>2013-11-27T17:09:38Z</time>
      </trkpt>
      <trkpt lat="43.56978" lon="2.96709">
        <ele>153.4</ele>
        <time>2013-11-27T17:09:39Z</time>
      </trkpt>
      <trkpt lat="43.56974" lon="2.96703">
        <ele>153.2</ele>
        <time>2013-11-27T17:09:40Z</time>
      </trkpt>
      <trkpt lat="43.5697" lon="2.96698">
        <ele>153</ele>
        <time>2013-11-27T17:09:41Z</time>
      </trkpt>
      <trkpt lat="43.56966" lon="2.96692">
        <ele>153</ele>
        <time>2013-11-27T17:09:42Z</time>
      </trkpt>
      <trkpt lat="43.56961" lon="2.96686">
        <ele>153</ele>
        <time>2013-11-27T17:09:43Z</time>
      </trkpt>
      <trkpt lat="43.56956" lon="2.96681">
        <ele>152.6</ele>
        <time>2013-11-27T17:09:44Z</time>
      </trkpt>
      <trkpt lat="43.56951" lon="2.96675">
        <ele>152.2</ele>
        <time>2013-11-27T17:09:45Z</time>
      </trkpt>
      <trkpt lat="43.56946" lon="2.9667">
        <ele>152</ele>
        <time>2013-11-27T17:09:46Z</time>
      </trkpt>
      <trkpt lat="43.5694" lon="2.96665">
        <ele>151.6</ele>
        <time>2013-11-27T17:09:47Z</time>
      </trkpt>
      <trkpt lat="43.56935" lon="2.9666">
        <ele>151.2</ele>
        <time>2013-11-27T17:09:48Z</time>
      </trkpt>
      <trkpt lat="43.56929" lon="2.96655">
        <ele>150.8</ele>
        <time>2013-11-27T17:09:49Z</time>
      </trkpt>
      <trkpt lat="43.56923" lon="2.9665">
        <ele>150.4</ele>
        <time>2013-11-27T17:09:50Z</time>
      </trkpt>
      <trkpt lat="43.56917" lon="2.96645">
        <ele>150.2</ele>
        <time>2013-11-27T17:09:51Z</time>
      </trkpt>
      <trkpt lat="43.56912" lon="2.96639">
        <ele>149.8</ele>
        <time>2013-11-27T17:09:52Z</time>
      </trkpt>
      <trkpt lat="43.56907" lon="2.96633">
        <ele>149.4</ele>
        <time>2013-11-27T17:09:53Z</time>
      </trkpt>
      <trkpt lat="43.56902" lon="2.96627">
        <ele>148.8</ele>
        <time>2013-11-27T17:09:54Z</time>
      </trkpt>
      <trkpt lat="43.56897" lon="2.96621">
        <ele>148.4</ele>
        <time>2013-11-27T17:09:55Z</time>
      </trkpt>
      <trkpt lat="43.56892" lon="2.96615">
        <ele>148</ele>
        <time>2013-11-27T17:09:56Z</time>
      </trkpt>
      <trkpt lat="43.56887" lon="2.96608">
        <ele>147.6</ele>
        <time>2013-11-27T17:09:57Z</time>
      </trkpt>
      <trkpt lat="43.56882" lon="2.96601">
        <ele>147.2</ele>
        <time>2013-11-27T17:09:58Z</time>
      </trkpt>
      <trkpt lat="43.56878" lon="2.96595">
        <ele>146.6</ele>
        <time>2013-11-27T17:09:59Z</time>
      </trkpt>
      <trkpt lat="43.56874" lon="2.9659">
        <ele>146.4</ele>
        <time>2013-11-27T17:10:00Z</time>
      </trkpt>
    </trkseg>
  </trk>
</gpx>